<?xml version="1.0" encoding="UTF-8"?>
<gpx xmlns="http://www.topografix.com/GPX/1/1" version="1.1" creator="Nokia Sports Tracker" xmlns:xsi="http://www.w3.org/2001/XMLSchema-instance" xsi:schemaLocation="http://www.topografix.com/GPX/1/1 http://www.topografix.com/GPX/1/1/gpx.xsd">
<metadata>
<name>28.02.2010 15:59</name>
<desc>Nordic Walking on Bodo7</desc>
<author><name>Jörg U.</name></author>
<time>2010-02-28T16:08:46.08</time>
</metadata>
<trk>
<name>28.02.2010 15:59</name>
<trkseg>
<trkpt lat="48.989625" lon="8.652860">
<ele>315.5</ele>
<speed>0.9</speed>
<course>12.6</course>
<desc>Speed 0.9 km/h Distance 0.00 km</desc>
<time>2010-02-28T16:08:46.73</time>
<name>1</name>
</trkpt>
<trkpt lat="48.989627" lon="8.652860">
<ele>316.0</ele>
<speed>2.1</speed>
<course>255.8</course>
<desc>Speed 2.1 km/h Distance 0.00 km</desc>
<time>2010-02-28T16:08:48.16</time>
<name>2</name>
</trkpt>
<trkpt lat="48.989625" lon="8.652850">
<ele>317.0</ele>
<speed>2.3</speed>
<course>215.8</course>
<desc>Speed 2.3 km/h Distance 0.00 km</desc>
<time>2010-02-28T16:08:49.16</time>
<name>3</name>
</trkpt>
<trkpt lat="48.989608" lon="8.652832">
<ele>319.0</ele>
<speed>8.0</speed>
<course>187.7</course>
<desc>Speed 8.0 km/h Distance 0.00 km</desc>
<time>2010-02-28T16:08:50.31</time>
<name>4</name>
</trkpt>
<trkpt lat="48.989592" lon="8.652828">
<ele>319.0</ele>
<speed>6.8</speed>
<course>191.2</course>
<desc>Speed 6.8 km/h Distance 0.01 km</desc>
<time>2010-02-28T16:08:51.18</time>
<name>5</name>
</trkpt>
<trkpt lat="48.989580" lon="8.652825">
<ele>318.5</ele>
<speed>4.5</speed>
<course>159.4</course>
<desc>Speed 4.5 km/h Distance 0.01 km</desc>
<time>2010-02-28T16:08:52.18</time>
<name>6</name>
</trkpt>
<trkpt lat="48.989568" lon="8.652832">
<ele>318.5</ele>
<speed>4.8</speed>
<course>154.8</course>
<desc>Speed 4.8 km/h Distance 0.01 km</desc>
<time>2010-02-28T16:08:53.18</time>
<name>7</name>
</trkpt>
<trkpt lat="48.989557" lon="8.652840">
<ele>318.5</ele>
<speed>4.9</speed>
<course>127.3</course>
<desc>Speed 4.9 km/h Distance 0.01 km</desc>
<time>2010-02-28T16:08:54.18</time>
<name>8</name>
</trkpt>
<trkpt lat="48.989550" lon="8.652853">
<ele>318.0</ele>
<speed>4.2</speed>
<course>130.3</course>
<desc>Speed 4.2 km/h Distance 0.01 km</desc>
<time>2010-02-28T16:08:55.18</time>
<name>9</name>
</trkpt>
<trkpt lat="48.989542" lon="8.652868">
<ele>317.5</ele>
<speed>5.0</speed>
<course>108.7</course>
<desc>Speed 5.0 km/h Distance 0.01 km</desc>
<time>2010-02-28T16:08:56.31</time>
<name>10</name>
</trkpt>
<trkpt lat="48.989538" lon="8.652883">
<ele>316.5</ele>
<speed>3.7</speed>
<course>114.6</course>
<desc>Speed 3.7 km/h Distance 0.01 km</desc>
<time>2010-02-28T16:08:57.19</time>
<name>11</name>
</trkpt>
<trkpt lat="48.989533" lon="8.652900">
<ele>316.0</ele>
<speed>3.4</speed>
<course>116.9</course>
<desc>Speed 3.4 km/h Distance 0.01 km</desc>
<time>2010-02-28T16:08:58.19</time>
<name>12</name>
</trkpt>
<trkpt lat="48.989528" lon="8.652915">
<ele>315.0</ele>
<speed>3.9</speed>
<course>119.0</course>
<desc>Speed 3.9 km/h Distance 0.02 km</desc>
<time>2010-02-28T16:08:59.19</time>
<name>13</name>
</trkpt>
<trkpt lat="48.989522" lon="8.652933">
<ele>314.5</ele>
<speed>4.4</speed>
<course>127.3</course>
<desc>Speed 4.4 km/h Distance 0.02 km</desc>
<time>2010-02-28T16:09:00.19</time>
<name>14</name>
</trkpt>
<trkpt lat="48.989515" lon="8.652947">
<ele>314.0</ele>
<speed>3.7</speed>
<course>150.8</course>
<desc>Speed 3.7 km/h Distance 0.02 km</desc>
<time>2010-02-28T16:09:01.19</time>
<name>15</name>
</trkpt>
<trkpt lat="48.989513" lon="8.652948">
<ele>313.5</ele>
<speed>0.9</speed>
<course>213.7</course>
<desc>Speed 0.9 km/h Distance 0.02 km</desc>
<time>2010-02-28T16:09:02.30</time>
<name>16</name>
</trkpt>
<trkpt lat="48.989510" lon="8.652945">
<ele>312.5</ele>
<speed>1.1</speed>
<course>198.8</course>
<desc>Speed 1.1 km/h Distance 0.02 km</desc>
<time>2010-02-28T16:09:03.21</time>
<name>17</name>
</trkpt>
<trkpt lat="48.989507" lon="8.652943">
<ele>313.0</ele>
<speed>0.8</speed>
<course>167.4</course>
<desc>Speed 0.8 km/h Distance 0.02 km</desc>
<time>2010-02-28T16:09:04.21</time>
<name>18</name>
</trkpt>
<trkpt lat="48.989505" lon="8.652943">
<ele>313.0</ele>
<speed>0.4</speed>
<course>90.0</course>
<desc>Speed 0.4 km/h Distance 0.02 km</desc>
<time>2010-02-28T16:09:05.21</time>
<name>19</name>
</trkpt>
<trkpt lat="48.989505" lon="8.652958">
<ele>314.0</ele>
<speed>3.6</speed>
<course>66.4</course>
<desc>Speed 3.6 km/h Distance 0.02 km</desc>
<time>2010-02-28T16:09:06.21</time>
<name>20</name>
</trkpt>
<trkpt lat="48.989508" lon="8.652970">
<ele>313.5</ele>
<speed>3.7</speed>
<course>90.0</course>
<desc>Speed 3.7 km/h Distance 0.02 km</desc>
<time>2010-02-28T16:09:07.21</time>
<name>21</name>
</trkpt>
<trkpt lat="48.989508" lon="8.652985">
<ele>312.5</ele>
<speed>3.9</speed>
<course>107.0</course>
<desc>Speed 3.9 km/h Distance 0.02 km</desc>
<time>2010-02-28T16:09:08.29</time>
<name>22</name>
</trkpt>
<trkpt lat="48.989505" lon="8.653002">
<ele>312.0</ele>
<speed>4.3</speed>
<course>134.1</course>
<desc>Speed 4.3 km/h Distance 0.02 km</desc>
<time>2010-02-28T16:09:09.22</time>
<name>23</name>
</trkpt>
<trkpt lat="48.989493" lon="8.653020">
<ele>312.0</ele>
<speed>6.1</speed>
<course>100.8</course>
<desc>Speed 6.1 km/h Distance 0.03 km</desc>
<time>2010-02-28T16:09:10.22</time>
<name>24</name>
</trkpt>
<trkpt lat="48.989492" lon="8.653033">
<ele>311.5</ele>
<speed>3.2</speed>
<course>90.0</course>
<desc>Speed 3.2 km/h Distance 0.03 km</desc>
<time>2010-02-28T16:09:11.24</time>
<name>25</name>
</trkpt>
<trkpt lat="48.989492" lon="8.653045">
<ele>310.5</ele>
<speed>3.2</speed>
<course>106.9</course>
<desc>Speed 3.2 km/h Distance 0.03 km</desc>
<time>2010-02-28T16:09:12.25</time>
<name>26</name>
</trkpt>
<trkpt lat="48.989488" lon="8.653062">
<ele>310.5</ele>
<speed>4.6</speed>
<course>112.6</course>
<desc>Speed 4.6 km/h Distance 0.03 km</desc>
<time>2010-02-28T16:09:13.26</time>
<name>27</name>
</trkpt>
<trkpt lat="48.989483" lon="8.653080">
<ele>310.5</ele>
<speed>4.6</speed>
<course>108.7</course>
<desc>Speed 4.6 km/h Distance 0.03 km</desc>
<time>2010-02-28T16:09:14.26</time>
<name>28</name>
</trkpt>
<trkpt lat="48.989480" lon="8.653095">
<ele>310.5</ele>
<speed>3.9</speed>
<course>110.9</course>
<desc>Speed 3.9 km/h Distance 0.03 km</desc>
<time>2010-02-28T16:09:15.26</time>
<name>29</name>
</trkpt>
<trkpt lat="48.989477" lon="8.653108">
<ele>311.5</ele>
<speed>3.6</speed>
<course>77.7</course>
<desc>Speed 3.6 km/h Distance 0.03 km</desc>
<time>2010-02-28T16:09:16.26</time>
<name>30</name>
</trkpt>
<trkpt lat="48.989478" lon="8.653120">
<ele>311.0</ele>
<speed>2.8</speed>
<course>167.4</course>
<desc>Speed 2.8 km/h Distance 0.03 km</desc>
<time>2010-02-28T16:09:17.26</time>
<name>31</name>
</trkpt>
<trkpt lat="48.989477" lon="8.653120">
<ele>311.0</ele>
<speed>0.2</speed>
<course>167.4</course>
<desc>Speed 0.2 km/h Distance 0.03 km</desc>
<time>2010-02-28T16:09:18.26</time>
<name>32</name>
</trkpt>
<trkpt lat="48.989475" lon="8.653120">
<ele>311.0</ele>
<speed>0.1</speed>
<course>90.0</course>
<desc>Speed 0.1 km/h Distance 0.03 km</desc>
<time>2010-02-28T16:09:19.26</time>
<name>33</name>
</trkpt>
<trkpt lat="48.989475" lon="8.653122">
<ele>311.0</ele>
<speed>0.2</speed>
<course>167.4</course>
<desc>Speed 0.2 km/h Distance 0.03 km</desc>
<time>2010-02-28T16:09:20.26</time>
<name>34</name>
</trkpt>
<trkpt lat="48.989473" lon="8.653123">
<ele>311.0</ele>
<speed>0.4</speed>
<course>167.4</course>
<desc>Speed 0.4 km/h Distance 0.03 km</desc>
<time>2010-02-28T16:09:21.26</time>
<name>35</name>
</trkpt>
<trkpt lat="48.989472" lon="8.653125">
<ele>311.5</ele>
<speed>0.2</speed>
<course>0.0</course>
<desc>Speed 0.2 km/h Distance 0.03 km</desc>
<time>2010-02-28T16:09:22.26</time>
<name>36</name>
</trkpt>
<trkpt lat="48.989475" lon="8.653125">
<ele>310.5</ele>
<speed>1.3</speed>
<course>158.5</course>
<desc>Speed 1.3 km/h Distance 0.03 km</desc>
<time>2010-02-28T16:09:23.26</time>
<name>37</name>
</trkpt>
<trkpt lat="48.989467" lon="8.653130">
<ele>310.0</ele>
<speed>1.0</speed>
<course>135.5</course>
<desc>Speed 1.0 km/h Distance 0.04 km</desc>
<time>2010-02-28T16:09:24.26</time>
<name>38</name>
</trkpt>
<trkpt lat="48.989463" lon="8.653135">
<ele>310.5</ele>
<speed>0.3</speed>
<course>161.2</course>
<desc>Speed 0.3 km/h Distance 0.04 km</desc>
<time>2010-02-28T16:09:25.26</time>
<name>39</name>
</trkpt>
<trkpt lat="48.989460" lon="8.653137">
<ele>310.5</ele>
<speed>0.9</speed>
<course>132.6</course>
<desc>Speed 0.9 km/h Distance 0.04 km</desc>
<time>2010-02-28T16:09:26.26</time>
<name>40</name>
</trkpt>
<trkpt lat="48.989455" lon="8.653145">
<ele>311.0</ele>
<speed>2.2</speed>
<course>106.9</course>
<desc>Speed 2.2 km/h Distance 0.04 km</desc>
<time>2010-02-28T16:09:27.26</time>
<name>41</name>
</trkpt>
<trkpt lat="48.989452" lon="8.653162">
<ele>311.5</ele>
<speed>3.8</speed>
<course>124.1</course>
<desc>Speed 3.8 km/h Distance 0.04 km</desc>
<time>2010-02-28T16:09:28.26</time>
<name>42</name>
</trkpt>
<trkpt lat="48.989445" lon="8.653177">
<ele>312.5</ele>
<speed>4.1</speed>
<course>114.6</course>
<desc>Speed 4.1 km/h Distance 0.04 km</desc>
<time>2010-02-28T16:09:29.26</time>
<name>43</name>
</trkpt>
<trkpt lat="48.989440" lon="8.653193">
<ele>312.0</ele>
<speed>4.2</speed>
<course>119.8</course>
<desc>Speed 4.2 km/h Distance 0.04 km</desc>
<time>2010-02-28T16:09:30.26</time>
<name>44</name>
</trkpt>
<trkpt lat="48.989435" lon="8.653207">
<ele>312.0</ele>
<speed>3.7</speed>
<course>124.1</course>
<desc>Speed 3.7 km/h Distance 0.04 km</desc>
<time>2010-02-28T16:09:31.26</time>
<name>45</name>
</trkpt>
<trkpt lat="48.989428" lon="8.653222">
<ele>311.5</ele>
<speed>3.5</speed>
<course>114.6</course>
<desc>Speed 3.5 km/h Distance 0.04 km</desc>
<time>2010-02-28T16:09:32.26</time>
<name>46</name>
</trkpt>
<trkpt lat="48.989423" lon="8.653238">
<ele>311.5</ele>
<speed>3.4</speed>
<course>110.9</course>
<desc>Speed 3.4 km/h Distance 0.05 km</desc>
<time>2010-02-28T16:09:33.26</time>
<name>47</name>
</trkpt>
<trkpt lat="48.989420" lon="8.653252">
<ele>311.0</ele>
<speed>3.1</speed>
<course>119.7</course>
<desc>Speed 3.1 km/h Distance 0.05 km</desc>
<time>2010-02-28T16:09:34.26</time>
<name>48</name>
</trkpt>
<trkpt lat="48.989415" lon="8.653265">
<ele>310.5</ele>
<speed>2.6</speed>
<course>112.6</course>
<desc>Speed 2.6 km/h Distance 0.05 km</desc>
<time>2010-02-28T16:09:35.26</time>
<name>49</name>
</trkpt>
<trkpt lat="48.989410" lon="8.653283">
<ele>310.5</ele>
<speed>3.0</speed>
<course>114.5</course>
<desc>Speed 3.0 km/h Distance 0.05 km</desc>
<time>2010-02-28T16:09:36.26</time>
<name>50</name>
</trkpt>
<trkpt lat="48.989405" lon="8.653300">
<ele>310.5</ele>
<speed>4.2</speed>
<course>119.0</course>
<desc>Speed 4.2 km/h Distance 0.05 km</desc>
<time>2010-02-28T16:09:37.26</time>
<name>51</name>
</trkpt>
<trkpt lat="48.989398" lon="8.653318">
<ele>311.5</ele>
<speed>3.7</speed>
<course>122.4</course>
<desc>Speed 3.7 km/h Distance 0.05 km</desc>
<time>2010-02-28T16:09:38.26</time>
<name>52</name>
</trkpt>
<trkpt lat="48.989390" lon="8.653338">
<ele>312.5</ele>
<speed>4.0</speed>
<course>108.7</course>
<desc>Speed 4.0 km/h Distance 0.05 km</desc>
<time>2010-02-28T16:09:39.26</time>
<name>53</name>
</trkpt>
<trkpt lat="48.989387" lon="8.653353">
<ele>313.0</ele>
<speed>3.5</speed>
<course>121.3</course>
<desc>Speed 3.5 km/h Distance 0.05 km</desc>
<time>2010-02-28T16:09:40.26</time>
<name>54</name>
</trkpt>
<trkpt lat="48.989380" lon="8.653370">
<ele>313.0</ele>
<speed>4.6</speed>
<course>109.4</course>
<desc>Speed 4.6 km/h Distance 0.06 km</desc>
<time>2010-02-28T16:09:41.26</time>
<name>55</name>
</trkpt>
<trkpt lat="48.989375" lon="8.653392">
<ele>313.0</ele>
<speed>5.3</speed>
<course>106.9</course>
<desc>Speed 5.3 km/h Distance 0.06 km</desc>
<time>2010-02-28T16:09:42.26</time>
<name>56</name>
</trkpt>
<trkpt lat="48.989372" lon="8.653408">
<ele>312.5</ele>
<speed>4.2</speed>
<course>104.2</course>
<desc>Speed 4.2 km/h Distance 0.06 km</desc>
<time>2010-02-28T16:09:43.26</time>
<name>57</name>
</trkpt>
<trkpt lat="48.989368" lon="8.653428">
<ele>312.5</ele>
<speed>4.8</speed>
<course>97.2</course>
<desc>Speed 4.8 km/h Distance 0.06 km</desc>
<time>2010-02-28T16:09:44.26</time>
<name>58</name>
</trkpt>
<trkpt lat="48.989367" lon="8.653448">
<ele>312.5</ele>
<speed>4.8</speed>
<course>104.2</course>
<desc>Speed 4.8 km/h Distance 0.06 km</desc>
<time>2010-02-28T16:09:45.26</time>
<name>59</name>
</trkpt>
<trkpt lat="48.989363" lon="8.653468">
<ele>312.0</ele>
<speed>3.8</speed>
<course>103.2</course>
<desc>Speed 3.8 km/h Distance 0.06 km</desc>
<time>2010-02-28T16:09:46.26</time>
<name>60</name>
</trkpt>
<trkpt lat="48.989360" lon="8.653490">
<ele>312.0</ele>
<speed>4.3</speed>
<course>103.2</course>
<desc>Speed 4.3 km/h Distance 0.07 km</desc>
<time>2010-02-28T16:09:47.26</time>
<name>61</name>
</trkpt>
<trkpt lat="48.989357" lon="8.653512">
<ele>312.0</ele>
<speed>4.4</speed>
<course>115.1</course>
<desc>Speed 4.4 km/h Distance 0.07 km</desc>
<time>2010-02-28T16:09:48.26</time>
<name>62</name>
</trkpt>
<trkpt lat="48.989350" lon="8.653533">
<ele>312.5</ele>
<speed>4.8</speed>
<course>108.7</course>
<desc>Speed 4.8 km/h Distance 0.07 km</desc>
<time>2010-02-28T16:09:49.26</time>
<name>63</name>
</trkpt>
<trkpt lat="48.989347" lon="8.653548">
<ele>312.5</ele>
<speed>4.1</speed>
<course>119.7</course>
<desc>Speed 4.1 km/h Distance 0.07 km</desc>
<time>2010-02-28T16:09:50.26</time>
<name>64</name>
</trkpt>
<trkpt lat="48.989342" lon="8.653562">
<ele>312.5</ele>
<speed>3.7</speed>
<course>107.0</course>
<desc>Speed 3.7 km/h Distance 0.07 km</desc>
<time>2010-02-28T16:09:51.26</time>
<name>65</name>
</trkpt>
<trkpt lat="48.989338" lon="8.653578">
<ele>312.5</ele>
<speed>4.3</speed>
<course>116.9</course>
<desc>Speed 4.3 km/h Distance 0.07 km</desc>
<time>2010-02-28T16:09:52.26</time>
<name>66</name>
</trkpt>
<trkpt lat="48.989333" lon="8.653593">
<ele>312.5</ele>
<speed>4.0</speed>
<course>116.9</course>
<desc>Speed 4.0 km/h Distance 0.07 km</desc>
<time>2010-02-28T16:09:53.26</time>
<name>67</name>
</trkpt>
<trkpt lat="48.989328" lon="8.653608">
<ele>312.5</ele>
<speed>3.9</speed>
<course>98.7</course>
<desc>Speed 3.9 km/h Distance 0.07 km</desc>
<time>2010-02-28T16:09:54.26</time>
<name>68</name>
</trkpt>
<trkpt lat="48.989327" lon="8.653625">
<ele>312.5</ele>
<speed>4.3</speed>
<course>114.6</course>
<desc>Speed 4.3 km/h Distance 0.08 km</desc>
<time>2010-02-28T16:09:55.26</time>
<name>69</name>
</trkpt>
<trkpt lat="48.989322" lon="8.653642">
<ele>312.5</ele>
<speed>4.8</speed>
<course>121.4</course>
<desc>Speed 4.8 km/h Distance 0.08 km</desc>
<time>2010-02-28T16:09:56.26</time>
<name>70</name>
</trkpt>
<trkpt lat="48.989312" lon="8.653667">
<ele>313.0</ele>
<speed>5.3</speed>
<course>122.4</course>
<desc>Speed 5.3 km/h Distance 0.08 km</desc>
<time>2010-02-28T16:09:57.26</time>
<name>71</name>
</trkpt>
<trkpt lat="48.989303" lon="8.653687">
<ele>313.5</ele>
<speed>5.3</speed>
<course>116.9</course>
<desc>Speed 5.3 km/h Distance 0.08 km</desc>
<time>2010-02-28T16:09:58.26</time>
<name>72</name>
</trkpt>
<trkpt lat="48.989297" lon="8.653707">
<ele>314.0</ele>
<speed>5.3</speed>
<course>115.1</course>
<desc>Speed 5.3 km/h Distance 0.08 km</desc>
<time>2010-02-28T16:09:59.26</time>
<name>73</name>
</trkpt>
<trkpt lat="48.989290" lon="8.653728">
<ele>314.5</ele>
<speed>5.1</speed>
<course>114.6</course>
<desc>Speed 5.1 km/h Distance 0.08 km</desc>
<time>2010-02-28T16:10:00.26</time>
<name>74</name>
</trkpt>
<trkpt lat="48.989285" lon="8.653745">
<ele>315.0</ele>
<speed>4.4</speed>
<course>110.9</course>
<desc>Speed 4.4 km/h Distance 0.09 km</desc>
<time>2010-02-28T16:10:01.26</time>
<name>75</name>
</trkpt>
<trkpt lat="48.989282" lon="8.653758">
<ele>315.0</ele>
<speed>3.5</speed>
<course>110.9</course>
<desc>Speed 3.5 km/h Distance 0.09 km</desc>
<time>2010-02-28T16:10:02.26</time>
<name>76</name>
</trkpt>
<trkpt lat="48.989278" lon="8.653772">
<ele>314.5</ele>
<speed>3.3</speed>
<course>112.5</course>
<desc>Speed 3.3 km/h Distance 0.09 km</desc>
<time>2010-02-28T16:10:03.26</time>
<name>77</name>
</trkpt>
<trkpt lat="48.989273" lon="8.653790">
<ele>314.5</ele>
<speed>5.1</speed>
<course>114.5</course>
<desc>Speed 5.1 km/h Distance 0.09 km</desc>
<time>2010-02-28T16:10:04.26</time>
<name>78</name>
</trkpt>
<trkpt lat="48.989268" lon="8.653807">
<ele>314.0</ele>
<speed>4.6</speed>
<course>114.6</course>
<desc>Speed 4.6 km/h Distance 0.09 km</desc>
<time>2010-02-28T16:10:05.26</time>
<name>79</name>
</trkpt>
<trkpt lat="48.989263" lon="8.653823">
<ele>314.0</ele>
<speed>4.4</speed>
<course>114.6</course>
<desc>Speed 4.4 km/h Distance 0.09 km</desc>
<time>2010-02-28T16:10:06.26</time>
<name>80</name>
</trkpt>
<trkpt lat="48.989258" lon="8.653840">
<ele>314.0</ele>
<speed>4.9</speed>
<course>104.2</course>
<desc>Speed 4.9 km/h Distance 0.09 km</desc>
<time>2010-02-28T16:10:07.26</time>
<name>81</name>
</trkpt>
<trkpt lat="48.989255" lon="8.653860">
<ele>314.0</ele>
<speed>5.1</speed>
<course>112.6</course>
<desc>Speed 5.1 km/h Distance 0.09 km</desc>
<time>2010-02-28T16:10:08.26</time>
<name>82</name>
</trkpt>
<trkpt lat="48.989250" lon="8.653878">
<ele>314.0</ele>
<speed>4.8</speed>
<course>110.9</course>
<desc>Speed 4.8 km/h Distance 0.10 km</desc>
<time>2010-02-28T16:10:09.26</time>
<name>83</name>
</trkpt>
<trkpt lat="48.989245" lon="8.653898">
<ele>313.5</ele>
<speed>5.3</speed>
<course>112.5</course>
<desc>Speed 5.3 km/h Distance 0.10 km</desc>
<time>2010-02-28T16:10:10.26</time>
<name>84</name>
</trkpt>
<trkpt lat="48.989240" lon="8.653917">
<ele>314.0</ele>
<speed>5.2</speed>
<course>109.4</course>
<desc>Speed 5.2 km/h Distance 0.10 km</desc>
<time>2010-02-28T16:10:11.26</time>
<name>85</name>
</trkpt>
<trkpt lat="48.989235" lon="8.653938">
<ele>314.0</ele>
<speed>5.7</speed>
<course>112.5</course>
<desc>Speed 5.7 km/h Distance 0.10 km</desc>
<time>2010-02-28T16:10:12.26</time>
<name>86</name>
</trkpt>
<trkpt lat="48.989230" lon="8.653957">
<ele>314.0</ele>
<speed>4.9</speed>
<course>107.0</course>
<desc>Speed 4.9 km/h Distance 0.10 km</desc>
<time>2010-02-28T16:10:13.26</time>
<name>87</name>
</trkpt>
<trkpt lat="48.989227" lon="8.653973">
<ele>314.5</ele>
<speed>4.2</speed>
<course>97.9</course>
<desc>Speed 4.2 km/h Distance 0.10 km</desc>
<time>2010-02-28T16:10:14.26</time>
<name>88</name>
</trkpt>
<trkpt lat="48.989225" lon="8.653992">
<ele>314.5</ele>
<speed>4.3</speed>
<course>114.6</course>
<desc>Speed 4.3 km/h Distance 0.10 km</desc>
<time>2010-02-28T16:10:15.26</time>
<name>89</name>
</trkpt>
<trkpt lat="48.989220" lon="8.654008">
<ele>314.5</ele>
<speed>4.8</speed>
<course>105.5</course>
<desc>Speed 4.8 km/h Distance 0.11 km</desc>
<time>2010-02-28T16:10:16.26</time>
<name>90</name>
</trkpt>
<trkpt lat="48.989217" lon="8.654027">
<ele>314.5</ele>
<speed>4.8</speed>
<course>107.0</course>
<desc>Speed 4.8 km/h Distance 0.11 km</desc>
<time>2010-02-28T16:10:17.26</time>
<name>91</name>
</trkpt>
<trkpt lat="48.989213" lon="8.654043">
<ele>314.0</ele>
<speed>4.4</speed>
<course>116.9</course>
<desc>Speed 4.4 km/h Distance 0.11 km</desc>
<time>2010-02-28T16:10:18.26</time>
<name>92</name>
</trkpt>
<trkpt lat="48.989208" lon="8.654058">
<ele>314.0</ele>
<speed>3.9</speed>
<course>114.6</course>
<desc>Speed 3.9 km/h Distance 0.11 km</desc>
<time>2010-02-28T16:10:19.26</time>
<name>93</name>
</trkpt>
<trkpt lat="48.989203" lon="8.654075">
<ele>314.0</ele>
<speed>4.9</speed>
<course>107.0</course>
<desc>Speed 4.9 km/h Distance 0.11 km</desc>
<time>2010-02-28T16:10:20.26</time>
<name>94</name>
</trkpt>
<trkpt lat="48.989200" lon="8.654092">
<ele>313.5</ele>
<speed>4.1</speed>
<course>107.0</course>
<desc>Speed 4.1 km/h Distance 0.11 km</desc>
<time>2010-02-28T16:10:21.26</time>
<name>95</name>
</trkpt>
<trkpt lat="48.989197" lon="8.654108">
<ele>313.0</ele>
<speed>4.2</speed>
<course>110.9</course>
<desc>Speed 4.2 km/h Distance 0.11 km</desc>
<time>2010-02-28T16:10:22.26</time>
<name>96</name>
</trkpt>
<trkpt lat="48.989193" lon="8.654122">
<ele>312.5</ele>
<speed>3.2</speed>
<course>99.6</course>
<desc>Speed 3.2 km/h Distance 0.12 km</desc>
<time>2010-02-28T16:10:23.26</time>
<name>97</name>
</trkpt>
<trkpt lat="48.989192" lon="8.654137">
<ele>311.5</ele>
<speed>3.9</speed>
<course>108.7</course>
<desc>Speed 3.9 km/h Distance 0.12 km</desc>
<time>2010-02-28T16:10:24.26</time>
<name>98</name>
</trkpt>
<trkpt lat="48.989188" lon="8.654152">
<ele>311.0</ele>
<speed>3.8</speed>
<course>114.6</course>
<desc>Speed 3.8 km/h Distance 0.12 km</desc>
<time>2010-02-28T16:10:25.26</time>
<name>99</name>
</trkpt>
<trkpt lat="48.989183" lon="8.654168">
<ele>310.5</ele>
<speed>4.4</speed>
<course>97.9</course>
<desc>Speed 4.4 km/h Distance 0.12 km</desc>
<time>2010-02-28T16:10:26.26</time>
<name>100</name>
</trkpt>
<trkpt lat="48.989182" lon="8.654187">
<ele>310.0</ele>
<speed>4.1</speed>
<course>108.7</course>
<desc>Speed 4.1 km/h Distance 0.12 km</desc>
<time>2010-02-28T16:10:27.26</time>
<name>101</name>
</trkpt>
<trkpt lat="48.989178" lon="8.654202">
<ele>309.5</ele>
<speed>3.5</speed>
<course>105.5</course>
<desc>Speed 3.5 km/h Distance 0.12 km</desc>
<time>2010-02-28T16:10:28.26</time>
<name>102</name>
</trkpt>
<trkpt lat="48.989175" lon="8.654220">
<ele>309.5</ele>
<speed>4.4</speed>
<course>110.8</course>
<desc>Speed 4.4 km/h Distance 0.12 km</desc>
<time>2010-02-28T16:10:29.26</time>
<name>103</name>
</trkpt>
<trkpt lat="48.989170" lon="8.654240">
<ele>309.0</ele>
<speed>5.1</speed>
<course>112.5</course>
<desc>Speed 5.1 km/h Distance 0.12 km</desc>
<time>2010-02-28T16:10:30.26</time>
<name>104</name>
</trkpt>
<trkpt lat="48.989165" lon="8.654258">
<ele>308.5</ele>
<speed>4.8</speed>
<course>97.9</course>
<desc>Speed 4.8 km/h Distance 0.13 km</desc>
<time>2010-02-28T16:10:31.26</time>
<name>105</name>
</trkpt>
<trkpt lat="48.989163" lon="8.654277">
<ele>308.5</ele>
<speed>4.3</speed>
<course>98.7</course>
<desc>Speed 4.3 km/h Distance 0.13 km</desc>
<time>2010-02-28T16:10:32.26</time>
<name>106</name>
</trkpt>
<trkpt lat="48.989162" lon="8.654293">
<ele>308.0</ele>
<speed>3.8</speed>
<course>104.2</course>
<desc>Speed 3.8 km/h Distance 0.13 km</desc>
<time>2010-02-28T16:10:33.26</time>
<name>107</name>
</trkpt>
<trkpt lat="48.989158" lon="8.654313">
<ele>308.0</ele>
<speed>4.5</speed>
<course>104.2</course>
<desc>Speed 4.5 km/h Distance 0.13 km</desc>
<time>2010-02-28T16:10:34.26</time>
<name>108</name>
</trkpt>
<trkpt lat="48.989155" lon="8.654333">
<ele>307.0</ele>
<speed>4.5</speed>
<course>102.3</course>
<desc>Speed 4.5 km/h Distance 0.13 km</desc>
<time>2010-02-28T16:10:35.26</time>
<name>109</name>
</trkpt>
<trkpt lat="48.989152" lon="8.654357">
<ele>306.5</ele>
<speed>4.6</speed>
<course>103.2</course>
<desc>Speed 4.6 km/h Distance 0.13 km</desc>
<time>2010-02-28T16:10:36.26</time>
<name>110</name>
</trkpt>
<trkpt lat="48.989148" lon="8.654378">
<ele>306.0</ele>
<speed>4.6</speed>
<course>108.7</course>
<desc>Speed 4.6 km/h Distance 0.13 km</desc>
<time>2010-02-28T16:10:37.26</time>
<name>111</name>
</trkpt>
<trkpt lat="48.989145" lon="8.654393">
<ele>305.5</ele>
<speed>3.6</speed>
<course>124.1</course>
<desc>Speed 3.6 km/h Distance 0.14 km</desc>
<time>2010-02-28T16:10:38.26</time>
<name>112</name>
</trkpt>
<trkpt lat="48.989138" lon="8.654408">
<ele>305.5</ele>
<speed>4.0</speed>
<course>97.9</course>
<desc>Speed 4.0 km/h Distance 0.14 km</desc>
<time>2010-02-28T16:10:39.26</time>
<name>113</name>
</trkpt>
<trkpt lat="48.989137" lon="8.654427">
<ele>304.5</ele>
<speed>4.1</speed>
<course>108.7</course>
<desc>Speed 4.1 km/h Distance 0.14 km</desc>
<time>2010-02-28T16:10:40.26</time>
<name>114</name>
</trkpt>
<trkpt lat="48.989133" lon="8.654442">
<ele>304.0</ele>
<speed>4.1</speed>
<course>116.9</course>
<desc>Speed 4.1 km/h Distance 0.14 km</desc>
<time>2010-02-28T16:10:41.26</time>
<name>115</name>
</trkpt>
<trkpt lat="48.989127" lon="8.654462">
<ele>303.5</ele>
<speed>5.1</speed>
<course>115.1</course>
<desc>Speed 5.1 km/h Distance 0.14 km</desc>
<time>2010-02-28T16:10:42.26</time>
<name>116</name>
</trkpt>
<trkpt lat="48.989120" lon="8.654483">
<ele>303.5</ele>
<speed>5.7</speed>
<course>104.2</course>
<desc>Speed 5.7 km/h Distance 0.14 km</desc>
<time>2010-02-28T16:10:43.26</time>
<name>117</name>
</trkpt>
<trkpt lat="48.989117" lon="8.654503">
<ele>303.0</ele>
<speed>4.8</speed>
<course>115.1</course>
<desc>Speed 4.8 km/h Distance 0.14 km</desc>
<time>2010-02-28T16:10:44.26</time>
<name>118</name>
</trkpt>
<trkpt lat="48.989110" lon="8.654525">
<ele>302.5</ele>
<speed>5.3</speed>
<course>112.6</course>
<desc>Speed 5.3 km/h Distance 0.15 km</desc>
<time>2010-02-28T16:10:45.26</time>
<name>119</name>
</trkpt>
<trkpt lat="48.989105" lon="8.654543">
<ele>302.5</ele>
<speed>4.5</speed>
<course>112.6</course>
<desc>Speed 4.5 km/h Distance 0.15 km</desc>
<time>2010-02-28T16:10:46.26</time>
<name>120</name>
</trkpt>
<trkpt lat="48.989100" lon="8.654562">
<ele>302.5</ele>
<speed>4.6</speed>
<course>121.4</course>
<desc>Speed 4.6 km/h Distance 0.15 km</desc>
<time>2010-02-28T16:10:47.26</time>
<name>121</name>
</trkpt>
<trkpt lat="48.989093" lon="8.654578">
<ele>302.5</ele>
<speed>4.7</speed>
<course>115.1</course>
<desc>Speed 4.7 km/h Distance 0.15 km</desc>
<time>2010-02-28T16:10:48.26</time>
<name>122</name>
</trkpt>
<trkpt lat="48.989087" lon="8.654600">
<ele>302.5</ele>
<speed>5.2</speed>
<course>97.2</course>
<desc>Speed 5.2 km/h Distance 0.15 km</desc>
<time>2010-02-28T16:10:49.26</time>
<name>123</name>
</trkpt>
<trkpt lat="48.989085" lon="8.654620">
<ele>302.0</ele>
<speed>5.1</speed>
<course>109.4</course>
<desc>Speed 5.1 km/h Distance 0.15 km</desc>
<time>2010-02-28T16:10:50.26</time>
<name>124</name>
</trkpt>
<trkpt lat="48.989080" lon="8.654642">
<ele>302.0</ele>
<speed>5.2</speed>
<course>105.5</course>
<desc>Speed 5.2 km/h Distance 0.16 km</desc>
<time>2010-02-28T16:10:51.26</time>
<name>125</name>
</trkpt>
<trkpt lat="48.989077" lon="8.654660">
<ele>301.5</ele>
<speed>4.5</speed>
<course>108.1</course>
<desc>Speed 4.5 km/h Distance 0.16 km</desc>
<time>2010-02-28T16:10:52.26</time>
<name>126</name>
</trkpt>
<trkpt lat="48.989072" lon="8.654683">
<ele>301.5</ele>
<speed>5.5</speed>
<course>96.7</course>
<desc>Speed 5.5 km/h Distance 0.16 km</desc>
<time>2010-02-28T16:10:53.26</time>
<name>127</name>
</trkpt>
<trkpt lat="48.989070" lon="8.654705">
<ele>301.0</ele>
<speed>4.9</speed>
<course>104.3</course>
<desc>Speed 4.9 km/h Distance 0.16 km</desc>
<time>2010-02-28T16:10:54.26</time>
<name>128</name>
</trkpt>
<trkpt lat="48.989067" lon="8.654725">
<ele>300.5</ele>
<speed>4.4</speed>
<course>104.3</course>
<desc>Speed 4.4 km/h Distance 0.16 km</desc>
<time>2010-02-28T16:10:55.26</time>
<name>129</name>
</trkpt>
<trkpt lat="48.989063" lon="8.654745">
<ele>300.5</ele>
<speed>4.0</speed>
<course>106.9</course>
<desc>Speed 4.0 km/h Distance 0.16 km</desc>
<time>2010-02-28T16:10:56.26</time>
<name>130</name>
</trkpt>
<trkpt lat="48.989060" lon="8.654762">
<ele>299.5</ele>
<speed>3.6</speed>
<course>116.9</course>
<desc>Speed 3.6 km/h Distance 0.16 km</desc>
<time>2010-02-28T16:10:57.26</time>
<name>131</name>
</trkpt>
<trkpt lat="48.989053" lon="8.654782">
<ele>299.5</ele>
<speed>4.7</speed>
<course>109.4</course>
<desc>Speed 4.7 km/h Distance 0.17 km</desc>
<time>2010-02-28T16:10:58.26</time>
<name>132</name>
</trkpt>
<trkpt lat="48.989048" lon="8.654803">
<ele>299.0</ele>
<speed>4.6</speed>
<course>107.0</course>
<desc>Speed 4.6 km/h Distance 0.17 km</desc>
<time>2010-02-28T16:10:59.26</time>
<name>133</name>
</trkpt>
<trkpt lat="48.989045" lon="8.654820">
<ele>298.5</ele>
<speed>4.2</speed>
<course>109.4</course>
<desc>Speed 4.2 km/h Distance 0.17 km</desc>
<time>2010-02-28T16:11:00.26</time>
<name>134</name>
</trkpt>
<trkpt lat="48.989040" lon="8.654842">
<ele>298.5</ele>
<speed>5.1</speed>
<course>114.6</course>
<desc>Speed 5.1 km/h Distance 0.17 km</desc>
<time>2010-02-28T16:11:01.26</time>
<name>135</name>
</trkpt>
<trkpt lat="48.989035" lon="8.654858">
<ele>298.5</ele>
<speed>4.3</speed>
<course>119.0</course>
<desc>Speed 4.3 km/h Distance 0.17 km</desc>
<time>2010-02-28T16:11:02.26</time>
<name>136</name>
</trkpt>
<trkpt lat="48.989028" lon="8.654877">
<ele>298.5</ele>
<speed>5.0</speed>
<course>119.0</course>
<desc>Speed 5.0 km/h Distance 0.17 km</desc>
<time>2010-02-28T16:11:03.26</time>
<name>137</name>
</trkpt>
<trkpt lat="48.989022" lon="8.654895">
<ele>299.0</ele>
<speed>5.1</speed>
<course>116.9</course>
<desc>Speed 5.1 km/h Distance 0.18 km</desc>
<time>2010-02-28T16:11:04.26</time>
<name>138</name>
</trkpt>
<trkpt lat="48.989015" lon="8.654915">
<ele>299.0</ele>
<speed>4.9</speed>
<course>115.1</course>
<desc>Speed 4.9 km/h Distance 0.18 km</desc>
<time>2010-02-28T16:11:05.26</time>
<name>139</name>
</trkpt>
<trkpt lat="48.989008" lon="8.654937">
<ele>299.5</ele>
<speed>5.5</speed>
<course>121.4</course>
<desc>Speed 5.5 km/h Distance 0.18 km</desc>
<time>2010-02-28T16:11:06.26</time>
<name>140</name>
</trkpt>
<trkpt lat="48.989002" lon="8.654953">
<ele>300.0</ele>
<speed>5.0</speed>
<course>122.4</course>
<desc>Speed 5.0 km/h Distance 0.18 km</desc>
<time>2010-02-28T16:11:07.26</time>
<name>141</name>
</trkpt>
<trkpt lat="48.988993" lon="8.654973">
<ele>300.0</ele>
<speed>5.5</speed>
<course>122.5</course>
<desc>Speed 5.5 km/h Distance 0.18 km</desc>
<time>2010-02-28T16:11:08.26</time>
<name>142</name>
</trkpt>
<trkpt lat="48.988963" lon="8.655045">
<ele>302.0</ele>
<speed>6.0</speed>
<course>127.3</course>
<desc>Speed 6.0 km/h Distance 0.19 km</desc>
<time>2010-02-28T16:11:10.26</time>
<name>143</name>
</trkpt>
<trkpt lat="48.988948" lon="8.655075">
<ele>303.0</ele>
<speed>6.0</speed>
<course>122.4</course>
<desc>Speed 6.0 km/h Distance 0.19 km</desc>
<time>2010-02-28T16:11:11.26</time>
<name>144</name>
</trkpt>
<trkpt lat="48.988940" lon="8.655095">
<ele>303.0</ele>
<speed>5.8</speed>
<course>127.3</course>
<desc>Speed 5.8 km/h Distance 0.19 km</desc>
<time>2010-02-28T16:11:12.26</time>
<name>145</name>
</trkpt>
<trkpt lat="48.988932" lon="8.655112">
<ele>303.5</ele>
<speed>5.3</speed>
<course>132.5</course>
<desc>Speed 5.3 km/h Distance 0.19 km</desc>
<time>2010-02-28T16:11:13.26</time>
<name>146</name>
</trkpt>
<trkpt lat="48.988922" lon="8.655128">
<ele>303.5</ele>
<speed>5.2</speed>
<course>124.7</course>
<desc>Speed 5.2 km/h Distance 0.20 km</desc>
<time>2010-02-28T16:11:14.26</time>
<name>147</name>
</trkpt>
<trkpt lat="48.988913" lon="8.655147">
<ele>303.5</ele>
<speed>5.0</speed>
<course>128.4</course>
<desc>Speed 5.0 km/h Distance 0.20 km</desc>
<time>2010-02-28T16:11:15.26</time>
<name>148</name>
</trkpt>
<trkpt lat="48.988870" lon="8.655230">
<ele>308.5</ele>
<speed>6.1</speed>
<course>143.2</course>
<desc>Speed 6.1 km/h Distance 0.21 km</desc>
<time>2010-02-28T16:11:17.26</time>
<name>149</name>
</trkpt>
<trkpt lat="48.988858" lon="8.655243">
<ele>308.5</ele>
<speed>5.3</speed>
<course>146.8</course>
<desc>Speed 5.3 km/h Distance 0.21 km</desc>
<time>2010-02-28T16:11:18.26</time>
<name>150</name>
</trkpt>
<trkpt lat="48.988848" lon="8.655253">
<ele>309.5</ele>
<speed>4.5</speed>
<course>133.5</course>
<desc>Speed 4.5 km/h Distance 0.21 km</desc>
<time>2010-02-28T16:11:19.26</time>
<name>151</name>
</trkpt>
<trkpt lat="48.988840" lon="8.655267">
<ele>310.0</ele>
<speed>4.5</speed>
<course>119.0</course>
<desc>Speed 4.5 km/h Distance 0.21 km</desc>
<time>2010-02-28T16:11:20.26</time>
<name>152</name>
</trkpt>
<trkpt lat="48.988833" lon="8.655285">
<ele>309.5</ele>
<speed>5.2</speed>
<course>121.4</course>
<desc>Speed 5.2 km/h Distance 0.21 km</desc>
<time>2010-02-28T16:11:21.26</time>
<name>153</name>
</trkpt>
<trkpt lat="48.988827" lon="8.655302">
<ele>309.5</ele>
<speed>4.8</speed>
<course>121.4</course>
<desc>Speed 4.8 km/h Distance 0.21 km</desc>
<time>2010-02-28T16:11:22.26</time>
<name>154</name>
</trkpt>
<trkpt lat="48.988820" lon="8.655318">
<ele>310.0</ele>
<speed>4.6</speed>
<course>119.0</course>
<desc>Speed 4.6 km/h Distance 0.21 km</desc>
<time>2010-02-28T16:11:23.26</time>
<name>155</name>
</trkpt>
<trkpt lat="48.988813" lon="8.655337">
<ele>310.0</ele>
<speed>5.1</speed>
<course>116.9</course>
<desc>Speed 5.1 km/h Distance 0.22 km</desc>
<time>2010-02-28T16:11:24.26</time>
<name>156</name>
</trkpt>
<trkpt lat="48.988808" lon="8.655352">
<ele>310.0</ele>
<speed>4.4</speed>
<course>121.4</course>
<desc>Speed 4.4 km/h Distance 0.22 km</desc>
<time>2010-02-28T16:11:25.26</time>
<name>157</name>
</trkpt>
<trkpt lat="48.988802" lon="8.655368">
<ele>310.0</ele>
<speed>4.9</speed>
<course>130.3</course>
<desc>Speed 4.9 km/h Distance 0.22 km</desc>
<time>2010-02-28T16:11:26.26</time>
<name>158</name>
</trkpt>
<trkpt lat="48.988793" lon="8.655383">
<ele>310.5</ele>
<speed>5.0</speed>
<course>121.4</course>
<desc>Speed 5.0 km/h Distance 0.22 km</desc>
<time>2010-02-28T16:11:27.26</time>
<name>159</name>
</trkpt>
<trkpt lat="48.988787" lon="8.655400">
<ele>310.0</ele>
<speed>4.8</speed>
<course>127.4</course>
<desc>Speed 4.8 km/h Distance 0.22 km</desc>
<time>2010-02-28T16:11:28.26</time>
<name>160</name>
</trkpt>
<trkpt lat="48.988778" lon="8.655417">
<ele>310.0</ele>
<speed>5.0</speed>
<course>124.2</course>
<desc>Speed 5.0 km/h Distance 0.22 km</desc>
<time>2010-02-28T16:11:29.26</time>
<name>161</name>
</trkpt>
<trkpt lat="48.988772" lon="8.655432">
<ele>309.5</ele>
<speed>4.3</speed>
<course>104.3</course>
<desc>Speed 4.3 km/h Distance 0.22 km</desc>
<time>2010-02-28T16:11:30.26</time>
<name>162</name>
</trkpt>
<trkpt lat="48.988768" lon="8.655452">
<ele>309.0</ele>
<speed>5.0</speed>
<course>127.3</course>
<desc>Speed 5.0 km/h Distance 0.23 km</desc>
<time>2010-02-28T16:11:31.26</time>
<name>163</name>
</trkpt>
<trkpt lat="48.988762" lon="8.655465">
<ele>309.5</ele>
<speed>4.5</speed>
<course>115.1</course>
<desc>Speed 4.5 km/h Distance 0.23 km</desc>
<time>2010-02-28T16:11:32.26</time>
<name>164</name>
</trkpt>
<trkpt lat="48.988755" lon="8.655487">
<ele>309.5</ele>
<speed>5.5</speed>
<course>119.0</course>
<desc>Speed 5.5 km/h Distance 0.23 km</desc>
<time>2010-02-28T16:11:33.26</time>
<name>165</name>
</trkpt>
<trkpt lat="48.988748" lon="8.655505">
<ele>310.0</ele>
<speed>5.1</speed>
<course>124.1</course>
<desc>Speed 5.1 km/h Distance 0.23 km</desc>
<time>2010-02-28T16:11:34.26</time>
<name>166</name>
</trkpt>
<trkpt lat="48.988742" lon="8.655520">
<ele>310.0</ele>
<speed>4.8</speed>
<course>124.1</course>
<desc>Speed 4.8 km/h Distance 0.23 km</desc>
<time>2010-02-28T16:11:35.26</time>
<name>167</name>
</trkpt>
<trkpt lat="48.988735" lon="8.655535">
<ele>310.0</ele>
<speed>4.6</speed>
<course>121.3</course>
<desc>Speed 4.6 km/h Distance 0.23 km</desc>
<time>2010-02-28T16:11:36.26</time>
<name>168</name>
</trkpt>
<trkpt lat="48.988728" lon="8.655552">
<ele>310.0</ele>
<speed>4.6</speed>
<course>121.4</course>
<desc>Speed 4.6 km/h Distance 0.23 km</desc>
<time>2010-02-28T16:11:37.26</time>
<name>169</name>
</trkpt>
<trkpt lat="48.988722" lon="8.655568">
<ele>310.5</ele>
<speed>5.0</speed>
<course>119.1</course>
<desc>Speed 5.0 km/h Distance 0.24 km</desc>
<time>2010-02-28T16:11:38.26</time>
<name>170</name>
</trkpt>
<trkpt lat="48.988715" lon="8.655587">
<ele>310.5</ele>
<speed>5.3</speed>
<course>119.0</course>
<desc>Speed 5.3 km/h Distance 0.24 km</desc>
<time>2010-02-28T16:11:39.26</time>
<name>171</name>
</trkpt>
<trkpt lat="48.988708" lon="8.655605">
<ele>310.5</ele>
<speed>5.3</speed>
<course>116.9</course>
<desc>Speed 5.3 km/h Distance 0.24 km</desc>
<time>2010-02-28T16:11:40.26</time>
<name>172</name>
</trkpt>
<trkpt lat="48.988702" lon="8.655625">
<ele>310.5</ele>
<speed>5.7</speed>
<course>124.7</course>
<desc>Speed 5.7 km/h Distance 0.24 km</desc>
<time>2010-02-28T16:11:41.26</time>
<name>173</name>
</trkpt>
<trkpt lat="48.988693" lon="8.655643">
<ele>310.5</ele>
<speed>5.4</speed>
<course>116.9</course>
<desc>Speed 5.4 km/h Distance 0.24 km</desc>
<time>2010-02-28T16:11:42.26</time>
<name>174</name>
</trkpt>
<trkpt lat="48.988687" lon="8.655663">
<ele>310.5</ele>
<speed>5.4</speed>
<course>116.0</course>
<desc>Speed 5.4 km/h Distance 0.24 km</desc>
<time>2010-02-28T16:11:43.26</time>
<name>175</name>
</trkpt>
<trkpt lat="48.988673" lon="8.655705">
<ele>310.5</ele>
<speed>5.5</speed>
<course>125.6</course>
<desc>Speed 5.5 km/h Distance 0.25 km</desc>
<time>2010-02-28T16:11:44.76</time>
<name>176</name>
</trkpt>
<trkpt lat="48.988660" lon="8.655733">
<ele>311.0</ele>
<speed>5.4</speed>
<course>127.3</course>
<desc>Speed 5.4 km/h Distance 0.25 km</desc>
<time>2010-02-28T16:11:45.75</time>
<name>177</name>
</trkpt>
<trkpt lat="48.988652" lon="8.655750">
<ele>311.0</ele>
<speed>5.2</speed>
<course>124.8</course>
<desc>Speed 5.2 km/h Distance 0.25 km</desc>
<time>2010-02-28T16:11:46.75</time>
<name>178</name>
</trkpt>
<trkpt lat="48.988643" lon="8.655768">
<ele>311.0</ele>
<speed>5.6</speed>
<course>132.4</course>
<desc>Speed 5.6 km/h Distance 0.25 km</desc>
<time>2010-02-28T16:11:47.75</time>
<name>179</name>
</trkpt>
<trkpt lat="48.988633" lon="8.655785">
<ele>311.0</ele>
<speed>5.4</speed>
<course>128.9</course>
<desc>Speed 5.4 km/h Distance 0.25 km</desc>
<time>2010-02-28T16:11:48.76</time>
<name>180</name>
</trkpt>
<trkpt lat="48.988618" lon="8.655813">
<ele>313.0</ele>
<speed>4.7</speed>
<course>116.9</course>
<desc>Speed 4.7 km/h Distance 0.26 km</desc>
<time>2010-02-28T16:11:50.26</time>
<name>181</name>
</trkpt>
<trkpt lat="48.988605" lon="8.655853">
<ele>314.5</ele>
<speed>3.0</speed>
<course>116.9</course>
<desc>Speed 3.0 km/h Distance 0.26 km</desc>
<time>2010-02-28T16:11:51.76</time>
<name>182</name>
</trkpt>
<trkpt lat="48.988605" lon="8.655853">
<ele>314.5</ele>
<speed>3.0</speed>
<course>129.4</course>
<desc>Speed 3.0 km/h Distance 0.26 km</desc>
<time>2010-02-28T16:11:52.26</time>
<name>183</name>
</trkpt>
<trkpt lat="48.988582" lon="8.655897">
<ele>316.5</ele>
<speed>4.7</speed>
<course>137.4</course>
<desc>Speed 4.7 km/h Distance 0.26 km</desc>
<time>2010-02-28T16:11:53.75</time>
<name>184</name>
</trkpt>
<trkpt lat="48.988573" lon="8.655908">
<ele>317.0</ele>
<speed>3.9</speed>
<course>137.4</course>
<desc>Speed 3.9 km/h Distance 0.27 km</desc>
<time>2010-02-28T16:11:54.75</time>
<name>185</name>
</trkpt>
<trkpt lat="48.988565" lon="8.655920">
<ele>317.0</ele>
<speed>4.5</speed>
<course>127.3</course>
<desc>Speed 4.5 km/h Distance 0.27 km</desc>
<time>2010-02-28T16:11:55.75</time>
<name>186</name>
</trkpt>
<trkpt lat="48.988557" lon="8.655937">
<ele>317.5</ele>
<speed>5.0</speed>
<course>124.7</course>
<desc>Speed 5.0 km/h Distance 0.27 km</desc>
<time>2010-02-28T16:11:56.75</time>
<name>187</name>
</trkpt>
<trkpt lat="48.988548" lon="8.655955">
<ele>317.0</ele>
<speed>5.5</speed>
<course>130.3</course>
<desc>Speed 5.5 km/h Distance 0.27 km</desc>
<time>2010-02-28T16:11:57.75</time>
<name>188</name>
</trkpt>
<trkpt lat="48.988540" lon="8.655970">
<ele>317.0</ele>
<speed>5.1</speed>
<course>127.3</course>
<desc>Speed 5.1 km/h Distance 0.27 km</desc>
<time>2010-02-28T16:11:58.76</time>
<name>189</name>
</trkpt>
<trkpt lat="48.988532" lon="8.655987">
<ele>317.5</ele>
<speed>4.8</speed>
<course>127.3</course>
<desc>Speed 4.8 km/h Distance 0.27 km</desc>
<time>2010-02-28T16:12:00.26</time>
<name>190</name>
</trkpt>
<trkpt lat="48.988525" lon="8.656000">
<ele>318.0</ele>
<speed>4.4</speed>
<course>127.3</course>
<desc>Speed 4.4 km/h Distance 0.27 km</desc>
<time>2010-02-28T16:12:01.26</time>
<name>191</name>
</trkpt>
<trkpt lat="48.988517" lon="8.656017">
<ele>318.0</ele>
<speed>4.8</speed>
<course>130.2</course>
<desc>Speed 4.8 km/h Distance 0.28 km</desc>
<time>2010-02-28T16:12:02.26</time>
<name>192</name>
</trkpt>
<trkpt lat="48.988508" lon="8.656032">
<ele>318.0</ele>
<speed>5.0</speed>
<course>127.3</course>
<desc>Speed 5.0 km/h Distance 0.28 km</desc>
<time>2010-02-28T16:12:03.26</time>
<name>193</name>
</trkpt>
<trkpt lat="48.988500" lon="8.656048">
<ele>318.5</ele>
<speed>5.0</speed>
<course>124.1</course>
<desc>Speed 5.0 km/h Distance 0.28 km</desc>
<time>2010-02-28T16:12:04.26</time>
<name>194</name>
</trkpt>
<trkpt lat="48.988493" lon="8.656063">
<ele>319.0</ele>
<speed>4.6</speed>
<course>130.3</course>
<desc>Speed 4.6 km/h Distance 0.28 km</desc>
<time>2010-02-28T16:12:05.26</time>
<name>195</name>
</trkpt>
<trkpt lat="48.988485" lon="8.656078">
<ele>319.5</ele>
<speed>4.5</speed>
<course>124.1</course>
<desc>Speed 4.5 km/h Distance 0.28 km</desc>
<time>2010-02-28T16:12:06.26</time>
<name>196</name>
</trkpt>
<trkpt lat="48.988478" lon="8.656093">
<ele>320.0</ele>
<speed>5.0</speed>
<course>130.3</course>
<desc>Speed 5.0 km/h Distance 0.28 km</desc>
<time>2010-02-28T16:12:07.26</time>
<name>197</name>
</trkpt>
<trkpt lat="48.988470" lon="8.656108">
<ele>320.5</ele>
<speed>4.8</speed>
<course>135.5</course>
<desc>Speed 4.8 km/h Distance 0.28 km</desc>
<time>2010-02-28T16:12:08.26</time>
<name>198</name>
</trkpt>
<trkpt lat="48.988460" lon="8.656123">
<ele>321.0</ele>
<speed>5.1</speed>
<course>129.8</course>
<desc>Speed 5.1 km/h Distance 0.29 km</desc>
<time>2010-02-28T16:12:09.26</time>
<name>199</name>
</trkpt>
<trkpt lat="48.988450" lon="8.656142">
<ele>321.5</ele>
<speed>5.3</speed>
<course>119.8</course>
<desc>Speed 5.3 km/h Distance 0.29 km</desc>
<time>2010-02-28T16:12:10.26</time>
<name>200</name>
</trkpt>
<trkpt lat="48.988435" lon="8.656182">
<ele>322.0</ele>
<speed>5.3</speed>
<course>110.9</course>
<desc>Speed 5.3 km/h Distance 0.29 km</desc>
<time>2010-02-28T16:12:11.75</time>
<name>201</name>
</trkpt>
<trkpt lat="48.988430" lon="8.656202">
<ele>322.5</ele>
<speed>5.0</speed>
<course>127.3</course>
<desc>Speed 5.0 km/h Distance 0.29 km</desc>
<time>2010-02-28T16:12:12.75</time>
<name>202</name>
</trkpt>
<trkpt lat="48.988415" lon="8.656232">
<ele>324.0</ele>
<speed>4.9</speed>
<course>121.4</course>
<desc>Speed 4.9 km/h Distance 0.29 km</desc>
<time>2010-02-28T16:12:13.76</time>
<name>203</name>
</trkpt>
<trkpt lat="48.988402" lon="8.656265">
<ele>325.5</ele>
<speed>4.8</speed>
<course>119.0</course>
<desc>Speed 4.8 km/h Distance 0.30 km</desc>
<time>2010-02-28T16:12:15.75</time>
<name>204</name>
</trkpt>
<trkpt lat="48.988395" lon="8.656283">
<ele>325.5</ele>
<speed>5.1</speed>
<course>112.6</course>
<desc>Speed 5.1 km/h Distance 0.30 km</desc>
<time>2010-02-28T16:12:16.74</time>
<name>205</name>
</trkpt>
<trkpt lat="48.988390" lon="8.656302">
<ele>325.5</ele>
<speed>4.8</speed>
<course>132.4</course>
<desc>Speed 4.8 km/h Distance 0.30 km</desc>
<time>2010-02-28T16:12:17.74</time>
<name>206</name>
</trkpt>
<trkpt lat="48.988380" lon="8.656318">
<ele>325.5</ele>
<speed>5.0</speed>
<course>121.3</course>
<desc>Speed 5.0 km/h Distance 0.30 km</desc>
<time>2010-02-28T16:12:18.75</time>
<name>207</name>
</trkpt>
<trkpt lat="48.988373" lon="8.656335">
<ele>325.5</ele>
<speed>4.8</speed>
<course>129.4</course>
<desc>Speed 4.8 km/h Distance 0.30 km</desc>
<time>2010-02-28T16:12:19.75</time>
<name>208</name>
</trkpt>
<trkpt lat="48.988362" lon="8.656357">
<ele>326.0</ele>
<speed>5.0</speed>
<course>115.1</course>
<desc>Speed 5.0 km/h Distance 0.31 km</desc>
<time>2010-02-28T16:12:20.74</time>
<name>209</name>
</trkpt>
<trkpt lat="48.988355" lon="8.656378">
<ele>326.0</ele>
<speed>5.5</speed>
<course>120.7</course>
<desc>Speed 5.5 km/h Distance 0.31 km</desc>
<time>2010-02-28T16:12:21.74</time>
<name>210</name>
</trkpt>
<trkpt lat="48.988343" lon="8.656408">
<ele>325.0</ele>
<speed>3.7</speed>
<course>124.1</course>
<desc>Speed 3.7 km/h Distance 0.31 km</desc>
<time>2010-02-28T16:12:22.74</time>
<name>211</name>
</trkpt>
<trkpt lat="48.988337" lon="8.656423">
<ele>325.0</ele>
<speed>4.7</speed>
<course>124.7</course>
<desc>Speed 4.7 km/h Distance 0.31 km</desc>
<time>2010-02-28T16:12:23.75</time>
<name>212</name>
</trkpt>
<trkpt lat="48.988328" lon="8.656442">
<ele>325.0</ele>
<speed>5.3</speed>
<course>124.7</course>
<desc>Speed 5.3 km/h Distance 0.31 km</desc>
<time>2010-02-28T16:12:24.75</time>
<name>213</name>
</trkpt>
<trkpt lat="48.988320" lon="8.656460">
<ele>324.5</ele>
<speed>5.4</speed>
<course>124.7</course>
<desc>Speed 5.4 km/h Distance 0.31 km</desc>
<time>2010-02-28T16:12:25.75</time>
<name>214</name>
</trkpt>
<trkpt lat="48.988312" lon="8.656478">
<ele>324.5</ele>
<speed>5.5</speed>
<course>122.4</course>
<desc>Speed 5.5 km/h Distance 0.32 km</desc>
<time>2010-02-28T16:12:26.75</time>
<name>215</name>
</trkpt>
<trkpt lat="48.988303" lon="8.656498">
<ele>324.0</ele>
<speed>5.3</speed>
<course>116.9</course>
<desc>Speed 5.3 km/h Distance 0.32 km</desc>
<time>2010-02-28T16:12:27.74</time>
<name>216</name>
</trkpt>
<trkpt lat="48.988295" lon="8.656523">
<ele>322.0</ele>
<speed>5.3</speed>
<course>127.3</course>
<desc>Speed 5.3 km/h Distance 0.32 km</desc>
<time>2010-02-28T16:12:28.74</time>
<name>217</name>
</trkpt>
<trkpt lat="48.988287" lon="8.656540">
<ele>322.0</ele>
<speed>5.4</speed>
<course>119.0</course>
<desc>Speed 5.4 km/h Distance 0.32 km</desc>
<time>2010-02-28T16:12:29.74</time>
<name>218</name>
</trkpt>
<trkpt lat="48.988280" lon="8.656558">
<ele>322.5</ele>
<speed>5.4</speed>
<course>124.1</course>
<desc>Speed 5.4 km/h Distance 0.32 km</desc>
<time>2010-02-28T16:12:30.74</time>
<name>219</name>
</trkpt>
<trkpt lat="48.988267" lon="8.656588">
<ele>322.5</ele>
<speed>5.3</speed>
<course>119.1</course>
<desc>Speed 5.3 km/h Distance 0.33 km</desc>
<time>2010-02-28T16:12:31.74</time>
<name>220</name>
</trkpt>
<trkpt lat="48.988260" lon="8.656607">
<ele>322.5</ele>
<speed>5.7</speed>
<course>127.3</course>
<desc>Speed 5.7 km/h Distance 0.33 km</desc>
<time>2010-02-28T16:12:32.74</time>
<name>221</name>
</trkpt>
<trkpt lat="48.988252" lon="8.656623">
<ele>322.5</ele>
<speed>5.5</speed>
<course>124.8</course>
<desc>Speed 5.5 km/h Distance 0.33 km</desc>
<time>2010-02-28T16:12:33.74</time>
<name>222</name>
</trkpt>
<trkpt lat="48.988243" lon="8.656642">
<ele>322.5</ele>
<speed>5.2</speed>
<course>120.4</course>
<desc>Speed 5.2 km/h Distance 0.33 km</desc>
<time>2010-02-28T16:12:34.74</time>
<name>223</name>
</trkpt>
<trkpt lat="48.988235" lon="8.656663">
<ele>322.5</ele>
<speed>5.5</speed>
<course>120.3</course>
<desc>Speed 5.5 km/h Distance 0.33 km</desc>
<time>2010-02-28T16:12:35.74</time>
<name>224</name>
</trkpt>
<trkpt lat="48.988227" lon="8.656685">
<ele>323.0</ele>
<speed>5.1</speed>
<course>119.0</course>
<desc>Speed 5.1 km/h Distance 0.33 km</desc>
<time>2010-02-28T16:12:36.74</time>
<name>225</name>
</trkpt>
<trkpt lat="48.988220" lon="8.656703">
<ele>323.0</ele>
<speed>5.1</speed>
<course>119.0</course>
<desc>Speed 5.1 km/h Distance 0.34 km</desc>
<time>2010-02-28T16:12:37.75</time>
<name>226</name>
</trkpt>
<trkpt lat="48.988213" lon="8.656722">
<ele>323.5</ele>
<speed>5.6</speed>
<course>119.0</course>
<desc>Speed 5.6 km/h Distance 0.34 km</desc>
<time>2010-02-28T16:12:38.74</time>
<name>227</name>
</trkpt>
<trkpt lat="48.988207" lon="8.656740">
<ele>323.0</ele>
<speed>5.3</speed>
<course>121.4</course>
<desc>Speed 5.3 km/h Distance 0.34 km</desc>
<time>2010-02-28T16:12:39.74</time>
<name>228</name>
</trkpt>
<trkpt lat="48.988200" lon="8.656757">
<ele>323.0</ele>
<speed>5.1</speed>
<course>119.0</course>
<desc>Speed 5.1 km/h Distance 0.34 km</desc>
<time>2010-02-28T16:12:40.74</time>
<name>229</name>
</trkpt>
<trkpt lat="48.988193" lon="8.656775">
<ele>323.0</ele>
<speed>5.1</speed>
<course>130.3</course>
<desc>Speed 5.1 km/h Distance 0.34 km</desc>
<time>2010-02-28T16:12:41.75</time>
<name>230</name>
</trkpt>
<trkpt lat="48.988185" lon="8.656790">
<ele>323.0</ele>
<speed>5.0</speed>
<course>119.0</course>
<desc>Speed 5.0 km/h Distance 0.34 km</desc>
<time>2010-02-28T16:12:42.74</time>
<name>231</name>
</trkpt>
<trkpt lat="48.988178" lon="8.656808">
<ele>323.0</ele>
<speed>5.4</speed>
<course>127.4</course>
<desc>Speed 5.4 km/h Distance 0.34 km</desc>
<time>2010-02-28T16:12:43.73</time>
<name>232</name>
</trkpt>
<trkpt lat="48.988170" lon="8.656825">
<ele>323.0</ele>
<speed>5.4</speed>
<course>121.4</course>
<desc>Speed 5.4 km/h Distance 0.35 km</desc>
<time>2010-02-28T16:12:44.74</time>
<name>233</name>
</trkpt>
<trkpt lat="48.988163" lon="8.656842">
<ele>323.0</ele>
<speed>5.3</speed>
<course>124.7</course>
<desc>Speed 5.3 km/h Distance 0.35 km</desc>
<time>2010-02-28T16:12:45.74</time>
<name>234</name>
</trkpt>
<trkpt lat="48.988155" lon="8.656860">
<ele>323.5</ele>
<speed>5.2</speed>
<course>112.6</course>
<desc>Speed 5.2 km/h Distance 0.35 km</desc>
<time>2010-02-28T16:12:46.74</time>
<name>235</name>
</trkpt>
<trkpt lat="48.988150" lon="8.656878">
<ele>323.0</ele>
<speed>5.1</speed>
<course>115.1</course>
<desc>Speed 5.1 km/h Distance 0.35 km</desc>
<time>2010-02-28T16:12:47.73</time>
<name>236</name>
</trkpt>
<trkpt lat="48.988143" lon="8.656900">
<ele>323.0</ele>
<speed>5.0</speed>
<course>110.8</course>
<desc>Speed 5.0 km/h Distance 0.35 km</desc>
<time>2010-02-28T16:12:48.73</time>
<name>237</name>
</trkpt>
<trkpt lat="48.988138" lon="8.656920">
<ele>323.0</ele>
<speed>5.4</speed>
<course>109.4</course>
<desc>Speed 5.4 km/h Distance 0.35 km</desc>
<time>2010-02-28T16:12:49.73</time>
<name>238</name>
</trkpt>
<trkpt lat="48.988133" lon="8.656942">
<ele>322.5</ele>
<speed>5.4</speed>
<course>119.0</course>
<desc>Speed 5.4 km/h Distance 0.36 km</desc>
<time>2010-02-28T16:12:50.73</time>
<name>239</name>
</trkpt>
<trkpt lat="48.988127" lon="8.656960">
<ele>322.5</ele>
<speed>5.3</speed>
<course>112.6</course>
<desc>Speed 5.3 km/h Distance 0.36 km</desc>
<time>2010-02-28T16:12:51.73</time>
<name>240</name>
</trkpt>
<trkpt lat="48.988122" lon="8.656978">
<ele>322.0</ele>
<speed>5.3</speed>
<course>116.9</course>
<desc>Speed 5.3 km/h Distance 0.36 km</desc>
<time>2010-02-28T16:12:52.73</time>
<name>241</name>
</trkpt>
<trkpt lat="48.988115" lon="8.656998">
<ele>322.0</ele>
<speed>5.3</speed>
<course>115.1</course>
<desc>Speed 5.3 km/h Distance 0.36 km</desc>
<time>2010-02-28T16:12:53.73</time>
<name>242</name>
</trkpt>
<trkpt lat="48.988108" lon="8.657020">
<ele>321.5</ele>
<speed>5.5</speed>
<course>109.4</course>
<desc>Speed 5.5 km/h Distance 0.36 km</desc>
<time>2010-02-28T16:12:54.73</time>
<name>243</name>
</trkpt>
<trkpt lat="48.988103" lon="8.657042">
<ele>321.5</ele>
<speed>5.9</speed>
<course>121.4</course>
<desc>Speed 5.9 km/h Distance 0.36 km</desc>
<time>2010-02-28T16:12:55.73</time>
<name>244</name>
</trkpt>
<trkpt lat="48.988097" lon="8.657058">
<ele>321.5</ele>
<speed>5.3</speed>
<course>119.0</course>
<desc>Speed 5.3 km/h Distance 0.37 km</desc>
<time>2010-02-28T16:12:56.73</time>
<name>245</name>
</trkpt>
<trkpt lat="48.988090" lon="8.657077">
<ele>322.0</ele>
<speed>5.3</speed>
<course>121.4</course>
<desc>Speed 5.3 km/h Distance 0.37 km</desc>
<time>2010-02-28T16:12:57.73</time>
<name>246</name>
</trkpt>
<trkpt lat="48.988083" lon="8.657093">
<ele>322.0</ele>
<speed>5.2</speed>
<course>116.9</course>
<desc>Speed 5.2 km/h Distance 0.37 km</desc>
<time>2010-02-28T16:12:58.73</time>
<name>247</name>
</trkpt>
<trkpt lat="48.988077" lon="8.657113">
<ele>322.0</ele>
<speed>5.6</speed>
<course>110.8</course>
<desc>Speed 5.6 km/h Distance 0.37 km</desc>
<time>2010-02-28T16:12:59.73</time>
<name>248</name>
</trkpt>
<trkpt lat="48.988072" lon="8.657133">
<ele>321.5</ele>
<speed>5.3</speed>
<course>112.5</course>
<desc>Speed 5.3 km/h Distance 0.37 km</desc>
<time>2010-02-28T16:13:00.73</time>
<name>249</name>
</trkpt>
<trkpt lat="48.988067" lon="8.657152">
<ele>321.5</ele>
<speed>4.9</speed>
<course>118.9</course>
<desc>Speed 4.9 km/h Distance 0.37 km</desc>
<time>2010-02-28T16:13:01.73</time>
<name>250</name>
</trkpt>
<trkpt lat="48.988060" lon="8.657170">
<ele>321.5</ele>
<speed>5.4</speed>
<course>121.3</course>
<desc>Speed 5.4 km/h Distance 0.37 km</desc>
<time>2010-02-28T16:13:02.73</time>
<name>251</name>
</trkpt>
<trkpt lat="48.988053" lon="8.657187">
<ele>321.5</ele>
<speed>5.2</speed>
<course>114.6</course>
<desc>Speed 5.2 km/h Distance 0.38 km</desc>
<time>2010-02-28T16:13:03.73</time>
<name>252</name>
</trkpt>
<trkpt lat="48.988048" lon="8.657203">
<ele>321.0</ele>
<speed>4.7</speed>
<course>112.6</course>
<desc>Speed 4.7 km/h Distance 0.38 km</desc>
<time>2010-02-28T16:13:04.73</time>
<name>253</name>
</trkpt>
<trkpt lat="48.988043" lon="8.657222">
<ele>321.0</ele>
<speed>5.0</speed>
<course>114.6</course>
<desc>Speed 5.0 km/h Distance 0.38 km</desc>
<time>2010-02-28T16:13:05.72</time>
<name>254</name>
</trkpt>
<trkpt lat="48.988038" lon="8.657238">
<ele>320.5</ele>
<speed>4.9</speed>
<course>116.9</course>
<desc>Speed 4.9 km/h Distance 0.38 km</desc>
<time>2010-02-28T16:13:06.72</time>
<name>255</name>
</trkpt>
<trkpt lat="48.988032" lon="8.657258">
<ele>320.5</ele>
<speed>5.5</speed>
<course>116.9</course>
<desc>Speed 5.5 km/h Distance 0.38 km</desc>
<time>2010-02-28T16:13:07.73</time>
<name>256</name>
</trkpt>
<trkpt lat="48.988025" lon="8.657278">
<ele>320.5</ele>
<speed>5.3</speed>
<course>112.5</course>
<desc>Speed 5.3 km/h Distance 0.38 km</desc>
<time>2010-02-28T16:13:08.74</time>
<name>257</name>
</trkpt>
<trkpt lat="48.988020" lon="8.657297">
<ele>320.0</ele>
<speed>4.9</speed>
<course>103.2</course>
<desc>Speed 4.9 km/h Distance 0.38 km</desc>
<time>2010-02-28T16:13:09.72</time>
<name>258</name>
</trkpt>
<trkpt lat="48.988017" lon="8.657318">
<ele>319.5</ele>
<speed>5.7</speed>
<course>109.4</course>
<desc>Speed 5.7 km/h Distance 0.39 km</desc>
<time>2010-02-28T16:13:10.73</time>
<name>259</name>
</trkpt>
<trkpt lat="48.988012" lon="8.657340">
<ele>319.0</ele>
<speed>5.3</speed>
<course>110.8</course>
<desc>Speed 5.3 km/h Distance 0.39 km</desc>
<time>2010-02-28T16:13:11.72</time>
<name>260</name>
</trkpt>
<trkpt lat="48.988007" lon="8.657360">
<ele>319.0</ele>
<speed>5.2</speed>
<course>112.6</course>
<desc>Speed 5.2 km/h Distance 0.39 km</desc>
<time>2010-02-28T16:13:12.72</time>
<name>261</name>
</trkpt>
<trkpt lat="48.988002" lon="8.657378">
<ele>319.0</ele>
<speed>4.8</speed>
<course>107.0</course>
<desc>Speed 4.8 km/h Distance 0.39 km</desc>
<time>2010-02-28T16:13:13.72</time>
<name>262</name>
</trkpt>
<trkpt lat="48.987998" lon="8.657395">
<ele>318.5</ele>
<speed>4.8</speed>
<course>121.4</course>
<desc>Speed 4.8 km/h Distance 0.39 km</desc>
<time>2010-02-28T16:13:14.72</time>
<name>263</name>
</trkpt>
<trkpt lat="48.987992" lon="8.657412">
<ele>318.5</ele>
<speed>4.7</speed>
<course>104.2</course>
<desc>Speed 4.7 km/h Distance 0.39 km</desc>
<time>2010-02-28T16:13:15.72</time>
<name>264</name>
</trkpt>
<trkpt lat="48.987988" lon="8.657432">
<ele>318.5</ele>
<speed>4.9</speed>
<course>110.9</course>
<desc>Speed 4.9 km/h Distance 0.39 km</desc>
<time>2010-02-28T16:13:16.72</time>
<name>265</name>
</trkpt>
<trkpt lat="48.987983" lon="8.657452">
<ele>318.0</ele>
<speed>5.1</speed>
<course>109.4</course>
<desc>Speed 5.1 km/h Distance 0.40 km</desc>
<time>2010-02-28T16:13:17.73</time>
<name>266</name>
</trkpt>
<trkpt lat="48.987978" lon="8.657473">
<ele>318.0</ele>
<speed>5.5</speed>
<course>112.6</course>
<desc>Speed 5.5 km/h Distance 0.40 km</desc>
<time>2010-02-28T16:13:18.73</time>
<name>267</name>
</trkpt>
<trkpt lat="48.987973" lon="8.657492">
<ele>318.0</ele>
<speed>5.0</speed>
<course>110.8</course>
<desc>Speed 5.0 km/h Distance 0.40 km</desc>
<time>2010-02-28T16:13:19.73</time>
<name>268</name>
</trkpt>
<trkpt lat="48.987968" lon="8.657512">
<ele>317.5</ele>
<speed>5.3</speed>
<course>112.6</course>
<desc>Speed 5.3 km/h Distance 0.40 km</desc>
<time>2010-02-28T16:13:20.73</time>
<name>269</name>
</trkpt>
<trkpt lat="48.987963" lon="8.657530">
<ele>317.5</ele>
<speed>5.3</speed>
<course>110.8</course>
<desc>Speed 5.3 km/h Distance 0.40 km</desc>
<time>2010-02-28T16:13:21.73</time>
<name>270</name>
</trkpt>
<trkpt lat="48.987958" lon="8.657550">
<ele>317.5</ele>
<speed>5.3</speed>
<course>105.4</course>
<desc>Speed 5.3 km/h Distance 0.40 km</desc>
<time>2010-02-28T16:13:22.73</time>
<name>271</name>
</trkpt>
<trkpt lat="48.987955" lon="8.657568">
<ele>317.5</ele>
<speed>4.9</speed>
<course>105.4</course>
<desc>Speed 4.9 km/h Distance 0.41 km</desc>
<time>2010-02-28T16:13:23.72</time>
<name>272</name>
</trkpt>
<trkpt lat="48.987952" lon="8.657587">
<ele>317.5</ele>
<speed>4.7</speed>
<course>99.1</course>
<desc>Speed 4.7 km/h Distance 0.41 km</desc>
<time>2010-02-28T16:13:24.73</time>
<name>273</name>
</trkpt>
<trkpt lat="48.987948" lon="8.657618">
<ele>315.5</ele>
<speed>5.2</speed>
<course>102.3</course>
<desc>Speed 5.2 km/h Distance 0.41 km</desc>
<time>2010-02-28T16:13:25.73</time>
<name>274</name>
</trkpt>
<trkpt lat="48.987945" lon="8.657642">
<ele>315.5</ele>
<speed>5.7</speed>
<course>97.2</course>
<desc>Speed 5.7 km/h Distance 0.41 km</desc>
<time>2010-02-28T16:13:26.73</time>
<name>275</name>
</trkpt>
<trkpt lat="48.987942" lon="8.657682">
<ele>313.5</ele>
<speed>5.4</speed>
<course>103.2</course>
<desc>Speed 5.4 km/h Distance 0.41 km</desc>
<time>2010-02-28T16:13:27.73</time>
<name>276</name>
</trkpt>
<trkpt lat="48.987938" lon="8.657703">
<ele>314.5</ele>
<speed>5.5</speed>
<course>107.0</course>
<desc>Speed 5.5 km/h Distance 0.42 km</desc>
<time>2010-02-28T16:13:28.72</time>
<name>277</name>
</trkpt>
<trkpt lat="48.987930" lon="8.657745">
<ele>313.5</ele>
<speed>5.3</speed>
<course>103.2</course>
<desc>Speed 5.3 km/h Distance 0.42 km</desc>
<time>2010-02-28T16:13:29.72</time>
<name>278</name>
</trkpt>
<trkpt lat="48.987927" lon="8.657767">
<ele>312.0</ele>
<speed>4.5</speed>
<course>102.3</course>
<desc>Speed 4.5 km/h Distance 0.42 km</desc>
<time>2010-02-28T16:13:30.72</time>
<name>279</name>
</trkpt>
<trkpt lat="48.987923" lon="8.657790">
<ele>311.0</ele>
<speed>4.4</speed>
<course>114.6</course>
<desc>Speed 4.4 km/h Distance 0.42 km</desc>
<time>2010-02-28T16:13:31.72</time>
<name>280</name>
</trkpt>
<trkpt lat="48.987918" lon="8.657807">
<ele>311.0</ele>
<speed>4.6</speed>
<course>105.5</course>
<desc>Speed 4.6 km/h Distance 0.42 km</desc>
<time>2010-02-28T16:13:32.72</time>
<name>281</name>
</trkpt>
<trkpt lat="48.987915" lon="8.657825">
<ele>311.5</ele>
<speed>4.9</speed>
<course>101.5</course>
<desc>Speed 4.9 km/h Distance 0.42 km</desc>
<time>2010-02-28T16:13:33.71</time>
<name>282</name>
</trkpt>
<trkpt lat="48.987912" lon="8.657850">
<ele>311.0</ele>
<speed>4.9</speed>
<course>90.0</course>
<desc>Speed 4.9 km/h Distance 0.43 km</desc>
<time>2010-02-28T16:13:34.71</time>
<name>283</name>
</trkpt>
<trkpt lat="48.987912" lon="8.657880">
<ele>310.5</ele>
<speed>5.5</speed>
<course>103.2</course>
<desc>Speed 5.5 km/h Distance 0.43 km</desc>
<time>2010-02-28T16:13:35.71</time>
<name>284</name>
</trkpt>
<trkpt lat="48.987908" lon="8.657902">
<ele>311.0</ele>
<speed>5.5</speed>
<course>109.4</course>
<desc>Speed 5.5 km/h Distance 0.43 km</desc>
<time>2010-02-28T16:13:36.71</time>
<name>285</name>
</trkpt>
<trkpt lat="48.987903" lon="8.657923">
<ele>311.0</ele>
<speed>5.7</speed>
<course>104.2</course>
<desc>Speed 5.7 km/h Distance 0.43 km</desc>
<time>2010-02-28T16:13:37.71</time>
<name>286</name>
</trkpt>
<trkpt lat="48.987900" lon="8.657943">
<ele>311.0</ele>
<speed>5.3</speed>
<course>110.8</course>
<desc>Speed 5.3 km/h Distance 0.43 km</desc>
<time>2010-02-28T16:13:38.71</time>
<name>287</name>
</trkpt>
<trkpt lat="48.987895" lon="8.657963">
<ele>311.5</ele>
<speed>5.1</speed>
<course>95.4</course>
<desc>Speed 5.1 km/h Distance 0.44 km</desc>
<time>2010-02-28T16:13:39.71</time>
<name>288</name>
</trkpt>
<trkpt lat="48.987893" lon="8.657990">
<ele>310.5</ele>
<speed>4.9</speed>
<course>95.1</course>
<desc>Speed 4.9 km/h Distance 0.44 km</desc>
<time>2010-02-28T16:13:40.71</time>
<name>289</name>
</trkpt>
<trkpt lat="48.987892" lon="8.658018">
<ele>309.5</ele>
<speed>4.7</speed>
<course>95.1</course>
<desc>Speed 4.7 km/h Distance 0.44 km</desc>
<time>2010-02-28T16:13:41.71</time>
<name>290</name>
</trkpt>
<trkpt lat="48.987890" lon="8.658047">
<ele>309.0</ele>
<speed>5.1</speed>
<course>100.8</course>
<desc>Speed 5.1 km/h Distance 0.44 km</desc>
<time>2010-02-28T16:13:42.71</time>
<name>291</name>
</trkpt>
<trkpt lat="48.987887" lon="8.658073">
<ele>309.0</ele>
<speed>5.7</speed>
<course>108.1</course>
<desc>Speed 5.7 km/h Distance 0.44 km</desc>
<time>2010-02-28T16:13:43.72</time>
<name>292</name>
</trkpt>
<trkpt lat="48.987882" lon="8.658097">
<ele>308.5</ele>
<speed>5.5</speed>
<course>103.2</course>
<desc>Speed 5.5 km/h Distance 0.45 km</desc>
<time>2010-02-28T16:13:44.72</time>
<name>293</name>
</trkpt>
<trkpt lat="48.987878" lon="8.658118">
<ele>309.0</ele>
<speed>5.2</speed>
<course>115.4</course>
<desc>Speed 5.2 km/h Distance 0.45 km</desc>
<time>2010-02-28T16:13:45.71</time>
<name>294</name>
</trkpt>
<trkpt lat="48.987870" lon="8.658145">
<ele>309.5</ele>
<speed>5.2</speed>
<course>100.8</course>
<desc>Speed 5.2 km/h Distance 0.45 km</desc>
<time>2010-02-28T16:13:46.71</time>
<name>295</name>
</trkpt>
<trkpt lat="48.987867" lon="8.658172">
<ele>309.5</ele>
<speed>5.5</speed>
<course>102.3</course>
<desc>Speed 5.5 km/h Distance 0.45 km</desc>
<time>2010-02-28T16:13:47.71</time>
<name>296</name>
</trkpt>
<trkpt lat="48.987863" lon="8.658195">
<ele>309.5</ele>
<speed>4.9</speed>
<course>97.2</course>
<desc>Speed 4.9 km/h Distance 0.45 km</desc>
<time>2010-02-28T16:13:48.71</time>
<name>297</name>
</trkpt>
<trkpt lat="48.987862" lon="8.658215">
<ele>309.5</ele>
<speed>5.0</speed>
<course>108.7</course>
<desc>Speed 5.0 km/h Distance 0.45 km</desc>
<time>2010-02-28T16:13:49.71</time>
<name>298</name>
</trkpt>
<trkpt lat="48.987858" lon="8.658230">
<ele>309.5</ele>
<speed>4.1</speed>
<course>104.2</course>
<desc>Speed 4.1 km/h Distance 0.46 km</desc>
<time>2010-02-28T16:13:50.72</time>
<name>299</name>
</trkpt>
<trkpt lat="48.987855" lon="8.658250">
<ele>309.0</ele>
<speed>4.4</speed>
<course>97.9</course>
<desc>Speed 4.4 km/h Distance 0.46 km</desc>
<time>2010-02-28T16:13:51.72</time>
<name>300</name>
</trkpt>
<trkpt lat="48.987853" lon="8.658268">
<ele>309.0</ele>
<speed>5.0</speed>
<course>107.0</course>
<desc>Speed 5.0 km/h Distance 0.46 km</desc>
<time>2010-02-28T16:13:52.72</time>
<name>301</name>
</trkpt>
<trkpt lat="48.987850" lon="8.658285">
<ele>309.0</ele>
<speed>4.5</speed>
<course>99.6</course>
<desc>Speed 4.5 km/h Distance 0.46 km</desc>
<time>2010-02-28T16:13:53.71</time>
<name>302</name>
</trkpt>
<trkpt lat="48.987848" lon="8.658300">
<ele>308.5</ele>
<speed>4.1</speed>
<course>115.1</course>
<desc>Speed 4.1 km/h Distance 0.46 km</desc>
<time>2010-02-28T16:13:54.72</time>
<name>303</name>
</trkpt>
<trkpt lat="48.987842" lon="8.658322">
<ele>308.5</ele>
<speed>5.5</speed>
<course>110.8</course>
<desc>Speed 5.5 km/h Distance 0.46 km</desc>
<time>2010-02-28T16:13:55.74</time>
<name>304</name>
</trkpt>
<trkpt lat="48.987837" lon="8.658342">
<ele>309.0</ele>
<speed>5.4</speed>
<course>98.7</course>
<desc>Speed 5.4 km/h Distance 0.46 km</desc>
<time>2010-02-28T16:13:56.71</time>
<name>305</name>
</trkpt>
<trkpt lat="48.987835" lon="8.658358">
<ele>309.0</ele>
<speed>4.2</speed>
<course>97.9</course>
<desc>Speed 4.2 km/h Distance 0.47 km</desc>
<time>2010-02-28T16:13:57.71</time>
<name>306</name>
</trkpt>
<trkpt lat="48.987833" lon="8.658377">
<ele>309.5</ele>
<speed>4.6</speed>
<course>108.7</course>
<desc>Speed 4.6 km/h Distance 0.47 km</desc>
<time>2010-02-28T16:13:58.71</time>
<name>307</name>
</trkpt>
<trkpt lat="48.987830" lon="8.658392">
<ele>309.5</ele>
<speed>3.9</speed>
<course>110.8</course>
<desc>Speed 3.9 km/h Distance 0.47 km</desc>
<time>2010-02-28T16:13:59.71</time>
<name>308</name>
</trkpt>
<trkpt lat="48.987825" lon="8.658412">
<ele>310.0</ele>
<speed>5.1</speed>
<course>99.6</course>
<desc>Speed 5.1 km/h Distance 0.47 km</desc>
<time>2010-02-28T16:14:00.71</time>
<name>309</name>
</trkpt>
<trkpt lat="48.987823" lon="8.658427">
<ele>311.0</ele>
<speed>3.7</speed>
<course>109.0</course>
<desc>Speed 3.7 km/h Distance 0.47 km</desc>
<time>2010-02-28T16:14:01.70</time>
<name>310</name>
</trkpt>
<trkpt lat="48.987803" lon="8.658515">
<ele>310.5</ele>
<speed>2.5</speed>
<course>143.6</course>
<desc>Speed 2.5 km/h Distance 0.48 km</desc>
<time>2010-02-28T16:14:03.71</time>
<name>311</name>
</trkpt>
<trkpt lat="48.987790" lon="8.658530">
<ele>313.0</ele>
<speed>2.4</speed>
<course>149.7</course>
<desc>Speed 2.4 km/h Distance 0.48 km</desc>
<time>2010-02-28T16:14:04.70</time>
<name>312</name>
</trkpt>
<trkpt lat="48.987775" lon="8.658543">
<ele>315.0</ele>
<speed>2.1</speed>
<course>167.4</course>
<desc>Speed 2.1 km/h Distance 0.48 km</desc>
<time>2010-02-28T16:14:05.70</time>
<name>313</name>
</trkpt>
<trkpt lat="48.987773" lon="8.658543">
<ele>316.0</ele>
<speed>2.4</speed>
<course>157.8</course>
<desc>Speed 2.4 km/h Distance 0.48 km</desc>
<time>2010-02-28T16:14:06.70</time>
<name>314</name>
</trkpt>
<trkpt lat="48.987768" lon="8.658547">
<ele>316.0</ele>
<speed>1.1</speed>
<course>146.3</course>
<desc>Speed 1.1 km/h Distance 0.48 km</desc>
<time>2010-02-28T16:14:07.71</time>
<name>315</name>
</trkpt>
<trkpt lat="48.987765" lon="8.658550">
<ele>316.0</ele>
<speed>0.8</speed>
<course>51.9</course>
<desc>Speed 0.8 km/h Distance 0.48 km</desc>
<time>2010-02-28T16:14:08.71</time>
<name>316</name>
</trkpt>
<trkpt lat="48.987767" lon="8.658553">
<ele>316.0</ele>
<speed>0.4</speed>
<course>51.9</course>
<desc>Speed 0.4 km/h Distance 0.48 km</desc>
<time>2010-02-28T16:14:09.70</time>
<name>317</name>
</trkpt>
<trkpt lat="48.987768" lon="8.658557">
<ele>315.5</ele>
<speed>0.3</speed>
<course>49.4</course>
<desc>Speed 0.3 km/h Distance 0.48 km</desc>
<time>2010-02-28T16:14:10.72</time>
<name>318</name>
</trkpt>
<trkpt lat="48.987770" lon="8.658560">
<ele>315.5</ele>
<speed>0.1</speed>
<course>90.0</course>
<desc>Speed 0.1 km/h Distance 0.48 km</desc>
<time>2010-02-28T16:14:11.70</time>
<name>319</name>
</trkpt>
<trkpt lat="48.987770" lon="8.658563">
<ele>315.0</ele>
<speed>0.1</speed>
<course>116.9</course>
<desc>Speed 0.1 km/h Distance 0.48 km</desc>
<time>2010-02-28T16:14:12.70</time>
<name>320</name>
</trkpt>
<trkpt lat="48.987765" lon="8.658578">
<ele>314.5</ele>
<speed>0.2</speed>
<course>90.0</course>
<desc>Speed 0.2 km/h Distance 0.48 km</desc>
<time>2010-02-28T16:14:13.70</time>
<name>321</name>
</trkpt>
<trkpt lat="48.987765" lon="8.658582">
<ele>314.5</ele>
<speed>0.0</speed>
<course>90.0</course>
<desc>Speed 0.0 km/h Distance 0.48 km</desc>
<time>2010-02-28T16:14:14.70</time>
<name>322</name>
</trkpt>
<trkpt lat="48.987765" lon="8.658582">
<ele>314.5</ele>
<speed>0.1</speed>
<course>90.0</course>
<desc>Speed 0.1 km/h Distance 0.48 km</desc>
<time>2010-02-28T16:14:15.70</time>
<name>323</name>
</trkpt>
<trkpt lat="48.987765" lon="8.658583">
<ele>314.5</ele>
<speed>0.1</speed>
<course>90.0</course>
<desc>Speed 0.1 km/h Distance 0.49 km</desc>
<time>2010-02-28T16:14:16.70</time>
<name>324</name>
</trkpt>
<trkpt lat="48.987765" lon="8.658585">
<ele>314.5</ele>
<speed>0.1</speed>
<course>90.0</course>
<desc>Speed 0.1 km/h Distance 0.49 km</desc>
<time>2010-02-28T16:14:17.70</time>
<name>325</name>
</trkpt>
<trkpt lat="48.987765" lon="8.658587">
<ele>314.0</ele>
<speed>0.3</speed>
<course>90.0</course>
<desc>Speed 0.3 km/h Distance 0.49 km</desc>
<time>2010-02-28T16:14:18.70</time>
<name>326</name>
</trkpt>
<trkpt lat="48.987765" lon="8.658588">
<ele>314.0</ele>
<speed>0.2</speed>
<course>142.8</course>
<desc>Speed 0.2 km/h Distance 0.49 km</desc>
<time>2010-02-28T16:14:19.69</time>
<name>327</name>
</trkpt>
<trkpt lat="48.987763" lon="8.658590">
<ele>314.0</ele>
<speed>0.2</speed>
<course>90.0</course>
<desc>Speed 0.2 km/h Distance 0.49 km</desc>
<time>2010-02-28T16:14:20.69</time>
<name>328</name>
</trkpt>
<trkpt lat="48.987763" lon="8.658592">
<ele>314.0</ele>
<speed>0.3</speed>
<course>90.0</course>
<desc>Speed 0.3 km/h Distance 0.49 km</desc>
<time>2010-02-28T16:14:21.69</time>
<name>329</name>
</trkpt>
<trkpt lat="48.987763" lon="8.658592">
<ele>314.0</ele>
<speed>0.3</speed>
<course>90.0</course>
<desc>Speed 0.3 km/h Distance 0.49 km</desc>
<time>2010-02-28T16:14:22.69</time>
<name>330</name>
</trkpt>
<trkpt lat="48.987763" lon="8.658600">
<ele>315.0</ele>
<speed>1.5</speed>
<course>82.1</course>
<desc>Speed 1.5 km/h Distance 0.49 km</desc>
<time>2010-02-28T16:14:23.70</time>
<name>331</name>
</trkpt>
<trkpt lat="48.987765" lon="8.658618">
<ele>315.0</ele>
<speed>3.6</speed>
<course>96.2</course>
<desc>Speed 3.6 km/h Distance 0.49 km</desc>
<time>2010-02-28T16:14:24.69</time>
<name>332</name>
</trkpt>
<trkpt lat="48.987763" lon="8.658642">
<ele>314.5</ele>
<speed>4.8</speed>
<course>105.5</course>
<desc>Speed 4.8 km/h Distance 0.49 km</desc>
<time>2010-02-28T16:14:25.70</time>
<name>333</name>
</trkpt>
<trkpt lat="48.987760" lon="8.658660">
<ele>314.5</ele>
<speed>4.8</speed>
<course>112.6</course>
<desc>Speed 4.8 km/h Distance 0.49 km</desc>
<time>2010-02-28T16:14:26.69</time>
<name>334</name>
</trkpt>
<trkpt lat="48.987755" lon="8.658678">
<ele>315.0</ele>
<speed>5.0</speed>
<course>110.8</course>
<desc>Speed 5.0 km/h Distance 0.49 km</desc>
<time>2010-02-28T16:14:27.69</time>
<name>335</name>
</trkpt>
<trkpt lat="48.987750" lon="8.658698">
<ele>315.0</ele>
<speed>4.8</speed>
<course>90.0</course>
<desc>Speed 4.8 km/h Distance 0.49 km</desc>
<time>2010-02-28T16:14:28.69</time>
<name>336</name>
</trkpt>
<trkpt lat="48.987750" lon="8.658727">
<ele>313.5</ele>
<speed>5.0</speed>
<course>95.8</course>
<desc>Speed 5.0 km/h Distance 0.50 km</desc>
<time>2010-02-28T16:14:29.70</time>
<name>337</name>
</trkpt>
<trkpt lat="48.987748" lon="8.658752">
<ele>313.0</ele>
<speed>4.9</speed>
<course>110.8</course>
<desc>Speed 4.9 km/h Distance 0.50 km</desc>
<time>2010-02-28T16:14:30.69</time>
<name>338</name>
</trkpt>
<trkpt lat="48.987743" lon="8.658772">
<ele>313.0</ele>
<speed>5.0</speed>
<course>90.0</course>
<desc>Speed 5.0 km/h Distance 0.50 km</desc>
<time>2010-02-28T16:14:31.69</time>
<name>339</name>
</trkpt>
<trkpt lat="48.987743" lon="8.658788">
<ele>313.0</ele>
<speed>3.3</speed>
<course>114.6</course>
<desc>Speed 3.3 km/h Distance 0.50 km</desc>
<time>2010-02-28T16:14:32.69</time>
<name>340</name>
</trkpt>
<trkpt lat="48.987738" lon="8.658805">
<ele>312.0</ele>
<speed>4.4</speed>
<course>99.6</course>
<desc>Speed 4.4 km/h Distance 0.50 km</desc>
<time>2010-02-28T16:14:33.69</time>
<name>341</name>
</trkpt>
<trkpt lat="48.987737" lon="8.658820">
<ele>311.5</ele>
<speed>3.8</speed>
<course>96.7</course>
<desc>Speed 3.8 km/h Distance 0.50 km</desc>
<time>2010-02-28T16:14:34.69</time>
<name>342</name>
</trkpt>
<trkpt lat="48.987735" lon="8.658842">
<ele>310.5</ele>
<speed>4.3</speed>
<course>103.2</course>
<desc>Speed 4.3 km/h Distance 0.50 km</desc>
<time>2010-02-28T16:14:35.69</time>
<name>343</name>
</trkpt>
<trkpt lat="48.987732" lon="8.658863">
<ele>310.0</ele>
<speed>5.1</speed>
<course>116.9</course>
<desc>Speed 5.1 km/h Distance 0.51 km</desc>
<time>2010-02-28T16:14:36.69</time>
<name>344</name>
</trkpt>
<trkpt lat="48.987725" lon="8.658883">
<ele>310.0</ele>
<speed>5.3</speed>
<course>110.9</course>
<desc>Speed 5.3 km/h Distance 0.51 km</desc>
<time>2010-02-28T16:14:37.69</time>
<name>345</name>
</trkpt>
<trkpt lat="48.987720" lon="8.658903">
<ele>310.5</ele>
<speed>5.3</speed>
<course>102.3</course>
<desc>Speed 5.3 km/h Distance 0.51 km</desc>
<time>2010-02-28T16:14:38.69</time>
<name>346</name>
</trkpt>
<trkpt lat="48.987717" lon="8.658927">
<ele>309.5</ele>
<speed>5.4</speed>
<course>113.5</course>
<desc>Speed 5.4 km/h Distance 0.51 km</desc>
<time>2010-02-28T16:14:39.70</time>
<name>347</name>
</trkpt>
<trkpt lat="48.987710" lon="8.658950">
<ele>308.5</ele>
<speed>5.4</speed>
<course>112.6</course>
<desc>Speed 5.4 km/h Distance 0.51 km</desc>
<time>2010-02-28T16:14:40.70</time>
<name>348</name>
</trkpt>
<trkpt lat="48.987705" lon="8.658968">
<ele>308.5</ele>
<speed>5.0</speed>
<course>119.7</course>
<desc>Speed 5.0 km/h Distance 0.51 km</desc>
<time>2010-02-28T16:14:41.69</time>
<name>349</name>
</trkpt>
<trkpt lat="48.987700" lon="8.658982">
<ele>308.5</ele>
<speed>3.7</speed>
<course>108.7</course>
<desc>Speed 3.7 km/h Distance 0.52 km</desc>
<time>2010-02-28T16:14:42.69</time>
<name>350</name>
</trkpt>
<trkpt lat="48.987697" lon="8.658997">
<ele>308.5</ele>
<speed>3.7</speed>
<course>112.6</course>
<desc>Speed 3.7 km/h Distance 0.52 km</desc>
<time>2010-02-28T16:14:43.69</time>
<name>351</name>
</trkpt>
<trkpt lat="48.987692" lon="8.659015">
<ele>308.5</ele>
<speed>4.6</speed>
<course>116.9</course>
<desc>Speed 4.6 km/h Distance 0.52 km</desc>
<time>2010-02-28T16:14:44.69</time>
<name>352</name>
</trkpt>
<trkpt lat="48.987687" lon="8.659030">
<ele>308.0</ele>
<speed>3.8</speed>
<course>106.9</course>
<desc>Speed 3.8 km/h Distance 0.52 km</desc>
<time>2010-02-28T16:14:45.69</time>
<name>353</name>
</trkpt>
<trkpt lat="48.987683" lon="8.659047">
<ele>308.0</ele>
<speed>4.7</speed>
<course>124.0</course>
<desc>Speed 4.7 km/h Distance 0.52 km</desc>
<time>2010-02-28T16:14:46.68</time>
<name>354</name>
</trkpt>
<trkpt lat="48.987677" lon="8.659062">
<ele>308.0</ele>
<speed>4.5</speed>
<course>130.3</course>
<desc>Speed 4.5 km/h Distance 0.52 km</desc>
<time>2010-02-28T16:14:47.69</time>
<name>355</name>
</trkpt>
<trkpt lat="48.987668" lon="8.659077">
<ele>309.0</ele>
<speed>4.8</speed>
<course>114.6</course>
<desc>Speed 4.8 km/h Distance 0.52 km</desc>
<time>2010-02-28T16:14:48.69</time>
<name>356</name>
</trkpt>
<trkpt lat="48.987663" lon="8.659093">
<ele>309.0</ele>
<speed>5.1</speed>
<course>124.1</course>
<desc>Speed 5.1 km/h Distance 0.52 km</desc>
<time>2010-02-28T16:14:49.69</time>
<name>357</name>
</trkpt>
<trkpt lat="48.987657" lon="8.659108">
<ele>309.5</ele>
<speed>4.2</speed>
<course>104.2</course>
<desc>Speed 4.2 km/h Distance 0.53 km</desc>
<time>2010-02-28T16:14:50.68</time>
<name>358</name>
</trkpt>
<trkpt lat="48.987653" lon="8.659128">
<ele>310.0</ele>
<speed>5.1</speed>
<course>114.5</course>
<desc>Speed 5.1 km/h Distance 0.53 km</desc>
<time>2010-02-28T16:14:51.68</time>
<name>359</name>
</trkpt>
<trkpt lat="48.987648" lon="8.659145">
<ele>310.5</ele>
<speed>4.5</speed>
<course>134.1</course>
<desc>Speed 4.5 km/h Distance 0.53 km</desc>
<time>2010-02-28T16:14:52.69</time>
<name>360</name>
</trkpt>
<trkpt lat="48.987637" lon="8.659163">
<ele>311.5</ele>
<speed>4.8</speed>
<course>137.5</course>
<desc>Speed 4.8 km/h Distance 0.53 km</desc>
<time>2010-02-28T16:14:53.68</time>
<name>361</name>
</trkpt>
<trkpt lat="48.987628" lon="8.659175">
<ele>312.5</ele>
<speed>4.4</speed>
<course>130.9</course>
<desc>Speed 4.4 km/h Distance 0.53 km</desc>
<time>2010-02-28T16:14:54.69</time>
<name>362</name>
</trkpt>
<trkpt lat="48.987622" lon="8.659187">
<ele>313.0</ele>
<speed>3.7</speed>
<course>114.6</course>
<desc>Speed 3.7 km/h Distance 0.53 km</desc>
<time>2010-02-28T16:14:55.71</time>
<name>363</name>
</trkpt>
<trkpt lat="48.987617" lon="8.659203">
<ele>313.5</ele>
<speed>4.7</speed>
<course>113.5</course>
<desc>Speed 4.7 km/h Distance 0.53 km</desc>
<time>2010-02-28T16:14:56.69</time>
<name>364</name>
</trkpt>
<trkpt lat="48.987610" lon="8.659227">
<ele>314.0</ele>
<speed>5.0</speed>
<course>112.5</course>
<desc>Speed 5.0 km/h Distance 0.54 km</desc>
<time>2010-02-28T16:14:57.68</time>
<name>365</name>
</trkpt>
<trkpt lat="48.987605" lon="8.659245">
<ele>314.0</ele>
<speed>4.9</speed>
<course>112.6</course>
<desc>Speed 4.9 km/h Distance 0.54 km</desc>
<time>2010-02-28T16:14:58.69</time>
<name>366</name>
</trkpt>
<trkpt lat="48.987600" lon="8.659263">
<ele>314.5</ele>
<speed>4.9</speed>
<course>112.6</course>
<desc>Speed 4.9 km/h Distance 0.54 km</desc>
<time>2010-02-28T16:14:59.68</time>
<name>367</name>
</trkpt>
<trkpt lat="48.987595" lon="8.659282">
<ele>315.5</ele>
<speed>4.7</speed>
<course>106.9</course>
<desc>Speed 4.7 km/h Distance 0.54 km</desc>
<time>2010-02-28T16:15:00.67</time>
<name>368</name>
</trkpt>
<trkpt lat="48.987592" lon="8.659298">
<ele>316.0</ele>
<speed>4.4</speed>
<course>119.7</course>
<desc>Speed 4.4 km/h Distance 0.54 km</desc>
<time>2010-02-28T16:15:01.68</time>
<name>369</name>
</trkpt>
<trkpt lat="48.987587" lon="8.659312">
<ele>316.5</ele>
<speed>3.9</speed>
<course>114.6</course>
<desc>Speed 3.9 km/h Distance 0.54 km</desc>
<time>2010-02-28T16:15:02.68</time>
<name>370</name>
</trkpt>
<trkpt lat="48.987582" lon="8.659328">
<ele>316.5</ele>
<speed>4.6</speed>
<course>127.4</course>
<desc>Speed 4.6 km/h Distance 0.54 km</desc>
<time>2010-02-28T16:15:03.68</time>
<name>371</name>
</trkpt>
<trkpt lat="48.987573" lon="8.659345">
<ele>316.5</ele>
<speed>5.1</speed>
<course>121.4</course>
<desc>Speed 5.1 km/h Distance 0.55 km</desc>
<time>2010-02-28T16:15:04.68</time>
<name>372</name>
</trkpt>
<trkpt lat="48.987560" lon="8.659378">
<ele>317.5</ele>
<speed>5.2</speed>
<course>122.7</course>
<desc>Speed 5.2 km/h Distance 0.55 km</desc>
<time>2010-02-28T16:15:05.68</time>
<name>373</name>
</trkpt>
<trkpt lat="48.987547" lon="8.659410">
<ele>319.0</ele>
<speed>4.8</speed>
<course>125.1</course>
<desc>Speed 4.8 km/h Distance 0.55 km</desc>
<time>2010-02-28T16:15:06.68</time>
<name>374</name>
</trkpt>
<trkpt lat="48.987537" lon="8.659432">
<ele>319.0</ele>
<speed>5.0</speed>
<course>129.4</course>
<desc>Speed 5.0 km/h Distance 0.55 km</desc>
<time>2010-02-28T16:15:07.68</time>
<name>375</name>
</trkpt>
<trkpt lat="48.987525" lon="8.659453">
<ele>319.0</ele>
<speed>4.6</speed>
<course>127.3</course>
<desc>Speed 4.6 km/h Distance 0.56 km</desc>
<time>2010-02-28T16:15:08.71</time>
<name>376</name>
</trkpt>
<trkpt lat="48.987512" lon="8.659480">
<ele>320.0</ele>
<speed>4.7</speed>
<course>123.1</course>
<desc>Speed 4.7 km/h Distance 0.56 km</desc>
<time>2010-02-28T16:15:09.68</time>
<name>377</name>
</trkpt>
<trkpt lat="48.987502" lon="8.659503">
<ele>320.0</ele>
<speed>5.1</speed>
<course>125.5</course>
<desc>Speed 5.1 km/h Distance 0.56 km</desc>
<time>2010-02-28T16:15:10.69</time>
<name>378</name>
</trkpt>
<trkpt lat="48.987490" lon="8.659528">
<ele>321.0</ele>
<speed>4.5</speed>
<course>127.3</course>
<desc>Speed 4.5 km/h Distance 0.56 km</desc>
<time>2010-02-28T16:15:11.71</time>
<name>379</name>
</trkpt>
<trkpt lat="48.987483" lon="8.659542">
<ele>322.0</ele>
<speed>4.4</speed>
<course>123.1</course>
<desc>Speed 4.4 km/h Distance 0.56 km</desc>
<time>2010-02-28T16:15:12.68</time>
<name>380</name>
</trkpt>
<trkpt lat="48.987478" lon="8.659553">
<ele>322.5</ele>
<speed>4.0</speed>
<course>121.3</course>
<desc>Speed 4.0 km/h Distance 0.56 km</desc>
<time>2010-02-28T16:15:13.68</time>
<name>381</name>
</trkpt>
<trkpt lat="48.987468" lon="8.659578">
<ele>323.0</ele>
<speed>4.1</speed>
<course>129.7</course>
<desc>Speed 4.1 km/h Distance 0.57 km</desc>
<time>2010-02-28T16:15:14.68</time>
<name>382</name>
</trkpt>
<trkpt lat="48.987458" lon="8.659597">
<ele>324.5</ele>
<speed>3.3</speed>
<course>127.6</course>
<desc>Speed 3.3 km/h Distance 0.57 km</desc>
<time>2010-02-28T16:15:15.70</time>
<name>383</name>
</trkpt>
<trkpt lat="48.987453" lon="8.659607">
<ele>325.5</ele>
<speed>3.7</speed>
<course>121.4</course>
<desc>Speed 3.7 km/h Distance 0.57 km</desc>
<time>2010-02-28T16:15:16.68</time>
<name>384</name>
</trkpt>
<trkpt lat="48.987443" lon="8.659632">
<ele>326.0</ele>
<speed>4.2</speed>
<course>117.0</course>
<desc>Speed 4.2 km/h Distance 0.57 km</desc>
<time>2010-02-28T16:15:17.68</time>
<name>385</name>
</trkpt>
<trkpt lat="48.987438" lon="8.659647">
<ele>325.5</ele>
<speed>4.3</speed>
<course>110.9</course>
<desc>Speed 4.3 km/h Distance 0.57 km</desc>
<time>2010-02-28T16:15:18.68</time>
<name>386</name>
</trkpt>
<trkpt lat="48.987433" lon="8.659667">
<ele>325.5</ele>
<speed>5.3</speed>
<course>119.0</course>
<desc>Speed 5.3 km/h Distance 0.57 km</desc>
<time>2010-02-28T16:15:19.68</time>
<name>387</name>
</trkpt>
<trkpt lat="48.987427" lon="8.659685">
<ele>325.0</ele>
<speed>5.1</speed>
<course>111.8</course>
<desc>Speed 5.1 km/h Distance 0.58 km</desc>
<time>2010-02-28T16:15:20.68</time>
<name>388</name>
</trkpt>
<trkpt lat="48.987418" lon="8.659717">
<ele>324.5</ele>
<speed>4.7</speed>
<course>133.6</course>
<desc>Speed 4.7 km/h Distance 0.58 km</desc>
<time>2010-02-28T16:15:21.68</time>
<name>389</name>
</trkpt>
<trkpt lat="48.987410" lon="8.659730">
<ele>325.0</ele>
<speed>4.9</speed>
<course>130.3</course>
<desc>Speed 4.9 km/h Distance 0.58 km</desc>
<time>2010-02-28T16:15:22.67</time>
<name>390</name>
</trkpt>
<trkpt lat="48.987402" lon="8.659745">
<ele>325.0</ele>
<speed>5.2</speed>
<course>135.5</course>
<desc>Speed 5.2 km/h Distance 0.58 km</desc>
<time>2010-02-28T16:15:23.67</time>
<name>391</name>
</trkpt>
<trkpt lat="48.987392" lon="8.659760">
<ele>325.0</ele>
<speed>5.1</speed>
<course>121.4</course>
<desc>Speed 5.1 km/h Distance 0.58 km</desc>
<time>2010-02-28T16:15:24.67</time>
<name>392</name>
</trkpt>
<trkpt lat="48.987385" lon="8.659777">
<ele>325.5</ele>
<speed>5.1</speed>
<course>114.6</course>
<desc>Speed 5.1 km/h Distance 0.58 km</desc>
<time>2010-02-28T16:15:25.67</time>
<name>393</name>
</trkpt>
<trkpt lat="48.987380" lon="8.659793">
<ele>326.5</ele>
<speed>4.6</speed>
<course>127.3</course>
<desc>Speed 4.6 km/h Distance 0.59 km</desc>
<time>2010-02-28T16:15:26.67</time>
<name>394</name>
</trkpt>
<trkpt lat="48.987373" lon="8.659807">
<ele>326.0</ele>
<speed>4.2</speed>
<course>119.8</course>
<desc>Speed 4.2 km/h Distance 0.59 km</desc>
<time>2010-02-28T16:15:27.67</time>
<name>395</name>
</trkpt>
<trkpt lat="48.987368" lon="8.659820">
<ele>325.5</ele>
<speed>3.4</speed>
<course>140.6</course>
<desc>Speed 3.4 km/h Distance 0.59 km</desc>
<time>2010-02-28T16:15:28.67</time>
<name>396</name>
</trkpt>
<trkpt lat="48.987362" lon="8.659828">
<ele>325.5</ele>
<speed>3.7</speed>
<course>130.9</course>
<desc>Speed 3.7 km/h Distance 0.59 km</desc>
<time>2010-02-28T16:15:29.67</time>
<name>397</name>
</trkpt>
<trkpt lat="48.987355" lon="8.659840">
<ele>326.0</ele>
<speed>3.9</speed>
<course>124.1</course>
<desc>Speed 3.9 km/h Distance 0.59 km</desc>
<time>2010-02-28T16:15:30.70</time>
<name>398</name>
</trkpt>
<trkpt lat="48.987348" lon="8.659855">
<ele>326.0</ele>
<speed>4.5</speed>
<course>127.3</course>
<desc>Speed 4.5 km/h Distance 0.59 km</desc>
<time>2010-02-28T16:15:31.67</time>
<name>399</name>
</trkpt>
<trkpt lat="48.987342" lon="8.659868">
<ele>326.0</ele>
<speed>4.1</speed>
<course>110.9</course>
<desc>Speed 4.1 km/h Distance 0.59 km</desc>
<time>2010-02-28T16:15:32.67</time>
<name>400</name>
</trkpt>
<trkpt lat="48.987338" lon="8.659882">
<ele>325.5</ele>
<speed>3.7</speed>
<course>127.3</course>
<desc>Speed 3.7 km/h Distance 0.59 km</desc>
<time>2010-02-28T16:15:33.67</time>
<name>401</name>
</trkpt>
<trkpt lat="48.987332" lon="8.659895">
<ele>325.0</ele>
<speed>4.1</speed>
<course>116.9</course>
<desc>Speed 4.1 km/h Distance 0.59 km</desc>
<time>2010-02-28T16:15:34.67</time>
<name>402</name>
</trkpt>
<trkpt lat="48.987327" lon="8.659910">
<ele>325.0</ele>
<speed>4.0</speed>
<course>138.8</course>
<desc>Speed 4.0 km/h Distance 0.60 km</desc>
<time>2010-02-28T16:15:35.67</time>
<name>403</name>
</trkpt>
<trkpt lat="48.987317" lon="8.659923">
<ele>325.5</ele>
<speed>5.0</speed>
<course>135.2</course>
<desc>Speed 5.0 km/h Distance 0.60 km</desc>
<time>2010-02-28T16:15:36.67</time>
<name>404</name>
</trkpt>
<trkpt lat="48.987310" lon="8.659933">
<ele>326.5</ele>
<speed>3.7</speed>
<course>127.3</course>
<desc>Speed 3.7 km/h Distance 0.60 km</desc>
<time>2010-02-28T16:15:37.67</time>
<name>405</name>
</trkpt>
<trkpt lat="48.987303" lon="8.659947">
<ele>327.5</ele>
<speed>4.6</speed>
<course>106.9</course>
<desc>Speed 4.6 km/h Distance 0.60 km</desc>
<time>2010-02-28T16:15:38.67</time>
<name>406</name>
</trkpt>
<trkpt lat="48.987298" lon="8.659972">
<ele>326.0</ele>
<speed>6.6</speed>
<course>150.6</course>
<desc>Speed 6.6 km/h Distance 0.60 km</desc>
<time>2010-02-28T16:15:39.67</time>
<name>407</name>
</trkpt>
<trkpt lat="48.987287" lon="8.659982">
<ele>327.0</ele>
<speed>5.2</speed>
<course>127.3</course>
<desc>Speed 5.2 km/h Distance 0.60 km</desc>
<time>2010-02-28T16:15:40.67</time>
<name>408</name>
</trkpt>
<trkpt lat="48.987278" lon="8.659998">
<ele>327.0</ele>
<speed>5.4</speed>
<course>122.4</course>
<desc>Speed 5.4 km/h Distance 0.60 km</desc>
<time>2010-02-28T16:15:41.67</time>
<name>409</name>
</trkpt>
<trkpt lat="48.987270" lon="8.660018">
<ele>327.0</ele>
<speed>6.0</speed>
<course>90.0</course>
<desc>Speed 6.0 km/h Distance 0.61 km</desc>
<time>2010-02-28T16:15:42.66</time>
<name>410</name>
</trkpt>
<trkpt lat="48.987270" lon="8.660022">
<ele>327.0</ele>
<speed>0.8</speed>
<course>120.4</course>
<desc>Speed 0.8 km/h Distance 0.61 km</desc>
<time>2010-02-28T16:15:43.66</time>
<name>411</name>
</trkpt>
<trkpt lat="48.987262" lon="8.660043">
<ele>326.5</ele>
<speed>5.5</speed>
<course>129.7</course>
<desc>Speed 5.5 km/h Distance 0.61 km</desc>
<time>2010-02-28T16:15:44.67</time>
<name>412</name>
</trkpt>
<trkpt lat="48.987252" lon="8.660062">
<ele>326.5</ele>
<speed>5.8</speed>
<course>118.4</course>
<desc>Speed 5.8 km/h Distance 0.61 km</desc>
<time>2010-02-28T16:15:45.67</time>
<name>413</name>
</trkpt>
<trkpt lat="48.987223" lon="8.660142">
<ele>323.5</ele>
<speed>5.1</speed>
<course>124.8</course>
<desc>Speed 5.1 km/h Distance 0.62 km</desc>
<time>2010-02-28T16:15:47.67</time>
<name>414</name>
</trkpt>
<trkpt lat="48.987215" lon="8.660160">
<ele>322.5</ele>
<speed>4.8</speed>
<course>133.6</course>
<desc>Speed 4.8 km/h Distance 0.62 km</desc>
<time>2010-02-28T16:15:48.66</time>
<name>415</name>
</trkpt>
<trkpt lat="48.987207" lon="8.660173">
<ele>322.5</ele>
<speed>4.3</speed>
<course>146.8</course>
<desc>Speed 4.3 km/h Distance 0.62 km</desc>
<time>2010-02-28T16:15:49.67</time>
<name>416</name>
</trkpt>
<trkpt lat="48.987197" lon="8.660183">
<ele>323.5</ele>
<speed>4.1</speed>
<course>146.7</course>
<desc>Speed 4.1 km/h Distance 0.62 km</desc>
<time>2010-02-28T16:15:50.67</time>
<name>417</name>
</trkpt>
<trkpt lat="48.987185" lon="8.660195">
<ele>324.0</ele>
<speed>4.8</speed>
<course>199.4</course>
<desc>Speed 4.8 km/h Distance 0.62 km</desc>
<time>2010-02-28T16:15:51.66</time>
<name>418</name>
</trkpt>
<trkpt lat="48.987163" lon="8.660183">
<ele>325.5</ele>
<speed>9.5</speed>
<course>119.0</course>
<desc>Speed 9.5 km/h Distance 0.63 km</desc>
<time>2010-02-28T16:15:52.66</time>
<name>419</name>
</trkpt>
<trkpt lat="48.987157" lon="8.660202">
<ele>326.5</ele>
<speed>5.0</speed>
<course>141.6</course>
<desc>Speed 5.0 km/h Distance 0.63 km</desc>
<time>2010-02-28T16:15:53.66</time>
<name>420</name>
</trkpt>
<trkpt lat="48.987148" lon="8.660212">
<ele>327.0</ele>
<speed>4.6</speed>
<course>142.5</course>
<desc>Speed 4.6 km/h Distance 0.63 km</desc>
<time>2010-02-28T16:15:54.66</time>
<name>421</name>
</trkpt>
<trkpt lat="48.987138" lon="8.660223">
<ele>327.5</ele>
<speed>4.6</speed>
<course>135.5</course>
<desc>Speed 4.6 km/h Distance 0.63 km</desc>
<time>2010-02-28T16:15:55.67</time>
<name>422</name>
</trkpt>
<trkpt lat="48.987132" lon="8.660233">
<ele>328.0</ele>
<speed>3.9</speed>
<course>131.1</course>
<desc>Speed 3.9 km/h Distance 0.63 km</desc>
<time>2010-02-28T16:15:56.66</time>
<name>423</name>
</trkpt>
<trkpt lat="48.987125" lon="8.660245">
<ele>328.0</ele>
<speed>3.5</speed>
<course>138.8</course>
<desc>Speed 3.5 km/h Distance 0.63 km</desc>
<time>2010-02-28T16:15:57.66</time>
<name>424</name>
</trkpt>
<trkpt lat="48.987115" lon="8.660258">
<ele>327.5</ele>
<speed>4.9</speed>
<course>137.4</course>
<desc>Speed 4.9 km/h Distance 0.63 km</desc>
<time>2010-02-28T16:15:58.66</time>
<name>425</name>
</trkpt>
<trkpt lat="48.987107" lon="8.660270">
<ele>327.5</ele>
<speed>4.2</speed>
<course>135.4</course>
<desc>Speed 4.2 km/h Distance 0.63 km</desc>
<time>2010-02-28T16:15:59.66</time>
<name>426</name>
</trkpt>
<trkpt lat="48.987097" lon="8.660285">
<ele>327.5</ele>
<speed>5.2</speed>
<course>130.3</course>
<desc>Speed 5.2 km/h Distance 0.64 km</desc>
<time>2010-02-28T16:16:00.65</time>
<name>427</name>
</trkpt>
<trkpt lat="48.987088" lon="8.660300">
<ele>327.5</ele>
<speed>4.8</speed>
<course>142.5</course>
<desc>Speed 4.8 km/h Distance 0.64 km</desc>
<time>2010-02-28T16:16:01.66</time>
<name>428</name>
</trkpt>
<trkpt lat="48.987078" lon="8.660312">
<ele>328.0</ele>
<speed>4.9</speed>
<course>138.8</course>
<desc>Speed 4.9 km/h Distance 0.64 km</desc>
<time>2010-02-28T16:16:02.66</time>
<name>429</name>
</trkpt>
<trkpt lat="48.987068" lon="8.660325">
<ele>328.0</ele>
<speed>4.6</speed>
<course>124.7</course>
<desc>Speed 4.6 km/h Distance 0.64 km</desc>
<time>2010-02-28T16:16:03.66</time>
<name>430</name>
</trkpt>
<trkpt lat="48.987060" lon="8.660343">
<ele>328.5</ele>
<speed>4.7</speed>
<course>132.5</course>
<desc>Speed 4.7 km/h Distance 0.64 km</desc>
<time>2010-02-28T16:16:04.65</time>
<name>431</name>
</trkpt>
<trkpt lat="48.987050" lon="8.660360">
<ele>328.5</ele>
<speed>4.5</speed>
<course>118.6</course>
<desc>Speed 4.5 km/h Distance 0.64 km</desc>
<time>2010-02-28T16:16:05.66</time>
<name>432</name>
</trkpt>
<trkpt lat="48.987042" lon="8.660383">
<ele>328.0</ele>
<speed>4.5</speed>
<course>110.8</course>
<desc>Speed 4.5 km/h Distance 0.65 km</desc>
<time>2010-02-28T16:16:06.65</time>
<name>433</name>
</trkpt>
<trkpt lat="48.987035" lon="8.660410">
<ele>327.5</ele>
<speed>4.4</speed>
<course>130.3</course>
<desc>Speed 4.4 km/h Distance 0.65 km</desc>
<time>2010-02-28T16:16:07.65</time>
<name>434</name>
</trkpt>
<trkpt lat="48.987027" lon="8.660425">
<ele>327.0</ele>
<speed>4.7</speed>
<course>135.5</course>
<desc>Speed 4.7 km/h Distance 0.65 km</desc>
<time>2010-02-28T16:16:08.65</time>
<name>435</name>
</trkpt>
<trkpt lat="48.987017" lon="8.660440">
<ele>327.0</ele>
<speed>5.0</speed>
<course>137.4</course>
<desc>Speed 5.0 km/h Distance 0.65 km</desc>
<time>2010-02-28T16:16:09.66</time>
<name>436</name>
</trkpt>
<trkpt lat="48.987008" lon="8.660452">
<ele>327.0</ele>
<speed>4.4</speed>
<course>124.7</course>
<desc>Speed 4.4 km/h Distance 0.65 km</desc>
<time>2010-02-28T16:16:10.67</time>
<name>437</name>
</trkpt>
<trkpt lat="48.987000" lon="8.660470">
<ele>326.0</ele>
<speed>4.2</speed>
<course>116.9</course>
<desc>Speed 4.2 km/h Distance 0.65 km</desc>
<time>2010-02-28T16:16:11.66</time>
<name>438</name>
</trkpt>
<trkpt lat="48.986993" lon="8.660490">
<ele>325.0</ele>
<speed>3.9</speed>
<course>127.3</course>
<desc>Speed 3.9 km/h Distance 0.65 km</desc>
<time>2010-02-28T16:16:12.66</time>
<name>439</name>
</trkpt>
<trkpt lat="48.986987" lon="8.660503">
<ele>324.5</ele>
<speed>4.3</speed>
<course>146.8</course>
<desc>Speed 4.3 km/h Distance 0.66 km</desc>
<time>2010-02-28T16:16:13.66</time>
<name>440</name>
</trkpt>
<trkpt lat="48.986977" lon="8.660513">
<ele>324.5</ele>
<speed>4.1</speed>
<course>141.6</course>
<desc>Speed 4.1 km/h Distance 0.66 km</desc>
<time>2010-02-28T16:16:14.66</time>
<name>441</name>
</trkpt>
<trkpt lat="48.986968" lon="8.660523">
<ele>324.0</ele>
<speed>3.9</speed>
<course>138.8</course>
<desc>Speed 3.9 km/h Distance 0.66 km</desc>
<time>2010-02-28T16:16:15.66</time>
<name>442</name>
</trkpt>
<trkpt lat="48.986958" lon="8.660537">
<ele>324.0</ele>
<speed>4.5</speed>
<course>136.9</course>
<desc>Speed 4.5 km/h Distance 0.66 km</desc>
<time>2010-02-28T16:16:16.66</time>
<name>443</name>
</trkpt>
<trkpt lat="48.986947" lon="8.660553">
<ele>324.0</ele>
<speed>4.8</speed>
<course>138.8</course>
<desc>Speed 4.8 km/h Distance 0.66 km</desc>
<time>2010-02-28T16:16:17.69</time>
<name>444</name>
</trkpt>
<trkpt lat="48.986937" lon="8.660567">
<ele>323.0</ele>
<speed>4.6</speed>
<course>143.1</course>
<desc>Speed 4.6 km/h Distance 0.66 km</desc>
<time>2010-02-28T16:16:18.66</time>
<name>445</name>
</trkpt>
<trkpt lat="48.986925" lon="8.660580">
<ele>322.5</ele>
<speed>4.8</speed>
<course>137.5</course>
<desc>Speed 4.8 km/h Distance 0.66 km</desc>
<time>2010-02-28T16:16:19.66</time>
<name>446</name>
</trkpt>
<trkpt lat="48.986917" lon="8.660592">
<ele>322.0</ele>
<speed>4.3</speed>
<course>137.5</course>
<desc>Speed 4.3 km/h Distance 0.67 km</desc>
<time>2010-02-28T16:16:20.65</time>
<name>447</name>
</trkpt>
<trkpt lat="48.986908" lon="8.660603">
<ele>321.5</ele>
<speed>4.0</speed>
<course>138.8</course>
<desc>Speed 4.0 km/h Distance 0.67 km</desc>
<time>2010-02-28T16:16:21.65</time>
<name>448</name>
</trkpt>
<trkpt lat="48.986898" lon="8.660617">
<ele>321.5</ele>
<speed>4.1</speed>
<course>116.9</course>
<desc>Speed 4.1 km/h Distance 0.67 km</desc>
<time>2010-02-28T16:16:22.65</time>
<name>449</name>
</trkpt>
<trkpt lat="48.986892" lon="8.660637">
<ele>321.5</ele>
<speed>3.5</speed>
<course>120.4</course>
<desc>Speed 3.5 km/h Distance 0.67 km</desc>
<time>2010-02-28T16:16:23.65</time>
<name>450</name>
</trkpt>
<trkpt lat="48.986883" lon="8.660658">
<ele>320.0</ele>
<speed>4.1</speed>
<course>132.6</course>
<desc>Speed 4.1 km/h Distance 0.67 km</desc>
<time>2010-02-28T16:16:24.65</time>
<name>451</name>
</trkpt>
<trkpt lat="48.986873" lon="8.660675">
<ele>319.5</ele>
<speed>4.5</speed>
<course>138.8</course>
<desc>Speed 4.5 km/h Distance 0.67 km</desc>
<time>2010-02-28T16:16:25.65</time>
<name>452</name>
</trkpt>
<trkpt lat="48.986863" lon="8.660688">
<ele>320.0</ele>
<speed>3.7</speed>
<course>151.4</course>
<desc>Speed 3.7 km/h Distance 0.68 km</desc>
<time>2010-02-28T16:16:26.65</time>
<name>453</name>
</trkpt>
<trkpt lat="48.986853" lon="8.660697">
<ele>320.5</ele>
<speed>4.0</speed>
<course>133.6</course>
<desc>Speed 4.0 km/h Distance 0.68 km</desc>
<time>2010-02-28T16:16:27.65</time>
<name>454</name>
</trkpt>
<trkpt lat="48.986845" lon="8.660710">
<ele>321.5</ele>
<speed>4.1</speed>
<course>139.9</course>
<desc>Speed 4.1 km/h Distance 0.68 km</desc>
<time>2010-02-28T16:16:28.65</time>
<name>455</name>
</trkpt>
<trkpt lat="48.986833" lon="8.660725">
<ele>322.0</ele>
<speed>5.6</speed>
<course>132.6</course>
<desc>Speed 5.6 km/h Distance 0.68 km</desc>
<time>2010-02-28T16:16:29.65</time>
<name>456</name>
</trkpt>
<trkpt lat="48.986823" lon="8.660742">
<ele>322.5</ele>
<speed>4.9</speed>
<course>132.6</course>
<desc>Speed 4.9 km/h Distance 0.68 km</desc>
<time>2010-02-28T16:16:30.65</time>
<name>457</name>
</trkpt>
<trkpt lat="48.986813" lon="8.660758">
<ele>322.5</ele>
<speed>4.1</speed>
<course>129.8</course>
<desc>Speed 4.1 km/h Distance 0.68 km</desc>
<time>2010-02-28T16:16:31.65</time>
<name>458</name>
</trkpt>
<trkpt lat="48.986803" lon="8.660777">
<ele>322.5</ele>
<speed>4.9</speed>
<course>140.7</course>
<desc>Speed 4.9 km/h Distance 0.68 km</desc>
<time>2010-02-28T16:16:32.65</time>
<name>459</name>
</trkpt>
<trkpt lat="48.986790" lon="8.660793">
<ele>322.5</ele>
<speed>4.7</speed>
<course>146.7</course>
<desc>Speed 4.7 km/h Distance 0.69 km</desc>
<time>2010-02-28T16:16:33.65</time>
<name>460</name>
</trkpt>
<trkpt lat="48.986778" lon="8.660805">
<ele>322.5</ele>
<speed>4.3</speed>
<course>155.1</course>
<desc>Speed 4.3 km/h Distance 0.69 km</desc>
<time>2010-02-28T16:16:34.64</time>
<name>461</name>
</trkpt>
<trkpt lat="48.986767" lon="8.660813">
<ele>323.0</ele>
<speed>3.3</speed>
<course>135.5</course>
<desc>Speed 3.3 km/h Distance 0.69 km</desc>
<time>2010-02-28T16:16:35.65</time>
<name>462</name>
</trkpt>
<trkpt lat="48.986757" lon="8.660828">
<ele>323.0</ele>
<speed>4.0</speed>
<course>132.5</course>
<desc>Speed 4.0 km/h Distance 0.69 km</desc>
<time>2010-02-28T16:16:36.64</time>
<name>463</name>
</trkpt>
<trkpt lat="48.986747" lon="8.660845">
<ele>323.5</ele>
<speed>4.0</speed>
<course>146.8</course>
<desc>Speed 4.0 km/h Distance 0.69 km</desc>
<time>2010-02-28T16:16:37.65</time>
<name>464</name>
</trkpt>
<trkpt lat="48.986737" lon="8.660855">
<ele>324.0</ele>
<speed>3.3</speed>
<course>135.5</course>
<desc>Speed 3.3 km/h Distance 0.69 km</desc>
<time>2010-02-28T16:16:38.64</time>
<name>465</name>
</trkpt>
<trkpt lat="48.986727" lon="8.660870">
<ele>324.5</ele>
<speed>4.3</speed>
<course>129.7</course>
<desc>Speed 4.3 km/h Distance 0.70 km</desc>
<time>2010-02-28T16:16:39.64</time>
<name>466</name>
</trkpt>
<trkpt lat="48.986717" lon="8.660888">
<ele>324.0</ele>
<speed>4.9</speed>
<course>146.8</course>
<desc>Speed 4.9 km/h Distance 0.70 km</desc>
<time>2010-02-28T16:16:40.65</time>
<name>467</name>
</trkpt>
<trkpt lat="48.986707" lon="8.660898">
<ele>324.5</ele>
<speed>4.4</speed>
<course>118.5</course>
<desc>Speed 4.4 km/h Distance 0.70 km</desc>
<time>2010-02-28T16:16:41.64</time>
<name>468</name>
</trkpt>
<trkpt lat="48.986698" lon="8.660922">
<ele>324.0</ele>
<speed>4.7</speed>
<course>123.1</course>
<desc>Speed 4.7 km/h Distance 0.70 km</desc>
<time>2010-02-28T16:16:42.65</time>
<name>469</name>
</trkpt>
<trkpt lat="48.986688" lon="8.660945">
<ele>323.0</ele>
<speed>5.4</speed>
<course>137.4</course>
<desc>Speed 5.4 km/h Distance 0.70 km</desc>
<time>2010-02-28T16:16:43.64</time>
<name>470</name>
</trkpt>
<trkpt lat="48.986680" lon="8.660957">
<ele>322.5</ele>
<speed>4.2</speed>
<course>137.4</course>
<desc>Speed 4.2 km/h Distance 0.70 km</desc>
<time>2010-02-28T16:16:44.65</time>
<name>471</name>
</trkpt>
<trkpt lat="48.986672" lon="8.660968">
<ele>322.5</ele>
<speed>4.4</speed>
<course>139.8</course>
<desc>Speed 4.4 km/h Distance 0.71 km</desc>
<time>2010-02-28T16:16:45.64</time>
<name>472</name>
</trkpt>
<trkpt lat="48.986660" lon="8.660983">
<ele>322.0</ele>
<speed>5.0</speed>
<course>143.1</course>
<desc>Speed 5.0 km/h Distance 0.71 km</desc>
<time>2010-02-28T16:16:46.64</time>
<name>473</name>
</trkpt>
<trkpt lat="48.986648" lon="8.660997">
<ele>322.5</ele>
<speed>4.9</speed>
<course>136.9</course>
<desc>Speed 4.9 km/h Distance 0.71 km</desc>
<time>2010-02-28T16:16:47.63</time>
<name>474</name>
</trkpt>
<trkpt lat="48.986637" lon="8.661013">
<ele>322.0</ele>
<speed>5.0</speed>
<course>132.5</course>
<desc>Speed 5.0 km/h Distance 0.71 km</desc>
<time>2010-02-28T16:16:48.65</time>
<name>475</name>
</trkpt>
<trkpt lat="48.986627" lon="8.661030">
<ele>322.0</ele>
<speed>4.5</speed>
<course>136.9</course>
<desc>Speed 4.5 km/h Distance 0.71 km</desc>
<time>2010-02-28T16:16:49.64</time>
<name>476</name>
</trkpt>
<trkpt lat="48.986615" lon="8.661047">
<ele>322.0</ele>
<speed>4.5</speed>
<course>139.8</course>
<desc>Speed 4.5 km/h Distance 0.71 km</desc>
<time>2010-02-28T16:16:50.65</time>
<name>477</name>
</trkpt>
<trkpt lat="48.986603" lon="8.661062">
<ele>321.5</ele>
<speed>5.1</speed>
<course>136.8</course>
<desc>Speed 5.1 km/h Distance 0.72 km</desc>
<time>2010-02-28T16:16:51.64</time>
<name>478</name>
</trkpt>
<trkpt lat="48.986592" lon="8.661078">
<ele>321.0</ele>
<speed>4.9</speed>
<course>140.6</course>
<desc>Speed 4.9 km/h Distance 0.72 km</desc>
<time>2010-02-28T16:16:52.64</time>
<name>479</name>
</trkpt>
<trkpt lat="48.986578" lon="8.661095">
<ele>320.5</ele>
<speed>5.1</speed>
<course>143.1</course>
<desc>Speed 5.1 km/h Distance 0.72 km</desc>
<time>2010-02-28T16:16:53.64</time>
<name>480</name>
</trkpt>
<trkpt lat="48.986567" lon="8.661108">
<ele>320.5</ele>
<speed>5.3</speed>
<course>143.5</course>
<desc>Speed 5.3 km/h Distance 0.72 km</desc>
<time>2010-02-28T16:16:54.64</time>
<name>481</name>
</trkpt>
<trkpt lat="48.986553" lon="8.661123">
<ele>320.5</ele>
<speed>5.7</speed>
<course>139.8</course>
<desc>Speed 5.7 km/h Distance 0.72 km</desc>
<time>2010-02-28T16:16:55.64</time>
<name>482</name>
</trkpt>
<trkpt lat="48.986542" lon="8.661138">
<ele>320.5</ele>
<speed>4.6</speed>
<course>139.8</course>
<desc>Speed 4.6 km/h Distance 0.72 km</desc>
<time>2010-02-28T16:16:56.64</time>
<name>483</name>
</trkpt>
<trkpt lat="48.986530" lon="8.661153">
<ele>319.5</ele>
<speed>4.5</speed>
<course>136.5</course>
<desc>Speed 4.5 km/h Distance 0.73 km</desc>
<time>2010-02-28T16:16:57.64</time>
<name>484</name>
</trkpt>
<trkpt lat="48.986515" lon="8.661175">
<ele>320.5</ele>
<speed>4.6</speed>
<course>135.5</course>
<desc>Speed 4.6 km/h Distance 0.73 km</desc>
<time>2010-02-28T16:16:58.64</time>
<name>485</name>
</trkpt>
<trkpt lat="48.986505" lon="8.661190">
<ele>320.0</ele>
<speed>3.9</speed>
<course>133.6</course>
<desc>Speed 3.9 km/h Distance 0.73 km</desc>
<time>2010-02-28T16:16:59.64</time>
<name>486</name>
</trkpt>
<trkpt lat="48.986497" lon="8.661203">
<ele>319.0</ele>
<speed>3.9</speed>
<course>146.7</course>
<desc>Speed 3.9 km/h Distance 0.73 km</desc>
<time>2010-02-28T16:17:00.64</time>
<name>487</name>
</trkpt>
<trkpt lat="48.986485" lon="8.661215">
<ele>319.0</ele>
<speed>4.8</speed>
<course>143.1</course>
<desc>Speed 4.8 km/h Distance 0.73 km</desc>
<time>2010-02-28T16:17:01.64</time>
<name>488</name>
</trkpt>
<trkpt lat="48.986473" lon="8.661228">
<ele>319.0</ele>
<speed>5.0</speed>
<course>143.2</course>
<desc>Speed 5.0 km/h Distance 0.73 km</desc>
<time>2010-02-28T16:17:02.64</time>
<name>489</name>
</trkpt>
<trkpt lat="48.986462" lon="8.661242">
<ele>319.0</ele>
<speed>4.4</speed>
<course>131.9</course>
<desc>Speed 4.4 km/h Distance 0.74 km</desc>
<time>2010-02-28T16:17:03.64</time>
<name>490</name>
</trkpt>
<trkpt lat="48.986445" lon="8.661270">
<ele>319.5</ele>
<speed>4.7</speed>
<course>143.5</course>
<desc>Speed 4.7 km/h Distance 0.74 km</desc>
<time>2010-02-28T16:17:04.63</time>
<name>491</name>
</trkpt>
<trkpt lat="48.986432" lon="8.661285">
<ele>319.5</ele>
<speed>4.9</speed>
<course>151.4</course>
<desc>Speed 4.9 km/h Distance 0.74 km</desc>
<time>2010-02-28T16:17:05.63</time>
<name>492</name>
</trkpt>
<trkpt lat="48.986422" lon="8.661293">
<ele>319.5</ele>
<speed>4.5</speed>
<course>146.7</course>
<desc>Speed 4.5 km/h Distance 0.74 km</desc>
<time>2010-02-28T16:17:06.63</time>
<name>493</name>
</trkpt>
<trkpt lat="48.986410" lon="8.661305">
<ele>318.5</ele>
<speed>5.3</speed>
<course>137.2</course>
<desc>Speed 5.3 km/h Distance 0.74 km</desc>
<time>2010-02-28T16:17:07.63</time>
<name>494</name>
</trkpt>
<trkpt lat="48.986402" lon="8.661317">
<ele>318.5</ele>
<speed>3.7</speed>
<course>159.1</course>
<desc>Speed 3.7 km/h Distance 0.75 km</desc>
<time>2010-02-28T16:17:08.63</time>
<name>495</name>
</trkpt>
<trkpt lat="48.986390" lon="8.661323">
<ele>318.5</ele>
<speed>3.9</speed>
<course>146.8</course>
<desc>Speed 3.9 km/h Distance 0.75 km</desc>
<time>2010-02-28T16:17:09.63</time>
<name>496</name>
</trkpt>
<trkpt lat="48.986380" lon="8.661333">
<ele>318.5</ele>
<speed>4.7</speed>
<course>154.8</course>
<desc>Speed 4.7 km/h Distance 0.75 km</desc>
<time>2010-02-28T16:17:10.64</time>
<name>497</name>
</trkpt>
<trkpt lat="48.986368" lon="8.661342">
<ele>318.0</ele>
<speed>4.4</speed>
<course>159.1</course>
<desc>Speed 4.4 km/h Distance 0.75 km</desc>
<time>2010-02-28T16:17:11.63</time>
<name>498</name>
</trkpt>
<trkpt lat="48.986357" lon="8.661348">
<ele>317.5</ele>
<speed>4.1</speed>
<course>139.8</course>
<desc>Speed 4.1 km/h Distance 0.75 km</desc>
<time>2010-02-28T16:17:12.63</time>
<name>499</name>
</trkpt>
<trkpt lat="48.986345" lon="8.661363">
<ele>316.5</ele>
<speed>4.9</speed>
<course>142.5</course>
<desc>Speed 4.9 km/h Distance 0.75 km</desc>
<time>2010-02-28T16:17:13.63</time>
<name>500</name>
</trkpt>
<trkpt lat="48.986335" lon="8.661375">
<ele>315.5</ele>
<speed>4.4</speed>
<course>146.6</course>
<desc>Speed 4.4 km/h Distance 0.75 km</desc>
<time>2010-02-28T16:17:14.63</time>
<name>501</name>
</trkpt>
<trkpt lat="48.986323" lon="8.661387">
<ele>315.0</ele>
<speed>5.0</speed>
<course>143.1</course>
<desc>Speed 5.0 km/h Distance 0.76 km</desc>
<time>2010-02-28T16:17:15.63</time>
<name>502</name>
</trkpt>
<trkpt lat="48.986312" lon="8.661400">
<ele>315.0</ele>
<speed>5.1</speed>
<course>138.8</course>
<desc>Speed 5.1 km/h Distance 0.76 km</desc>
<time>2010-02-28T16:17:16.63</time>
<name>503</name>
</trkpt>
<trkpt lat="48.986302" lon="8.661413">
<ele>315.0</ele>
<speed>4.6</speed>
<course>138.8</course>
<desc>Speed 4.6 km/h Distance 0.76 km</desc>
<time>2010-02-28T16:17:17.63</time>
<name>504</name>
</trkpt>
<trkpt lat="48.986292" lon="8.661427">
<ele>315.0</ele>
<speed>4.2</speed>
<course>138.8</course>
<desc>Speed 4.2 km/h Distance 0.76 km</desc>
<time>2010-02-28T16:17:18.63</time>
<name>505</name>
</trkpt>
<trkpt lat="48.986282" lon="8.661440">
<ele>315.5</ele>
<speed>4.3</speed>
<course>139.8</course>
<desc>Speed 4.3 km/h Distance 0.76 km</desc>
<time>2010-02-28T16:17:19.63</time>
<name>506</name>
</trkpt>
<trkpt lat="48.986270" lon="8.661455">
<ele>315.5</ele>
<speed>4.5</speed>
<course>139.8</course>
<desc>Speed 4.5 km/h Distance 0.76 km</desc>
<time>2010-02-28T16:17:20.63</time>
<name>507</name>
</trkpt>
<trkpt lat="48.986258" lon="8.661470">
<ele>315.5</ele>
<speed>4.5</speed>
<course>135.4</course>
<desc>Speed 4.5 km/h Distance 0.76 km</desc>
<time>2010-02-28T16:17:21.63</time>
<name>508</name>
</trkpt>
<trkpt lat="48.986248" lon="8.661485">
<ele>316.5</ele>
<speed>4.3</speed>
<course>161.9</course>
<desc>Speed 4.3 km/h Distance 0.77 km</desc>
<time>2010-02-28T16:17:22.63</time>
<name>509</name>
</trkpt>
<trkpt lat="48.986235" lon="8.661492">
<ele>317.0</ele>
<speed>5.0</speed>
<course>135.5</course>
<desc>Speed 5.0 km/h Distance 0.77 km</desc>
<time>2010-02-28T16:17:23.63</time>
<name>510</name>
</trkpt>
<trkpt lat="48.986225" lon="8.661507">
<ele>317.5</ele>
<speed>4.5</speed>
<course>135.5</course>
<desc>Speed 4.5 km/h Distance 0.77 km</desc>
<time>2010-02-28T16:17:24.63</time>
<name>511</name>
</trkpt>
<trkpt lat="48.986215" lon="8.661522">
<ele>317.0</ele>
<speed>4.3</speed>
<course>147.0</course>
<desc>Speed 4.3 km/h Distance 0.77 km</desc>
<time>2010-02-28T16:17:25.63</time>
<name>512</name>
</trkpt>
<trkpt lat="48.986205" lon="8.661532">
<ele>318.0</ele>
<speed>4.2</speed>
<course>154.8</course>
<desc>Speed 4.2 km/h Distance 0.77 km</desc>
<time>2010-02-28T16:17:26.63</time>
<name>513</name>
</trkpt>
<trkpt lat="48.986193" lon="8.661540">
<ele>318.5</ele>
<speed>4.3</speed>
<course>132.4</course>
<desc>Speed 4.3 km/h Distance 0.77 km</desc>
<time>2010-02-28T16:17:27.63</time>
<name>514</name>
</trkpt>
<trkpt lat="48.986183" lon="8.661557">
<ele>318.5</ele>
<speed>4.9</speed>
<course>135.5</course>
<desc>Speed 4.9 km/h Distance 0.78 km</desc>
<time>2010-02-28T16:17:28.63</time>
<name>515</name>
</trkpt>
<trkpt lat="48.986173" lon="8.661572">
<ele>319.0</ele>
<speed>4.8</speed>
<course>132.5</course>
<desc>Speed 4.8 km/h Distance 0.78 km</desc>
<time>2010-02-28T16:17:29.63</time>
<name>516</name>
</trkpt>
<trkpt lat="48.986163" lon="8.661588">
<ele>318.5</ele>
<speed>5.2</speed>
<course>127.3</course>
<desc>Speed 5.2 km/h Distance 0.78 km</desc>
<time>2010-02-28T16:17:30.62</time>
<name>517</name>
</trkpt>
<trkpt lat="48.986155" lon="8.661605">
<ele>319.5</ele>
<speed>4.1</speed>
<course>143.1</course>
<desc>Speed 4.1 km/h Distance 0.78 km</desc>
<time>2010-02-28T16:17:31.62</time>
<name>518</name>
</trkpt>
<trkpt lat="48.986143" lon="8.661618">
<ele>319.5</ele>
<speed>4.8</speed>
<course>140.6</course>
<desc>Speed 4.8 km/h Distance 0.78 km</desc>
<time>2010-02-28T16:17:32.63</time>
<name>519</name>
</trkpt>
<trkpt lat="48.986130" lon="8.661635">
<ele>319.5</ele>
<speed>5.3</speed>
<course>124.7</course>
<desc>Speed 5.3 km/h Distance 0.78 km</desc>
<time>2010-02-28T16:17:33.62</time>
<name>520</name>
</trkpt>
<trkpt lat="48.986122" lon="8.661653">
<ele>319.5</ele>
<speed>5.0</speed>
<course>127.3</course>
<desc>Speed 5.0 km/h Distance 0.79 km</desc>
<time>2010-02-28T16:17:34.62</time>
<name>521</name>
</trkpt>
<trkpt lat="48.986112" lon="8.661673">
<ele>319.0</ele>
<speed>5.2</speed>
<course>134.1</course>
<desc>Speed 5.2 km/h Distance 0.79 km</desc>
<time>2010-02-28T16:17:35.63</time>
<name>522</name>
</trkpt>
<trkpt lat="48.986100" lon="8.661692">
<ele>319.0</ele>
<speed>5.1</speed>
<course>134.1</course>
<desc>Speed 5.1 km/h Distance 0.79 km</desc>
<time>2010-02-28T16:17:36.62</time>
<name>523</name>
</trkpt>
<trkpt lat="48.986088" lon="8.661710">
<ele>318.5</ele>
<speed>5.2</speed>
<course>136.9</course>
<desc>Speed 5.2 km/h Distance 0.79 km</desc>
<time>2010-02-28T16:17:37.62</time>
<name>524</name>
</trkpt>
<trkpt lat="48.986077" lon="8.661727">
<ele>318.5</ele>
<speed>5.1</speed>
<course>136.8</course>
<desc>Speed 5.1 km/h Distance 0.79 km</desc>
<time>2010-02-28T16:17:38.62</time>
<name>525</name>
</trkpt>
<trkpt lat="48.986065" lon="8.661743">
<ele>318.5</ele>
<speed>5.0</speed>
<course>125.1</course>
<desc>Speed 5.0 km/h Distance 0.79 km</desc>
<time>2010-02-28T16:17:39.62</time>
<name>526</name>
</trkpt>
<trkpt lat="48.986055" lon="8.661765">
<ele>318.0</ele>
<speed>5.0</speed>
<course>123.6</course>
<desc>Speed 5.0 km/h Distance 0.80 km</desc>
<time>2010-02-28T16:17:40.62</time>
<name>527</name>
</trkpt>
<trkpt lat="48.986010" lon="8.661868">
<ele>318.0</ele>
<speed>4.0</speed>
<course>110.2</course>
<desc>Speed 4.0 km/h Distance 0.81 km</desc>
<time>2010-02-28T16:17:42.62</time>
<name>528</name>
</trkpt>
<trkpt lat="48.985998" lon="8.661917">
<ele>316.0</ele>
<speed>0.5</speed>
<course>108.7</course>
<desc>Speed 0.5 km/h Distance 0.81 km</desc>
<time>2010-02-28T16:17:44.62</time>
<name>529</name>
</trkpt>
<trkpt lat="48.985995" lon="8.661932">
<ele>315.0</ele>
<speed>0.2</speed>
<course>113.6</course>
<desc>Speed 0.2 km/h Distance 0.81 km</desc>
<time>2010-02-28T16:17:45.62</time>
<name>530</name>
</trkpt>
<trkpt lat="48.985992" lon="8.661943">
<ele>314.0</ele>
<speed>0.1</speed>
<course>119.7</course>
<desc>Speed 0.1 km/h Distance 0.81 km</desc>
<time>2010-02-28T16:17:46.62</time>
<name>531</name>
</trkpt>
<trkpt lat="48.985987" lon="8.661957">
<ele>313.5</ele>
<speed>0.3</speed>
<course>110.2</course>
<desc>Speed 0.3 km/h Distance 0.81 km</desc>
<time>2010-02-28T16:17:47.67</time>
<name>532</name>
</trkpt>
<trkpt lat="48.985985" lon="8.661963">
<ele>313.5</ele>
<speed>0.2</speed>
<course>142.8</course>
<desc>Speed 0.2 km/h Distance 0.81 km</desc>
<time>2010-02-28T16:17:48.62</time>
<name>533</name>
</trkpt>
<trkpt lat="48.985983" lon="8.661965">
<ele>313.5</ele>
<speed>0.3</speed>
<course>106.7</course>
<desc>Speed 0.3 km/h Distance 0.81 km</desc>
<time>2010-02-28T16:17:49.61</time>
<name>534</name>
</trkpt>
<trkpt lat="48.985982" lon="8.661973">
<ele>313.5</ele>
<speed>0.9</speed>
<course>146.8</course>
<desc>Speed 0.9 km/h Distance 0.81 km</desc>
<time>2010-02-28T16:17:50.62</time>
<name>535</name>
</trkpt>
<trkpt lat="48.985972" lon="8.661983">
<ele>314.0</ele>
<speed>2.7</speed>
<course>151.8</course>
<desc>Speed 2.7 km/h Distance 0.82 km</desc>
<time>2010-02-28T16:17:51.61</time>
<name>536</name>
</trkpt>
<trkpt lat="48.985953" lon="8.661998">
<ele>314.5</ele>
<speed>6.8</speed>
<course>131.6</course>
<desc>Speed 6.8 km/h Distance 0.82 km</desc>
<time>2010-02-28T16:17:52.61</time>
<name>537</name>
</trkpt>
<trkpt lat="48.985942" lon="8.662018">
<ele>314.5</ele>
<speed>4.7</speed>
<course>129.4</course>
<desc>Speed 4.7 km/h Distance 0.82 km</desc>
<time>2010-02-28T16:17:53.61</time>
<name>538</name>
</trkpt>
<trkpt lat="48.985930" lon="8.662040">
<ele>315.0</ele>
<speed>4.9</speed>
<course>129.4</course>
<desc>Speed 4.9 km/h Distance 0.82 km</desc>
<time>2010-02-28T16:17:54.62</time>
<name>539</name>
</trkpt>
<trkpt lat="48.985918" lon="8.662062">
<ele>316.0</ele>
<speed>5.1</speed>
<course>129.4</course>
<desc>Speed 5.1 km/h Distance 0.82 km</desc>
<time>2010-02-28T16:17:55.62</time>
<name>540</name>
</trkpt>
<trkpt lat="48.985907" lon="8.662083">
<ele>316.5</ele>
<speed>5.3</speed>
<course>131.6</course>
<desc>Speed 5.3 km/h Distance 0.83 km</desc>
<time>2010-02-28T16:17:56.62</time>
<name>541</name>
</trkpt>
<trkpt lat="48.985895" lon="8.662103">
<ele>317.0</ele>
<speed>5.1</speed>
<course>119.0</course>
<desc>Speed 5.1 km/h Distance 0.83 km</desc>
<time>2010-02-28T16:17:57.62</time>
<name>542</name>
</trkpt>
<trkpt lat="48.985888" lon="8.662122">
<ele>317.0</ele>
<speed>5.3</speed>
<course>119.0</course>
<desc>Speed 5.3 km/h Distance 0.83 km</desc>
<time>2010-02-28T16:17:58.61</time>
<name>543</name>
</trkpt>
<trkpt lat="48.985882" lon="8.662140">
<ele>316.5</ele>
<speed>5.2</speed>
<course>122.4</course>
<desc>Speed 5.2 km/h Distance 0.83 km</desc>
<time>2010-02-28T16:17:59.61</time>
<name>544</name>
</trkpt>
<trkpt lat="48.985873" lon="8.662160">
<ele>316.5</ele>
<speed>5.7</speed>
<course>127.4</course>
<desc>Speed 5.7 km/h Distance 0.83 km</desc>
<time>2010-02-28T16:18:00.60</time>
<name>545</name>
</trkpt>
<trkpt lat="48.985865" lon="8.662177">
<ele>316.5</ele>
<speed>5.4</speed>
<course>112.6</course>
<desc>Speed 5.4 km/h Distance 0.83 km</desc>
<time>2010-02-28T16:18:01.60</time>
<name>546</name>
</trkpt>
<trkpt lat="48.985860" lon="8.662195">
<ele>316.5</ele>
<speed>5.0</speed>
<course>116.9</course>
<desc>Speed 5.0 km/h Distance 0.84 km</desc>
<time>2010-02-28T16:18:02.60</time>
<name>547</name>
</trkpt>
<trkpt lat="48.985855" lon="8.662210">
<ele>317.0</ele>
<speed>4.6</speed>
<course>113.5</course>
<desc>Speed 4.6 km/h Distance 0.84 km</desc>
<time>2010-02-28T16:18:03.60</time>
<name>548</name>
</trkpt>
<trkpt lat="48.985848" lon="8.662233">
<ele>318.0</ele>
<speed>5.1</speed>
<course>121.4</course>
<desc>Speed 5.1 km/h Distance 0.84 km</desc>
<time>2010-02-28T16:18:04.60</time>
<name>549</name>
</trkpt>
<trkpt lat="48.985842" lon="8.662250">
<ele>318.0</ele>
<speed>5.0</speed>
<course>105.6</course>
<desc>Speed 5.0 km/h Distance 0.84 km</desc>
<time>2010-02-28T16:18:05.60</time>
<name>550</name>
</trkpt>
<trkpt lat="48.985838" lon="8.662268">
<ele>318.5</ele>
<speed>5.0</speed>
<course>112.5</course>
<desc>Speed 5.0 km/h Distance 0.84 km</desc>
<time>2010-02-28T16:18:06.60</time>
<name>551</name>
</trkpt>
<trkpt lat="48.985833" lon="8.662287">
<ele>318.5</ele>
<speed>5.5</speed>
<course>110.8</course>
<desc>Speed 5.5 km/h Distance 0.84 km</desc>
<time>2010-02-28T16:18:07.60</time>
<name>552</name>
</trkpt>
<trkpt lat="48.985828" lon="8.662307">
<ele>318.5</ele>
<speed>5.4</speed>
<course>104.2</course>
<desc>Speed 5.4 km/h Distance 0.84 km</desc>
<time>2010-02-28T16:18:08.60</time>
<name>553</name>
</trkpt>
<trkpt lat="48.985825" lon="8.662327">
<ele>319.0</ele>
<speed>5.2</speed>
<course>112.6</course>
<desc>Speed 5.2 km/h Distance 0.85 km</desc>
<time>2010-02-28T16:18:09.61</time>
<name>554</name>
</trkpt>
<trkpt lat="48.985820" lon="8.662345">
<ele>319.0</ele>
<speed>5.3</speed>
<course>114.6</course>
<desc>Speed 5.3 km/h Distance 0.85 km</desc>
<time>2010-02-28T16:18:10.62</time>
<name>555</name>
</trkpt>
<trkpt lat="48.985815" lon="8.662362">
<ele>319.5</ele>
<speed>4.9</speed>
<course>107.0</course>
<desc>Speed 4.9 km/h Distance 0.85 km</desc>
<time>2010-02-28T16:18:11.61</time>
<name>556</name>
</trkpt>
<trkpt lat="48.985812" lon="8.662378">
<ele>320.0</ele>
<speed>4.6</speed>
<course>104.2</course>
<desc>Speed 4.6 km/h Distance 0.85 km</desc>
<time>2010-02-28T16:18:12.60</time>
<name>557</name>
</trkpt>
<trkpt lat="48.985808" lon="8.662398">
<ele>320.5</ele>
<speed>5.3</speed>
<course>112.6</course>
<desc>Speed 5.3 km/h Distance 0.85 km</desc>
<time>2010-02-28T16:18:13.61</time>
<name>558</name>
</trkpt>
<trkpt lat="48.985803" lon="8.662417">
<ele>321.0</ele>
<speed>5.1</speed>
<course>106.9</course>
<desc>Speed 5.1 km/h Distance 0.85 km</desc>
<time>2010-02-28T16:18:14.61</time>
<name>559</name>
</trkpt>
<trkpt lat="48.985800" lon="8.662433">
<ele>321.0</ele>
<speed>4.4</speed>
<course>97.9</course>
<desc>Speed 4.4 km/h Distance 0.85 km</desc>
<time>2010-02-28T16:18:15.61</time>
<name>560</name>
</trkpt>
<trkpt lat="48.985798" lon="8.662452">
<ele>321.0</ele>
<speed>5.2</speed>
<course>112.6</course>
<desc>Speed 5.2 km/h Distance 0.86 km</desc>
<time>2010-02-28T16:18:16.61</time>
<name>561</name>
</trkpt>
<trkpt lat="48.985793" lon="8.662470">
<ele>321.5</ele>
<speed>5.0</speed>
<course>102.3</course>
<desc>Speed 5.0 km/h Distance 0.86 km</desc>
<time>2010-02-28T16:18:17.60</time>
<name>562</name>
</trkpt>
<trkpt lat="48.985790" lon="8.662493">
<ele>321.5</ele>
<speed>5.0</speed>
<course>97.9</course>
<desc>Speed 5.0 km/h Distance 0.86 km</desc>
<time>2010-02-28T16:18:18.60</time>
<name>563</name>
</trkpt>
<trkpt lat="48.985788" lon="8.662512">
<ele>321.5</ele>
<speed>4.6</speed>
<course>103.2</course>
<desc>Speed 4.6 km/h Distance 0.86 km</desc>
<time>2010-02-28T16:18:19.60</time>
<name>564</name>
</trkpt>
<trkpt lat="48.985785" lon="8.662533">
<ele>321.5</ele>
<speed>5.6</speed>
<course>96.7</course>
<desc>Speed 5.6 km/h Distance 0.86 km</desc>
<time>2010-02-28T16:18:20.61</time>
<name>565</name>
</trkpt>
<trkpt lat="48.985783" lon="8.662555">
<ele>321.0</ele>
<speed>5.4</speed>
<course>105.5</course>
<desc>Speed 5.4 km/h Distance 0.86 km</desc>
<time>2010-02-28T16:18:21.61</time>
<name>566</name>
</trkpt>
<trkpt lat="48.985780" lon="8.662573">
<ele>321.5</ele>
<speed>4.9</speed>
<course>105.5</course>
<desc>Speed 4.9 km/h Distance 0.86 km</desc>
<time>2010-02-28T16:18:22.61</time>
<name>567</name>
</trkpt>
<trkpt lat="48.985777" lon="8.662592">
<ele>322.0</ele>
<speed>5.0</speed>
<course>97.9</course>
<desc>Speed 5.0 km/h Distance 0.87 km</desc>
<time>2010-02-28T16:18:23.61</time>
<name>568</name>
</trkpt>
<trkpt lat="48.985775" lon="8.662610">
<ele>322.5</ele>
<speed>4.7</speed>
<course>110.8</course>
<desc>Speed 4.7 km/h Distance 0.87 km</desc>
<time>2010-02-28T16:18:24.60</time>
<name>569</name>
</trkpt>
<trkpt lat="48.985770" lon="8.662630">
<ele>322.5</ele>
<speed>4.8</speed>
<course>102.3</course>
<desc>Speed 4.8 km/h Distance 0.87 km</desc>
<time>2010-02-28T16:18:25.60</time>
<name>570</name>
</trkpt>
<trkpt lat="48.985767" lon="8.662653">
<ele>322.5</ele>
<speed>5.1</speed>
<course>97.2</course>
<desc>Speed 5.1 km/h Distance 0.87 km</desc>
<time>2010-02-28T16:18:26.60</time>
<name>571</name>
</trkpt>
<trkpt lat="48.985765" lon="8.662673">
<ele>323.0</ele>
<speed>5.7</speed>
<course>105.5</course>
<desc>Speed 5.7 km/h Distance 0.87 km</desc>
<time>2010-02-28T16:18:27.60</time>
<name>572</name>
</trkpt>
<trkpt lat="48.985762" lon="8.662692">
<ele>323.0</ele>
<speed>5.1</speed>
<course>103.2</course>
<desc>Speed 5.1 km/h Distance 0.87 km</desc>
<time>2010-02-28T16:18:28.60</time>
<name>573</name>
</trkpt>
<trkpt lat="48.985758" lon="8.662713">
<ele>323.0</ele>
<speed>5.4</speed>
<course>90.0</course>
<desc>Speed 5.4 km/h Distance 0.87 km</desc>
<time>2010-02-28T16:18:29.59</time>
<name>574</name>
</trkpt>
<trkpt lat="48.985758" lon="8.662730">
<ele>323.0</ele>
<speed>4.7</speed>
<course>90.0</course>
<desc>Speed 4.7 km/h Distance 0.88 km</desc>
<time>2010-02-28T16:18:30.60</time>
<name>575</name>
</trkpt>
<trkpt lat="48.985758" lon="8.662747">
<ele>323.0</ele>
<speed>4.4</speed>
<course>90.0</course>
<desc>Speed 4.4 km/h Distance 0.88 km</desc>
<time>2010-02-28T16:18:31.60</time>
<name>576</name>
</trkpt>
<trkpt lat="48.985758" lon="8.662765">
<ele>323.0</ele>
<speed>4.5</speed>
<course>71.3</course>
<desc>Speed 4.5 km/h Distance 0.88 km</desc>
<time>2010-02-28T16:18:32.61</time>
<name>577</name>
</trkpt>
<trkpt lat="48.985762" lon="8.662780">
<ele>323.0</ele>
<speed>3.5</speed>
<course>104.2</course>
<desc>Speed 3.5 km/h Distance 0.88 km</desc>
<time>2010-02-28T16:18:33.60</time>
<name>578</name>
</trkpt>
<trkpt lat="48.985758" lon="8.662800">
<ele>323.0</ele>
<speed>4.8</speed>
<course>90.0</course>
<desc>Speed 4.8 km/h Distance 0.88 km</desc>
<time>2010-02-28T16:18:34.59</time>
<name>579</name>
</trkpt>
<trkpt lat="48.985758" lon="8.662818">
<ele>323.0</ele>
<speed>4.5</speed>
<course>90.0</course>
<desc>Speed 4.5 km/h Distance 0.88 km</desc>
<time>2010-02-28T16:18:35.59</time>
<name>580</name>
</trkpt>
<trkpt lat="48.985758" lon="8.662837">
<ele>323.0</ele>
<speed>4.3</speed>
<course>97.2</course>
<desc>Speed 4.3 km/h Distance 0.88 km</desc>
<time>2010-02-28T16:18:36.59</time>
<name>581</name>
</trkpt>
<trkpt lat="48.985757" lon="8.662857">
<ele>322.5</ele>
<speed>4.8</speed>
<course>97.2</course>
<desc>Speed 4.8 km/h Distance 0.89 km</desc>
<time>2010-02-28T16:18:37.60</time>
<name>582</name>
</trkpt>
<trkpt lat="48.985755" lon="8.662877">
<ele>322.5</ele>
<speed>4.5</speed>
<course>90.0</course>
<desc>Speed 4.5 km/h Distance 0.89 km</desc>
<time>2010-02-28T16:18:38.59</time>
<name>583</name>
</trkpt>
<trkpt lat="48.985755" lon="8.662897">
<ele>322.5</ele>
<speed>4.6</speed>
<course>90.0</course>
<desc>Speed 4.6 km/h Distance 0.89 km</desc>
<time>2010-02-28T16:18:39.60</time>
<name>584</name>
</trkpt>
<trkpt lat="48.985755" lon="8.662918">
<ele>322.5</ele>
<speed>4.6</speed>
<course>105.5</course>
<desc>Speed 4.6 km/h Distance 0.89 km</desc>
<time>2010-02-28T16:18:40.60</time>
<name>585</name>
</trkpt>
<trkpt lat="48.985752" lon="8.662937">
<ele>322.0</ele>
<speed>4.4</speed>
<course>97.9</course>
<desc>Speed 4.4 km/h Distance 0.89 km</desc>
<time>2010-02-28T16:18:41.60</time>
<name>586</name>
</trkpt>
<trkpt lat="48.985750" lon="8.662955">
<ele>321.5</ele>
<speed>4.4</speed>
<course>90.0</course>
<desc>Speed 4.4 km/h Distance 0.89 km</desc>
<time>2010-02-28T16:18:42.60</time>
<name>587</name>
</trkpt>
<trkpt lat="48.985750" lon="8.662973">
<ele>320.5</ele>
<speed>4.0</speed>
<course>97.9</course>
<desc>Speed 4.0 km/h Distance 0.89 km</desc>
<time>2010-02-28T16:18:43.60</time>
<name>588</name>
</trkpt>
<trkpt lat="48.985748" lon="8.662992">
<ele>321.0</ele>
<speed>4.9</speed>
<course>97.2</course>
<desc>Speed 4.9 km/h Distance 0.90 km</desc>
<time>2010-02-28T16:18:44.60</time>
<name>589</name>
</trkpt>
<trkpt lat="48.985747" lon="8.663012">
<ele>321.5</ele>
<speed>4.8</speed>
<course>90.0</course>
<desc>Speed 4.8 km/h Distance 0.90 km</desc>
<time>2010-02-28T16:18:45.60</time>
<name>590</name>
</trkpt>
<trkpt lat="48.985747" lon="8.663032">
<ele>321.0</ele>
<speed>4.4</speed>
<course>97.2</course>
<desc>Speed 4.4 km/h Distance 0.90 km</desc>
<time>2010-02-28T16:18:46.60</time>
<name>591</name>
</trkpt>
<trkpt lat="48.985745" lon="8.663052">
<ele>321.5</ele>
<speed>4.6</speed>
<course>77.7</course>
<desc>Speed 4.6 km/h Distance 0.90 km</desc>
<time>2010-02-28T16:18:47.60</time>
<name>592</name>
</trkpt>
<trkpt lat="48.985748" lon="8.663075">
<ele>321.0</ele>
<speed>4.7</speed>
<course>105.0</course>
<desc>Speed 4.7 km/h Distance 0.90 km</desc>
<time>2010-02-28T16:18:48.60</time>
<name>593</name>
</trkpt>
<trkpt lat="48.985743" lon="8.663103">
<ele>321.0</ele>
<speed>6.9</speed>
<course>81.3</course>
<desc>Speed 6.9 km/h Distance 0.90 km</desc>
<time>2010-02-28T16:18:49.60</time>
<name>594</name>
</trkpt>
<trkpt lat="48.985745" lon="8.663120">
<ele>320.0</ele>
<speed>3.6</speed>
<course>97.9</course>
<desc>Speed 3.6 km/h Distance 0.91 km</desc>
<time>2010-02-28T16:18:50.59</time>
<name>595</name>
</trkpt>
<trkpt lat="48.985743" lon="8.663138">
<ele>320.0</ele>
<speed>4.7</speed>
<course>97.2</course>
<desc>Speed 4.7 km/h Distance 0.91 km</desc>
<time>2010-02-28T16:18:51.59</time>
<name>596</name>
</trkpt>
<trkpt lat="48.985742" lon="8.663158">
<ele>320.5</ele>
<speed>4.7</speed>
<course>90.0</course>
<desc>Speed 4.7 km/h Distance 0.91 km</desc>
<time>2010-02-28T16:18:52.76</time>
<name>597</name>
</trkpt>
<trkpt lat="48.985742" lon="8.663175">
<ele>320.5</ele>
<speed>3.7</speed>
<course>90.0</course>
<desc>Speed 3.7 km/h Distance 0.91 km</desc>
<time>2010-02-28T16:18:53.60</time>
<name>598</name>
</trkpt>
<trkpt lat="48.985742" lon="8.663195">
<ele>321.0</ele>
<speed>4.4</speed>
<course>82.8</course>
<desc>Speed 4.4 km/h Distance 0.91 km</desc>
<time>2010-02-28T16:18:54.60</time>
<name>599</name>
</trkpt>
<trkpt lat="48.985743" lon="8.663215">
<ele>320.5</ele>
<speed>4.3</speed>
<course>81.3</course>
<desc>Speed 4.3 km/h Distance 0.91 km</desc>
<time>2010-02-28T16:18:55.60</time>
<name>600</name>
</trkpt>
<trkpt lat="48.985745" lon="8.663232">
<ele>321.0</ele>
<speed>3.9</speed>
<course>90.0</course>
<desc>Speed 3.9 km/h Distance 0.91 km</desc>
<time>2010-02-28T16:18:56.59</time>
<name>601</name>
</trkpt>
<trkpt lat="48.985745" lon="8.663247">
<ele>322.0</ele>
<speed>2.9</speed>
<course>90.0</course>
<desc>Speed 2.9 km/h Distance 0.91 km</desc>
<time>2010-02-28T16:18:57.59</time>
<name>602</name>
</trkpt>
<trkpt lat="48.985745" lon="8.663257">
<ele>322.5</ele>
<speed>2.3</speed>
<course>110.9</course>
<desc>Speed 2.3 km/h Distance 0.92 km</desc>
<time>2010-02-28T16:18:58.59</time>
<name>603</name>
</trkpt>
<trkpt lat="48.985742" lon="8.663270">
<ele>323.5</ele>
<speed>3.3</speed>
<course>97.2</course>
<desc>Speed 3.3 km/h Distance 0.92 km</desc>
<time>2010-02-28T16:18:59.59</time>
<name>604</name>
</trkpt>
<trkpt lat="48.985740" lon="8.663290">
<ele>323.5</ele>
<speed>4.8</speed>
<course>90.0</course>
<desc>Speed 4.8 km/h Distance 0.92 km</desc>
<time>2010-02-28T16:19:00.59</time>
<name>605</name>
</trkpt>
<trkpt lat="48.985740" lon="8.663303">
<ele>324.0</ele>
<speed>3.3</speed>
<course>90.0</course>
<desc>Speed 3.3 km/h Distance 0.92 km</desc>
<time>2010-02-28T16:19:01.62</time>
<name>606</name>
</trkpt>
<trkpt lat="48.985740" lon="8.663318">
<ele>324.0</ele>
<speed>3.8</speed>
<course>97.9</course>
<desc>Speed 3.8 km/h Distance 0.92 km</desc>
<time>2010-02-28T16:19:02.59</time>
<name>607</name>
</trkpt>
<trkpt lat="48.985738" lon="8.663337">
<ele>324.0</ele>
<speed>4.5</speed>
<course>90.0</course>
<desc>Speed 4.5 km/h Distance 0.92 km</desc>
<time>2010-02-28T16:19:03.59</time>
<name>608</name>
</trkpt>
<trkpt lat="48.985738" lon="8.663353">
<ele>324.0</ele>
<speed>3.7</speed>
<course>90.0</course>
<desc>Speed 3.7 km/h Distance 0.92 km</desc>
<time>2010-02-28T16:19:04.59</time>
<name>609</name>
</trkpt>
<trkpt lat="48.985738" lon="8.663372">
<ele>323.5</ele>
<speed>4.1</speed>
<course>96.2</course>
<desc>Speed 4.1 km/h Distance 0.92 km</desc>
<time>2010-02-28T16:19:05.59</time>
<name>610</name>
</trkpt>
<trkpt lat="48.985737" lon="8.663395">
<ele>323.5</ele>
<speed>4.6</speed>
<course>75.8</course>
<desc>Speed 4.6 km/h Distance 0.93 km</desc>
<time>2010-02-28T16:19:06.59</time>
<name>611</name>
</trkpt>
<trkpt lat="48.985740" lon="8.663415">
<ele>323.0</ele>
<speed>3.6</speed>
<course>60.3</course>
<desc>Speed 3.6 km/h Distance 0.93 km</desc>
<time>2010-02-28T16:19:07.59</time>
<name>612</name>
</trkpt>
<trkpt lat="48.985745" lon="8.663428">
<ele>323.0</ele>
<speed>3.2</speed>
<course>81.3</course>
<desc>Speed 3.2 km/h Distance 0.93 km</desc>
<time>2010-02-28T16:19:08.59</time>
<name>613</name>
</trkpt>
<trkpt lat="48.985747" lon="8.663445">
<ele>323.5</ele>
<speed>3.5</speed>
<course>74.5</course>
<desc>Speed 3.5 km/h Distance 0.93 km</desc>
<time>2010-02-28T16:19:09.59</time>
<name>614</name>
</trkpt>
<trkpt lat="48.985750" lon="8.663463">
<ele>323.0</ele>
<speed>3.5</speed>
<course>110.8</course>
<desc>Speed 3.5 km/h Distance 0.93 km</desc>
<time>2010-02-28T16:19:10.60</time>
<name>615</name>
</trkpt>
<trkpt lat="48.985743" lon="8.663490">
<ele>323.5</ele>
<speed>6.4</speed>
<course>110.9</course>
<desc>Speed 6.4 km/h Distance 0.93 km</desc>
<time>2010-02-28T16:19:11.59</time>
<name>616</name>
</trkpt>
<trkpt lat="48.985738" lon="8.663510">
<ele>324.5</ele>
<speed>3.3</speed>
<course>90.0</course>
<desc>Speed 3.3 km/h Distance 0.93 km</desc>
<time>2010-02-28T16:19:12.59</time>
<name>617</name>
</trkpt>
<trkpt lat="48.985738" lon="8.663523">
<ele>325.0</ele>
<speed>2.5</speed>
<course>90.0</course>
<desc>Speed 2.5 km/h Distance 0.94 km</desc>
<time>2010-02-28T16:19:13.59</time>
<name>618</name>
</trkpt>
<trkpt lat="48.985738" lon="8.663545">
<ele>325.5</ele>
<speed>4.4</speed>
<course>71.3</course>
<desc>Speed 4.4 km/h Distance 0.94 km</desc>
<time>2010-02-28T16:19:14.58</time>
<name>619</name>
</trkpt>
<trkpt lat="48.985742" lon="8.663560">
<ele>326.0</ele>
<speed>3.6</speed>
<course>71.3</course>
<desc>Speed 3.6 km/h Distance 0.94 km</desc>
<time>2010-02-28T16:19:15.58</time>
<name>620</name>
</trkpt>
<trkpt lat="48.985745" lon="8.663575">
<ele>325.5</ele>
<speed>3.3</speed>
<course>80.4</course>
<desc>Speed 3.3 km/h Distance 0.94 km</desc>
<time>2010-02-28T16:19:16.58</time>
<name>621</name>
</trkpt>
<trkpt lat="48.985747" lon="8.663590">
<ele>325.0</ele>
<speed>3.7</speed>
<course>73.0</course>
<desc>Speed 3.7 km/h Distance 0.94 km</desc>
<time>2010-02-28T16:19:17.58</time>
<name>622</name>
</trkpt>
<trkpt lat="48.985750" lon="8.663607">
<ele>324.5</ele>
<speed>4.0</speed>
<course>82.1</course>
<desc>Speed 4.0 km/h Distance 0.94 km</desc>
<time>2010-02-28T16:19:18.58</time>
<name>623</name>
</trkpt>
<trkpt lat="48.985752" lon="8.663625">
<ele>324.0</ele>
<speed>4.0</speed>
<course>82.8</course>
<desc>Speed 4.0 km/h Distance 0.94 km</desc>
<time>2010-02-28T16:19:19.58</time>
<name>624</name>
</trkpt>
<trkpt lat="48.985753" lon="8.663645">
<ele>323.5</ele>
<speed>4.3</speed>
<course>90.0</course>
<desc>Speed 4.3 km/h Distance 0.94 km</desc>
<time>2010-02-28T16:19:20.58</time>
<name>625</name>
</trkpt>
<trkpt lat="48.985753" lon="8.663668">
<ele>322.5</ele>
<speed>3.7</speed>
<course>71.9</course>
<desc>Speed 3.7 km/h Distance 0.95 km</desc>
<time>2010-02-28T16:19:21.58</time>
<name>626</name>
</trkpt>
<trkpt lat="48.985758" lon="8.663692">
<ele>321.5</ele>
<speed>3.7</speed>
<course>82.8</course>
<desc>Speed 3.7 km/h Distance 0.95 km</desc>
<time>2010-02-28T16:19:22.57</time>
<name>627</name>
</trkpt>
<trkpt lat="48.985760" lon="8.663712">
<ele>320.5</ele>
<speed>3.7</speed>
<course>90.0</course>
<desc>Speed 3.7 km/h Distance 0.95 km</desc>
<time>2010-02-28T16:19:23.57</time>
<name>628</name>
</trkpt>
<trkpt lat="48.985760" lon="8.663725">
<ele>320.5</ele>
<speed>3.0</speed>
<course>84.6</course>
<desc>Speed 3.0 km/h Distance 0.95 km</desc>
<time>2010-02-28T16:19:24.57</time>
<name>629</name>
</trkpt>
<trkpt lat="48.985762" lon="8.663752">
<ele>320.5</ele>
<speed>4.1</speed>
<course>90.0</course>
<desc>Speed 4.1 km/h Distance 0.95 km</desc>
<time>2010-02-28T16:19:25.58</time>
<name>630</name>
</trkpt>
<trkpt lat="48.985762" lon="8.663768">
<ele>321.0</ele>
<speed>3.0</speed>
<course>98.7</course>
<desc>Speed 3.0 km/h Distance 0.95 km</desc>
<time>2010-02-28T16:19:26.58</time>
<name>631</name>
</trkpt>
<trkpt lat="48.985760" lon="8.663785">
<ele>321.5</ele>
<speed>3.1</speed>
<course>124.1</course>
<desc>Speed 3.1 km/h Distance 0.95 km</desc>
<time>2010-02-28T16:19:27.59</time>
<name>632</name>
</trkpt>
<trkpt lat="48.985727" lon="8.663860">
<ele>326.0</ele>
<speed>3.7</speed>
<course>112.6</course>
<desc>Speed 3.7 km/h Distance 0.96 km</desc>
<time>2010-02-28T16:19:29.60</time>
<name>633</name>
</trkpt>
<trkpt lat="48.985722" lon="8.663878">
<ele>326.0</ele>
<speed>3.6</speed>
<course>112.1</course>
<desc>Speed 3.6 km/h Distance 0.96 km</desc>
<time>2010-02-28T16:19:30.58</time>
<name>634</name>
</trkpt>
<trkpt lat="48.985715" lon="8.663903">
<ele>326.0</ele>
<speed>4.0</speed>
<course>99.6</course>
<desc>Speed 4.0 km/h Distance 0.96 km</desc>
<time>2010-02-28T16:19:31.58</time>
<name>635</name>
</trkpt>
<trkpt lat="48.985712" lon="8.663933">
<ele>325.5</ele>
<speed>4.4</speed>
<course>102.3</course>
<desc>Speed 4.4 km/h Distance 0.97 km</desc>
<time>2010-02-28T16:19:32.58</time>
<name>636</name>
</trkpt>
<trkpt lat="48.985707" lon="8.663968">
<ele>326.0</ele>
<speed>4.9</speed>
<course>106.9</course>
<desc>Speed 4.9 km/h Distance 0.97 km</desc>
<time>2010-02-28T16:19:33.58</time>
<name>637</name>
</trkpt>
<trkpt lat="48.985702" lon="8.663993">
<ele>326.0</ele>
<speed>5.1</speed>
<course>106.9</course>
<desc>Speed 5.1 km/h Distance 0.97 km</desc>
<time>2010-02-28T16:19:34.58</time>
<name>638</name>
</trkpt>
<trkpt lat="48.985698" lon="8.664010">
<ele>326.0</ele>
<speed>4.0</speed>
<course>14.9</course>
<desc>Speed 4.0 km/h Distance 0.97 km</desc>
<time>2010-02-28T16:19:35.58</time>
<name>639</name>
</trkpt>
<trkpt lat="48.985707" lon="8.664013">
<ele>324.5</ele>
<speed>3.7</speed>
<course>82.1</course>
<desc>Speed 3.7 km/h Distance 0.97 km</desc>
<time>2010-02-28T16:19:36.58</time>
<name>640</name>
</trkpt>
<trkpt lat="48.985708" lon="8.664032">
<ele>323.5</ele>
<speed>3.6</speed>
<course>83.3</course>
<desc>Speed 3.6 km/h Distance 0.97 km</desc>
<time>2010-02-28T16:19:37.58</time>
<name>641</name>
</trkpt>
<trkpt lat="48.985710" lon="8.664053">
<ele>323.0</ele>
<speed>3.9</speed>
<course>90.0</course>
<desc>Speed 3.9 km/h Distance 0.98 km</desc>
<time>2010-02-28T16:19:38.58</time>
<name>642</name>
</trkpt>
<trkpt lat="48.985710" lon="8.664078">
<ele>322.0</ele>
<speed>4.5</speed>
<course>104.2</course>
<desc>Speed 4.5 km/h Distance 0.98 km</desc>
<time>2010-02-28T16:19:39.58</time>
<name>643</name>
</trkpt>
<trkpt lat="48.985707" lon="8.664098">
<ele>321.5</ele>
<speed>4.1</speed>
<course>82.1</course>
<desc>Speed 4.1 km/h Distance 0.98 km</desc>
<time>2010-02-28T16:19:40.58</time>
<name>644</name>
</trkpt>
<trkpt lat="48.985708" lon="8.664117">
<ele>321.0</ele>
<speed>4.2</speed>
<course>104.3</course>
<desc>Speed 4.2 km/h Distance 0.98 km</desc>
<time>2010-02-28T16:19:41.58</time>
<name>645</name>
</trkpt>
<trkpt lat="48.985692" lon="8.664217">
<ele>322.0</ele>
<speed>5.0</speed>
<course>83.3</course>
<desc>Speed 5.0 km/h Distance 0.99 km</desc>
<time>2010-02-28T16:19:43.58</time>
<name>646</name>
</trkpt>
<trkpt lat="48.985693" lon="8.664238">
<ele>322.0</ele>
<speed>4.3</speed>
<course>83.3</course>
<desc>Speed 4.3 km/h Distance 0.99 km</desc>
<time>2010-02-28T16:19:44.58</time>
<name>647</name>
</trkpt>
<trkpt lat="48.985695" lon="8.664260">
<ele>322.0</ele>
<speed>3.9</speed>
<course>84.2</course>
<desc>Speed 3.9 km/h Distance 0.99 km</desc>
<time>2010-02-28T16:19:45.58</time>
<name>648</name>
</trkpt>
<trkpt lat="48.985697" lon="8.664285">
<ele>321.5</ele>
<speed>4.4</speed>
<course>90.0</course>
<desc>Speed 4.4 km/h Distance 0.99 km</desc>
<time>2010-02-28T16:19:46.58</time>
<name>649</name>
</trkpt>
<trkpt lat="48.985697" lon="8.664302">
<ele>322.0</ele>
<speed>3.7</speed>
<course>73.1</course>
<desc>Speed 3.7 km/h Distance 1.00 km</desc>
<time>2010-02-28T16:19:47.57</time>
<name>650</name>
</trkpt>
<trkpt lat="48.985700" lon="8.664318">
<ele>321.5</ele>
<speed>3.7</speed>
<course>74.5</course>
<desc>Speed 3.7 km/h Distance 1.00 km</desc>
<time>2010-02-28T16:19:48.57</time>
<name>651</name>
</trkpt>
<trkpt lat="48.985703" lon="8.664337">
<ele>322.0</ele>
<speed>4.3</speed>
<course>67.4</course>
<desc>Speed 4.3 km/h Distance 1.00 km</desc>
<time>2010-02-28T16:19:49.57</time>
<name>652</name>
</trkpt>
<trkpt lat="48.985708" lon="8.664355">
<ele>322.0</ele>
<speed>4.1</speed>
<course>76.8</course>
<desc>Speed 4.1 km/h Distance 1.00 km</desc>
<time>2010-02-28T16:19:50.57</time>
<name>653</name>
</trkpt>
<trkpt lat="48.985712" lon="8.664377">
<ele>322.5</ele>
<speed>4.3</speed>
<course>96.2</course>
<desc>Speed 4.3 km/h Distance 1.00 km</desc>
<time>2010-02-28T16:19:51.57</time>
<name>654</name>
</trkpt>
<trkpt lat="48.985710" lon="8.664400">
<ele>323.0</ele>
<speed>4.2</speed>
<course>90.0</course>
<desc>Speed 4.2 km/h Distance 1.00 km</desc>
<time>2010-02-28T16:19:52.58</time>
<name>655</name>
</trkpt>
<trkpt lat="48.985710" lon="8.664420">
<ele>323.0</ele>
<speed>4.1</speed>
<course>96.2</course>
<desc>Speed 4.1 km/h Distance 1.00 km</desc>
<time>2010-02-28T16:19:53.57</time>
<name>656</name>
</trkpt>
<trkpt lat="48.985708" lon="8.664443">
<ele>323.5</ele>
<speed>5.0</speed>
<course>90.0</course>
<desc>Speed 5.0 km/h Distance 1.01 km</desc>
<time>2010-02-28T16:19:54.57</time>
<name>657</name>
</trkpt>
<trkpt lat="48.985708" lon="8.664470">
<ele>323.0</ele>
<speed>4.5</speed>
<course>84.2</course>
<desc>Speed 4.5 km/h Distance 1.01 km</desc>
<time>2010-02-28T16:19:55.57</time>
<name>658</name>
</trkpt>
<trkpt lat="48.985710" lon="8.664495">
<ele>323.0</ele>
<speed>4.1</speed>
<course>95.1</course>
<desc>Speed 4.1 km/h Distance 1.01 km</desc>
<time>2010-02-28T16:19:56.56</time>
<name>659</name>
</trkpt>
<trkpt lat="48.985708" lon="8.664523">
<ele>323.5</ele>
<speed>5.2</speed>
<course>90.0</course>
<desc>Speed 5.2 km/h Distance 1.01 km</desc>
<time>2010-02-28T16:19:57.57</time>
<name>660</name>
</trkpt>
<trkpt lat="48.985708" lon="8.664545">
<ele>323.5</ele>
<speed>4.4</speed>
<course>82.8</course>
<desc>Speed 4.4 km/h Distance 1.01 km</desc>
<time>2010-02-28T16:19:58.57</time>
<name>661</name>
</trkpt>
<trkpt lat="48.985710" lon="8.664565">
<ele>323.0</ele>
<speed>3.9</speed>
<course>84.2</course>
<desc>Speed 3.9 km/h Distance 1.01 km</desc>
<time>2010-02-28T16:19:59.57</time>
<name>662</name>
</trkpt>
<trkpt lat="48.985712" lon="8.664590">
<ele>323.0</ele>
<speed>4.4</speed>
<course>80.9</course>
<desc>Speed 4.4 km/h Distance 1.02 km</desc>
<time>2010-02-28T16:20:00.56</time>
<name>663</name>
</trkpt>
<trkpt lat="48.985715" lon="8.664622">
<ele>323.0</ele>
<speed>5.5</speed>
<course>100.8</course>
<desc>Speed 5.5 km/h Distance 1.02 km</desc>
<time>2010-02-28T16:20:01.56</time>
<name>664</name>
</trkpt>
<trkpt lat="48.985712" lon="8.664648">
<ele>323.0</ele>
<speed>5.5</speed>
<course>82.8</course>
<desc>Speed 5.5 km/h Distance 1.02 km</desc>
<time>2010-02-28T16:20:02.56</time>
<name>665</name>
</trkpt>
<trkpt lat="48.985713" lon="8.664668">
<ele>323.0</ele>
<speed>4.4</speed>
<course>101.5</course>
<desc>Speed 4.4 km/h Distance 1.02 km</desc>
<time>2010-02-28T16:20:03.56</time>
<name>666</name>
</trkpt>
<trkpt lat="48.985710" lon="8.664693">
<ele>323.5</ele>
<speed>5.5</speed>
<course>73.0</course>
<desc>Speed 5.5 km/h Distance 1.02 km</desc>
<time>2010-02-28T16:20:04.56</time>
<name>667</name>
</trkpt>
<trkpt lat="48.985713" lon="8.664710">
<ele>323.5</ele>
<speed>3.5</speed>
<course>114.1</course>
<desc>Speed 3.5 km/h Distance 1.03 km</desc>
<time>2010-02-28T16:20:05.56</time>
<name>668</name>
</trkpt>
<trkpt lat="48.985705" lon="8.664738">
<ele>324.0</ele>
<speed>7.4</speed>
<course>95.8</course>
<desc>Speed 7.4 km/h Distance 1.03 km</desc>
<time>2010-02-28T16:20:06.57</time>
<name>669</name>
</trkpt>
<trkpt lat="48.985703" lon="8.664763">
<ele>324.0</ele>
<speed>4.9</speed>
<course>83.8</course>
<desc>Speed 4.9 km/h Distance 1.03 km</desc>
<time>2010-02-28T16:20:07.56</time>
<name>670</name>
</trkpt>
<trkpt lat="48.985705" lon="8.664787">
<ele>324.5</ele>
<speed>5.1</speed>
<course>95.1</course>
<desc>Speed 5.1 km/h Distance 1.03 km</desc>
<time>2010-02-28T16:20:08.56</time>
<name>671</name>
</trkpt>
<trkpt lat="48.985703" lon="8.664815">
<ele>325.0</ele>
<speed>6.3</speed>
<course>115.4</course>
<desc>Speed 6.3 km/h Distance 1.03 km</desc>
<time>2010-02-28T16:20:09.56</time>
<name>672</name>
</trkpt>
<trkpt lat="48.985695" lon="8.664842">
<ele>326.5</ele>
<speed>6.6</speed>
<course>32.3</course>
<desc>Speed 6.6 km/h Distance 1.04 km</desc>
<time>2010-02-28T16:20:10.57</time>
<name>673</name>
</trkpt>
<trkpt lat="48.985700" lon="8.664847">
<ele>326.0</ele>
<speed>2.6</speed>
<course>63.0</course>
<desc>Speed 2.6 km/h Distance 1.04 km</desc>
<time>2010-02-28T16:20:11.56</time>
<name>674</name>
</trkpt>
<trkpt lat="48.985703" lon="8.664857">
<ele>326.0</ele>
<speed>1.4</speed>
<course>99.1</course>
<desc>Speed 1.4 km/h Distance 1.04 km</desc>
<time>2010-02-28T16:20:12.56</time>
<name>675</name>
</trkpt>
<trkpt lat="48.985700" lon="8.664888">
<ele>327.0</ele>
<speed>6.4</speed>
<course>83.3</course>
<desc>Speed 6.4 km/h Distance 1.04 km</desc>
<time>2010-02-28T16:20:13.56</time>
<name>676</name>
</trkpt>
<trkpt lat="48.985702" lon="8.664910">
<ele>327.0</ele>
<speed>3.7</speed>
<course>90.0</course>
<desc>Speed 3.7 km/h Distance 1.04 km</desc>
<time>2010-02-28T16:20:14.55</time>
<name>677</name>
</trkpt>
<trkpt lat="48.985702" lon="8.664930">
<ele>326.5</ele>
<speed>4.1</speed>
<course>96.7</course>
<desc>Speed 4.1 km/h Distance 1.04 km</desc>
<time>2010-02-28T16:20:15.56</time>
<name>678</name>
</trkpt>
<trkpt lat="48.985700" lon="8.664952">
<ele>326.5</ele>
<speed>4.1</speed>
<course>96.2</course>
<desc>Speed 4.1 km/h Distance 1.04 km</desc>
<time>2010-02-28T16:20:16.55</time>
<name>679</name>
</trkpt>
<trkpt lat="48.985698" lon="8.664975">
<ele>326.0</ele>
<speed>3.6</speed>
<course>90.0</course>
<desc>Speed 3.6 km/h Distance 1.05 km</desc>
<time>2010-02-28T16:20:17.56</time>
<name>680</name>
</trkpt>
<trkpt lat="48.985698" lon="8.665000">
<ele>325.5</ele>
<speed>3.2</speed>
<course>90.0</course>
<desc>Speed 3.2 km/h Distance 1.05 km</desc>
<time>2010-02-28T16:20:18.55</time>
<name>681</name>
</trkpt>
<trkpt lat="48.985698" lon="8.665022">
<ele>326.0</ele>
<speed>3.8</speed>
<course>110.9</course>
<desc>Speed 3.8 km/h Distance 1.05 km</desc>
<time>2010-02-28T16:20:19.56</time>
<name>682</name>
</trkpt>
<trkpt lat="48.985695" lon="8.665035">
<ele>326.5</ele>
<speed>2.8</speed>
<course>120.2</course>
<desc>Speed 2.8 km/h Distance 1.05 km</desc>
<time>2010-02-28T16:20:20.55</time>
<name>683</name>
</trkpt>
<trkpt lat="48.985660" lon="8.665127">
<ele>331.5</ele>
<speed>3.0</speed>
<course>123.1</course>
<desc>Speed 3.0 km/h Distance 1.06 km</desc>
<time>2010-02-28T16:20:22.55</time>
<name>684</name>
</trkpt>
<trkpt lat="48.985655" lon="8.665138">
<ele>333.5</ele>
<speed>1.2</speed>
<course>59.2</course>
<desc>Speed 1.2 km/h Distance 1.06 km</desc>
<time>2010-02-28T16:20:23.56</time>
<name>685</name>
</trkpt>
<trkpt lat="48.985658" lon="8.665147">
<ele>334.0</ele>
<speed>1.7</speed>
<course>94.8</course>
<desc>Speed 1.7 km/h Distance 1.06 km</desc>
<time>2010-02-28T16:20:24.56</time>
<name>686</name>
</trkpt>
<trkpt lat="48.985655" lon="8.665207">
<ele>333.5</ele>
<speed>3.9</speed>
<course>90.0</course>
<desc>Speed 3.9 km/h Distance 1.06 km</desc>
<time>2010-02-28T16:20:26.56</time>
<name>687</name>
</trkpt>
<trkpt lat="48.985655" lon="8.665232">
<ele>333.0</ele>
<speed>5.4</speed>
<course>95.1</course>
<desc>Speed 5.4 km/h Distance 1.07 km</desc>
<time>2010-02-28T16:20:27.56</time>
<name>688</name>
</trkpt>
<trkpt lat="48.985653" lon="8.665260">
<ele>333.0</ele>
<speed>5.8</speed>
<course>103.2</course>
<desc>Speed 5.8 km/h Distance 1.07 km</desc>
<time>2010-02-28T16:20:28.56</time>
<name>689</name>
</trkpt>
<trkpt lat="48.985650" lon="8.665282">
<ele>333.5</ele>
<speed>4.9</speed>
<course>105.5</course>
<desc>Speed 4.9 km/h Distance 1.07 km</desc>
<time>2010-02-28T16:20:29.55</time>
<name>690</name>
</trkpt>
<trkpt lat="48.985647" lon="8.665300">
<ele>334.0</ele>
<speed>5.2</speed>
<course>110.8</course>
<desc>Speed 5.2 km/h Distance 1.07 km</desc>
<time>2010-02-28T16:20:30.55</time>
<name>691</name>
</trkpt>
<trkpt lat="48.985642" lon="8.665320">
<ele>334.0</ele>
<speed>4.9</speed>
<course>110.8</course>
<desc>Speed 4.9 km/h Distance 1.07 km</desc>
<time>2010-02-28T16:20:31.56</time>
<name>692</name>
</trkpt>
<trkpt lat="48.985637" lon="8.665340">
<ele>334.5</ele>
<speed>4.9</speed>
<course>110.9</course>
<desc>Speed 4.9 km/h Distance 1.07 km</desc>
<time>2010-02-28T16:20:32.55</time>
<name>693</name>
</trkpt>
<trkpt lat="48.985632" lon="8.665360">
<ele>335.0</ele>
<speed>4.7</speed>
<course>105.5</course>
<desc>Speed 4.7 km/h Distance 1.08 km</desc>
<time>2010-02-28T16:20:33.55</time>
<name>694</name>
</trkpt>
<trkpt lat="48.985628" lon="8.665378">
<ele>335.5</ele>
<speed>4.2</speed>
<course>103.2</course>
<desc>Speed 4.2 km/h Distance 1.08 km</desc>
<time>2010-02-28T16:20:34.55</time>
<name>695</name>
</trkpt>
<trkpt lat="48.985625" lon="8.665400">
<ele>336.5</ele>
<speed>4.5</speed>
<course>105.5</course>
<desc>Speed 4.5 km/h Distance 1.08 km</desc>
<time>2010-02-28T16:20:35.55</time>
<name>696</name>
</trkpt>
<trkpt lat="48.985622" lon="8.665418">
<ele>336.0</ele>
<speed>4.7</speed>
<course>105.5</course>
<desc>Speed 4.7 km/h Distance 1.08 km</desc>
<time>2010-02-28T16:20:36.56</time>
<name>697</name>
</trkpt>
<trkpt lat="48.985618" lon="8.665437">
<ele>336.0</ele>
<speed>3.7</speed>
<course>90.0</course>
<desc>Speed 3.7 km/h Distance 1.08 km</desc>
<time>2010-02-28T16:20:37.55</time>
<name>698</name>
</trkpt>
<trkpt lat="48.985618" lon="8.665458">
<ele>335.5</ele>
<speed>3.9</speed>
<course>90.0</course>
<desc>Speed 3.9 km/h Distance 1.08 km</desc>
<time>2010-02-28T16:20:38.55</time>
<name>699</name>
</trkpt>
<trkpt lat="48.985618" lon="8.665480">
<ele>335.0</ele>
<speed>3.6</speed>
<course>83.3</course>
<desc>Speed 3.6 km/h Distance 1.08 km</desc>
<time>2010-02-28T16:20:39.55</time>
<name>700</name>
</trkpt>
<trkpt lat="48.985620" lon="8.665502">
<ele>334.0</ele>
<speed>3.1</speed>
<course>52.8</course>
<desc>Speed 3.1 km/h Distance 1.09 km</desc>
<time>2010-02-28T16:20:40.56</time>
<name>701</name>
</trkpt>
<trkpt lat="48.985625" lon="8.665512">
<ele>332.5</ele>
<speed>2.2</speed>
<course>103.2</course>
<desc>Speed 2.2 km/h Distance 1.09 km</desc>
<time>2010-02-28T16:20:41.56</time>
<name>702</name>
</trkpt>
<trkpt lat="48.985622" lon="8.665533">
<ele>332.5</ele>
<speed>4.6</speed>
<course>102.3</course>
<desc>Speed 4.6 km/h Distance 1.09 km</desc>
<time>2010-02-28T16:20:42.56</time>
<name>703</name>
</trkpt>
<trkpt lat="48.985618" lon="8.665557">
<ele>332.0</ele>
<speed>4.2</speed>
<course>99.6</course>
<desc>Speed 4.2 km/h Distance 1.09 km</desc>
<time>2010-02-28T16:20:43.54</time>
<name>704</name>
</trkpt>
<trkpt lat="48.985617" lon="8.665572">
<ele>331.5</ele>
<speed>4.0</speed>
<course>98.7</course>
<desc>Speed 4.0 km/h Distance 1.09 km</desc>
<time>2010-02-28T16:20:44.55</time>
<name>705</name>
</trkpt>
<trkpt lat="48.985615" lon="8.665588">
<ele>331.5</ele>
<speed>3.7</speed>
<course>98.7</course>
<desc>Speed 3.7 km/h Distance 1.09 km</desc>
<time>2010-02-28T16:20:45.54</time>
<name>706</name>
</trkpt>
<trkpt lat="48.985613" lon="8.665605">
<ele>331.5</ele>
<speed>3.9</speed>
<course>95.4</course>
<desc>Speed 3.9 km/h Distance 1.09 km</desc>
<time>2010-02-28T16:20:46.54</time>
<name>707</name>
</trkpt>
<trkpt lat="48.985612" lon="8.665632">
<ele>331.0</ele>
<speed>5.3</speed>
<course>95.4</course>
<desc>Speed 5.3 km/h Distance 1.10 km</desc>
<time>2010-02-28T16:20:47.54</time>
<name>708</name>
</trkpt>
<trkpt lat="48.985610" lon="8.665658">
<ele>331.0</ele>
<speed>4.9</speed>
<course>95.4</course>
<desc>Speed 4.9 km/h Distance 1.10 km</desc>
<time>2010-02-28T16:20:48.55</time>
<name>709</name>
</trkpt>
<trkpt lat="48.985608" lon="8.665685">
<ele>331.0</ele>
<speed>4.0</speed>
<course>97.2</course>
<desc>Speed 4.0 km/h Distance 1.10 km</desc>
<time>2010-02-28T16:20:49.54</time>
<name>710</name>
</trkpt>
<trkpt lat="48.985607" lon="8.665705">
<ele>331.5</ele>
<speed>3.6</speed>
<course>104.2</course>
<desc>Speed 3.6 km/h Distance 1.10 km</desc>
<time>2010-02-28T16:20:50.54</time>
<name>711</name>
</trkpt>
<trkpt lat="48.985603" lon="8.665725">
<ele>331.5</ele>
<speed>4.1</speed>
<course>103.2</course>
<desc>Speed 4.1 km/h Distance 1.10 km</desc>
<time>2010-02-28T16:20:51.55</time>
<name>712</name>
</trkpt>
<trkpt lat="48.985600" lon="8.665747">
<ele>331.5</ele>
<speed>3.9</speed>
<course>95.8</course>
<desc>Speed 3.9 km/h Distance 1.10 km</desc>
<time>2010-02-28T16:20:52.54</time>
<name>713</name>
</trkpt>
<trkpt lat="48.985598" lon="8.665772">
<ele>332.0</ele>
<speed>4.5</speed>
<course>115.1</course>
<desc>Speed 4.5 km/h Distance 1.11 km</desc>
<time>2010-02-28T16:20:53.54</time>
<name>714</name>
</trkpt>
<trkpt lat="48.985592" lon="8.665793">
<ele>333.0</ele>
<speed>3.9</speed>
<course>108.1</course>
<desc>Speed 3.9 km/h Distance 1.11 km</desc>
<time>2010-02-28T16:20:54.55</time>
<name>715</name>
</trkpt>
<trkpt lat="48.985587" lon="8.665817">
<ele>333.0</ele>
<speed>4.4</speed>
<course>98.7</course>
<desc>Speed 4.4 km/h Distance 1.11 km</desc>
<time>2010-02-28T16:20:55.55</time>
<name>716</name>
</trkpt>
<trkpt lat="48.985585" lon="8.665833">
<ele>333.5</ele>
<speed>4.0</speed>
<course>90.0</course>
<desc>Speed 4.0 km/h Distance 1.11 km</desc>
<time>2010-02-28T16:20:56.55</time>
<name>717</name>
</trkpt>
<trkpt lat="48.985585" lon="8.665845">
<ele>334.5</ele>
<speed>2.7</speed>
<course>80.4</course>
<desc>Speed 2.7 km/h Distance 1.11 km</desc>
<time>2010-02-28T16:20:57.55</time>
<name>718</name>
</trkpt>
<trkpt lat="48.985587" lon="8.665860">
<ele>335.0</ele>
<speed>3.7</speed>
<course>110.5</course>
<desc>Speed 3.7 km/h Distance 1.11 km</desc>
<time>2010-02-28T16:20:58.55</time>
<name>719</name>
</trkpt>
<trkpt lat="48.985585" lon="8.665867">
<ele>335.5</ele>
<speed>1.4</speed>
<course>71.3</course>
<desc>Speed 1.4 km/h Distance 1.11 km</desc>
<time>2010-02-28T16:20:59.55</time>
<name>720</name>
</trkpt>
<trkpt lat="48.985588" lon="8.665882">
<ele>335.0</ele>
<speed>3.3</speed>
<course>98.7</course>
<desc>Speed 3.3 km/h Distance 1.11 km</desc>
<time>2010-02-28T16:21:00.55</time>
<name>721</name>
</trkpt>
<trkpt lat="48.985587" lon="8.665898">
<ele>335.5</ele>
<speed>4.0</speed>
<course>96.7</course>
<desc>Speed 4.0 km/h Distance 1.12 km</desc>
<time>2010-02-28T16:21:01.55</time>
<name>722</name>
</trkpt>
<trkpt lat="48.985585" lon="8.665920">
<ele>336.0</ele>
<speed>4.7</speed>
<course>90.0</course>
<desc>Speed 4.7 km/h Distance 1.12 km</desc>
<time>2010-02-28T16:21:02.55</time>
<name>723</name>
</trkpt>
<trkpt lat="48.985585" lon="8.665940">
<ele>336.5</ele>
<speed>4.0</speed>
<course>97.9</course>
<desc>Speed 4.0 km/h Distance 1.12 km</desc>
<time>2010-02-28T16:21:03.54</time>
<name>724</name>
</trkpt>
<trkpt lat="48.985583" lon="8.665958">
<ele>336.5</ele>
<speed>4.8</speed>
<course>97.9</course>
<desc>Speed 4.8 km/h Distance 1.12 km</desc>
<time>2010-02-28T16:21:04.55</time>
<name>725</name>
</trkpt>
<trkpt lat="48.985582" lon="8.665977">
<ele>337.0</ele>
<speed>4.6</speed>
<course>105.5</course>
<desc>Speed 4.6 km/h Distance 1.12 km</desc>
<time>2010-02-28T16:21:05.54</time>
<name>726</name>
</trkpt>
<trkpt lat="48.985578" lon="8.665995">
<ele>338.0</ele>
<speed>4.3</speed>
<course>98.7</course>
<desc>Speed 4.3 km/h Distance 1.12 km</desc>
<time>2010-02-28T16:21:06.55</time>
<name>727</name>
</trkpt>
<trkpt lat="48.985577" lon="8.666012">
<ele>338.0</ele>
<speed>3.7</speed>
<course>97.2</course>
<desc>Speed 3.7 km/h Distance 1.12 km</desc>
<time>2010-02-28T16:21:07.54</time>
<name>728</name>
</trkpt>
<trkpt lat="48.985575" lon="8.666032">
<ele>338.5</ele>
<speed>4.3</speed>
<course>82.1</course>
<desc>Speed 4.3 km/h Distance 1.13 km</desc>
<time>2010-02-28T16:21:08.54</time>
<name>729</name>
</trkpt>
<trkpt lat="48.985577" lon="8.666050">
<ele>339.0</ele>
<speed>3.8</speed>
<course>90.0</course>
<desc>Speed 3.8 km/h Distance 1.13 km</desc>
<time>2010-02-28T16:21:09.54</time>
<name>730</name>
</trkpt>
<trkpt lat="48.985577" lon="8.666068">
<ele>339.5</ele>
<speed>3.6</speed>
<course>98.7</course>
<desc>Speed 3.6 km/h Distance 1.13 km</desc>
<time>2010-02-28T16:21:10.55</time>
<name>731</name>
</trkpt>
<trkpt lat="48.985575" lon="8.666085">
<ele>340.0</ele>
<speed>3.7</speed>
<course>97.9</course>
<desc>Speed 3.7 km/h Distance 1.13 km</desc>
<time>2010-02-28T16:21:11.54</time>
<name>732</name>
</trkpt>
<trkpt lat="48.985573" lon="8.666103">
<ele>340.5</ele>
<speed>4.3</speed>
<course>73.1</course>
<desc>Speed 4.3 km/h Distance 1.13 km</desc>
<time>2010-02-28T16:21:12.54</time>
<name>733</name>
</trkpt>
<trkpt lat="48.985577" lon="8.666120">
<ele>340.5</ele>
<speed>3.9</speed>
<course>81.3</course>
<desc>Speed 3.9 km/h Distance 1.13 km</desc>
<time>2010-02-28T16:21:13.54</time>
<name>734</name>
</trkpt>
<trkpt lat="48.985578" lon="8.666137">
<ele>340.5</ele>
<speed>3.7</speed>
<course>98.7</course>
<desc>Speed 3.7 km/h Distance 1.13 km</desc>
<time>2010-02-28T16:21:14.54</time>
<name>735</name>
</trkpt>
<trkpt lat="48.985577" lon="8.666153">
<ele>341.0</ele>
<speed>3.6</speed>
<course>100.8</course>
<desc>Speed 3.6 km/h Distance 1.13 km</desc>
<time>2010-02-28T16:21:15.54</time>
<name>736</name>
</trkpt>
<trkpt lat="48.985575" lon="8.666167">
<ele>341.5</ele>
<speed>3.5</speed>
<course>100.8</course>
<desc>Speed 3.5 km/h Distance 1.14 km</desc>
<time>2010-02-28T16:21:16.54</time>
<name>737</name>
</trkpt>
<trkpt lat="48.985573" lon="8.666180">
<ele>342.0</ele>
<speed>2.8</speed>
<course>99.6</course>
<desc>Speed 2.8 km/h Distance 1.14 km</desc>
<time>2010-02-28T16:21:17.54</time>
<name>738</name>
</trkpt>
<trkpt lat="48.985572" lon="8.666195">
<ele>342.5</ele>
<speed>3.6</speed>
<course>121.4</course>
<desc>Speed 3.6 km/h Distance 1.14 km</desc>
<time>2010-02-28T16:21:18.54</time>
<name>739</name>
</trkpt>
<trkpt lat="48.985552" lon="8.666245">
<ele>346.0</ele>
<speed>2.9</speed>
<course>80.4</course>
<desc>Speed 2.9 km/h Distance 1.14 km</desc>
<time>2010-02-28T16:21:20.54</time>
<name>740</name>
</trkpt>
<trkpt lat="48.985553" lon="8.666260">
<ele>346.5</ele>
<speed>3.4</speed>
<course>97.2</course>
<desc>Speed 3.4 km/h Distance 1.14 km</desc>
<time>2010-02-28T16:21:21.54</time>
<name>741</name>
</trkpt>
<trkpt lat="48.985552" lon="8.666280">
<ele>347.0</ele>
<speed>4.4</speed>
<course>99.1</course>
<desc>Speed 4.4 km/h Distance 1.14 km</desc>
<time>2010-02-28T16:21:22.53</time>
<name>742</name>
</trkpt>
<trkpt lat="48.985548" lon="8.666312">
<ele>348.0</ele>
<speed>7.3</speed>
<course>44.5</course>
<desc>Speed 7.3 km/h Distance 1.15 km</desc>
<time>2010-02-28T16:21:23.53</time>
<name>743</name>
</trkpt>
<trkpt lat="48.985555" lon="8.666322">
<ele>348.0</ele>
<speed>2.3</speed>
<course>90.0</course>
<desc>Speed 2.3 km/h Distance 1.15 km</desc>
<time>2010-02-28T16:21:24.53</time>
<name>744</name>
</trkpt>
<trkpt lat="48.985555" lon="8.666338">
<ele>348.0</ele>
<speed>4.0</speed>
<course>90.0</course>
<desc>Speed 4.0 km/h Distance 1.15 km</desc>
<time>2010-02-28T16:21:25.53</time>
<name>745</name>
</trkpt>
<trkpt lat="48.985555" lon="8.666358">
<ele>348.5</ele>
<speed>4.7</speed>
<course>98.7</course>
<desc>Speed 4.7 km/h Distance 1.15 km</desc>
<time>2010-02-28T16:21:26.54</time>
<name>746</name>
</trkpt>
<trkpt lat="48.985553" lon="8.666375">
<ele>348.5</ele>
<speed>3.8</speed>
<course>52.7</course>
<desc>Speed 3.8 km/h Distance 1.15 km</desc>
<time>2010-02-28T16:21:27.54</time>
<name>747</name>
</trkpt>
<trkpt lat="48.985560" lon="8.666388">
<ele>348.0</ele>
<speed>3.5</speed>
<course>90.0</course>
<desc>Speed 3.5 km/h Distance 1.15 km</desc>
<time>2010-02-28T16:21:28.54</time>
<name>748</name>
</trkpt>
<trkpt lat="48.985560" lon="8.666407">
<ele>348.0</ele>
<speed>4.4</speed>
<course>98.7</course>
<desc>Speed 4.4 km/h Distance 1.15 km</desc>
<time>2010-02-28T16:21:29.53</time>
<name>749</name>
</trkpt>
<trkpt lat="48.985558" lon="8.666423">
<ele>348.5</ele>
<speed>3.9</speed>
<course>90.0</course>
<desc>Speed 3.9 km/h Distance 1.16 km</desc>
<time>2010-02-28T16:21:30.53</time>
<name>750</name>
</trkpt>
<trkpt lat="48.985558" lon="8.666442">
<ele>349.0</ele>
<speed>4.1</speed>
<course>83.8</course>
<desc>Speed 4.1 km/h Distance 1.16 km</desc>
<time>2010-02-28T16:21:31.54</time>
<name>751</name>
</trkpt>
<trkpt lat="48.985560" lon="8.666465">
<ele>349.0</ele>
<speed>4.8</speed>
<course>90.0</course>
<desc>Speed 4.8 km/h Distance 1.16 km</desc>
<time>2010-02-28T16:21:32.53</time>
<name>752</name>
</trkpt>
<trkpt lat="48.985560" lon="8.666487">
<ele>349.5</ele>
<speed>4.3</speed>
<course>76.8</course>
<desc>Speed 4.3 km/h Distance 1.16 km</desc>
<time>2010-02-28T16:21:33.53</time>
<name>753</name>
</trkpt>
<trkpt lat="48.985563" lon="8.666508">
<ele>348.5</ele>
<speed>4.5</speed>
<course>102.3</course>
<desc>Speed 4.5 km/h Distance 1.16 km</desc>
<time>2010-02-28T16:21:34.54</time>
<name>754</name>
</trkpt>
<trkpt lat="48.985553" lon="8.666578">
<ele>349.5</ele>
<speed>5.0</speed>
<course>108.1</course>
<desc>Speed 5.0 km/h Distance 1.17 km</desc>
<time>2010-02-28T16:21:36.53</time>
<name>755</name>
</trkpt>
<trkpt lat="48.985548" lon="8.666602">
<ele>350.0</ele>
<speed>5.0</speed>
<course>96.2</course>
<desc>Speed 5.0 km/h Distance 1.17 km</desc>
<time>2010-02-28T16:21:37.53</time>
<name>756</name>
</trkpt>
<trkpt lat="48.985547" lon="8.666625">
<ele>350.0</ele>
<speed>4.5</speed>
<course>78.5</course>
<desc>Speed 4.5 km/h Distance 1.17 km</desc>
<time>2010-02-28T16:21:38.53</time>
<name>757</name>
</trkpt>
<trkpt lat="48.985550" lon="8.666650">
<ele>350.0</ele>
<speed>4.6</speed>
<course>96.2</course>
<desc>Speed 4.6 km/h Distance 1.17 km</desc>
<time>2010-02-28T16:21:39.53</time>
<name>758</name>
</trkpt>
<trkpt lat="48.985548" lon="8.666673">
<ele>350.0</ele>
<speed>5.9</speed>
<course>106.9</course>
<desc>Speed 5.9 km/h Distance 1.17 km</desc>
<time>2010-02-28T16:21:40.53</time>
<name>759</name>
</trkpt>
<trkpt lat="48.985528" lon="8.666773">
<ele>349.5</ele>
<speed>5.0</speed>
<course>95.8</course>
<desc>Speed 5.0 km/h Distance 1.18 km</desc>
<time>2010-02-28T16:21:42.53</time>
<name>760</name>
</trkpt>
<trkpt lat="48.985527" lon="8.666798">
<ele>350.0</ele>
<speed>6.0</speed>
<course>101.5</course>
<desc>Speed 6.0 km/h Distance 1.18 km</desc>
<time>2010-02-28T16:21:43.52</time>
<name>761</name>
</trkpt>
<trkpt lat="48.985523" lon="8.666823">
<ele>350.0</ele>
<speed>6.1</speed>
<course>96.7</course>
<desc>Speed 6.1 km/h Distance 1.19 km</desc>
<time>2010-02-28T16:21:44.52</time>
<name>762</name>
</trkpt>
<trkpt lat="48.985522" lon="8.666845">
<ele>349.5</ele>
<speed>4.7</speed>
<course>90.0</course>
<desc>Speed 4.7 km/h Distance 1.19 km</desc>
<time>2010-02-28T16:21:45.53</time>
<name>763</name>
</trkpt>
<trkpt lat="48.985522" lon="8.666863">
<ele>350.0</ele>
<speed>4.5</speed>
<course>90.0</course>
<desc>Speed 4.5 km/h Distance 1.19 km</desc>
<time>2010-02-28T16:21:46.52</time>
<name>764</name>
</trkpt>
<trkpt lat="48.985522" lon="8.666885">
<ele>349.5</ele>
<speed>5.0</speed>
<course>82.1</course>
<desc>Speed 5.0 km/h Distance 1.19 km</desc>
<time>2010-02-28T16:21:47.53</time>
<name>765</name>
</trkpt>
<trkpt lat="48.985523" lon="8.666903">
<ele>349.5</ele>
<speed>4.7</speed>
<course>82.8</course>
<desc>Speed 4.7 km/h Distance 1.19 km</desc>
<time>2010-02-28T16:21:48.52</time>
<name>766</name>
</trkpt>
<trkpt lat="48.985525" lon="8.666923">
<ele>349.5</ele>
<speed>4.8</speed>
<course>97.2</course>
<desc>Speed 4.8 km/h Distance 1.19 km</desc>
<time>2010-02-28T16:21:49.52</time>
<name>767</name>
</trkpt>
<trkpt lat="48.985523" lon="8.666943">
<ele>350.0</ele>
<speed>4.7</speed>
<course>90.0</course>
<desc>Speed 4.7 km/h Distance 1.19 km</desc>
<time>2010-02-28T16:21:50.52</time>
<name>768</name>
</trkpt>
<trkpt lat="48.985523" lon="8.666965">
<ele>350.0</ele>
<speed>5.3</speed>
<course>82.1</course>
<desc>Speed 5.3 km/h Distance 1.20 km</desc>
<time>2010-02-28T16:21:51.53</time>
<name>769</name>
</trkpt>
<trkpt lat="48.985525" lon="8.666983">
<ele>349.5</ele>
<speed>4.4</speed>
<course>90.0</course>
<desc>Speed 4.4 km/h Distance 1.20 km</desc>
<time>2010-02-28T16:21:52.53</time>
<name>770</name>
</trkpt>
<trkpt lat="48.985525" lon="8.666998">
<ele>349.0</ele>
<speed>3.6</speed>
<course>79.2</course>
<desc>Speed 3.6 km/h Distance 1.20 km</desc>
<time>2010-02-28T16:21:53.55</time>
<name>771</name>
</trkpt>
<trkpt lat="48.985527" lon="8.667012">
<ele>349.0</ele>
<speed>2.7</speed>
<course>90.0</course>
<desc>Speed 2.7 km/h Distance 1.20 km</desc>
<time>2010-02-28T16:21:54.56</time>
<name>772</name>
</trkpt>
<trkpt lat="48.985527" lon="8.667028">
<ele>349.5</ele>
<speed>3.7</speed>
<course>103.2</course>
<desc>Speed 3.7 km/h Distance 1.20 km</desc>
<time>2010-02-28T16:21:55.53</time>
<name>773</name>
</trkpt>
<trkpt lat="48.985523" lon="8.667050">
<ele>349.5</ele>
<speed>4.7</speed>
<course>102.3</course>
<desc>Speed 4.7 km/h Distance 1.20 km</desc>
<time>2010-02-28T16:21:56.53</time>
<name>774</name>
</trkpt>
<trkpt lat="48.985520" lon="8.667073">
<ele>350.5</ele>
<speed>4.5</speed>
<course>105.5</course>
<desc>Speed 4.5 km/h Distance 1.20 km</desc>
<time>2010-02-28T16:21:57.53</time>
<name>775</name>
</trkpt>
<trkpt lat="48.985517" lon="8.667092">
<ele>351.0</ele>
<speed>4.5</speed>
<course>96.7</course>
<desc>Speed 4.5 km/h Distance 1.21 km</desc>
<time>2010-02-28T16:21:58.53</time>
<name>776</name>
</trkpt>
<trkpt lat="48.985515" lon="8.667113">
<ele>351.0</ele>
<speed>4.7</speed>
<course>81.3</course>
<desc>Speed 4.7 km/h Distance 1.21 km</desc>
<time>2010-02-28T16:21:59.53</time>
<name>777</name>
</trkpt>
<trkpt lat="48.985517" lon="8.667130">
<ele>350.5</ele>
<speed>3.9</speed>
<course>90.0</course>
<desc>Speed 3.9 km/h Distance 1.21 km</desc>
<time>2010-02-28T16:22:00.53</time>
<name>778</name>
</trkpt>
<trkpt lat="48.985517" lon="8.667150">
<ele>350.0</ele>
<speed>4.8</speed>
<course>90.0</course>
<desc>Speed 4.8 km/h Distance 1.21 km</desc>
<time>2010-02-28T16:22:01.53</time>
<name>779</name>
</trkpt>
<trkpt lat="48.985517" lon="8.667173">
<ele>350.0</ele>
<speed>5.3</speed>
<course>90.0</course>
<desc>Speed 5.3 km/h Distance 1.21 km</desc>
<time>2010-02-28T16:22:02.52</time>
<name>780</name>
</trkpt>
<trkpt lat="48.985517" lon="8.667197">
<ele>349.0</ele>
<speed>5.1</speed>
<course>90.0</course>
<desc>Speed 5.1 km/h Distance 1.21 km</desc>
<time>2010-02-28T16:22:03.52</time>
<name>781</name>
</trkpt>
<trkpt lat="48.985517" lon="8.667223">
<ele>349.0</ele>
<speed>6.1</speed>
<course>111.1</course>
<desc>Speed 6.1 km/h Distance 1.22 km</desc>
<time>2010-02-28T16:22:04.53</time>
<name>782</name>
</trkpt>
<trkpt lat="48.985457" lon="8.667460">
<ele>351.5</ele>
<speed>4.8</speed>
<course>112.1</course>
<desc>Speed 4.8 km/h Distance 1.23 km</desc>
<time>2010-02-28T16:22:07.52</time>
<name>783</name>
</trkpt>
<trkpt lat="48.985410" lon="8.667635">
<ele>356.0</ele>
<speed>5.4</speed>
<course>109.1</course>
<desc>Speed 5.4 km/h Distance 1.25 km</desc>
<time>2010-02-28T16:22:10.53</time>
<name>784</name>
</trkpt>
<trkpt lat="48.985402" lon="8.667672">
<ele>357.0</ele>
<speed>5.1</speed>
<course>106.2</course>
<desc>Speed 5.1 km/h Distance 1.25 km</desc>
<time>2010-02-28T16:22:11.53</time>
<name>785</name>
</trkpt>
<trkpt lat="48.985395" lon="8.667707">
<ele>359.0</ele>
<speed>4.8</speed>
<course>109.1</course>
<desc>Speed 4.8 km/h Distance 1.25 km</desc>
<time>2010-02-28T16:22:12.52</time>
<name>786</name>
</trkpt>
<trkpt lat="48.985387" lon="8.667743">
<ele>361.0</ele>
<speed>4.6</speed>
<course>95.1</course>
<desc>Speed 4.6 km/h Distance 1.26 km</desc>
<time>2010-02-28T16:22:13.52</time>
<name>787</name>
</trkpt>
<trkpt lat="48.985385" lon="8.667772">
<ele>360.5</ele>
<speed>5.9</speed>
<course>96.2</course>
<desc>Speed 5.9 km/h Distance 1.26 km</desc>
<time>2010-02-28T16:22:14.51</time>
<name>788</name>
</trkpt>
<trkpt lat="48.985383" lon="8.667795">
<ele>359.5</ele>
<speed>5.8</speed>
<course>107.0</course>
<desc>Speed 5.8 km/h Distance 1.26 km</desc>
<time>2010-02-28T16:22:15.53</time>
<name>789</name>
</trkpt>
<trkpt lat="48.985378" lon="8.667820">
<ele>359.0</ele>
<speed>5.9</speed>
<course>116.9</course>
<desc>Speed 5.9 km/h Distance 1.26 km</desc>
<time>2010-02-28T16:22:16.52</time>
<name>790</name>
</trkpt>
<trkpt lat="48.985370" lon="8.667845">
<ele>359.0</ele>
<speed>5.7</speed>
<course>118.6</course>
<desc>Speed 5.7 km/h Distance 1.26 km</desc>
<time>2010-02-28T16:22:17.51</time>
<name>791</name>
</trkpt>
<trkpt lat="48.985362" lon="8.667868">
<ele>359.5</ele>
<speed>6.2</speed>
<course>131.7</course>
<desc>Speed 6.2 km/h Distance 1.27 km</desc>
<time>2010-02-28T16:22:18.51</time>
<name>792</name>
</trkpt>
<trkpt lat="48.985350" lon="8.667888">
<ele>360.0</ele>
<speed>5.4</speed>
<course>127.3</course>
<desc>Speed 5.4 km/h Distance 1.27 km</desc>
<time>2010-02-28T16:22:19.51</time>
<name>793</name>
</trkpt>
<trkpt lat="48.985340" lon="8.667908">
<ele>361.5</ele>
<speed>4.9</speed>
<course>127.3</course>
<desc>Speed 4.9 km/h Distance 1.27 km</desc>
<time>2010-02-28T16:22:20.52</time>
<name>794</name>
</trkpt>
<trkpt lat="48.985332" lon="8.667925">
<ele>361.5</ele>
<speed>5.5</speed>
<course>124.0</course>
<desc>Speed 5.5 km/h Distance 1.27 km</desc>
<time>2010-02-28T16:22:21.51</time>
<name>795</name>
</trkpt>
<trkpt lat="48.985325" lon="8.667940">
<ele>362.0</ele>
<speed>5.0</speed>
<course>130.2</course>
<desc>Speed 5.0 km/h Distance 1.27 km</desc>
<time>2010-02-28T16:22:22.51</time>
<name>796</name>
</trkpt>
<trkpt lat="48.985317" lon="8.667955">
<ele>362.5</ele>
<speed>4.9</speed>
<course>116.9</course>
<desc>Speed 4.9 km/h Distance 1.27 km</desc>
<time>2010-02-28T16:22:23.51</time>
<name>797</name>
</trkpt>
<trkpt lat="48.985310" lon="8.667975">
<ele>362.5</ele>
<speed>5.3</speed>
<course>119.0</course>
<desc>Speed 5.3 km/h Distance 1.28 km</desc>
<time>2010-02-28T16:22:24.51</time>
<name>798</name>
</trkpt>
<trkpt lat="48.985303" lon="8.667993">
<ele>362.5</ele>
<speed>5.0</speed>
<course>105.5</course>
<desc>Speed 5.0 km/h Distance 1.28 km</desc>
<time>2010-02-28T16:22:25.51</time>
<name>799</name>
</trkpt>
<trkpt lat="48.985300" lon="8.668012">
<ele>362.5</ele>
<speed>5.3</speed>
<course>119.1</course>
<desc>Speed 5.3 km/h Distance 1.28 km</desc>
<time>2010-02-28T16:22:26.51</time>
<name>800</name>
</trkpt>
<trkpt lat="48.985293" lon="8.668030">
<ele>363.0</ele>
<speed>5.1</speed>
<course>127.4</course>
<desc>Speed 5.1 km/h Distance 1.28 km</desc>
<time>2010-02-28T16:22:27.52</time>
<name>801</name>
</trkpt>
<trkpt lat="48.985285" lon="8.668047">
<ele>364.0</ele>
<speed>5.4</speed>
<course>127.3</course>
<desc>Speed 5.4 km/h Distance 1.28 km</desc>
<time>2010-02-28T16:22:28.52</time>
<name>802</name>
</trkpt>
<trkpt lat="48.985278" lon="8.668060">
<ele>365.0</ele>
<speed>4.8</speed>
<course>127.4</course>
<desc>Speed 4.8 km/h Distance 1.28 km</desc>
<time>2010-02-28T16:22:29.52</time>
<name>803</name>
</trkpt>
<trkpt lat="48.985270" lon="8.668077">
<ele>366.0</ele>
<speed>5.4</speed>
<course>124.1</course>
<desc>Speed 5.4 km/h Distance 1.28 km</desc>
<time>2010-02-28T16:22:30.51</time>
<name>804</name>
</trkpt>
<trkpt lat="48.985263" lon="8.668092">
<ele>366.5</ele>
<speed>5.3</speed>
<course>135.5</course>
<desc>Speed 5.3 km/h Distance 1.29 km</desc>
<time>2010-02-28T16:22:31.51</time>
<name>805</name>
</trkpt>
<trkpt lat="48.985253" lon="8.668107">
<ele>366.5</ele>
<speed>5.1</speed>
<course>133.6</course>
<desc>Speed 5.1 km/h Distance 1.29 km</desc>
<time>2010-02-28T16:22:32.51</time>
<name>806</name>
</trkpt>
<trkpt lat="48.985245" lon="8.668120">
<ele>366.5</ele>
<speed>4.5</speed>
<course>127.3</course>
<desc>Speed 4.5 km/h Distance 1.29 km</desc>
<time>2010-02-28T16:22:33.51</time>
<name>807</name>
</trkpt>
<trkpt lat="48.985235" lon="8.668140">
<ele>366.5</ele>
<speed>5.4</speed>
<course>132.4</course>
<desc>Speed 5.4 km/h Distance 1.29 km</desc>
<time>2010-02-28T16:22:34.51</time>
<name>808</name>
</trkpt>
<trkpt lat="48.985225" lon="8.668157">
<ele>366.5</ele>
<speed>4.9</speed>
<course>131.6</course>
<desc>Speed 4.9 km/h Distance 1.29 km</desc>
<time>2010-02-28T16:22:35.51</time>
<name>809</name>
</trkpt>
<trkpt lat="48.985213" lon="8.668177">
<ele>366.5</ele>
<speed>5.0</speed>
<course>129.7</course>
<desc>Speed 5.0 km/h Distance 1.29 km</desc>
<time>2010-02-28T16:22:36.51</time>
<name>810</name>
</trkpt>
<trkpt lat="48.985203" lon="8.668195">
<ele>366.5</ele>
<speed>5.1</speed>
<course>142.5</course>
<desc>Speed 5.1 km/h Distance 1.30 km</desc>
<time>2010-02-28T16:22:37.51</time>
<name>811</name>
</trkpt>
<trkpt lat="48.985193" lon="8.668207">
<ele>366.5</ele>
<speed>4.8</speed>
<course>150.2</course>
<desc>Speed 4.8 km/h Distance 1.30 km</desc>
<time>2010-02-28T16:22:38.51</time>
<name>812</name>
</trkpt>
<trkpt lat="48.985180" lon="8.668218">
<ele>367.0</ele>
<speed>5.5</speed>
<course>143.6</course>
<desc>Speed 5.5 km/h Distance 1.30 km</desc>
<time>2010-02-28T16:22:39.51</time>
<name>813</name>
</trkpt>
<trkpt lat="48.985167" lon="8.668233">
<ele>366.5</ele>
<speed>5.7</speed>
<course>129.8</course>
<desc>Speed 5.7 km/h Distance 1.30 km</desc>
<time>2010-02-28T16:22:40.51</time>
<name>814</name>
</trkpt>
<trkpt lat="48.985157" lon="8.668252">
<ele>366.5</ele>
<speed>5.6</speed>
<course>129.4</course>
<desc>Speed 5.6 km/h Distance 1.30 km</desc>
<time>2010-02-28T16:22:41.52</time>
<name>815</name>
</trkpt>
<trkpt lat="48.985145" lon="8.668273">
<ele>365.5</ele>
<speed>5.8</speed>
<course>135.5</course>
<desc>Speed 5.8 km/h Distance 1.30 km</desc>
<time>2010-02-28T16:22:42.50</time>
<name>816</name>
</trkpt>
<trkpt lat="48.985135" lon="8.668288">
<ele>365.0</ele>
<speed>5.7</speed>
<course>135.5</course>
<desc>Speed 5.7 km/h Distance 1.31 km</desc>
<time>2010-02-28T16:22:43.50</time>
<name>817</name>
</trkpt>
<trkpt lat="48.985125" lon="8.668303">
<ele>365.0</ele>
<speed>5.3</speed>
<course>146.6</course>
<desc>Speed 5.3 km/h Distance 1.31 km</desc>
<time>2010-02-28T16:22:44.51</time>
<name>818</name>
</trkpt>
<trkpt lat="48.985113" lon="8.668315">
<ele>364.5</ele>
<speed>5.5</speed>
<course>143.5</course>
<desc>Speed 5.5 km/h Distance 1.31 km</desc>
<time>2010-02-28T16:22:45.51</time>
<name>819</name>
</trkpt>
<trkpt lat="48.985100" lon="8.668330">
<ele>365.0</ele>
<speed>5.1</speed>
<course>139.8</course>
<desc>Speed 5.1 km/h Distance 1.31 km</desc>
<time>2010-02-28T16:22:46.51</time>
<name>820</name>
</trkpt>
<trkpt lat="48.985088" lon="8.668345">
<ele>365.0</ele>
<speed>5.6</speed>
<course>150.2</course>
<desc>Speed 5.6 km/h Distance 1.31 km</desc>
<time>2010-02-28T16:22:47.51</time>
<name>821</name>
</trkpt>
<trkpt lat="48.985075" lon="8.668357">
<ele>365.0</ele>
<speed>5.7</speed>
<course>136.7</course>
<desc>Speed 5.7 km/h Distance 1.31 km</desc>
<time>2010-02-28T16:22:48.51</time>
<name>822</name>
</trkpt>
<trkpt lat="48.985063" lon="8.668373">
<ele>364.5</ele>
<speed>5.7</speed>
<course>136.8</course>
<desc>Speed 5.7 km/h Distance 1.32 km</desc>
<time>2010-02-28T16:22:49.51</time>
<name>823</name>
</trkpt>
<trkpt lat="48.985052" lon="8.668390">
<ele>364.0</ele>
<speed>5.4</speed>
<course>138.8</course>
<desc>Speed 5.4 km/h Distance 1.32 km</desc>
<time>2010-02-28T16:22:50.51</time>
<name>824</name>
</trkpt>
<trkpt lat="48.985042" lon="8.668403">
<ele>364.5</ele>
<speed>4.8</speed>
<course>154.8</course>
<desc>Speed 4.8 km/h Distance 1.32 km</desc>
<time>2010-02-28T16:22:51.50</time>
<name>825</name>
</trkpt>
<trkpt lat="48.985030" lon="8.668412">
<ele>364.5</ele>
<speed>4.9</speed>
<course>136.9</course>
<desc>Speed 4.9 km/h Distance 1.32 km</desc>
<time>2010-02-28T16:22:52.50</time>
<name>826</name>
</trkpt>
<trkpt lat="48.985018" lon="8.668428">
<ele>364.5</ele>
<speed>5.1</speed>
<course>139.8</course>
<desc>Speed 5.1 km/h Distance 1.32 km</desc>
<time>2010-02-28T16:22:53.50</time>
<name>827</name>
</trkpt>
<trkpt lat="48.985007" lon="8.668443">
<ele>365.0</ele>
<speed>4.8</speed>
<course>139.8</course>
<desc>Speed 4.8 km/h Distance 1.32 km</desc>
<time>2010-02-28T16:22:54.50</time>
<name>828</name>
</trkpt>
<trkpt lat="48.984995" lon="8.668458">
<ele>364.0</ele>
<speed>5.2</speed>
<course>146.8</course>
<desc>Speed 5.2 km/h Distance 1.33 km</desc>
<time>2010-02-28T16:22:55.50</time>
<name>829</name>
</trkpt>
<trkpt lat="48.984985" lon="8.668468">
<ele>364.5</ele>
<speed>4.7</speed>
<course>129.7</course>
<desc>Speed 4.7 km/h Distance 1.33 km</desc>
<time>2010-02-28T16:22:56.50</time>
<name>830</name>
</trkpt>
<trkpt lat="48.984975" lon="8.668487">
<ele>364.5</ele>
<speed>5.0</speed>
<course>143.5</course>
<desc>Speed 5.0 km/h Distance 1.33 km</desc>
<time>2010-02-28T16:22:57.51</time>
<name>831</name>
</trkpt>
<trkpt lat="48.984962" lon="8.668502">
<ele>364.5</ele>
<speed>5.1</speed>
<course>129.7</course>
<desc>Speed 5.1 km/h Distance 1.33 km</desc>
<time>2010-02-28T16:22:58.51</time>
<name>832</name>
</trkpt>
<trkpt lat="48.984952" lon="8.668520">
<ele>364.0</ele>
<speed>5.0</speed>
<course>131.9</course>
<desc>Speed 5.0 km/h Distance 1.33 km</desc>
<time>2010-02-28T16:22:59.51</time>
<name>833</name>
</trkpt>
<trkpt lat="48.984935" lon="8.668548">
<ele>364.5</ele>
<speed>4.2</speed>
<course>143.0</course>
<desc>Speed 4.2 km/h Distance 1.34 km</desc>
<time>2010-02-28T16:23:00.50</time>
<name>834</name>
</trkpt>
<trkpt lat="48.984923" lon="8.668562">
<ele>364.5</ele>
<speed>4.8</speed>
<course>133.4</course>
<desc>Speed 4.8 km/h Distance 1.34 km</desc>
<time>2010-02-28T16:23:01.51</time>
<name>835</name>
</trkpt>
<trkpt lat="48.984915" lon="8.668575">
<ele>365.0</ele>
<speed>4.4</speed>
<course>135.5</course>
<desc>Speed 4.4 km/h Distance 1.34 km</desc>
<time>2010-02-28T16:23:02.52</time>
<name>836</name>
</trkpt>
<trkpt lat="48.984905" lon="8.668590">
<ele>365.0</ele>
<speed>5.0</speed>
<course>140.6</course>
<desc>Speed 5.0 km/h Distance 1.34 km</desc>
<time>2010-02-28T16:23:03.52</time>
<name>837</name>
</trkpt>
<trkpt lat="48.984892" lon="8.668607">
<ele>365.5</ele>
<speed>5.0</speed>
<course>129.7</course>
<desc>Speed 5.0 km/h Distance 1.34 km</desc>
<time>2010-02-28T16:23:04.50</time>
<name>838</name>
</trkpt>
<trkpt lat="48.984882" lon="8.668625">
<ele>365.5</ele>
<speed>4.7</speed>
<course>133.6</course>
<desc>Speed 4.7 km/h Distance 1.34 km</desc>
<time>2010-02-28T16:23:05.53</time>
<name>839</name>
</trkpt>
<trkpt lat="48.984873" lon="8.668638">
<ele>365.0</ele>
<speed>4.5</speed>
<course>138.7</course>
<desc>Speed 4.5 km/h Distance 1.34 km</desc>
<time>2010-02-28T16:23:06.51</time>
<name>840</name>
</trkpt>
<trkpt lat="48.984863" lon="8.668652">
<ele>364.5</ele>
<speed>4.9</speed>
<course>138.8</course>
<desc>Speed 4.9 km/h Distance 1.35 km</desc>
<time>2010-02-28T16:23:07.51</time>
<name>841</name>
</trkpt>
<trkpt lat="48.984853" lon="8.668665">
<ele>364.0</ele>
<speed>4.8</speed>
<course>121.4</course>
<desc>Speed 4.8 km/h Distance 1.35 km</desc>
<time>2010-02-28T16:23:08.51</time>
<name>842</name>
</trkpt>
<trkpt lat="48.984843" lon="8.668690">
<ele>363.0</ele>
<speed>4.5</speed>
<course>150.6</course>
<desc>Speed 4.5 km/h Distance 1.35 km</desc>
<time>2010-02-28T16:23:09.50</time>
<name>843</name>
</trkpt>
<trkpt lat="48.984832" lon="8.668700">
<ele>363.0</ele>
<speed>4.9</speed>
<course>135.5</course>
<desc>Speed 4.9 km/h Distance 1.35 km</desc>
<time>2010-02-28T16:23:10.51</time>
<name>844</name>
</trkpt>
<trkpt lat="48.984818" lon="8.668720">
<ele>363.0</ele>
<speed>4.8</speed>
<course>131.0</course>
<desc>Speed 4.8 km/h Distance 1.35 km</desc>
<time>2010-02-28T16:23:11.51</time>
<name>845</name>
</trkpt>
<trkpt lat="48.984805" lon="8.668743">
<ele>362.5</ele>
<speed>4.7</speed>
<course>144.0</course>
<desc>Speed 4.7 km/h Distance 1.36 km</desc>
<time>2010-02-28T16:23:12.51</time>
<name>846</name>
</trkpt>
<trkpt lat="48.984790" lon="8.668760">
<ele>362.5</ele>
<speed>5.2</speed>
<course>136.9</course>
<desc>Speed 5.2 km/h Distance 1.36 km</desc>
<time>2010-02-28T16:23:13.50</time>
<name>847</name>
</trkpt>
<trkpt lat="48.984778" lon="8.668777">
<ele>362.0</ele>
<speed>4.6</speed>
<course>134.2</course>
<desc>Speed 4.6 km/h Distance 1.36 km</desc>
<time>2010-02-28T16:23:14.50</time>
<name>848</name>
</trkpt>
<trkpt lat="48.984767" lon="8.668795">
<ele>362.5</ele>
<speed>5.1</speed>
<course>140.6</course>
<desc>Speed 5.1 km/h Distance 1.36 km</desc>
<time>2010-02-28T16:23:15.50</time>
<name>849</name>
</trkpt>
<trkpt lat="48.984753" lon="8.668812">
<ele>362.5</ele>
<speed>5.0</speed>
<course>146.8</course>
<desc>Speed 5.0 km/h Distance 1.36 km</desc>
<time>2010-02-28T16:23:16.50</time>
<name>850</name>
</trkpt>
<trkpt lat="48.984743" lon="8.668822">
<ele>362.5</ele>
<speed>4.4</speed>
<course>139.8</course>
<desc>Speed 4.4 km/h Distance 1.36 km</desc>
<time>2010-02-28T16:23:17.51</time>
<name>851</name>
</trkpt>
<trkpt lat="48.984732" lon="8.668837">
<ele>362.0</ele>
<speed>4.8</speed>
<course>138.8</course>
<desc>Speed 4.8 km/h Distance 1.37 km</desc>
<time>2010-02-28T16:23:18.51</time>
<name>852</name>
</trkpt>
<trkpt lat="48.984722" lon="8.668850">
<ele>362.0</ele>
<speed>4.8</speed>
<course>135.5</course>
<desc>Speed 4.8 km/h Distance 1.37 km</desc>
<time>2010-02-28T16:23:19.51</time>
<name>853</name>
</trkpt>
<trkpt lat="48.984712" lon="8.668865">
<ele>362.0</ele>
<speed>4.9</speed>
<course>137.4</course>
<desc>Speed 4.9 km/h Distance 1.37 km</desc>
<time>2010-02-28T16:23:20.51</time>
<name>854</name>
</trkpt>
<trkpt lat="48.984703" lon="8.668877">
<ele>362.0</ele>
<speed>4.3</speed>
<course>142.7</course>
<desc>Speed 4.3 km/h Distance 1.37 km</desc>
<time>2010-02-28T16:23:21.50</time>
<name>855</name>
</trkpt>
<trkpt lat="48.984693" lon="8.668888">
<ele>362.0</ele>
<speed>4.9</speed>
<course>143.1</course>
<desc>Speed 4.9 km/h Distance 1.37 km</desc>
<time>2010-02-28T16:23:22.50</time>
<name>856</name>
</trkpt>
<trkpt lat="48.984682" lon="8.668902">
<ele>362.0</ele>
<speed>4.9</speed>
<course>146.8</course>
<desc>Speed 4.9 km/h Distance 1.37 km</desc>
<time>2010-02-28T16:23:23.50</time>
<name>857</name>
</trkpt>
<trkpt lat="48.984672" lon="8.668912">
<ele>362.0</ele>
<speed>4.4</speed>
<course>138.8</course>
<desc>Speed 4.4 km/h Distance 1.37 km</desc>
<time>2010-02-28T16:23:24.50</time>
<name>858</name>
</trkpt>
<trkpt lat="48.984662" lon="8.668925">
<ele>362.0</ele>
<speed>4.7</speed>
<course>138.8</course>
<desc>Speed 4.7 km/h Distance 1.38 km</desc>
<time>2010-02-28T16:23:25.50</time>
<name>859</name>
</trkpt>
<trkpt lat="48.984652" lon="8.668938">
<ele>361.5</ele>
<speed>5.0</speed>
<course>138.8</course>
<desc>Speed 5.0 km/h Distance 1.38 km</desc>
<time>2010-02-28T16:23:26.50</time>
<name>860</name>
</trkpt>
<trkpt lat="48.984642" lon="8.668952">
<ele>361.5</ele>
<speed>4.8</speed>
<course>140.6</course>
<desc>Speed 4.8 km/h Distance 1.38 km</desc>
<time>2010-02-28T16:23:27.50</time>
<name>861</name>
</trkpt>
<trkpt lat="48.984628" lon="8.668968">
<ele>362.5</ele>
<speed>4.6</speed>
<course>146.6</course>
<desc>Speed 4.6 km/h Distance 1.38 km</desc>
<time>2010-02-28T16:23:28.50</time>
<name>862</name>
</trkpt>
<trkpt lat="48.984617" lon="8.668980">
<ele>363.0</ele>
<speed>5.2</speed>
<course>150.8</course>
<desc>Speed 5.2 km/h Distance 1.38 km</desc>
<time>2010-02-28T16:23:29.50</time>
<name>863</name>
</trkpt>
<trkpt lat="48.984605" lon="8.668990">
<ele>363.5</ele>
<speed>4.5</speed>
<course>147.0</course>
<desc>Speed 4.5 km/h Distance 1.38 km</desc>
<time>2010-02-28T16:23:30.50</time>
<name>864</name>
</trkpt>
<trkpt lat="48.984595" lon="8.669000">
<ele>363.5</ele>
<speed>4.3</speed>
<course>146.7</course>
<desc>Speed 4.3 km/h Distance 1.39 km</desc>
<time>2010-02-28T16:23:31.50</time>
<name>865</name>
</trkpt>
<trkpt lat="48.984583" lon="8.669012">
<ele>364.0</ele>
<speed>5.2</speed>
<course>142.5</course>
<desc>Speed 5.2 km/h Distance 1.39 km</desc>
<time>2010-02-28T16:23:32.50</time>
<name>866</name>
</trkpt>
<trkpt lat="48.984573" lon="8.669023">
<ele>364.0</ele>
<speed>4.8</speed>
<course>143.2</course>
<desc>Speed 4.8 km/h Distance 1.39 km</desc>
<time>2010-02-28T16:23:33.50</time>
<name>867</name>
</trkpt>
<trkpt lat="48.984562" lon="8.669037">
<ele>364.5</ele>
<speed>5.0</speed>
<course>146.8</course>
<desc>Speed 5.0 km/h Distance 1.39 km</desc>
<time>2010-02-28T16:23:34.50</time>
<name>868</name>
</trkpt>
<trkpt lat="48.984548" lon="8.669050">
<ele>364.5</ele>
<speed>5.5</speed>
<course>143.1</course>
<desc>Speed 5.5 km/h Distance 1.39 km</desc>
<time>2010-02-28T16:23:35.50</time>
<name>869</name>
</trkpt>
<trkpt lat="48.984537" lon="8.669063">
<ele>365.0</ele>
<speed>5.0</speed>
<course>150.2</course>
<desc>Speed 5.0 km/h Distance 1.39 km</desc>
<time>2010-02-28T16:23:36.50</time>
<name>870</name>
</trkpt>
<trkpt lat="48.984523" lon="8.669075">
<ele>365.0</ele>
<speed>5.0</speed>
<course>142.5</course>
<desc>Speed 5.0 km/h Distance 1.40 km</desc>
<time>2010-02-28T16:23:37.51</time>
<name>871</name>
</trkpt>
<trkpt lat="48.984513" lon="8.669087">
<ele>365.0</ele>
<speed>4.9</speed>
<course>143.1</course>
<desc>Speed 4.9 km/h Distance 1.40 km</desc>
<time>2010-02-28T16:23:38.50</time>
<name>872</name>
</trkpt>
<trkpt lat="48.984502" lon="8.669100">
<ele>365.0</ele>
<speed>5.2</speed>
<course>143.1</course>
<desc>Speed 5.2 km/h Distance 1.40 km</desc>
<time>2010-02-28T16:23:39.49</time>
<name>873</name>
</trkpt>
<trkpt lat="48.984490" lon="8.669113">
<ele>365.0</ele>
<speed>5.0</speed>
<course>142.5</course>
<desc>Speed 5.0 km/h Distance 1.40 km</desc>
<time>2010-02-28T16:23:40.50</time>
<name>874</name>
</trkpt>
<trkpt lat="48.984480" lon="8.669125">
<ele>365.0</ele>
<speed>4.6</speed>
<course>138.8</course>
<desc>Speed 4.6 km/h Distance 1.40 km</desc>
<time>2010-02-28T16:23:41.49</time>
<name>875</name>
</trkpt>
<trkpt lat="48.984470" lon="8.669138">
<ele>365.0</ele>
<speed>4.8</speed>
<course>139.8</course>
<desc>Speed 4.8 km/h Distance 1.40 km</desc>
<time>2010-02-28T16:23:42.49</time>
<name>876</name>
</trkpt>
<trkpt lat="48.984458" lon="8.669153">
<ele>364.5</ele>
<speed>5.3</speed>
<course>146.6</course>
<desc>Speed 5.3 km/h Distance 1.40 km</desc>
<time>2010-02-28T16:23:43.49</time>
<name>877</name>
</trkpt>
<trkpt lat="48.984447" lon="8.669165">
<ele>364.5</ele>
<speed>4.9</speed>
<course>146.6</course>
<desc>Speed 4.9 km/h Distance 1.41 km</desc>
<time>2010-02-28T16:23:44.49</time>
<name>878</name>
</trkpt>
<trkpt lat="48.984435" lon="8.669177">
<ele>364.0</ele>
<speed>5.2</speed>
<course>143.1</course>
<desc>Speed 5.2 km/h Distance 1.41 km</desc>
<time>2010-02-28T16:23:45.49</time>
<name>879</name>
</trkpt>
<trkpt lat="48.984423" lon="8.669190">
<ele>364.0</ele>
<speed>5.5</speed>
<course>139.8</course>
<desc>Speed 5.5 km/h Distance 1.41 km</desc>
<time>2010-02-28T16:23:46.50</time>
<name>880</name>
</trkpt>
<trkpt lat="48.984412" lon="8.669205">
<ele>364.5</ele>
<speed>5.4</speed>
<course>142.5</course>
<desc>Speed 5.4 km/h Distance 1.41 km</desc>
<time>2010-02-28T16:23:47.49</time>
<name>881</name>
</trkpt>
<trkpt lat="48.984402" lon="8.669217">
<ele>364.0</ele>
<speed>4.8</speed>
<course>141.2</course>
<desc>Speed 4.8 km/h Distance 1.41 km</desc>
<time>2010-02-28T16:23:48.50</time>
<name>882</name>
</trkpt>
<trkpt lat="48.984387" lon="8.669235">
<ele>364.0</ele>
<speed>5.3</speed>
<course>146.6</course>
<desc>Speed 5.3 km/h Distance 1.41 km</desc>
<time>2010-02-28T16:23:49.49</time>
<name>883</name>
</trkpt>
<trkpt lat="48.984375" lon="8.669247">
<ele>364.5</ele>
<speed>5.0</speed>
<course>146.6</course>
<desc>Speed 5.0 km/h Distance 1.42 km</desc>
<time>2010-02-28T16:23:50.49</time>
<name>884</name>
</trkpt>
<trkpt lat="48.984362" lon="8.669260">
<ele>365.0</ele>
<speed>5.3</speed>
<course>139.8</course>
<desc>Speed 5.3 km/h Distance 1.42 km</desc>
<time>2010-02-28T16:23:51.49</time>
<name>885</name>
</trkpt>
<trkpt lat="48.984350" lon="8.669275">
<ele>364.0</ele>
<speed>5.8</speed>
<course>140.6</course>
<desc>Speed 5.8 km/h Distance 1.42 km</desc>
<time>2010-02-28T16:23:52.49</time>
<name>886</name>
</trkpt>
<trkpt lat="48.984337" lon="8.669292">
<ele>364.0</ele>
<speed>6.1</speed>
<course>136.8</course>
<desc>Speed 6.1 km/h Distance 1.42 km</desc>
<time>2010-02-28T16:23:53.50</time>
<name>887</name>
</trkpt>
<trkpt lat="48.984325" lon="8.669308">
<ele>363.5</ele>
<speed>5.8</speed>
<course>143.1</course>
<desc>Speed 5.8 km/h Distance 1.42 km</desc>
<time>2010-02-28T16:23:54.49</time>
<name>888</name>
</trkpt>
<trkpt lat="48.984313" lon="8.669322">
<ele>364.0</ele>
<speed>5.4</speed>
<course>146.7</course>
<desc>Speed 5.4 km/h Distance 1.42 km</desc>
<time>2010-02-28T16:23:55.49</time>
<name>889</name>
</trkpt>
<trkpt lat="48.984300" lon="8.669335">
<ele>364.5</ele>
<speed>5.6</speed>
<course>146.6</course>
<desc>Speed 5.6 km/h Distance 1.43 km</desc>
<time>2010-02-28T16:23:56.50</time>
<name>890</name>
</trkpt>
<trkpt lat="48.984288" lon="8.669347">
<ele>364.0</ele>
<speed>5.0</speed>
<course>133.6</course>
<desc>Speed 5.0 km/h Distance 1.43 km</desc>
<time>2010-02-28T16:23:57.50</time>
<name>891</name>
</trkpt>
<trkpt lat="48.984280" lon="8.669360">
<ele>364.0</ele>
<speed>4.9</speed>
<course>132.4</course>
<desc>Speed 4.9 km/h Distance 1.43 km</desc>
<time>2010-02-28T16:23:58.50</time>
<name>892</name>
</trkpt>
<trkpt lat="48.984270" lon="8.669377">
<ele>363.5</ele>
<speed>5.4</speed>
<course>150.0</course>
<desc>Speed 5.4 km/h Distance 1.43 km</desc>
<time>2010-02-28T16:23:59.49</time>
<name>893</name>
</trkpt>
<trkpt lat="48.984257" lon="8.669388">
<ele>363.5</ele>
<speed>5.5</speed>
<course>154.0</course>
<desc>Speed 5.5 km/h Distance 1.43 km</desc>
<time>2010-02-28T16:24:00.49</time>
<name>894</name>
</trkpt>
<trkpt lat="48.984243" lon="8.669398">
<ele>363.5</ele>
<speed>5.4</speed>
<course>150.0</course>
<desc>Speed 5.4 km/h Distance 1.43 km</desc>
<time>2010-02-28T16:24:01.49</time>
<name>895</name>
</trkpt>
<trkpt lat="48.984230" lon="8.669410">
<ele>363.5</ele>
<speed>5.3</speed>
<course>143.1</course>
<desc>Speed 5.3 km/h Distance 1.44 km</desc>
<time>2010-02-28T16:24:02.49</time>
<name>896</name>
</trkpt>
<trkpt lat="48.984218" lon="8.669423">
<ele>363.0</ele>
<speed>5.5</speed>
<course>143.1</course>
<desc>Speed 5.5 km/h Distance 1.44 km</desc>
<time>2010-02-28T16:24:03.48</time>
<name>897</name>
</trkpt>
<trkpt lat="48.984207" lon="8.669437">
<ele>363.5</ele>
<speed>5.4</speed>
<course>143.1</course>
<desc>Speed 5.4 km/h Distance 1.44 km</desc>
<time>2010-02-28T16:24:04.49</time>
<name>898</name>
</trkpt>
<trkpt lat="48.984195" lon="8.669450">
<ele>363.5</ele>
<speed>5.4</speed>
<course>146.6</course>
<desc>Speed 5.4 km/h Distance 1.44 km</desc>
<time>2010-02-28T16:24:05.50</time>
<name>899</name>
</trkpt>
<trkpt lat="48.984182" lon="8.669463">
<ele>363.5</ele>
<speed>5.7</speed>
<course>146.6</course>
<desc>Speed 5.7 km/h Distance 1.44 km</desc>
<time>2010-02-28T16:24:06.49</time>
<name>900</name>
</trkpt>
<trkpt lat="48.984170" lon="8.669475">
<ele>363.5</ele>
<speed>5.4</speed>
<course>146.6</course>
<desc>Speed 5.4 km/h Distance 1.44 km</desc>
<time>2010-02-28T16:24:07.50</time>
<name>901</name>
</trkpt>
<trkpt lat="48.984157" lon="8.669488">
<ele>363.5</ele>
<speed>5.7</speed>
<course>146.7</course>
<desc>Speed 5.7 km/h Distance 1.45 km</desc>
<time>2010-02-28T16:24:08.50</time>
<name>902</name>
</trkpt>
<trkpt lat="48.984143" lon="8.669502">
<ele>363.5</ele>
<speed>5.9</speed>
<course>143.1</course>
<desc>Speed 5.9 km/h Distance 1.45 km</desc>
<time>2010-02-28T16:24:09.50</time>
<name>903</name>
</trkpt>
<trkpt lat="48.984132" lon="8.669515">
<ele>363.5</ele>
<speed>5.6</speed>
<course>149.7</course>
<desc>Speed 5.6 km/h Distance 1.45 km</desc>
<time>2010-02-28T16:24:10.49</time>
<name>904</name>
</trkpt>
<trkpt lat="48.984117" lon="8.669528">
<ele>363.0</ele>
<speed>5.9</speed>
<course>136.8</course>
<desc>Speed 5.9 km/h Distance 1.45 km</desc>
<time>2010-02-28T16:24:11.48</time>
<name>905</name>
</trkpt>
<trkpt lat="48.984105" lon="8.669545">
<ele>362.5</ele>
<speed>6.0</speed>
<course>131.6</course>
<desc>Speed 6.0 km/h Distance 1.45 km</desc>
<time>2010-02-28T16:24:12.48</time>
<name>906</name>
</trkpt>
<trkpt lat="48.984093" lon="8.669565">
<ele>362.0</ele>
<speed>4.7</speed>
<course>138.0</course>
<desc>Speed 4.7 km/h Distance 1.46 km</desc>
<time>2010-02-28T16:24:13.48</time>
<name>907</name>
</trkpt>
<trkpt lat="48.984080" lon="8.669583">
<ele>362.0</ele>
<speed>5.1</speed>
<course>143.2</course>
<desc>Speed 5.1 km/h Distance 1.46 km</desc>
<time>2010-02-28T16:24:14.48</time>
<name>908</name>
</trkpt>
<trkpt lat="48.984068" lon="8.669597">
<ele>362.0</ele>
<speed>5.3</speed>
<course>146.9</course>
<desc>Speed 5.3 km/h Distance 1.46 km</desc>
<time>2010-02-28T16:24:15.48</time>
<name>909</name>
</trkpt>
<trkpt lat="48.984057" lon="8.669608">
<ele>362.0</ele>
<speed>5.0</speed>
<course>136.9</course>
<desc>Speed 5.0 km/h Distance 1.46 km</desc>
<time>2010-02-28T16:24:16.49</time>
<name>910</name>
</trkpt>
<trkpt lat="48.984045" lon="8.669625">
<ele>362.0</ele>
<speed>5.8</speed>
<course>139.8</course>
<desc>Speed 5.8 km/h Distance 1.46 km</desc>
<time>2010-02-28T16:24:17.48</time>
<name>911</name>
</trkpt>
<trkpt lat="48.984033" lon="8.669640">
<ele>362.0</ele>
<speed>5.0</speed>
<course>146.7</course>
<desc>Speed 5.0 km/h Distance 1.46 km</desc>
<time>2010-02-28T16:24:18.48</time>
<name>912</name>
</trkpt>
<trkpt lat="48.984022" lon="8.669652">
<ele>362.0</ele>
<speed>5.0</speed>
<course>142.7</course>
<desc>Speed 5.0 km/h Distance 1.47 km</desc>
<time>2010-02-28T16:24:19.49</time>
<name>913</name>
</trkpt>
<trkpt lat="48.984012" lon="8.669663">
<ele>362.5</ele>
<speed>5.0</speed>
<course>143.1</course>
<desc>Speed 5.0 km/h Distance 1.47 km</desc>
<time>2010-02-28T16:24:20.48</time>
<name>914</name>
</trkpt>
<trkpt lat="48.984000" lon="8.669677">
<ele>362.5</ele>
<speed>5.4</speed>
<course>135.5</course>
<desc>Speed 5.4 km/h Distance 1.47 km</desc>
<time>2010-02-28T16:24:21.48</time>
<name>915</name>
</trkpt>
<trkpt lat="48.983990" lon="8.669692">
<ele>362.5</ele>
<speed>5.4</speed>
<course>135.5</course>
<desc>Speed 5.4 km/h Distance 1.47 km</desc>
<time>2010-02-28T16:24:22.48</time>
<name>916</name>
</trkpt>
<trkpt lat="48.983980" lon="8.669707">
<ele>362.0</ele>
<speed>5.2</speed>
<course>139.8</course>
<desc>Speed 5.2 km/h Distance 1.47 km</desc>
<time>2010-02-28T16:24:23.49</time>
<name>917</name>
</trkpt>
<trkpt lat="48.983968" lon="8.669722">
<ele>362.0</ele>
<speed>5.0</speed>
<course>138.7</course>
<desc>Speed 5.0 km/h Distance 1.47 km</desc>
<time>2010-02-28T16:24:24.49</time>
<name>918</name>
</trkpt>
<trkpt lat="48.983958" lon="8.669735">
<ele>362.0</ele>
<speed>5.1</speed>
<course>146.6</course>
<desc>Speed 5.1 km/h Distance 1.47 km</desc>
<time>2010-02-28T16:24:25.48</time>
<name>919</name>
</trkpt>
<trkpt lat="48.983948" lon="8.669745">
<ele>362.5</ele>
<speed>4.5</speed>
<course>133.5</course>
<desc>Speed 4.5 km/h Distance 1.48 km</desc>
<time>2010-02-28T16:24:26.49</time>
<name>920</name>
</trkpt>
<trkpt lat="48.983940" lon="8.669758">
<ele>362.5</ele>
<speed>4.9</speed>
<course>135.5</course>
<desc>Speed 4.9 km/h Distance 1.48 km</desc>
<time>2010-02-28T16:24:27.49</time>
<name>921</name>
</trkpt>
<trkpt lat="48.983930" lon="8.669773">
<ele>363.0</ele>
<speed>4.8</speed>
<course>135.5</course>
<desc>Speed 4.8 km/h Distance 1.48 km</desc>
<time>2010-02-28T16:24:28.49</time>
<name>922</name>
</trkpt>
<trkpt lat="48.983920" lon="8.669788">
<ele>363.5</ele>
<speed>5.6</speed>
<course>136.9</course>
<desc>Speed 5.6 km/h Distance 1.48 km</desc>
<time>2010-02-28T16:24:29.48</time>
<name>923</name>
</trkpt>
<trkpt lat="48.983908" lon="8.669805">
<ele>363.5</ele>
<speed>5.7</speed>
<course>146.8</course>
<desc>Speed 5.7 km/h Distance 1.48 km</desc>
<time>2010-02-28T16:24:30.49</time>
<name>924</name>
</trkpt>
<trkpt lat="48.983898" lon="8.669815">
<ele>364.0</ele>
<speed>5.0</speed>
<course>143.1</course>
<desc>Speed 5.0 km/h Distance 1.48 km</desc>
<time>2010-02-28T16:24:31.49</time>
<name>925</name>
</trkpt>
<trkpt lat="48.983887" lon="8.669828">
<ele>364.5</ele>
<speed>5.5</speed>
<course>135.5</course>
<desc>Speed 5.5 km/h Distance 1.49 km</desc>
<time>2010-02-28T16:24:32.48</time>
<name>926</name>
</trkpt>
<trkpt lat="48.983877" lon="8.669843">
<ele>365.0</ele>
<speed>5.5</speed>
<course>135.5</course>
<desc>Speed 5.5 km/h Distance 1.49 km</desc>
<time>2010-02-28T16:24:33.48</time>
<name>927</name>
</trkpt>
<trkpt lat="48.983867" lon="8.669858">
<ele>365.0</ele>
<speed>5.4</speed>
<course>135.5</course>
<desc>Speed 5.4 km/h Distance 1.49 km</desc>
<time>2010-02-28T16:24:34.49</time>
<name>928</name>
</trkpt>
<trkpt lat="48.983857" lon="8.669873">
<ele>365.5</ele>
<speed>4.9</speed>
<course>132.4</course>
<desc>Speed 4.9 km/h Distance 1.49 km</desc>
<time>2010-02-28T16:24:35.49</time>
<name>929</name>
</trkpt>
<trkpt lat="48.983847" lon="8.669890">
<ele>366.0</ele>
<speed>5.4</speed>
<course>122.4</course>
<desc>Speed 5.4 km/h Distance 1.49 km</desc>
<time>2010-02-28T16:24:36.48</time>
<name>930</name>
</trkpt>
<trkpt lat="48.983838" lon="8.669910">
<ele>365.5</ele>
<speed>5.7</speed>
<course>135.5</course>
<desc>Speed 5.7 km/h Distance 1.49 km</desc>
<time>2010-02-28T16:24:37.48</time>
<name>931</name>
</trkpt>
<trkpt lat="48.983828" lon="8.669925">
<ele>366.0</ele>
<speed>5.2</speed>
<course>124.7</course>
<desc>Speed 5.2 km/h Distance 1.50 km</desc>
<time>2010-02-28T16:24:38.49</time>
<name>932</name>
</trkpt>
<trkpt lat="48.983820" lon="8.669943">
<ele>366.0</ele>
<speed>5.4</speed>
<course>136.8</course>
<desc>Speed 5.4 km/h Distance 1.50 km</desc>
<time>2010-02-28T16:24:39.49</time>
<name>933</name>
</trkpt>
<trkpt lat="48.983808" lon="8.669960">
<ele>366.0</ele>
<speed>5.4</speed>
<course>129.7</course>
<desc>Speed 5.4 km/h Distance 1.50 km</desc>
<time>2010-02-28T16:24:40.48</time>
<name>934</name>
</trkpt>
<trkpt lat="48.983798" lon="8.669978">
<ele>365.0</ele>
<speed>5.5</speed>
<course>135.5</course>
<desc>Speed 5.5 km/h Distance 1.50 km</desc>
<time>2010-02-28T16:24:41.49</time>
<name>935</name>
</trkpt>
<trkpt lat="48.983788" lon="8.669993">
<ele>365.5</ele>
<speed>5.3</speed>
<course>132.4</course>
<desc>Speed 5.3 km/h Distance 1.50 km</desc>
<time>2010-02-28T16:24:42.48</time>
<name>936</name>
</trkpt>
<trkpt lat="48.983778" lon="8.670010">
<ele>365.5</ele>
<speed>5.0</speed>
<course>135.5</course>
<desc>Speed 5.0 km/h Distance 1.50 km</desc>
<time>2010-02-28T16:24:43.49</time>
<name>937</name>
</trkpt>
<trkpt lat="48.983768" lon="8.670025">
<ele>365.5</ele>
<speed>5.7</speed>
<course>127.3</course>
<desc>Speed 5.7 km/h Distance 1.51 km</desc>
<time>2010-02-28T16:24:44.49</time>
<name>938</name>
</trkpt>
<trkpt lat="48.983758" lon="8.670045">
<ele>365.0</ele>
<speed>5.8</speed>
<course>129.7</course>
<desc>Speed 5.8 km/h Distance 1.51 km</desc>
<time>2010-02-28T16:24:45.48</time>
<name>939</name>
</trkpt>
<trkpt lat="48.983748" lon="8.670063">
<ele>364.5</ele>
<speed>5.7</speed>
<course>132.4</course>
<desc>Speed 5.7 km/h Distance 1.51 km</desc>
<time>2010-02-28T16:24:46.48</time>
<name>940</name>
</trkpt>
<trkpt lat="48.983738" lon="8.670080">
<ele>364.5</ele>
<speed>5.6</speed>
<course>129.7</course>
<desc>Speed 5.6 km/h Distance 1.51 km</desc>
<time>2010-02-28T16:24:47.48</time>
<name>941</name>
</trkpt>
<trkpt lat="48.983728" lon="8.670098">
<ele>364.5</ele>
<speed>5.8</speed>
<course>131.6</course>
<desc>Speed 5.8 km/h Distance 1.51 km</desc>
<time>2010-02-28T16:24:48.47</time>
<name>942</name>
</trkpt>
<trkpt lat="48.983717" lon="8.670118">
<ele>364.0</ele>
<speed>5.7</speed>
<course>135.5</course>
<desc>Speed 5.7 km/h Distance 1.51 km</desc>
<time>2010-02-28T16:24:49.48</time>
<name>943</name>
</trkpt>
<trkpt lat="48.983707" lon="8.670133">
<ele>364.0</ele>
<speed>5.4</speed>
<course>135.5</course>
<desc>Speed 5.4 km/h Distance 1.52 km</desc>
<time>2010-02-28T16:24:50.48</time>
<name>944</name>
</trkpt>
<trkpt lat="48.983697" lon="8.670148">
<ele>364.0</ele>
<speed>5.7</speed>
<course>138.8</course>
<desc>Speed 5.7 km/h Distance 1.52 km</desc>
<time>2010-02-28T16:24:51.47</time>
<name>945</name>
</trkpt>
<trkpt lat="48.983687" lon="8.670162">
<ele>364.0</ele>
<speed>4.9</speed>
<course>129.7</course>
<desc>Speed 4.9 km/h Distance 1.52 km</desc>
<time>2010-02-28T16:24:52.47</time>
<name>946</name>
</trkpt>
<trkpt lat="48.983677" lon="8.670180">
<ele>363.0</ele>
<speed>5.2</speed>
<course>139.8</course>
<desc>Speed 5.2 km/h Distance 1.52 km</desc>
<time>2010-02-28T16:24:53.47</time>
<name>947</name>
</trkpt>
<trkpt lat="48.983665" lon="8.670195">
<ele>363.0</ele>
<speed>5.2</speed>
<course>135.5</course>
<desc>Speed 5.2 km/h Distance 1.52 km</desc>
<time>2010-02-28T16:24:54.47</time>
<name>948</name>
</trkpt>
<trkpt lat="48.983655" lon="8.670210">
<ele>363.0</ele>
<speed>5.4</speed>
<course>132.4</course>
<desc>Speed 5.4 km/h Distance 1.52 km</desc>
<time>2010-02-28T16:24:55.48</time>
<name>949</name>
</trkpt>
<trkpt lat="48.983645" lon="8.670227">
<ele>363.0</ele>
<speed>5.7</speed>
<course>134.1</course>
<desc>Speed 5.7 km/h Distance 1.53 km</desc>
<time>2010-02-28T16:24:56.48</time>
<name>950</name>
</trkpt>
<trkpt lat="48.983633" lon="8.670245">
<ele>362.5</ele>
<speed>5.7</speed>
<course>135.5</course>
<desc>Speed 5.7 km/h Distance 1.53 km</desc>
<time>2010-02-28T16:24:57.47</time>
<name>951</name>
</trkpt>
<trkpt lat="48.983623" lon="8.670260">
<ele>363.0</ele>
<speed>5.9</speed>
<course>136.9</course>
<desc>Speed 5.9 km/h Distance 1.53 km</desc>
<time>2010-02-28T16:24:58.48</time>
<name>952</name>
</trkpt>
<trkpt lat="48.983612" lon="8.670277">
<ele>362.5</ele>
<speed>5.4</speed>
<course>138.8</course>
<desc>Speed 5.4 km/h Distance 1.53 km</desc>
<time>2010-02-28T16:24:59.47</time>
<name>953</name>
</trkpt>
<trkpt lat="48.983602" lon="8.670290">
<ele>362.5</ele>
<speed>5.7</speed>
<course>134.1</course>
<desc>Speed 5.7 km/h Distance 1.53 km</desc>
<time>2010-02-28T16:25:00.47</time>
<name>954</name>
</trkpt>
<trkpt lat="48.983590" lon="8.670308">
<ele>362.5</ele>
<speed>5.6</speed>
<course>132.4</course>
<desc>Speed 5.6 km/h Distance 1.53 km</desc>
<time>2010-02-28T16:25:01.47</time>
<name>955</name>
</trkpt>
<trkpt lat="48.983580" lon="8.670325">
<ele>362.5</ele>
<speed>5.7</speed>
<course>131.7</course>
<desc>Speed 5.7 km/h Distance 1.54 km</desc>
<time>2010-02-28T16:25:02.47</time>
<name>956</name>
</trkpt>
<trkpt lat="48.983568" lon="8.670345">
<ele>362.5</ele>
<speed>5.8</speed>
<course>127.4</course>
<desc>Speed 5.8 km/h Distance 1.54 km</desc>
<time>2010-02-28T16:25:03.47</time>
<name>957</name>
</trkpt>
<trkpt lat="48.983558" lon="8.670365">
<ele>362.0</ele>
<speed>6.0</speed>
<course>131.6</course>
<desc>Speed 6.0 km/h Distance 1.54 km</desc>
<time>2010-02-28T16:25:04.47</time>
<name>958</name>
</trkpt>
<trkpt lat="48.983547" lon="8.670385">
<ele>362.0</ele>
<speed>6.0</speed>
<course>131.6</course>
<desc>Speed 6.0 km/h Distance 1.54 km</desc>
<time>2010-02-28T16:25:05.47</time>
<name>959</name>
</trkpt>
<trkpt lat="48.983535" lon="8.670405">
<ele>361.5</ele>
<speed>6.1</speed>
<course>129.7</course>
<desc>Speed 6.1 km/h Distance 1.54 km</desc>
<time>2010-02-28T16:25:06.47</time>
<name>960</name>
</trkpt>
<trkpt lat="48.983525" lon="8.670423">
<ele>361.5</ele>
<speed>5.9</speed>
<course>131.6</course>
<desc>Speed 5.9 km/h Distance 1.54 km</desc>
<time>2010-02-28T16:25:07.47</time>
<name>961</name>
</trkpt>
<trkpt lat="48.983513" lon="8.670443">
<ele>360.5</ele>
<speed>6.1</speed>
<course>129.7</course>
<desc>Speed 6.1 km/h Distance 1.55 km</desc>
<time>2010-02-28T16:25:08.47</time>
<name>962</name>
</trkpt>
<trkpt lat="48.983503" lon="8.670462">
<ele>360.5</ele>
<speed>5.9</speed>
<course>129.4</course>
<desc>Speed 5.9 km/h Distance 1.55 km</desc>
<time>2010-02-28T16:25:09.47</time>
<name>963</name>
</trkpt>
<trkpt lat="48.983492" lon="8.670483">
<ele>360.0</ele>
<speed>6.3</speed>
<course>136.9</course>
<desc>Speed 6.3 km/h Distance 1.55 km</desc>
<time>2010-02-28T16:25:10.48</time>
<name>964</name>
</trkpt>
<trkpt lat="48.983480" lon="8.670500">
<ele>359.5</ele>
<speed>6.1</speed>
<course>131.6</course>
<desc>Speed 6.1 km/h Distance 1.55 km</desc>
<time>2010-02-28T16:25:11.47</time>
<name>965</name>
</trkpt>
<trkpt lat="48.983468" lon="8.670520">
<ele>359.5</ele>
<speed>6.3</speed>
<course>138.0</course>
<desc>Speed 6.3 km/h Distance 1.55 km</desc>
<time>2010-02-28T16:25:12.47</time>
<name>966</name>
</trkpt>
<trkpt lat="48.983455" lon="8.670538">
<ele>359.5</ele>
<speed>6.4</speed>
<course>127.3</course>
<desc>Speed 6.4 km/h Distance 1.56 km</desc>
<time>2010-02-28T16:25:13.47</time>
<name>967</name>
</trkpt>
<trkpt lat="48.983445" lon="8.670558">
<ele>359.5</ele>
<speed>5.9</speed>
<course>131.7</course>
<desc>Speed 5.9 km/h Distance 1.56 km</desc>
<time>2010-02-28T16:25:14.47</time>
<name>968</name>
</trkpt>
<trkpt lat="48.983433" lon="8.670578">
<ele>359.5</ele>
<speed>6.1</speed>
<course>127.3</course>
<desc>Speed 6.1 km/h Distance 1.56 km</desc>
<time>2010-02-28T16:25:15.47</time>
<name>969</name>
</trkpt>
<trkpt lat="48.983423" lon="8.670598">
<ele>359.5</ele>
<speed>6.2</speed>
<course>134.1</course>
<desc>Speed 6.2 km/h Distance 1.56 km</desc>
<time>2010-02-28T16:25:16.47</time>
<name>970</name>
</trkpt>
<trkpt lat="48.983412" lon="8.670617">
<ele>359.5</ele>
<speed>6.3</speed>
<course>131.6</course>
<desc>Speed 6.3 km/h Distance 1.56 km</desc>
<time>2010-02-28T16:25:17.47</time>
<name>971</name>
</trkpt>
<trkpt lat="48.983400" lon="8.670637">
<ele>359.5</ele>
<speed>6.3</speed>
<course>134.1</course>
<desc>Speed 6.3 km/h Distance 1.57 km</desc>
<time>2010-02-28T16:25:18.47</time>
<name>972</name>
</trkpt>
<trkpt lat="48.983388" lon="8.670655">
<ele>359.5</ele>
<speed>6.2</speed>
<course>134.1</course>
<desc>Speed 6.2 km/h Distance 1.57 km</desc>
<time>2010-02-28T16:25:19.47</time>
<name>973</name>
</trkpt>
<trkpt lat="48.983377" lon="8.670673">
<ele>359.5</ele>
<speed>6.4</speed>
<course>134.1</course>
<desc>Speed 6.4 km/h Distance 1.57 km</desc>
<time>2010-02-28T16:25:20.46</time>
<name>974</name>
</trkpt>
<trkpt lat="48.983365" lon="8.670692">
<ele>359.0</ele>
<speed>6.2</speed>
<course>134.2</course>
<desc>Speed 6.2 km/h Distance 1.57 km</desc>
<time>2010-02-28T16:25:21.46</time>
<name>975</name>
</trkpt>
<trkpt lat="48.983353" lon="8.670710">
<ele>359.0</ele>
<speed>6.0</speed>
<course>127.4</course>
<desc>Speed 6.0 km/h Distance 1.57 km</desc>
<time>2010-02-28T16:25:22.46</time>
<name>976</name>
</trkpt>
<trkpt lat="48.983343" lon="8.670730">
<ele>359.0</ele>
<speed>6.2</speed>
<course>125.1</course>
<desc>Speed 6.2 km/h Distance 1.58 km</desc>
<time>2010-02-28T16:25:23.47</time>
<name>977</name>
</trkpt>
<trkpt lat="48.983333" lon="8.670752">
<ele>358.5</ele>
<speed>6.4</speed>
<course>125.1</course>
<desc>Speed 6.4 km/h Distance 1.58 km</desc>
<time>2010-02-28T16:25:24.47</time>
<name>978</name>
</trkpt>
<trkpt lat="48.983323" lon="8.670773">
<ele>358.0</ele>
<speed>6.2</speed>
<course>135.5</course>
<desc>Speed 6.2 km/h Distance 1.58 km</desc>
<time>2010-02-28T16:25:25.47</time>
<name>979</name>
</trkpt>
<trkpt lat="48.983310" lon="8.670793">
<ele>358.5</ele>
<speed>6.5</speed>
<course>129.7</course>
<desc>Speed 6.5 km/h Distance 1.58 km</desc>
<time>2010-02-28T16:25:26.47</time>
<name>980</name>
</trkpt>
<trkpt lat="48.983300" lon="8.670812">
<ele>358.0</ele>
<speed>6.2</speed>
<course>125.0</course>
<desc>Speed 6.2 km/h Distance 1.58 km</desc>
<time>2010-02-28T16:25:27.48</time>
<name>981</name>
</trkpt>
<trkpt lat="48.983290" lon="8.670833">
<ele>358.0</ele>
<speed>6.4</speed>
<course>129.7</course>
<desc>Speed 6.4 km/h Distance 1.58 km</desc>
<time>2010-02-28T16:25:28.46</time>
<name>982</name>
</trkpt>
<trkpt lat="48.983280" lon="8.670852">
<ele>357.5</ele>
<speed>5.5</speed>
<course>129.8</course>
<desc>Speed 5.5 km/h Distance 1.59 km</desc>
<time>2010-02-28T16:25:29.46</time>
<name>983</name>
</trkpt>
<trkpt lat="48.983270" lon="8.670870">
<ele>357.0</ele>
<speed>6.0</speed>
<course>134.1</course>
<desc>Speed 6.0 km/h Distance 1.59 km</desc>
<time>2010-02-28T16:25:30.46</time>
<name>984</name>
</trkpt>
<trkpt lat="48.983258" lon="8.670888">
<ele>357.0</ele>
<speed>6.0</speed>
<course>129.4</course>
<desc>Speed 6.0 km/h Distance 1.59 km</desc>
<time>2010-02-28T16:25:31.46</time>
<name>985</name>
</trkpt>
<trkpt lat="48.983247" lon="8.670910">
<ele>356.5</ele>
<speed>6.3</speed>
<course>134.1</course>
<desc>Speed 6.3 km/h Distance 1.59 km</desc>
<time>2010-02-28T16:25:32.46</time>
<name>986</name>
</trkpt>
<trkpt lat="48.983235" lon="8.670928">
<ele>356.5</ele>
<speed>6.1</speed>
<course>131.7</course>
<desc>Speed 6.1 km/h Distance 1.59 km</desc>
<time>2010-02-28T16:25:33.46</time>
<name>987</name>
</trkpt>
<trkpt lat="48.983223" lon="8.670948">
<ele>356.0</ele>
<speed>6.3</speed>
<course>125.1</course>
<desc>Speed 6.3 km/h Distance 1.60 km</desc>
<time>2010-02-28T16:25:34.46</time>
<name>988</name>
</trkpt>
<trkpt lat="48.983213" lon="8.670970">
<ele>356.0</ele>
<speed>6.3</speed>
<course>131.7</course>
<desc>Speed 6.3 km/h Distance 1.60 km</desc>
<time>2010-02-28T16:25:35.46</time>
<name>989</name>
</trkpt>
<trkpt lat="48.983202" lon="8.670990">
<ele>356.0</ele>
<speed>6.4</speed>
<course>136.8</course>
<desc>Speed 6.4 km/h Distance 1.60 km</desc>
<time>2010-02-28T16:25:36.46</time>
<name>990</name>
</trkpt>
<trkpt lat="48.983190" lon="8.671007">
<ele>356.0</ele>
<speed>6.2</speed>
<course>127.3</course>
<desc>Speed 6.2 km/h Distance 1.60 km</desc>
<time>2010-02-28T16:25:37.46</time>
<name>991</name>
</trkpt>
<trkpt lat="48.983180" lon="8.671027">
<ele>355.5</ele>
<speed>6.3</speed>
<course>131.7</course>
<desc>Speed 6.3 km/h Distance 1.60 km</desc>
<time>2010-02-28T16:25:38.46</time>
<name>992</name>
</trkpt>
<trkpt lat="48.983168" lon="8.671047">
<ele>355.0</ele>
<speed>6.0</speed>
<course>125.1</course>
<desc>Speed 6.0 km/h Distance 1.61 km</desc>
<time>2010-02-28T16:25:39.47</time>
<name>993</name>
</trkpt>
<trkpt lat="48.983158" lon="8.671068">
<ele>354.0</ele>
<speed>6.2</speed>
<course>129.7</course>
<desc>Speed 6.2 km/h Distance 1.61 km</desc>
<time>2010-02-28T16:25:40.46</time>
<name>994</name>
</trkpt>
<trkpt lat="48.983148" lon="8.671087">
<ele>354.0</ele>
<speed>6.2</speed>
<course>131.7</course>
<desc>Speed 6.2 km/h Distance 1.61 km</desc>
<time>2010-02-28T16:25:41.46</time>
<name>995</name>
</trkpt>
<trkpt lat="48.983137" lon="8.671107">
<ele>354.0</ele>
<speed>6.4</speed>
<course>131.7</course>
<desc>Speed 6.4 km/h Distance 1.61 km</desc>
<time>2010-02-28T16:25:42.46</time>
<name>996</name>
</trkpt>
<trkpt lat="48.983125" lon="8.671127">
<ele>354.0</ele>
<speed>6.2</speed>
<course>134.2</course>
<desc>Speed 6.2 km/h Distance 1.61 km</desc>
<time>2010-02-28T16:25:43.46</time>
<name>997</name>
</trkpt>
<trkpt lat="48.983113" lon="8.671145">
<ele>354.0</ele>
<speed>6.2</speed>
<course>136.9</course>
<desc>Speed 6.2 km/h Distance 1.61 km</desc>
<time>2010-02-28T16:25:44.46</time>
<name>998</name>
</trkpt>
<trkpt lat="48.983102" lon="8.671162">
<ele>354.0</ele>
<speed>6.1</speed>
<course>129.7</course>
<desc>Speed 6.1 km/h Distance 1.62 km</desc>
<time>2010-02-28T16:25:45.46</time>
<name>999</name>
</trkpt>
<trkpt lat="48.983092" lon="8.671180">
<ele>354.0</ele>
<speed>6.1</speed>
<course>134.1</course>
<desc>Speed 6.1 km/h Distance 1.62 km</desc>
<time>2010-02-28T16:25:46.46</time>
<name>1000</name>
</trkpt>
<trkpt lat="48.983080" lon="8.671198">
<ele>354.0</ele>
<speed>6.1</speed>
<course>134.1</course>
<desc>Speed 6.1 km/h Distance 1.62 km</desc>
<time>2010-02-28T16:25:47.46</time>
<name>1001</name>
</trkpt>
<trkpt lat="48.983068" lon="8.671217">
<ele>354.0</ele>
<speed>6.2</speed>
<course>127.3</course>
<desc>Speed 6.2 km/h Distance 1.62 km</desc>
<time>2010-02-28T16:25:48.46</time>
<name>1002</name>
</trkpt>
<trkpt lat="48.983058" lon="8.671237">
<ele>354.0</ele>
<speed>6.1</speed>
<course>134.1</course>
<desc>Speed 6.1 km/h Distance 1.62 km</desc>
<time>2010-02-28T16:25:49.46</time>
<name>1003</name>
</trkpt>
<trkpt lat="48.983047" lon="8.671255">
<ele>354.0</ele>
<speed>6.2</speed>
<course>133.1</course>
<desc>Speed 6.2 km/h Distance 1.63 km</desc>
<time>2010-02-28T16:25:50.46</time>
<name>1004</name>
</trkpt>
<trkpt lat="48.983033" lon="8.671277">
<ele>354.5</ele>
<speed>6.1</speed>
<course>132.4</course>
<desc>Speed 6.1 km/h Distance 1.63 km</desc>
<time>2010-02-28T16:25:51.46</time>
<name>1005</name>
</trkpt>
<trkpt lat="48.983023" lon="8.671293">
<ele>354.5</ele>
<speed>6.0</speed>
<course>136.7</course>
<desc>Speed 6.0 km/h Distance 1.63 km</desc>
<time>2010-02-28T16:25:52.46</time>
<name>1006</name>
</trkpt>
<trkpt lat="48.983012" lon="8.671310">
<ele>355.0</ele>
<speed>6.1</speed>
<course>136.7</course>
<desc>Speed 6.1 km/h Distance 1.63 km</desc>
<time>2010-02-28T16:25:53.46</time>
<name>1007</name>
</trkpt>
<trkpt lat="48.983000" lon="8.671327">
<ele>354.5</ele>
<speed>6.0</speed>
<course>134.1</course>
<desc>Speed 6.0 km/h Distance 1.63 km</desc>
<time>2010-02-28T16:25:54.46</time>
<name>1008</name>
</trkpt>
<trkpt lat="48.982988" lon="8.671345">
<ele>355.0</ele>
<speed>6.2</speed>
<course>127.3</course>
<desc>Speed 6.2 km/h Distance 1.64 km</desc>
<time>2010-02-28T16:25:55.46</time>
<name>1009</name>
</trkpt>
<trkpt lat="48.982978" lon="8.671365">
<ele>354.5</ele>
<speed>6.0</speed>
<course>129.8</course>
<desc>Speed 6.0 km/h Distance 1.64 km</desc>
<time>2010-02-28T16:25:56.46</time>
<name>1010</name>
</trkpt>
<trkpt lat="48.982968" lon="8.671383">
<ele>355.0</ele>
<speed>6.0</speed>
<course>136.8</course>
<desc>Speed 6.0 km/h Distance 1.64 km</desc>
<time>2010-02-28T16:25:57.46</time>
<name>1011</name>
</trkpt>
<trkpt lat="48.982957" lon="8.671400">
<ele>355.0</ele>
<speed>6.0</speed>
<course>132.5</course>
<desc>Speed 6.0 km/h Distance 1.64 km</desc>
<time>2010-02-28T16:25:58.46</time>
<name>1012</name>
</trkpt>
<trkpt lat="48.982947" lon="8.671417">
<ele>354.5</ele>
<speed>6.0</speed>
<course>136.9</course>
<desc>Speed 6.0 km/h Distance 1.64 km</desc>
<time>2010-02-28T16:25:59.46</time>
<name>1013</name>
</trkpt>
<trkpt lat="48.982935" lon="8.671433">
<ele>354.5</ele>
<speed>5.9</speed>
<course>124.7</course>
<desc>Speed 5.9 km/h Distance 1.64 km</desc>
<time>2010-02-28T16:26:00.46</time>
<name>1014</name>
</trkpt>
<trkpt lat="48.982927" lon="8.671452">
<ele>354.5</ele>
<speed>6.0</speed>
<course>129.7</course>
<desc>Speed 6.0 km/h Distance 1.65 km</desc>
<time>2010-02-28T16:26:01.46</time>
<name>1015</name>
</trkpt>
<trkpt lat="48.982917" lon="8.671470">
<ele>354.5</ele>
<speed>6.0</speed>
<course>127.3</course>
<desc>Speed 6.0 km/h Distance 1.65 km</desc>
<time>2010-02-28T16:26:02.45</time>
<name>1016</name>
</trkpt>
<trkpt lat="48.982907" lon="8.671490">
<ele>354.5</ele>
<speed>6.0</speed>
<course>127.3</course>
<desc>Speed 6.0 km/h Distance 1.65 km</desc>
<time>2010-02-28T16:26:03.45</time>
<name>1017</name>
</trkpt>
<trkpt lat="48.982897" lon="8.671510">
<ele>354.5</ele>
<speed>6.1</speed>
<course>127.3</course>
<desc>Speed 6.1 km/h Distance 1.65 km</desc>
<time>2010-02-28T16:26:04.46</time>
<name>1018</name>
</trkpt>
<trkpt lat="48.982887" lon="8.671530">
<ele>354.5</ele>
<speed>6.1</speed>
<course>136.7</course>
<desc>Speed 6.1 km/h Distance 1.65 km</desc>
<time>2010-02-28T16:26:05.45</time>
<name>1019</name>
</trkpt>
<trkpt lat="48.982875" lon="8.671547">
<ele>354.0</ele>
<speed>6.1</speed>
<course>130.6</course>
<desc>Speed 6.1 km/h Distance 1.65 km</desc>
<time>2010-02-28T16:26:06.45</time>
<name>1020</name>
</trkpt>
<trkpt lat="48.982860" lon="8.671573">
<ele>354.5</ele>
<speed>6.2</speed>
<course>128.9</course>
<desc>Speed 6.2 km/h Distance 1.66 km</desc>
<time>2010-02-28T16:26:07.45</time>
<name>1021</name>
</trkpt>
<trkpt lat="48.982845" lon="8.671602">
<ele>355.0</ele>
<speed>6.3</speed>
<course>133.6</course>
<desc>Speed 6.3 km/h Distance 1.66 km</desc>
<time>2010-02-28T16:26:08.45</time>
<name>1022</name>
</trkpt>
<trkpt lat="48.982828" lon="8.671628">
<ele>355.5</ele>
<speed>6.2</speed>
<course>129.4</course>
<desc>Speed 6.2 km/h Distance 1.66 km</desc>
<time>2010-02-28T16:26:09.46</time>
<name>1023</name>
</trkpt>
<trkpt lat="48.982817" lon="8.671650">
<ele>355.5</ele>
<speed>6.1</speed>
<course>135.5</course>
<desc>Speed 6.1 km/h Distance 1.66 km</desc>
<time>2010-02-28T16:26:10.46</time>
<name>1024</name>
</trkpt>
<trkpt lat="48.982803" lon="8.671670">
<ele>355.0</ele>
<speed>6.3</speed>
<course>134.1</course>
<desc>Speed 6.3 km/h Distance 1.67 km</desc>
<time>2010-02-28T16:26:11.45</time>
<name>1025</name>
</trkpt>
<trkpt lat="48.982792" lon="8.671688">
<ele>355.0</ele>
<speed>6.2</speed>
<course>134.2</course>
<desc>Speed 6.2 km/h Distance 1.67 km</desc>
<time>2010-02-28T16:26:12.46</time>
<name>1026</name>
</trkpt>
<trkpt lat="48.982780" lon="8.671707">
<ele>355.0</ele>
<speed>6.4</speed>
<course>131.6</course>
<desc>Speed 6.4 km/h Distance 1.67 km</desc>
<time>2010-02-28T16:26:13.45</time>
<name>1027</name>
</trkpt>
<trkpt lat="48.982768" lon="8.671727">
<ele>355.0</ele>
<speed>6.1</speed>
<course>131.6</course>
<desc>Speed 6.1 km/h Distance 1.67 km</desc>
<time>2010-02-28T16:26:14.45</time>
<name>1028</name>
</trkpt>
<trkpt lat="48.982757" lon="8.671747">
<ele>355.0</ele>
<speed>6.0</speed>
<course>127.3</course>
<desc>Speed 6.0 km/h Distance 1.67 km</desc>
<time>2010-02-28T16:26:15.45</time>
<name>1029</name>
</trkpt>
<trkpt lat="48.982745" lon="8.671770">
<ele>355.0</ele>
<speed>6.4</speed>
<course>127.3</course>
<desc>Speed 6.4 km/h Distance 1.68 km</desc>
<time>2010-02-28T16:26:16.45</time>
<name>1030</name>
</trkpt>
<trkpt lat="48.982732" lon="8.671797">
<ele>355.0</ele>
<speed>6.2</speed>
<course>129.1</course>
<desc>Speed 6.2 km/h Distance 1.68 km</desc>
<time>2010-02-28T16:26:17.45</time>
<name>1031</name>
</trkpt>
<trkpt lat="48.982718" lon="8.671822">
<ele>354.5</ele>
<speed>6.3</speed>
<course>129.1</course>
<desc>Speed 6.3 km/h Distance 1.68 km</desc>
<time>2010-02-28T16:26:18.45</time>
<name>1032</name>
</trkpt>
<trkpt lat="48.982705" lon="8.671847">
<ele>354.5</ele>
<speed>6.2</speed>
<course>125.0</course>
<desc>Speed 6.2 km/h Distance 1.68 km</desc>
<time>2010-02-28T16:26:19.45</time>
<name>1033</name>
</trkpt>
<trkpt lat="48.982695" lon="8.671868">
<ele>354.0</ele>
<speed>6.2</speed>
<course>125.1</course>
<desc>Speed 6.2 km/h Distance 1.69 km</desc>
<time>2010-02-28T16:26:20.45</time>
<name>1034</name>
</trkpt>
<trkpt lat="48.982685" lon="8.671890">
<ele>353.5</ele>
<speed>6.4</speed>
<course>125.1</course>
<desc>Speed 6.4 km/h Distance 1.69 km</desc>
<time>2010-02-28T16:26:21.45</time>
<name>1035</name>
</trkpt>
<trkpt lat="48.982675" lon="8.671912">
<ele>353.5</ele>
<speed>6.1</speed>
<course>129.4</course>
<desc>Speed 6.1 km/h Distance 1.69 km</desc>
<time>2010-02-28T16:26:22.45</time>
<name>1036</name>
</trkpt>
<trkpt lat="48.982663" lon="8.671933">
<ele>353.0</ele>
<speed>6.0</speed>
<course>132.4</course>
<desc>Speed 6.0 km/h Distance 1.69 km</desc>
<time>2010-02-28T16:26:23.45</time>
<name>1037</name>
</trkpt>
<trkpt lat="48.982653" lon="8.671950">
<ele>353.0</ele>
<speed>5.7</speed>
<course>132.4</course>
<desc>Speed 5.7 km/h Distance 1.69 km</desc>
<time>2010-02-28T16:26:24.45</time>
<name>1038</name>
</trkpt>
<trkpt lat="48.982643" lon="8.671967">
<ele>353.0</ele>
<speed>5.8</speed>
<course>127.3</course>
<desc>Speed 5.8 km/h Distance 1.69 km</desc>
<time>2010-02-28T16:26:25.45</time>
<name>1039</name>
</trkpt>
<trkpt lat="48.982633" lon="8.671987">
<ele>353.0</ele>
<speed>5.8</speed>
<course>129.7</course>
<desc>Speed 5.8 km/h Distance 1.70 km</desc>
<time>2010-02-28T16:26:26.45</time>
<name>1040</name>
</trkpt>
<trkpt lat="48.982623" lon="8.672005">
<ele>353.0</ele>
<speed>6.2</speed>
<course>129.9</course>
<desc>Speed 6.2 km/h Distance 1.70 km</desc>
<time>2010-02-28T16:26:27.45</time>
<name>1041</name>
</trkpt>
<trkpt lat="48.982613" lon="8.672023">
<ele>353.0</ele>
<speed>6.2</speed>
<course>132.5</course>
<desc>Speed 6.2 km/h Distance 1.70 km</desc>
<time>2010-02-28T16:26:28.44</time>
<name>1042</name>
</trkpt>
<trkpt lat="48.982603" lon="8.672040">
<ele>353.0</ele>
<speed>6.0</speed>
<course>136.9</course>
<desc>Speed 6.0 km/h Distance 1.70 km</desc>
<time>2010-02-28T16:26:29.44</time>
<name>1043</name>
</trkpt>
<trkpt lat="48.982592" lon="8.672057">
<ele>353.0</ele>
<speed>5.8</speed>
<course>129.7</course>
<desc>Speed 5.8 km/h Distance 1.70 km</desc>
<time>2010-02-28T16:26:30.45</time>
<name>1044</name>
</trkpt>
<trkpt lat="48.982582" lon="8.672075">
<ele>353.0</ele>
<speed>5.9</speed>
<course>132.5</course>
<desc>Speed 5.9 km/h Distance 1.71 km</desc>
<time>2010-02-28T16:26:31.44</time>
<name>1045</name>
</trkpt>
<trkpt lat="48.982572" lon="8.672092">
<ele>353.0</ele>
<speed>5.8</speed>
<course>134.2</course>
<desc>Speed 5.8 km/h Distance 1.71 km</desc>
<time>2010-02-28T16:26:32.45</time>
<name>1046</name>
</trkpt>
<trkpt lat="48.982560" lon="8.672110">
<ele>353.5</ele>
<speed>6.0</speed>
<course>129.9</course>
<desc>Speed 6.0 km/h Distance 1.71 km</desc>
<time>2010-02-28T16:26:33.44</time>
<name>1047</name>
</trkpt>
<trkpt lat="48.982550" lon="8.672128">
<ele>353.5</ele>
<speed>6.2</speed>
<course>131.7</course>
<desc>Speed 6.2 km/h Distance 1.71 km</desc>
<time>2010-02-28T16:26:34.44</time>
<name>1048</name>
</trkpt>
<trkpt lat="48.982538" lon="8.672148">
<ele>353.5</ele>
<speed>6.2</speed>
<course>129.7</course>
<desc>Speed 6.2 km/h Distance 1.71 km</desc>
<time>2010-02-28T16:26:35.44</time>
<name>1049</name>
</trkpt>
<trkpt lat="48.982528" lon="8.672167">
<ele>353.5</ele>
<speed>5.9</speed>
<course>125.1</course>
<desc>Speed 5.9 km/h Distance 1.71 km</desc>
<time>2010-02-28T16:26:36.45</time>
<name>1050</name>
</trkpt>
<trkpt lat="48.982518" lon="8.672188">
<ele>353.5</ele>
<speed>6.2</speed>
<course>131.7</course>
<desc>Speed 6.2 km/h Distance 1.72 km</desc>
<time>2010-02-28T16:26:37.44</time>
<name>1051</name>
</trkpt>
<trkpt lat="48.982507" lon="8.672208">
<ele>353.0</ele>
<speed>6.2</speed>
<course>134.2</course>
<desc>Speed 6.2 km/h Distance 1.72 km</desc>
<time>2010-02-28T16:26:38.44</time>
<name>1052</name>
</trkpt>
<trkpt lat="48.982495" lon="8.672227">
<ele>353.0</ele>
<speed>6.0</speed>
<course>132.6</course>
<desc>Speed 6.0 km/h Distance 1.72 km</desc>
<time>2010-02-28T16:26:39.47</time>
<name>1053</name>
</trkpt>
<trkpt lat="48.982485" lon="8.672243">
<ele>352.5</ele>
<speed>5.9</speed>
<course>134.2</course>
<desc>Speed 5.9 km/h Distance 1.72 km</desc>
<time>2010-02-28T16:26:40.45</time>
<name>1054</name>
</trkpt>
<trkpt lat="48.982473" lon="8.672262">
<ele>352.5</ele>
<speed>5.8</speed>
<course>129.9</course>
<desc>Speed 5.8 km/h Distance 1.72 km</desc>
<time>2010-02-28T16:26:41.45</time>
<name>1055</name>
</trkpt>
<trkpt lat="48.982463" lon="8.672280">
<ele>353.0</ele>
<speed>5.7</speed>
<course>131.6</course>
<desc>Speed 5.7 km/h Distance 1.73 km</desc>
<time>2010-02-28T16:26:42.44</time>
<name>1056</name>
</trkpt>
<trkpt lat="48.982452" lon="8.672300">
<ele>352.5</ele>
<speed>6.2</speed>
<course>127.3</course>
<desc>Speed 6.2 km/h Distance 1.73 km</desc>
<time>2010-02-28T16:26:43.44</time>
<name>1057</name>
</trkpt>
<trkpt lat="48.982442" lon="8.672320">
<ele>352.5</ele>
<speed>6.2</speed>
<course>134.1</course>
<desc>Speed 6.2 km/h Distance 1.73 km</desc>
<time>2010-02-28T16:26:44.44</time>
<name>1058</name>
</trkpt>
<trkpt lat="48.982430" lon="8.672338">
<ele>352.5</ele>
<speed>6.1</speed>
<course>127.3</course>
<desc>Speed 6.1 km/h Distance 1.73 km</desc>
<time>2010-02-28T16:26:45.44</time>
<name>1059</name>
</trkpt>
<trkpt lat="48.982420" lon="8.672358">
<ele>352.5</ele>
<speed>5.9</speed>
<course>129.7</course>
<desc>Speed 5.9 km/h Distance 1.73 km</desc>
<time>2010-02-28T16:26:46.44</time>
<name>1060</name>
</trkpt>
<trkpt lat="48.982410" lon="8.672377">
<ele>352.0</ele>
<speed>5.9</speed>
<course>131.6</course>
<desc>Speed 5.9 km/h Distance 1.73 km</desc>
<time>2010-02-28T16:26:47.44</time>
<name>1061</name>
</trkpt>
<trkpt lat="48.982398" lon="8.672397">
<ele>352.0</ele>
<speed>6.0</speed>
<course>129.8</course>
<desc>Speed 6.0 km/h Distance 1.74 km</desc>
<time>2010-02-28T16:26:48.44</time>
<name>1062</name>
</trkpt>
<trkpt lat="48.982388" lon="8.672415">
<ele>352.0</ele>
<speed>6.2</speed>
<course>127.3</course>
<desc>Speed 6.2 km/h Distance 1.74 km</desc>
<time>2010-02-28T16:26:49.44</time>
<name>1063</name>
</trkpt>
<trkpt lat="48.982378" lon="8.672435">
<ele>352.0</ele>
<speed>6.0</speed>
<course>129.9</course>
<desc>Speed 6.0 km/h Distance 1.74 km</desc>
<time>2010-02-28T16:26:50.44</time>
<name>1064</name>
</trkpt>
<trkpt lat="48.982368" lon="8.672453">
<ele>352.0</ele>
<speed>6.0</speed>
<course>129.7</course>
<desc>Speed 6.0 km/h Distance 1.74 km</desc>
<time>2010-02-28T16:26:51.44</time>
<name>1065</name>
</trkpt>
<trkpt lat="48.982358" lon="8.672472">
<ele>352.0</ele>
<speed>6.0</speed>
<course>132.6</course>
<desc>Speed 6.0 km/h Distance 1.74 km</desc>
<time>2010-02-28T16:26:52.44</time>
<name>1066</name>
</trkpt>
<trkpt lat="48.982348" lon="8.672488">
<ele>352.5</ele>
<speed>5.9</speed>
<course>132.6</course>
<desc>Speed 5.9 km/h Distance 1.74 km</desc>
<time>2010-02-28T16:26:53.44</time>
<name>1067</name>
</trkpt>
<trkpt lat="48.982338" lon="8.672505">
<ele>352.0</ele>
<speed>6.0</speed>
<course>134.1</course>
<desc>Speed 6.0 km/h Distance 1.75 km</desc>
<time>2010-02-28T16:26:54.44</time>
<name>1068</name>
</trkpt>
<trkpt lat="48.982327" lon="8.672523">
<ele>352.0</ele>
<speed>6.0</speed>
<course>129.7</course>
<desc>Speed 6.0 km/h Distance 1.75 km</desc>
<time>2010-02-28T16:26:55.44</time>
<name>1069</name>
</trkpt>
<trkpt lat="48.982317" lon="8.672542">
<ele>352.5</ele>
<speed>5.9</speed>
<course>129.7</course>
<desc>Speed 5.9 km/h Distance 1.75 km</desc>
<time>2010-02-28T16:26:56.44</time>
<name>1070</name>
</trkpt>
<trkpt lat="48.982307" lon="8.672560">
<ele>352.5</ele>
<speed>6.0</speed>
<course>124.7</course>
<desc>Speed 6.0 km/h Distance 1.75 km</desc>
<time>2010-02-28T16:26:57.44</time>
<name>1071</name>
</trkpt>
<trkpt lat="48.982298" lon="8.672578">
<ele>352.5</ele>
<speed>5.9</speed>
<course>132.6</course>
<desc>Speed 5.9 km/h Distance 1.75 km</desc>
<time>2010-02-28T16:26:58.44</time>
<name>1072</name>
</trkpt>
<trkpt lat="48.982288" lon="8.672595">
<ele>352.5</ele>
<speed>5.8</speed>
<course>129.7</course>
<desc>Speed 5.8 km/h Distance 1.76 km</desc>
<time>2010-02-28T16:26:59.44</time>
<name>1073</name>
</trkpt>
<trkpt lat="48.982278" lon="8.672613">
<ele>352.5</ele>
<speed>6.3</speed>
<course>132.5</course>
<desc>Speed 6.3 km/h Distance 1.76 km</desc>
<time>2010-02-28T16:27:00.44</time>
<name>1074</name>
</trkpt>
<trkpt lat="48.982268" lon="8.672630">
<ele>352.5</ele>
<speed>5.8</speed>
<course>132.4</course>
<desc>Speed 5.8 km/h Distance 1.76 km</desc>
<time>2010-02-28T16:27:01.44</time>
<name>1075</name>
</trkpt>
<trkpt lat="48.982258" lon="8.672647">
<ele>352.5</ele>
<speed>5.9</speed>
<course>129.7</course>
<desc>Speed 5.9 km/h Distance 1.76 km</desc>
<time>2010-02-28T16:27:02.44</time>
<name>1076</name>
</trkpt>
<trkpt lat="48.982248" lon="8.672665">
<ele>353.0</ele>
<speed>6.1</speed>
<course>129.7</course>
<desc>Speed 6.1 km/h Distance 1.76 km</desc>
<time>2010-02-28T16:27:03.44</time>
<name>1077</name>
</trkpt>
<trkpt lat="48.982238" lon="8.672683">
<ele>353.0</ele>
<speed>5.9</speed>
<course>132.5</course>
<desc>Speed 5.9 km/h Distance 1.76 km</desc>
<time>2010-02-28T16:27:04.44</time>
<name>1078</name>
</trkpt>
<trkpt lat="48.982228" lon="8.672700">
<ele>353.0</ele>
<speed>5.9</speed>
<course>129.7</course>
<desc>Speed 5.9 km/h Distance 1.77 km</desc>
<time>2010-02-28T16:27:05.44</time>
<name>1079</name>
</trkpt>
<trkpt lat="48.982218" lon="8.672718">
<ele>353.5</ele>
<speed>6.1</speed>
<course>129.7</course>
<desc>Speed 6.1 km/h Distance 1.77 km</desc>
<time>2010-02-28T16:27:06.44</time>
<name>1080</name>
</trkpt>
<trkpt lat="48.982208" lon="8.672737">
<ele>353.5</ele>
<speed>5.9</speed>
<course>132.6</course>
<desc>Speed 5.9 km/h Distance 1.77 km</desc>
<time>2010-02-28T16:27:07.44</time>
<name>1081</name>
</trkpt>
<trkpt lat="48.982198" lon="8.672753">
<ele>353.5</ele>
<speed>5.8</speed>
<course>136.9</course>
<desc>Speed 5.8 km/h Distance 1.77 km</desc>
<time>2010-02-28T16:27:08.44</time>
<name>1082</name>
</trkpt>
<trkpt lat="48.982187" lon="8.672770">
<ele>354.0</ele>
<speed>5.8</speed>
<course>132.6</course>
<desc>Speed 5.8 km/h Distance 1.77 km</desc>
<time>2010-02-28T16:27:09.44</time>
<name>1083</name>
</trkpt>
<trkpt lat="48.982177" lon="8.672787">
<ele>354.0</ele>
<speed>5.7</speed>
<course>124.7</course>
<desc>Speed 5.7 km/h Distance 1.77 km</desc>
<time>2010-02-28T16:27:10.44</time>
<name>1084</name>
</trkpt>
<trkpt lat="48.982168" lon="8.672805">
<ele>354.0</ele>
<speed>5.9</speed>
<course>134.1</course>
<desc>Speed 5.9 km/h Distance 1.78 km</desc>
<time>2010-02-28T16:27:11.44</time>
<name>1085</name>
</trkpt>
<trkpt lat="48.982157" lon="8.672823">
<ele>354.0</ele>
<speed>6.2</speed>
<course>129.7</course>
<desc>Speed 6.2 km/h Distance 1.78 km</desc>
<time>2010-02-28T16:27:12.44</time>
<name>1086</name>
</trkpt>
<trkpt lat="48.982147" lon="8.672842">
<ele>354.0</ele>
<speed>5.9</speed>
<course>136.8</course>
<desc>Speed 5.9 km/h Distance 1.78 km</desc>
<time>2010-02-28T16:27:13.44</time>
<name>1087</name>
</trkpt>
<trkpt lat="48.982135" lon="8.672858">
<ele>354.5</ele>
<speed>5.8</speed>
<course>139.9</course>
<desc>Speed 5.8 km/h Distance 1.78 km</desc>
<time>2010-02-28T16:27:14.44</time>
<name>1088</name>
</trkpt>
<trkpt lat="48.982123" lon="8.672873">
<ele>354.5</ele>
<speed>5.9</speed>
<course>132.4</course>
<desc>Speed 5.9 km/h Distance 1.78 km</desc>
<time>2010-02-28T16:27:15.44</time>
<name>1089</name>
</trkpt>
<trkpt lat="48.982113" lon="8.672890">
<ele>354.5</ele>
<speed>5.5</speed>
<course>132.4</course>
<desc>Speed 5.5 km/h Distance 1.78 km</desc>
<time>2010-02-28T16:27:16.44</time>
<name>1090</name>
</trkpt>
<trkpt lat="48.982103" lon="8.672907">
<ele>354.5</ele>
<speed>5.6</speed>
<course>135.5</course>
<desc>Speed 5.6 km/h Distance 1.79 km</desc>
<time>2010-02-28T16:27:17.44</time>
<name>1091</name>
</trkpt>
<trkpt lat="48.982093" lon="8.672922">
<ele>354.5</ele>
<speed>5.4</speed>
<course>129.7</course>
<desc>Speed 5.4 km/h Distance 1.79 km</desc>
<time>2010-02-28T16:27:18.44</time>
<name>1092</name>
</trkpt>
<trkpt lat="48.982083" lon="8.672940">
<ele>354.0</ele>
<speed>6.1</speed>
<course>136.9</course>
<desc>Speed 6.1 km/h Distance 1.79 km</desc>
<time>2010-02-28T16:27:19.44</time>
<name>1093</name>
</trkpt>
<trkpt lat="48.982072" lon="8.672957">
<ele>354.0</ele>
<speed>6.0</speed>
<course>138.8</course>
<desc>Speed 6.0 km/h Distance 1.79 km</desc>
<time>2010-02-28T16:27:20.44</time>
<name>1094</name>
</trkpt>
<trkpt lat="48.982062" lon="8.672970">
<ele>354.5</ele>
<speed>5.3</speed>
<course>132.5</course>
<desc>Speed 5.3 km/h Distance 1.79 km</desc>
<time>2010-02-28T16:27:21.44</time>
<name>1095</name>
</trkpt>
<trkpt lat="48.982052" lon="8.672987">
<ele>354.5</ele>
<speed>5.7</speed>
<course>130.3</course>
<desc>Speed 5.7 km/h Distance 1.79 km</desc>
<time>2010-02-28T16:27:22.44</time>
<name>1096</name>
</trkpt>
<trkpt lat="48.982043" lon="8.673002">
<ele>354.0</ele>
<speed>5.0</speed>
<course>138.8</course>
<desc>Speed 5.0 km/h Distance 1.80 km</desc>
<time>2010-02-28T16:27:23.44</time>
<name>1097</name>
</trkpt>
<trkpt lat="48.982033" lon="8.673015">
<ele>354.5</ele>
<speed>5.2</speed>
<course>142.5</course>
<desc>Speed 5.2 km/h Distance 1.80 km</desc>
<time>2010-02-28T16:27:24.44</time>
<name>1098</name>
</trkpt>
<trkpt lat="48.982023" lon="8.673027">
<ele>354.5</ele>
<speed>4.9</speed>
<course>146.8</course>
<desc>Speed 4.9 km/h Distance 1.80 km</desc>
<time>2010-02-28T16:27:25.44</time>
<name>1099</name>
</trkpt>
<trkpt lat="48.982013" lon="8.673037">
<ele>354.5</ele>
<speed>4.7</speed>
<course>137.4</course>
<desc>Speed 4.7 km/h Distance 1.80 km</desc>
<time>2010-02-28T16:27:26.44</time>
<name>1100</name>
</trkpt>
<trkpt lat="48.982005" lon="8.673048">
<ele>355.0</ele>
<speed>4.8</speed>
<course>146.6</course>
<desc>Speed 4.8 km/h Distance 1.80 km</desc>
<time>2010-02-28T16:27:27.44</time>
<name>1101</name>
</trkpt>
<trkpt lat="48.981995" lon="8.673058">
<ele>355.5</ele>
<speed>4.5</speed>
<course>142.5</course>
<desc>Speed 4.5 km/h Distance 1.80 km</desc>
<time>2010-02-28T16:27:28.44</time>
<name>1102</name>
</trkpt>
<trkpt lat="48.981985" lon="8.673070">
<ele>355.5</ele>
<speed>4.9</speed>
<course>138.8</course>
<desc>Speed 4.9 km/h Distance 1.80 km</desc>
<time>2010-02-28T16:27:29.44</time>
<name>1103</name>
</trkpt>
<trkpt lat="48.981975" lon="8.673083">
<ele>355.5</ele>
<speed>5.2</speed>
<course>138.8</course>
<desc>Speed 5.2 km/h Distance 1.81 km</desc>
<time>2010-02-28T16:27:30.44</time>
<name>1104</name>
</trkpt>
<trkpt lat="48.981965" lon="8.673097">
<ele>355.5</ele>
<speed>4.9</speed>
<course>133.6</course>
<desc>Speed 4.9 km/h Distance 1.81 km</desc>
<time>2010-02-28T16:27:31.44</time>
<name>1105</name>
</trkpt>
<trkpt lat="48.981957" lon="8.673110">
<ele>356.0</ele>
<speed>4.9</speed>
<course>137.4</course>
<desc>Speed 4.9 km/h Distance 1.81 km</desc>
<time>2010-02-28T16:27:32.44</time>
<name>1106</name>
</trkpt>
<trkpt lat="48.981948" lon="8.673122">
<ele>356.0</ele>
<speed>4.3</speed>
<course>137.4</course>
<desc>Speed 4.3 km/h Distance 1.81 km</desc>
<time>2010-02-28T16:27:33.44</time>
<name>1107</name>
</trkpt>
<trkpt lat="48.981940" lon="8.673133">
<ele>356.0</ele>
<speed>4.3</speed>
<course>127.3</course>
<desc>Speed 4.3 km/h Distance 1.81 km</desc>
<time>2010-02-28T16:27:34.44</time>
<name>1108</name>
</trkpt>
<trkpt lat="48.981932" lon="8.673150">
<ele>355.5</ele>
<speed>4.5</speed>
<course>133.6</course>
<desc>Speed 4.5 km/h Distance 1.81 km</desc>
<time>2010-02-28T16:27:35.44</time>
<name>1109</name>
</trkpt>
<trkpt lat="48.981923" lon="8.673163">
<ele>355.5</ele>
<speed>4.8</speed>
<course>138.8</course>
<desc>Speed 4.8 km/h Distance 1.81 km</desc>
<time>2010-02-28T16:27:36.44</time>
<name>1110</name>
</trkpt>
<trkpt lat="48.981913" lon="8.673177">
<ele>355.5</ele>
<speed>4.9</speed>
<course>138.8</course>
<desc>Speed 4.9 km/h Distance 1.82 km</desc>
<time>2010-02-28T16:27:37.44</time>
<name>1111</name>
</trkpt>
<trkpt lat="48.981903" lon="8.673190">
<ele>355.5</ele>
<speed>5.0</speed>
<course>143.2</course>
<desc>Speed 5.0 km/h Distance 1.82 km</desc>
<time>2010-02-28T16:27:38.44</time>
<name>1112</name>
</trkpt>
<trkpt lat="48.981892" lon="8.673203">
<ele>356.0</ele>
<speed>5.1</speed>
<course>142.7</course>
<desc>Speed 5.1 km/h Distance 1.82 km</desc>
<time>2010-02-28T16:27:39.44</time>
<name>1113</name>
</trkpt>
<trkpt lat="48.981882" lon="8.673215">
<ele>356.0</ele>
<speed>4.5</speed>
<course>146.8</course>
<desc>Speed 4.5 km/h Distance 1.82 km</desc>
<time>2010-02-28T16:27:40.44</time>
<name>1114</name>
</trkpt>
<trkpt lat="48.981872" lon="8.673225">
<ele>356.0</ele>
<speed>4.6</speed>
<course>146.8</course>
<desc>Speed 4.6 km/h Distance 1.82 km</desc>
<time>2010-02-28T16:27:41.44</time>
<name>1115</name>
</trkpt>
<trkpt lat="48.981862" lon="8.673235">
<ele>356.0</ele>
<speed>4.4</speed>
<course>142.7</course>
<desc>Speed 4.4 km/h Distance 1.82 km</desc>
<time>2010-02-28T16:27:42.44</time>
<name>1116</name>
</trkpt>
<trkpt lat="48.981852" lon="8.673247">
<ele>356.5</ele>
<speed>4.6</speed>
<course>156.2</course>
<desc>Speed 4.6 km/h Distance 1.82 km</desc>
<time>2010-02-28T16:27:43.44</time>
<name>1117</name>
</trkpt>
<trkpt lat="48.981842" lon="8.673253">
<ele>356.5</ele>
<speed>4.4</speed>
<course>150.6</course>
<desc>Speed 4.4 km/h Distance 1.82 km</desc>
<time>2010-02-28T16:27:44.44</time>
<name>1118</name>
</trkpt>
<trkpt lat="48.981830" lon="8.673263">
<ele>356.5</ele>
<speed>5.2</speed>
<course>157.9</course>
<desc>Speed 5.2 km/h Distance 1.83 km</desc>
<time>2010-02-28T16:27:45.44</time>
<name>1119</name>
</trkpt>
<trkpt lat="48.981817" lon="8.673272">
<ele>356.0</ele>
<speed>5.4</speed>
<course>170.2</course>
<desc>Speed 5.4 km/h Distance 1.83 km</desc>
<time>2010-02-28T16:27:46.44</time>
<name>1120</name>
</trkpt>
<trkpt lat="48.981798" lon="8.673277">
<ele>353.5</ele>
<speed>6.4</speed>
<course>166.9</course>
<desc>Speed 6.4 km/h Distance 1.83 km</desc>
<time>2010-02-28T16:27:47.61</time>
<name>1121</name>
</trkpt>
<trkpt lat="48.981785" lon="8.673282">
<ele>352.5</ele>
<speed>5.3</speed>
<course>171.0</course>
<desc>Speed 5.3 km/h Distance 1.83 km</desc>
<time>2010-02-28T16:27:48.46</time>
<name>1122</name>
</trkpt>
<trkpt lat="48.981772" lon="8.673285">
<ele>352.5</ele>
<speed>5.4</speed>
<course>174.7</course>
<desc>Speed 5.4 km/h Distance 1.83 km</desc>
<time>2010-02-28T16:27:49.46</time>
<name>1123</name>
</trkpt>
<trkpt lat="48.981758" lon="8.673287">
<ele>353.0</ele>
<speed>5.4</speed>
<course>185.3</course>
<desc>Speed 5.4 km/h Distance 1.83 km</desc>
<time>2010-02-28T16:27:50.53</time>
<name>1124</name>
</trkpt>
<trkpt lat="48.981745" lon="8.673285">
<ele>352.5</ele>
<speed>5.3</speed>
<course>202.1</course>
<desc>Speed 5.3 km/h Distance 1.84 km</desc>
<time>2010-02-28T16:27:51.52</time>
<name>1125</name>
</trkpt>
<trkpt lat="48.981732" lon="8.673277">
<ele>352.5</ele>
<speed>5.0</speed>
<course>194.9</course>
<desc>Speed 5.0 km/h Distance 1.84 km</desc>
<time>2010-02-28T16:27:52.51</time>
<name>1126</name>
</trkpt>
<trkpt lat="48.981720" lon="8.673272">
<ele>353.0</ele>
<speed>4.0</speed>
<course>200.2</course>
<desc>Speed 4.0 km/h Distance 1.84 km</desc>
<time>2010-02-28T16:27:53.73</time>
<name>1127</name>
</trkpt>
<trkpt lat="48.981708" lon="8.673265">
<ele>353.0</ele>
<speed>5.0</speed>
<course>196.6</course>
<desc>Speed 5.0 km/h Distance 1.84 km</desc>
<time>2010-02-28T16:27:55.76</time>
<name>1128</name>
</trkpt>
<trkpt lat="48.981672" lon="8.673248">
<ele>352.5</ele>
<speed>3.6</speed>
<course>146.6</course>
<desc>Speed 3.6 km/h Distance 1.84 km</desc>
<time>2010-02-28T16:27:57.68</time>
<name>1129</name>
</trkpt>
<trkpt lat="48.981660" lon="8.673260">
<ele>352.5</ele>
<speed>2.1</speed>
<course>156.2</course>
<desc>Speed 2.1 km/h Distance 1.85 km</desc>
<time>2010-02-28T16:27:58.68</time>
<name>1130</name>
</trkpt>
<trkpt lat="48.981650" lon="8.673267">
<ele>353.0</ele>
<speed>1.0</speed>
<course>117.0</course>
<desc>Speed 1.0 km/h Distance 1.85 km</desc>
<time>2010-02-28T16:27:59.71</time>
<name>1131</name>
</trkpt>
<trkpt lat="48.981647" lon="8.673277">
<ele>352.5</ele>
<speed>0.5</speed>
<course>127.0</course>
<desc>Speed 0.5 km/h Distance 1.85 km</desc>
<time>2010-02-28T16:28:00.71</time>
<name>1132</name>
</trkpt>
<trkpt lat="48.981643" lon="8.673283">
<ele>352.5</ele>
<speed>0.5</speed>
<course>180.0</course>
<desc>Speed 0.5 km/h Distance 1.85 km</desc>
<time>2010-02-28T16:28:01.71</time>
<name>1133</name>
</trkpt>
<trkpt lat="48.981638" lon="8.673283">
<ele>352.0</ele>
<speed>0.9</speed>
<course>306.1</course>
<desc>Speed 0.9 km/h Distance 1.85 km</desc>
<time>2010-02-28T16:28:02.71</time>
<name>1134</name>
</trkpt>
<trkpt lat="48.981640" lon="8.673280">
<ele>352.5</ele>
<speed>0.2</speed>
<course>270.0</course>
<desc>Speed 0.2 km/h Distance 1.85 km</desc>
<time>2010-02-28T16:28:03.71</time>
<name>1135</name>
</trkpt>
<trkpt lat="48.981640" lon="8.673278">
<ele>352.5</ele>
<speed>1.6</speed>
<course>217.2</course>
<desc>Speed 1.6 km/h Distance 1.85 km</desc>
<time>2010-02-28T16:28:04.73</time>
<name>1136</name>
</trkpt>
<trkpt lat="48.981638" lon="8.673277">
<ele>352.5</ele>
<speed>0.3</speed>
<course>167.4</course>
<desc>Speed 0.3 km/h Distance 1.85 km</desc>
<time>2010-02-28T16:28:05.71</time>
<name>1137</name>
</trkpt>
<trkpt lat="48.981637" lon="8.673277">
<ele>352.5</ele>
<speed>0.5</speed>
<course>198.8</course>
<desc>Speed 0.5 km/h Distance 1.85 km</desc>
<time>2010-02-28T16:28:06.84</time>
<name>1138</name>
</trkpt>
<trkpt lat="48.981633" lon="8.673275">
<ele>352.5</ele>
<speed>0.3</speed>
<course>198.8</course>
<desc>Speed 0.3 km/h Distance 1.85 km</desc>
<time>2010-02-28T16:28:08.49</time>
<name>1139</name>
</trkpt>
<trkpt lat="48.981633" lon="8.673275">
<ele>352.5</ele>
<speed>0.4</speed>
<course>142.8</course>
<desc>Speed 0.4 km/h Distance 1.85 km</desc>
<time>2010-02-28T16:28:08.74</time>
<name>1140</name>
</trkpt>
<trkpt lat="48.981632" lon="8.673277">
<ele>352.5</ele>
<speed>0.7</speed>
<course>297.4</course>
<desc>Speed 0.7 km/h Distance 1.85 km</desc>
<time>2010-02-28T16:28:11.25</time>
<name>1141</name>
</trkpt>
<trkpt lat="48.981633" lon="8.673272">
<ele>352.5</ele>
<speed>1.2</speed>
<course>33.2</course>
<desc>Speed 1.2 km/h Distance 1.85 km</desc>
<time>2010-02-28T16:28:11.84</time>
<name>1142</name>
</trkpt>
<trkpt lat="48.981638" lon="8.673277">
<ele>351.5</ele>
<speed>1.6</speed>
<course>129.3</course>
<desc>Speed 1.6 km/h Distance 1.85 km</desc>
<time>2010-02-28T16:28:12.83</time>
<name>1143</name>
</trkpt>
<trkpt lat="48.981578" lon="8.673388">
<ele>350.5</ele>
<speed>1.3</speed>
<course>180.0</course>
<desc>Speed 1.3 km/h Distance 1.86 km</desc>
<time>2010-02-28T16:28:15.85</time>
<name>1144</name>
</trkpt>
<trkpt lat="48.981572" lon="8.673388">
<ele>350.5</ele>
<speed>0.9</speed>
<course>167.4</course>
<desc>Speed 0.9 km/h Distance 1.86 km</desc>
<time>2010-02-28T16:28:16.91</time>
<name>1145</name>
</trkpt>
<trkpt lat="48.981570" lon="8.673388">
<ele>350.5</ele>
<speed>0.9</speed>
<course>258.5</course>
<desc>Speed 0.9 km/h Distance 1.86 km</desc>
<time>2010-02-28T16:28:17.86</time>
<name>1146</name>
</trkpt>
<trkpt lat="48.981567" lon="8.673363">
<ele>350.5</ele>
<speed>6.7</speed>
<course>301.4</course>
<desc>Speed 6.7 km/h Distance 1.87 km</desc>
<time>2010-02-28T16:28:18.89</time>
<name>1147</name>
</trkpt>
<trkpt lat="48.981583" lon="8.673322">
<ele>342.0</ele>
<speed>10.6</speed>
<course>245.7</course>
<desc>Speed 10.6 km/h Distance 1.87 km</desc>
<time>2010-02-28T16:28:21.86</time>
<name>1148</name>
</trkpt>
<trkpt lat="48.981570" lon="8.673277">
<ele>339.0</ele>
<speed>5.6</speed>
<course>216.0</course>
<desc>Speed 5.6 km/h Distance 1.87 km</desc>
<time>2010-02-28T16:28:22.86</time>
<name>1149</name>
</trkpt>
<trkpt lat="48.981555" lon="8.673260">
<ele>338.5</ele>
<speed>5.2</speed>
<course>210.2</course>
<desc>Speed 5.2 km/h Distance 1.87 km</desc>
<time>2010-02-28T16:28:23.86</time>
<name>1150</name>
</trkpt>
<trkpt lat="48.981540" lon="8.673247">
<ele>338.0</ele>
<speed>6.4</speed>
<course>232.7</course>
<desc>Speed 6.4 km/h Distance 1.88 km</desc>
<time>2010-02-28T16:28:24.86</time>
<name>1151</name>
</trkpt>
<trkpt lat="48.981533" lon="8.673233">
<ele>336.0</ele>
<speed>5.0</speed>
<course>235.9</course>
<desc>Speed 5.0 km/h Distance 1.88 km</desc>
<time>2010-02-28T16:28:25.86</time>
<name>1152</name>
</trkpt>
<trkpt lat="48.981527" lon="8.673218">
<ele>336.0</ele>
<speed>4.4</speed>
<course>190.3</course>
<desc>Speed 4.4 km/h Distance 1.88 km</desc>
<time>2010-02-28T16:28:26.87</time>
<name>1153</name>
</trkpt>
<trkpt lat="48.981520" lon="8.673217">
<ele>334.5</ele>
<speed>2.6</speed>
<course>221.2</course>
<desc>Speed 2.6 km/h Distance 1.88 km</desc>
<time>2010-02-28T16:28:27.88</time>
<name>1154</name>
</trkpt>
<trkpt lat="48.981510" lon="8.673203">
<ele>334.5</ele>
<speed>5.6</speed>
<course>183.9</course>
<desc>Speed 5.6 km/h Distance 1.88 km</desc>
<time>2010-02-28T16:28:28.88</time>
<name>1155</name>
</trkpt>
<trkpt lat="48.981497" lon="8.673202">
<ele>335.0</ele>
<speed>6.0</speed>
<course>234.9</course>
<desc>Speed 6.0 km/h Distance 1.88 km</desc>
<time>2010-02-28T16:28:29.88</time>
<name>1156</name>
</trkpt>
<trkpt lat="48.981487" lon="8.673180">
<ele>336.5</ele>
<speed>5.4</speed>
<course>219.4</course>
<desc>Speed 5.4 km/h Distance 1.88 km</desc>
<time>2010-02-28T16:28:30.88</time>
<name>1157</name>
</trkpt>
<trkpt lat="48.981473" lon="8.673163">
<ele>336.5</ele>
<speed>4.8</speed>
<course>217.2</course>
<desc>Speed 4.8 km/h Distance 1.89 km</desc>
<time>2010-02-28T16:28:31.88</time>
<name>1158</name>
</trkpt>
<trkpt lat="48.981463" lon="8.673152">
<ele>336.0</ele>
<speed>5.2</speed>
<course>232.7</course>
<desc>Speed 5.2 km/h Distance 1.89 km</desc>
<time>2010-02-28T16:28:32.88</time>
<name>1159</name>
</trkpt>
<trkpt lat="48.981457" lon="8.673138">
<ele>336.5</ele>
<speed>4.8</speed>
<course>217.5</course>
<desc>Speed 4.8 km/h Distance 1.89 km</desc>
<time>2010-02-28T16:28:33.88</time>
<name>1160</name>
</trkpt>
<trkpt lat="48.981447" lon="8.673127">
<ele>338.0</ele>
<speed>5.0</speed>
<course>216.9</course>
<desc>Speed 5.0 km/h Distance 1.89 km</desc>
<time>2010-02-28T16:28:34.88</time>
<name>1161</name>
</trkpt>
<trkpt lat="48.981435" lon="8.673113">
<ele>337.5</ele>
<speed>6.4</speed>
<course>245.4</course>
<desc>Speed 6.4 km/h Distance 1.89 km</desc>
<time>2010-02-28T16:28:35.88</time>
<name>1162</name>
</trkpt>
<trkpt lat="48.981430" lon="8.673097">
<ele>338.5</ele>
<speed>5.0</speed>
<course>225.9</course>
<desc>Speed 5.0 km/h Distance 1.89 km</desc>
<time>2010-02-28T16:28:36.88</time>
<name>1163</name>
</trkpt>
<trkpt lat="48.981418" lon="8.673078">
<ele>339.5</ele>
<speed>6.2</speed>
<course>235.3</course>
<desc>Speed 6.2 km/h Distance 1.90 km</desc>
<time>2010-02-28T16:28:37.88</time>
<name>1164</name>
</trkpt>
<trkpt lat="48.981410" lon="8.673060">
<ele>340.5</ele>
<speed>5.5</speed>
<course>213.2</course>
<desc>Speed 5.5 km/h Distance 1.90 km</desc>
<time>2010-02-28T16:28:38.88</time>
<name>1165</name>
</trkpt>
<trkpt lat="48.981400" lon="8.673050">
<ele>341.0</ele>
<speed>5.9</speed>
<course>229.7</course>
<desc>Speed 5.9 km/h Distance 1.90 km</desc>
<time>2010-02-28T16:28:39.88</time>
<name>1166</name>
</trkpt>
<trkpt lat="48.981392" lon="8.673035">
<ele>341.5</ele>
<speed>5.4</speed>
<course>219.4</course>
<desc>Speed 5.4 km/h Distance 1.90 km</desc>
<time>2010-02-28T16:28:40.88</time>
<name>1167</name>
</trkpt>
<trkpt lat="48.981385" lon="8.673027">
<ele>341.0</ele>
<speed>4.6</speed>
<course>255.8</course>
<desc>Speed 4.6 km/h Distance 1.90 km</desc>
<time>2010-02-28T16:28:41.88</time>
<name>1168</name>
</trkpt>
<trkpt lat="48.981383" lon="8.673017">
<ele>342.0</ele>
<speed>3.6</speed>
<course>240.3</course>
<desc>Speed 3.6 km/h Distance 1.90 km</desc>
<time>2010-02-28T16:28:42.88</time>
<name>1169</name>
</trkpt>
<trkpt lat="48.981378" lon="8.673003">
<ele>343.0</ele>
<speed>3.4</speed>
<course>236.9</course>
<desc>Speed 3.4 km/h Distance 1.90 km</desc>
<time>2010-02-28T16:28:43.88</time>
<name>1170</name>
</trkpt>
<trkpt lat="48.981368" lon="8.672980">
<ele>344.5</ele>
<speed>3.7</speed>
<course>222.3</course>
<desc>Speed 3.7 km/h Distance 1.90 km</desc>
<time>2010-02-28T16:28:45.38</time>
<name>1171</name>
</trkpt>
<trkpt lat="48.981347" lon="8.672950">
<ele>344.0</ele>
<speed>7.8</speed>
<course>233.0</course>
<desc>Speed 7.8 km/h Distance 1.91 km</desc>
<time>2010-02-28T16:28:47.38</time>
<name>1172</name>
</trkpt>
<trkpt lat="48.981343" lon="8.672943">
<ele>345.0</ele>
<speed>2.1</speed>
<course>219.4</course>
<desc>Speed 2.1 km/h Distance 1.91 km</desc>
<time>2010-02-28T16:28:48.38</time>
<name>1173</name>
</trkpt>
<trkpt lat="48.981337" lon="8.672935">
<ele>344.5</ele>
<speed>3.2</speed>
<course>219.4</course>
<desc>Speed 3.2 km/h Distance 1.91 km</desc>
<time>2010-02-28T16:28:49.38</time>
<name>1174</name>
</trkpt>
<trkpt lat="48.981337" lon="8.672935">
<ele>344.5</ele>
<speed>3.2</speed>
<course>217.5</course>
<desc>Speed 3.2 km/h Distance 1.91 km</desc>
<time>2010-02-28T16:28:49.88</time>
<name>1175</name>
</trkpt>
<trkpt lat="48.981327" lon="8.672923">
<ele>344.0</ele>
<speed>4.5</speed>
<course>251.3</course>
<desc>Speed 4.5 km/h Distance 1.91 km</desc>
<time>2010-02-28T16:28:50.88</time>
<name>1176</name>
</trkpt>
<trkpt lat="48.981323" lon="8.672908">
<ele>345.0</ele>
<speed>4.1</speed>
<course>253.0</course>
<desc>Speed 4.1 km/h Distance 1.91 km</desc>
<time>2010-02-28T16:28:51.88</time>
<name>1177</name>
</trkpt>
<trkpt lat="48.981320" lon="8.672892">
<ele>346.0</ele>
<speed>4.9</speed>
<course>229.7</course>
<desc>Speed 4.9 km/h Distance 1.91 km</desc>
<time>2010-02-28T16:28:52.88</time>
<name>1178</name>
</trkpt>
<trkpt lat="48.981312" lon="8.672877">
<ele>346.5</ele>
<speed>4.8</speed>
<course>235.9</course>
<desc>Speed 4.8 km/h Distance 1.91 km</desc>
<time>2010-02-28T16:28:53.88</time>
<name>1179</name>
</trkpt>
<trkpt lat="48.981305" lon="8.672862">
<ele>347.0</ele>
<speed>5.0</speed>
<course>232.7</course>
<desc>Speed 5.0 km/h Distance 1.92 km</desc>
<time>2010-02-28T16:28:54.88</time>
<name>1180</name>
</trkpt>
<trkpt lat="48.981297" lon="8.672845">
<ele>347.5</ele>
<speed>5.6</speed>
<course>206.4</course>
<desc>Speed 5.6 km/h Distance 1.92 km</desc>
<time>2010-02-28T16:28:55.88</time>
<name>1181</name>
</trkpt>
<trkpt lat="48.981290" lon="8.672840">
<ele>347.5</ele>
<speed>3.4</speed>
<course>213.7</course>
<desc>Speed 3.4 km/h Distance 1.92 km</desc>
<time>2010-02-28T16:28:56.88</time>
<name>1182</name>
</trkpt>
<trkpt lat="48.981283" lon="8.672833">
<ele>347.5</ele>
<speed>3.2</speed>
<course>229.8</course>
<desc>Speed 3.2 km/h Distance 1.92 km</desc>
<time>2010-02-28T16:28:57.88</time>
<name>1183</name>
</trkpt>
<trkpt lat="48.981267" lon="8.672803">
<ele>348.0</ele>
<speed>4.2</speed>
<course>222.6</course>
<desc>Speed 4.2 km/h Distance 1.92 km</desc>
<time>2010-02-28T16:28:59.38</time>
<name>1184</name>
</trkpt>
<trkpt lat="48.981258" lon="8.672792">
<ele>348.0</ele>
<speed>3.8</speed>
<course>232.7</course>
<desc>Speed 3.8 km/h Distance 1.92 km</desc>
<time>2010-02-28T16:29:00.38</time>
<name>1185</name>
</trkpt>
<trkpt lat="48.981245" lon="8.672765">
<ele>348.5</ele>
<speed>4.1</speed>
<course>224.3</course>
<desc>Speed 4.1 km/h Distance 1.93 km</desc>
<time>2010-02-28T16:29:02.38</time>
<name>1186</name>
</trkpt>
<trkpt lat="48.981238" lon="8.672755">
<ele>347.5</ele>
<speed>3.6</speed>
<course>228.9</course>
<desc>Speed 3.6 km/h Distance 1.93 km</desc>
<time>2010-02-28T16:29:03.38</time>
<name>1187</name>
</trkpt>
<trkpt lat="48.981232" lon="8.672743">
<ele>347.0</ele>
<speed>4.3</speed>
<course>226.4</course>
<desc>Speed 4.3 km/h Distance 1.93 km</desc>
<time>2010-02-28T16:29:04.38</time>
<name>1188</name>
</trkpt>
<trkpt lat="48.981223" lon="8.672730">
<ele>346.5</ele>
<speed>4.6</speed>
<course>238.7</course>
<desc>Speed 4.6 km/h Distance 1.93 km</desc>
<time>2010-02-28T16:29:05.38</time>
<name>1189</name>
</trkpt>
<trkpt lat="48.981217" lon="8.672713">
<ele>346.5</ele>
<speed>4.9</speed>
<course>232.7</course>
<desc>Speed 4.9 km/h Distance 1.93 km</desc>
<time>2010-02-28T16:29:06.37</time>
<name>1190</name>
</trkpt>
<trkpt lat="48.981210" lon="8.672700">
<ele>346.5</ele>
<speed>3.9</speed>
<course>226.4</course>
<desc>Speed 3.9 km/h Distance 1.93 km</desc>
<time>2010-02-28T16:29:07.37</time>
<name>1191</name>
</trkpt>
<trkpt lat="48.981202" lon="8.672687">
<ele>346.0</ele>
<speed>4.5</speed>
<course>218.1</course>
<desc>Speed 4.5 km/h Distance 1.93 km</desc>
<time>2010-02-28T16:29:08.38</time>
<name>1192</name>
</trkpt>
<trkpt lat="48.981193" lon="8.672677">
<ele>345.5</ele>
<speed>4.0</speed>
<course>226.4</course>
<desc>Speed 4.0 km/h Distance 1.93 km</desc>
<time>2010-02-28T16:29:09.38</time>
<name>1193</name>
</trkpt>
<trkpt lat="48.981185" lon="8.672663">
<ele>345.5</ele>
<speed>4.4</speed>
<course>223.7</course>
<desc>Speed 4.4 km/h Distance 1.94 km</desc>
<time>2010-02-28T16:29:10.38</time>
<name>1194</name>
</trkpt>
<trkpt lat="48.981167" lon="8.672637">
<ele>345.5</ele>
<speed>4.5</speed>
<course>216.9</course>
<desc>Speed 4.5 km/h Distance 1.94 km</desc>
<time>2010-02-28T16:29:12.38</time>
<name>1195</name>
</trkpt>
<trkpt lat="48.981155" lon="8.672623">
<ele>345.0</ele>
<speed>2.8</speed>
<course>224.5</course>
<desc>Speed 2.8 km/h Distance 1.94 km</desc>
<time>2010-02-28T16:29:13.38</time>
<name>1196</name>
</trkpt>
<trkpt lat="48.981148" lon="8.672613">
<ele>344.5</ele>
<speed>3.3</speed>
<course>226.5</course>
<desc>Speed 3.3 km/h Distance 1.94 km</desc>
<time>2010-02-28T16:29:14.38</time>
<name>1197</name>
</trkpt>
<trkpt lat="48.981140" lon="8.672600">
<ele>344.5</ele>
<speed>4.3</speed>
<course>224.5</course>
<desc>Speed 4.3 km/h Distance 1.94 km</desc>
<time>2010-02-28T16:29:15.37</time>
<name>1198</name>
</trkpt>
<trkpt lat="48.981130" lon="8.672585">
<ele>345.0</ele>
<speed>5.1</speed>
<course>224.5</course>
<desc>Speed 5.1 km/h Distance 1.94 km</desc>
<time>2010-02-28T16:29:16.36</time>
<name>1199</name>
</trkpt>
<trkpt lat="48.981120" lon="8.672570">
<ele>345.5</ele>
<speed>4.9</speed>
<course>229.0</course>
<desc>Speed 4.9 km/h Distance 1.95 km</desc>
<time>2010-02-28T16:29:17.37</time>
<name>1200</name>
</trkpt>
<trkpt lat="48.981107" lon="8.672547">
<ele>345.0</ele>
<speed>3.9</speed>
<course>237.6</course>
<desc>Speed 3.9 km/h Distance 1.95 km</desc>
<time>2010-02-28T16:29:18.36</time>
<name>1201</name>
</trkpt>
<trkpt lat="48.981098" lon="8.672527">
<ele>345.0</ele>
<speed>5.4</speed>
<course>249.2</course>
<desc>Speed 5.4 km/h Distance 1.95 km</desc>
<time>2010-02-28T16:29:19.37</time>
<name>1202</name>
</trkpt>
<trkpt lat="48.981093" lon="8.672507">
<ele>345.5</ele>
<speed>4.5</speed>
<course>226.4</course>
<desc>Speed 4.5 km/h Distance 1.95 km</desc>
<time>2010-02-28T16:29:20.36</time>
<name>1203</name>
</trkpt>
<trkpt lat="48.981085" lon="8.672493">
<ele>345.0</ele>
<speed>4.2</speed>
<course>224.6</course>
<desc>Speed 4.2 km/h Distance 1.95 km</desc>
<time>2010-02-28T16:29:21.37</time>
<name>1204</name>
</trkpt>
<trkpt lat="48.981075" lon="8.672478">
<ele>344.5</ele>
<speed>4.5</speed>
<course>229.8</course>
<desc>Speed 4.5 km/h Distance 1.95 km</desc>
<time>2010-02-28T16:29:22.37</time>
<name>1205</name>
</trkpt>
<trkpt lat="48.981067" lon="8.672463">
<ele>345.0</ele>
<speed>4.5</speed>
<course>229.7</course>
<desc>Speed 4.5 km/h Distance 1.96 km</desc>
<time>2010-02-28T16:29:23.37</time>
<name>1206</name>
</trkpt>
<trkpt lat="48.981058" lon="8.672448">
<ele>345.0</ele>
<speed>4.6</speed>
<course>222.0</course>
<desc>Speed 4.6 km/h Distance 1.96 km</desc>
<time>2010-02-28T16:29:24.37</time>
<name>1207</name>
</trkpt>
<trkpt lat="48.981045" lon="8.672430">
<ele>344.5</ele>
<speed>5.8</speed>
<course>229.6</course>
<desc>Speed 5.8 km/h Distance 1.96 km</desc>
<time>2010-02-28T16:29:25.38</time>
<name>1208</name>
</trkpt>
<trkpt lat="48.981037" lon="8.672415">
<ele>344.5</ele>
<speed>4.2</speed>
<course>235.7</course>
<desc>Speed 4.2 km/h Distance 1.96 km</desc>
<time>2010-02-28T16:29:26.36</time>
<name>1209</name>
</trkpt>
<trkpt lat="48.981030" lon="8.672400">
<ele>344.0</ele>
<speed>4.5</speed>
<course>232.7</course>
<desc>Speed 4.5 km/h Distance 1.96 km</desc>
<time>2010-02-28T16:29:27.37</time>
<name>1210</name>
</trkpt>
<trkpt lat="48.981022" lon="8.672383">
<ele>345.0</ele>
<speed>4.4</speed>
<course>236.9</course>
<desc>Speed 4.4 km/h Distance 1.96 km</desc>
<time>2010-02-28T16:29:28.37</time>
<name>1211</name>
</trkpt>
<trkpt lat="48.981017" lon="8.672372">
<ele>345.5</ele>
<speed>3.7</speed>
<course>235.9</course>
<desc>Speed 3.7 km/h Distance 1.96 km</desc>
<time>2010-02-28T16:29:29.37</time>
<name>1212</name>
</trkpt>
<trkpt lat="48.981010" lon="8.672357">
<ele>345.5</ele>
<speed>4.5</speed>
<course>229.7</course>
<desc>Speed 4.5 km/h Distance 1.97 km</desc>
<time>2010-02-28T16:29:30.37</time>
<name>1213</name>
</trkpt>
<trkpt lat="48.981002" lon="8.672342">
<ele>345.5</ele>
<speed>5.2</speed>
<course>239.6</course>
<desc>Speed 5.2 km/h Distance 1.97 km</desc>
<time>2010-02-28T16:29:31.37</time>
<name>1214</name>
</trkpt>
<trkpt lat="48.980993" lon="8.672320">
<ele>345.5</ele>
<speed>6.1</speed>
<course>236.2</course>
<desc>Speed 6.1 km/h Distance 1.97 km</desc>
<time>2010-02-28T16:29:32.37</time>
<name>1215</name>
</trkpt>
<trkpt lat="48.980957" lon="8.672237">
<ele>345.0</ele>
<speed>5.2</speed>
<course>240.7</course>
<desc>Speed 5.2 km/h Distance 1.98 km</desc>
<time>2010-02-28T16:29:34.36</time>
<name>1216</name>
</trkpt>
<trkpt lat="48.980945" lon="8.672205">
<ele>345.0</ele>
<speed>9.6</speed>
<course>243.1</course>
<desc>Speed 9.6 km/h Distance 1.98 km</desc>
<time>2010-02-28T16:29:35.37</time>
<name>1217</name>
</trkpt>
<trkpt lat="48.980938" lon="8.672185">
<ele>345.0</ele>
<speed>5.5</speed>
<course>238.6</course>
<desc>Speed 5.5 km/h Distance 1.98 km</desc>
<time>2010-02-28T16:29:36.36</time>
<name>1218</name>
</trkpt>
<trkpt lat="48.980928" lon="8.672160">
<ele>345.0</ele>
<speed>5.5</speed>
<course>237.6</course>
<desc>Speed 5.5 km/h Distance 1.98 km</desc>
<time>2010-02-28T16:29:37.36</time>
<name>1219</name>
</trkpt>
<trkpt lat="48.980920" lon="8.672140">
<ele>345.0</ele>
<speed>5.7</speed>
<course>238.6</course>
<desc>Speed 5.7 km/h Distance 1.98 km</desc>
<time>2010-02-28T16:29:38.36</time>
<name>1220</name>
</trkpt>
<trkpt lat="48.980913" lon="8.672123">
<ele>344.5</ele>
<speed>5.0</speed>
<course>238.6</course>
<desc>Speed 5.0 km/h Distance 1.99 km</desc>
<time>2010-02-28T16:29:39.36</time>
<name>1221</name>
</trkpt>
<trkpt lat="48.980907" lon="8.672107">
<ele>344.5</ele>
<speed>5.1</speed>
<course>243.1</course>
<desc>Speed 5.1 km/h Distance 1.99 km</desc>
<time>2010-02-28T16:29:40.36</time>
<name>1222</name>
</trkpt>
<trkpt lat="48.980900" lon="8.672087">
<ele>344.5</ele>
<speed>5.2</speed>
<course>235.3</course>
<desc>Speed 5.2 km/h Distance 1.99 km</desc>
<time>2010-02-28T16:29:41.36</time>
<name>1223</name>
</trkpt>
<trkpt lat="48.980892" lon="8.672068">
<ele>344.5</ele>
<speed>5.5</speed>
<course>237.6</course>
<desc>Speed 5.5 km/h Distance 1.99 km</desc>
<time>2010-02-28T16:29:42.36</time>
<name>1224</name>
</trkpt>
<trkpt lat="48.980883" lon="8.672048">
<ele>344.0</ele>
<speed>5.4</speed>
<course>238.6</course>
<desc>Speed 5.4 km/h Distance 1.99 km</desc>
<time>2010-02-28T16:29:43.36</time>
<name>1225</name>
</trkpt>
<trkpt lat="48.980877" lon="8.672032">
<ele>344.0</ele>
<speed>4.8</speed>
<course>240.0</course>
<desc>Speed 4.8 km/h Distance 1.99 km</desc>
<time>2010-02-28T16:29:44.36</time>
<name>1226</name>
</trkpt>
<trkpt lat="48.980853" lon="8.671970">
<ele>343.0</ele>
<speed>5.2</speed>
<course>245.4</course>
<desc>Speed 5.2 km/h Distance 2.00 km</desc>
<time>2010-02-28T16:29:46.36</time>
<name>1227</name>
</trkpt>
<trkpt lat="48.980843" lon="8.671937">
<ele>343.0</ele>
<speed>5.7</speed>
<course>244.9</course>
<desc>Speed 5.7 km/h Distance 2.00 km</desc>
<time>2010-02-28T16:29:47.36</time>
<name>1228</name>
</trkpt>
<trkpt lat="48.980837" lon="8.671915">
<ele>343.5</ele>
<speed>5.5</speed>
<course>247.4</course>
<desc>Speed 5.5 km/h Distance 2.00 km</desc>
<time>2010-02-28T16:29:48.35</time>
<name>1229</name>
</trkpt>
<trkpt lat="48.980832" lon="8.671897">
<ele>343.5</ele>
<speed>5.0</speed>
<course>239.6</course>
<desc>Speed 5.0 km/h Distance 2.00 km</desc>
<time>2010-02-28T16:29:49.35</time>
<name>1230</name>
</trkpt>
<trkpt lat="48.980823" lon="8.671875">
<ele>343.5</ele>
<speed>5.0</speed>
<course>256.8</course>
<desc>Speed 5.0 km/h Distance 2.01 km</desc>
<time>2010-02-28T16:29:50.35</time>
<name>1231</name>
</trkpt>
<trkpt lat="48.980820" lon="8.671853">
<ele>343.5</ele>
<speed>4.8</speed>
<course>257.7</course>
<desc>Speed 4.8 km/h Distance 2.01 km</desc>
<time>2010-02-28T16:29:51.37</time>
<name>1232</name>
</trkpt>
<trkpt lat="48.980817" lon="8.671830">
<ele>344.0</ele>
<speed>5.3</speed>
<course>243.0</course>
<desc>Speed 5.3 km/h Distance 2.01 km</desc>
<time>2010-02-28T16:29:52.36</time>
<name>1233</name>
</trkpt>
<trkpt lat="48.980810" lon="8.671810">
<ele>344.0</ele>
<speed>5.5</speed>
<course>255.7</course>
<desc>Speed 5.5 km/h Distance 2.01 km</desc>
<time>2010-02-28T16:29:53.36</time>
<name>1234</name>
</trkpt>
<trkpt lat="48.980807" lon="8.671790">
<ele>344.5</ele>
<speed>5.3</speed>
<course>247.4</course>
<desc>Speed 5.3 km/h Distance 2.01 km</desc>
<time>2010-02-28T16:29:54.35</time>
<name>1235</name>
</trkpt>
<trkpt lat="48.980802" lon="8.671772">
<ele>344.0</ele>
<speed>5.0</speed>
<course>246.5</course>
<desc>Speed 5.0 km/h Distance 2.01 km</desc>
<time>2010-02-28T16:29:55.35</time>
<name>1236</name>
</trkpt>
<trkpt lat="48.980795" lon="8.671748">
<ele>343.5</ele>
<speed>5.3</speed>
<course>249.2</course>
<desc>Speed 5.3 km/h Distance 2.02 km</desc>
<time>2010-02-28T16:29:56.36</time>
<name>1237</name>
</trkpt>
<trkpt lat="48.980790" lon="8.671728">
<ele>343.5</ele>
<speed>5.3</speed>
<course>241.0</course>
<desc>Speed 5.3 km/h Distance 2.02 km</desc>
<time>2010-02-28T16:29:57.35</time>
<name>1238</name>
</trkpt>
<trkpt lat="48.980783" lon="8.671710">
<ele>344.0</ele>
<speed>5.5</speed>
<course>232.7</course>
<desc>Speed 5.5 km/h Distance 2.02 km</desc>
<time>2010-02-28T16:29:58.35</time>
<name>1239</name>
</trkpt>
<trkpt lat="48.980775" lon="8.671693">
<ele>344.0</ele>
<speed>5.2</speed>
<course>238.6</course>
<desc>Speed 5.2 km/h Distance 2.02 km</desc>
<time>2010-02-28T16:29:59.35</time>
<name>1240</name>
</trkpt>
<trkpt lat="48.980768" lon="8.671677">
<ele>344.5</ele>
<speed>5.0</speed>
<course>244.9</course>
<desc>Speed 5.0 km/h Distance 2.02 km</desc>
<time>2010-02-28T16:30:00.35</time>
<name>1241</name>
</trkpt>
<trkpt lat="48.980762" lon="8.671655">
<ele>344.0</ele>
<speed>5.4</speed>
<course>243.1</course>
<desc>Speed 5.4 km/h Distance 2.02 km</desc>
<time>2010-02-28T16:30:01.35</time>
<name>1242</name>
</trkpt>
<trkpt lat="48.980755" lon="8.671635">
<ele>344.0</ele>
<speed>5.1</speed>
<course>255.8</course>
<desc>Speed 5.1 km/h Distance 2.03 km</desc>
<time>2010-02-28T16:30:02.35</time>
<name>1243</name>
</trkpt>
<trkpt lat="48.980752" lon="8.671615">
<ele>344.5</ele>
<speed>5.5</speed>
<course>247.9</course>
<desc>Speed 5.5 km/h Distance 2.03 km</desc>
<time>2010-02-28T16:30:03.35</time>
<name>1244</name>
</trkpt>
<trkpt lat="48.980745" lon="8.671590">
<ele>344.5</ele>
<speed>6.3</speed>
<course>243.1</course>
<desc>Speed 6.3 km/h Distance 2.03 km</desc>
<time>2010-02-28T16:30:04.36</time>
<name>1245</name>
</trkpt>
<trkpt lat="48.980738" lon="8.671570">
<ele>344.5</ele>
<speed>5.7</speed>
<course>241.0</course>
<desc>Speed 5.7 km/h Distance 2.03 km</desc>
<time>2010-02-28T16:30:05.35</time>
<name>1246</name>
</trkpt>
<trkpt lat="48.980732" lon="8.671552">
<ele>345.0</ele>
<speed>5.2</speed>
<course>238.6</course>
<desc>Speed 5.2 km/h Distance 2.03 km</desc>
<time>2010-02-28T16:30:06.35</time>
<name>1247</name>
</trkpt>
<trkpt lat="48.980725" lon="8.671535">
<ele>345.0</ele>
<speed>4.6</speed>
<course>239.4</course>
<desc>Speed 4.6 km/h Distance 2.03 km</desc>
<time>2010-02-28T16:30:07.35</time>
<name>1248</name>
</trkpt>
<trkpt lat="48.980713" lon="8.671505">
<ele>344.5</ele>
<speed>5.2</speed>
<course>249.2</course>
<desc>Speed 5.2 km/h Distance 2.04 km</desc>
<time>2010-02-28T16:30:08.36</time>
<name>1249</name>
</trkpt>
<trkpt lat="48.980708" lon="8.671485">
<ele>344.5</ele>
<speed>5.5</speed>
<course>248.3</course>
<desc>Speed 5.5 km/h Distance 2.04 km</desc>
<time>2010-02-28T16:30:09.35</time>
<name>1250</name>
</trkpt>
<trkpt lat="48.980698" lon="8.671447">
<ele>344.0</ele>
<speed>5.1</speed>
<course>243.1</course>
<desc>Speed 5.1 km/h Distance 2.04 km</desc>
<time>2010-02-28T16:30:10.36</time>
<name>1251</name>
</trkpt>
<trkpt lat="48.980687" lon="8.671412">
<ele>344.5</ele>
<speed>5.3</speed>
<course>244.5</course>
<desc>Speed 5.3 km/h Distance 2.04 km</desc>
<time>2010-02-28T16:30:11.36</time>
<name>1252</name>
</trkpt>
<trkpt lat="48.980678" lon="8.671385">
<ele>344.5</ele>
<speed>5.0</speed>
<course>244.6</course>
<desc>Speed 5.0 km/h Distance 2.05 km</desc>
<time>2010-02-28T16:30:12.36</time>
<name>1253</name>
</trkpt>
<trkpt lat="48.980670" lon="8.671358">
<ele>344.5</ele>
<speed>5.1</speed>
<course>241.7</course>
<desc>Speed 5.1 km/h Distance 2.05 km</desc>
<time>2010-02-28T16:30:13.35</time>
<name>1254</name>
</trkpt>
<trkpt lat="48.980660" lon="8.671330">
<ele>344.0</ele>
<speed>5.5</speed>
<course>234.9</course>
<desc>Speed 5.5 km/h Distance 2.05 km</desc>
<time>2010-02-28T16:30:14.35</time>
<name>1255</name>
</trkpt>
<trkpt lat="48.980650" lon="8.671308">
<ele>344.0</ele>
<speed>5.3</speed>
<course>252.2</course>
<desc>Speed 5.3 km/h Distance 2.05 km</desc>
<time>2010-02-28T16:30:15.35</time>
<name>1256</name>
</trkpt>
<trkpt lat="48.980643" lon="8.671277">
<ele>344.5</ele>
<speed>5.1</speed>
<course>249.2</course>
<desc>Speed 5.1 km/h Distance 2.06 km</desc>
<time>2010-02-28T16:30:16.35</time>
<name>1257</name>
</trkpt>
<trkpt lat="48.980637" lon="8.671250">
<ele>345.5</ele>
<speed>5.3</speed>
<course>243.1</course>
<desc>Speed 5.3 km/h Distance 2.06 km</desc>
<time>2010-02-28T16:30:17.35</time>
<name>1258</name>
</trkpt>
<trkpt lat="48.980628" lon="8.671225">
<ele>346.0</ele>
<speed>5.4</speed>
<course>238.6</course>
<desc>Speed 5.4 km/h Distance 2.06 km</desc>
<time>2010-02-28T16:30:18.35</time>
<name>1259</name>
</trkpt>
<trkpt lat="48.980618" lon="8.671200">
<ele>346.5</ele>
<speed>5.5</speed>
<course>227.5</course>
<desc>Speed 5.5 km/h Distance 2.06 km</desc>
<time>2010-02-28T16:30:19.35</time>
<name>1260</name>
</trkpt>
<trkpt lat="48.980608" lon="8.671183">
<ele>346.5</ele>
<speed>4.8</speed>
<course>243.1</course>
<desc>Speed 4.8 km/h Distance 2.06 km</desc>
<time>2010-02-28T16:30:20.35</time>
<name>1261</name>
</trkpt>
<trkpt lat="48.980602" lon="8.671163">
<ele>346.5</ele>
<speed>5.4</speed>
<course>235.2</course>
<desc>Speed 5.4 km/h Distance 2.06 km</desc>
<time>2010-02-28T16:30:21.35</time>
<name>1262</name>
</trkpt>
<trkpt lat="48.980593" lon="8.671145">
<ele>347.0</ele>
<speed>5.4</speed>
<course>244.1</course>
<desc>Speed 5.4 km/h Distance 2.07 km</desc>
<time>2010-02-28T16:30:22.35</time>
<name>1263</name>
</trkpt>
<trkpt lat="48.980582" lon="8.671108">
<ele>349.0</ele>
<speed>4.9</speed>
<course>237.6</course>
<desc>Speed 4.9 km/h Distance 2.07 km</desc>
<time>2010-02-28T16:30:23.35</time>
<name>1264</name>
</trkpt>
<trkpt lat="48.980573" lon="8.671088">
<ele>349.0</ele>
<speed>4.1</speed>
<course>238.6</course>
<desc>Speed 4.1 km/h Distance 2.07 km</desc>
<time>2010-02-28T16:30:24.35</time>
<name>1265</name>
</trkpt>
<trkpt lat="48.980567" lon="8.671072">
<ele>349.5</ele>
<speed>5.3</speed>
<course>243.0</course>
<desc>Speed 5.3 km/h Distance 2.07 km</desc>
<time>2010-02-28T16:30:25.35</time>
<name>1266</name>
</trkpt>
<trkpt lat="48.980560" lon="8.671052">
<ele>350.0</ele>
<speed>5.8</speed>
<course>249.1</course>
<desc>Speed 5.8 km/h Distance 2.07 km</desc>
<time>2010-02-28T16:30:26.35</time>
<name>1267</name>
</trkpt>
<trkpt lat="48.980555" lon="8.671032">
<ele>350.5</ele>
<speed>5.3</speed>
<course>245.4</course>
<desc>Speed 5.3 km/h Distance 2.08 km</desc>
<time>2010-02-28T16:30:27.35</time>
<name>1268</name>
</trkpt>
<trkpt lat="48.980550" lon="8.671015">
<ele>350.5</ele>
<speed>4.4</speed>
<course>243.1</course>
<desc>Speed 4.4 km/h Distance 2.08 km</desc>
<time>2010-02-28T16:30:28.35</time>
<name>1269</name>
</trkpt>
<trkpt lat="48.980545" lon="8.671000">
<ele>351.5</ele>
<speed>4.7</speed>
<course>234.9</course>
<desc>Speed 4.7 km/h Distance 2.08 km</desc>
<time>2010-02-28T16:30:29.35</time>
<name>1270</name>
</trkpt>
<trkpt lat="48.980535" lon="8.670978">
<ele>351.0</ele>
<speed>5.1</speed>
<course>229.7</course>
<desc>Speed 5.1 km/h Distance 2.08 km</desc>
<time>2010-02-28T16:30:30.35</time>
<name>1271</name>
</trkpt>
<trkpt lat="48.980527" lon="8.670963">
<ele>351.0</ele>
<speed>4.9</speed>
<course>232.7</course>
<desc>Speed 4.9 km/h Distance 2.08 km</desc>
<time>2010-02-28T16:30:31.35</time>
<name>1272</name>
</trkpt>
<trkpt lat="48.980520" lon="8.670950">
<ele>350.5</ele>
<speed>4.6</speed>
<course>241.0</course>
<desc>Speed 4.6 km/h Distance 2.08 km</desc>
<time>2010-02-28T16:30:32.35</time>
<name>1273</name>
</trkpt>
<trkpt lat="48.980513" lon="8.670932">
<ele>350.5</ele>
<speed>5.4</speed>
<course>238.7</course>
<desc>Speed 5.4 km/h Distance 2.08 km</desc>
<time>2010-02-28T16:30:33.35</time>
<name>1274</name>
</trkpt>
<trkpt lat="48.980507" lon="8.670915">
<ele>350.0</ele>
<speed>5.2</speed>
<course>230.3</course>
<desc>Speed 5.2 km/h Distance 2.09 km</desc>
<time>2010-02-28T16:30:34.35</time>
<name>1275</name>
</trkpt>
<trkpt lat="48.980497" lon="8.670897">
<ele>350.5</ele>
<speed>5.3</speed>
<course>230.6</course>
<desc>Speed 5.3 km/h Distance 2.09 km</desc>
<time>2010-02-28T16:30:35.35</time>
<name>1276</name>
</trkpt>
<trkpt lat="48.980485" lon="8.670875">
<ele>350.0</ele>
<speed>5.4</speed>
<course>229.0</course>
<desc>Speed 5.4 km/h Distance 2.09 km</desc>
<time>2010-02-28T16:30:36.34</time>
<name>1277</name>
</trkpt>
<trkpt lat="48.980472" lon="8.670852">
<ele>349.5</ele>
<speed>5.7</speed>
<course>235.3</course>
<desc>Speed 5.7 km/h Distance 2.09 km</desc>
<time>2010-02-28T16:30:37.34</time>
<name>1278</name>
</trkpt>
<trkpt lat="48.980463" lon="8.670833">
<ele>350.0</ele>
<speed>5.6</speed>
<course>226.8</course>
<desc>Speed 5.6 km/h Distance 2.09 km</desc>
<time>2010-02-28T16:30:38.34</time>
<name>1279</name>
</trkpt>
<trkpt lat="48.980450" lon="8.670812">
<ele>349.0</ele>
<speed>5.9</speed>
<course>237.6</course>
<desc>Speed 5.9 km/h Distance 2.10 km</desc>
<time>2010-02-28T16:30:39.34</time>
<name>1280</name>
</trkpt>
<trkpt lat="48.980442" lon="8.670792">
<ele>349.5</ele>
<speed>6.0</speed>
<course>227.6</course>
<desc>Speed 6.0 km/h Distance 2.10 km</desc>
<time>2010-02-28T16:30:40.35</time>
<name>1281</name>
</trkpt>
<trkpt lat="48.980427" lon="8.670767">
<ele>349.0</ele>
<speed>6.0</speed>
<course>225.6</course>
<desc>Speed 6.0 km/h Distance 2.10 km</desc>
<time>2010-02-28T16:30:41.34</time>
<name>1282</name>
</trkpt>
<trkpt lat="48.980412" lon="8.670743">
<ele>348.5</ele>
<speed>5.8</speed>
<course>232.7</course>
<desc>Speed 5.8 km/h Distance 2.10 km</desc>
<time>2010-02-28T16:30:42.35</time>
<name>1283</name>
</trkpt>
<trkpt lat="48.980400" lon="8.670720">
<ele>348.5</ele>
<speed>5.6</speed>
<course>232.6</course>
<desc>Speed 5.6 km/h Distance 2.10 km</desc>
<time>2010-02-28T16:30:43.35</time>
<name>1284</name>
</trkpt>
<trkpt lat="48.980392" lon="8.670703">
<ele>348.0</ele>
<speed>5.1</speed>
<course>234.9</course>
<desc>Speed 5.1 km/h Distance 2.11 km</desc>
<time>2010-02-28T16:30:44.35</time>
<name>1285</name>
</trkpt>
<trkpt lat="48.980382" lon="8.670682">
<ele>348.5</ele>
<speed>5.9</speed>
<course>228.4</course>
<desc>Speed 5.9 km/h Distance 2.11 km</desc>
<time>2010-02-28T16:30:45.35</time>
<name>1286</name>
</trkpt>
<trkpt lat="48.980370" lon="8.670662">
<ele>348.0</ele>
<speed>5.9</speed>
<course>225.9</course>
<desc>Speed 5.9 km/h Distance 2.11 km</desc>
<time>2010-02-28T16:30:46.35</time>
<name>1287</name>
</trkpt>
<trkpt lat="48.980358" lon="8.670643">
<ele>348.0</ele>
<speed>5.4</speed>
<course>230.7</course>
<desc>Speed 5.4 km/h Distance 2.11 km</desc>
<time>2010-02-28T16:30:47.34</time>
<name>1288</name>
</trkpt>
<trkpt lat="48.980347" lon="8.670622">
<ele>347.5</ele>
<speed>5.9</speed>
<course>232.7</course>
<desc>Speed 5.9 km/h Distance 2.11 km</desc>
<time>2010-02-28T16:30:48.35</time>
<name>1289</name>
</trkpt>
<trkpt lat="48.980337" lon="8.670602">
<ele>347.5</ele>
<speed>5.5</speed>
<course>236.3</course>
<desc>Speed 5.5 km/h Distance 2.12 km</desc>
<time>2010-02-28T16:30:49.34</time>
<name>1290</name>
</trkpt>
<trkpt lat="48.980325" lon="8.670575">
<ele>348.5</ele>
<speed>5.5</speed>
<course>230.6</course>
<desc>Speed 5.5 km/h Distance 2.12 km</desc>
<time>2010-02-28T16:30:50.34</time>
<name>1291</name>
</trkpt>
<trkpt lat="48.980313" lon="8.670553">
<ele>349.5</ele>
<speed>5.5</speed>
<course>230.6</course>
<desc>Speed 5.5 km/h Distance 2.12 km</desc>
<time>2010-02-28T16:30:51.34</time>
<name>1292</name>
</trkpt>
<trkpt lat="48.980302" lon="8.670532">
<ele>350.0</ele>
<speed>5.5</speed>
<course>230.3</course>
<desc>Speed 5.5 km/h Distance 2.12 km</desc>
<time>2010-02-28T16:30:52.34</time>
<name>1293</name>
</trkpt>
<trkpt lat="48.980292" lon="8.670513">
<ele>350.0</ele>
<speed>5.6</speed>
<course>232.6</course>
<desc>Speed 5.6 km/h Distance 2.12 km</desc>
<time>2010-02-28T16:30:53.35</time>
<name>1294</name>
</trkpt>
<trkpt lat="48.980282" lon="8.670493">
<ele>350.5</ele>
<speed>5.5</speed>
<course>223.2</course>
<desc>Speed 5.5 km/h Distance 2.13 km</desc>
<time>2010-02-28T16:30:54.34</time>
<name>1295</name>
</trkpt>
<trkpt lat="48.980270" lon="8.670477">
<ele>350.0</ele>
<speed>5.1</speed>
<course>235.3</course>
<desc>Speed 5.1 km/h Distance 2.13 km</desc>
<time>2010-02-28T16:30:55.34</time>
<name>1296</name>
</trkpt>
<trkpt lat="48.980262" lon="8.670458">
<ele>350.0</ele>
<speed>5.0</speed>
<course>228.4</course>
<desc>Speed 5.0 km/h Distance 2.13 km</desc>
<time>2010-02-28T16:30:56.34</time>
<name>1297</name>
</trkpt>
<trkpt lat="48.980250" lon="8.670438">
<ele>350.0</ele>
<speed>5.3</speed>
<course>235.2</course>
<desc>Speed 5.3 km/h Distance 2.13 km</desc>
<time>2010-02-28T16:30:57.34</time>
<name>1298</name>
</trkpt>
<trkpt lat="48.980242" lon="8.670420">
<ele>350.0</ele>
<speed>5.8</speed>
<course>227.5</course>
<desc>Speed 5.8 km/h Distance 2.13 km</desc>
<time>2010-02-28T16:30:58.34</time>
<name>1299</name>
</trkpt>
<trkpt lat="48.980232" lon="8.670403">
<ele>350.0</ele>
<speed>5.4</speed>
<course>237.6</course>
<desc>Speed 5.4 km/h Distance 2.13 km</desc>
<time>2010-02-28T16:30:59.34</time>
<name>1300</name>
</trkpt>
<trkpt lat="48.980223" lon="8.670383">
<ele>350.0</ele>
<speed>5.7</speed>
<course>230.3</course>
<desc>Speed 5.7 km/h Distance 2.14 km</desc>
<time>2010-02-28T16:31:00.34</time>
<name>1301</name>
</trkpt>
<trkpt lat="48.980213" lon="8.670365">
<ele>350.0</ele>
<speed>5.6</speed>
<course>225.9</course>
<desc>Speed 5.6 km/h Distance 2.14 km</desc>
<time>2010-02-28T16:31:01.34</time>
<name>1302</name>
</trkpt>
<trkpt lat="48.980202" lon="8.670347">
<ele>350.0</ele>
<speed>6.2</speed>
<course>229.7</course>
<desc>Speed 6.2 km/h Distance 2.14 km</desc>
<time>2010-02-28T16:31:02.34</time>
<name>1303</name>
</trkpt>
<trkpt lat="48.980193" lon="8.670332">
<ele>349.0</ele>
<speed>4.7</speed>
<course>238.7</course>
<desc>Speed 4.7 km/h Distance 2.14 km</desc>
<time>2010-02-28T16:31:03.35</time>
<name>1304</name>
</trkpt>
<trkpt lat="48.980187" lon="8.670315">
<ele>349.0</ele>
<speed>4.8</speed>
<course>235.3</course>
<desc>Speed 4.8 km/h Distance 2.14 km</desc>
<time>2010-02-28T16:31:04.34</time>
<name>1305</name>
</trkpt>
<trkpt lat="48.980178" lon="8.670297">
<ele>349.0</ele>
<speed>5.3</speed>
<course>235.3</course>
<desc>Speed 5.3 km/h Distance 2.14 km</desc>
<time>2010-02-28T16:31:05.35</time>
<name>1306</name>
</trkpt>
<trkpt lat="48.980170" lon="8.670278">
<ele>348.5</ele>
<speed>5.1</speed>
<course>235.3</course>
<desc>Speed 5.1 km/h Distance 2.15 km</desc>
<time>2010-02-28T16:31:06.34</time>
<name>1307</name>
</trkpt>
<trkpt lat="48.980162" lon="8.670260">
<ele>348.0</ele>
<speed>5.0</speed>
<course>227.6</course>
<desc>Speed 5.0 km/h Distance 2.15 km</desc>
<time>2010-02-28T16:31:07.34</time>
<name>1308</name>
</trkpt>
<trkpt lat="48.980152" lon="8.670243">
<ele>348.0</ele>
<speed>5.0</speed>
<course>227.5</course>
<desc>Speed 5.0 km/h Distance 2.15 km</desc>
<time>2010-02-28T16:31:08.34</time>
<name>1309</name>
</trkpt>
<trkpt lat="48.980142" lon="8.670227">
<ele>348.0</ele>
<speed>5.0</speed>
<course>224.5</course>
<desc>Speed 5.0 km/h Distance 2.15 km</desc>
<time>2010-02-28T16:31:09.34</time>
<name>1310</name>
</trkpt>
<trkpt lat="48.980132" lon="8.670212">
<ele>348.0</ele>
<speed>5.3</speed>
<course>223.3</course>
<desc>Speed 5.3 km/h Distance 2.15 km</desc>
<time>2010-02-28T16:31:10.34</time>
<name>1311</name>
</trkpt>
<trkpt lat="48.980120" lon="8.670195">
<ele>347.5</ele>
<speed>6.0</speed>
<course>232.7</course>
<desc>Speed 6.0 km/h Distance 2.15 km</desc>
<time>2010-02-28T16:31:11.34</time>
<name>1312</name>
</trkpt>
<trkpt lat="48.980112" lon="8.670178">
<ele>347.5</ele>
<speed>5.1</speed>
<course>227.4</course>
<desc>Speed 5.1 km/h Distance 2.16 km</desc>
<time>2010-02-28T16:31:12.35</time>
<name>1313</name>
</trkpt>
<trkpt lat="48.980102" lon="8.670162">
<ele>347.0</ele>
<speed>5.0</speed>
<course>230.3</course>
<desc>Speed 5.0 km/h Distance 2.16 km</desc>
<time>2010-02-28T16:31:13.33</time>
<name>1314</name>
</trkpt>
<trkpt lat="48.980092" lon="8.670143">
<ele>347.5</ele>
<speed>5.1</speed>
<course>227.5</course>
<desc>Speed 5.1 km/h Distance 2.16 km</desc>
<time>2010-02-28T16:31:14.33</time>
<name>1315</name>
</trkpt>
<trkpt lat="48.980082" lon="8.670127">
<ele>347.0</ele>
<speed>5.3</speed>
<course>230.2</course>
<desc>Speed 5.3 km/h Distance 2.16 km</desc>
<time>2010-02-28T16:31:15.33</time>
<name>1316</name>
</trkpt>
<trkpt lat="48.980072" lon="8.670108">
<ele>347.0</ele>
<speed>5.5</speed>
<course>229.7</course>
<desc>Speed 5.5 km/h Distance 2.16 km</desc>
<time>2010-02-28T16:31:16.34</time>
<name>1317</name>
</trkpt>
<trkpt lat="48.980063" lon="8.670093">
<ele>347.0</ele>
<speed>4.9</speed>
<course>232.7</course>
<desc>Speed 4.9 km/h Distance 2.16 km</desc>
<time>2010-02-28T16:31:17.34</time>
<name>1318</name>
</trkpt>
<trkpt lat="48.980055" lon="8.670077">
<ele>347.5</ele>
<speed>5.2</speed>
<course>229.7</course>
<desc>Speed 5.2 km/h Distance 2.17 km</desc>
<time>2010-02-28T16:31:18.33</time>
<name>1319</name>
</trkpt>
<trkpt lat="48.980047" lon="8.670062">
<ele>347.5</ele>
<speed>5.0</speed>
<course>229.7</course>
<desc>Speed 5.0 km/h Distance 2.17 km</desc>
<time>2010-02-28T16:31:19.33</time>
<name>1320</name>
</trkpt>
<trkpt lat="48.980038" lon="8.670047">
<ele>347.5</ele>
<speed>5.1</speed>
<course>229.7</course>
<desc>Speed 5.1 km/h Distance 2.17 km</desc>
<time>2010-02-28T16:31:20.33</time>
<name>1321</name>
</trkpt>
<trkpt lat="48.980030" lon="8.670032">
<ele>347.5</ele>
<speed>5.4</speed>
<course>221.2</course>
<desc>Speed 5.4 km/h Distance 2.17 km</desc>
<time>2010-02-28T16:31:21.34</time>
<name>1322</name>
</trkpt>
<trkpt lat="48.980020" lon="8.670018">
<ele>347.5</ele>
<speed>5.3</speed>
<course>220.2</course>
<desc>Speed 5.3 km/h Distance 2.17 km</desc>
<time>2010-02-28T16:31:22.33</time>
<name>1323</name>
</trkpt>
<trkpt lat="48.980008" lon="8.670003">
<ele>347.0</ele>
<speed>5.7</speed>
<course>225.8</course>
<desc>Speed 5.7 km/h Distance 2.17 km</desc>
<time>2010-02-28T16:31:23.34</time>
<name>1324</name>
</trkpt>
<trkpt lat="48.979997" lon="8.669985">
<ele>346.5</ele>
<speed>5.8</speed>
<course>234.9</course>
<desc>Speed 5.8 km/h Distance 2.17 km</desc>
<time>2010-02-28T16:31:24.33</time>
<name>1325</name>
</trkpt>
<trkpt lat="48.979987" lon="8.669963">
<ele>347.0</ele>
<speed>5.8</speed>
<course>232.7</course>
<desc>Speed 5.8 km/h Distance 2.18 km</desc>
<time>2010-02-28T16:31:25.33</time>
<name>1326</name>
</trkpt>
<trkpt lat="48.979978" lon="8.669947">
<ele>347.0</ele>
<speed>5.3</speed>
<course>232.6</course>
<desc>Speed 5.3 km/h Distance 2.18 km</desc>
<time>2010-02-28T16:31:26.33</time>
<name>1327</name>
</trkpt>
<trkpt lat="48.979970" lon="8.669930">
<ele>347.0</ele>
<speed>5.1</speed>
<course>222.6</course>
<desc>Speed 5.1 km/h Distance 2.18 km</desc>
<time>2010-02-28T16:31:27.33</time>
<name>1328</name>
</trkpt>
<trkpt lat="48.979962" lon="8.669918">
<ele>346.5</ele>
<speed>4.2</speed>
<course>221.3</course>
<desc>Speed 4.2 km/h Distance 2.18 km</desc>
<time>2010-02-28T16:31:28.34</time>
<name>1329</name>
</trkpt>
<trkpt lat="48.979952" lon="8.669905">
<ele>346.0</ele>
<speed>5.4</speed>
<course>232.7</course>
<desc>Speed 5.4 km/h Distance 2.18 km</desc>
<time>2010-02-28T16:31:29.33</time>
<name>1330</name>
</trkpt>
<trkpt lat="48.979942" lon="8.669885">
<ele>346.5</ele>
<speed>5.5</speed>
<course>225.9</course>
<desc>Speed 5.5 km/h Distance 2.18 km</desc>
<time>2010-02-28T16:31:30.33</time>
<name>1331</name>
</trkpt>
<trkpt lat="48.979930" lon="8.669867">
<ele>346.5</ele>
<speed>5.1</speed>
<course>234.9</course>
<desc>Speed 5.1 km/h Distance 2.19 km</desc>
<time>2010-02-28T16:31:31.33</time>
<name>1332</name>
</trkpt>
<trkpt lat="48.979920" lon="8.669845">
<ele>347.0</ele>
<speed>5.5</speed>
<course>232.7</course>
<desc>Speed 5.5 km/h Distance 2.19 km</desc>
<time>2010-02-28T16:31:32.33</time>
<name>1333</name>
</trkpt>
<trkpt lat="48.979908" lon="8.669822">
<ele>348.0</ele>
<speed>5.2</speed>
<course>232.7</course>
<desc>Speed 5.2 km/h Distance 2.19 km</desc>
<time>2010-02-28T16:31:33.33</time>
<name>1334</name>
</trkpt>
<trkpt lat="48.979897" lon="8.669798">
<ele>348.0</ele>
<speed>5.6</speed>
<course>230.3</course>
<desc>Speed 5.6 km/h Distance 2.19 km</desc>
<time>2010-02-28T16:31:34.33</time>
<name>1335</name>
</trkpt>
<trkpt lat="48.979887" lon="8.669780">
<ele>348.0</ele>
<speed>5.3</speed>
<course>228.4</course>
<desc>Speed 5.3 km/h Distance 2.19 km</desc>
<time>2010-02-28T16:31:35.33</time>
<name>1336</name>
</trkpt>
<trkpt lat="48.979875" lon="8.669760">
<ele>348.0</ele>
<speed>5.4</speed>
<course>235.3</course>
<desc>Speed 5.4 km/h Distance 2.20 km</desc>
<time>2010-02-28T16:31:36.33</time>
<name>1337</name>
</trkpt>
<trkpt lat="48.979867" lon="8.669742">
<ele>348.0</ele>
<speed>5.1</speed>
<course>235.3</course>
<desc>Speed 5.1 km/h Distance 2.20 km</desc>
<time>2010-02-28T16:31:37.33</time>
<name>1338</name>
</trkpt>
<trkpt lat="48.979858" lon="8.669723">
<ele>348.0</ele>
<speed>5.2</speed>
<course>232.7</course>
<desc>Speed 5.2 km/h Distance 2.20 km</desc>
<time>2010-02-28T16:31:38.33</time>
<name>1339</name>
</trkpt>
<trkpt lat="48.979848" lon="8.669703">
<ele>348.0</ele>
<speed>5.1</speed>
<course>235.3</course>
<desc>Speed 5.1 km/h Distance 2.20 km</desc>
<time>2010-02-28T16:31:39.33</time>
<name>1340</name>
</trkpt>
<trkpt lat="48.979840" lon="8.669685">
<ele>348.0</ele>
<speed>5.2</speed>
<course>235.3</course>
<desc>Speed 5.2 km/h Distance 2.20 km</desc>
<time>2010-02-28T16:31:40.34</time>
<name>1341</name>
</trkpt>
<trkpt lat="48.979832" lon="8.669667">
<ele>348.0</ele>
<speed>4.9</speed>
<course>235.3</course>
<desc>Speed 4.9 km/h Distance 2.20 km</desc>
<time>2010-02-28T16:31:42.32</time>
<name>1342</name>
</trkpt>
<trkpt lat="48.979823" lon="8.669648">
<ele>348.5</ele>
<speed>4.6</speed>
<course>239.6</course>
<desc>Speed 4.6 km/h Distance 2.21 km</desc>
<time>2010-02-28T16:31:43.33</time>
<name>1343</name>
</trkpt>
<trkpt lat="48.979815" lon="8.669627">
<ele>349.0</ele>
<speed>5.4</speed>
<course>230.3</course>
<desc>Speed 5.4 km/h Distance 2.21 km</desc>
<time>2010-02-28T16:31:44.32</time>
<name>1344</name>
</trkpt>
<trkpt lat="48.979805" lon="8.669608">
<ele>348.5</ele>
<speed>5.3</speed>
<course>232.7</course>
<desc>Speed 5.3 km/h Distance 2.21 km</desc>
<time>2010-02-28T16:31:45.33</time>
<name>1345</name>
</trkpt>
<trkpt lat="48.979795" lon="8.669588">
<ele>349.0</ele>
<speed>5.0</speed>
<course>237.6</course>
<desc>Speed 5.0 km/h Distance 2.21 km</desc>
<time>2010-02-28T16:31:46.32</time>
<name>1346</name>
</trkpt>
<trkpt lat="48.979787" lon="8.669568">
<ele>349.0</ele>
<speed>5.3</speed>
<course>230.3</course>
<desc>Speed 5.3 km/h Distance 2.21 km</desc>
<time>2010-02-28T16:31:47.32</time>
<name>1347</name>
</trkpt>
<trkpt lat="48.979777" lon="8.669550">
<ele>349.0</ele>
<speed>5.2</speed>
<course>230.3</course>
<desc>Speed 5.2 km/h Distance 2.21 km</desc>
<time>2010-02-28T16:31:48.32</time>
<name>1348</name>
</trkpt>
<trkpt lat="48.979767" lon="8.669532">
<ele>349.0</ele>
<speed>5.8</speed>
<course>232.7</course>
<desc>Speed 5.8 km/h Distance 2.22 km</desc>
<time>2010-02-28T16:31:49.32</time>
<name>1349</name>
</trkpt>
<trkpt lat="48.979758" lon="8.669515">
<ele>349.0</ele>
<speed>4.8</speed>
<course>243.1</course>
<desc>Speed 4.8 km/h Distance 2.22 km</desc>
<time>2010-02-28T16:31:50.33</time>
<name>1350</name>
</trkpt>
<trkpt lat="48.979752" lon="8.669495">
<ele>349.0</ele>
<speed>4.7</speed>
<course>237.6</course>
<desc>Speed 4.7 km/h Distance 2.22 km</desc>
<time>2010-02-28T16:31:51.32</time>
<name>1351</name>
</trkpt>
<trkpt lat="48.979743" lon="8.669475">
<ele>348.5</ele>
<speed>5.1</speed>
<course>243.1</course>
<desc>Speed 5.1 km/h Distance 2.22 km</desc>
<time>2010-02-28T16:31:52.32</time>
<name>1352</name>
</trkpt>
<trkpt lat="48.979738" lon="8.669460">
<ele>348.0</ele>
<speed>3.1</speed>
<course>220.2</course>
<desc>Speed 3.1 km/h Distance 2.22 km</desc>
<time>2010-02-28T16:31:53.33</time>
<name>1353</name>
</trkpt>
<trkpt lat="48.979727" lon="8.669445">
<ele>348.0</ele>
<speed>4.3</speed>
<course>217.5</course>
<desc>Speed 4.3 km/h Distance 2.22 km</desc>
<time>2010-02-28T16:31:54.32</time>
<name>1354</name>
</trkpt>
<trkpt lat="48.979717" lon="8.669433">
<ele>347.5</ele>
<speed>4.8</speed>
<course>209.4</course>
<desc>Speed 4.8 km/h Distance 2.23 km</desc>
<time>2010-02-28T16:31:55.32</time>
<name>1355</name>
</trkpt>
<trkpt lat="48.979705" lon="8.669423">
<ele>347.5</ele>
<speed>4.7</speed>
<course>205.2</course>
<desc>Speed 4.7 km/h Distance 2.23 km</desc>
<time>2010-02-28T16:31:56.33</time>
<name>1356</name>
</trkpt>
<trkpt lat="48.979693" lon="8.669415">
<ele>347.5</ele>
<speed>4.0</speed>
<course>202.1</course>
<desc>Speed 4.0 km/h Distance 2.23 km</desc>
<time>2010-02-28T16:31:57.32</time>
<name>1357</name>
</trkpt>
<trkpt lat="48.979680" lon="8.669407">
<ele>347.0</ele>
<speed>5.1</speed>
<course>206.2</course>
<desc>Speed 5.1 km/h Distance 2.23 km</desc>
<time>2010-02-28T16:31:58.33</time>
<name>1358</name>
</trkpt>
<trkpt lat="48.979667" lon="8.669397">
<ele>347.5</ele>
<speed>5.5</speed>
<course>200.1</course>
<desc>Speed 5.5 km/h Distance 2.23 km</desc>
<time>2010-02-28T16:31:59.33</time>
<name>1359</name>
</trkpt>
<trkpt lat="48.979652" lon="8.669388">
<ele>347.0</ele>
<speed>5.4</speed>
<course>206.4</course>
<desc>Speed 5.4 km/h Distance 2.23 km</desc>
<time>2010-02-28T16:32:00.32</time>
<name>1360</name>
</trkpt>
<trkpt lat="48.979638" lon="8.669378">
<ele>347.0</ele>
<speed>5.1</speed>
<course>206.2</course>
<desc>Speed 5.1 km/h Distance 2.24 km</desc>
<time>2010-02-28T16:32:01.33</time>
<name>1361</name>
</trkpt>
<trkpt lat="48.979625" lon="8.669368">
<ele>347.0</ele>
<speed>4.9</speed>
<course>209.4</course>
<desc>Speed 4.9 km/h Distance 2.24 km</desc>
<time>2010-02-28T16:32:02.32</time>
<name>1362</name>
</trkpt>
<trkpt lat="48.979613" lon="8.669358">
<ele>347.5</ele>
<speed>4.4</speed>
<course>209.4</course>
<desc>Speed 4.4 km/h Distance 2.24 km</desc>
<time>2010-02-28T16:32:03.32</time>
<name>1363</name>
</trkpt>
<trkpt lat="48.979602" lon="8.669348">
<ele>348.0</ele>
<speed>5.1</speed>
<course>209.4</course>
<desc>Speed 5.1 km/h Distance 2.24 km</desc>
<time>2010-02-28T16:32:04.33</time>
<name>1364</name>
</trkpt>
<trkpt lat="48.979590" lon="8.669338">
<ele>348.0</ele>
<speed>5.3</speed>
<course>200.1</course>
<desc>Speed 5.3 km/h Distance 2.24 km</desc>
<time>2010-02-28T16:32:05.33</time>
<name>1365</name>
</trkpt>
<trkpt lat="48.979575" lon="8.669330">
<ele>348.0</ele>
<speed>5.8</speed>
<course>204.9</course>
<desc>Speed 5.8 km/h Distance 2.24 km</desc>
<time>2010-02-28T16:32:06.33</time>
<name>1366</name>
</trkpt>
<trkpt lat="48.979563" lon="8.669322">
<ele>348.5</ele>
<speed>5.1</speed>
<course>209.8</course>
<desc>Speed 5.1 km/h Distance 2.24 km</desc>
<time>2010-02-28T16:32:07.32</time>
<name>1367</name>
</trkpt>
<trkpt lat="48.979550" lon="8.669310">
<ele>349.0</ele>
<speed>5.5</speed>
<course>206.2</course>
<desc>Speed 5.5 km/h Distance 2.25 km</desc>
<time>2010-02-28T16:32:08.32</time>
<name>1368</name>
</trkpt>
<trkpt lat="48.979537" lon="8.669300">
<ele>349.0</ele>
<speed>5.4</speed>
<course>200.6</course>
<desc>Speed 5.4 km/h Distance 2.25 km</desc>
<time>2010-02-28T16:32:09.33</time>
<name>1369</name>
</trkpt>
<trkpt lat="48.979525" lon="8.669293">
<ele>348.0</ele>
<speed>5.3</speed>
<course>213.3</course>
<desc>Speed 5.3 km/h Distance 2.25 km</desc>
<time>2010-02-28T16:32:10.33</time>
<name>1370</name>
</trkpt>
<trkpt lat="48.979513" lon="8.669282">
<ele>348.5</ele>
<speed>5.4</speed>
<course>203.7</course>
<desc>Speed 5.4 km/h Distance 2.25 km</desc>
<time>2010-02-28T16:32:11.32</time>
<name>1371</name>
</trkpt>
<trkpt lat="48.979498" lon="8.669272">
<ele>348.0</ele>
<speed>5.1</speed>
<course>200.1</course>
<desc>Speed 5.1 km/h Distance 2.25 km</desc>
<time>2010-02-28T16:32:12.32</time>
<name>1372</name>
</trkpt>
<trkpt lat="48.979483" lon="8.669263">
<ele>347.5</ele>
<speed>5.1</speed>
<course>202.1</course>
<desc>Speed 5.1 km/h Distance 2.25 km</desc>
<time>2010-02-28T16:32:13.32</time>
<name>1373</name>
</trkpt>
<trkpt lat="48.979470" lon="8.669255">
<ele>347.0</ele>
<speed>4.7</speed>
<course>201.5</course>
<desc>Speed 4.7 km/h Distance 2.26 km</desc>
<time>2010-02-28T16:32:14.31</time>
<name>1374</name>
</trkpt>
<trkpt lat="48.979453" lon="8.669245">
<ele>346.0</ele>
<speed>5.8</speed>
<course>205.2</course>
<desc>Speed 5.8 km/h Distance 2.26 km</desc>
<time>2010-02-28T16:32:15.31</time>
<name>1375</name>
</trkpt>
<trkpt lat="48.979442" lon="8.669237">
<ele>346.0</ele>
<speed>4.9</speed>
<course>206.0</course>
<desc>Speed 4.9 km/h Distance 2.26 km</desc>
<time>2010-02-28T16:32:16.31</time>
<name>1376</name>
</trkpt>
<trkpt lat="48.979428" lon="8.669227">
<ele>346.0</ele>
<speed>5.4</speed>
<course>210.3</course>
<desc>Speed 5.4 km/h Distance 2.26 km</desc>
<time>2010-02-28T16:32:17.31</time>
<name>1377</name>
</trkpt>
<trkpt lat="48.979413" lon="8.669213">
<ele>346.0</ele>
<speed>5.8</speed>
<course>200.1</course>
<desc>Speed 5.8 km/h Distance 2.26 km</desc>
<time>2010-02-28T16:32:18.32</time>
<name>1378</name>
</trkpt>
<trkpt lat="48.979398" lon="8.669205">
<ele>346.0</ele>
<speed>5.7</speed>
<course>210.1</course>
<desc>Speed 5.7 km/h Distance 2.27 km</desc>
<time>2010-02-28T16:32:19.31</time>
<name>1379</name>
</trkpt>
<trkpt lat="48.979383" lon="8.669192">
<ele>346.0</ele>
<speed>5.3</speed>
<course>206.0</course>
<desc>Speed 5.3 km/h Distance 2.27 km</desc>
<time>2010-02-28T16:32:20.31</time>
<name>1380</name>
</trkpt>
<trkpt lat="48.979370" lon="8.669182">
<ele>346.0</ele>
<speed>5.6</speed>
<course>196.3</course>
<desc>Speed 5.6 km/h Distance 2.27 km</desc>
<time>2010-02-28T16:32:21.31</time>
<name>1381</name>
</trkpt>
<trkpt lat="48.979355" lon="8.669175">
<ele>345.5</ele>
<speed>5.5</speed>
<course>209.8</course>
<desc>Speed 5.5 km/h Distance 2.27 km</desc>
<time>2010-02-28T16:32:22.31</time>
<name>1382</name>
</trkpt>
<trkpt lat="48.979342" lon="8.669163">
<ele>345.5</ele>
<speed>5.4</speed>
<course>198.1</course>
<desc>Speed 5.4 km/h Distance 2.27 km</desc>
<time>2010-02-28T16:32:23.31</time>
<name>1383</name>
</trkpt>
<trkpt lat="48.979328" lon="8.669157">
<ele>345.0</ele>
<speed>4.8</speed>
<course>205.2</course>
<desc>Speed 4.8 km/h Distance 2.27 km</desc>
<time>2010-02-28T16:32:24.31</time>
<name>1384</name>
</trkpt>
<trkpt lat="48.979317" lon="8.669148">
<ele>345.0</ele>
<speed>5.0</speed>
<course>206.4</course>
<desc>Speed 5.0 km/h Distance 2.28 km</desc>
<time>2010-02-28T16:32:25.31</time>
<name>1385</name>
</trkpt>
<trkpt lat="48.979303" lon="8.669138">
<ele>344.5</ele>
<speed>5.4</speed>
<course>210.3</course>
<desc>Speed 5.4 km/h Distance 2.28 km</desc>
<time>2010-02-28T16:32:26.32</time>
<name>1386</name>
</trkpt>
<trkpt lat="48.979288" lon="8.669125">
<ele>345.0</ele>
<speed>5.5</speed>
<course>216.6</course>
<desc>Speed 5.5 km/h Distance 2.28 km</desc>
<time>2010-02-28T16:32:27.31</time>
<name>1387</name>
</trkpt>
<trkpt lat="48.979275" lon="8.669110">
<ele>346.0</ele>
<speed>5.2</speed>
<course>227.5</course>
<desc>Speed 5.2 km/h Distance 2.28 km</desc>
<time>2010-02-28T16:32:28.32</time>
<name>1388</name>
</trkpt>
<trkpt lat="48.979265" lon="8.669093">
<ele>347.5</ele>
<speed>5.4</speed>
<course>217.5</course>
<desc>Speed 5.4 km/h Distance 2.28 km</desc>
<time>2010-02-28T16:32:29.31</time>
<name>1389</name>
</trkpt>
<trkpt lat="48.979255" lon="8.669082">
<ele>347.5</ele>
<speed>4.5</speed>
<course>220.2</course>
<desc>Speed 4.5 km/h Distance 2.28 km</desc>
<time>2010-02-28T16:32:30.31</time>
<name>1390</name>
</trkpt>
<trkpt lat="48.979243" lon="8.669067">
<ele>347.5</ele>
<speed>4.8</speed>
<course>213.3</course>
<desc>Speed 4.8 km/h Distance 2.29 km</desc>
<time>2010-02-28T16:32:31.31</time>
<name>1391</name>
</trkpt>
<trkpt lat="48.979230" lon="8.669053">
<ele>347.0</ele>
<speed>4.8</speed>
<course>203.8</course>
<desc>Speed 4.8 km/h Distance 2.29 km</desc>
<time>2010-02-28T16:32:32.32</time>
<name>1392</name>
</trkpt>
<trkpt lat="48.979220" lon="8.669047">
<ele>347.0</ele>
<speed>4.1</speed>
<course>209.4</course>
<desc>Speed 4.1 km/h Distance 2.29 km</desc>
<time>2010-02-28T16:32:33.32</time>
<name>1393</name>
</trkpt>
<trkpt lat="48.979208" lon="8.669037">
<ele>347.0</ele>
<speed>4.6</speed>
<course>207.2</course>
<desc>Speed 4.6 km/h Distance 2.29 km</desc>
<time>2010-02-28T16:32:34.32</time>
<name>1394</name>
</trkpt>
<trkpt lat="48.979193" lon="8.669025">
<ele>347.0</ele>
<speed>5.3</speed>
<course>205.2</course>
<desc>Speed 5.3 km/h Distance 2.29 km</desc>
<time>2010-02-28T16:32:35.31</time>
<name>1395</name>
</trkpt>
<trkpt lat="48.979182" lon="8.669017">
<ele>347.5</ele>
<speed>4.8</speed>
<course>204.7</course>
<desc>Speed 4.8 km/h Distance 2.29 km</desc>
<time>2010-02-28T16:32:36.31</time>
<name>1396</name>
</trkpt>
<trkpt lat="48.979165" lon="8.669005">
<ele>347.5</ele>
<speed>5.4</speed>
<course>202.1</course>
<desc>Speed 5.4 km/h Distance 2.30 km</desc>
<time>2010-02-28T16:32:37.31</time>
<name>1397</name>
</trkpt>
<trkpt lat="48.979152" lon="8.668997">
<ele>347.0</ele>
<speed>5.4</speed>
<course>206.2</course>
<desc>Speed 5.4 km/h Distance 2.30 km</desc>
<time>2010-02-28T16:32:38.32</time>
<name>1398</name>
</trkpt>
<trkpt lat="48.979138" lon="8.668987">
<ele>347.0</ele>
<speed>5.3</speed>
<course>213.4</course>
<desc>Speed 5.3 km/h Distance 2.30 km</desc>
<time>2010-02-28T16:32:39.31</time>
<name>1399</name>
</trkpt>
<trkpt lat="48.979127" lon="8.668975">
<ele>347.0</ele>
<speed>4.9</speed>
<course>203.7</course>
<desc>Speed 4.9 km/h Distance 2.30 km</desc>
<time>2010-02-28T16:32:40.32</time>
<name>1400</name>
</trkpt>
<trkpt lat="48.979112" lon="8.668965">
<ele>347.0</ele>
<speed>5.5</speed>
<course>210.1</course>
<desc>Speed 5.5 km/h Distance 2.30 km</desc>
<time>2010-02-28T16:32:41.31</time>
<name>1401</name>
</trkpt>
<trkpt lat="48.979098" lon="8.668953">
<ele>347.0</ele>
<speed>5.5</speed>
<course>200.1</course>
<desc>Speed 5.5 km/h Distance 2.30 km</desc>
<time>2010-02-28T16:32:42.32</time>
<name>1402</name>
</trkpt>
<trkpt lat="48.979083" lon="8.668945">
<ele>346.5</ele>
<speed>5.6</speed>
<course>203.7</course>
<desc>Speed 5.6 km/h Distance 2.31 km</desc>
<time>2010-02-28T16:32:43.31</time>
<name>1403</name>
</trkpt>
<trkpt lat="48.979068" lon="8.668935">
<ele>346.5</ele>
<speed>5.8</speed>
<course>194.6</course>
<desc>Speed 5.8 km/h Distance 2.31 km</desc>
<time>2010-02-28T16:32:44.31</time>
<name>1404</name>
</trkpt>
<trkpt lat="48.979052" lon="8.668928">
<ele>347.0</ele>
<speed>5.8</speed>
<course>201.5</course>
<desc>Speed 5.8 km/h Distance 2.31 km</desc>
<time>2010-02-28T16:32:45.30</time>
<name>1405</name>
</trkpt>
<trkpt lat="48.979035" lon="8.668918">
<ele>347.0</ele>
<speed>5.6</speed>
<course>206.0</course>
<desc>Speed 5.6 km/h Distance 2.31 km</desc>
<time>2010-02-28T16:32:46.31</time>
<name>1406</name>
</trkpt>
<trkpt lat="48.979022" lon="8.668908">
<ele>347.0</ele>
<speed>5.6</speed>
<course>206.0</course>
<desc>Speed 5.6 km/h Distance 2.31 km</desc>
<time>2010-02-28T16:32:47.30</time>
<name>1407</name>
</trkpt>
<trkpt lat="48.979008" lon="8.668898">
<ele>347.0</ele>
<speed>5.1</speed>
<course>209.4</course>
<desc>Speed 5.1 km/h Distance 2.31 km</desc>
<time>2010-02-28T16:32:48.30</time>
<name>1408</name>
</trkpt>
<trkpt lat="48.978997" lon="8.668888">
<ele>347.5</ele>
<speed>5.1</speed>
<course>213.4</course>
<desc>Speed 5.1 km/h Distance 2.32 km</desc>
<time>2010-02-28T16:32:49.30</time>
<name>1409</name>
</trkpt>
<trkpt lat="48.978985" lon="8.668877">
<ele>347.5</ele>
<speed>5.2</speed>
<course>209.4</course>
<desc>Speed 5.2 km/h Distance 2.32 km</desc>
<time>2010-02-28T16:32:50.31</time>
<name>1410</name>
</trkpt>
<trkpt lat="48.978973" lon="8.668867">
<ele>347.5</ele>
<speed>5.1</speed>
<course>206.0</course>
<desc>Speed 5.1 km/h Distance 2.32 km</desc>
<time>2010-02-28T16:32:51.31</time>
<name>1411</name>
</trkpt>
<trkpt lat="48.978960" lon="8.668857">
<ele>348.0</ele>
<speed>4.9</speed>
<course>202.1</course>
<desc>Speed 4.9 km/h Distance 2.32 km</desc>
<time>2010-02-28T16:32:52.30</time>
<name>1412</name>
</trkpt>
<trkpt lat="48.978947" lon="8.668848">
<ele>348.5</ele>
<speed>5.5</speed>
<course>200.9</course>
<desc>Speed 5.5 km/h Distance 2.32 km</desc>
<time>2010-02-28T16:32:53.31</time>
<name>1413</name>
</trkpt>
<trkpt lat="48.978935" lon="8.668842">
<ele>348.5</ele>
<speed>5.3</speed>
<course>201.5</course>
<desc>Speed 5.3 km/h Distance 2.32 km</desc>
<time>2010-02-28T16:32:54.30</time>
<name>1414</name>
</trkpt>
<trkpt lat="48.978918" lon="8.668832">
<ele>348.5</ele>
<speed>5.6</speed>
<course>206.0</course>
<desc>Speed 5.6 km/h Distance 2.33 km</desc>
<time>2010-02-28T16:32:55.30</time>
<name>1415</name>
</trkpt>
<trkpt lat="48.978905" lon="8.668822">
<ele>349.0</ele>
<speed>5.2</speed>
<course>213.2</course>
<desc>Speed 5.2 km/h Distance 2.33 km</desc>
<time>2010-02-28T16:32:56.30</time>
<name>1416</name>
</trkpt>
<trkpt lat="48.978895" lon="8.668812">
<ele>349.5</ele>
<speed>4.7</speed>
<course>206.4</course>
<desc>Speed 4.7 km/h Distance 2.33 km</desc>
<time>2010-02-28T16:32:57.31</time>
<name>1417</name>
</trkpt>
<trkpt lat="48.978882" lon="8.668802">
<ele>349.5</ele>
<speed>5.1</speed>
<course>206.4</course>
<desc>Speed 5.1 km/h Distance 2.33 km</desc>
<time>2010-02-28T16:32:58.30</time>
<name>1418</name>
</trkpt>
<trkpt lat="48.978868" lon="8.668792">
<ele>350.0</ele>
<speed>5.1</speed>
<course>209.8</course>
<desc>Speed 5.1 km/h Distance 2.33 km</desc>
<time>2010-02-28T16:32:59.31</time>
<name>1419</name>
</trkpt>
<trkpt lat="48.978855" lon="8.668780">
<ele>350.0</ele>
<speed>5.3</speed>
<course>217.5</course>
<desc>Speed 5.3 km/h Distance 2.33 km</desc>
<time>2010-02-28T16:33:00.30</time>
<name>1420</name>
</trkpt>
<trkpt lat="48.978845" lon="8.668768">
<ele>350.0</ele>
<speed>5.0</speed>
<course>216.9</course>
<desc>Speed 5.0 km/h Distance 2.33 km</desc>
<time>2010-02-28T16:33:01.30</time>
<name>1421</name>
</trkpt>
<trkpt lat="48.978833" lon="8.668755">
<ele>351.0</ele>
<speed>4.6</speed>
<course>213.0</course>
<desc>Speed 4.6 km/h Distance 2.34 km</desc>
<time>2010-02-28T16:33:02.30</time>
<name>1422</name>
</trkpt>
<trkpt lat="48.978823" lon="8.668745">
<ele>352.5</ele>
<speed>4.4</speed>
<course>208.6</course>
<desc>Speed 4.4 km/h Distance 2.34 km</desc>
<time>2010-02-28T16:33:03.31</time>
<name>1423</name>
</trkpt>
<trkpt lat="48.978813" lon="8.668737">
<ele>353.0</ele>
<speed>4.0</speed>
<course>207.9</course>
<desc>Speed 4.0 km/h Distance 2.34 km</desc>
<time>2010-02-28T16:33:04.31</time>
<name>1424</name>
</trkpt>
<trkpt lat="48.978805" lon="8.668730">
<ele>352.5</ele>
<speed>3.0</speed>
<course>198.8</course>
<desc>Speed 3.0 km/h Distance 2.34 km</desc>
<time>2010-02-28T16:33:05.31</time>
<name>1425</name>
</trkpt>
<trkpt lat="48.978798" lon="8.668727">
<ele>352.0</ele>
<speed>1.7</speed>
<course>180.0</course>
<desc>Speed 1.7 km/h Distance 2.34 km</desc>
<time>2010-02-28T16:33:06.30</time>
<name>1426</name>
</trkpt>
<trkpt lat="48.978795" lon="8.668727">
<ele>352.5</ele>
<speed>0.8</speed>
<course>185.0</course>
<desc>Speed 0.8 km/h Distance 2.34 km</desc>
<time>2010-02-28T16:33:07.31</time>
<name>1427</name>
</trkpt>
<trkpt lat="48.978787" lon="8.668725">
<ele>352.0</ele>
<speed>1.7</speed>
<course>187.7</course>
<desc>Speed 1.7 km/h Distance 2.34 km</desc>
<time>2010-02-28T16:33:08.30</time>
<name>1428</name>
</trkpt>
<trkpt lat="48.978778" lon="8.668723">
<ele>352.0</ele>
<speed>2.2</speed>
<course>167.4</course>
<desc>Speed 2.2 km/h Distance 2.34 km</desc>
<time>2010-02-28T16:33:09.30</time>
<name>1429</name>
</trkpt>
<trkpt lat="48.978777" lon="8.668723">
<ele>352.0</ele>
<speed>0.9</speed>
<course>209.2</course>
<desc>Speed 0.9 km/h Distance 2.34 km</desc>
<time>2010-02-28T16:33:10.30</time>
<name>1430</name>
</trkpt>
<trkpt lat="48.978775" lon="8.668722">
<ele>352.0</ele>
<speed>0.6</speed>
<course>192.6</course>
<desc>Speed 0.6 km/h Distance 2.34 km</desc>
<time>2010-02-28T16:33:11.31</time>
<name>1431</name>
</trkpt>
<trkpt lat="48.978770" lon="8.668720">
<ele>351.5</ele>
<speed>1.0</speed>
<course>180.0</course>
<desc>Speed 1.0 km/h Distance 2.34 km</desc>
<time>2010-02-28T16:33:12.30</time>
<name>1432</name>
</trkpt>
<trkpt lat="48.978767" lon="8.668720">
<ele>351.5</ele>
<speed>0.4</speed>
<course>167.4</course>
<desc>Speed 0.4 km/h Distance 2.34 km</desc>
<time>2010-02-28T16:33:13.30</time>
<name>1433</name>
</trkpt>
<trkpt lat="48.978765" lon="8.668720">
<ele>351.5</ele>
<speed>0.1</speed>
<course>167.4</course>
<desc>Speed 0.1 km/h Distance 2.34 km</desc>
<time>2010-02-28T16:33:14.30</time>
<name>1434</name>
</trkpt>
<trkpt lat="48.978762" lon="8.668722">
<ele>351.0</ele>
<speed>0.9</speed>
<course>180.0</course>
<desc>Speed 0.9 km/h Distance 2.35 km</desc>
<time>2010-02-28T16:33:15.30</time>
<name>1435</name>
</trkpt>
<trkpt lat="48.978757" lon="8.668722">
<ele>351.0</ele>
<speed>0.9</speed>
<course>213.7</course>
<desc>Speed 0.9 km/h Distance 2.35 km</desc>
<time>2010-02-28T16:33:16.30</time>
<name>1436</name>
</trkpt>
<trkpt lat="48.978753" lon="8.668718">
<ele>351.0</ele>
<speed>1.3</speed>
<course>222.6</course>
<desc>Speed 1.3 km/h Distance 2.35 km</desc>
<time>2010-02-28T16:33:17.30</time>
<name>1437</name>
</trkpt>
<trkpt lat="48.978745" lon="8.668707">
<ele>351.5</ele>
<speed>3.2</speed>
<course>206.0</course>
<desc>Speed 3.2 km/h Distance 2.35 km</desc>
<time>2010-02-28T16:33:18.30</time>
<name>1438</name>
</trkpt>
<trkpt lat="48.978732" lon="8.668697">
<ele>351.5</ele>
<speed>4.8</speed>
<course>196.0</course>
<desc>Speed 4.8 km/h Distance 2.35 km</desc>
<time>2010-02-28T16:33:19.30</time>
<name>1439</name>
</trkpt>
<trkpt lat="48.978717" lon="8.668690">
<ele>351.5</ele>
<speed>5.5</speed>
<course>194.9</course>
<desc>Speed 5.5 km/h Distance 2.35 km</desc>
<time>2010-02-28T16:33:20.30</time>
<name>1440</name>
</trkpt>
<trkpt lat="48.978700" lon="8.668683">
<ele>352.0</ele>
<speed>5.6</speed>
<course>200.1</course>
<desc>Speed 5.6 km/h Distance 2.35 km</desc>
<time>2010-02-28T16:33:21.30</time>
<name>1441</name>
</trkpt>
<trkpt lat="48.978685" lon="8.668675">
<ele>352.0</ele>
<speed>5.6</speed>
<course>192.2</course>
<desc>Speed 5.6 km/h Distance 2.35 km</desc>
<time>2010-02-28T16:33:22.30</time>
<name>1442</name>
</trkpt>
<trkpt lat="48.978670" lon="8.668670">
<ele>351.5</ele>
<speed>5.4</speed>
<course>183.9</course>
<desc>Speed 5.4 km/h Distance 2.36 km</desc>
<time>2010-02-28T16:33:23.29</time>
<name>1443</name>
</trkpt>
<trkpt lat="48.978657" lon="8.668668">
<ele>351.0</ele>
<speed>5.2</speed>
<course>196.0</course>
<desc>Speed 5.2 km/h Distance 2.36 km</desc>
<time>2010-02-28T16:33:24.30</time>
<name>1444</name>
</trkpt>
<trkpt lat="48.978642" lon="8.668662">
<ele>350.5</ele>
<speed>5.4</speed>
<course>213.1</course>
<desc>Speed 5.4 km/h Distance 2.36 km</desc>
<time>2010-02-28T16:33:25.29</time>
<name>1445</name>
</trkpt>
<trkpt lat="48.978630" lon="8.668650">
<ele>351.5</ele>
<speed>5.1</speed>
<course>216.8</course>
<desc>Speed 5.1 km/h Distance 2.36 km</desc>
<time>2010-02-28T16:33:26.30</time>
<name>1446</name>
</trkpt>
<trkpt lat="48.978618" lon="8.668637">
<ele>352.5</ele>
<speed>5.3</speed>
<course>209.8</course>
<desc>Speed 5.3 km/h Distance 2.36 km</desc>
<time>2010-02-28T16:33:27.30</time>
<name>1447</name>
</trkpt>
<trkpt lat="48.978605" lon="8.668625">
<ele>352.5</ele>
<speed>5.1</speed>
<course>213.4</course>
<desc>Speed 5.1 km/h Distance 2.36 km</desc>
<time>2010-02-28T16:33:28.29</time>
<name>1448</name>
</trkpt>
<trkpt lat="48.978593" lon="8.668613">
<ele>353.0</ele>
<speed>5.1</speed>
<course>209.8</course>
<desc>Speed 5.1 km/h Distance 2.37 km</desc>
<time>2010-02-28T16:33:29.29</time>
<name>1449</name>
</trkpt>
<trkpt lat="48.978580" lon="8.668602">
<ele>353.0</ele>
<speed>5.3</speed>
<course>213.4</course>
<desc>Speed 5.3 km/h Distance 2.37 km</desc>
<time>2010-02-28T16:33:30.29</time>
<name>1450</name>
</trkpt>
<trkpt lat="48.978567" lon="8.668588">
<ele>351.5</ele>
<speed>5.4</speed>
<course>190.2</course>
<desc>Speed 5.4 km/h Distance 2.37 km</desc>
<time>2010-02-28T16:33:31.30</time>
<name>1451</name>
</trkpt>
<trkpt lat="48.978548" lon="8.668583">
<ele>350.5</ele>
<speed>5.4</speed>
<course>195.3</course>
<desc>Speed 5.4 km/h Distance 2.37 km</desc>
<time>2010-02-28T16:33:32.29</time>
<name>1452</name>
</trkpt>
<trkpt lat="48.978528" lon="8.668575">
<ele>350.5</ele>
<speed>5.5</speed>
<course>198.2</course>
<desc>Speed 5.5 km/h Distance 2.37 km</desc>
<time>2010-02-28T16:33:33.29</time>
<name>1453</name>
</trkpt>
<trkpt lat="48.978508" lon="8.668565">
<ele>349.5</ele>
<speed>5.8</speed>
<course>209.8</course>
<desc>Speed 5.8 km/h Distance 2.38 km</desc>
<time>2010-02-28T16:33:34.30</time>
<name>1454</name>
</trkpt>
<trkpt lat="48.978495" lon="8.668553">
<ele>349.5</ele>
<speed>5.7</speed>
<course>194.0</course>
<desc>Speed 5.7 km/h Distance 2.38 km</desc>
<time>2010-02-28T16:33:35.29</time>
<name>1455</name>
</trkpt>
<trkpt lat="48.978473" lon="8.668545">
<ele>348.5</ele>
<speed>4.8</speed>
<course>203.5</course>
<desc>Speed 4.8 km/h Distance 2.38 km</desc>
<time>2010-02-28T16:33:36.29</time>
<name>1456</name>
</trkpt>
<trkpt lat="48.978458" lon="8.668535">
<ele>349.0</ele>
<speed>5.4</speed>
<course>203.7</course>
<desc>Speed 5.4 km/h Distance 2.38 km</desc>
<time>2010-02-28T16:33:37.29</time>
<name>1457</name>
</trkpt>
<trkpt lat="48.978443" lon="8.668525">
<ele>349.0</ele>
<speed>5.1</speed>
<course>210.3</course>
<desc>Speed 5.1 km/h Distance 2.38 km</desc>
<time>2010-02-28T16:33:38.29</time>
<name>1458</name>
</trkpt>
<trkpt lat="48.978428" lon="8.668512">
<ele>349.5</ele>
<speed>4.9</speed>
<course>200.9</course>
<desc>Speed 4.9 km/h Distance 2.39 km</desc>
<time>2010-02-28T16:33:39.28</time>
<name>1459</name>
</trkpt>
<trkpt lat="48.978417" lon="8.668505">
<ele>351.0</ele>
<speed>3.5</speed>
<course>200.9</course>
<desc>Speed 3.5 km/h Distance 2.39 km</desc>
<time>2010-02-28T16:33:40.29</time>
<name>1460</name>
</trkpt>
<trkpt lat="48.978405" lon="8.668498">
<ele>351.5</ele>
<speed>4.5</speed>
<course>218.1</course>
<desc>Speed 4.5 km/h Distance 2.39 km</desc>
<time>2010-02-28T16:33:41.29</time>
<name>1461</name>
</trkpt>
<trkpt lat="48.978397" lon="8.668488">
<ele>352.5</ele>
<speed>4.0</speed>
<course>209.4</course>
<desc>Speed 4.0 km/h Distance 2.39 km</desc>
<time>2010-02-28T16:33:42.29</time>
<name>1462</name>
</trkpt>
<trkpt lat="48.978385" lon="8.668478">
<ele>353.5</ele>
<speed>4.9</speed>
<course>203.7</course>
<desc>Speed 4.9 km/h Distance 2.39 km</desc>
<time>2010-02-28T16:33:43.29</time>
<name>1463</name>
</trkpt>
<trkpt lat="48.978370" lon="8.668468">
<ele>354.5</ele>
<speed>5.3</speed>
<course>202.1</course>
<desc>Speed 5.3 km/h Distance 2.39 km</desc>
<time>2010-02-28T16:33:44.29</time>
<name>1464</name>
</trkpt>
<trkpt lat="48.978357" lon="8.668460">
<ele>354.5</ele>
<speed>5.5</speed>
<course>202.1</course>
<desc>Speed 5.5 km/h Distance 2.39 km</desc>
<time>2010-02-28T16:33:45.28</time>
<name>1465</name>
</trkpt>
<trkpt lat="48.978343" lon="8.668452">
<ele>354.0</ele>
<speed>5.1</speed>
<course>206.2</course>
<desc>Speed 5.1 km/h Distance 2.40 km</desc>
<time>2010-02-28T16:33:46.29</time>
<name>1466</name>
</trkpt>
<trkpt lat="48.978330" lon="8.668442">
<ele>354.0</ele>
<speed>5.3</speed>
<course>200.9</course>
<desc>Speed 5.3 km/h Distance 2.40 km</desc>
<time>2010-02-28T16:33:47.28</time>
<name>1467</name>
</trkpt>
<trkpt lat="48.978318" lon="8.668435">
<ele>354.0</ele>
<speed>4.2</speed>
<course>206.2</course>
<desc>Speed 4.2 km/h Distance 2.40 km</desc>
<time>2010-02-28T16:33:48.28</time>
<name>1468</name>
</trkpt>
<trkpt lat="48.978305" lon="8.668425">
<ele>354.0</ele>
<speed>5.0</speed>
<course>203.7</course>
<desc>Speed 5.0 km/h Distance 2.40 km</desc>
<time>2010-02-28T16:33:49.28</time>
<name>1469</name>
</trkpt>
<trkpt lat="48.978290" lon="8.668415">
<ele>354.0</ele>
<speed>5.6</speed>
<course>200.1</course>
<desc>Speed 5.6 km/h Distance 2.40 km</desc>
<time>2010-02-28T16:33:50.29</time>
<name>1470</name>
</trkpt>
<trkpt lat="48.978275" lon="8.668407">
<ele>354.5</ele>
<speed>5.3</speed>
<course>202.6</course>
<desc>Speed 5.3 km/h Distance 2.40 km</desc>
<time>2010-02-28T16:33:51.28</time>
<name>1471</name>
</trkpt>
<trkpt lat="48.978262" lon="8.668398">
<ele>354.5</ele>
<speed>5.7</speed>
<course>198.2</course>
<desc>Speed 5.7 km/h Distance 2.41 km</desc>
<time>2010-02-28T16:33:52.28</time>
<name>1472</name>
</trkpt>
<trkpt lat="48.978242" lon="8.668388">
<ele>353.5</ele>
<speed>5.3</speed>
<course>216.9</course>
<desc>Speed 5.3 km/h Distance 2.41 km</desc>
<time>2010-02-28T16:33:53.29</time>
<name>1473</name>
</trkpt>
<trkpt lat="48.978230" lon="8.668375">
<ele>353.5</ele>
<speed>5.3</speed>
<course>220.2</course>
<desc>Speed 5.3 km/h Distance 2.41 km</desc>
<time>2010-02-28T16:33:54.29</time>
<name>1474</name>
</trkpt>
<trkpt lat="48.978218" lon="8.668360">
<ele>354.0</ele>
<speed>4.4</speed>
<course>213.2</course>
<desc>Speed 4.4 km/h Distance 2.41 km</desc>
<time>2010-02-28T16:33:55.28</time>
<name>1475</name>
</trkpt>
<trkpt lat="48.978208" lon="8.668350">
<ele>355.0</ele>
<speed>3.6</speed>
<course>206.4</course>
<desc>Speed 3.6 km/h Distance 2.41 km</desc>
<time>2010-02-28T16:33:56.28</time>
<name>1476</name>
</trkpt>
<trkpt lat="48.978195" lon="8.668340">
<ele>355.0</ele>
<speed>5.1</speed>
<course>202.3</course>
<desc>Speed 5.1 km/h Distance 2.41 km</desc>
<time>2010-02-28T16:33:57.29</time>
<name>1477</name>
</trkpt>
<trkpt lat="48.978182" lon="8.668332">
<ele>355.5</ele>
<speed>5.4</speed>
<course>218.4</course>
<desc>Speed 5.4 km/h Distance 2.42 km</desc>
<time>2010-02-28T16:33:58.28</time>
<name>1478</name>
</trkpt>
<trkpt lat="48.978173" lon="8.668322">
<ele>355.5</ele>
<speed>4.3</speed>
<course>213.4</course>
<desc>Speed 4.3 km/h Distance 2.42 km</desc>
<time>2010-02-28T16:33:59.28</time>
<name>1479</name>
</trkpt>
<trkpt lat="48.978162" lon="8.668310">
<ele>355.0</ele>
<speed>5.2</speed>
<course>200.1</course>
<desc>Speed 5.2 km/h Distance 2.42 km</desc>
<time>2010-02-28T16:34:00.28</time>
<name>1480</name>
</trkpt>
<trkpt lat="48.978147" lon="8.668302">
<ele>355.5</ele>
<speed>5.4</speed>
<course>206.0</course>
<desc>Speed 5.4 km/h Distance 2.42 km</desc>
<time>2010-02-28T16:34:01.28</time>
<name>1481</name>
</trkpt>
<trkpt lat="48.978133" lon="8.668292">
<ele>354.5</ele>
<speed>5.5</speed>
<course>203.5</course>
<desc>Speed 5.5 km/h Distance 2.42 km</desc>
<time>2010-02-28T16:34:02.28</time>
<name>1482</name>
</trkpt>
<trkpt lat="48.978118" lon="8.668282">
<ele>355.0</ele>
<speed>5.6</speed>
<course>194.6</course>
<desc>Speed 5.6 km/h Distance 2.42 km</desc>
<time>2010-02-28T16:34:03.28</time>
<name>1483</name>
</trkpt>
<trkpt lat="48.978102" lon="8.668275">
<ele>355.5</ele>
<speed>5.9</speed>
<course>202.1</course>
<desc>Speed 5.9 km/h Distance 2.43 km</desc>
<time>2010-02-28T16:34:04.28</time>
<name>1484</name>
</trkpt>
<trkpt lat="48.978088" lon="8.668267">
<ele>355.5</ele>
<speed>5.3</speed>
<course>194.9</course>
<desc>Speed 5.3 km/h Distance 2.43 km</desc>
<time>2010-02-28T16:34:05.28</time>
<name>1485</name>
</trkpt>
<trkpt lat="48.978072" lon="8.668260">
<ele>355.5</ele>
<speed>5.8</speed>
<course>202.3</course>
<desc>Speed 5.8 km/h Distance 2.43 km</desc>
<time>2010-02-28T16:34:06.28</time>
<name>1486</name>
</trkpt>
<trkpt lat="48.978058" lon="8.668252">
<ele>355.0</ele>
<speed>5.3</speed>
<course>190.8</course>
<desc>Speed 5.3 km/h Distance 2.43 km</desc>
<time>2010-02-28T16:34:07.28</time>
<name>1487</name>
</trkpt>
<trkpt lat="48.978042" lon="8.668247">
<ele>355.5</ele>
<speed>5.3</speed>
<course>205.2</course>
<desc>Speed 5.3 km/h Distance 2.43 km</desc>
<time>2010-02-28T16:34:08.28</time>
<name>1488</name>
</trkpt>
<trkpt lat="48.978030" lon="8.668238">
<ele>355.5</ele>
<speed>4.6</speed>
<course>207.2</course>
<desc>Speed 4.6 km/h Distance 2.43 km</desc>
<time>2010-02-28T16:34:09.28</time>
<name>1489</name>
</trkpt>
<trkpt lat="48.978015" lon="8.668227">
<ele>355.5</ele>
<speed>5.7</speed>
<course>205.2</course>
<desc>Speed 5.7 km/h Distance 2.44 km</desc>
<time>2010-02-28T16:34:10.27</time>
<name>1490</name>
</trkpt>
<trkpt lat="48.978003" lon="8.668218">
<ele>355.5</ele>
<speed>4.6</speed>
<course>196.6</course>
<desc>Speed 4.6 km/h Distance 2.44 km</desc>
<time>2010-02-28T16:34:11.29</time>
<name>1491</name>
</trkpt>
<trkpt lat="48.977988" lon="8.668212">
<ele>356.0</ele>
<speed>5.3</speed>
<course>196.6</course>
<desc>Speed 5.3 km/h Distance 2.44 km</desc>
<time>2010-02-28T16:34:12.28</time>
<name>1492</name>
</trkpt>
<trkpt lat="48.977973" lon="8.668205">
<ele>356.5</ele>
<speed>5.5</speed>
<course>206.4</course>
<desc>Speed 5.5 km/h Distance 2.44 km</desc>
<time>2010-02-28T16:34:13.28</time>
<name>1493</name>
</trkpt>
<trkpt lat="48.977960" lon="8.668195">
<ele>356.5</ele>
<speed>5.5</speed>
<course>187.7</course>
<desc>Speed 5.5 km/h Distance 2.44 km</desc>
<time>2010-02-28T16:34:14.28</time>
<name>1494</name>
</trkpt>
<trkpt lat="48.977943" lon="8.668192">
<ele>356.5</ele>
<speed>5.7</speed>
<course>196.3</course>
<desc>Speed 5.7 km/h Distance 2.45 km</desc>
<time>2010-02-28T16:34:15.28</time>
<name>1495</name>
</trkpt>
<trkpt lat="48.977928" lon="8.668185">
<ele>356.0</ele>
<speed>5.7</speed>
<course>196.6</course>
<desc>Speed 5.7 km/h Distance 2.45 km</desc>
<time>2010-02-28T16:34:16.28</time>
<name>1496</name>
</trkpt>
<trkpt lat="48.977913" lon="8.668178">
<ele>355.5</ele>
<speed>5.5</speed>
<course>198.6</course>
<desc>Speed 5.5 km/h Distance 2.45 km</desc>
<time>2010-02-28T16:34:17.27</time>
<name>1497</name>
</trkpt>
<trkpt lat="48.977897" lon="8.668170">
<ele>355.5</ele>
<speed>5.4</speed>
<course>209.4</course>
<desc>Speed 5.4 km/h Distance 2.45 km</desc>
<time>2010-02-28T16:34:18.28</time>
<name>1498</name>
</trkpt>
<trkpt lat="48.977885" lon="8.668160">
<ele>355.0</ele>
<speed>5.1</speed>
<course>206.2</course>
<desc>Speed 5.1 km/h Distance 2.45 km</desc>
<time>2010-02-28T16:34:19.27</time>
<name>1499</name>
</trkpt>
<trkpt lat="48.977872" lon="8.668150">
<ele>355.0</ele>
<speed>5.3</speed>
<course>206.2</course>
<desc>Speed 5.3 km/h Distance 2.45 km</desc>
<time>2010-02-28T16:34:20.27</time>
<name>1500</name>
</trkpt>
<trkpt lat="48.977858" lon="8.668140">
<ele>355.0</ele>
<speed>4.7</speed>
<course>209.8</course>
<desc>Speed 4.7 km/h Distance 2.46 km</desc>
<time>2010-02-28T16:34:21.27</time>
<name>1501</name>
</trkpt>
<trkpt lat="48.977845" lon="8.668128">
<ele>355.0</ele>
<speed>4.9</speed>
<course>202.1</course>
<desc>Speed 4.9 km/h Distance 2.46 km</desc>
<time>2010-02-28T16:34:22.27</time>
<name>1502</name>
</trkpt>
<trkpt lat="48.977832" lon="8.668120">
<ele>355.0</ele>
<speed>5.7</speed>
<course>200.1</course>
<desc>Speed 5.7 km/h Distance 2.46 km</desc>
<time>2010-02-28T16:34:23.27</time>
<name>1503</name>
</trkpt>
<trkpt lat="48.977817" lon="8.668112">
<ele>354.5</ele>
<speed>5.4</speed>
<course>198.1</course>
<desc>Speed 5.4 km/h Distance 2.46 km</desc>
<time>2010-02-28T16:34:24.27</time>
<name>1504</name>
</trkpt>
<trkpt lat="48.977803" lon="8.668105">
<ele>354.5</ele>
<speed>4.9</speed>
<course>199.9</course>
<desc>Speed 4.9 km/h Distance 2.46 km</desc>
<time>2010-02-28T16:34:25.28</time>
<name>1505</name>
</trkpt>
<trkpt lat="48.977788" lon="8.668097">
<ele>355.0</ele>
<speed>5.5</speed>
<course>196.0</course>
<desc>Speed 5.5 km/h Distance 2.46 km</desc>
<time>2010-02-28T16:34:26.27</time>
<name>1506</name>
</trkpt>
<trkpt lat="48.977773" lon="8.668090">
<ele>354.5</ele>
<speed>5.3</speed>
<course>213.2</course>
<desc>Speed 5.3 km/h Distance 2.47 km</desc>
<time>2010-02-28T16:34:27.27</time>
<name>1507</name>
</trkpt>
<trkpt lat="48.977763" lon="8.668080">
<ele>354.5</ele>
<speed>4.8</speed>
<course>208.6</course>
<desc>Speed 4.8 km/h Distance 2.47 km</desc>
<time>2010-02-28T16:34:28.26</time>
<name>1508</name>
</trkpt>
<trkpt lat="48.977753" lon="8.668072">
<ele>355.0</ele>
<speed>4.1</speed>
<course>196.6</course>
<desc>Speed 4.1 km/h Distance 2.47 km</desc>
<time>2010-02-28T16:34:29.27</time>
<name>1509</name>
</trkpt>
<trkpt lat="48.977738" lon="8.668065">
<ele>355.0</ele>
<speed>5.5</speed>
<course>200.1</course>
<desc>Speed 5.5 km/h Distance 2.47 km</desc>
<time>2010-02-28T16:34:30.27</time>
<name>1510</name>
</trkpt>
<trkpt lat="48.977723" lon="8.668057">
<ele>355.0</ele>
<speed>5.2</speed>
<course>213.5</course>
<desc>Speed 5.2 km/h Distance 2.47 km</desc>
<time>2010-02-28T16:34:31.26</time>
<name>1511</name>
</trkpt>
<trkpt lat="48.977715" lon="8.668048">
<ele>355.5</ele>
<speed>3.9</speed>
<course>209.4</course>
<desc>Speed 3.9 km/h Distance 2.47 km</desc>
<time>2010-02-28T16:34:32.26</time>
<name>1512</name>
</trkpt>
<trkpt lat="48.977703" lon="8.668038">
<ele>356.0</ele>
<speed>4.2</speed>
<course>205.2</course>
<desc>Speed 4.2 km/h Distance 2.47 km</desc>
<time>2010-02-28T16:34:33.27</time>
<name>1513</name>
</trkpt>
<trkpt lat="48.977692" lon="8.668030">
<ele>356.5</ele>
<speed>4.5</speed>
<course>207.2</course>
<desc>Speed 4.5 km/h Distance 2.48 km</desc>
<time>2010-02-28T16:34:34.26</time>
<name>1514</name>
</trkpt>
<trkpt lat="48.977677" lon="8.668018">
<ele>356.5</ele>
<speed>5.0</speed>
<course>209.8</course>
<desc>Speed 5.0 km/h Distance 2.48 km</desc>
<time>2010-02-28T16:34:35.26</time>
<name>1515</name>
</trkpt>
<trkpt lat="48.977663" lon="8.668007">
<ele>357.0</ele>
<speed>5.2</speed>
<course>209.8</course>
<desc>Speed 5.2 km/h Distance 2.48 km</desc>
<time>2010-02-28T16:34:36.27</time>
<name>1516</name>
</trkpt>
<trkpt lat="48.977650" lon="8.667995">
<ele>356.5</ele>
<speed>5.5</speed>
<course>206.9</course>
<desc>Speed 5.5 km/h Distance 2.48 km</desc>
<time>2010-02-28T16:34:37.26</time>
<name>1517</name>
</trkpt>
<trkpt lat="48.977635" lon="8.667983">
<ele>356.0</ele>
<speed>5.4</speed>
<course>213.3</course>
<desc>Speed 5.4 km/h Distance 2.48 km</desc>
<time>2010-02-28T16:34:38.27</time>
<name>1518</name>
</trkpt>
<trkpt lat="48.977622" lon="8.667970">
<ele>355.5</ele>
<speed>5.2</speed>
<course>209.8</course>
<desc>Speed 5.2 km/h Distance 2.48 km</desc>
<time>2010-02-28T16:34:39.27</time>
<name>1519</name>
</trkpt>
<trkpt lat="48.977608" lon="8.667958">
<ele>356.5</ele>
<speed>5.4</speed>
<course>205.2</course>
<desc>Speed 5.4 km/h Distance 2.49 km</desc>
<time>2010-02-28T16:34:40.27</time>
<name>1520</name>
</trkpt>
<trkpt lat="48.977597" lon="8.667950">
<ele>356.5</ele>
<speed>5.3</speed>
<course>213.3</course>
<desc>Speed 5.3 km/h Distance 2.49 km</desc>
<time>2010-02-28T16:34:41.26</time>
<name>1521</name>
</trkpt>
<trkpt lat="48.977583" lon="8.667937">
<ele>355.5</ele>
<speed>5.4</speed>
<course>199.8</course>
<desc>Speed 5.4 km/h Distance 2.49 km</desc>
<time>2010-02-28T16:34:42.27</time>
<name>1522</name>
</trkpt>
<trkpt lat="48.977565" lon="8.667927">
<ele>355.5</ele>
<speed>6.3</speed>
<course>204.7</course>
<desc>Speed 6.3 km/h Distance 2.49 km</desc>
<time>2010-02-28T16:34:43.27</time>
<name>1523</name>
</trkpt>
<trkpt lat="48.977548" lon="8.667915">
<ele>355.5</ele>
<speed>5.8</speed>
<course>206.2</course>
<desc>Speed 5.8 km/h Distance 2.49 km</desc>
<time>2010-02-28T16:34:44.26</time>
<name>1524</name>
</trkpt>
<trkpt lat="48.977535" lon="8.667905">
<ele>355.5</ele>
<speed>5.7</speed>
<course>203.7</course>
<desc>Speed 5.7 km/h Distance 2.50 km</desc>
<time>2010-02-28T16:34:45.27</time>
<name>1525</name>
</trkpt>
<trkpt lat="48.977520" lon="8.667895">
<ele>355.0</ele>
<speed>5.8</speed>
<course>224.5</course>
<desc>Speed 5.8 km/h Distance 2.50 km</desc>
<time>2010-02-28T16:34:46.26</time>
<name>1526</name>
</trkpt>
<trkpt lat="48.977510" lon="8.667880">
<ele>354.5</ele>
<speed>4.6</speed>
<course>216.5</course>
<desc>Speed 4.6 km/h Distance 2.50 km</desc>
<time>2010-02-28T16:34:47.25</time>
<name>1527</name>
</trkpt>
<trkpt lat="48.977497" lon="8.667865">
<ele>354.0</ele>
<speed>5.2</speed>
<course>206.0</course>
<desc>Speed 5.2 km/h Distance 2.50 km</desc>
<time>2010-02-28T16:34:48.25</time>
<name>1528</name>
</trkpt>
<trkpt lat="48.977483" lon="8.667855">
<ele>353.0</ele>
<speed>5.3</speed>
<course>216.9</course>
<desc>Speed 5.3 km/h Distance 2.50 km</desc>
<time>2010-02-28T16:34:49.26</time>
<name>1529</name>
</trkpt>
<trkpt lat="48.977472" lon="8.667842">
<ele>352.5</ele>
<speed>4.9</speed>
<course>208.2</course>
<desc>Speed 4.9 km/h Distance 2.50 km</desc>
<time>2010-02-28T16:34:50.26</time>
<name>1530</name>
</trkpt>
<trkpt lat="48.977453" lon="8.667827">
<ele>351.0</ele>
<speed>5.1</speed>
<course>213.2</course>
<desc>Speed 5.1 km/h Distance 2.51 km</desc>
<time>2010-02-28T16:34:51.27</time>
<name>1531</name>
</trkpt>
<trkpt lat="48.977438" lon="8.667812">
<ele>351.0</ele>
<speed>4.6</speed>
<course>209.4</course>
<desc>Speed 4.6 km/h Distance 2.51 km</desc>
<time>2010-02-28T16:34:52.26</time>
<name>1532</name>
</trkpt>
<trkpt lat="48.977427" lon="8.667802">
<ele>350.5</ele>
<speed>5.2</speed>
<course>203.7</course>
<desc>Speed 5.2 km/h Distance 2.51 km</desc>
<time>2010-02-28T16:34:53.26</time>
<name>1533</name>
</trkpt>
<trkpt lat="48.977412" lon="8.667792">
<ele>349.0</ele>
<speed>5.0</speed>
<course>209.4</course>
<desc>Speed 5.0 km/h Distance 2.51 km</desc>
<time>2010-02-28T16:34:54.26</time>
<name>1534</name>
</trkpt>
<trkpt lat="48.977400" lon="8.667782">
<ele>349.5</ele>
<speed>5.3</speed>
<course>207.8</course>
<desc>Speed 5.3 km/h Distance 2.51 km</desc>
<time>2010-02-28T16:34:55.26</time>
<name>1535</name>
</trkpt>
<trkpt lat="48.977383" lon="8.667768">
<ele>349.0</ele>
<speed>5.8</speed>
<course>210.0</course>
<desc>Speed 5.8 km/h Distance 2.52 km</desc>
<time>2010-02-28T16:34:56.26</time>
<name>1536</name>
</trkpt>
<trkpt lat="48.977370" lon="8.667757">
<ele>349.5</ele>
<speed>5.7</speed>
<course>203.7</course>
<desc>Speed 5.7 km/h Distance 2.52 km</desc>
<time>2010-02-28T16:34:57.27</time>
<name>1537</name>
</trkpt>
<trkpt lat="48.977355" lon="8.667747">
<ele>348.5</ele>
<speed>5.2</speed>
<course>190.4</course>
<desc>Speed 5.2 km/h Distance 2.52 km</desc>
<time>2010-02-28T16:34:58.25</time>
<name>1538</name>
</trkpt>
<trkpt lat="48.977343" lon="8.667743">
<ele>348.0</ele>
<speed>4.2</speed>
<course>198.1</course>
<desc>Speed 4.2 km/h Distance 2.52 km</desc>
<time>2010-02-28T16:34:59.25</time>
<name>1539</name>
</trkpt>
<trkpt lat="48.977330" lon="8.667737">
<ele>346.5</ele>
<speed>4.2</speed>
<course>209.4</course>
<desc>Speed 4.2 km/h Distance 2.52 km</desc>
<time>2010-02-28T16:35:00.25</time>
<name>1540</name>
</trkpt>
<trkpt lat="48.977318" lon="8.667727">
<ele>347.0</ele>
<speed>4.9</speed>
<course>194.6</course>
<desc>Speed 4.9 km/h Distance 2.52 km</desc>
<time>2010-02-28T16:35:01.27</time>
<name>1541</name>
</trkpt>
<trkpt lat="48.977302" lon="8.667720">
<ele>345.5</ele>
<speed>4.5</speed>
<course>207.2</course>
<desc>Speed 4.5 km/h Distance 2.52 km</desc>
<time>2010-02-28T16:35:02.26</time>
<name>1542</name>
</trkpt>
<trkpt lat="48.977287" lon="8.667708">
<ele>346.5</ele>
<speed>5.2</speed>
<course>206.0</course>
<desc>Speed 5.2 km/h Distance 2.53 km</desc>
<time>2010-02-28T16:35:03.25</time>
<name>1543</name>
</trkpt>
<trkpt lat="48.977273" lon="8.667698">
<ele>346.5</ele>
<speed>5.0</speed>
<course>198.4</course>
<desc>Speed 5.0 km/h Distance 2.53 km</desc>
<time>2010-02-28T16:35:04.26</time>
<name>1544</name>
</trkpt>
<trkpt lat="48.977260" lon="8.667692">
<ele>346.5</ele>
<speed>4.6</speed>
<course>194.9</course>
<desc>Speed 4.6 km/h Distance 2.53 km</desc>
<time>2010-02-28T16:35:05.26</time>
<name>1545</name>
</trkpt>
<trkpt lat="48.977243" lon="8.667685">
<ele>347.5</ele>
<speed>5.2</speed>
<course>209.4</course>
<desc>Speed 5.2 km/h Distance 2.53 km</desc>
<time>2010-02-28T16:35:06.26</time>
<name>1546</name>
</trkpt>
<trkpt lat="48.977232" lon="8.667675">
<ele>348.5</ele>
<speed>4.5</speed>
<course>201.5</course>
<desc>Speed 4.5 km/h Distance 2.53 km</desc>
<time>2010-02-28T16:35:07.26</time>
<name>1547</name>
</trkpt>
<trkpt lat="48.977215" lon="8.667665">
<ele>348.0</ele>
<speed>5.2</speed>
<course>199.7</course>
<desc>Speed 5.2 km/h Distance 2.54 km</desc>
<time>2010-02-28T16:35:08.25</time>
<name>1548</name>
</trkpt>
<trkpt lat="48.977197" lon="8.667655">
<ele>348.0</ele>
<speed>5.5</speed>
<course>199.7</course>
<desc>Speed 5.5 km/h Distance 2.54 km</desc>
<time>2010-02-28T16:35:09.26</time>
<name>1549</name>
</trkpt>
<trkpt lat="48.977178" lon="8.667645">
<ele>348.0</ele>
<speed>5.3</speed>
<course>202.6</course>
<desc>Speed 5.3 km/h Distance 2.54 km</desc>
<time>2010-02-28T16:35:10.25</time>
<name>1550</name>
</trkpt>
<trkpt lat="48.977165" lon="8.667637">
<ele>348.0</ele>
<speed>5.6</speed>
<course>207.2</course>
<desc>Speed 5.6 km/h Distance 2.54 km</desc>
<time>2010-02-28T16:35:11.26</time>
<name>1551</name>
</trkpt>
<trkpt lat="48.977150" lon="8.667625">
<ele>349.0</ele>
<speed>6.0</speed>
<course>202.1</course>
<desc>Speed 6.0 km/h Distance 2.54 km</desc>
<time>2010-02-28T16:35:12.25</time>
<name>1552</name>
</trkpt>
<trkpt lat="48.977137" lon="8.667617">
<ele>349.0</ele>
<speed>5.1</speed>
<course>203.7</course>
<desc>Speed 5.1 km/h Distance 2.54 km</desc>
<time>2010-02-28T16:35:13.25</time>
<name>1553</name>
</trkpt>
<trkpt lat="48.977122" lon="8.667607">
<ele>349.0</ele>
<speed>4.9</speed>
<course>209.4</course>
<desc>Speed 4.9 km/h Distance 2.55 km</desc>
<time>2010-02-28T16:35:14.25</time>
<name>1554</name>
</trkpt>
<trkpt lat="48.977110" lon="8.667597">
<ele>348.5</ele>
<speed>4.9</speed>
<course>201.5</course>
<desc>Speed 4.9 km/h Distance 2.55 km</desc>
<time>2010-02-28T16:35:15.26</time>
<name>1555</name>
</trkpt>
<trkpt lat="48.977093" lon="8.667587">
<ele>348.0</ele>
<speed>5.3</speed>
<course>199.7</course>
<desc>Speed 5.3 km/h Distance 2.55 km</desc>
<time>2010-02-28T16:35:16.26</time>
<name>1556</name>
</trkpt>
<trkpt lat="48.977075" lon="8.667577">
<ele>346.0</ele>
<speed>4.5</speed>
<course>206.4</course>
<desc>Speed 4.5 km/h Distance 2.55 km</desc>
<time>2010-02-28T16:35:17.26</time>
<name>1557</name>
</trkpt>
<trkpt lat="48.977062" lon="8.667567">
<ele>345.0</ele>
<speed>5.1</speed>
<course>210.3</course>
<desc>Speed 5.1 km/h Distance 2.55 km</desc>
<time>2010-02-28T16:35:18.25</time>
<name>1558</name>
</trkpt>
<trkpt lat="48.977047" lon="8.667553">
<ele>346.0</ele>
<speed>5.8</speed>
<course>189.2</course>
<desc>Speed 5.8 km/h Distance 2.56 km</desc>
<time>2010-02-28T16:35:19.25</time>
<name>1559</name>
</trkpt>
<trkpt lat="48.977027" lon="8.667548">
<ele>346.5</ele>
<speed>6.2</speed>
<course>202.1</course>
<desc>Speed 6.2 km/h Distance 2.56 km</desc>
<time>2010-02-28T16:35:20.25</time>
<name>1560</name>
</trkpt>
<trkpt lat="48.977005" lon="8.667535">
<ele>344.5</ele>
<speed>5.3</speed>
<course>209.8</course>
<desc>Speed 5.3 km/h Distance 2.56 km</desc>
<time>2010-02-28T16:35:21.25</time>
<name>1561</name>
</trkpt>
<trkpt lat="48.976992" lon="8.667523">
<ele>344.0</ele>
<speed>5.2</speed>
<course>209.4</course>
<desc>Speed 5.2 km/h Distance 2.56 km</desc>
<time>2010-02-28T16:35:22.25</time>
<name>1562</name>
</trkpt>
<trkpt lat="48.976980" lon="8.667513">
<ele>343.5</ele>
<speed>4.7</speed>
<course>200.9</course>
<desc>Speed 4.7 km/h Distance 2.56 km</desc>
<time>2010-02-28T16:35:23.26</time>
<name>1563</name>
</trkpt>
<trkpt lat="48.976968" lon="8.667507">
<ele>343.0</ele>
<speed>4.4</speed>
<course>198.2</course>
<desc>Speed 4.4 km/h Distance 2.57 km</desc>
<time>2010-02-28T16:35:24.25</time>
<name>1564</name>
</trkpt>
<trkpt lat="48.976948" lon="8.667497">
<ele>342.0</ele>
<speed>5.4</speed>
<course>204.6</course>
<desc>Speed 5.4 km/h Distance 2.57 km</desc>
<time>2010-02-28T16:35:25.24</time>
<name>1565</name>
</trkpt>
<trkpt lat="48.976932" lon="8.667485">
<ele>342.5</ele>
<speed>5.9</speed>
<course>207.7</course>
<desc>Speed 5.9 km/h Distance 2.57 km</desc>
<time>2010-02-28T16:35:26.25</time>
<name>1566</name>
</trkpt>
<trkpt lat="48.976915" lon="8.667472">
<ele>342.5</ele>
<speed>6.0</speed>
<course>209.4</course>
<desc>Speed 6.0 km/h Distance 2.57 km</desc>
<time>2010-02-28T16:35:27.25</time>
<name>1567</name>
</trkpt>
<trkpt lat="48.976903" lon="8.667462">
<ele>343.0</ele>
<speed>5.1</speed>
<course>210.0</course>
<desc>Speed 5.1 km/h Distance 2.57 km</desc>
<time>2010-02-28T16:35:28.24</time>
<name>1568</name>
</trkpt>
<trkpt lat="48.976890" lon="8.667450">
<ele>343.5</ele>
<speed>5.4</speed>
<course>206.2</course>
<desc>Speed 5.4 km/h Distance 2.58 km</desc>
<time>2010-02-28T16:35:29.25</time>
<name>1569</name>
</trkpt>
<trkpt lat="48.976877" lon="8.667440">
<ele>344.0</ele>
<speed>5.8</speed>
<course>199.9</course>
<desc>Speed 5.8 km/h Distance 2.58 km</desc>
<time>2010-02-28T16:35:30.25</time>
<name>1570</name>
</trkpt>
<trkpt lat="48.976862" lon="8.667432">
<ele>344.5</ele>
<speed>5.5</speed>
<course>204.9</course>
<desc>Speed 5.5 km/h Distance 2.58 km</desc>
<time>2010-02-28T16:35:31.25</time>
<name>1571</name>
</trkpt>
<trkpt lat="48.976850" lon="8.667423">
<ele>344.5</ele>
<speed>5.4</speed>
<course>194.0</course>
<desc>Speed 5.4 km/h Distance 2.58 km</desc>
<time>2010-02-28T16:35:32.25</time>
<name>1572</name>
</trkpt>
<trkpt lat="48.976828" lon="8.667415">
<ele>343.5</ele>
<speed>4.6</speed>
<course>194.6</course>
<desc>Speed 4.6 km/h Distance 2.58 km</desc>
<time>2010-02-28T16:35:33.24</time>
<name>1573</name>
</trkpt>
<trkpt lat="48.976803" lon="8.667405">
<ele>342.0</ele>
<speed>5.4</speed>
<course>194.6</course>
<desc>Speed 5.4 km/h Distance 2.59 km</desc>
<time>2010-02-28T16:35:34.24</time>
<name>1574</name>
</trkpt>
<trkpt lat="48.976778" lon="8.667395">
<ele>340.0</ele>
<speed>5.1</speed>
<course>201.5</course>
<desc>Speed 5.1 km/h Distance 2.59 km</desc>
<time>2010-02-28T16:35:35.24</time>
<name>1575</name>
</trkpt>
<trkpt lat="48.976762" lon="8.667385">
<ele>339.5</ele>
<speed>5.6</speed>
<course>196.6</course>
<desc>Speed 5.6 km/h Distance 2.59 km</desc>
<time>2010-02-28T16:35:36.24</time>
<name>1576</name>
</trkpt>
<trkpt lat="48.976747" lon="8.667378">
<ele>340.5</ele>
<speed>5.0</speed>
<course>209.4</course>
<desc>Speed 5.0 km/h Distance 2.59 km</desc>
<time>2010-02-28T16:35:37.24</time>
<name>1577</name>
</trkpt>
<trkpt lat="48.976735" lon="8.667368">
<ele>341.0</ele>
<speed>5.5</speed>
<course>206.0</course>
<desc>Speed 5.5 km/h Distance 2.59 km</desc>
<time>2010-02-28T16:35:38.24</time>
<name>1578</name>
</trkpt>
<trkpt lat="48.976722" lon="8.667358">
<ele>341.0</ele>
<speed>5.2</speed>
<course>199.9</course>
<desc>Speed 5.2 km/h Distance 2.60 km</desc>
<time>2010-02-28T16:35:39.24</time>
<name>1579</name>
</trkpt>
<trkpt lat="48.976707" lon="8.667350">
<ele>340.0</ele>
<speed>4.7</speed>
<course>207.2</course>
<desc>Speed 4.7 km/h Distance 2.60 km</desc>
<time>2010-02-28T16:35:40.24</time>
<name>1580</name>
</trkpt>
<trkpt lat="48.976692" lon="8.667338">
<ele>340.0</ele>
<speed>5.4</speed>
<course>196.6</course>
<desc>Speed 5.4 km/h Distance 2.60 km</desc>
<time>2010-02-28T16:35:41.24</time>
<name>1581</name>
</trkpt>
<trkpt lat="48.976673" lon="8.667330">
<ele>339.5</ele>
<speed>6.3</speed>
<course>202.1</course>
<desc>Speed 6.3 km/h Distance 2.60 km</desc>
<time>2010-02-28T16:35:42.23</time>
<name>1582</name>
</trkpt>
<trkpt lat="48.976660" lon="8.667322">
<ele>339.0</ele>
<speed>5.5</speed>
<course>209.8</course>
<desc>Speed 5.5 km/h Distance 2.60 km</desc>
<time>2010-02-28T16:35:43.24</time>
<name>1583</name>
</trkpt>
<trkpt lat="48.976647" lon="8.667310">
<ele>338.5</ele>
<speed>5.0</speed>
<course>209.8</course>
<desc>Speed 5.0 km/h Distance 2.60 km</desc>
<time>2010-02-28T16:35:44.24</time>
<name>1584</name>
</trkpt>
<trkpt lat="48.976633" lon="8.667298">
<ele>339.0</ele>
<speed>4.7</speed>
<course>200.2</course>
<desc>Speed 4.7 km/h Distance 2.61 km</desc>
<time>2010-02-28T16:35:45.23</time>
<name>1585</name>
</trkpt>
<trkpt lat="48.976622" lon="8.667292">
<ele>339.0</ele>
<speed>4.9</speed>
<course>204.6</course>
<desc>Speed 4.9 km/h Distance 2.61 km</desc>
<time>2010-02-28T16:35:46.25</time>
<name>1586</name>
</trkpt>
<trkpt lat="48.976605" lon="8.667280">
<ele>339.0</ele>
<speed>4.9</speed>
<course>202.1</course>
<desc>Speed 4.9 km/h Distance 2.61 km</desc>
<time>2010-02-28T16:35:47.24</time>
<name>1587</name>
</trkpt>
<trkpt lat="48.976592" lon="8.667272">
<ele>339.5</ele>
<speed>5.4</speed>
<course>192.6</course>
<desc>Speed 5.4 km/h Distance 2.61 km</desc>
<time>2010-02-28T16:35:48.25</time>
<name>1588</name>
</trkpt>
<trkpt lat="48.976577" lon="8.667267">
<ele>339.0</ele>
<speed>5.2</speed>
<course>198.1</course>
<desc>Speed 5.2 km/h Distance 2.61 km</desc>
<time>2010-02-28T16:35:49.24</time>
<name>1589</name>
</trkpt>
<trkpt lat="48.976563" lon="8.667260">
<ele>339.5</ele>
<speed>4.5</speed>
<course>209.4</course>
<desc>Speed 4.5 km/h Distance 2.61 km</desc>
<time>2010-02-28T16:35:50.23</time>
<name>1590</name>
</trkpt>
<trkpt lat="48.976552" lon="8.667250">
<ele>338.5</ele>
<speed>5.0</speed>
<course>204.7</course>
<desc>Speed 5.0 km/h Distance 2.62 km</desc>
<time>2010-02-28T16:35:51.24</time>
<name>1591</name>
</trkpt>
<trkpt lat="48.976535" lon="8.667238">
<ele>338.0</ele>
<speed>5.1</speed>
<course>201.0</course>
<desc>Speed 5.1 km/h Distance 2.62 km</desc>
<time>2010-02-28T16:35:52.23</time>
<name>1592</name>
</trkpt>
<trkpt lat="48.976515" lon="8.667227">
<ele>336.5</ele>
<speed>5.6</speed>
<course>205.2</course>
<desc>Speed 5.6 km/h Distance 2.62 km</desc>
<time>2010-02-28T16:35:53.23</time>
<name>1593</name>
</trkpt>
<trkpt lat="48.976503" lon="8.667218">
<ele>335.5</ele>
<speed>4.8</speed>
<course>216.9</course>
<desc>Speed 4.8 km/h Distance 2.62 km</desc>
<time>2010-02-28T16:35:54.23</time>
<name>1594</name>
</trkpt>
<trkpt lat="48.976492" lon="8.667205">
<ele>336.0</ele>
<speed>5.1</speed>
<course>220.2</course>
<desc>Speed 5.1 km/h Distance 2.62 km</desc>
<time>2010-02-28T16:35:55.24</time>
<name>1595</name>
</trkpt>
<trkpt lat="48.976480" lon="8.667190">
<ele>336.5</ele>
<speed>5.6</speed>
<course>204.7</course>
<desc>Speed 5.6 km/h Distance 2.62 km</desc>
<time>2010-02-28T16:35:56.24</time>
<name>1596</name>
</trkpt>
<trkpt lat="48.976463" lon="8.667178">
<ele>337.0</ele>
<speed>5.7</speed>
<course>203.7</course>
<desc>Speed 5.7 km/h Distance 2.63 km</desc>
<time>2010-02-28T16:35:57.24</time>
<name>1597</name>
</trkpt>
<trkpt lat="48.976448" lon="8.667168">
<ele>336.0</ele>
<speed>4.9</speed>
<course>213.3</course>
<desc>Speed 4.9 km/h Distance 2.63 km</desc>
<time>2010-02-28T16:35:58.23</time>
<name>1598</name>
</trkpt>
<trkpt lat="48.976433" lon="8.667153">
<ele>336.5</ele>
<speed>5.5</speed>
<course>219.4</course>
<desc>Speed 5.5 km/h Distance 2.63 km</desc>
<time>2010-02-28T16:35:59.23</time>
<name>1599</name>
</trkpt>
<trkpt lat="48.976420" lon="8.667137">
<ele>336.5</ele>
<speed>5.5</speed>
<course>198.1</course>
<desc>Speed 5.5 km/h Distance 2.63 km</desc>
<time>2010-02-28T16:36:00.24</time>
<name>1600</name>
</trkpt>
<trkpt lat="48.976403" lon="8.667128">
<ele>337.5</ele>
<speed>5.6</speed>
<course>207.0</course>
<desc>Speed 5.6 km/h Distance 2.63 km</desc>
<time>2010-02-28T16:36:01.23</time>
<name>1601</name>
</trkpt>
<trkpt lat="48.976388" lon="8.667117">
<ele>338.5</ele>
<speed>5.6</speed>
<course>208.2</course>
<desc>Speed 5.6 km/h Distance 2.64 km</desc>
<time>2010-02-28T16:36:02.23</time>
<name>1602</name>
</trkpt>
<trkpt lat="48.976370" lon="8.667102">
<ele>339.0</ele>
<speed>5.4</speed>
<course>204.7</course>
<desc>Speed 5.4 km/h Distance 2.64 km</desc>
<time>2010-02-28T16:36:03.23</time>
<name>1603</name>
</trkpt>
<trkpt lat="48.976353" lon="8.667090">
<ele>340.0</ele>
<speed>5.6</speed>
<course>206.4</course>
<desc>Speed 5.6 km/h Distance 2.64 km</desc>
<time>2010-02-28T16:36:04.23</time>
<name>1604</name>
</trkpt>
<trkpt lat="48.976340" lon="8.667080">
<ele>340.0</ele>
<speed>5.5</speed>
<course>209.8</course>
<desc>Speed 5.5 km/h Distance 2.64 km</desc>
<time>2010-02-28T16:36:05.23</time>
<name>1605</name>
</trkpt>
<trkpt lat="48.976327" lon="8.667068">
<ele>340.0</ele>
<speed>5.7</speed>
<course>213.2</course>
<desc>Speed 5.7 km/h Distance 2.64 km</desc>
<time>2010-02-28T16:36:06.23</time>
<name>1606</name>
</trkpt>
<trkpt lat="48.976310" lon="8.667052">
<ele>339.5</ele>
<speed>5.7</speed>
<course>184.7</course>
<desc>Speed 5.7 km/h Distance 2.65 km</desc>
<time>2010-02-28T16:36:07.24</time>
<name>1607</name>
</trkpt>
<trkpt lat="48.976298" lon="8.667050">
<ele>338.0</ele>
<speed>4.2</speed>
<course>193.6</course>
<desc>Speed 4.2 km/h Distance 2.65 km</desc>
<time>2010-02-28T16:36:08.23</time>
<name>1608</name>
</trkpt>
<trkpt lat="48.976280" lon="8.667043">
<ele>337.5</ele>
<speed>4.9</speed>
<course>196.7</course>
<desc>Speed 4.9 km/h Distance 2.65 km</desc>
<time>2010-02-28T16:36:09.23</time>
<name>1609</name>
</trkpt>
<trkpt lat="48.976258" lon="8.667033">
<ele>337.0</ele>
<speed>6.0</speed>
<course>202.1</course>
<desc>Speed 6.0 km/h Distance 2.65 km</desc>
<time>2010-02-28T16:36:10.23</time>
<name>1610</name>
</trkpt>
<trkpt lat="48.976245" lon="8.667025">
<ele>337.5</ele>
<speed>4.7</speed>
<course>196.0</course>
<desc>Speed 4.7 km/h Distance 2.65 km</desc>
<time>2010-02-28T16:36:11.24</time>
<name>1611</name>
</trkpt>
<trkpt lat="48.976230" lon="8.667018">
<ele>337.5</ele>
<speed>5.4</speed>
<course>204.7</course>
<desc>Speed 5.4 km/h Distance 2.66 km</desc>
<time>2010-02-28T16:36:12.23</time>
<name>1612</name>
</trkpt>
<trkpt lat="48.976213" lon="8.667007">
<ele>337.5</ele>
<speed>5.0</speed>
<course>205.2</course>
<desc>Speed 5.0 km/h Distance 2.66 km</desc>
<time>2010-02-28T16:36:13.22</time>
<name>1613</name>
</trkpt>
<trkpt lat="48.976202" lon="8.666998">
<ele>338.0</ele>
<speed>5.1</speed>
<course>207.2</course>
<desc>Speed 5.1 km/h Distance 2.66 km</desc>
<time>2010-02-28T16:36:14.22</time>
<name>1614</name>
</trkpt>
<trkpt lat="48.976187" lon="8.666987">
<ele>338.5</ele>
<speed>5.7</speed>
<course>200.1</course>
<desc>Speed 5.7 km/h Distance 2.66 km</desc>
<time>2010-02-28T16:36:15.23</time>
<name>1615</name>
</trkpt>
<trkpt lat="48.976172" lon="8.666978">
<ele>338.5</ele>
<speed>5.5</speed>
<course>193.6</course>
<desc>Speed 5.5 km/h Distance 2.66 km</desc>
<time>2010-02-28T16:36:16.22</time>
<name>1616</name>
</trkpt>
<trkpt lat="48.976153" lon="8.666972">
<ele>337.5</ele>
<speed>5.9</speed>
<course>207.2</course>
<desc>Speed 5.9 km/h Distance 2.66 km</desc>
<time>2010-02-28T16:36:17.22</time>
<name>1617</name>
</trkpt>
<trkpt lat="48.976138" lon="8.666960">
<ele>339.0</ele>
<speed>5.8</speed>
<course>210.0</course>
<desc>Speed 5.8 km/h Distance 2.67 km</desc>
<time>2010-02-28T16:36:18.22</time>
<name>1618</name>
</trkpt>
<trkpt lat="48.976125" lon="8.666948">
<ele>338.5</ele>
<speed>4.9</speed>
<course>198.1</course>
<desc>Speed 4.9 km/h Distance 2.67 km</desc>
<time>2010-02-28T16:36:19.23</time>
<name>1619</name>
</trkpt>
<trkpt lat="48.976108" lon="8.666940">
<ele>338.5</ele>
<speed>5.4</speed>
<course>206.2</course>
<desc>Speed 5.4 km/h Distance 2.67 km</desc>
<time>2010-02-28T16:36:20.22</time>
<name>1620</name>
</trkpt>
<trkpt lat="48.976095" lon="8.666930">
<ele>339.0</ele>
<speed>5.1</speed>
<course>220.2</course>
<desc>Speed 5.1 km/h Distance 2.67 km</desc>
<time>2010-02-28T16:36:21.22</time>
<name>1621</name>
</trkpt>
<trkpt lat="48.976083" lon="8.666915">
<ele>339.5</ele>
<speed>5.3</speed>
<course>223.3</course>
<desc>Speed 5.3 km/h Distance 2.67 km</desc>
<time>2010-02-28T16:36:22.22</time>
<name>1622</name>
</trkpt>
<trkpt lat="48.976072" lon="8.666898">
<ele>340.0</ele>
<speed>5.8</speed>
<course>232.7</course>
<desc>Speed 5.8 km/h Distance 2.68 km</desc>
<time>2010-02-28T16:36:23.22</time>
<name>1623</name>
</trkpt>
<trkpt lat="48.976062" lon="8.666878">
<ele>340.5</ele>
<speed>6.5</speed>
<course>230.9</course>
<desc>Speed 6.5 km/h Distance 2.68 km</desc>
<time>2010-02-28T16:36:24.22</time>
<name>1624</name>
</trkpt>
<trkpt lat="48.976048" lon="8.666853">
<ele>339.5</ele>
<speed>6.1</speed>
<course>275.8</course>
<desc>Speed 6.1 km/h Distance 2.68 km</desc>
<time>2010-02-28T16:36:25.22</time>
<name>1625</name>
</trkpt>
<trkpt lat="48.976050" lon="8.666828">
<ele>339.5</ele>
<speed>5.9</speed>
<course>270.0</course>
<desc>Speed 5.9 km/h Distance 2.68 km</desc>
<time>2010-02-28T16:36:26.23</time>
<name>1626</name>
</trkpt>
<trkpt lat="48.976050" lon="8.666803">
<ele>340.5</ele>
<speed>6.0</speed>
<course>276.2</course>
<desc>Speed 6.0 km/h Distance 2.68 km</desc>
<time>2010-02-28T16:36:27.22</time>
<name>1627</name>
</trkpt>
<trkpt lat="48.976052" lon="8.666780">
<ele>340.5</ele>
<speed>5.7</speed>
<course>276.2</course>
<desc>Speed 5.7 km/h Distance 2.69 km</desc>
<time>2010-02-28T16:36:28.23</time>
<name>1628</name>
</trkpt>
<trkpt lat="48.976053" lon="8.666757">
<ele>340.5</ele>
<speed>5.9</speed>
<course>275.8</course>
<desc>Speed 5.9 km/h Distance 2.69 km</desc>
<time>2010-02-28T16:36:29.23</time>
<name>1629</name>
</trkpt>
<trkpt lat="48.976055" lon="8.666732">
<ele>341.0</ele>
<speed>6.6</speed>
<course>275.4</course>
<desc>Speed 6.6 km/h Distance 2.69 km</desc>
<time>2010-02-28T16:36:30.22</time>
<name>1630</name>
</trkpt>
<trkpt lat="48.976057" lon="8.666705">
<ele>342.0</ele>
<speed>7.2</speed>
<course>280.8</course>
<desc>Speed 7.2 km/h Distance 2.69 km</desc>
<time>2010-02-28T16:36:31.22</time>
<name>1631</name>
</trkpt>
<trkpt lat="48.976060" lon="8.666678">
<ele>343.0</ele>
<speed>6.8</speed>
<course>270.0</course>
<desc>Speed 6.8 km/h Distance 2.69 km</desc>
<time>2010-02-28T16:36:32.22</time>
<name>1632</name>
</trkpt>
<trkpt lat="48.976060" lon="8.666657">
<ele>342.0</ele>
<speed>6.0</speed>
<course>286.9</course>
<desc>Speed 6.0 km/h Distance 2.69 km</desc>
<time>2010-02-28T16:36:33.22</time>
<name>1633</name>
</trkpt>
<trkpt lat="48.976065" lon="8.666632">
<ele>342.0</ele>
<speed>6.3</speed>
<course>286.9</course>
<desc>Speed 6.3 km/h Distance 2.70 km</desc>
<time>2010-02-28T16:36:34.21</time>
<name>1634</name>
</trkpt>
<trkpt lat="48.976070" lon="8.666607">
<ele>341.5</ele>
<speed>6.0</speed>
<course>287.0</course>
<desc>Speed 6.0 km/h Distance 2.70 km</desc>
<time>2010-02-28T16:36:35.22</time>
<name>1635</name>
</trkpt>
<trkpt lat="48.976075" lon="8.666582">
<ele>341.0</ele>
<speed>5.9</speed>
<course>275.8</course>
<desc>Speed 5.9 km/h Distance 2.70 km</desc>
<time>2010-02-28T16:36:36.22</time>
<name>1636</name>
</trkpt>
<trkpt lat="48.976077" lon="8.666557">
<ele>340.0</ele>
<speed>5.8</speed>
<course>276.2</course>
<desc>Speed 5.8 km/h Distance 2.70 km</desc>
<time>2010-02-28T16:36:37.21</time>
<name>1637</name>
</trkpt>
<trkpt lat="48.976078" lon="8.666533">
<ele>338.5</ele>
<speed>5.8</speed>
<course>276.2</course>
<desc>Speed 5.8 km/h Distance 2.70 km</desc>
<time>2010-02-28T16:36:38.22</time>
<name>1638</name>
</trkpt>
<trkpt lat="48.976080" lon="8.666510">
<ele>336.5</ele>
<speed>5.5</speed>
<course>276.2</course>
<desc>Speed 5.5 km/h Distance 2.71 km</desc>
<time>2010-02-28T16:36:39.21</time>
<name>1639</name>
</trkpt>
<trkpt lat="48.976082" lon="8.666487">
<ele>335.0</ele>
<speed>5.9</speed>
<course>275.8</course>
<desc>Speed 5.9 km/h Distance 2.71 km</desc>
<time>2010-02-28T16:36:40.21</time>
<name>1640</name>
</trkpt>
<trkpt lat="48.976083" lon="8.666462">
<ele>334.0</ele>
<speed>6.6</speed>
<course>280.8</course>
<desc>Speed 6.6 km/h Distance 2.71 km</desc>
<time>2010-02-28T16:36:41.21</time>
<name>1641</name>
</trkpt>
<trkpt lat="48.976087" lon="8.666435">
<ele>333.5</ele>
<speed>6.2</speed>
<course>289.4</course>
<desc>Speed 6.2 km/h Distance 2.71 km</desc>
<time>2010-02-28T16:36:42.22</time>
<name>1642</name>
</trkpt>
<trkpt lat="48.976092" lon="8.666413">
<ele>332.0</ele>
<speed>6.0</speed>
<course>264.2</course>
<desc>Speed 6.0 km/h Distance 2.71 km</desc>
<time>2010-02-28T16:36:43.21</time>
<name>1643</name>
</trkpt>
<trkpt lat="48.976090" lon="8.666388">
<ele>331.0</ele>
<speed>5.9</speed>
<course>263.3</course>
<desc>Speed 5.9 km/h Distance 2.71 km</desc>
<time>2010-02-28T16:36:44.22</time>
<name>1644</name>
</trkpt>
<trkpt lat="48.976088" lon="8.666367">
<ele>329.0</ele>
<speed>5.5</speed>
<course>295.1</course>
<desc>Speed 5.5 km/h Distance 2.72 km</desc>
<time>2010-02-28T16:36:45.21</time>
<name>1645</name>
</trkpt>
<trkpt lat="48.976095" lon="8.666345">
<ele>327.5</ele>
<speed>5.4</speed>
<course>270.0</course>
<desc>Speed 5.4 km/h Distance 2.72 km</desc>
<time>2010-02-28T16:36:46.21</time>
<name>1646</name>
</trkpt>
<trkpt lat="48.976095" lon="8.666318">
<ele>327.0</ele>
<speed>5.4</speed>
<course>275.1</course>
<desc>Speed 5.4 km/h Distance 2.72 km</desc>
<time>2010-02-28T16:36:47.22</time>
<name>1647</name>
</trkpt>
<trkpt lat="48.976097" lon="8.666290">
<ele>327.0</ele>
<speed>5.7</speed>
<course>296.9</course>
<desc>Speed 5.7 km/h Distance 2.72 km</desc>
<time>2010-02-28T16:36:48.22</time>
<name>1648</name>
</trkpt>
<trkpt lat="48.976103" lon="8.666270">
<ele>326.0</ele>
<speed>5.8</speed>
<course>309.8</course>
<desc>Speed 5.8 km/h Distance 2.72 km</desc>
<time>2010-02-28T16:36:49.21</time>
<name>1649</name>
</trkpt>
<trkpt lat="48.976113" lon="8.666252">
<ele>325.0</ele>
<speed>5.5</speed>
<course>315.5</course>
<desc>Speed 5.5 km/h Distance 2.72 km</desc>
<time>2010-02-28T16:36:50.21</time>
<name>1650</name>
</trkpt>
<trkpt lat="48.976123" lon="8.666237">
<ele>323.5</ele>
<speed>4.9</speed>
<course>310.9</course>
<desc>Speed 4.9 km/h Distance 2.73 km</desc>
<time>2010-02-28T16:36:51.21</time>
<name>1651</name>
</trkpt>
<trkpt lat="48.976130" lon="8.666225">
<ele>322.5</ele>
<speed>5.2</speed>
<course>318.7</course>
<desc>Speed 5.2 km/h Distance 2.73 km</desc>
<time>2010-02-28T16:36:52.21</time>
<name>1652</name>
</trkpt>
<trkpt lat="48.976140" lon="8.666212">
<ele>322.0</ele>
<speed>5.5</speed>
<course>322.5</course>
<desc>Speed 5.5 km/h Distance 2.73 km</desc>
<time>2010-02-28T16:36:53.21</time>
<name>1653</name>
</trkpt>
<trkpt lat="48.976150" lon="8.666200">
<ele>321.5</ele>
<speed>5.4</speed>
<course>334.8</course>
<desc>Speed 5.4 km/h Distance 2.73 km</desc>
<time>2010-02-28T16:36:54.21</time>
<name>1654</name>
</trkpt>
<trkpt lat="48.976162" lon="8.666192">
<ele>320.5</ele>
<speed>5.5</speed>
<course>326.8</course>
<desc>Speed 5.5 km/h Distance 2.73 km</desc>
<time>2010-02-28T16:36:55.21</time>
<name>1655</name>
</trkpt>
<trkpt lat="48.976172" lon="8.666182">
<ele>320.0</ele>
<speed>5.4</speed>
<course>333.2</course>
<desc>Speed 5.4 km/h Distance 2.73 km</desc>
<time>2010-02-28T16:36:56.21</time>
<name>1656</name>
</trkpt>
<trkpt lat="48.976193" lon="8.666165">
<ele>319.0</ele>
<speed>5.4</speed>
<course>330.6</course>
<desc>Speed 5.4 km/h Distance 2.74 km</desc>
<time>2010-02-28T16:36:58.21</time>
<name>1657</name>
</trkpt>
<trkpt lat="48.976205" lon="8.666155">
<ele>318.5</ele>
<speed>5.7</speed>
<course>315.5</course>
<desc>Speed 5.7 km/h Distance 2.74 km</desc>
<time>2010-02-28T16:36:59.21</time>
<name>1658</name>
</trkpt>
<trkpt lat="48.976215" lon="8.666140">
<ele>318.5</ele>
<speed>6.0</speed>
<course>326.7</course>
<desc>Speed 6.0 km/h Distance 2.74 km</desc>
<time>2010-02-28T16:37:00.20</time>
<name>1659</name>
</trkpt>
<trkpt lat="48.976227" lon="8.666128">
<ele>318.0</ele>
<speed>5.6</speed>
<course>330.6</course>
<desc>Speed 5.6 km/h Distance 2.74 km</desc>
<time>2010-02-28T16:37:01.20</time>
<name>1660</name>
</trkpt>
<trkpt lat="48.976238" lon="8.666118">
<ele>317.5</ele>
<speed>5.5</speed>
<course>333.6</course>
<desc>Speed 5.5 km/h Distance 2.74 km</desc>
<time>2010-02-28T16:37:02.20</time>
<name>1661</name>
</trkpt>
<trkpt lat="48.976252" lon="8.666108">
<ele>317.5</ele>
<speed>5.7</speed>
<course>333.8</course>
<desc>Speed 5.7 km/h Distance 2.74 km</desc>
<time>2010-02-28T16:37:03.21</time>
<name>1662</name>
</trkpt>
<trkpt lat="48.976265" lon="8.666098">
<ele>317.0</ele>
<speed>5.8</speed>
<course>334.0</course>
<desc>Speed 5.8 km/h Distance 2.75 km</desc>
<time>2010-02-28T16:37:04.20</time>
<name>1663</name>
</trkpt>
<trkpt lat="48.976278" lon="8.666088">
<ele>317.0</ele>
<speed>5.8</speed>
<course>334.0</course>
<desc>Speed 5.8 km/h Distance 2.75 km</desc>
<time>2010-02-28T16:37:05.20</time>
<name>1664</name>
</trkpt>
<trkpt lat="48.976292" lon="8.666078">
<ele>317.0</ele>
<speed>5.9</speed>
<course>334.0</course>
<desc>Speed 5.9 km/h Distance 2.75 km</desc>
<time>2010-02-28T16:37:06.20</time>
<name>1665</name>
</trkpt>
<trkpt lat="48.976305" lon="8.666068">
<ele>316.5</ele>
<speed>5.9</speed>
<course>330.6</course>
<desc>Speed 5.9 km/h Distance 2.75 km</desc>
<time>2010-02-28T16:37:07.21</time>
<name>1666</name>
</trkpt>
<trkpt lat="48.976317" lon="8.666058">
<ele>316.5</ele>
<speed>5.7</speed>
<course>318.8</course>
<desc>Speed 5.7 km/h Distance 2.75 km</desc>
<time>2010-02-28T16:37:08.21</time>
<name>1667</name>
</trkpt>
<trkpt lat="48.976327" lon="8.666045">
<ele>316.0</ele>
<speed>5.6</speed>
<course>315.5</course>
<desc>Speed 5.6 km/h Distance 2.75 km</desc>
<time>2010-02-28T16:37:09.20</time>
<name>1668</name>
</trkpt>
<trkpt lat="48.976337" lon="8.666030">
<ele>316.0</ele>
<speed>5.8</speed>
<course>315.5</course>
<desc>Speed 5.8 km/h Distance 2.75 km</desc>
<time>2010-02-28T16:37:10.20</time>
<name>1669</name>
</trkpt>
<trkpt lat="48.976347" lon="8.666015">
<ele>316.0</ele>
<speed>5.6</speed>
<course>312.4</course>
<desc>Speed 5.6 km/h Distance 2.76 km</desc>
<time>2010-02-28T16:37:11.22</time>
<name>1670</name>
</trkpt>
<trkpt lat="48.976357" lon="8.665998">
<ele>316.0</ele>
<speed>5.7</speed>
<course>312.4</course>
<desc>Speed 5.7 km/h Distance 2.76 km</desc>
<time>2010-02-28T16:37:12.21</time>
<name>1671</name>
</trkpt>
<trkpt lat="48.976367" lon="8.665982">
<ele>316.0</ele>
<speed>5.7</speed>
<course>309.7</course>
<desc>Speed 5.7 km/h Distance 2.76 km</desc>
<time>2010-02-28T16:37:13.21</time>
<name>1672</name>
</trkpt>
<trkpt lat="48.976377" lon="8.665963">
<ele>316.5</ele>
<speed>5.8</speed>
<course>330.2</course>
<desc>Speed 5.8 km/h Distance 2.76 km</desc>
<time>2010-02-28T16:37:14.20</time>
<name>1673</name>
</trkpt>
<trkpt lat="48.976390" lon="8.665952">
<ele>316.5</ele>
<speed>5.7</speed>
<course>330.6</course>
<desc>Speed 5.7 km/h Distance 2.76 km</desc>
<time>2010-02-28T16:37:15.21</time>
<name>1674</name>
</trkpt>
<trkpt lat="48.976402" lon="8.665942">
<ele>316.0</ele>
<speed>5.7</speed>
<course>323.1</course>
<desc>Speed 5.7 km/h Distance 2.76 km</desc>
<time>2010-02-28T16:37:16.21</time>
<name>1675</name>
</trkpt>
<trkpt lat="48.976413" lon="8.665928">
<ele>315.5</ele>
<speed>5.7</speed>
<course>323.1</course>
<desc>Speed 5.7 km/h Distance 2.77 km</desc>
<time>2010-02-28T16:37:17.21</time>
<name>1676</name>
</trkpt>
<trkpt lat="48.976425" lon="8.665915">
<ele>315.5</ele>
<speed>5.7</speed>
<course>318.8</course>
<desc>Speed 5.7 km/h Distance 2.77 km</desc>
<time>2010-02-28T16:37:18.20</time>
<name>1677</name>
</trkpt>
<trkpt lat="48.976435" lon="8.665902">
<ele>315.5</ele>
<speed>5.8</speed>
<course>333.8</course>
<desc>Speed 5.8 km/h Distance 2.77 km</desc>
<time>2010-02-28T16:37:19.21</time>
<name>1678</name>
</trkpt>
<trkpt lat="48.976448" lon="8.665892">
<ele>316.0</ele>
<speed>5.6</speed>
<course>330.0</course>
<desc>Speed 5.6 km/h Distance 2.77 km</desc>
<time>2010-02-28T16:37:20.20</time>
<name>1679</name>
</trkpt>
<trkpt lat="48.976462" lon="8.665880">
<ele>316.0</ele>
<speed>5.7</speed>
<course>323.1</course>
<desc>Speed 5.7 km/h Distance 2.77 km</desc>
<time>2010-02-28T16:37:21.20</time>
<name>1680</name>
</trkpt>
<trkpt lat="48.976473" lon="8.665867">
<ele>316.5</ele>
<speed>5.7</speed>
<course>319.8</course>
<desc>Speed 5.7 km/h Distance 2.77 km</desc>
<time>2010-02-28T16:37:22.20</time>
<name>1681</name>
</trkpt>
<trkpt lat="48.976485" lon="8.665852">
<ele>317.0</ele>
<speed>5.7</speed>
<course>319.8</course>
<desc>Speed 5.7 km/h Distance 2.78 km</desc>
<time>2010-02-28T16:37:23.20</time>
<name>1682</name>
</trkpt>
<trkpt lat="48.976497" lon="8.665837">
<ele>317.0</ele>
<speed>5.8</speed>
<course>319.8</course>
<desc>Speed 5.8 km/h Distance 2.78 km</desc>
<time>2010-02-28T16:37:24.20</time>
<name>1683</name>
</trkpt>
<trkpt lat="48.976508" lon="8.665822">
<ele>317.0</ele>
<speed>5.7</speed>
<course>323.1</course>
<desc>Speed 5.7 km/h Distance 2.78 km</desc>
<time>2010-02-28T16:37:25.20</time>
<name>1684</name>
</trkpt>
<trkpt lat="48.976520" lon="8.665808">
<ele>317.0</ele>
<speed>5.2</speed>
<course>307.3</course>
<desc>Speed 5.2 km/h Distance 2.78 km</desc>
<time>2010-02-28T16:37:26.20</time>
<name>1685</name>
</trkpt>
<trkpt lat="48.976528" lon="8.665792">
<ele>317.0</ele>
<speed>5.1</speed>
<course>304.7</course>
<desc>Speed 5.1 km/h Distance 2.78 km</desc>
<time>2010-02-28T16:37:27.21</time>
<name>1686</name>
</trkpt>
<trkpt lat="48.976537" lon="8.665773">
<ele>317.5</ele>
<speed>5.8</speed>
<course>326.7</course>
<desc>Speed 5.8 km/h Distance 2.78 km</desc>
<time>2010-02-28T16:37:28.19</time>
<name>1687</name>
</trkpt>
<trkpt lat="48.976550" lon="8.665760">
<ele>317.0</ele>
<speed>6.0</speed>
<course>326.6</course>
<desc>Speed 6.0 km/h Distance 2.79 km</desc>
<time>2010-02-28T16:37:29.20</time>
<name>1688</name>
</trkpt>
<trkpt lat="48.976562" lon="8.665748">
<ele>317.0</ele>
<speed>5.7</speed>
<course>333.8</course>
<desc>Speed 5.7 km/h Distance 2.79 km</desc>
<time>2010-02-28T16:37:30.20</time>
<name>1689</name>
</trkpt>
<trkpt lat="48.976575" lon="8.665738">
<ele>317.0</ele>
<speed>5.6</speed>
<course>333.8</course>
<desc>Speed 5.6 km/h Distance 2.79 km</desc>
<time>2010-02-28T16:37:31.19</time>
<name>1690</name>
</trkpt>
<trkpt lat="48.976588" lon="8.665728">
<ele>317.0</ele>
<speed>5.6</speed>
<course>334.8</course>
<desc>Speed 5.6 km/h Distance 2.79 km</desc>
<time>2010-02-28T16:37:32.19</time>
<name>1691</name>
</trkpt>
<trkpt lat="48.976600" lon="8.665720">
<ele>317.0</ele>
<speed>5.7</speed>
<course>337.4</course>
<desc>Speed 5.7 km/h Distance 2.79 km</desc>
<time>2010-02-28T16:37:33.19</time>
<name>1692</name>
</trkpt>
<trkpt lat="48.976613" lon="8.665712">
<ele>316.5</ele>
<speed>5.5</speed>
<course>333.8</course>
<desc>Speed 5.5 km/h Distance 2.79 km</desc>
<time>2010-02-28T16:37:34.20</time>
<name>1693</name>
</trkpt>
<trkpt lat="48.976627" lon="8.665702">
<ele>316.5</ele>
<speed>5.6</speed>
<course>337.7</course>
<desc>Speed 5.6 km/h Distance 2.80 km</desc>
<time>2010-02-28T16:37:35.19</time>
<name>1694</name>
</trkpt>
<trkpt lat="48.976640" lon="8.665693">
<ele>316.5</ele>
<speed>5.6</speed>
<course>337.9</course>
<desc>Speed 5.6 km/h Distance 2.80 km</desc>
<time>2010-02-28T16:37:36.20</time>
<name>1695</name>
</trkpt>
<trkpt lat="48.976653" lon="8.665685">
<ele>316.0</ele>
<speed>5.5</speed>
<course>337.7</course>
<desc>Speed 5.5 km/h Distance 2.80 km</desc>
<time>2010-02-28T16:37:37.19</time>
<name>1696</name>
</trkpt>
<trkpt lat="48.976667" lon="8.665677">
<ele>316.5</ele>
<speed>5.5</speed>
<course>337.7</course>
<desc>Speed 5.5 km/h Distance 2.80 km</desc>
<time>2010-02-28T16:37:38.19</time>
<name>1697</name>
</trkpt>
<trkpt lat="48.976680" lon="8.665668">
<ele>316.0</ele>
<speed>5.7</speed>
<course>341.9</course>
<desc>Speed 5.7 km/h Distance 2.80 km</desc>
<time>2010-02-28T16:37:39.20</time>
<name>1698</name>
</trkpt>
<trkpt lat="48.976693" lon="8.665662">
<ele>316.0</ele>
<speed>5.6</speed>
<course>334.0</course>
<desc>Speed 5.6 km/h Distance 2.80 km</desc>
<time>2010-02-28T16:37:40.19</time>
<name>1699</name>
</trkpt>
<trkpt lat="48.976707" lon="8.665652">
<ele>316.5</ele>
<speed>5.5</speed>
<course>330.6</course>
<desc>Speed 5.5 km/h Distance 2.81 km</desc>
<time>2010-02-28T16:37:41.19</time>
<name>1700</name>
</trkpt>
<trkpt lat="48.976718" lon="8.665642">
<ele>316.5</ele>
<speed>5.5</speed>
<course>333.8</course>
<desc>Speed 5.5 km/h Distance 2.81 km</desc>
<time>2010-02-28T16:37:42.19</time>
<name>1701</name>
</trkpt>
<trkpt lat="48.976732" lon="8.665632">
<ele>316.5</ele>
<speed>5.7</speed>
<course>333.6</course>
<desc>Speed 5.7 km/h Distance 2.81 km</desc>
<time>2010-02-28T16:37:43.19</time>
<name>1702</name>
</trkpt>
<trkpt lat="48.976745" lon="8.665622">
<ele>316.5</ele>
<speed>5.7</speed>
<course>333.6</course>
<desc>Speed 5.7 km/h Distance 2.81 km</desc>
<time>2010-02-28T16:37:44.19</time>
<name>1703</name>
</trkpt>
<trkpt lat="48.976758" lon="8.665612">
<ele>316.5</ele>
<speed>5.5</speed>
<course>337.4</course>
<desc>Speed 5.5 km/h Distance 2.81 km</desc>
<time>2010-02-28T16:37:45.19</time>
<name>1704</name>
</trkpt>
<trkpt lat="48.976772" lon="8.665603">
<ele>316.5</ele>
<speed>5.5</speed>
<course>337.7</course>
<desc>Speed 5.5 km/h Distance 2.81 km</desc>
<time>2010-02-28T16:37:46.20</time>
<name>1705</name>
</trkpt>
<trkpt lat="48.976785" lon="8.665595">
<ele>316.5</ele>
<speed>5.4</speed>
<course>333.8</course>
<desc>Speed 5.4 km/h Distance 2.81 km</desc>
<time>2010-02-28T16:37:47.19</time>
<name>1706</name>
</trkpt>
<trkpt lat="48.976798" lon="8.665585">
<ele>316.0</ele>
<speed>5.5</speed>
<course>333.8</course>
<desc>Speed 5.5 km/h Distance 2.82 km</desc>
<time>2010-02-28T16:37:48.19</time>
<name>1707</name>
</trkpt>
<trkpt lat="48.976812" lon="8.665575">
<ele>316.0</ele>
<speed>5.4</speed>
<course>323.1</course>
<desc>Speed 5.4 km/h Distance 2.82 km</desc>
<time>2010-02-28T16:37:49.19</time>
<name>1708</name>
</trkpt>
<trkpt lat="48.976823" lon="8.665562">
<ele>316.0</ele>
<speed>5.4</speed>
<course>330.6</course>
<desc>Speed 5.4 km/h Distance 2.82 km</desc>
<time>2010-02-28T16:37:50.19</time>
<name>1709</name>
</trkpt>
<trkpt lat="48.976835" lon="8.665552">
<ele>316.0</ele>
<speed>5.3</speed>
<course>334.0</course>
<desc>Speed 5.3 km/h Distance 2.82 km</desc>
<time>2010-02-28T16:37:51.19</time>
<name>1710</name>
</trkpt>
<trkpt lat="48.976848" lon="8.665542">
<ele>315.5</ele>
<speed>5.3</speed>
<course>334.8</course>
<desc>Speed 5.3 km/h Distance 2.82 km</desc>
<time>2010-02-28T16:37:52.18</time>
<name>1711</name>
</trkpt>
<trkpt lat="48.976860" lon="8.665533">
<ele>315.5</ele>
<speed>5.2</speed>
<course>330.6</course>
<desc>Speed 5.2 km/h Distance 2.82 km</desc>
<time>2010-02-28T16:37:53.19</time>
<name>1712</name>
</trkpt>
<trkpt lat="48.976872" lon="8.665523">
<ele>315.5</ele>
<speed>5.3</speed>
<course>333.8</course>
<desc>Speed 5.3 km/h Distance 2.83 km</desc>
<time>2010-02-28T16:37:54.19</time>
<name>1713</name>
</trkpt>
<trkpt lat="48.976885" lon="8.665513">
<ele>315.5</ele>
<speed>5.5</speed>
<course>326.7</course>
<desc>Speed 5.5 km/h Distance 2.83 km</desc>
<time>2010-02-28T16:37:55.19</time>
<name>1714</name>
</trkpt>
<trkpt lat="48.976897" lon="8.665502">
<ele>315.5</ele>
<speed>5.3</speed>
<course>330.8</course>
<desc>Speed 5.3 km/h Distance 2.83 km</desc>
<time>2010-02-28T16:37:56.19</time>
<name>1715</name>
</trkpt>
<trkpt lat="48.976908" lon="8.665492">
<ele>315.5</ele>
<speed>5.3</speed>
<course>333.8</course>
<desc>Speed 5.3 km/h Distance 2.83 km</desc>
<time>2010-02-28T16:37:57.19</time>
<name>1716</name>
</trkpt>
<trkpt lat="48.976922" lon="8.665482">
<ele>315.5</ele>
<speed>5.4</speed>
<course>334.8</course>
<desc>Speed 5.4 km/h Distance 2.83 km</desc>
<time>2010-02-28T16:37:58.19</time>
<name>1717</name>
</trkpt>
<trkpt lat="48.976933" lon="8.665473">
<ele>315.5</ele>
<speed>5.2</speed>
<course>330.6</course>
<desc>Speed 5.2 km/h Distance 2.83 km</desc>
<time>2010-02-28T16:37:59.18</time>
<name>1718</name>
</trkpt>
<trkpt lat="48.976945" lon="8.665463">
<ele>316.0</ele>
<speed>5.4</speed>
<course>330.8</course>
<desc>Speed 5.4 km/h Distance 2.84 km</desc>
<time>2010-02-28T16:38:00.18</time>
<name>1719</name>
</trkpt>
<trkpt lat="48.976957" lon="8.665453">
<ele>316.0</ele>
<speed>5.3</speed>
<course>334.0</course>
<desc>Speed 5.3 km/h Distance 2.84 km</desc>
<time>2010-02-28T16:38:01.18</time>
<name>1720</name>
</trkpt>
<trkpt lat="48.976970" lon="8.665443">
<ele>316.0</ele>
<speed>5.4</speed>
<course>341.9</course>
<desc>Speed 5.4 km/h Distance 2.84 km</desc>
<time>2010-02-28T16:38:02.18</time>
<name>1721</name>
</trkpt>
<trkpt lat="48.976983" lon="8.665437">
<ele>316.0</ele>
<speed>5.5</speed>
<course>330.6</course>
<desc>Speed 5.5 km/h Distance 2.84 km</desc>
<time>2010-02-28T16:38:03.18</time>
<name>1722</name>
</trkpt>
<trkpt lat="48.976995" lon="8.665427">
<ele>316.0</ele>
<speed>5.4</speed>
<course>337.9</course>
<desc>Speed 5.4 km/h Distance 2.84 km</desc>
<time>2010-02-28T16:38:04.18</time>
<name>1723</name>
</trkpt>
<trkpt lat="48.977008" lon="8.665418">
<ele>316.0</ele>
<speed>5.3</speed>
<course>334.8</course>
<desc>Speed 5.3 km/h Distance 2.84 km</desc>
<time>2010-02-28T16:38:05.18</time>
<name>1724</name>
</trkpt>
<trkpt lat="48.977020" lon="8.665410">
<ele>316.5</ele>
<speed>5.3</speed>
<course>330.6</course>
<desc>Speed 5.3 km/h Distance 2.84 km</desc>
<time>2010-02-28T16:38:06.18</time>
<name>1725</name>
</trkpt>
<trkpt lat="48.977032" lon="8.665400">
<ele>316.5</ele>
<speed>5.5</speed>
<course>341.9</course>
<desc>Speed 5.5 km/h Distance 2.85 km</desc>
<time>2010-02-28T16:38:07.18</time>
<name>1726</name>
</trkpt>
<trkpt lat="48.977045" lon="8.665393">
<ele>316.5</ele>
<speed>5.2</speed>
<course>335.1</course>
<desc>Speed 5.2 km/h Distance 2.85 km</desc>
<time>2010-02-28T16:38:08.18</time>
<name>1727</name>
</trkpt>
<trkpt lat="48.977057" lon="8.665385">
<ele>316.5</ele>
<speed>5.2</speed>
<course>337.9</course>
<desc>Speed 5.2 km/h Distance 2.85 km</desc>
<time>2010-02-28T16:38:09.18</time>
<name>1728</name>
</trkpt>
<trkpt lat="48.977070" lon="8.665377">
<ele>317.0</ele>
<speed>5.4</speed>
<course>341.9</course>
<desc>Speed 5.4 km/h Distance 2.85 km</desc>
<time>2010-02-28T16:38:10.18</time>
<name>1729</name>
</trkpt>
<trkpt lat="48.977083" lon="8.665370">
<ele>316.5</ele>
<speed>5.3</speed>
<course>339.4</course>
<desc>Speed 5.3 km/h Distance 2.85 km</desc>
<time>2010-02-28T16:38:11.19</time>
<name>1730</name>
</trkpt>
<trkpt lat="48.977095" lon="8.665363">
<ele>316.5</ele>
<speed>5.2</speed>
<course>346.5</course>
<desc>Speed 5.2 km/h Distance 2.85 km</desc>
<time>2010-02-28T16:38:12.18</time>
<name>1731</name>
</trkpt>
<trkpt lat="48.977108" lon="8.665358">
<ele>317.0</ele>
<speed>5.0</speed>
<course>334.8</course>
<desc>Speed 5.0 km/h Distance 2.86 km</desc>
<time>2010-02-28T16:38:13.18</time>
<name>1732</name>
</trkpt>
<trkpt lat="48.977120" lon="8.665350">
<ele>317.0</ele>
<speed>5.2</speed>
<course>341.9</course>
<desc>Speed 5.2 km/h Distance 2.86 km</desc>
<time>2010-02-28T16:38:14.18</time>
<name>1733</name>
</trkpt>
<trkpt lat="48.977133" lon="8.665343">
<ele>317.0</ele>
<speed>5.3</speed>
<course>330.8</course>
<desc>Speed 5.3 km/h Distance 2.86 km</desc>
<time>2010-02-28T16:38:15.18</time>
<name>1734</name>
</trkpt>
<trkpt lat="48.977145" lon="8.665333">
<ele>317.5</ele>
<speed>5.4</speed>
<course>334.0</course>
<desc>Speed 5.4 km/h Distance 2.86 km</desc>
<time>2010-02-28T16:38:16.18</time>
<name>1735</name>
</trkpt>
<trkpt lat="48.977158" lon="8.665323">
<ele>317.5</ele>
<speed>5.4</speed>
<course>334.8</course>
<desc>Speed 5.4 km/h Distance 2.86 km</desc>
<time>2010-02-28T16:38:17.18</time>
<name>1736</name>
</trkpt>
<trkpt lat="48.977170" lon="8.665315">
<ele>318.0</ele>
<speed>5.3</speed>
<course>337.4</course>
<desc>Speed 5.3 km/h Distance 2.86 km</desc>
<time>2010-02-28T16:38:18.18</time>
<name>1737</name>
</trkpt>
<trkpt lat="48.977183" lon="8.665307">
<ele>318.0</ele>
<speed>5.3</speed>
<course>330.6</course>
<desc>Speed 5.3 km/h Distance 2.86 km</desc>
<time>2010-02-28T16:38:19.18</time>
<name>1738</name>
</trkpt>
<trkpt lat="48.977195" lon="8.665297">
<ele>318.0</ele>
<speed>5.4</speed>
<course>337.9</course>
<desc>Speed 5.4 km/h Distance 2.87 km</desc>
<time>2010-02-28T16:38:20.18</time>
<name>1739</name>
</trkpt>
<trkpt lat="48.977208" lon="8.665288">
<ele>317.5</ele>
<speed>5.4</speed>
<course>333.8</course>
<desc>Speed 5.4 km/h Distance 2.87 km</desc>
<time>2010-02-28T16:38:21.18</time>
<name>1740</name>
</trkpt>
<trkpt lat="48.977222" lon="8.665278">
<ele>317.5</ele>
<speed>5.2</speed>
<course>334.8</course>
<desc>Speed 5.2 km/h Distance 2.87 km</desc>
<time>2010-02-28T16:38:22.17</time>
<name>1741</name>
</trkpt>
<trkpt lat="48.977233" lon="8.665270">
<ele>317.5</ele>
<speed>5.3</speed>
<course>330.6</course>
<desc>Speed 5.3 km/h Distance 2.87 km</desc>
<time>2010-02-28T16:38:23.17</time>
<name>1742</name>
</trkpt>
<trkpt lat="48.977245" lon="8.665260">
<ele>317.5</ele>
<speed>5.1</speed>
<course>341.6</course>
<desc>Speed 5.1 km/h Distance 2.87 km</desc>
<time>2010-02-28T16:38:24.19</time>
<name>1743</name>
</trkpt>
<trkpt lat="48.977258" lon="8.665253">
<ele>317.5</ele>
<speed>5.3</speed>
<course>341.9</course>
<desc>Speed 5.3 km/h Distance 2.87 km</desc>
<time>2010-02-28T16:38:25.17</time>
<name>1744</name>
</trkpt>
<trkpt lat="48.977272" lon="8.665247">
<ele>317.5</ele>
<speed>5.1</speed>
<course>339.4</course>
<desc>Speed 5.1 km/h Distance 2.88 km</desc>
<time>2010-02-28T16:38:26.17</time>
<name>1745</name>
</trkpt>
<trkpt lat="48.977283" lon="8.665240">
<ele>317.5</ele>
<speed>5.3</speed>
<course>334.0</course>
<desc>Speed 5.3 km/h Distance 2.88 km</desc>
<time>2010-02-28T16:38:27.17</time>
<name>1746</name>
</trkpt>
<trkpt lat="48.977297" lon="8.665230">
<ele>318.0</ele>
<speed>5.2</speed>
<course>335.1</course>
<desc>Speed 5.2 km/h Distance 2.88 km</desc>
<time>2010-02-28T16:38:28.17</time>
<name>1747</name>
</trkpt>
<trkpt lat="48.977308" lon="8.665222">
<ele>318.0</ele>
<speed>5.3</speed>
<course>333.8</course>
<desc>Speed 5.3 km/h Distance 2.88 km</desc>
<time>2010-02-28T16:38:29.17</time>
<name>1748</name>
</trkpt>
<trkpt lat="48.977322" lon="8.665212">
<ele>318.0</ele>
<speed>5.3</speed>
<course>330.8</course>
<desc>Speed 5.3 km/h Distance 2.88 km</desc>
<time>2010-02-28T16:38:30.17</time>
<name>1749</name>
</trkpt>
<trkpt lat="48.977333" lon="8.665202">
<ele>318.0</ele>
<speed>5.2</speed>
<course>341.6</course>
<desc>Speed 5.2 km/h Distance 2.88 km</desc>
<time>2010-02-28T16:38:31.17</time>
<name>1750</name>
</trkpt>
<trkpt lat="48.977347" lon="8.665195">
<ele>318.0</ele>
<speed>5.4</speed>
<course>337.7</course>
<desc>Speed 5.4 km/h Distance 2.88 km</desc>
<time>2010-02-28T16:38:32.17</time>
<name>1751</name>
</trkpt>
<trkpt lat="48.977360" lon="8.665187">
<ele>318.0</ele>
<speed>5.5</speed>
<course>337.4</course>
<desc>Speed 5.5 km/h Distance 2.89 km</desc>
<time>2010-02-28T16:38:33.17</time>
<name>1752</name>
</trkpt>
<trkpt lat="48.977373" lon="8.665178">
<ele>318.0</ele>
<speed>5.7</speed>
<course>337.7</course>
<desc>Speed 5.7 km/h Distance 2.89 km</desc>
<time>2010-02-28T16:38:34.17</time>
<name>1753</name>
</trkpt>
<trkpt lat="48.977387" lon="8.665170">
<ele>318.0</ele>
<speed>5.4</speed>
<course>330.6</course>
<desc>Speed 5.4 km/h Distance 2.89 km</desc>
<time>2010-02-28T16:38:35.17</time>
<name>1754</name>
</trkpt>
<trkpt lat="48.977398" lon="8.665160">
<ele>318.0</ele>
<speed>5.4</speed>
<course>341.6</course>
<desc>Speed 5.4 km/h Distance 2.89 km</desc>
<time>2010-02-28T16:38:36.17</time>
<name>1755</name>
</trkpt>
<trkpt lat="48.977412" lon="8.665153">
<ele>318.0</ele>
<speed>5.4</speed>
<course>341.9</course>
<desc>Speed 5.4 km/h Distance 2.89 km</desc>
<time>2010-02-28T16:38:37.17</time>
<name>1756</name>
</trkpt>
<trkpt lat="48.977425" lon="8.665147">
<ele>318.0</ele>
<speed>5.3</speed>
<course>339.1</course>
<desc>Speed 5.3 km/h Distance 2.89 km</desc>
<time>2010-02-28T16:38:38.17</time>
<name>1757</name>
</trkpt>
<trkpt lat="48.977437" lon="8.665140">
<ele>318.5</ele>
<speed>5.1</speed>
<course>337.7</course>
<desc>Speed 5.1 km/h Distance 2.89 km</desc>
<time>2010-02-28T16:38:39.17</time>
<name>1758</name>
</trkpt>
<trkpt lat="48.977450" lon="8.665132">
<ele>318.5</ele>
<speed>5.3</speed>
<course>330.8</course>
<desc>Speed 5.3 km/h Distance 2.90 km</desc>
<time>2010-02-28T16:38:40.18</time>
<name>1759</name>
</trkpt>
<trkpt lat="48.977462" lon="8.665122">
<ele>319.0</ele>
<speed>5.3</speed>
<course>335.1</course>
<desc>Speed 5.3 km/h Distance 2.90 km</desc>
<time>2010-02-28T16:38:41.17</time>
<name>1760</name>
</trkpt>
<trkpt lat="48.977473" lon="8.665113">
<ele>319.0</ele>
<speed>5.3</speed>
<course>341.9</course>
<desc>Speed 5.3 km/h Distance 2.90 km</desc>
<time>2010-02-28T16:38:42.18</time>
<name>1761</name>
</trkpt>
<trkpt lat="48.977487" lon="8.665107">
<ele>319.5</ele>
<speed>5.4</speed>
<course>341.6</course>
<desc>Speed 5.4 km/h Distance 2.90 km</desc>
<time>2010-02-28T16:38:43.17</time>
<name>1762</name>
</trkpt>
<trkpt lat="48.977500" lon="8.665100">
<ele>319.5</ele>
<speed>5.5</speed>
<course>339.1</course>
<desc>Speed 5.5 km/h Distance 2.90 km</desc>
<time>2010-02-28T16:38:44.17</time>
<name>1763</name>
</trkpt>
<trkpt lat="48.977512" lon="8.665093">
<ele>319.5</ele>
<speed>4.9</speed>
<course>339.1</course>
<desc>Speed 4.9 km/h Distance 2.90 km</desc>
<time>2010-02-28T16:38:45.17</time>
<name>1764</name>
</trkpt>
<trkpt lat="48.977523" lon="8.665087">
<ele>320.0</ele>
<speed>4.9</speed>
<course>330.6</course>
<desc>Speed 4.9 km/h Distance 2.91 km</desc>
<time>2010-02-28T16:38:46.16</time>
<name>1765</name>
</trkpt>
<trkpt lat="48.977535" lon="8.665077">
<ele>320.0</ele>
<speed>5.1</speed>
<course>330.6</course>
<desc>Speed 5.1 km/h Distance 2.91 km</desc>
<time>2010-02-28T16:38:47.17</time>
<name>1766</name>
</trkpt>
<trkpt lat="48.977547" lon="8.665067">
<ele>320.5</ele>
<speed>5.1</speed>
<course>337.7</course>
<desc>Speed 5.1 km/h Distance 2.91 km</desc>
<time>2010-02-28T16:38:48.17</time>
<name>1767</name>
</trkpt>
<trkpt lat="48.977560" lon="8.665058">
<ele>320.5</ele>
<speed>5.3</speed>
<course>336.2</course>
<desc>Speed 5.3 km/h Distance 2.91 km</desc>
<time>2010-02-28T16:38:49.16</time>
<name>1768</name>
</trkpt>
<trkpt lat="48.977570" lon="8.665052">
<ele>321.0</ele>
<speed>4.8</speed>
<course>334.8</course>
<desc>Speed 4.8 km/h Distance 2.91 km</desc>
<time>2010-02-28T16:38:50.16</time>
<name>1769</name>
</trkpt>
<trkpt lat="48.977582" lon="8.665043">
<ele>321.0</ele>
<speed>5.0</speed>
<course>334.8</course>
<desc>Speed 5.0 km/h Distance 2.91 km</desc>
<time>2010-02-28T16:38:51.16</time>
<name>1770</name>
</trkpt>
<trkpt lat="48.977593" lon="8.665035">
<ele>321.0</ele>
<speed>4.8</speed>
<course>334.8</course>
<desc>Speed 4.8 km/h Distance 2.91 km</desc>
<time>2010-02-28T16:38:52.17</time>
<name>1771</name>
</trkpt>
<trkpt lat="48.977605" lon="8.665027">
<ele>321.5</ele>
<speed>5.4</speed>
<course>333.8</course>
<desc>Speed 5.4 km/h Distance 2.92 km</desc>
<time>2010-02-28T16:38:53.16</time>
<name>1772</name>
</trkpt>
<trkpt lat="48.977618" lon="8.665017">
<ele>321.5</ele>
<speed>5.3</speed>
<course>341.6</course>
<desc>Speed 5.3 km/h Distance 2.92 km</desc>
<time>2010-02-28T16:38:54.16</time>
<name>1773</name>
</trkpt>
<trkpt lat="48.977632" lon="8.665010">
<ele>322.0</ele>
<speed>5.6</speed>
<course>337.4</course>
<desc>Speed 5.6 km/h Distance 2.92 km</desc>
<time>2010-02-28T16:38:55.16</time>
<name>1774</name>
</trkpt>
<trkpt lat="48.977645" lon="8.665002">
<ele>322.0</ele>
<speed>5.9</speed>
<course>343.4</course>
<desc>Speed 5.9 km/h Distance 2.92 km</desc>
<time>2010-02-28T16:38:56.16</time>
<name>1775</name>
</trkpt>
<trkpt lat="48.977660" lon="8.664995">
<ele>322.0</ele>
<speed>5.9</speed>
<course>333.6</course>
<desc>Speed 5.9 km/h Distance 2.92 km</desc>
<time>2010-02-28T16:38:57.16</time>
<name>1776</name>
</trkpt>
<trkpt lat="48.977673" lon="8.664985">
<ele>322.0</ele>
<speed>5.7</speed>
<course>333.6</course>
<desc>Speed 5.7 km/h Distance 2.92 km</desc>
<time>2010-02-28T16:38:58.16</time>
<name>1777</name>
</trkpt>
<trkpt lat="48.977687" lon="8.664975">
<ele>322.0</ele>
<speed>5.8</speed>
<course>333.8</course>
<desc>Speed 5.8 km/h Distance 2.93 km</desc>
<time>2010-02-28T16:38:59.16</time>
<name>1778</name>
</trkpt>
<trkpt lat="48.977700" lon="8.664965">
<ele>322.5</ele>
<speed>5.8</speed>
<course>337.4</course>
<desc>Speed 5.8 km/h Distance 2.93 km</desc>
<time>2010-02-28T16:39:00.16</time>
<name>1779</name>
</trkpt>
<trkpt lat="48.977713" lon="8.664957">
<ele>322.5</ele>
<speed>5.7</speed>
<course>333.6</course>
<desc>Speed 5.7 km/h Distance 2.93 km</desc>
<time>2010-02-28T16:39:01.17</time>
<name>1780</name>
</trkpt>
<trkpt lat="48.977727" lon="8.664947">
<ele>322.5</ele>
<speed>5.9</speed>
<course>333.6</course>
<desc>Speed 5.9 km/h Distance 2.93 km</desc>
<time>2010-02-28T16:39:02.16</time>
<name>1781</name>
</trkpt>
<trkpt lat="48.977740" lon="8.664937">
<ele>323.0</ele>
<speed>5.7</speed>
<course>336.3</course>
<desc>Speed 5.7 km/h Distance 2.93 km</desc>
<time>2010-02-28T16:39:03.16</time>
<name>1782</name>
</trkpt>
<trkpt lat="48.977755" lon="8.664927">
<ele>323.5</ele>
<speed>6.0</speed>
<course>333.8</course>
<desc>Speed 6.0 km/h Distance 2.93 km</desc>
<time>2010-02-28T16:39:04.16</time>
<name>1783</name>
</trkpt>
<trkpt lat="48.977768" lon="8.664917">
<ele>323.5</ele>
<speed>5.8</speed>
<course>337.9</course>
<desc>Speed 5.8 km/h Distance 2.94 km</desc>
<time>2010-02-28T16:39:05.16</time>
<name>1784</name>
</trkpt>
<trkpt lat="48.977782" lon="8.664908">
<ele>323.5</ele>
<speed>5.4</speed>
<course>337.7</course>
<desc>Speed 5.4 km/h Distance 2.94 km</desc>
<time>2010-02-28T16:39:06.16</time>
<name>1785</name>
</trkpt>
<trkpt lat="48.977795" lon="8.664900">
<ele>323.5</ele>
<speed>5.4</speed>
<course>333.8</course>
<desc>Speed 5.4 km/h Distance 2.94 km</desc>
<time>2010-02-28T16:39:07.15</time>
<name>1786</name>
</trkpt>
<trkpt lat="48.977808" lon="8.664890">
<ele>323.5</ele>
<speed>5.5</speed>
<course>337.4</course>
<desc>Speed 5.5 km/h Distance 2.94 km</desc>
<time>2010-02-28T16:39:08.16</time>
<name>1787</name>
</trkpt>
<trkpt lat="48.977822" lon="8.664882">
<ele>324.0</ele>
<speed>5.6</speed>
<course>337.7</course>
<desc>Speed 5.6 km/h Distance 2.94 km</desc>
<time>2010-02-28T16:39:09.16</time>
<name>1788</name>
</trkpt>
<trkpt lat="48.977835" lon="8.664873">
<ele>323.5</ele>
<speed>5.6</speed>
<course>337.9</course>
<desc>Speed 5.6 km/h Distance 2.94 km</desc>
<time>2010-02-28T16:39:10.15</time>
<name>1789</name>
</trkpt>
<trkpt lat="48.977848" lon="8.664865">
<ele>324.0</ele>
<speed>5.7</speed>
<course>337.7</course>
<desc>Speed 5.7 km/h Distance 2.95 km</desc>
<time>2010-02-28T16:39:11.16</time>
<name>1790</name>
</trkpt>
<trkpt lat="48.977862" lon="8.664857">
<ele>324.0</ele>
<speed>5.8</speed>
<course>337.9</course>
<desc>Speed 5.8 km/h Distance 2.95 km</desc>
<time>2010-02-28T16:39:12.16</time>
<name>1791</name>
</trkpt>
<trkpt lat="48.977875" lon="8.664848">
<ele>324.0</ele>
<speed>5.6</speed>
<course>334.0</course>
<desc>Speed 5.6 km/h Distance 2.95 km</desc>
<time>2010-02-28T16:39:13.15</time>
<name>1792</name>
</trkpt>
<trkpt lat="48.977888" lon="8.664838">
<ele>324.5</ele>
<speed>5.7</speed>
<course>339.9</course>
<desc>Speed 5.7 km/h Distance 2.95 km</desc>
<time>2010-02-28T16:39:14.15</time>
<name>1793</name>
</trkpt>
<trkpt lat="48.977903" lon="8.664830">
<ele>324.5</ele>
<speed>5.7</speed>
<course>337.4</course>
<desc>Speed 5.7 km/h Distance 2.95 km</desc>
<time>2010-02-28T16:39:15.15</time>
<name>1794</name>
</trkpt>
<trkpt lat="48.977917" lon="8.664822">
<ele>324.5</ele>
<speed>5.8</speed>
<course>334.0</course>
<desc>Speed 5.8 km/h Distance 2.95 km</desc>
<time>2010-02-28T16:39:16.15</time>
<name>1795</name>
</trkpt>
<trkpt lat="48.977930" lon="8.664812">
<ele>324.5</ele>
<speed>5.7</speed>
<course>334.0</course>
<desc>Speed 5.7 km/h Distance 2.96 km</desc>
<time>2010-02-28T16:39:17.16</time>
<name>1796</name>
</trkpt>
<trkpt lat="48.977943" lon="8.664802">
<ele>325.0</ele>
<speed>5.6</speed>
<course>337.9</course>
<desc>Speed 5.6 km/h Distance 2.96 km</desc>
<time>2010-02-28T16:39:18.15</time>
<name>1797</name>
</trkpt>
<trkpt lat="48.977957" lon="8.664793">
<ele>325.0</ele>
<speed>5.7</speed>
<course>333.8</course>
<desc>Speed 5.7 km/h Distance 2.96 km</desc>
<time>2010-02-28T16:39:19.15</time>
<name>1798</name>
</trkpt>
<trkpt lat="48.977970" lon="8.664783">
<ele>325.0</ele>
<speed>5.8</speed>
<course>339.9</course>
<desc>Speed 5.8 km/h Distance 2.96 km</desc>
<time>2010-02-28T16:39:20.16</time>
<name>1799</name>
</trkpt>
<trkpt lat="48.977985" lon="8.664775">
<ele>325.0</ele>
<speed>5.8</speed>
<course>330.8</course>
<desc>Speed 5.8 km/h Distance 2.96 km</desc>
<time>2010-02-28T16:39:21.15</time>
<name>1800</name>
</trkpt>
<trkpt lat="48.977997" lon="8.664765">
<ele>325.5</ele>
<speed>5.5</speed>
<course>341.9</course>
<desc>Speed 5.5 km/h Distance 2.96 km</desc>
<time>2010-02-28T16:39:22.15</time>
<name>1801</name>
</trkpt>
<trkpt lat="48.978010" lon="8.664758">
<ele>326.0</ele>
<speed>5.3</speed>
<course>326.7</course>
<desc>Speed 5.3 km/h Distance 2.96 km</desc>
<time>2010-02-28T16:39:23.15</time>
<name>1802</name>
</trkpt>
<trkpt lat="48.978022" lon="8.664747">
<ele>326.0</ele>
<speed>5.4</speed>
<course>333.8</course>
<desc>Speed 5.4 km/h Distance 2.97 km</desc>
<time>2010-02-28T16:39:24.16</time>
<name>1803</name>
</trkpt>
<trkpt lat="48.978035" lon="8.664737">
<ele>326.5</ele>
<speed>5.2</speed>
<course>334.8</course>
<desc>Speed 5.2 km/h Distance 2.97 km</desc>
<time>2010-02-28T16:39:25.15</time>
<name>1804</name>
</trkpt>
<trkpt lat="48.978047" lon="8.664728">
<ele>326.5</ele>
<speed>5.3</speed>
<course>334.8</course>
<desc>Speed 5.3 km/h Distance 2.97 km</desc>
<time>2010-02-28T16:39:26.15</time>
<name>1805</name>
</trkpt>
<trkpt lat="48.978058" lon="8.664720">
<ele>326.5</ele>
<speed>5.1</speed>
<course>337.7</course>
<desc>Speed 5.1 km/h Distance 2.97 km</desc>
<time>2010-02-28T16:39:27.15</time>
<name>1806</name>
</trkpt>
<trkpt lat="48.978072" lon="8.664712">
<ele>327.0</ele>
<speed>5.4</speed>
<course>330.6</course>
<desc>Speed 5.4 km/h Distance 2.97 km</desc>
<time>2010-02-28T16:39:28.15</time>
<name>1807</name>
</trkpt>
<trkpt lat="48.978083" lon="8.664702">
<ele>327.0</ele>
<speed>5.3</speed>
<course>333.6</course>
<desc>Speed 5.3 km/h Distance 2.97 km</desc>
<time>2010-02-28T16:39:29.15</time>
<name>1808</name>
</trkpt>
<trkpt lat="48.978097" lon="8.664692">
<ele>327.0</ele>
<speed>5.3</speed>
<course>337.4</course>
<desc>Speed 5.3 km/h Distance 2.98 km</desc>
<time>2010-02-28T16:39:30.15</time>
<name>1809</name>
</trkpt>
<trkpt lat="48.978110" lon="8.664683">
<ele>327.0</ele>
<speed>5.4</speed>
<course>334.6</course>
<desc>Speed 5.4 km/h Distance 2.98 km</desc>
<time>2010-02-28T16:39:31.15</time>
<name>1810</name>
</trkpt>
<trkpt lat="48.978122" lon="8.664675">
<ele>327.0</ele>
<speed>5.4</speed>
<course>333.8</course>
<desc>Speed 5.4 km/h Distance 2.98 km</desc>
<time>2010-02-28T16:39:32.15</time>
<name>1811</name>
</trkpt>
<trkpt lat="48.978135" lon="8.664665">
<ele>327.5</ele>
<speed>5.4</speed>
<course>334.0</course>
<desc>Speed 5.4 km/h Distance 2.98 km</desc>
<time>2010-02-28T16:39:33.15</time>
<name>1812</name>
</trkpt>
<trkpt lat="48.978148" lon="8.664655">
<ele>327.5</ele>
<speed>5.7</speed>
<course>337.9</course>
<desc>Speed 5.7 km/h Distance 2.98 km</desc>
<time>2010-02-28T16:39:34.15</time>
<name>1813</name>
</trkpt>
<trkpt lat="48.978162" lon="8.664647">
<ele>327.5</ele>
<speed>5.7</speed>
<course>330.6</course>
<desc>Speed 5.7 km/h Distance 2.98 km</desc>
<time>2010-02-28T16:39:35.16</time>
<name>1814</name>
</trkpt>
<trkpt lat="48.978173" lon="8.664637">
<ele>328.0</ele>
<speed>5.5</speed>
<course>330.2</course>
<desc>Speed 5.5 km/h Distance 2.99 km</desc>
<time>2010-02-28T16:39:36.15</time>
<name>1815</name>
</trkpt>
<trkpt lat="48.978187" lon="8.664625">
<ele>328.0</ele>
<speed>5.6</speed>
<course>330.2</course>
<desc>Speed 5.6 km/h Distance 2.99 km</desc>
<time>2010-02-28T16:39:37.14</time>
<name>1816</name>
</trkpt>
<trkpt lat="48.978200" lon="8.664613">
<ele>328.0</ele>
<speed>5.8</speed>
<course>330.6</course>
<desc>Speed 5.8 km/h Distance 2.99 km</desc>
<time>2010-02-28T16:39:38.14</time>
<name>1817</name>
</trkpt>
<trkpt lat="48.978212" lon="8.664603">
<ele>328.5</ele>
<speed>5.5</speed>
<course>326.6</course>
<desc>Speed 5.5 km/h Distance 2.99 km</desc>
<time>2010-02-28T16:39:39.14</time>
<name>1818</name>
</trkpt>
<trkpt lat="48.978223" lon="8.664592">
<ele>329.0</ele>
<speed>5.5</speed>
<course>330.6</course>
<desc>Speed 5.5 km/h Distance 2.99 km</desc>
<time>2010-02-28T16:39:40.15</time>
<name>1819</name>
</trkpt>
<trkpt lat="48.978235" lon="8.664582">
<ele>329.0</ele>
<speed>5.5</speed>
<course>326.6</course>
<desc>Speed 5.5 km/h Distance 2.99 km</desc>
<time>2010-02-28T16:39:41.14</time>
<name>1820</name>
</trkpt>
<trkpt lat="48.978247" lon="8.664570">
<ele>329.0</ele>
<speed>5.4</speed>
<course>326.6</course>
<desc>Speed 5.4 km/h Distance 2.99 km</desc>
<time>2010-02-28T16:39:42.14</time>
<name>1821</name>
</trkpt>
<trkpt lat="48.978258" lon="8.664558">
<ele>329.0</ele>
<speed>5.4</speed>
<course>330.6</course>
<desc>Speed 5.4 km/h Distance 3.00 km</desc>
<time>2010-02-28T16:39:43.14</time>
<name>1822</name>
</trkpt>
<trkpt lat="48.978270" lon="8.664548">
<ele>329.0</ele>
<speed>5.3</speed>
<course>330.2</course>
<desc>Speed 5.3 km/h Distance 3.00 km</desc>
<time>2010-02-28T16:39:44.14</time>
<name>1823</name>
</trkpt>
<trkpt lat="48.978283" lon="8.664537">
<ele>329.0</ele>
<speed>5.8</speed>
<course>326.6</course>
<desc>Speed 5.8 km/h Distance 3.00 km</desc>
<time>2010-02-28T16:39:45.14</time>
<name>1824</name>
</trkpt>
<trkpt lat="48.978295" lon="8.664525">
<ele>329.0</ele>
<speed>5.5</speed>
<course>330.6</course>
<desc>Speed 5.5 km/h Distance 3.00 km</desc>
<time>2010-02-28T16:39:46.14</time>
<name>1825</name>
</trkpt>
<trkpt lat="48.978307" lon="8.664515">
<ele>329.0</ele>
<speed>5.2</speed>
<course>326.6</course>
<desc>Speed 5.2 km/h Distance 3.00 km</desc>
<time>2010-02-28T16:39:47.14</time>
<name>1826</name>
</trkpt>
<trkpt lat="48.978318" lon="8.664503">
<ele>329.0</ele>
<speed>5.4</speed>
<course>322.7</course>
<desc>Speed 5.4 km/h Distance 3.00 km</desc>
<time>2010-02-28T16:39:48.14</time>
<name>1827</name>
</trkpt>
<trkpt lat="48.978328" lon="8.664492">
<ele>329.0</ele>
<speed>5.1</speed>
<course>326.9</course>
<desc>Speed 5.1 km/h Distance 3.01 km</desc>
<time>2010-02-28T16:39:49.14</time>
<name>1828</name>
</trkpt>
<trkpt lat="48.978340" lon="8.664480">
<ele>329.5</ele>
<speed>5.2</speed>
<course>318.8</course>
<desc>Speed 5.2 km/h Distance 3.01 km</desc>
<time>2010-02-28T16:39:50.14</time>
<name>1829</name>
</trkpt>
<trkpt lat="48.978350" lon="8.664467">
<ele>329.5</ele>
<speed>5.3</speed>
<course>326.6</course>
<desc>Speed 5.3 km/h Distance 3.01 km</desc>
<time>2010-02-28T16:39:51.14</time>
<name>1830</name>
</trkpt>
<trkpt lat="48.978362" lon="8.664455">
<ele>330.0</ele>
<speed>5.3</speed>
<course>318.8</course>
<desc>Speed 5.3 km/h Distance 3.01 km</desc>
<time>2010-02-28T16:39:52.14</time>
<name>1831</name>
</trkpt>
<trkpt lat="48.978372" lon="8.664442">
<ele>330.0</ele>
<speed>5.2</speed>
<course>318.8</course>
<desc>Speed 5.2 km/h Distance 3.01 km</desc>
<time>2010-02-28T16:39:53.14</time>
<name>1832</name>
</trkpt>
<trkpt lat="48.978382" lon="8.664428">
<ele>330.5</ele>
<speed>5.1</speed>
<course>318.8</course>
<desc>Speed 5.1 km/h Distance 3.01 km</desc>
<time>2010-02-28T16:39:54.14</time>
<name>1833</name>
</trkpt>
<trkpt lat="48.978392" lon="8.664415">
<ele>331.0</ele>
<speed>4.8</speed>
<course>322.5</course>
<desc>Speed 4.8 km/h Distance 3.01 km</desc>
<time>2010-02-28T16:39:55.14</time>
<name>1834</name>
</trkpt>
<trkpt lat="48.978402" lon="8.664403">
<ele>331.5</ele>
<speed>5.0</speed>
<course>313.6</course>
<desc>Speed 5.0 km/h Distance 3.02 km</desc>
<time>2010-02-28T16:39:56.14</time>
<name>1835</name>
</trkpt>
<trkpt lat="48.978410" lon="8.664390">
<ele>331.5</ele>
<speed>4.8</speed>
<course>313.6</course>
<desc>Speed 4.8 km/h Distance 3.02 km</desc>
<time>2010-02-28T16:39:57.14</time>
<name>1836</name>
</trkpt>
<trkpt lat="48.978418" lon="8.664377">
<ele>332.0</ele>
<speed>4.6</speed>
<course>317.2</course>
<desc>Speed 4.6 km/h Distance 3.02 km</desc>
<time>2010-02-28T16:39:58.14</time>
<name>1837</name>
</trkpt>
<trkpt lat="48.978427" lon="8.664365">
<ele>332.5</ele>
<speed>4.4</speed>
<course>310.3</course>
<desc>Speed 4.4 km/h Distance 3.02 km</desc>
<time>2010-02-28T16:39:59.14</time>
<name>1838</name>
</trkpt>
<trkpt lat="48.978435" lon="8.664350">
<ele>332.5</ele>
<speed>4.6</speed>
<course>313.6</course>
<desc>Speed 4.6 km/h Distance 3.02 km</desc>
<time>2010-02-28T16:40:00.14</time>
<name>1839</name>
</trkpt>
<trkpt lat="48.978443" lon="8.664337">
<ele>332.5</ele>
<speed>4.7</speed>
<course>307.3</course>
<desc>Speed 4.7 km/h Distance 3.02 km</desc>
<time>2010-02-28T16:40:01.13</time>
<name>1840</name>
</trkpt>
<trkpt lat="48.978450" lon="8.664323">
<ele>333.0</ele>
<speed>4.5</speed>
<course>304.1</course>
<desc>Speed 4.5 km/h Distance 3.02 km</desc>
<time>2010-02-28T16:40:02.13</time>
<name>1841</name>
</trkpt>
<trkpt lat="48.978457" lon="8.664308">
<ele>333.0</ele>
<speed>4.5</speed>
<course>304.1</course>
<desc>Speed 4.5 km/h Distance 3.02 km</desc>
<time>2010-02-28T16:40:03.13</time>
<name>1842</name>
</trkpt>
<trkpt lat="48.978463" lon="8.664293">
<ele>333.5</ele>
<speed>4.6</speed>
<course>301.4</course>
<desc>Speed 4.6 km/h Distance 3.03 km</desc>
<time>2010-02-28T16:40:04.13</time>
<name>1843</name>
</trkpt>
<trkpt lat="48.978470" lon="8.664277">
<ele>333.5</ele>
<speed>4.5</speed>
<course>288.7</course>
<desc>Speed 4.5 km/h Distance 3.03 km</desc>
<time>2010-02-28T16:40:05.13</time>
<name>1844</name>
</trkpt>
<trkpt lat="48.978473" lon="8.664262">
<ele>333.5</ele>
<speed>4.1</speed>
<course>278.7</course>
<desc>Speed 4.1 km/h Distance 3.03 km</desc>
<time>2010-02-28T16:40:06.13</time>
<name>1845</name>
</trkpt>
<trkpt lat="48.978475" lon="8.664245">
<ele>334.0</ele>
<speed>4.1</speed>
<course>296.9</course>
<desc>Speed 4.1 km/h Distance 3.03 km</desc>
<time>2010-02-28T16:40:07.13</time>
<name>1846</name>
</trkpt>
<trkpt lat="48.978480" lon="8.664230">
<ele>334.0</ele>
<speed>4.1</speed>
<course>279.6</course>
<desc>Speed 4.1 km/h Distance 3.03 km</desc>
<time>2010-02-28T16:40:08.13</time>
<name>1847</name>
</trkpt>
<trkpt lat="48.978482" lon="8.664215">
<ele>334.0</ele>
<speed>4.2</speed>
<course>294.6</course>
<desc>Speed 4.2 km/h Distance 3.03 km</desc>
<time>2010-02-28T16:40:09.13</time>
<name>1848</name>
</trkpt>
<trkpt lat="48.978487" lon="8.664198">
<ele>334.0</ele>
<speed>4.4</speed>
<course>307.4</course>
<desc>Speed 4.4 km/h Distance 3.03 km</desc>
<time>2010-02-28T16:40:10.13</time>
<name>1849</name>
</trkpt>
<trkpt lat="48.978493" lon="8.664185">
<ele>334.5</ele>
<speed>4.4</speed>
<course>304.1</course>
<desc>Speed 4.4 km/h Distance 3.04 km</desc>
<time>2010-02-28T16:40:11.14</time>
<name>1850</name>
</trkpt>
<trkpt lat="48.978500" lon="8.664170">
<ele>334.5</ele>
<speed>4.5</speed>
<course>304.1</course>
<desc>Speed 4.5 km/h Distance 3.04 km</desc>
<time>2010-02-28T16:40:12.13</time>
<name>1851</name>
</trkpt>
<trkpt lat="48.978507" lon="8.664155">
<ele>335.0</ele>
<speed>4.8</speed>
<course>313.5</course>
<desc>Speed 4.8 km/h Distance 3.04 km</desc>
<time>2010-02-28T16:40:13.13</time>
<name>1852</name>
</trkpt>
<trkpt lat="48.978515" lon="8.664142">
<ele>335.0</ele>
<speed>4.9</speed>
<course>317.4</course>
<desc>Speed 4.9 km/h Distance 3.04 km</desc>
<time>2010-02-28T16:40:14.13</time>
<name>1853</name>
</trkpt>
<trkpt lat="48.978523" lon="8.664130">
<ele>336.0</ele>
<speed>4.4</speed>
<course>317.4</course>
<desc>Speed 4.4 km/h Distance 3.04 km</desc>
<time>2010-02-28T16:40:15.13</time>
<name>1854</name>
</trkpt>
<trkpt lat="48.978532" lon="8.664118">
<ele>336.0</ele>
<speed>4.2</speed>
<course>311.1</course>
<desc>Speed 4.2 km/h Distance 3.04 km</desc>
<time>2010-02-28T16:40:16.13</time>
<name>1855</name>
</trkpt>
<trkpt lat="48.978538" lon="8.664107">
<ele>336.5</ele>
<speed>4.3</speed>
<course>313.6</course>
<desc>Speed 4.3 km/h Distance 3.04 km</desc>
<time>2010-02-28T16:40:17.13</time>
<name>1856</name>
</trkpt>
<trkpt lat="48.978547" lon="8.664093">
<ele>336.5</ele>
<speed>4.7</speed>
<course>310.3</course>
<desc>Speed 4.7 km/h Distance 3.04 km</desc>
<time>2010-02-28T16:40:18.13</time>
<name>1857</name>
</trkpt>
<trkpt lat="48.978555" lon="8.664078">
<ele>336.5</ele>
<speed>4.8</speed>
<course>307.3</course>
<desc>Speed 4.8 km/h Distance 3.05 km</desc>
<time>2010-02-28T16:40:19.13</time>
<name>1858</name>
</trkpt>
<trkpt lat="48.978563" lon="8.664062">
<ele>337.0</ele>
<speed>5.2</speed>
<course>299.0</course>
<desc>Speed 5.2 km/h Distance 3.05 km</desc>
<time>2010-02-28T16:40:20.13</time>
<name>1859</name>
</trkpt>
<trkpt lat="48.978570" lon="8.664043">
<ele>337.0</ele>
<speed>5.5</speed>
<course>299.0</course>
<desc>Speed 5.5 km/h Distance 3.05 km</desc>
<time>2010-02-28T16:40:21.14</time>
<name>1860</name>
</trkpt>
<trkpt lat="48.978577" lon="8.664025">
<ele>337.0</ele>
<speed>5.3</speed>
<course>292.5</course>
<desc>Speed 5.3 km/h Distance 3.05 km</desc>
<time>2010-02-28T16:40:22.13</time>
<name>1861</name>
</trkpt>
<trkpt lat="48.978582" lon="8.664007">
<ele>337.5</ele>
<speed>5.5</speed>
<course>299.0</course>
<desc>Speed 5.5 km/h Distance 3.05 km</desc>
<time>2010-02-28T16:40:23.14</time>
<name>1862</name>
</trkpt>
<trkpt lat="48.978588" lon="8.663988">
<ele>337.5</ele>
<speed>5.0</speed>
<course>294.6</course>
<desc>Speed 5.0 km/h Distance 3.05 km</desc>
<time>2010-02-28T16:40:24.13</time>
<name>1863</name>
</trkpt>
<trkpt lat="48.978593" lon="8.663972">
<ele>338.0</ele>
<speed>5.0</speed>
<course>310.3</course>
<desc>Speed 5.0 km/h Distance 3.05 km</desc>
<time>2010-02-28T16:40:25.13</time>
<name>1864</name>
</trkpt>
<trkpt lat="48.978602" lon="8.663957">
<ele>338.0</ele>
<speed>5.0</speed>
<course>294.6</course>
<desc>Speed 5.0 km/h Distance 3.06 km</desc>
<time>2010-02-28T16:40:26.13</time>
<name>1865</name>
</trkpt>
<trkpt lat="48.978607" lon="8.663940">
<ele>338.0</ele>
<speed>4.6</speed>
<course>299.7</course>
<desc>Speed 4.6 km/h Distance 3.06 km</desc>
<time>2010-02-28T16:40:27.13</time>
<name>1866</name>
</trkpt>
<trkpt lat="48.978612" lon="8.663927">
<ele>338.5</ele>
<speed>4.5</speed>
<course>301.4</course>
<desc>Speed 4.5 km/h Distance 3.06 km</desc>
<time>2010-02-28T16:40:28.13</time>
<name>1867</name>
</trkpt>
<trkpt lat="48.978618" lon="8.663910">
<ele>338.5</ele>
<speed>4.5</speed>
<course>288.7</course>
<desc>Speed 4.5 km/h Distance 3.06 km</desc>
<time>2010-02-28T16:40:29.13</time>
<name>1868</name>
</trkpt>
<trkpt lat="48.978622" lon="8.663895">
<ele>339.0</ele>
<speed>4.6</speed>
<course>286.9</course>
<desc>Speed 4.6 km/h Distance 3.06 km</desc>
<time>2010-02-28T16:40:30.13</time>
<name>1869</name>
</trkpt>
<trkpt lat="48.978625" lon="8.663878">
<ele>339.0</ele>
<speed>4.8</speed>
<course>294.6</course>
<desc>Speed 4.8 km/h Distance 3.06 km</desc>
<time>2010-02-28T16:40:31.13</time>
<name>1870</name>
</trkpt>
<trkpt lat="48.978630" lon="8.663862">
<ele>339.0</ele>
<speed>4.8</speed>
<course>301.3</course>
<desc>Speed 4.8 km/h Distance 3.06 km</desc>
<time>2010-02-28T16:40:32.12</time>
<name>1871</name>
</trkpt>
<trkpt lat="48.978637" lon="8.663845">
<ele>339.5</ele>
<speed>4.9</speed>
<course>296.9</course>
<desc>Speed 4.9 km/h Distance 3.06 km</desc>
<time>2010-02-28T16:40:33.13</time>
<name>1872</name>
</trkpt>
<trkpt lat="48.978642" lon="8.663830">
<ele>339.5</ele>
<speed>4.5</speed>
<course>284.2</course>
<desc>Speed 4.5 km/h Distance 3.07 km</desc>
<time>2010-02-28T16:40:34.12</time>
<name>1873</name>
</trkpt>
<trkpt lat="48.978645" lon="8.663810">
<ele>339.5</ele>
<speed>4.8</speed>
<course>296.9</course>
<desc>Speed 4.8 km/h Distance 3.07 km</desc>
<time>2010-02-28T16:40:35.12</time>
<name>1874</name>
</trkpt>
<trkpt lat="48.978650" lon="8.663795">
<ele>339.5</ele>
<speed>4.2</speed>
<course>310.9</course>
<desc>Speed 4.2 km/h Distance 3.07 km</desc>
<time>2010-02-28T16:40:36.12</time>
<name>1875</name>
</trkpt>
<trkpt lat="48.978657" lon="8.663783">
<ele>339.5</ele>
<speed>3.8</speed>
<course>304.1</course>
<desc>Speed 3.8 km/h Distance 3.07 km</desc>
<time>2010-02-28T16:40:37.12</time>
<name>1876</name>
</trkpt>
<trkpt lat="48.978663" lon="8.663768">
<ele>339.5</ele>
<speed>4.3</speed>
<course>299.7</course>
<desc>Speed 4.3 km/h Distance 3.07 km</desc>
<time>2010-02-28T16:40:38.13</time>
<name>1877</name>
</trkpt>
<trkpt lat="48.978668" lon="8.663755">
<ele>339.5</ele>
<speed>4.4</speed>
<course>292.6</course>
<desc>Speed 4.4 km/h Distance 3.07 km</desc>
<time>2010-02-28T16:40:39.13</time>
<name>1878</name>
</trkpt>
<trkpt lat="48.978673" lon="8.663737">
<ele>340.0</ele>
<speed>5.0</speed>
<course>284.3</course>
<desc>Speed 5.0 km/h Distance 3.07 km</desc>
<time>2010-02-28T16:40:40.12</time>
<name>1879</name>
</trkpt>
<trkpt lat="48.978677" lon="8.663717">
<ele>340.5</ele>
<speed>4.9</speed>
<course>294.7</course>
<desc>Speed 4.9 km/h Distance 3.08 km</desc>
<time>2010-02-28T16:40:41.13</time>
<name>1880</name>
</trkpt>
<trkpt lat="48.978682" lon="8.663700">
<ele>341.0</ele>
<speed>4.8</speed>
<course>292.6</course>
<desc>Speed 4.8 km/h Distance 3.08 km</desc>
<time>2010-02-28T16:40:42.13</time>
<name>1881</name>
</trkpt>
<trkpt lat="48.978687" lon="8.663682">
<ele>341.0</ele>
<speed>5.0</speed>
<course>294.6</course>
<desc>Speed 5.0 km/h Distance 3.08 km</desc>
<time>2010-02-28T16:40:43.13</time>
<name>1882</name>
</trkpt>
<trkpt lat="48.978692" lon="8.663665">
<ele>341.5</ele>
<speed>4.8</speed>
<course>301.4</course>
<desc>Speed 4.8 km/h Distance 3.08 km</desc>
<time>2010-02-28T16:40:44.13</time>
<name>1883</name>
</trkpt>
<trkpt lat="48.978698" lon="8.663648">
<ele>341.5</ele>
<speed>4.6</speed>
<course>297.0</course>
<desc>Speed 4.6 km/h Distance 3.08 km</desc>
<time>2010-02-28T16:40:45.12</time>
<name>1884</name>
</trkpt>
<trkpt lat="48.978703" lon="8.663633">
<ele>342.0</ele>
<speed>4.6</speed>
<course>285.5</course>
<desc>Speed 4.6 km/h Distance 3.08 km</desc>
<time>2010-02-28T16:40:46.12</time>
<name>1885</name>
</trkpt>
<trkpt lat="48.978707" lon="8.663615">
<ele>342.0</ele>
<speed>4.5</speed>
<course>294.6</course>
<desc>Speed 4.5 km/h Distance 3.08 km</desc>
<time>2010-02-28T16:40:47.12</time>
<name>1886</name>
</trkpt>
<trkpt lat="48.978712" lon="8.663598">
<ele>342.0</ele>
<speed>5.0</speed>
<course>294.5</course>
<desc>Speed 5.0 km/h Distance 3.08 km</desc>
<time>2010-02-28T16:40:48.12</time>
<name>1887</name>
</trkpt>
<trkpt lat="48.978717" lon="8.663582">
<ele>342.5</ele>
<speed>4.3</speed>
<course>294.6</course>
<desc>Speed 4.3 km/h Distance 3.09 km</desc>
<time>2010-02-28T16:40:49.12</time>
<name>1888</name>
</trkpt>
<trkpt lat="48.978722" lon="8.663565">
<ele>342.5</ele>
<speed>4.8</speed>
<course>296.9</course>
<desc>Speed 4.8 km/h Distance 3.09 km</desc>
<time>2010-02-28T16:40:50.12</time>
<name>1889</name>
</trkpt>
<trkpt lat="48.978728" lon="8.663545">
<ele>343.0</ele>
<speed>5.1</speed>
<course>292.6</course>
<desc>Speed 5.1 km/h Distance 3.09 km</desc>
<time>2010-02-28T16:40:51.13</time>
<name>1890</name>
</trkpt>
<trkpt lat="48.978733" lon="8.663527">
<ele>343.0</ele>
<speed>5.5</speed>
<course>292.6</course>
<desc>Speed 5.5 km/h Distance 3.09 km</desc>
<time>2010-02-28T16:40:52.13</time>
<name>1891</name>
</trkpt>
<trkpt lat="48.978738" lon="8.663508">
<ele>343.5</ele>
<speed>5.0</speed>
<course>287.0</course>
<desc>Speed 5.0 km/h Distance 3.09 km</desc>
<time>2010-02-28T16:40:53.11</time>
<name>1892</name>
</trkpt>
<trkpt lat="48.978742" lon="8.663492">
<ele>343.5</ele>
<speed>4.4</speed>
<course>296.9</course>
<desc>Speed 4.4 km/h Distance 3.09 km</desc>
<time>2010-02-28T16:40:54.11</time>
<name>1893</name>
</trkpt>
<trkpt lat="48.978747" lon="8.663477">
<ele>343.5</ele>
<speed>4.4</speed>
<course>294.6</course>
<desc>Speed 4.4 km/h Distance 3.09 km</desc>
<time>2010-02-28T16:40:55.11</time>
<name>1894</name>
</trkpt>
<trkpt lat="48.978752" lon="8.663460">
<ele>344.0</ele>
<speed>4.6</speed>
<course>294.6</course>
<desc>Speed 4.6 km/h Distance 3.10 km</desc>
<time>2010-02-28T16:40:56.11</time>
<name>1895</name>
</trkpt>
<trkpt lat="48.978757" lon="8.663443">
<ele>344.0</ele>
<speed>4.5</speed>
<course>296.9</course>
<desc>Speed 4.5 km/h Distance 3.10 km</desc>
<time>2010-02-28T16:40:57.11</time>
<name>1896</name>
</trkpt>
<trkpt lat="48.978762" lon="8.663428">
<ele>344.5</ele>
<speed>4.6</speed>
<course>304.1</course>
<desc>Speed 4.6 km/h Distance 3.10 km</desc>
<time>2010-02-28T16:40:58.11</time>
<name>1897</name>
</trkpt>
<trkpt lat="48.978768" lon="8.663413">
<ele>345.0</ele>
<speed>4.1</speed>
<course>286.9</course>
<desc>Speed 4.1 km/h Distance 3.10 km</desc>
<time>2010-02-28T16:40:59.11</time>
<name>1898</name>
</trkpt>
<trkpt lat="48.978772" lon="8.663397">
<ele>345.5</ele>
<speed>4.5</speed>
<course>304.1</course>
<desc>Speed 4.5 km/h Distance 3.10 km</desc>
<time>2010-02-28T16:41:00.11</time>
<name>1899</name>
</trkpt>
<trkpt lat="48.978778" lon="8.663382">
<ele>346.0</ele>
<speed>4.6</speed>
<course>294.6</course>
<desc>Speed 4.6 km/h Distance 3.10 km</desc>
<time>2010-02-28T16:41:01.11</time>
<name>1900</name>
</trkpt>
<trkpt lat="48.978783" lon="8.663365">
<ele>346.0</ele>
<speed>4.8</speed>
<course>294.6</course>
<desc>Speed 4.8 km/h Distance 3.10 km</desc>
<time>2010-02-28T16:41:02.11</time>
<name>1901</name>
</trkpt>
<trkpt lat="48.978788" lon="8.663348">
<ele>346.0</ele>
<speed>4.8</speed>
<course>292.6</course>
<desc>Speed 4.8 km/h Distance 3.11 km</desc>
<time>2010-02-28T16:41:03.11</time>
<name>1902</name>
</trkpt>
<trkpt lat="48.978793" lon="8.663330">
<ele>346.0</ele>
<speed>4.8</speed>
<course>292.6</course>
<desc>Speed 4.8 km/h Distance 3.11 km</desc>
<time>2010-02-28T16:41:04.11</time>
<name>1903</name>
</trkpt>
<trkpt lat="48.978798" lon="8.663312">
<ele>346.5</ele>
<speed>5.0</speed>
<course>301.4</course>
<desc>Speed 5.0 km/h Distance 3.11 km</desc>
<time>2010-02-28T16:41:05.11</time>
<name>1904</name>
</trkpt>
<trkpt lat="48.978805" lon="8.663295">
<ele>346.5</ele>
<speed>4.8</speed>
<course>294.6</course>
<desc>Speed 4.8 km/h Distance 3.11 km</desc>
<time>2010-02-28T16:41:06.12</time>
<name>1905</name>
</trkpt>
<trkpt lat="48.978810" lon="8.663278">
<ele>347.0</ele>
<speed>4.8</speed>
<course>294.6</course>
<desc>Speed 4.8 km/h Distance 3.11 km</desc>
<time>2010-02-28T16:41:07.11</time>
<name>1906</name>
</trkpt>
<trkpt lat="48.978815" lon="8.663262">
<ele>347.5</ele>
<speed>4.9</speed>
<course>292.6</course>
<desc>Speed 4.9 km/h Distance 3.11 km</desc>
<time>2010-02-28T16:41:08.11</time>
<name>1907</name>
</trkpt>
<trkpt lat="48.978820" lon="8.663243">
<ele>348.0</ele>
<speed>5.0</speed>
<course>288.7</course>
<desc>Speed 5.0 km/h Distance 3.11 km</desc>
<time>2010-02-28T16:41:09.11</time>
<name>1908</name>
</trkpt>
<trkpt lat="48.978823" lon="8.663228">
<ele>347.5</ele>
<speed>4.2</speed>
<course>296.9</course>
<desc>Speed 4.2 km/h Distance 3.11 km</desc>
<time>2010-02-28T16:41:10.11</time>
<name>1909</name>
</trkpt>
<trkpt lat="48.978828" lon="8.663213">
<ele>348.0</ele>
<speed>4.1</speed>
<course>315.5</course>
<desc>Speed 4.1 km/h Distance 3.12 km</desc>
<time>2010-02-28T16:41:11.12</time>
<name>1910</name>
</trkpt>
<trkpt lat="48.978835" lon="8.663203">
<ele>348.0</ele>
<speed>3.6</speed>
<course>270.0</course>
<desc>Speed 3.6 km/h Distance 3.12 km</desc>
<time>2010-02-28T16:41:12.11</time>
<name>1911</name>
</trkpt>
<trkpt lat="48.978835" lon="8.663197">
<ele>347.5</ele>
<speed>2.5</speed>
<course>301.1</course>
<desc>Speed 2.5 km/h Distance 3.12 km</desc>
<time>2010-02-28T16:41:13.11</time>
<name>1912</name>
</trkpt>
<trkpt lat="48.978838" lon="8.663188">
<ele>347.5</ele>
<speed>2.1</speed>
<course>270.0</course>
<desc>Speed 2.1 km/h Distance 3.12 km</desc>
<time>2010-02-28T16:41:14.11</time>
<name>1913</name>
</trkpt>
<trkpt lat="48.978838" lon="8.663185">
<ele>347.5</ele>
<speed>0.8</speed>
<course>270.0</course>
<desc>Speed 0.8 km/h Distance 3.12 km</desc>
<time>2010-02-28T16:41:15.11</time>
<name>1914</name>
</trkpt>
<trkpt lat="48.978838" lon="8.663185">
<ele>347.5</ele>
<speed>0.1</speed>
<course>12.6</course>
<desc>Speed 0.1 km/h Distance 3.12 km</desc>
<time>2010-02-28T16:41:16.10</time>
<name>1915</name>
</trkpt>
<trkpt lat="48.978840" lon="8.663185">
<ele>347.0</ele>
<speed>0.3</speed>
<course>12.6</course>
<desc>Speed 0.3 km/h Distance 3.12 km</desc>
<time>2010-02-28T16:41:17.11</time>
<name>1916</name>
</trkpt>
<trkpt lat="48.978840" lon="8.663185">
<ele>347.0</ele>
<speed>0.1</speed>
<course>12.6</course>
<desc>Speed 0.1 km/h Distance 3.12 km</desc>
<time>2010-02-28T16:41:18.10</time>
<name>1917</name>
</trkpt>
<trkpt lat="48.978840" lon="8.663185">
<ele>347.0</ele>
<speed>0.2</speed>
<course>12.6</course>
<desc>Speed 0.2 km/h Distance 3.12 km</desc>
<time>2010-02-28T16:41:19.10</time>
<name>1918</name>
</trkpt>
<trkpt lat="48.978840" lon="8.663185">
<ele>347.0</ele>
<speed>0.3</speed>
<course>12.6</course>
<desc>Speed 0.3 km/h Distance 3.12 km</desc>
<time>2010-02-28T16:41:20.10</time>
<name>1919</name>
</trkpt>
<trkpt lat="48.978840" lon="8.663185">
<ele>347.0</ele>
<speed>0.4</speed>
<course>12.6</course>
<desc>Speed 0.4 km/h Distance 3.12 km</desc>
<time>2010-02-28T16:41:21.10</time>
<name>1920</name>
</trkpt>
<trkpt lat="48.978840" lon="8.663185">
<ele>347.0</ele>
<speed>0.5</speed>
<course>12.6</course>
<desc>Speed 0.5 km/h Distance 3.12 km</desc>
<time>2010-02-28T16:41:22.10</time>
<name>1921</name>
</trkpt>
<trkpt lat="48.978840" lon="8.663185">
<ele>347.0</ele>
<speed>0.3</speed>
<course>12.6</course>
<desc>Speed 0.3 km/h Distance 3.12 km</desc>
<time>2010-02-28T16:41:23.10</time>
<name>1922</name>
</trkpt>
<trkpt lat="48.978840" lon="8.663185">
<ele>347.0</ele>
<speed>0.2</speed>
<course>12.6</course>
<desc>Speed 0.2 km/h Distance 3.12 km</desc>
<time>2010-02-28T16:41:24.10</time>
<name>1923</name>
</trkpt>
<trkpt lat="48.978840" lon="8.663185">
<ele>347.0</ele>
<speed>0.1</speed>
<course>0.0</course>
<desc>Speed 0.1 km/h Distance 3.12 km</desc>
<time>2010-02-28T16:41:25.10</time>
<name>1924</name>
</trkpt>
<trkpt lat="48.978842" lon="8.663185">
<ele>347.0</ele>
<speed>0.1</speed>
<course>0.0</course>
<desc>Speed 0.1 km/h Distance 3.12 km</desc>
<time>2010-02-28T16:41:26.10</time>
<name>1925</name>
</trkpt>
<trkpt lat="48.978842" lon="8.663185">
<ele>347.0</ele>
<speed>0.1</speed>
<course>270.0</course>
<desc>Speed 0.1 km/h Distance 3.12 km</desc>
<time>2010-02-28T16:41:27.10</time>
<name>1926</name>
</trkpt>
<trkpt lat="48.978842" lon="8.663182">
<ele>346.5</ele>
<speed>1.0</speed>
<course>270.0</course>
<desc>Speed 1.0 km/h Distance 3.12 km</desc>
<time>2010-02-28T16:41:28.10</time>
<name>1927</name>
</trkpt>
<trkpt lat="48.978842" lon="8.663172">
<ele>347.5</ele>
<speed>2.7</speed>
<course>270.0</course>
<desc>Speed 2.7 km/h Distance 3.12 km</desc>
<time>2010-02-28T16:41:29.10</time>
<name>1928</name>
</trkpt>
<trkpt lat="48.978842" lon="8.663172">
<ele>347.0</ele>
<speed>0.3</speed>
<course>270.0</course>
<desc>Speed 0.3 km/h Distance 3.12 km</desc>
<time>2010-02-28T16:41:30.10</time>
<name>1929</name>
</trkpt>
<trkpt lat="48.978842" lon="8.663173">
<ele>347.0</ele>
<speed>0.5</speed>
<course>330.8</course>
<desc>Speed 0.5 km/h Distance 3.12 km</desc>
<time>2010-02-28T16:41:31.10</time>
<name>1930</name>
</trkpt>
<trkpt lat="48.978843" lon="8.663172">
<ele>346.5</ele>
<speed>0.1</speed>
<course>330.8</course>
<desc>Speed 0.1 km/h Distance 3.12 km</desc>
<time>2010-02-28T16:41:32.10</time>
<name>1931</name>
</trkpt>
<trkpt lat="48.978843" lon="8.663172">
<ele>346.5</ele>
<speed>0.5</speed>
<course>90.0</course>
<desc>Speed 0.5 km/h Distance 3.12 km</desc>
<time>2010-02-28T16:41:33.10</time>
<name>1932</name>
</trkpt>
<trkpt lat="48.978843" lon="8.663173">
<ele>346.5</ele>
<speed>0.4</speed>
<course>315.5</course>
<desc>Speed 0.4 km/h Distance 3.12 km</desc>
<time>2010-02-28T16:41:34.10</time>
<name>1933</name>
</trkpt>
<trkpt lat="48.978847" lon="8.663168">
<ele>346.5</ele>
<speed>1.3</speed>
<course>290.5</course>
<desc>Speed 1.3 km/h Distance 3.12 km</desc>
<time>2010-02-28T16:41:35.10</time>
<name>1934</name>
</trkpt>
<trkpt lat="48.978848" lon="8.663162">
<ele>346.0</ele>
<speed>1.8</speed>
<course>296.6</course>
<desc>Speed 1.8 km/h Distance 3.12 km</desc>
<time>2010-02-28T16:41:36.10</time>
<name>1935</name>
</trkpt>
<trkpt lat="48.978850" lon="8.663157">
<ele>346.0</ele>
<speed>1.4</speed>
<course>301.1</course>
<desc>Speed 1.4 km/h Distance 3.12 km</desc>
<time>2010-02-28T16:41:37.10</time>
<name>1936</name>
</trkpt>
<trkpt lat="48.978853" lon="8.663148">
<ele>346.0</ele>
<speed>2.6</speed>
<course>287.0</course>
<desc>Speed 2.6 km/h Distance 3.12 km</desc>
<time>2010-02-28T16:41:38.10</time>
<name>1937</name>
</trkpt>
<trkpt lat="48.978857" lon="8.663132">
<ele>346.5</ele>
<speed>4.6</speed>
<course>294.6</course>
<desc>Speed 4.6 km/h Distance 3.12 km</desc>
<time>2010-02-28T16:41:39.10</time>
<name>1938</name>
</trkpt>
<trkpt lat="48.978862" lon="8.663115">
<ele>347.0</ele>
<speed>4.7</speed>
<course>296.9</course>
<desc>Speed 4.7 km/h Distance 3.13 km</desc>
<time>2010-02-28T16:41:40.09</time>
<name>1939</name>
</trkpt>
<trkpt lat="48.978868" lon="8.663095">
<ele>347.5</ele>
<speed>5.8</speed>
<course>294.5</course>
<desc>Speed 5.8 km/h Distance 3.13 km</desc>
<time>2010-02-28T16:41:41.10</time>
<name>1940</name>
</trkpt>
<trkpt lat="48.978873" lon="8.663078">
<ele>347.0</ele>
<speed>4.6</speed>
<course>296.9</course>
<desc>Speed 4.6 km/h Distance 3.13 km</desc>
<time>2010-02-28T16:41:42.09</time>
<name>1941</name>
</trkpt>
<trkpt lat="48.978878" lon="8.663063">
<ele>347.0</ele>
<speed>4.5</speed>
<course>286.9</course>
<desc>Speed 4.5 km/h Distance 3.13 km</desc>
<time>2010-02-28T16:41:43.09</time>
<name>1942</name>
</trkpt>
<trkpt lat="48.978882" lon="8.663047">
<ele>346.5</ele>
<speed>4.1</speed>
<course>292.5</course>
<desc>Speed 4.1 km/h Distance 3.13 km</desc>
<time>2010-02-28T16:41:44.09</time>
<name>1943</name>
</trkpt>
<trkpt lat="48.978887" lon="8.663028">
<ele>347.0</ele>
<speed>4.7</speed>
<course>296.9</course>
<desc>Speed 4.7 km/h Distance 3.13 km</desc>
<time>2010-02-28T16:41:45.10</time>
<name>1944</name>
</trkpt>
<trkpt lat="48.978892" lon="8.663013">
<ele>346.5</ele>
<speed>4.5</speed>
<course>299.7</course>
<desc>Speed 4.5 km/h Distance 3.13 km</desc>
<time>2010-02-28T16:41:46.09</time>
<name>1945</name>
</trkpt>
<trkpt lat="48.978897" lon="8.663000">
<ele>347.0</ele>
<speed>4.4</speed>
<course>294.5</course>
<desc>Speed 4.4 km/h Distance 3.13 km</desc>
<time>2010-02-28T16:41:47.09</time>
<name>1946</name>
</trkpt>
<trkpt lat="48.978902" lon="8.662983">
<ele>347.0</ele>
<speed>4.8</speed>
<course>296.9</course>
<desc>Speed 4.8 km/h Distance 3.14 km</desc>
<time>2010-02-28T16:41:48.09</time>
<name>1947</name>
</trkpt>
<trkpt lat="48.978907" lon="8.662968">
<ele>347.0</ele>
<speed>4.4</speed>
<course>290.8</course>
<desc>Speed 4.4 km/h Distance 3.14 km</desc>
<time>2010-02-28T16:41:49.09</time>
<name>1948</name>
</trkpt>
<trkpt lat="48.978910" lon="8.662955">
<ele>346.5</ele>
<speed>4.1</speed>
<course>286.9</course>
<desc>Speed 4.1 km/h Distance 3.14 km</desc>
<time>2010-02-28T16:41:50.09</time>
<name>1949</name>
</trkpt>
<trkpt lat="48.978913" lon="8.662938">
<ele>346.5</ele>
<speed>4.4</speed>
<course>279.6</course>
<desc>Speed 4.4 km/h Distance 3.14 km</desc>
<time>2010-02-28T16:41:51.09</time>
<name>1950</name>
</trkpt>
<trkpt lat="48.978915" lon="8.662923">
<ele>346.5</ele>
<speed>4.2</speed>
<course>294.5</course>
<desc>Speed 4.2 km/h Distance 3.14 km</desc>
<time>2010-02-28T16:41:52.09</time>
<name>1951</name>
</trkpt>
<trkpt lat="48.978920" lon="8.662907">
<ele>347.0</ele>
<speed>4.8</speed>
<course>292.6</course>
<desc>Speed 4.8 km/h Distance 3.14 km</desc>
<time>2010-02-28T16:41:53.10</time>
<name>1952</name>
</trkpt>
<trkpt lat="48.978925" lon="8.662888">
<ele>347.0</ele>
<speed>4.9</speed>
<course>277.9</course>
<desc>Speed 4.9 km/h Distance 3.14 km</desc>
<time>2010-02-28T16:41:54.10</time>
<name>1953</name>
</trkpt>
<trkpt lat="48.978927" lon="8.662870">
<ele>347.0</ele>
<speed>4.9</speed>
<course>284.2</course>
<desc>Speed 4.9 km/h Distance 3.14 km</desc>
<time>2010-02-28T16:41:55.10</time>
<name>1954</name>
</trkpt>
<trkpt lat="48.978930" lon="8.662850">
<ele>347.5</ele>
<speed>5.2</speed>
<course>299.8</course>
<desc>Speed 5.2 km/h Distance 3.15 km</desc>
<time>2010-02-28T16:41:56.10</time>
<name>1955</name>
</trkpt>
<trkpt lat="48.978935" lon="8.662837">
<ele>347.5</ele>
<speed>3.9</speed>
<course>301.4</course>
<desc>Speed 3.9 km/h Distance 3.15 km</desc>
<time>2010-02-28T16:41:57.09</time>
<name>1956</name>
</trkpt>
<trkpt lat="48.978938" lon="8.662828">
<ele>347.0</ele>
<speed>2.3</speed>
<course>293.6</course>
<desc>Speed 2.3 km/h Distance 3.15 km</desc>
<time>2010-02-28T16:41:58.09</time>
<name>1957</name>
</trkpt>
<trkpt lat="48.978942" lon="8.662817">
<ele>347.5</ele>
<speed>3.6</speed>
<course>294.6</course>
<desc>Speed 3.6 km/h Distance 3.15 km</desc>
<time>2010-02-28T16:41:59.09</time>
<name>1958</name>
</trkpt>
<trkpt lat="48.978947" lon="8.662800">
<ele>347.5</ele>
<speed>4.5</speed>
<course>301.4</course>
<desc>Speed 4.5 km/h Distance 3.15 km</desc>
<time>2010-02-28T16:42:00.09</time>
<name>1959</name>
</trkpt>
<trkpt lat="48.978953" lon="8.662783">
<ele>347.5</ele>
<speed>5.1</speed>
<course>301.4</course>
<desc>Speed 5.1 km/h Distance 3.15 km</desc>
<time>2010-02-28T16:42:01.09</time>
<name>1960</name>
</trkpt>
<trkpt lat="48.978960" lon="8.662767">
<ele>347.5</ele>
<speed>5.0</speed>
<course>289.4</course>
<desc>Speed 5.0 km/h Distance 3.15 km</desc>
<time>2010-02-28T16:42:02.09</time>
<name>1961</name>
</trkpt>
<trkpt lat="48.978965" lon="8.662745">
<ele>347.5</ele>
<speed>5.8</speed>
<course>296.9</course>
<desc>Speed 5.8 km/h Distance 3.15 km</desc>
<time>2010-02-28T16:42:03.09</time>
<name>1962</name>
</trkpt>
<trkpt lat="48.978972" lon="8.662725">
<ele>347.5</ele>
<speed>5.7</speed>
<course>299.0</course>
<desc>Speed 5.7 km/h Distance 3.16 km</desc>
<time>2010-02-28T16:42:04.09</time>
<name>1963</name>
</trkpt>
<trkpt lat="48.978978" lon="8.662707">
<ele>347.5</ele>
<speed>5.4</speed>
<course>299.0</course>
<desc>Speed 5.4 km/h Distance 3.16 km</desc>
<time>2010-02-28T16:42:05.08</time>
<name>1964</name>
</trkpt>
<trkpt lat="48.978985" lon="8.662688">
<ele>347.5</ele>
<speed>5.5</speed>
<course>312.6</course>
<desc>Speed 5.5 km/h Distance 3.16 km</desc>
<time>2010-02-28T16:42:06.08</time>
<name>1965</name>
</trkpt>
<trkpt lat="48.978995" lon="8.662672">
<ele>347.5</ele>
<speed>5.8</speed>
<course>315.5</course>
<desc>Speed 5.8 km/h Distance 3.16 km</desc>
<time>2010-02-28T16:42:07.08</time>
<name>1966</name>
</trkpt>
<trkpt lat="48.979005" lon="8.662657">
<ele>348.0</ele>
<speed>5.4</speed>
<course>313.6</course>
<desc>Speed 5.4 km/h Distance 3.16 km</desc>
<time>2010-02-28T16:42:08.08</time>
<name>1967</name>
</trkpt>
<trkpt lat="48.979013" lon="8.662643">
<ele>348.0</ele>
<speed>4.9</speed>
<course>296.9</course>
<desc>Speed 4.9 km/h Distance 3.16 km</desc>
<time>2010-02-28T16:42:09.08</time>
<name>1968</name>
</trkpt>
<trkpt lat="48.979018" lon="8.662628">
<ele>348.0</ele>
<speed>4.1</speed>
<course>296.9</course>
<desc>Speed 4.1 km/h Distance 3.17 km</desc>
<time>2010-02-28T16:42:10.09</time>
<name>1969</name>
</trkpt>
<trkpt lat="48.979023" lon="8.662613">
<ele>348.0</ele>
<speed>4.8</speed>
<course>301.3</course>
<desc>Speed 4.8 km/h Distance 3.17 km</desc>
<time>2010-02-28T16:42:11.09</time>
<name>1970</name>
</trkpt>
<trkpt lat="48.979030" lon="8.662597">
<ele>348.5</ele>
<speed>5.1</speed>
<course>301.4</course>
<desc>Speed 5.1 km/h Distance 3.17 km</desc>
<time>2010-02-28T16:42:12.08</time>
<name>1971</name>
</trkpt>
<trkpt lat="48.979037" lon="8.662580">
<ele>348.5</ele>
<speed>5.0</speed>
<course>301.4</course>
<desc>Speed 5.0 km/h Distance 3.17 km</desc>
<time>2010-02-28T16:42:13.08</time>
<name>1972</name>
</trkpt>
<trkpt lat="48.979043" lon="8.662563">
<ele>348.5</ele>
<speed>5.1</speed>
<course>294.5</course>
<desc>Speed 5.1 km/h Distance 3.17 km</desc>
<time>2010-02-28T16:42:14.08</time>
<name>1973</name>
</trkpt>
<trkpt lat="48.979048" lon="8.662547">
<ele>348.5</ele>
<speed>4.9</speed>
<course>296.9</course>
<desc>Speed 4.9 km/h Distance 3.17 km</desc>
<time>2010-02-28T16:42:15.08</time>
<name>1974</name>
</trkpt>
<trkpt lat="48.979053" lon="8.662532">
<ele>348.5</ele>
<speed>4.4</speed>
<course>307.4</course>
<desc>Speed 4.4 km/h Distance 3.17 km</desc>
<time>2010-02-28T16:42:16.08</time>
<name>1975</name>
</trkpt>
<trkpt lat="48.979060" lon="8.662518">
<ele>348.5</ele>
<speed>4.4</speed>
<course>304.2</course>
<desc>Speed 4.4 km/h Distance 3.17 km</desc>
<time>2010-02-28T16:42:17.08</time>
<name>1976</name>
</trkpt>
<trkpt lat="48.979067" lon="8.662503">
<ele>348.5</ele>
<speed>4.6</speed>
<course>287.0</course>
<desc>Speed 4.6 km/h Distance 3.18 km</desc>
<time>2010-02-28T16:42:18.08</time>
<name>1977</name>
</trkpt>
<trkpt lat="48.979070" lon="8.662487">
<ele>348.5</ele>
<speed>4.6</speed>
<course>292.6</course>
<desc>Speed 4.6 km/h Distance 3.18 km</desc>
<time>2010-02-28T16:42:19.08</time>
<name>1978</name>
</trkpt>
<trkpt lat="48.979075" lon="8.662468">
<ele>348.5</ele>
<speed>5.2</speed>
<course>299.0</course>
<desc>Speed 5.2 km/h Distance 3.18 km</desc>
<time>2010-02-28T16:42:20.08</time>
<name>1979</name>
</trkpt>
<trkpt lat="48.979082" lon="8.662450">
<ele>348.5</ele>
<speed>5.4</speed>
<course>301.3</course>
<desc>Speed 5.4 km/h Distance 3.18 km</desc>
<time>2010-02-28T16:42:21.08</time>
<name>1980</name>
</trkpt>
<trkpt lat="48.979088" lon="8.662433">
<ele>348.5</ele>
<speed>5.0</speed>
<course>296.9</course>
<desc>Speed 5.0 km/h Distance 3.18 km</desc>
<time>2010-02-28T16:42:22.08</time>
<name>1981</name>
</trkpt>
<trkpt lat="48.979093" lon="8.662418">
<ele>348.0</ele>
<speed>4.6</speed>
<course>292.6</course>
<desc>Speed 4.6 km/h Distance 3.18 km</desc>
<time>2010-02-28T16:42:23.08</time>
<name>1982</name>
</trkpt>
<trkpt lat="48.979098" lon="8.662400">
<ele>348.0</ele>
<speed>5.4</speed>
<course>301.3</course>
<desc>Speed 5.4 km/h Distance 3.18 km</desc>
<time>2010-02-28T16:42:24.08</time>
<name>1983</name>
</trkpt>
<trkpt lat="48.979105" lon="8.662383">
<ele>348.0</ele>
<speed>4.9</speed>
<course>307.3</course>
<desc>Speed 4.9 km/h Distance 3.19 km</desc>
<time>2010-02-28T16:42:25.08</time>
<name>1984</name>
</trkpt>
<trkpt lat="48.979112" lon="8.662370">
<ele>348.0</ele>
<speed>4.5</speed>
<course>292.5</course>
<desc>Speed 4.5 km/h Distance 3.19 km</desc>
<time>2010-02-28T16:42:26.08</time>
<name>1985</name>
</trkpt>
<trkpt lat="48.979117" lon="8.662352">
<ele>347.5</ele>
<speed>4.8</speed>
<course>294.5</course>
<desc>Speed 4.8 km/h Distance 3.19 km</desc>
<time>2010-02-28T16:42:27.08</time>
<name>1986</name>
</trkpt>
<trkpt lat="48.979122" lon="8.662335">
<ele>347.5</ele>
<speed>4.8</speed>
<course>294.6</course>
<desc>Speed 4.8 km/h Distance 3.19 km</desc>
<time>2010-02-28T16:42:28.08</time>
<name>1987</name>
</trkpt>
<trkpt lat="48.979127" lon="8.662318">
<ele>347.5</ele>
<speed>4.9</speed>
<course>301.4</course>
<desc>Speed 4.9 km/h Distance 3.19 km</desc>
<time>2010-02-28T16:42:29.08</time>
<name>1988</name>
</trkpt>
<trkpt lat="48.979133" lon="8.662302">
<ele>347.5</ele>
<speed>5.1</speed>
<course>294.6</course>
<desc>Speed 5.1 km/h Distance 3.19 km</desc>
<time>2010-02-28T16:42:30.08</time>
<name>1989</name>
</trkpt>
<trkpt lat="48.979138" lon="8.662285">
<ele>348.0</ele>
<speed>4.4</speed>
<course>290.9</course>
<desc>Speed 4.4 km/h Distance 3.19 km</desc>
<time>2010-02-28T16:42:31.07</time>
<name>1990</name>
</trkpt>
<trkpt lat="48.979142" lon="8.662272">
<ele>348.0</ele>
<speed>3.7</speed>
<course>299.7</course>
<desc>Speed 3.7 km/h Distance 3.19 km</desc>
<time>2010-02-28T16:42:32.07</time>
<name>1991</name>
</trkpt>
<trkpt lat="48.979147" lon="8.662258">
<ele>348.0</ele>
<speed>4.0</speed>
<course>296.9</course>
<desc>Speed 4.0 km/h Distance 3.20 km</desc>
<time>2010-02-28T16:42:33.07</time>
<name>1992</name>
</trkpt>
<trkpt lat="48.979152" lon="8.662243">
<ele>348.0</ele>
<speed>4.4</speed>
<course>304.1</course>
<desc>Speed 4.4 km/h Distance 3.20 km</desc>
<time>2010-02-28T16:42:34.07</time>
<name>1993</name>
</trkpt>
<trkpt lat="48.979158" lon="8.662228">
<ele>348.0</ele>
<speed>4.5</speed>
<course>294.6</course>
<desc>Speed 4.5 km/h Distance 3.20 km</desc>
<time>2010-02-28T16:42:35.07</time>
<name>1994</name>
</trkpt>
<trkpt lat="48.979163" lon="8.662212">
<ele>348.0</ele>
<speed>4.5</speed>
<course>290.9</course>
<desc>Speed 4.5 km/h Distance 3.20 km</desc>
<time>2010-02-28T16:42:36.08</time>
<name>1995</name>
</trkpt>
<trkpt lat="48.979167" lon="8.662198">
<ele>348.0</ele>
<speed>3.9</speed>
<course>296.9</course>
<desc>Speed 3.9 km/h Distance 3.20 km</desc>
<time>2010-02-28T16:42:37.07</time>
<name>1996</name>
</trkpt>
<trkpt lat="48.979172" lon="8.662183">
<ele>348.0</ele>
<speed>4.0</speed>
<course>299.7</course>
<desc>Speed 4.0 km/h Distance 3.20 km</desc>
<time>2010-02-28T16:42:38.07</time>
<name>1997</name>
</trkpt>
<trkpt lat="48.979177" lon="8.662170">
<ele>348.5</ele>
<speed>4.2</speed>
<course>304.1</course>
<desc>Speed 4.2 km/h Distance 3.20 km</desc>
<time>2010-02-28T16:42:39.08</time>
<name>1998</name>
</trkpt>
<trkpt lat="48.979183" lon="8.662155">
<ele>348.5</ele>
<speed>4.6</speed>
<course>294.5</course>
<desc>Speed 4.6 km/h Distance 3.20 km</desc>
<time>2010-02-28T16:42:40.07</time>
<name>1999</name>
</trkpt>
<trkpt lat="48.979188" lon="8.662138">
<ele>348.5</ele>
<speed>4.6</speed>
<course>284.2</course>
<desc>Speed 4.6 km/h Distance 3.21 km</desc>
<time>2010-02-28T16:42:41.07</time>
<name>2000</name>
</trkpt>
<trkpt lat="48.979192" lon="8.662118">
<ele>349.0</ele>
<speed>5.3</speed>
<course>310.3</course>
<desc>Speed 5.3 km/h Distance 3.21 km</desc>
<time>2010-02-28T16:42:42.07</time>
<name>2001</name>
</trkpt>
<trkpt lat="48.979200" lon="8.662103">
<ele>349.0</ele>
<speed>5.0</speed>
<course>322.5</course>
<desc>Speed 5.0 km/h Distance 3.21 km</desc>
<time>2010-02-28T16:42:43.07</time>
<name>2002</name>
</trkpt>
<trkpt lat="48.979210" lon="8.662092">
<ele>349.0</ele>
<speed>5.0</speed>
<course>310.3</course>
<desc>Speed 5.0 km/h Distance 3.21 km</desc>
<time>2010-02-28T16:42:44.07</time>
<name>2003</name>
</trkpt>
<trkpt lat="48.979218" lon="8.662077">
<ele>349.0</ele>
<speed>5.0</speed>
<course>301.4</course>
<desc>Speed 5.0 km/h Distance 3.21 km</desc>
<time>2010-02-28T16:42:45.07</time>
<name>2004</name>
</trkpt>
<trkpt lat="48.979225" lon="8.662060">
<ele>348.5</ele>
<speed>4.8</speed>
<course>294.6</course>
<desc>Speed 4.8 km/h Distance 3.21 km</desc>
<time>2010-02-28T16:42:46.07</time>
<name>2005</name>
</trkpt>
<trkpt lat="48.979230" lon="8.662043">
<ele>349.0</ele>
<speed>4.9</speed>
<course>285.5</course>
<desc>Speed 4.9 km/h Distance 3.21 km</desc>
<time>2010-02-28T16:42:47.07</time>
<name>2006</name>
</trkpt>
<trkpt lat="48.979233" lon="8.662025">
<ele>349.0</ele>
<speed>5.0</speed>
<course>296.9</course>
<desc>Speed 5.0 km/h Distance 3.22 km</desc>
<time>2010-02-28T16:42:48.07</time>
<name>2007</name>
</trkpt>
<trkpt lat="48.979238" lon="8.662010">
<ele>349.0</ele>
<speed>4.1</speed>
<course>294.6</course>
<desc>Speed 4.1 km/h Distance 3.22 km</desc>
<time>2010-02-28T16:42:49.07</time>
<name>2008</name>
</trkpt>
<trkpt lat="48.979243" lon="8.661993">
<ele>349.0</ele>
<speed>5.2</speed>
<course>299.8</course>
<desc>Speed 5.2 km/h Distance 3.22 km</desc>
<time>2010-02-28T16:42:50.07</time>
<name>2009</name>
</trkpt>
<trkpt lat="48.979248" lon="8.661980">
<ele>349.0</ele>
<speed>4.0</speed>
<course>288.7</course>
<desc>Speed 4.0 km/h Distance 3.22 km</desc>
<time>2010-02-28T16:42:51.07</time>
<name>2010</name>
</trkpt>
<trkpt lat="48.979252" lon="8.661965">
<ele>349.0</ele>
<speed>3.9</speed>
<course>292.6</course>
<desc>Speed 3.9 km/h Distance 3.22 km</desc>
<time>2010-02-28T16:42:52.07</time>
<name>2011</name>
</trkpt>
<trkpt lat="48.979257" lon="8.661947">
<ele>349.0</ele>
<speed>4.9</speed>
<course>262.8</course>
<desc>Speed 4.9 km/h Distance 3.22 km</desc>
<time>2010-02-28T16:42:53.07</time>
<name>2012</name>
</trkpt>
<trkpt lat="48.979255" lon="8.661927">
<ele>349.0</ele>
<speed>5.1</speed>
<course>284.2</course>
<desc>Speed 5.1 km/h Distance 3.22 km</desc>
<time>2010-02-28T16:42:54.06</time>
<name>2013</name>
</trkpt>
<trkpt lat="48.979258" lon="8.661907">
<ele>349.0</ele>
<speed>5.1</speed>
<course>284.2</course>
<desc>Speed 5.1 km/h Distance 3.22 km</desc>
<time>2010-02-28T16:42:55.06</time>
<name>2014</name>
</trkpt>
<trkpt lat="48.979262" lon="8.661887">
<ele>349.0</ele>
<speed>5.2</speed>
<course>290.9</course>
<desc>Speed 5.2 km/h Distance 3.23 km</desc>
<time>2010-02-28T16:42:56.06</time>
<name>2015</name>
</trkpt>
<trkpt lat="48.979267" lon="8.661867">
<ele>349.0</ele>
<speed>5.1</speed>
<course>294.5</course>
<desc>Speed 5.1 km/h Distance 3.23 km</desc>
<time>2010-02-28T16:42:57.07</time>
<name>2016</name>
</trkpt>
<trkpt lat="48.979272" lon="8.661850">
<ele>349.0</ele>
<speed>4.9</speed>
<course>294.6</course>
<desc>Speed 4.9 km/h Distance 3.23 km</desc>
<time>2010-02-28T16:42:58.06</time>
<name>2017</name>
</trkpt>
<trkpt lat="48.979277" lon="8.661833">
<ele>349.0</ele>
<speed>4.5</speed>
<course>294.6</course>
<desc>Speed 4.5 km/h Distance 3.23 km</desc>
<time>2010-02-28T16:42:59.06</time>
<name>2018</name>
</trkpt>
<trkpt lat="48.979282" lon="8.661817">
<ele>349.0</ele>
<speed>4.4</speed>
<course>310.3</course>
<desc>Speed 4.4 km/h Distance 3.23 km</desc>
<time>2010-02-28T16:43:00.06</time>
<name>2019</name>
</trkpt>
<trkpt lat="48.979290" lon="8.661802">
<ele>348.5</ele>
<speed>4.9</speed>
<course>318.8</course>
<desc>Speed 4.9 km/h Distance 3.23 km</desc>
<time>2010-02-28T16:43:01.06</time>
<name>2020</name>
</trkpt>
<trkpt lat="48.979300" lon="8.661788">
<ele>348.5</ele>
<speed>5.2</speed>
<course>322.7</course>
<desc>Speed 5.2 km/h Distance 3.23 km</desc>
<time>2010-02-28T16:43:02.06</time>
<name>2021</name>
</trkpt>
<trkpt lat="48.979310" lon="8.661777">
<ele>348.5</ele>
<speed>5.0</speed>
<course>290.9</course>
<desc>Speed 5.0 km/h Distance 3.24 km</desc>
<time>2010-02-28T16:43:03.06</time>
<name>2022</name>
</trkpt>
<trkpt lat="48.979315" lon="8.661757">
<ele>348.0</ele>
<speed>5.4</speed>
<course>289.4</course>
<desc>Speed 5.4 km/h Distance 3.24 km</desc>
<time>2010-02-28T16:43:04.06</time>
<name>2023</name>
</trkpt>
<trkpt lat="48.979320" lon="8.661735">
<ele>348.5</ele>
<speed>5.9</speed>
<course>326.3</course>
<desc>Speed 5.9 km/h Distance 3.24 km</desc>
<time>2010-02-28T16:43:05.06</time>
<name>2024</name>
</trkpt>
<trkpt lat="48.979327" lon="8.661728">
<ele>348.0</ele>
<speed>2.8</speed>
<course>282.2</course>
<desc>Speed 2.8 km/h Distance 3.24 km</desc>
<time>2010-02-28T16:43:06.06</time>
<name>2025</name>
</trkpt>
<trkpt lat="48.979328" lon="8.661717">
<ele>347.5</ele>
<speed>3.2</speed>
<course>292.6</course>
<desc>Speed 3.2 km/h Distance 3.24 km</desc>
<time>2010-02-28T16:43:07.06</time>
<name>2026</name>
</trkpt>
<trkpt lat="48.979333" lon="8.661698">
<ele>347.5</ele>
<speed>4.9</speed>
<course>301.4</course>
<desc>Speed 4.9 km/h Distance 3.24 km</desc>
<time>2010-02-28T16:43:08.05</time>
<name>2027</name>
</trkpt>
<trkpt lat="48.979340" lon="8.661682">
<ele>347.5</ele>
<speed>5.1</speed>
<course>299.0</course>
<desc>Speed 5.1 km/h Distance 3.24 km</desc>
<time>2010-02-28T16:43:09.07</time>
<name>2028</name>
</trkpt>
<trkpt lat="48.979347" lon="8.661663">
<ele>348.0</ele>
<speed>5.1</speed>
<course>288.7</course>
<desc>Speed 5.1 km/h Distance 3.25 km</desc>
<time>2010-02-28T16:43:10.06</time>
<name>2029</name>
</trkpt>
<trkpt lat="48.979350" lon="8.661648">
<ele>348.0</ele>
<speed>4.3</speed>
<course>292.6</course>
<desc>Speed 4.3 km/h Distance 3.25 km</desc>
<time>2010-02-28T16:43:11.08</time>
<name>2030</name>
</trkpt>
<trkpt lat="48.979355" lon="8.661630">
<ele>348.0</ele>
<speed>4.4</speed>
<course>290.9</course>
<desc>Speed 4.4 km/h Distance 3.25 km</desc>
<time>2010-02-28T16:43:12.06</time>
<name>2031</name>
</trkpt>
<trkpt lat="48.979358" lon="8.661617">
<ele>348.0</ele>
<speed>3.8</speed>
<course>296.9</course>
<desc>Speed 3.8 km/h Distance 3.25 km</desc>
<time>2010-02-28T16:43:13.07</time>
<name>2032</name>
</trkpt>
<trkpt lat="48.979363" lon="8.661602">
<ele>348.5</ele>
<speed>4.2</speed>
<course>287.0</course>
<desc>Speed 4.2 km/h Distance 3.25 km</desc>
<time>2010-02-28T16:43:14.05</time>
<name>2033</name>
</trkpt>
<trkpt lat="48.979367" lon="8.661585">
<ele>348.5</ele>
<speed>4.5</speed>
<course>286.9</course>
<desc>Speed 4.5 km/h Distance 3.25 km</desc>
<time>2010-02-28T16:43:15.05</time>
<name>2034</name>
</trkpt>
<trkpt lat="48.979370" lon="8.661568">
<ele>348.5</ele>
<speed>4.4</speed>
<course>287.0</course>
<desc>Speed 4.4 km/h Distance 3.25 km</desc>
<time>2010-02-28T16:43:16.05</time>
<name>2035</name>
</trkpt>
<trkpt lat="48.979373" lon="8.661552">
<ele>348.5</ele>
<speed>4.2</speed>
<course>307.3</course>
<desc>Speed 4.2 km/h Distance 3.25 km</desc>
<time>2010-02-28T16:43:17.06</time>
<name>2036</name>
</trkpt>
<trkpt lat="48.979380" lon="8.661538">
<ele>348.5</ele>
<speed>4.4</speed>
<course>307.3</course>
<desc>Speed 4.4 km/h Distance 3.26 km</desc>
<time>2010-02-28T16:43:18.05</time>
<name>2037</name>
</trkpt>
<trkpt lat="48.979387" lon="8.661525">
<ele>348.5</ele>
<speed>4.4</speed>
<course>341.9</course>
<desc>Speed 4.4 km/h Distance 3.26 km</desc>
<time>2010-02-28T16:43:19.05</time>
<name>2038</name>
</trkpt>
<trkpt lat="48.979400" lon="8.661518">
<ele>349.0</ele>
<speed>5.2</speed>
<course>345.1</course>
<desc>Speed 5.2 km/h Distance 3.26 km</desc>
<time>2010-02-28T16:43:20.05</time>
<name>2039</name>
</trkpt>
<trkpt lat="48.979408" lon="8.661515">
<ele>349.5</ele>
<speed>4.0</speed>
<course>16.0</course>
<desc>Speed 4.0 km/h Distance 3.26 km</desc>
<time>2010-02-28T16:43:21.06</time>
<name>2040</name>
</trkpt>
<trkpt lat="48.979420" lon="8.661520">
<ele>350.0</ele>
<speed>5.4</speed>
<course>29.2</course>
<desc>Speed 5.4 km/h Distance 3.26 km</desc>
<time>2010-02-28T16:43:22.05</time>
<name>2041</name>
</trkpt>
<trkpt lat="48.979432" lon="8.661530">
<ele>350.0</ele>
<speed>5.7</speed>
<course>41.2</course>
<desc>Speed 5.7 km/h Distance 3.26 km</desc>
<time>2010-02-28T16:43:23.05</time>
<name>2042</name>
</trkpt>
<trkpt lat="48.979442" lon="8.661543">
<ele>350.5</ele>
<speed>5.4</speed>
<course>42.6</course>
<desc>Speed 5.4 km/h Distance 3.26 km</desc>
<time>2010-02-28T16:43:24.05</time>
<name>2043</name>
</trkpt>
<trkpt lat="48.979450" lon="8.661555">
<ele>350.5</ele>
<speed>4.8</speed>
<course>38.4</course>
<desc>Speed 4.8 km/h Distance 3.27 km</desc>
<time>2010-02-28T16:43:25.05</time>
<name>2044</name>
</trkpt>
<trkpt lat="48.979458" lon="8.661565">
<ele>350.5</ele>
<speed>4.8</speed>
<course>26.0</course>
<desc>Speed 4.8 km/h Distance 3.27 km</desc>
<time>2010-02-28T16:43:26.05</time>
<name>2045</name>
</trkpt>
<trkpt lat="48.979472" lon="8.661575">
<ele>351.0</ele>
<speed>5.7</speed>
<course>23.8</course>
<desc>Speed 5.7 km/h Distance 3.27 km</desc>
<time>2010-02-28T16:43:27.05</time>
<name>2046</name>
</trkpt>
<trkpt lat="48.979482" lon="8.661582">
<ele>350.5</ele>
<speed>4.8</speed>
<course>23.8</course>
<desc>Speed 4.8 km/h Distance 3.27 km</desc>
<time>2010-02-28T16:43:28.05</time>
<name>2047</name>
</trkpt>
<trkpt lat="48.979492" lon="8.661588">
<ele>350.5</ele>
<speed>4.7</speed>
<course>33.3</course>
<desc>Speed 4.7 km/h Distance 3.27 km</desc>
<time>2010-02-28T16:43:29.05</time>
<name>2048</name>
</trkpt>
<trkpt lat="48.979503" lon="8.661600">
<ele>351.0</ele>
<speed>5.3</speed>
<course>37.3</course>
<desc>Speed 5.3 km/h Distance 3.27 km</desc>
<time>2010-02-28T16:43:30.05</time>
<name>2049</name>
</trkpt>
<trkpt lat="48.979513" lon="8.661612">
<ele>351.0</ele>
<speed>5.2</speed>
<course>46.4</course>
<desc>Speed 5.2 km/h Distance 3.27 km</desc>
<time>2010-02-28T16:43:31.05</time>
<name>2050</name>
</trkpt>
<trkpt lat="48.979522" lon="8.661625">
<ele>351.0</ele>
<speed>4.9</speed>
<course>37.5</course>
<desc>Speed 4.9 km/h Distance 3.27 km</desc>
<time>2010-02-28T16:43:32.05</time>
<name>2051</name>
</trkpt>
<trkpt lat="48.979532" lon="8.661637">
<ele>351.5</ele>
<speed>4.8</speed>
<course>33.2</course>
<desc>Speed 4.8 km/h Distance 3.28 km</desc>
<time>2010-02-28T16:43:33.05</time>
<name>2052</name>
</trkpt>
<trkpt lat="48.979542" lon="8.661647">
<ele>351.0</ele>
<speed>4.9</speed>
<course>37.5</course>
<desc>Speed 4.9 km/h Distance 3.28 km</desc>
<time>2010-02-28T16:43:34.05</time>
<name>2053</name>
</trkpt>
<trkpt lat="48.979552" lon="8.661658">
<ele>351.5</ele>
<speed>5.0</speed>
<course>36.8</course>
<desc>Speed 5.0 km/h Distance 3.28 km</desc>
<time>2010-02-28T16:43:35.05</time>
<name>2054</name>
</trkpt>
<trkpt lat="48.979563" lon="8.661672">
<ele>351.5</ele>
<speed>5.1</speed>
<course>319.9</course>
<desc>Speed 5.1 km/h Distance 3.28 km</desc>
<time>2010-02-28T16:43:36.04</time>
<name>2055</name>
</trkpt>
<trkpt lat="48.979575" lon="8.661657">
<ele>351.0</ele>
<speed>6.0</speed>
<course>29.4</course>
<desc>Speed 6.0 km/h Distance 3.28 km</desc>
<time>2010-02-28T16:43:37.05</time>
<name>2056</name>
</trkpt>
<trkpt lat="48.979587" lon="8.661667">
<ele>350.5</ele>
<speed>4.8</speed>
<course>36.9</course>
<desc>Speed 4.8 km/h Distance 3.28 km</desc>
<time>2010-02-28T16:43:38.04</time>
<name>2057</name>
</trkpt>
<trkpt lat="48.979598" lon="8.661680">
<ele>350.5</ele>
<speed>5.2</speed>
<course>29.4</course>
<desc>Speed 5.2 km/h Distance 3.29 km</desc>
<time>2010-02-28T16:43:39.04</time>
<name>2058</name>
</trkpt>
<trkpt lat="48.979610" lon="8.661690">
<ele>350.5</ele>
<speed>4.9</speed>
<course>40.2</course>
<desc>Speed 4.9 km/h Distance 3.29 km</desc>
<time>2010-02-28T16:43:40.04</time>
<name>2059</name>
</trkpt>
<trkpt lat="48.979622" lon="8.661705">
<ele>350.5</ele>
<speed>5.1</speed>
<course>44.5</course>
<desc>Speed 5.1 km/h Distance 3.29 km</desc>
<time>2010-02-28T16:43:41.04</time>
<name>2060</name>
</trkpt>
<trkpt lat="48.979632" lon="8.661720">
<ele>350.0</ele>
<speed>5.1</speed>
<course>52.7</course>
<desc>Speed 5.1 km/h Distance 3.29 km</desc>
<time>2010-02-28T16:43:42.04</time>
<name>2061</name>
</trkpt>
<trkpt lat="48.979638" lon="8.661733">
<ele>349.5</ele>
<speed>4.6</speed>
<course>49.9</course>
<desc>Speed 4.6 km/h Distance 3.29 km</desc>
<time>2010-02-28T16:43:43.04</time>
<name>2062</name>
</trkpt>
<trkpt lat="48.979647" lon="8.661748">
<ele>349.5</ele>
<speed>4.5</speed>
<course>38.1</course>
<desc>Speed 4.5 km/h Distance 3.29 km</desc>
<time>2010-02-28T16:43:44.04</time>
<name>2063</name>
</trkpt>
<trkpt lat="48.979655" lon="8.661758">
<ele>349.5</ele>
<speed>4.1</speed>
<course>25.2</course>
<desc>Speed 4.1 km/h Distance 3.29 km</desc>
<time>2010-02-28T16:43:45.04</time>
<name>2064</name>
</trkpt>
<trkpt lat="48.979667" lon="8.661767">
<ele>349.5</ele>
<speed>4.9</speed>
<course>33.3</course>
<desc>Speed 4.9 km/h Distance 3.30 km</desc>
<time>2010-02-28T16:43:46.04</time>
<name>2065</name>
</trkpt>
<trkpt lat="48.979678" lon="8.661778">
<ele>350.0</ele>
<speed>4.9</speed>
<course>36.9</course>
<desc>Speed 4.9 km/h Distance 3.30 km</desc>
<time>2010-02-28T16:43:47.04</time>
<name>2066</name>
</trkpt>
<trkpt lat="48.979690" lon="8.661792">
<ele>350.0</ele>
<speed>5.4</speed>
<course>42.5</course>
<desc>Speed 5.4 km/h Distance 3.30 km</desc>
<time>2010-02-28T16:43:48.04</time>
<name>2067</name>
</trkpt>
<trkpt lat="48.979698" lon="8.661803">
<ele>350.5</ele>
<speed>4.9</speed>
<course>33.2</course>
<desc>Speed 4.9 km/h Distance 3.30 km</desc>
<time>2010-02-28T16:43:49.04</time>
<name>2068</name>
</trkpt>
<trkpt lat="48.979708" lon="8.661813">
<ele>350.0</ele>
<speed>4.6</speed>
<course>24.9</course>
<desc>Speed 4.6 km/h Distance 3.30 km</desc>
<time>2010-02-28T16:43:50.04</time>
<name>2069</name>
</trkpt>
<trkpt lat="48.979720" lon="8.661822">
<ele>350.5</ele>
<speed>4.4</speed>
<course>40.1</course>
<desc>Speed 4.4 km/h Distance 3.30 km</desc>
<time>2010-02-28T16:43:51.04</time>
<name>2070</name>
</trkpt>
<trkpt lat="48.979732" lon="8.661837">
<ele>351.0</ele>
<speed>4.8</speed>
<course>43.2</course>
<desc>Speed 4.8 km/h Distance 3.30 km</desc>
<time>2010-02-28T16:43:52.05</time>
<name>2071</name>
</trkpt>
<trkpt lat="48.979743" lon="8.661853">
<ele>351.0</ele>
<speed>5.4</speed>
<course>41.2</course>
<desc>Speed 5.4 km/h Distance 3.31 km</desc>
<time>2010-02-28T16:43:53.04</time>
<name>2072</name>
</trkpt>
<trkpt lat="48.979753" lon="8.661867">
<ele>351.5</ele>
<speed>4.8</speed>
<course>33.3</course>
<desc>Speed 4.8 km/h Distance 3.31 km</desc>
<time>2010-02-28T16:43:54.03</time>
<name>2073</name>
</trkpt>
<trkpt lat="48.979765" lon="8.661878">
<ele>352.0</ele>
<speed>4.6</speed>
<course>18.1</course>
<desc>Speed 4.6 km/h Distance 3.31 km</desc>
<time>2010-02-28T16:43:55.04</time>
<name>2074</name>
</trkpt>
<trkpt lat="48.979778" lon="8.661885">
<ele>352.5</ele>
<speed>5.1</speed>
<course>25.2</course>
<desc>Speed 5.1 km/h Distance 3.31 km</desc>
<time>2010-02-28T16:43:56.03</time>
<name>2075</name>
</trkpt>
<trkpt lat="48.979790" lon="8.661893">
<ele>352.5</ele>
<speed>4.9</speed>
<course>26.2</course>
<desc>Speed 4.9 km/h Distance 3.31 km</desc>
<time>2010-02-28T16:43:57.03</time>
<name>2076</name>
</trkpt>
<trkpt lat="48.979803" lon="8.661903">
<ele>353.0</ele>
<speed>5.0</speed>
<course>37.5</course>
<desc>Speed 5.0 km/h Distance 3.31 km</desc>
<time>2010-02-28T16:43:58.03</time>
<name>2077</name>
</trkpt>
<trkpt lat="48.979813" lon="8.661915">
<ele>353.0</ele>
<speed>4.8</speed>
<course>29.2</course>
<desc>Speed 4.8 km/h Distance 3.31 km</desc>
<time>2010-02-28T16:43:59.03</time>
<name>2078</name>
</trkpt>
<trkpt lat="48.979825" lon="8.661925">
<ele>353.0</ele>
<speed>4.8</speed>
<course>42.6</course>
<desc>Speed 4.8 km/h Distance 3.32 km</desc>
<time>2010-02-28T16:44:00.03</time>
<name>2079</name>
</trkpt>
<trkpt lat="48.979833" lon="8.661937">
<ele>353.5</ele>
<speed>4.6</speed>
<course>41.2</course>
<desc>Speed 4.6 km/h Distance 3.32 km</desc>
<time>2010-02-28T16:44:01.03</time>
<name>2080</name>
</trkpt>
<trkpt lat="48.979843" lon="8.661950">
<ele>353.5</ele>
<speed>4.9</speed>
<course>46.4</course>
<desc>Speed 4.9 km/h Distance 3.32 km</desc>
<time>2010-02-28T16:44:02.03</time>
<name>2081</name>
</trkpt>
<trkpt lat="48.979852" lon="8.661963">
<ele>353.5</ele>
<speed>4.7</speed>
<course>46.5</course>
<desc>Speed 4.7 km/h Distance 3.32 km</desc>
<time>2010-02-28T16:44:03.03</time>
<name>2082</name>
</trkpt>
<trkpt lat="48.979860" lon="8.661977">
<ele>354.0</ele>
<speed>4.6</speed>
<course>33.2</course>
<desc>Speed 4.6 km/h Distance 3.32 km</desc>
<time>2010-02-28T16:44:04.03</time>
<name>2083</name>
</trkpt>
<trkpt lat="48.979870" lon="8.661987">
<ele>354.0</ele>
<speed>5.0</speed>
<course>29.4</course>
<desc>Speed 5.0 km/h Distance 3.32 km</desc>
<time>2010-02-28T16:44:05.03</time>
<name>2084</name>
</trkpt>
<trkpt lat="48.979882" lon="8.661997">
<ele>354.0</ele>
<speed>5.2</speed>
<course>33.3</course>
<desc>Speed 5.2 km/h Distance 3.32 km</desc>
<time>2010-02-28T16:44:06.03</time>
<name>2085</name>
</trkpt>
<trkpt lat="48.979893" lon="8.662008">
<ele>354.5</ele>
<speed>5.0</speed>
<course>42.3</course>
<desc>Speed 5.0 km/h Distance 3.33 km</desc>
<time>2010-02-28T16:44:07.03</time>
<name>2086</name>
</trkpt>
<trkpt lat="48.979902" lon="8.662020">
<ele>354.5</ele>
<speed>4.8</speed>
<course>36.6</course>
<desc>Speed 4.8 km/h Distance 3.33 km</desc>
<time>2010-02-28T16:44:08.03</time>
<name>2087</name>
</trkpt>
<trkpt lat="48.979913" lon="8.662033">
<ele>354.5</ele>
<speed>5.3</speed>
<course>37.3</course>
<desc>Speed 5.3 km/h Distance 3.33 km</desc>
<time>2010-02-28T16:44:09.03</time>
<name>2088</name>
</trkpt>
<trkpt lat="48.979923" lon="8.662045">
<ele>354.5</ele>
<speed>5.0</speed>
<course>42.6</course>
<desc>Speed 5.0 km/h Distance 3.33 km</desc>
<time>2010-02-28T16:44:10.03</time>
<name>2089</name>
</trkpt>
<trkpt lat="48.979932" lon="8.662057">
<ele>355.0</ele>
<speed>4.7</speed>
<course>41.3</course>
<desc>Speed 4.7 km/h Distance 3.33 km</desc>
<time>2010-02-28T16:44:11.04</time>
<name>2090</name>
</trkpt>
<trkpt lat="48.979942" lon="8.662070">
<ele>355.0</ele>
<speed>5.0</speed>
<course>46.4</course>
<desc>Speed 5.0 km/h Distance 3.33 km</desc>
<time>2010-02-28T16:44:12.03</time>
<name>2091</name>
</trkpt>
<trkpt lat="48.979950" lon="8.662083">
<ele>355.0</ele>
<speed>5.0</speed>
<course>37.5</course>
<desc>Speed 5.0 km/h Distance 3.33 km</desc>
<time>2010-02-28T16:44:13.03</time>
<name>2092</name>
</trkpt>
<trkpt lat="48.979960" lon="8.662095">
<ele>355.5</ele>
<speed>4.6</speed>
<course>37.3</course>
<desc>Speed 4.6 km/h Distance 3.34 km</desc>
<time>2010-02-28T16:44:14.03</time>
<name>2093</name>
</trkpt>
<trkpt lat="48.979970" lon="8.662107">
<ele>355.5</ele>
<speed>4.7</speed>
<course>33.2</course>
<desc>Speed 4.7 km/h Distance 3.34 km</desc>
<time>2010-02-28T16:44:15.03</time>
<name>2094</name>
</trkpt>
<trkpt lat="48.979980" lon="8.662117">
<ele>356.0</ele>
<speed>4.9</speed>
<course>37.5</course>
<desc>Speed 4.9 km/h Distance 3.34 km</desc>
<time>2010-02-28T16:44:16.02</time>
<name>2095</name>
</trkpt>
<trkpt lat="48.979990" lon="8.662128">
<ele>356.0</ele>
<speed>4.9</speed>
<course>41.3</course>
<desc>Speed 4.9 km/h Distance 3.34 km</desc>
<time>2010-02-28T16:44:17.03</time>
<name>2096</name>
</trkpt>
<trkpt lat="48.980000" lon="8.662142">
<ele>356.5</ele>
<speed>5.0</speed>
<course>41.2</course>
<desc>Speed 5.0 km/h Distance 3.34 km</desc>
<time>2010-02-28T16:44:18.03</time>
<name>2097</name>
</trkpt>
<trkpt lat="48.980010" lon="8.662155">
<ele>356.5</ele>
<speed>4.9</speed>
<course>33.3</course>
<desc>Speed 4.9 km/h Distance 3.34 km</desc>
<time>2010-02-28T16:44:19.03</time>
<name>2098</name>
</trkpt>
<trkpt lat="48.980022" lon="8.662167">
<ele>357.0</ele>
<speed>5.5</speed>
<course>40.2</course>
<desc>Speed 5.5 km/h Distance 3.34 km</desc>
<time>2010-02-28T16:44:20.02</time>
<name>2099</name>
</trkpt>
<trkpt lat="48.980033" lon="8.662182">
<ele>357.0</ele>
<speed>5.5</speed>
<course>41.2</course>
<desc>Speed 5.5 km/h Distance 3.35 km</desc>
<time>2010-02-28T16:44:21.02</time>
<name>2100</name>
</trkpt>
<trkpt lat="48.980043" lon="8.662195">
<ele>357.0</ele>
<speed>5.0</speed>
<course>36.8</course>
<desc>Speed 5.0 km/h Distance 3.35 km</desc>
<time>2010-02-28T16:44:22.02</time>
<name>2101</name>
</trkpt>
<trkpt lat="48.980055" lon="8.662208">
<ele>357.0</ele>
<speed>5.3</speed>
<course>44.5</course>
<desc>Speed 5.3 km/h Distance 3.35 km</desc>
<time>2010-02-28T16:44:23.02</time>
<name>2102</name>
</trkpt>
<trkpt lat="48.980065" lon="8.662223">
<ele>357.5</ele>
<speed>5.1</speed>
<course>41.2</course>
<desc>Speed 5.1 km/h Distance 3.35 km</desc>
<time>2010-02-28T16:44:24.02</time>
<name>2103</name>
</trkpt>
<trkpt lat="48.980075" lon="8.662237">
<ele>357.5</ele>
<speed>4.9</speed>
<course>37.3</course>
<desc>Speed 4.9 km/h Distance 3.35 km</desc>
<time>2010-02-28T16:44:25.02</time>
<name>2104</name>
</trkpt>
<trkpt lat="48.980085" lon="8.662248">
<ele>358.0</ele>
<speed>5.0</speed>
<course>29.4</course>
<desc>Speed 5.0 km/h Distance 3.35 km</desc>
<time>2010-02-28T16:44:26.02</time>
<name>2105</name>
</trkpt>
<trkpt lat="48.980097" lon="8.662258">
<ele>358.0</ele>
<speed>5.4</speed>
<course>29.4</course>
<desc>Speed 5.4 km/h Distance 3.36 km</desc>
<time>2010-02-28T16:44:27.02</time>
<name>2106</name>
</trkpt>
<trkpt lat="48.980108" lon="8.662268">
<ele>358.0</ele>
<speed>4.8</speed>
<course>25.2</course>
<desc>Speed 4.8 km/h Distance 3.36 km</desc>
<time>2010-02-28T16:44:28.02</time>
<name>2107</name>
</trkpt>
<trkpt lat="48.980120" lon="8.662277">
<ele>358.5</ele>
<speed>4.8</speed>
<course>33.2</course>
<desc>Speed 4.8 km/h Distance 3.36 km</desc>
<time>2010-02-28T16:44:29.02</time>
<name>2108</name>
</trkpt>
<trkpt lat="48.980130" lon="8.662287">
<ele>359.0</ele>
<speed>4.9</speed>
<course>38.1</course>
<desc>Speed 4.9 km/h Distance 3.36 km</desc>
<time>2010-02-28T16:44:30.02</time>
<name>2109</name>
</trkpt>
<trkpt lat="48.980138" lon="8.662297">
<ele>359.0</ele>
<speed>3.7</speed>
<course>58.6</course>
<desc>Speed 3.7 km/h Distance 3.36 km</desc>
<time>2010-02-28T16:44:31.02</time>
<name>2110</name>
</trkpt>
<trkpt lat="48.980142" lon="8.662305">
<ele>359.0</ele>
<speed>2.8</speed>
<course>167.4</course>
<desc>Speed 2.8 km/h Distance 3.36 km</desc>
<time>2010-02-28T16:44:32.02</time>
<name>2111</name>
</trkpt>
<trkpt lat="48.980138" lon="8.662307">
<ele>358.5</ele>
<speed>1.5</speed>
<course>260.4</course>
<desc>Speed 1.5 km/h Distance 3.36 km</desc>
<time>2010-02-28T16:44:33.02</time>
<name>2112</name>
</trkpt>
<trkpt lat="48.980137" lon="8.662292">
<ele>359.0</ele>
<speed>4.1</speed>
<course>249.1</course>
<desc>Speed 4.1 km/h Distance 3.36 km</desc>
<time>2010-02-28T16:44:34.02</time>
<name>2113</name>
</trkpt>
<trkpt lat="48.980135" lon="8.662285">
<ele>359.0</ele>
<speed>2.1</speed>
<course>44.5</course>
<desc>Speed 2.1 km/h Distance 3.36 km</desc>
<time>2010-02-28T16:44:35.03</time>
<name>2114</name>
</trkpt>
<trkpt lat="48.980142" lon="8.662295">
<ele>358.5</ele>
<speed>3.3</speed>
<course>48.7</course>
<desc>Speed 3.3 km/h Distance 3.36 km</desc>
<time>2010-02-28T16:44:36.02</time>
<name>2115</name>
</trkpt>
<trkpt lat="48.980148" lon="8.662307">
<ele>358.5</ele>
<speed>3.9</speed>
<course>33.2</course>
<desc>Speed 3.9 km/h Distance 3.37 km</desc>
<time>2010-02-28T16:44:37.02</time>
<name>2116</name>
</trkpt>
<trkpt lat="48.980157" lon="8.662315">
<ele>358.5</ele>
<speed>3.8</speed>
<course>23.8</course>
<desc>Speed 3.8 km/h Distance 3.37 km</desc>
<time>2010-02-28T16:44:38.02</time>
<name>2117</name>
</trkpt>
<trkpt lat="48.980167" lon="8.662322">
<ele>358.0</ele>
<speed>3.9</speed>
<course>52.6</course>
<desc>Speed 3.9 km/h Distance 3.37 km</desc>
<time>2010-02-28T16:44:39.01</time>
<name>2118</name>
</trkpt>
<trkpt lat="48.980173" lon="8.662335">
<ele>358.0</ele>
<speed>4.4</speed>
<course>37.3</course>
<desc>Speed 4.4 km/h Distance 3.37 km</desc>
<time>2010-02-28T16:44:40.01</time>
<name>2119</name>
</trkpt>
<trkpt lat="48.980183" lon="8.662347">
<ele>358.0</ele>
<speed>4.7</speed>
<course>46.4</course>
<desc>Speed 4.7 km/h Distance 3.37 km</desc>
<time>2010-02-28T16:44:41.01</time>
<name>2120</name>
</trkpt>
<trkpt lat="48.980192" lon="8.662360">
<ele>358.0</ele>
<speed>4.9</speed>
<course>33.4</course>
<desc>Speed 4.9 km/h Distance 3.37 km</desc>
<time>2010-02-28T16:44:42.01</time>
<name>2121</name>
</trkpt>
<trkpt lat="48.980203" lon="8.662372">
<ele>358.0</ele>
<speed>5.0</speed>
<course>25.2</course>
<desc>Speed 5.0 km/h Distance 3.37 km</desc>
<time>2010-02-28T16:44:43.01</time>
<name>2122</name>
</trkpt>
<trkpt lat="48.980215" lon="8.662380">
<ele>358.0</ele>
<speed>5.5</speed>
<course>26.2</course>
<desc>Speed 5.5 km/h Distance 3.38 km</desc>
<time>2010-02-28T16:44:44.01</time>
<name>2123</name>
</trkpt>
<trkpt lat="48.980228" lon="8.662390">
<ele>358.0</ele>
<speed>6.1</speed>
<course>37.5</course>
<desc>Speed 6.1 km/h Distance 3.38 km</desc>
<time>2010-02-28T16:44:45.01</time>
<name>2124</name>
</trkpt>
<trkpt lat="48.980238" lon="8.662402">
<ele>358.0</ele>
<speed>5.1</speed>
<course>41.2</course>
<desc>Speed 5.1 km/h Distance 3.38 km</desc>
<time>2010-02-28T16:44:46.01</time>
<name>2125</name>
</trkpt>
<trkpt lat="48.980248" lon="8.662415">
<ele>358.0</ele>
<speed>5.1</speed>
<course>37.5</course>
<desc>Speed 5.1 km/h Distance 3.38 km</desc>
<time>2010-02-28T16:44:47.01</time>
<name>2126</name>
</trkpt>
<trkpt lat="48.980258" lon="8.662427">
<ele>358.5</ele>
<speed>4.9</speed>
<course>46.4</course>
<desc>Speed 4.9 km/h Distance 3.38 km</desc>
<time>2010-02-28T16:44:48.01</time>
<name>2127</name>
</trkpt>
<trkpt lat="48.980267" lon="8.662440">
<ele>358.0</ele>
<speed>4.9</speed>
<course>41.2</course>
<desc>Speed 4.9 km/h Distance 3.38 km</desc>
<time>2010-02-28T16:44:49.01</time>
<name>2128</name>
</trkpt>
<trkpt lat="48.980277" lon="8.662453">
<ele>358.5</ele>
<speed>4.9</speed>
<course>33.2</course>
<desc>Speed 4.9 km/h Distance 3.38 km</desc>
<time>2010-02-28T16:44:50.01</time>
<name>2129</name>
</trkpt>
<trkpt lat="48.980287" lon="8.662463">
<ele>358.5</ele>
<speed>5.4</speed>
<course>33.3</course>
<desc>Speed 5.4 km/h Distance 3.39 km</desc>
<time>2010-02-28T16:44:51.01</time>
<name>2130</name>
</trkpt>
<trkpt lat="48.980298" lon="8.662475">
<ele>358.5</ele>
<speed>5.2</speed>
<course>37.5</course>
<desc>Speed 5.2 km/h Distance 3.39 km</desc>
<time>2010-02-28T16:44:52.01</time>
<name>2131</name>
</trkpt>
<trkpt lat="48.980308" lon="8.662487">
<ele>359.0</ele>
<speed>5.1</speed>
<course>37.3</course>
<desc>Speed 5.1 km/h Distance 3.39 km</desc>
<time>2010-02-28T16:44:53.01</time>
<name>2132</name>
</trkpt>
<trkpt lat="48.980318" lon="8.662498">
<ele>359.0</ele>
<speed>5.1</speed>
<course>33.2</course>
<desc>Speed 5.1 km/h Distance 3.39 km</desc>
<time>2010-02-28T16:44:54.01</time>
<name>2133</name>
</trkpt>
<trkpt lat="48.980328" lon="8.662508">
<ele>359.5</ele>
<speed>5.3</speed>
<course>33.1</course>
<desc>Speed 5.3 km/h Distance 3.39 km</desc>
<time>2010-02-28T16:44:55.01</time>
<name>2134</name>
</trkpt>
<trkpt lat="48.980340" lon="8.662520">
<ele>359.5</ele>
<speed>5.1</speed>
<course>37.5</course>
<desc>Speed 5.1 km/h Distance 3.39 km</desc>
<time>2010-02-28T16:44:56.01</time>
<name>2135</name>
</trkpt>
<trkpt lat="48.980350" lon="8.662532">
<ele>359.5</ele>
<speed>5.2</speed>
<course>22.3</course>
<desc>Speed 5.2 km/h Distance 3.39 km</desc>
<time>2010-02-28T16:44:57.01</time>
<name>2136</name>
</trkpt>
<trkpt lat="48.980363" lon="8.662540">
<ele>360.0</ele>
<speed>5.4</speed>
<course>22.3</course>
<desc>Speed 5.4 km/h Distance 3.40 km</desc>
<time>2010-02-28T16:44:58.01</time>
<name>2137</name>
</trkpt>
<trkpt lat="48.980377" lon="8.662548">
<ele>360.0</ele>
<speed>5.5</speed>
<course>33.3</course>
<desc>Speed 5.5 km/h Distance 3.40 km</desc>
<time>2010-02-28T16:44:59.01</time>
<name>2138</name>
</trkpt>
<trkpt lat="48.980388" lon="8.662560">
<ele>360.0</ele>
<speed>5.7</speed>
<course>41.2</course>
<desc>Speed 5.7 km/h Distance 3.40 km</desc>
<time>2010-02-28T16:45:00.01</time>
<name>2139</name>
</trkpt>
<trkpt lat="48.980398" lon="8.662573">
<ele>360.0</ele>
<speed>5.5</speed>
<course>44.5</course>
<desc>Speed 5.5 km/h Distance 3.40 km</desc>
<time>2010-02-28T16:45:01.01</time>
<name>2140</name>
</trkpt>
<trkpt lat="48.980408" lon="8.662588">
<ele>360.5</ele>
<speed>5.3</speed>
<course>29.4</course>
<desc>Speed 5.3 km/h Distance 3.40 km</desc>
<time>2010-02-28T16:45:02.01</time>
<name>2141</name>
</trkpt>
<trkpt lat="48.980420" lon="8.662598">
<ele>360.5</ele>
<speed>5.5</speed>
<course>41.3</course>
<desc>Speed 5.5 km/h Distance 3.40 km</desc>
<time>2010-02-28T16:45:03.01</time>
<name>2142</name>
</trkpt>
<trkpt lat="48.980430" lon="8.662612">
<ele>360.5</ele>
<speed>5.3</speed>
<course>33.4</course>
<desc>Speed 5.3 km/h Distance 3.40 km</desc>
<time>2010-02-28T16:45:04.00</time>
<name>2143</name>
</trkpt>
<trkpt lat="48.980440" lon="8.662622">
<ele>360.5</ele>
<speed>4.9</speed>
<course>37.5</course>
<desc>Speed 4.9 km/h Distance 3.41 km</desc>
<time>2010-02-28T16:45:05.01</time>
<name>2144</name>
</trkpt>
<trkpt lat="48.980450" lon="8.662633">
<ele>360.5</ele>
<speed>5.1</speed>
<course>37.5</course>
<desc>Speed 5.1 km/h Distance 3.41 km</desc>
<time>2010-02-28T16:45:06.00</time>
<name>2145</name>
</trkpt>
<trkpt lat="48.980460" lon="8.662645">
<ele>360.5</ele>
<speed>5.1</speed>
<course>44.5</course>
<desc>Speed 5.1 km/h Distance 3.41 km</desc>
<time>2010-02-28T16:45:07.00</time>
<name>2146</name>
</trkpt>
<trkpt lat="48.980470" lon="8.662660">
<ele>360.5</ele>
<speed>5.5</speed>
<course>44.5</course>
<desc>Speed 5.5 km/h Distance 3.41 km</desc>
<time>2010-02-28T16:45:08.00</time>
<name>2147</name>
</trkpt>
<trkpt lat="48.980480" lon="8.662675">
<ele>360.5</ele>
<speed>5.6</speed>
<course>33.1</course>
<desc>Speed 5.6 km/h Distance 3.41 km</desc>
<time>2010-02-28T16:45:09.01</time>
<name>2148</name>
</trkpt>
<trkpt lat="48.980492" lon="8.662687">
<ele>360.5</ele>
<speed>5.2</speed>
<course>37.3</course>
<desc>Speed 5.2 km/h Distance 3.41 km</desc>
<time>2010-02-28T16:45:10.00</time>
<name>2149</name>
</trkpt>
<trkpt lat="48.980502" lon="8.662698">
<ele>360.5</ele>
<speed>5.3</speed>
<course>25.2</course>
<desc>Speed 5.3 km/h Distance 3.41 km</desc>
<time>2010-02-28T16:45:11.02</time>
<name>2150</name>
</trkpt>
<trkpt lat="48.980513" lon="8.662707">
<ele>361.0</ele>
<speed>5.1</speed>
<course>36.9</course>
<desc>Speed 5.1 km/h Distance 3.42 km</desc>
<time>2010-02-28T16:45:12.00</time>
<name>2151</name>
</trkpt>
<trkpt lat="48.980525" lon="8.662720">
<ele>361.0</ele>
<speed>5.5</speed>
<course>37.5</course>
<desc>Speed 5.5 km/h Distance 3.42 km</desc>
<time>2010-02-28T16:45:13.00</time>
<name>2152</name>
</trkpt>
<trkpt lat="48.980535" lon="8.662732">
<ele>361.0</ele>
<speed>5.2</speed>
<course>33.4</course>
<desc>Speed 5.2 km/h Distance 3.42 km</desc>
<time>2010-02-28T16:45:14.00</time>
<name>2153</name>
</trkpt>
<trkpt lat="48.980547" lon="8.662743">
<ele>361.0</ele>
<speed>5.2</speed>
<course>29.4</course>
<desc>Speed 5.2 km/h Distance 3.42 km</desc>
<time>2010-02-28T16:45:15.00</time>
<name>2154</name>
</trkpt>
<trkpt lat="48.980558" lon="8.662753">
<ele>361.0</ele>
<speed>5.1</speed>
<course>37.5</course>
<desc>Speed 5.1 km/h Distance 3.42 km</desc>
<time>2010-02-28T16:45:16.00</time>
<name>2155</name>
</trkpt>
<trkpt lat="48.980568" lon="8.662765">
<ele>361.0</ele>
<speed>5.0</speed>
<course>42.6</course>
<desc>Speed 5.0 km/h Distance 3.42 km</desc>
<time>2010-02-28T16:45:17.00</time>
<name>2156</name>
</trkpt>
<trkpt lat="48.980577" lon="8.662777">
<ele>361.5</ele>
<speed>4.9</speed>
<course>41.3</course>
<desc>Speed 4.9 km/h Distance 3.42 km</desc>
<time>2010-02-28T16:45:18.00</time>
<name>2157</name>
</trkpt>
<trkpt lat="48.980587" lon="8.662790">
<ele>361.5</ele>
<speed>5.0</speed>
<course>37.5</course>
<desc>Speed 5.0 km/h Distance 3.43 km</desc>
<time>2010-02-28T16:45:19.00</time>
<name>2158</name>
</trkpt>
<trkpt lat="48.980597" lon="8.662802">
<ele>361.5</ele>
<speed>5.0</speed>
<course>41.2</course>
<desc>Speed 5.0 km/h Distance 3.43 km</desc>
<time>2010-02-28T16:45:20.00</time>
<name>2159</name>
</trkpt>
<trkpt lat="48.980607" lon="8.662815">
<ele>361.5</ele>
<speed>5.3</speed>
<course>33.4</course>
<desc>Speed 5.3 km/h Distance 3.43 km</desc>
<time>2010-02-28T16:45:21.00</time>
<name>2160</name>
</trkpt>
<trkpt lat="48.980620" lon="8.662828">
<ele>361.5</ele>
<speed>5.7</speed>
<course>41.2</course>
<desc>Speed 5.7 km/h Distance 3.43 km</desc>
<time>2010-02-28T16:45:22.00</time>
<name>2161</name>
</trkpt>
<trkpt lat="48.980630" lon="8.662842">
<ele>361.5</ele>
<speed>5.6</speed>
<course>36.9</course>
<desc>Speed 5.6 km/h Distance 3.43 km</desc>
<time>2010-02-28T16:45:23.00</time>
<name>2162</name>
</trkpt>
<trkpt lat="48.980642" lon="8.662855">
<ele>361.5</ele>
<speed>5.5</speed>
<course>41.2</course>
<desc>Speed 5.5 km/h Distance 3.43 km</desc>
<time>2010-02-28T16:45:24.00</time>
<name>2163</name>
</trkpt>
<trkpt lat="48.980652" lon="8.662868">
<ele>362.0</ele>
<speed>5.4</speed>
<course>33.3</course>
<desc>Speed 5.4 km/h Distance 3.44 km</desc>
<time>2010-02-28T16:45:25.00</time>
<name>2164</name>
</trkpt>
<trkpt lat="48.980663" lon="8.662880">
<ele>362.0</ele>
<speed>5.7</speed>
<course>33.4</course>
<desc>Speed 5.7 km/h Distance 3.44 km</desc>
<time>2010-02-28T16:45:26.00</time>
<name>2165</name>
</trkpt>
<trkpt lat="48.980675" lon="8.662892">
<ele>362.0</ele>
<speed>5.5</speed>
<course>37.5</course>
<desc>Speed 5.5 km/h Distance 3.44 km</desc>
<time>2010-02-28T16:45:27.00</time>
<name>2166</name>
</trkpt>
<trkpt lat="48.980685" lon="8.662903">
<ele>362.0</ele>
<speed>5.2</speed>
<course>33.3</course>
<desc>Speed 5.2 km/h Distance 3.44 km</desc>
<time>2010-02-28T16:45:28.00</time>
<name>2167</name>
</trkpt>
<trkpt lat="48.980697" lon="8.662915">
<ele>362.5</ele>
<speed>5.3</speed>
<course>33.1</course>
<desc>Speed 5.3 km/h Distance 3.44 km</desc>
<time>2010-02-28T16:45:29.00</time>
<name>2168</name>
</trkpt>
<trkpt lat="48.980708" lon="8.662927">
<ele>362.5</ele>
<speed>5.4</speed>
<course>41.2</course>
<desc>Speed 5.4 km/h Distance 3.44 km</desc>
<time>2010-02-28T16:45:29.99</time>
<name>2169</name>
</trkpt>
<trkpt lat="48.980718" lon="8.662940">
<ele>363.0</ele>
<speed>5.4</speed>
<course>41.2</course>
<desc>Speed 5.4 km/h Distance 3.44 km</desc>
<time>2010-02-28T16:45:31.00</time>
<name>2170</name>
</trkpt>
<trkpt lat="48.980728" lon="8.662953">
<ele>363.0</ele>
<speed>5.3</speed>
<course>41.2</course>
<desc>Speed 5.3 km/h Distance 3.45 km</desc>
<time>2010-02-28T16:45:32.00</time>
<name>2171</name>
</trkpt>
<trkpt lat="48.980738" lon="8.662967">
<ele>363.0</ele>
<speed>5.4</speed>
<course>41.2</course>
<desc>Speed 5.4 km/h Distance 3.45 km</desc>
<time>2010-02-28T16:45:32.99</time>
<name>2172</name>
</trkpt>
<trkpt lat="48.980748" lon="8.662980">
<ele>363.0</ele>
<speed>5.3</speed>
<course>29.4</course>
<desc>Speed 5.3 km/h Distance 3.45 km</desc>
<time>2010-02-28T16:45:33.99</time>
<name>2173</name>
</trkpt>
<trkpt lat="48.980760" lon="8.662990">
<ele>363.0</ele>
<speed>4.8</speed>
<course>33.3</course>
<desc>Speed 4.8 km/h Distance 3.45 km</desc>
<time>2010-02-28T16:45:34.99</time>
<name>2174</name>
</trkpt>
<trkpt lat="48.980772" lon="8.663002">
<ele>363.0</ele>
<speed>5.4</speed>
<course>37.5</course>
<desc>Speed 5.4 km/h Distance 3.45 km</desc>
<time>2010-02-28T16:45:35.99</time>
<name>2175</name>
</trkpt>
<trkpt lat="48.980782" lon="8.663013">
<ele>362.5</ele>
<speed>5.1</speed>
<course>29.4</course>
<desc>Speed 5.1 km/h Distance 3.45 km</desc>
<time>2010-02-28T16:45:36.99</time>
<name>2176</name>
</trkpt>
<trkpt lat="48.980793" lon="8.663023">
<ele>362.5</ele>
<speed>5.1</speed>
<course>29.8</course>
<desc>Speed 5.1 km/h Distance 3.46 km</desc>
<time>2010-02-28T16:45:37.99</time>
<name>2177</name>
</trkpt>
<trkpt lat="48.980807" lon="8.663035">
<ele>362.5</ele>
<speed>5.8</speed>
<course>29.4</course>
<desc>Speed 5.8 km/h Distance 3.46 km</desc>
<time>2010-02-28T16:45:39.00</time>
<name>2178</name>
</trkpt>
<trkpt lat="48.980818" lon="8.663045">
<ele>362.5</ele>
<speed>5.4</speed>
<course>29.4</course>
<desc>Speed 5.4 km/h Distance 3.46 km</desc>
<time>2010-02-28T16:45:40.00</time>
<name>2179</name>
</trkpt>
<trkpt lat="48.980830" lon="8.663055">
<ele>362.5</ele>
<speed>5.3</speed>
<course>33.3</course>
<desc>Speed 5.3 km/h Distance 3.46 km</desc>
<time>2010-02-28T16:45:40.99</time>
<name>2180</name>
</trkpt>
<trkpt lat="48.980842" lon="8.663067">
<ele>363.0</ele>
<speed>5.5</speed>
<course>36.8</course>
<desc>Speed 5.5 km/h Distance 3.46 km</desc>
<time>2010-02-28T16:45:42.00</time>
<name>2181</name>
</trkpt>
<trkpt lat="48.980853" lon="8.663080">
<ele>363.0</ele>
<speed>5.6</speed>
<course>33.4</course>
<desc>Speed 5.6 km/h Distance 3.46 km</desc>
<time>2010-02-28T16:45:42.99</time>
<name>2182</name>
</trkpt>
<trkpt lat="48.980865" lon="8.663092">
<ele>363.5</ele>
<speed>5.7</speed>
<course>36.8</course>
<desc>Speed 5.7 km/h Distance 3.46 km</desc>
<time>2010-02-28T16:45:43.99</time>
<name>2183</name>
</trkpt>
<trkpt lat="48.980877" lon="8.663105">
<ele>363.5</ele>
<speed>5.8</speed>
<course>41.2</course>
<desc>Speed 5.8 km/h Distance 3.47 km</desc>
<time>2010-02-28T16:45:44.99</time>
<name>2184</name>
</trkpt>
<trkpt lat="48.980887" lon="8.663118">
<ele>363.5</ele>
<speed>5.3</speed>
<course>41.2</course>
<desc>Speed 5.3 km/h Distance 3.47 km</desc>
<time>2010-02-28T16:45:45.99</time>
<name>2185</name>
</trkpt>
<trkpt lat="48.980897" lon="8.663132">
<ele>364.0</ele>
<speed>5.1</speed>
<course>41.2</course>
<desc>Speed 5.1 km/h Distance 3.47 km</desc>
<time>2010-02-28T16:45:46.99</time>
<name>2186</name>
</trkpt>
<trkpt lat="48.980907" lon="8.663145">
<ele>364.0</ele>
<speed>5.4</speed>
<course>33.1</course>
<desc>Speed 5.4 km/h Distance 3.47 km</desc>
<time>2010-02-28T16:45:47.99</time>
<name>2187</name>
</trkpt>
<trkpt lat="48.980918" lon="8.663157">
<ele>364.0</ele>
<speed>5.3</speed>
<course>37.5</course>
<desc>Speed 5.3 km/h Distance 3.47 km</desc>
<time>2010-02-28T16:45:48.99</time>
<name>2188</name>
</trkpt>
<trkpt lat="48.980928" lon="8.663168">
<ele>364.0</ele>
<speed>5.0</speed>
<course>41.2</course>
<desc>Speed 5.0 km/h Distance 3.47 km</desc>
<time>2010-02-28T16:45:49.99</time>
<name>2189</name>
</trkpt>
<trkpt lat="48.980938" lon="8.663182">
<ele>364.5</ele>
<speed>5.3</speed>
<course>29.8</course>
<desc>Speed 5.3 km/h Distance 3.48 km</desc>
<time>2010-02-28T16:45:50.98</time>
<name>2190</name>
</trkpt>
<trkpt lat="48.980952" lon="8.663193">
<ele>364.5</ele>
<speed>5.9</speed>
<course>33.4</course>
<desc>Speed 5.9 km/h Distance 3.48 km</desc>
<time>2010-02-28T16:45:51.99</time>
<name>2191</name>
</trkpt>
<trkpt lat="48.980963" lon="8.663205">
<ele>364.5</ele>
<speed>5.7</speed>
<course>36.9</course>
<desc>Speed 5.7 km/h Distance 3.48 km</desc>
<time>2010-02-28T16:45:52.98</time>
<name>2192</name>
</trkpt>
<trkpt lat="48.980975" lon="8.663218">
<ele>364.5</ele>
<speed>5.6</speed>
<course>33.4</course>
<desc>Speed 5.6 km/h Distance 3.48 km</desc>
<time>2010-02-28T16:45:53.98</time>
<name>2193</name>
</trkpt>
<trkpt lat="48.980987" lon="8.663230">
<ele>365.0</ele>
<speed>5.5</speed>
<course>36.9</course>
<desc>Speed 5.5 km/h Distance 3.48 km</desc>
<time>2010-02-28T16:45:54.98</time>
<name>2194</name>
</trkpt>
<trkpt lat="48.980998" lon="8.663243">
<ele>365.0</ele>
<speed>5.4</speed>
<course>41.2</course>
<desc>Speed 5.4 km/h Distance 3.48 km</desc>
<time>2010-02-28T16:45:55.99</time>
<name>2195</name>
</trkpt>
<trkpt lat="48.981008" lon="8.663257">
<ele>365.5</ele>
<speed>5.3</speed>
<course>33.4</course>
<desc>Speed 5.3 km/h Distance 3.48 km</desc>
<time>2010-02-28T16:45:56.98</time>
<name>2196</name>
</trkpt>
<trkpt lat="48.981020" lon="8.663268">
<ele>365.5</ele>
<speed>5.5</speed>
<course>36.9</course>
<desc>Speed 5.5 km/h Distance 3.49 km</desc>
<time>2010-02-28T16:45:57.98</time>
<name>2197</name>
</trkpt>
<trkpt lat="48.981032" lon="8.663282">
<ele>365.5</ele>
<speed>5.8</speed>
<course>40.2</course>
<desc>Speed 5.8 km/h Distance 3.49 km</desc>
<time>2010-02-28T16:45:58.98</time>
<name>2198</name>
</trkpt>
<trkpt lat="48.981043" lon="8.663297">
<ele>365.5</ele>
<speed>5.6</speed>
<course>36.8</course>
<desc>Speed 5.6 km/h Distance 3.49 km</desc>
<time>2010-02-28T16:45:59.98</time>
<name>2199</name>
</trkpt>
<trkpt lat="48.981055" lon="8.663310">
<ele>366.0</ele>
<speed>5.8</speed>
<course>36.8</course>
<desc>Speed 5.8 km/h Distance 3.49 km</desc>
<time>2010-02-28T16:46:00.98</time>
<name>2200</name>
</trkpt>
<trkpt lat="48.981067" lon="8.663323">
<ele>366.0</ele>
<speed>5.6</speed>
<course>44.5</course>
<desc>Speed 5.6 km/h Distance 3.49 km</desc>
<time>2010-02-28T16:46:01.98</time>
<name>2201</name>
</trkpt>
<trkpt lat="48.981077" lon="8.663338">
<ele>366.0</ele>
<speed>5.1</speed>
<course>37.3</course>
<desc>Speed 5.1 km/h Distance 3.49 km</desc>
<time>2010-02-28T16:46:02.98</time>
<name>2202</name>
</trkpt>
<trkpt lat="48.981087" lon="8.663350">
<ele>366.5</ele>
<speed>5.1</speed>
<course>29.4</course>
<desc>Speed 5.1 km/h Distance 3.50 km</desc>
<time>2010-02-28T16:46:03.98</time>
<name>2203</name>
</trkpt>
<trkpt lat="48.981098" lon="8.663360">
<ele>366.5</ele>
<speed>5.3</speed>
<course>33.4</course>
<desc>Speed 5.3 km/h Distance 3.50 km</desc>
<time>2010-02-28T16:46:04.98</time>
<name>2204</name>
</trkpt>
<trkpt lat="48.981110" lon="8.663372">
<ele>366.5</ele>
<speed>5.3</speed>
<course>22.6</course>
<desc>Speed 5.3 km/h Distance 3.50 km</desc>
<time>2010-02-28T16:46:05.98</time>
<name>2205</name>
</trkpt>
<trkpt lat="48.981123" lon="8.663380">
<ele>366.5</ele>
<speed>5.1</speed>
<course>5.3</course>
<desc>Speed 5.1 km/h Distance 3.50 km</desc>
<time>2010-02-28T16:46:06.98</time>
<name>2206</name>
</trkpt>
<trkpt lat="48.981137" lon="8.663382">
<ele>366.5</ele>
<speed>5.4</speed>
<course>357.2</course>
<desc>Speed 5.4 km/h Distance 3.50 km</desc>
<time>2010-02-28T16:46:07.98</time>
<name>2207</name>
</trkpt>
<trkpt lat="48.981153" lon="8.663380">
<ele>366.5</ele>
<speed>6.4</speed>
<course>351.0</course>
<desc>Speed 6.4 km/h Distance 3.50 km</desc>
<time>2010-02-28T16:46:08.98</time>
<name>2208</name>
</trkpt>
<trkpt lat="48.981167" lon="8.663377">
<ele>367.0</ele>
<speed>5.1</speed>
<course>2.2</course>
<desc>Speed 5.1 km/h Distance 3.51 km</desc>
<time>2010-02-28T16:46:09.98</time>
<name>2209</name>
</trkpt>
<trkpt lat="48.981178" lon="8.663377">
<ele>367.0</ele>
<speed>4.3</speed>
<course>352.5</course>
<desc>Speed 4.3 km/h Distance 3.51 km</desc>
<time>2010-02-28T16:46:10.99</time>
<name>2210</name>
</trkpt>
<trkpt lat="48.981190" lon="8.663375">
<ele>367.0</ele>
<speed>5.0</speed>
<course>351.0</course>
<desc>Speed 5.0 km/h Distance 3.51 km</desc>
<time>2010-02-28T16:46:11.98</time>
<name>2211</name>
</trkpt>
<trkpt lat="48.981203" lon="8.663372">
<ele>366.5</ele>
<speed>4.9</speed>
<course>345.6</course>
<desc>Speed 4.9 km/h Distance 3.51 km</desc>
<time>2010-02-28T16:46:12.98</time>
<name>2212</name>
</trkpt>
<trkpt lat="48.981217" lon="8.663367">
<ele>366.5</ele>
<speed>5.3</speed>
<course>341.8</course>
<desc>Speed 5.3 km/h Distance 3.51 km</desc>
<time>2010-02-28T16:46:13.98</time>
<name>2213</name>
</trkpt>
<trkpt lat="48.981227" lon="8.663362">
<ele>367.0</ele>
<speed>4.5</speed>
<course>348.8</course>
<desc>Speed 4.5 km/h Distance 3.51 km</desc>
<time>2010-02-28T16:46:14.98</time>
<name>2214</name>
</trkpt>
<trkpt lat="48.981238" lon="8.663358">
<ele>367.0</ele>
<speed>4.5</speed>
<course>326.8</course>
<desc>Speed 4.5 km/h Distance 3.51 km</desc>
<time>2010-02-28T16:46:15.99</time>
<name>2215</name>
</trkpt>
<trkpt lat="48.981248" lon="8.663348">
<ele>367.0</ele>
<speed>4.3</speed>
<course>341.8</course>
<desc>Speed 4.3 km/h Distance 3.51 km</desc>
<time>2010-02-28T16:46:16.98</time>
<name>2216</name>
</trkpt>
<trkpt lat="48.981258" lon="8.663343">
<ele>367.0</ele>
<speed>4.6</speed>
<course>336.2</course>
<desc>Speed 4.6 km/h Distance 3.52 km</desc>
<time>2010-02-28T16:46:17.99</time>
<name>2217</name>
</trkpt>
<trkpt lat="48.981268" lon="8.663337">
<ele>367.0</ele>
<speed>4.4</speed>
<course>348.8</course>
<desc>Speed 4.4 km/h Distance 3.52 km</desc>
<time>2010-02-28T16:46:18.98</time>
<name>2218</name>
</trkpt>
<trkpt lat="48.981280" lon="8.663333">
<ele>366.5</ele>
<speed>4.8</speed>
<course>346.0</course>
<desc>Speed 4.8 km/h Distance 3.52 km</desc>
<time>2010-02-28T16:46:19.98</time>
<name>2219</name>
</trkpt>
<trkpt lat="48.981293" lon="8.663328">
<ele>367.0</ele>
<speed>5.3</speed>
<course>341.9</course>
<desc>Speed 5.3 km/h Distance 3.52 km</desc>
<time>2010-02-28T16:46:20.99</time>
<name>2220</name>
</trkpt>
<trkpt lat="48.981307" lon="8.663322">
<ele>367.0</ele>
<speed>5.4</speed>
<course>326.8</course>
<desc>Speed 5.4 km/h Distance 3.52 km</desc>
<time>2010-02-28T16:46:21.98</time>
<name>2221</name>
</trkpt>
<trkpt lat="48.981317" lon="8.663312">
<ele>367.0</ele>
<speed>4.7</speed>
<course>341.8</course>
<desc>Speed 4.7 km/h Distance 3.52 km</desc>
<time>2010-02-28T16:46:22.98</time>
<name>2222</name>
</trkpt>
<trkpt lat="48.981327" lon="8.663307">
<ele>367.0</ele>
<speed>4.2</speed>
<course>355.0</course>
<desc>Speed 4.2 km/h Distance 3.52 km</desc>
<time>2010-02-28T16:46:23.97</time>
<name>2223</name>
</trkpt>
<trkpt lat="48.981335" lon="8.663305">
<ele>367.0</ele>
<speed>3.4</speed>
<course>342.4</course>
<desc>Speed 3.4 km/h Distance 3.52 km</desc>
<time>2010-02-28T16:46:24.97</time>
<name>2224</name>
</trkpt>
<trkpt lat="48.981345" lon="8.663300">
<ele>367.0</ele>
<speed>4.4</speed>
<course>351.0</course>
<desc>Speed 4.4 km/h Distance 3.53 km</desc>
<time>2010-02-28T16:46:25.97</time>
<name>2225</name>
</trkpt>
<trkpt lat="48.981358" lon="8.663297">
<ele>367.5</ele>
<speed>4.9</speed>
<course>344.5</course>
<desc>Speed 4.9 km/h Distance 3.53 km</desc>
<time>2010-02-28T16:46:26.97</time>
<name>2226</name>
</trkpt>
<trkpt lat="48.981370" lon="8.663292">
<ele>367.5</ele>
<speed>5.0</speed>
<course>358.8</course>
<desc>Speed 5.0 km/h Distance 3.53 km</desc>
<time>2010-02-28T16:46:27.98</time>
<name>2227</name>
</trkpt>
<trkpt lat="48.981383" lon="8.663290">
<ele>367.0</ele>
<speed>4.9</speed>
<course>341.6</course>
<desc>Speed 4.9 km/h Distance 3.53 km</desc>
<time>2010-02-28T16:46:28.97</time>
<name>2228</name>
</trkpt>
<trkpt lat="48.981397" lon="8.663283">
<ele>367.0</ele>
<speed>5.2</speed>
<course>341.6</course>
<desc>Speed 5.2 km/h Distance 3.53 km</desc>
<time>2010-02-28T16:46:29.97</time>
<name>2229</name>
</trkpt>
<trkpt lat="48.981410" lon="8.663277">
<ele>367.0</ele>
<speed>5.4</speed>
<course>346.5</course>
<desc>Speed 5.4 km/h Distance 3.53 km</desc>
<time>2010-02-28T16:46:30.97</time>
<name>2230</name>
</trkpt>
<trkpt lat="48.981423" lon="8.663272">
<ele>367.0</ele>
<speed>5.3</speed>
<course>337.9</course>
<desc>Speed 5.3 km/h Distance 3.54 km</desc>
<time>2010-02-28T16:46:31.97</time>
<name>2231</name>
</trkpt>
<trkpt lat="48.981437" lon="8.663263">
<ele>367.0</ele>
<speed>5.4</speed>
<course>339.8</course>
<desc>Speed 5.4 km/h Distance 3.54 km</desc>
<time>2010-02-28T16:46:32.97</time>
<name>2232</name>
</trkpt>
<trkpt lat="48.981448" lon="8.663257">
<ele>367.0</ele>
<speed>4.8</speed>
<course>346.5</course>
<desc>Speed 4.8 km/h Distance 3.54 km</desc>
<time>2010-02-28T16:46:33.97</time>
<name>2233</name>
</trkpt>
<trkpt lat="48.981462" lon="8.663252">
<ele>367.0</ele>
<speed>4.6</speed>
<course>339.4</course>
<desc>Speed 4.6 km/h Distance 3.54 km</desc>
<time>2010-02-28T16:46:34.97</time>
<name>2234</name>
</trkpt>
<trkpt lat="48.981473" lon="8.663245">
<ele>367.0</ele>
<speed>5.2</speed>
<course>341.9</course>
<desc>Speed 5.2 km/h Distance 3.54 km</desc>
<time>2010-02-28T16:46:35.97</time>
<name>2235</name>
</trkpt>
<trkpt lat="48.981487" lon="8.663238">
<ele>367.0</ele>
<speed>5.3</speed>
<course>339.1</course>
<desc>Speed 5.3 km/h Distance 3.54 km</desc>
<time>2010-02-28T16:46:36.97</time>
<name>2236</name>
</trkpt>
<trkpt lat="48.981498" lon="8.663232">
<ele>366.5</ele>
<speed>5.0</speed>
<course>346.0</course>
<desc>Speed 5.0 km/h Distance 3.54 km</desc>
<time>2010-02-28T16:46:37.97</time>
<name>2237</name>
</trkpt>
<trkpt lat="48.981512" lon="8.663227">
<ele>367.0</ele>
<speed>5.1</speed>
<course>346.5</course>
<desc>Speed 5.1 km/h Distance 3.55 km</desc>
<time>2010-02-28T16:46:38.97</time>
<name>2238</name>
</trkpt>
<trkpt lat="48.981525" lon="8.663222">
<ele>367.0</ele>
<speed>5.1</speed>
<course>339.1</course>
<desc>Speed 5.1 km/h Distance 3.55 km</desc>
<time>2010-02-28T16:46:39.97</time>
<name>2239</name>
</trkpt>
<trkpt lat="48.981537" lon="8.663215">
<ele>367.0</ele>
<speed>5.1</speed>
<course>341.9</course>
<desc>Speed 5.1 km/h Distance 3.55 km</desc>
<time>2010-02-28T16:46:40.97</time>
<name>2240</name>
</trkpt>
<trkpt lat="48.981550" lon="8.663208">
<ele>367.0</ele>
<speed>5.1</speed>
<course>339.4</course>
<desc>Speed 5.1 km/h Distance 3.55 km</desc>
<time>2010-02-28T16:46:41.97</time>
<name>2241</name>
</trkpt>
<trkpt lat="48.981562" lon="8.663202">
<ele>367.0</ele>
<speed>5.0</speed>
<course>341.9</course>
<desc>Speed 5.0 km/h Distance 3.55 km</desc>
<time>2010-02-28T16:46:42.97</time>
<name>2242</name>
</trkpt>
<trkpt lat="48.981575" lon="8.663195">
<ele>367.0</ele>
<speed>5.4</speed>
<course>346.5</course>
<desc>Speed 5.4 km/h Distance 3.55 km</desc>
<time>2010-02-28T16:46:43.97</time>
<name>2243</name>
</trkpt>
<trkpt lat="48.981588" lon="8.663190">
<ele>367.0</ele>
<speed>5.0</speed>
<course>344.5</course>
<desc>Speed 5.0 km/h Distance 3.55 km</desc>
<time>2010-02-28T16:46:44.97</time>
<name>2244</name>
</trkpt>
<trkpt lat="48.981600" lon="8.663185">
<ele>367.0</ele>
<speed>4.7</speed>
<course>321.9</course>
<desc>Speed 4.7 km/h Distance 3.56 km</desc>
<time>2010-02-28T16:46:45.97</time>
<name>2245</name>
</trkpt>
<trkpt lat="48.981608" lon="8.663175">
<ele>367.0</ele>
<speed>4.5</speed>
<course>313.6</course>
<desc>Speed 4.5 km/h Distance 3.56 km</desc>
<time>2010-02-28T16:46:46.97</time>
<name>2246</name>
</trkpt>
<trkpt lat="48.981617" lon="8.663162">
<ele>367.0</ele>
<speed>4.5</speed>
<course>307.3</course>
<desc>Speed 4.5 km/h Distance 3.56 km</desc>
<time>2010-02-28T16:46:47.98</time>
<name>2247</name>
</trkpt>
<trkpt lat="48.981623" lon="8.663148">
<ele>367.0</ele>
<speed>4.3</speed>
<course>344.0</course>
<desc>Speed 4.3 km/h Distance 3.56 km</desc>
<time>2010-02-28T16:46:48.97</time>
<name>2248</name>
</trkpt>
<trkpt lat="48.981635" lon="8.663143">
<ele>367.0</ele>
<speed>4.7</speed>
<course>350.3</course>
<desc>Speed 4.7 km/h Distance 3.56 km</desc>
<time>2010-02-28T16:46:49.97</time>
<name>2249</name>
</trkpt>
<trkpt lat="48.981648" lon="8.663140">
<ele>367.0</ele>
<speed>5.3</speed>
<course>354.7</course>
<desc>Speed 5.3 km/h Distance 3.56 km</desc>
<time>2010-02-28T16:46:50.97</time>
<name>2250</name>
</trkpt>
<trkpt lat="48.981662" lon="8.663138">
<ele>367.0</ele>
<speed>4.9</speed>
<course>12.6</course>
<desc>Speed 4.9 km/h Distance 3.56 km</desc>
<time>2010-02-28T16:46:51.96</time>
<name>2251</name>
</trkpt>
<trkpt lat="48.981672" lon="8.663142">
<ele>367.5</ele>
<speed>4.4</speed>
<course>355.3</course>
<desc>Speed 4.4 km/h Distance 3.56 km</desc>
<time>2010-02-28T16:46:52.96</time>
<name>2252</name>
</trkpt>
<trkpt lat="48.981683" lon="8.663140">
<ele>367.5</ele>
<speed>4.1</speed>
<course>344.0</course>
<desc>Speed 4.1 km/h Distance 3.57 km</desc>
<time>2010-02-28T16:46:53.96</time>
<name>2253</name>
</trkpt>
<trkpt lat="48.981695" lon="8.663135">
<ele>367.5</ele>
<speed>4.9</speed>
<course>326.6</course>
<desc>Speed 4.9 km/h Distance 3.57 km</desc>
<time>2010-02-28T16:46:54.96</time>
<name>2254</name>
</trkpt>
<trkpt lat="48.981707" lon="8.663123">
<ele>367.0</ele>
<speed>5.1</speed>
<course>315.5</course>
<desc>Speed 5.1 km/h Distance 3.57 km</desc>
<time>2010-02-28T16:46:55.97</time>
<name>2255</name>
</trkpt>
<trkpt lat="48.981717" lon="8.663108">
<ele>367.0</ele>
<speed>5.4</speed>
<course>330.6</course>
<desc>Speed 5.4 km/h Distance 3.57 km</desc>
<time>2010-02-28T16:46:56.96</time>
<name>2256</name>
</trkpt>
<trkpt lat="48.981728" lon="8.663098">
<ele>367.0</ele>
<speed>5.0</speed>
<course>313.6</course>
<desc>Speed 5.0 km/h Distance 3.57 km</desc>
<time>2010-02-28T16:46:57.97</time>
<name>2257</name>
</trkpt>
<trkpt lat="48.981737" lon="8.663085">
<ele>367.0</ele>
<speed>5.0</speed>
<course>322.5</course>
<desc>Speed 5.0 km/h Distance 3.57 km</desc>
<time>2010-02-28T16:46:58.97</time>
<name>2258</name>
</trkpt>
<trkpt lat="48.981747" lon="8.663073">
<ele>366.5</ele>
<speed>4.9</speed>
<course>318.7</course>
<desc>Speed 4.9 km/h Distance 3.57 km</desc>
<time>2010-02-28T16:46:59.96</time>
<name>2259</name>
</trkpt>
<trkpt lat="48.981757" lon="8.663060">
<ele>366.5</ele>
<speed>4.8</speed>
<course>322.5</course>
<desc>Speed 4.8 km/h Distance 3.58 km</desc>
<time>2010-02-28T16:47:00.96</time>
<name>2260</name>
</trkpt>
<trkpt lat="48.981767" lon="8.663048">
<ele>366.5</ele>
<speed>5.1</speed>
<course>310.3</course>
<desc>Speed 5.1 km/h Distance 3.58 km</desc>
<time>2010-02-28T16:47:01.96</time>
<name>2261</name>
</trkpt>
<trkpt lat="48.981775" lon="8.663033">
<ele>366.5</ele>
<speed>5.3</speed>
<course>312.6</course>
<desc>Speed 5.3 km/h Distance 3.58 km</desc>
<time>2010-02-28T16:47:02.96</time>
<name>2262</name>
</trkpt>
<trkpt lat="48.981785" lon="8.663017">
<ele>367.0</ele>
<speed>5.1</speed>
<course>301.4</course>
<desc>Speed 5.1 km/h Distance 3.58 km</desc>
<time>2010-02-28T16:47:03.96</time>
<name>2263</name>
</trkpt>
<trkpt lat="48.981792" lon="8.663000">
<ele>366.5</ele>
<speed>4.9</speed>
<course>304.1</course>
<desc>Speed 4.9 km/h Distance 3.58 km</desc>
<time>2010-02-28T16:47:04.96</time>
<name>2264</name>
</trkpt>
<trkpt lat="48.981798" lon="8.662985">
<ele>366.5</ele>
<speed>4.8</speed>
<course>317.5</course>
<desc>Speed 4.8 km/h Distance 3.58 km</desc>
<time>2010-02-28T16:47:05.96</time>
<name>2265</name>
</trkpt>
<trkpt lat="48.981807" lon="8.662973">
<ele>366.0</ele>
<speed>4.3</speed>
<course>310.2</course>
<desc>Speed 4.3 km/h Distance 3.58 km</desc>
<time>2010-02-28T16:47:06.96</time>
<name>2266</name>
</trkpt>
<trkpt lat="48.981815" lon="8.662958">
<ele>366.0</ele>
<speed>4.8</speed>
<course>304.1</course>
<desc>Speed 4.8 km/h Distance 3.59 km</desc>
<time>2010-02-28T16:47:07.97</time>
<name>2267</name>
</trkpt>
<trkpt lat="48.981822" lon="8.662943">
<ele>366.0</ele>
<speed>4.9</speed>
<course>287.0</course>
<desc>Speed 4.9 km/h Distance 3.59 km</desc>
<time>2010-02-28T16:47:08.97</time>
<name>2268</name>
</trkpt>
<trkpt lat="48.981825" lon="8.662927">
<ele>366.0</ele>
<speed>4.4</speed>
<course>304.1</course>
<desc>Speed 4.4 km/h Distance 3.59 km</desc>
<time>2010-02-28T16:47:09.96</time>
<name>2269</name>
</trkpt>
<trkpt lat="48.981832" lon="8.662912">
<ele>365.0</ele>
<speed>4.4</speed>
<course>296.9</course>
<desc>Speed 4.4 km/h Distance 3.59 km</desc>
<time>2010-02-28T16:47:10.96</time>
<name>2270</name>
</trkpt>
<trkpt lat="48.981837" lon="8.662897">
<ele>364.5</ele>
<speed>4.4</speed>
<course>301.3</course>
<desc>Speed 4.4 km/h Distance 3.59 km</desc>
<time>2010-02-28T16:47:11.96</time>
<name>2271</name>
</trkpt>
<trkpt lat="48.981843" lon="8.662880">
<ele>364.0</ele>
<speed>4.8</speed>
<course>307.3</course>
<desc>Speed 4.8 km/h Distance 3.59 km</desc>
<time>2010-02-28T16:47:12.96</time>
<name>2272</name>
</trkpt>
<trkpt lat="48.981852" lon="8.662863">
<ele>364.5</ele>
<speed>5.0</speed>
<course>294.6</course>
<desc>Speed 5.0 km/h Distance 3.59 km</desc>
<time>2010-02-28T16:47:13.96</time>
<name>2273</name>
</trkpt>
<trkpt lat="48.981857" lon="8.662847">
<ele>364.0</ele>
<speed>4.7</speed>
<course>294.6</course>
<desc>Speed 4.7 km/h Distance 3.60 km</desc>
<time>2010-02-28T16:47:14.96</time>
<name>2274</name>
</trkpt>
<trkpt lat="48.981862" lon="8.662830">
<ele>364.0</ele>
<speed>4.9</speed>
<course>294.6</course>
<desc>Speed 4.9 km/h Distance 3.60 km</desc>
<time>2010-02-28T16:47:15.96</time>
<name>2275</name>
</trkpt>
<trkpt lat="48.981867" lon="8.662813">
<ele>363.5</ele>
<speed>4.9</speed>
<course>295.1</course>
<desc>Speed 4.9 km/h Distance 3.60 km</desc>
<time>2010-02-28T16:47:16.96</time>
<name>2276</name>
</trkpt>
<trkpt lat="48.981873" lon="8.662792">
<ele>364.0</ele>
<speed>5.5</speed>
<course>304.7</course>
<desc>Speed 5.5 km/h Distance 3.60 km</desc>
<time>2010-02-28T16:47:17.96</time>
<name>2277</name>
</trkpt>
<trkpt lat="48.981882" lon="8.662773">
<ele>364.0</ele>
<speed>5.4</speed>
<course>299.0</course>
<desc>Speed 5.4 km/h Distance 3.60 km</desc>
<time>2010-02-28T16:47:18.96</time>
<name>2278</name>
</trkpt>
<trkpt lat="48.981888" lon="8.662755">
<ele>364.5</ele>
<speed>4.9</speed>
<course>292.6</course>
<desc>Speed 4.9 km/h Distance 3.60 km</desc>
<time>2010-02-28T16:47:19.96</time>
<name>2279</name>
</trkpt>
<trkpt lat="48.981893" lon="8.662737">
<ele>364.0</ele>
<speed>5.0</speed>
<course>296.9</course>
<desc>Speed 5.0 km/h Distance 3.60 km</desc>
<time>2010-02-28T16:47:20.96</time>
<name>2280</name>
</trkpt>
<trkpt lat="48.981900" lon="8.662717">
<ele>364.5</ele>
<speed>5.2</speed>
<course>301.4</course>
<desc>Speed 5.2 km/h Distance 3.61 km</desc>
<time>2010-02-28T16:47:21.96</time>
<name>2281</name>
</trkpt>
<trkpt lat="48.981907" lon="8.662700">
<ele>364.5</ele>
<speed>4.9</speed>
<course>301.4</course>
<desc>Speed 4.9 km/h Distance 3.61 km</desc>
<time>2010-02-28T16:47:22.96</time>
<name>2282</name>
</trkpt>
<trkpt lat="48.981913" lon="8.662683">
<ele>365.0</ele>
<speed>5.0</speed>
<course>307.3</course>
<desc>Speed 5.0 km/h Distance 3.61 km</desc>
<time>2010-02-28T16:47:23.96</time>
<name>2283</name>
</trkpt>
<trkpt lat="48.981920" lon="8.662670">
<ele>364.5</ele>
<speed>4.5</speed>
<course>310.9</course>
<desc>Speed 4.5 km/h Distance 3.61 km</desc>
<time>2010-02-28T16:47:24.96</time>
<name>2284</name>
</trkpt>
<trkpt lat="48.981927" lon="8.662658">
<ele>364.5</ele>
<speed>3.5</speed>
<course>270.0</course>
<desc>Speed 3.5 km/h Distance 3.61 km</desc>
<time>2010-02-28T16:47:25.96</time>
<name>2285</name>
</trkpt>
<trkpt lat="48.981927" lon="8.662657">
<ele>364.5</ele>
<speed>0.5</speed>
<course>270.0</course>
<desc>Speed 0.5 km/h Distance 3.61 km</desc>
<time>2010-02-28T16:47:26.96</time>
<name>2286</name>
</trkpt>
<trkpt lat="48.981927" lon="8.662657">
<ele>364.5</ele>
<speed>0.1</speed>
<course>12.6</course>
<desc>Speed 0.1 km/h Distance 3.61 km</desc>
<time>2010-02-28T16:47:27.96</time>
<name>2287</name>
</trkpt>
<trkpt lat="48.981928" lon="8.662657">
<ele>364.5</ele>
<speed>0.3</speed>
<course>270.0</course>
<desc>Speed 0.3 km/h Distance 3.61 km</desc>
<time>2010-02-28T16:47:28.96</time>
<name>2288</name>
</trkpt>
<trkpt lat="48.981928" lon="8.662648">
<ele>364.0</ele>
<speed>2.3</speed>
<course>286.9</course>
<desc>Speed 2.3 km/h Distance 3.61 km</desc>
<time>2010-02-28T16:47:29.96</time>
<name>2289</name>
</trkpt>
<trkpt lat="48.981932" lon="8.662632">
<ele>364.0</ele>
<speed>4.2</speed>
<course>292.6</course>
<desc>Speed 4.2 km/h Distance 3.61 km</desc>
<time>2010-02-28T16:47:30.96</time>
<name>2290</name>
</trkpt>
<trkpt lat="48.981937" lon="8.662613">
<ele>363.5</ele>
<speed>5.0</speed>
<course>296.9</course>
<desc>Speed 5.0 km/h Distance 3.62 km</desc>
<time>2010-02-28T16:47:31.96</time>
<name>2291</name>
</trkpt>
<trkpt lat="48.981943" lon="8.662593">
<ele>363.5</ele>
<speed>5.4</speed>
<course>295.1</course>
<desc>Speed 5.4 km/h Distance 3.62 km</desc>
<time>2010-02-28T16:47:32.96</time>
<name>2292</name>
</trkpt>
<trkpt lat="48.981950" lon="8.662572">
<ele>364.0</ele>
<speed>5.4</speed>
<course>299.0</course>
<desc>Speed 5.4 km/h Distance 3.62 km</desc>
<time>2010-02-28T16:47:33.96</time>
<name>2293</name>
</trkpt>
<trkpt lat="48.981957" lon="8.662553">
<ele>364.5</ele>
<speed>4.9</speed>
<course>295.1</course>
<desc>Speed 4.9 km/h Distance 3.62 km</desc>
<time>2010-02-28T16:47:34.96</time>
<name>2294</name>
</trkpt>
<trkpt lat="48.981963" lon="8.662532">
<ele>364.5</ele>
<speed>5.3</speed>
<course>296.9</course>
<desc>Speed 5.3 km/h Distance 3.62 km</desc>
<time>2010-02-28T16:47:35.96</time>
<name>2295</name>
</trkpt>
<trkpt lat="48.981970" lon="8.662512">
<ele>365.0</ele>
<speed>5.5</speed>
<course>295.1</course>
<desc>Speed 5.5 km/h Distance 3.62 km</desc>
<time>2010-02-28T16:47:36.96</time>
<name>2296</name>
</trkpt>
<trkpt lat="48.981977" lon="8.662490">
<ele>365.5</ele>
<speed>5.2</speed>
<course>296.9</course>
<desc>Speed 5.2 km/h Distance 3.63 km</desc>
<time>2010-02-28T16:47:37.96</time>
<name>2297</name>
</trkpt>
<trkpt lat="48.981983" lon="8.662470">
<ele>365.5</ele>
<speed>5.4</speed>
<course>299.0</course>
<desc>Speed 5.4 km/h Distance 3.63 km</desc>
<time>2010-02-28T16:47:38.96</time>
<name>2298</name>
</trkpt>
<trkpt lat="48.981990" lon="8.662452">
<ele>366.0</ele>
<speed>5.0</speed>
<course>290.9</course>
<desc>Speed 5.0 km/h Distance 3.63 km</desc>
<time>2010-02-28T16:47:39.96</time>
<name>2299</name>
</trkpt>
<trkpt lat="48.981995" lon="8.662432">
<ele>366.0</ele>
<speed>5.1</speed>
<course>290.9</course>
<desc>Speed 5.1 km/h Distance 3.63 km</desc>
<time>2010-02-28T16:47:40.96</time>
<name>2300</name>
</trkpt>
<trkpt lat="48.982000" lon="8.662412">
<ele>366.0</ele>
<speed>5.0</speed>
<course>301.4</course>
<desc>Speed 5.0 km/h Distance 3.63 km</desc>
<time>2010-02-28T16:47:41.96</time>
<name>2301</name>
</trkpt>
<trkpt lat="48.982007" lon="8.662395">
<ele>365.5</ele>
<speed>5.1</speed>
<course>294.6</course>
<desc>Speed 5.1 km/h Distance 3.63 km</desc>
<time>2010-02-28T16:47:42.96</time>
<name>2302</name>
</trkpt>
<trkpt lat="48.982012" lon="8.662378">
<ele>365.5</ele>
<speed>4.6</speed>
<course>296.9</course>
<desc>Speed 4.6 km/h Distance 3.63 km</desc>
<time>2010-02-28T16:47:43.96</time>
<name>2303</name>
</trkpt>
<trkpt lat="48.982017" lon="8.662363">
<ele>365.0</ele>
<speed>4.1</speed>
<course>292.6</course>
<desc>Speed 4.1 km/h Distance 3.64 km</desc>
<time>2010-02-28T16:47:44.96</time>
<name>2304</name>
</trkpt>
<trkpt lat="48.982022" lon="8.662345">
<ele>365.0</ele>
<speed>5.2</speed>
<course>290.8</course>
<desc>Speed 5.2 km/h Distance 3.64 km</desc>
<time>2010-02-28T16:47:45.96</time>
<name>2305</name>
</trkpt>
<trkpt lat="48.982027" lon="8.662325">
<ele>365.0</ele>
<speed>5.4</speed>
<course>285.4</course>
<desc>Speed 5.4 km/h Distance 3.64 km</desc>
<time>2010-02-28T16:47:46.96</time>
<name>2306</name>
</trkpt>
<trkpt lat="48.982030" lon="8.662307">
<ele>364.5</ele>
<speed>4.7</speed>
<course>285.5</course>
<desc>Speed 4.7 km/h Distance 3.64 km</desc>
<time>2010-02-28T16:47:47.96</time>
<name>2307</name>
</trkpt>
<trkpt lat="48.982033" lon="8.662288">
<ele>364.0</ele>
<speed>4.9</speed>
<course>304.7</course>
<desc>Speed 4.9 km/h Distance 3.64 km</desc>
<time>2010-02-28T16:47:48.96</time>
<name>2308</name>
</trkpt>
<trkpt lat="48.982042" lon="8.662270">
<ele>364.5</ele>
<speed>5.0</speed>
<course>286.9</course>
<desc>Speed 5.0 km/h Distance 3.64 km</desc>
<time>2010-02-28T16:47:49.96</time>
<name>2309</name>
</trkpt>
<trkpt lat="48.982045" lon="8.662253">
<ele>364.0</ele>
<speed>4.7</speed>
<course>304.1</course>
<desc>Speed 4.7 km/h Distance 3.64 km</desc>
<time>2010-02-28T16:47:50.96</time>
<name>2310</name>
</trkpt>
<trkpt lat="48.982052" lon="8.662238">
<ele>363.5</ele>
<speed>4.7</speed>
<course>285.5</course>
<desc>Speed 4.7 km/h Distance 3.65 km</desc>
<time>2010-02-28T16:47:51.96</time>
<name>2311</name>
</trkpt>
<trkpt lat="48.982055" lon="8.662220">
<ele>363.5</ele>
<speed>4.4</speed>
<course>290.9</course>
<desc>Speed 4.4 km/h Distance 3.65 km</desc>
<time>2010-02-28T16:47:52.96</time>
<name>2312</name>
</trkpt>
<trkpt lat="48.982060" lon="8.662200">
<ele>363.5</ele>
<speed>4.9</speed>
<course>301.4</course>
<desc>Speed 4.9 km/h Distance 3.65 km</desc>
<time>2010-02-28T16:47:53.96</time>
<name>2313</name>
</trkpt>
<trkpt lat="48.982067" lon="8.662183">
<ele>363.5</ele>
<speed>4.9</speed>
<course>294.6</course>
<desc>Speed 4.9 km/h Distance 3.65 km</desc>
<time>2010-02-28T16:47:54.96</time>
<name>2314</name>
</trkpt>
<trkpt lat="48.982072" lon="8.662167">
<ele>363.5</ele>
<speed>4.6</speed>
<course>301.4</course>
<desc>Speed 4.6 km/h Distance 3.65 km</desc>
<time>2010-02-28T16:47:55.96</time>
<name>2315</name>
</trkpt>
<trkpt lat="48.982078" lon="8.662150">
<ele>363.5</ele>
<speed>4.9</speed>
<course>301.4</course>
<desc>Speed 4.9 km/h Distance 3.65 km</desc>
<time>2010-02-28T16:47:56.96</time>
<name>2316</name>
</trkpt>
<trkpt lat="48.982085" lon="8.662133">
<ele>363.5</ele>
<speed>4.6</speed>
<course>299.8</course>
<desc>Speed 4.6 km/h Distance 3.65 km</desc>
<time>2010-02-28T16:47:57.96</time>
<name>2317</name>
</trkpt>
<trkpt lat="48.982090" lon="8.662120">
<ele>364.5</ele>
<speed>3.9</speed>
<course>308.1</course>
<desc>Speed 3.9 km/h Distance 3.66 km</desc>
<time>2010-02-28T16:47:58.96</time>
<name>2318</name>
</trkpt>
<trkpt lat="48.982092" lon="8.662117">
<ele>364.5</ele>
<speed>0.8</speed>
<course>315.5</course>
<desc>Speed 0.8 km/h Distance 3.66 km</desc>
<time>2010-02-28T16:47:59.96</time>
<name>2319</name>
</trkpt>
<trkpt lat="48.982095" lon="8.662112">
<ele>364.5</ele>
<speed>1.8</speed>
<course>299.7</course>
<desc>Speed 1.8 km/h Distance 3.66 km</desc>
<time>2010-02-28T16:48:00.96</time>
<name>2320</name>
</trkpt>
<trkpt lat="48.982100" lon="8.662098">
<ele>365.0</ele>
<speed>4.0</speed>
<course>299.0</course>
<desc>Speed 4.0 km/h Distance 3.66 km</desc>
<time>2010-02-28T16:48:01.96</time>
<name>2321</name>
</trkpt>
<trkpt lat="48.982107" lon="8.662080">
<ele>365.0</ele>
<speed>4.9</speed>
<course>299.0</course>
<desc>Speed 4.9 km/h Distance 3.66 km</desc>
<time>2010-02-28T16:48:02.96</time>
<name>2322</name>
</trkpt>
<trkpt lat="48.982113" lon="8.662062">
<ele>365.0</ele>
<speed>5.3</speed>
<course>299.0</course>
<desc>Speed 5.3 km/h Distance 3.66 km</desc>
<time>2010-02-28T16:48:03.96</time>
<name>2323</name>
</trkpt>
<trkpt lat="48.982120" lon="8.662043">
<ele>365.0</ele>
<speed>5.5</speed>
<course>296.9</course>
<desc>Speed 5.5 km/h Distance 3.66 km</desc>
<time>2010-02-28T16:48:04.96</time>
<name>2324</name>
</trkpt>
<trkpt lat="48.982127" lon="8.662023">
<ele>364.5</ele>
<speed>5.3</speed>
<course>299.0</course>
<desc>Speed 5.3 km/h Distance 3.66 km</desc>
<time>2010-02-28T16:48:05.96</time>
<name>2325</name>
</trkpt>
<trkpt lat="48.982133" lon="8.662005">
<ele>364.5</ele>
<speed>5.4</speed>
<course>296.9</course>
<desc>Speed 5.4 km/h Distance 3.67 km</desc>
<time>2010-02-28T16:48:06.96</time>
<name>2326</name>
</trkpt>
<trkpt lat="48.982140" lon="8.661985">
<ele>364.5</ele>
<speed>4.9</speed>
<course>285.5</course>
<desc>Speed 4.9 km/h Distance 3.67 km</desc>
<time>2010-02-28T16:48:07.96</time>
<name>2327</name>
</trkpt>
<trkpt lat="48.982143" lon="8.661967">
<ele>364.5</ele>
<speed>4.8</speed>
<course>304.7</course>
<desc>Speed 4.8 km/h Distance 3.67 km</desc>
<time>2010-02-28T16:48:08.96</time>
<name>2328</name>
</trkpt>
<trkpt lat="48.982152" lon="8.661948">
<ele>364.5</ele>
<speed>4.9</speed>
<course>297.0</course>
<desc>Speed 4.9 km/h Distance 3.67 km</desc>
<time>2010-02-28T16:48:09.96</time>
<name>2329</name>
</trkpt>
<trkpt lat="48.982158" lon="8.661928">
<ele>364.5</ele>
<speed>5.0</speed>
<course>292.6</course>
<desc>Speed 5.0 km/h Distance 3.67 km</desc>
<time>2010-02-28T16:48:10.96</time>
<name>2330</name>
</trkpt>
<trkpt lat="48.982163" lon="8.661910">
<ele>365.0</ele>
<speed>5.0</speed>
<course>290.9</course>
<desc>Speed 5.0 km/h Distance 3.67 km</desc>
<time>2010-02-28T16:48:11.96</time>
<name>2331</name>
</trkpt>
<trkpt lat="48.982168" lon="8.661890">
<ele>365.0</ele>
<speed>5.1</speed>
<course>292.6</course>
<desc>Speed 5.1 km/h Distance 3.67 km</desc>
<time>2010-02-28T16:48:12.96</time>
<name>2332</name>
</trkpt>
<trkpt lat="48.982173" lon="8.661872">
<ele>365.0</ele>
<speed>4.8</speed>
<course>292.6</course>
<desc>Speed 4.8 km/h Distance 3.68 km</desc>
<time>2010-02-28T16:48:13.96</time>
<name>2333</name>
</trkpt>
<trkpt lat="48.982178" lon="8.661853">
<ele>365.0</ele>
<speed>5.0</speed>
<course>284.2</course>
<desc>Speed 5.0 km/h Distance 3.68 km</desc>
<time>2010-02-28T16:48:14.96</time>
<name>2334</name>
</trkpt>
<trkpt lat="48.982182" lon="8.661833">
<ele>365.0</ele>
<speed>5.2</speed>
<course>296.9</course>
<desc>Speed 5.2 km/h Distance 3.68 km</desc>
<time>2010-02-28T16:48:15.96</time>
<name>2335</name>
</trkpt>
<trkpt lat="48.982188" lon="8.661813">
<ele>365.0</ele>
<speed>5.3</speed>
<course>296.9</course>
<desc>Speed 5.3 km/h Distance 3.68 km</desc>
<time>2010-02-28T16:48:16.96</time>
<name>2336</name>
</trkpt>
<trkpt lat="48.982195" lon="8.661793">
<ele>365.0</ele>
<speed>5.6</speed>
<course>302.4</course>
<desc>Speed 5.6 km/h Distance 3.68 km</desc>
<time>2010-02-28T16:48:17.96</time>
<name>2337</name>
</trkpt>
<trkpt lat="48.982203" lon="8.661773">
<ele>364.5</ele>
<speed>5.7</speed>
<course>296.9</course>
<desc>Speed 5.7 km/h Distance 3.68 km</desc>
<time>2010-02-28T16:48:18.96</time>
<name>2338</name>
</trkpt>
<trkpt lat="48.982210" lon="8.661753">
<ele>364.0</ele>
<speed>5.7</speed>
<course>283.2</course>
<desc>Speed 5.7 km/h Distance 3.69 km</desc>
<time>2010-02-28T16:48:19.96</time>
<name>2339</name>
</trkpt>
<trkpt lat="48.982213" lon="8.661732">
<ele>363.5</ele>
<speed>5.7</speed>
<course>289.4</course>
<desc>Speed 5.7 km/h Distance 3.69 km</desc>
<time>2010-02-28T16:48:20.96</time>
<name>2340</name>
</trkpt>
<trkpt lat="48.982218" lon="8.661710">
<ele>363.5</ele>
<speed>5.8</speed>
<course>282.3</course>
<desc>Speed 5.8 km/h Distance 3.69 km</desc>
<time>2010-02-28T16:48:21.96</time>
<name>2341</name>
</trkpt>
<trkpt lat="48.982222" lon="8.661687">
<ele>363.0</ele>
<speed>5.8</speed>
<course>289.4</course>
<desc>Speed 5.8 km/h Distance 3.69 km</desc>
<time>2010-02-28T16:48:22.96</time>
<name>2342</name>
</trkpt>
<trkpt lat="48.982227" lon="8.661665">
<ele>363.0</ele>
<speed>5.9</speed>
<course>289.4</course>
<desc>Speed 5.9 km/h Distance 3.69 km</desc>
<time>2010-02-28T16:48:23.96</time>
<name>2343</name>
</trkpt>
<trkpt lat="48.982232" lon="8.661643">
<ele>363.0</ele>
<speed>5.8</speed>
<course>284.2</course>
<desc>Speed 5.8 km/h Distance 3.69 km</desc>
<time>2010-02-28T16:48:24.96</time>
<name>2344</name>
</trkpt>
<trkpt lat="48.982235" lon="8.661623">
<ele>363.0</ele>
<speed>5.4</speed>
<course>289.4</course>
<desc>Speed 5.4 km/h Distance 3.70 km</desc>
<time>2010-02-28T16:48:25.96</time>
<name>2345</name>
</trkpt>
<trkpt lat="48.982240" lon="8.661602">
<ele>363.0</ele>
<speed>5.8</speed>
<course>290.8</course>
<desc>Speed 5.8 km/h Distance 3.70 km</desc>
<time>2010-02-28T16:48:26.96</time>
<name>2346</name>
</trkpt>
<trkpt lat="48.982245" lon="8.661582">
<ele>363.0</ele>
<speed>5.4</speed>
<course>294.6</course>
<desc>Speed 5.4 km/h Distance 3.70 km</desc>
<time>2010-02-28T16:48:27.96</time>
<name>2347</name>
</trkpt>
<trkpt lat="48.982250" lon="8.661565">
<ele>362.5</ele>
<speed>4.5</speed>
<course>290.9</course>
<desc>Speed 4.5 km/h Distance 3.70 km</desc>
<time>2010-02-28T16:48:28.96</time>
<name>2348</name>
</trkpt>
<trkpt lat="48.982253" lon="8.661552">
<ele>362.5</ele>
<speed>3.6</speed>
<course>286.9</course>
<desc>Speed 3.6 km/h Distance 3.70 km</desc>
<time>2010-02-28T16:48:29.96</time>
<name>2349</name>
</trkpt>
<trkpt lat="48.982257" lon="8.661535">
<ele>362.5</ele>
<speed>4.4</speed>
<course>285.5</course>
<desc>Speed 4.4 km/h Distance 3.70 km</desc>
<time>2010-02-28T16:48:30.96</time>
<name>2350</name>
</trkpt>
<trkpt lat="48.982260" lon="8.661517">
<ele>362.5</ele>
<speed>4.8</speed>
<course>292.6</course>
<desc>Speed 4.8 km/h Distance 3.70 km</desc>
<time>2010-02-28T16:48:31.96</time>
<name>2351</name>
</trkpt>
<trkpt lat="48.982265" lon="8.661498">
<ele>362.5</ele>
<speed>5.1</speed>
<course>304.8</course>
<desc>Speed 5.1 km/h Distance 3.71 km</desc>
<time>2010-02-28T16:48:32.96</time>
<name>2352</name>
</trkpt>
<trkpt lat="48.982273" lon="8.661480">
<ele>362.5</ele>
<speed>5.7</speed>
<course>296.9</course>
<desc>Speed 5.7 km/h Distance 3.71 km</desc>
<time>2010-02-28T16:48:33.96</time>
<name>2353</name>
</trkpt>
<trkpt lat="48.982280" lon="8.661460">
<ele>362.5</ele>
<speed>5.6</speed>
<course>290.8</course>
<desc>Speed 5.6 km/h Distance 3.71 km</desc>
<time>2010-02-28T16:48:34.96</time>
<name>2354</name>
</trkpt>
<trkpt lat="48.982285" lon="8.661440">
<ele>362.0</ele>
<speed>5.6</speed>
<course>290.8</course>
<desc>Speed 5.6 km/h Distance 3.71 km</desc>
<time>2010-02-28T16:48:35.96</time>
<name>2355</name>
</trkpt>
<trkpt lat="48.982290" lon="8.661420">
<ele>362.0</ele>
<speed>5.1</speed>
<course>277.2</course>
<desc>Speed 5.1 km/h Distance 3.71 km</desc>
<time>2010-02-28T16:48:36.96</time>
<name>2356</name>
</trkpt>
<trkpt lat="48.982292" lon="8.661400">
<ele>362.0</ele>
<speed>5.2</speed>
<course>289.4</course>
<desc>Speed 5.2 km/h Distance 3.71 km</desc>
<time>2010-02-28T16:48:37.96</time>
<name>2357</name>
</trkpt>
<trkpt lat="48.982297" lon="8.661378">
<ele>362.0</ele>
<speed>5.8</speed>
<course>296.9</course>
<desc>Speed 5.8 km/h Distance 3.71 km</desc>
<time>2010-02-28T16:48:38.96</time>
<name>2358</name>
</trkpt>
<trkpt lat="48.982303" lon="8.661358">
<ele>362.0</ele>
<speed>5.9</speed>
<course>296.9</course>
<desc>Speed 5.9 km/h Distance 3.72 km</desc>
<time>2010-02-28T16:48:39.96</time>
<name>2359</name>
</trkpt>
<trkpt lat="48.982310" lon="8.661338">
<ele>362.0</ele>
<speed>5.3</speed>
<course>290.8</course>
<desc>Speed 5.3 km/h Distance 3.72 km</desc>
<time>2010-02-28T16:48:40.96</time>
<name>2360</name>
</trkpt>
<trkpt lat="48.982315" lon="8.661318">
<ele>361.5</ele>
<speed>5.4</speed>
<course>289.4</course>
<desc>Speed 5.4 km/h Distance 3.72 km</desc>
<time>2010-02-28T16:48:41.96</time>
<name>2361</name>
</trkpt>
<trkpt lat="48.982320" lon="8.661297">
<ele>361.5</ele>
<speed>5.6</speed>
<course>284.2</course>
<desc>Speed 5.6 km/h Distance 3.72 km</desc>
<time>2010-02-28T16:48:42.96</time>
<name>2362</name>
</trkpt>
<trkpt lat="48.982323" lon="8.661277">
<ele>361.5</ele>
<speed>5.7</speed>
<course>289.4</course>
<desc>Speed 5.7 km/h Distance 3.72 km</desc>
<time>2010-02-28T16:48:43.96</time>
<name>2363</name>
</trkpt>
<trkpt lat="48.982328" lon="8.661255">
<ele>361.0</ele>
<speed>5.7</speed>
<course>283.2</course>
<desc>Speed 5.7 km/h Distance 3.72 km</desc>
<time>2010-02-28T16:48:44.96</time>
<name>2364</name>
</trkpt>
<trkpt lat="48.982332" lon="8.661233">
<ele>361.0</ele>
<speed>5.7</speed>
<course>290.8</course>
<desc>Speed 5.7 km/h Distance 3.73 km</desc>
<time>2010-02-28T16:48:45.96</time>
<name>2365</name>
</trkpt>
<trkpt lat="48.982337" lon="8.661213">
<ele>361.0</ele>
<speed>5.9</speed>
<course>299.0</course>
<desc>Speed 5.9 km/h Distance 3.73 km</desc>
<time>2010-02-28T16:48:46.96</time>
<name>2366</name>
</trkpt>
<trkpt lat="48.982343" lon="8.661195">
<ele>361.0</ele>
<speed>5.4</speed>
<course>299.0</course>
<desc>Speed 5.4 km/h Distance 3.73 km</desc>
<time>2010-02-28T16:48:47.96</time>
<name>2367</name>
</trkpt>
<trkpt lat="48.982350" lon="8.661177">
<ele>361.0</ele>
<speed>5.3</speed>
<course>299.0</course>
<desc>Speed 5.3 km/h Distance 3.73 km</desc>
<time>2010-02-28T16:48:48.96</time>
<name>2368</name>
</trkpt>
<trkpt lat="48.982357" lon="8.661158">
<ele>360.5</ele>
<speed>5.4</speed>
<course>302.4</course>
<desc>Speed 5.4 km/h Distance 3.73 km</desc>
<time>2010-02-28T16:48:49.96</time>
<name>2369</name>
</trkpt>
<trkpt lat="48.982365" lon="8.661138">
<ele>360.5</ele>
<speed>5.7</speed>
<course>307.4</course>
<desc>Speed 5.7 km/h Distance 3.73 km</desc>
<time>2010-02-28T16:48:50.96</time>
<name>2370</name>
</trkpt>
<trkpt lat="48.982373" lon="8.661122">
<ele>360.5</ele>
<speed>5.5</speed>
<course>304.7</course>
<desc>Speed 5.5 km/h Distance 3.74 km</desc>
<time>2010-02-28T16:48:51.96</time>
<name>2371</name>
</trkpt>
<trkpt lat="48.982382" lon="8.661103">
<ele>360.0</ele>
<speed>5.3</speed>
<course>299.0</course>
<desc>Speed 5.3 km/h Distance 3.74 km</desc>
<time>2010-02-28T16:48:52.96</time>
<name>2372</name>
</trkpt>
<trkpt lat="48.982388" lon="8.661085">
<ele>360.0</ele>
<speed>5.4</speed>
<course>307.3</course>
<desc>Speed 5.4 km/h Distance 3.74 km</desc>
<time>2010-02-28T16:48:53.96</time>
<name>2373</name>
</trkpt>
<trkpt lat="48.982397" lon="8.661068">
<ele>360.0</ele>
<speed>5.6</speed>
<course>318.8</course>
<desc>Speed 5.6 km/h Distance 3.74 km</desc>
<time>2010-02-28T16:48:54.96</time>
<name>2374</name>
</trkpt>
<trkpt lat="48.982407" lon="8.661055">
<ele>359.5</ele>
<speed>5.3</speed>
<course>326.8</course>
<desc>Speed 5.3 km/h Distance 3.74 km</desc>
<time>2010-02-28T16:48:55.96</time>
<name>2375</name>
</trkpt>
<trkpt lat="48.982415" lon="8.661047">
<ele>359.5</ele>
<speed>4.0</speed>
<course>332.1</course>
<desc>Speed 4.0 km/h Distance 3.74 km</desc>
<time>2010-02-28T16:48:56.96</time>
<name>2376</name>
</trkpt>
<trkpt lat="48.982423" lon="8.661040">
<ele>359.5</ele>
<speed>3.8</speed>
<course>351.0</course>
<desc>Speed 3.8 km/h Distance 3.74 km</desc>
<time>2010-02-28T16:48:57.96</time>
<name>2377</name>
</trkpt>
<trkpt lat="48.982437" lon="8.661037">
<ele>359.0</ele>
<speed>5.2</speed>
<course>1.2</course>
<desc>Speed 5.2 km/h Distance 3.75 km</desc>
<time>2010-02-28T16:48:58.96</time>
<name>2378</name>
</trkpt>
<trkpt lat="48.982450" lon="8.661038">
<ele>359.5</ele>
<speed>4.7</speed>
<course>13.5</course>
<desc>Speed 4.7 km/h Distance 3.75 km</desc>
<time>2010-02-28T16:48:59.96</time>
<name>2379</name>
</trkpt>
<trkpt lat="48.982463" lon="8.661043">
<ele>359.5</ele>
<speed>5.3</speed>
<course>9.0</course>
<desc>Speed 5.3 km/h Distance 3.75 km</desc>
<time>2010-02-28T16:49:00.96</time>
<name>2380</name>
</trkpt>
<trkpt lat="48.982477" lon="8.661047">
<ele>359.5</ele>
<speed>5.4</speed>
<course>8.8</course>
<desc>Speed 5.4 km/h Distance 3.75 km</desc>
<time>2010-02-28T16:49:01.96</time>
<name>2381</name>
</trkpt>
<trkpt lat="48.982492" lon="8.661050">
<ele>359.5</ele>
<speed>5.6</speed>
<course>22.1</course>
<desc>Speed 5.6 km/h Distance 3.75 km</desc>
<time>2010-02-28T16:49:02.96</time>
<name>2382</name>
</trkpt>
<trkpt lat="48.982505" lon="8.661058">
<ele>359.5</ele>
<speed>5.6</speed>
<course>26.0</course>
<desc>Speed 5.6 km/h Distance 3.75 km</desc>
<time>2010-02-28T16:49:03.96</time>
<name>2383</name>
</trkpt>
<trkpt lat="48.982518" lon="8.661068">
<ele>359.0</ele>
<speed>5.8</speed>
<course>26.2</course>
<desc>Speed 5.8 km/h Distance 3.75 km</desc>
<time>2010-02-28T16:49:04.96</time>
<name>2384</name>
</trkpt>
<trkpt lat="48.982532" lon="8.661078">
<ele>359.0</ele>
<speed>5.8</speed>
<course>22.3</course>
<desc>Speed 5.8 km/h Distance 3.76 km</desc>
<time>2010-02-28T16:49:05.96</time>
<name>2385</name>
</trkpt>
<trkpt lat="48.982545" lon="8.661087">
<ele>359.0</ele>
<speed>5.6</speed>
<course>33.3</course>
<desc>Speed 5.6 km/h Distance 3.76 km</desc>
<time>2010-02-28T16:49:06.96</time>
<name>2386</name>
</trkpt>
<trkpt lat="48.982557" lon="8.661098">
<ele>359.0</ele>
<speed>5.7</speed>
<course>29.2</course>
<desc>Speed 5.7 km/h Distance 3.76 km</desc>
<time>2010-02-28T16:49:07.96</time>
<name>2387</name>
</trkpt>
<trkpt lat="48.982568" lon="8.661108">
<ele>359.0</ele>
<speed>5.5</speed>
<course>13.5</course>
<desc>Speed 5.5 km/h Distance 3.76 km</desc>
<time>2010-02-28T16:49:08.96</time>
<name>2388</name>
</trkpt>
<trkpt lat="48.982582" lon="8.661113">
<ele>359.0</ele>
<speed>5.4</speed>
<course>20.9</course>
<desc>Speed 5.4 km/h Distance 3.76 km</desc>
<time>2010-02-28T16:49:09.96</time>
<name>2389</name>
</trkpt>
<trkpt lat="48.982593" lon="8.661120">
<ele>359.0</ele>
<speed>5.5</speed>
<course>20.9</course>
<desc>Speed 5.5 km/h Distance 3.76 km</desc>
<time>2010-02-28T16:49:10.96</time>
<name>2390</name>
</trkpt>
<trkpt lat="48.982605" lon="8.661127">
<ele>359.0</ele>
<speed>5.4</speed>
<course>18.1</course>
<desc>Speed 5.4 km/h Distance 3.77 km</desc>
<time>2010-02-28T16:49:11.96</time>
<name>2391</name>
</trkpt>
<trkpt lat="48.982618" lon="8.661133">
<ele>359.0</ele>
<speed>5.5</speed>
<course>20.6</course>
<desc>Speed 5.5 km/h Distance 3.77 km</desc>
<time>2010-02-28T16:49:12.96</time>
<name>2392</name>
</trkpt>
<trkpt lat="48.982630" lon="8.661140">
<ele>359.0</ele>
<speed>5.3</speed>
<course>14.0</course>
<desc>Speed 5.3 km/h Distance 3.77 km</desc>
<time>2010-02-28T16:49:13.96</time>
<name>2393</name>
</trkpt>
<trkpt lat="48.982643" lon="8.661145">
<ele>359.0</ele>
<speed>5.6</speed>
<course>9.7</course>
<desc>Speed 5.6 km/h Distance 3.77 km</desc>
<time>2010-02-28T16:49:14.96</time>
<name>2394</name>
</trkpt>
<trkpt lat="48.982657" lon="8.661148">
<ele>359.0</ele>
<speed>5.5</speed>
<course>1.9</course>
<desc>Speed 5.5 km/h Distance 3.77 km</desc>
<time>2010-02-28T16:49:15.96</time>
<name>2395</name>
</trkpt>
<trkpt lat="48.982672" lon="8.661148">
<ele>358.5</ele>
<speed>5.6</speed>
<course>9.0</course>
<desc>Speed 5.6 km/h Distance 3.77 km</desc>
<time>2010-02-28T16:49:16.96</time>
<name>2396</name>
</trkpt>
<trkpt lat="48.982685" lon="8.661152">
<ele>358.5</ele>
<speed>5.8</speed>
<course>18.1</course>
<desc>Speed 5.8 km/h Distance 3.77 km</desc>
<time>2010-02-28T16:49:17.96</time>
<name>2397</name>
</trkpt>
<trkpt lat="48.982698" lon="8.661158">
<ele>358.0</ele>
<speed>5.6</speed>
<course>18.4</course>
<desc>Speed 5.6 km/h Distance 3.78 km</desc>
<time>2010-02-28T16:49:18.96</time>
<name>2398</name>
</trkpt>
<trkpt lat="48.982712" lon="8.661165">
<ele>358.0</ele>
<speed>5.7</speed>
<course>18.1</course>
<desc>Speed 5.7 km/h Distance 3.78 km</desc>
<time>2010-02-28T16:49:19.96</time>
<name>2399</name>
</trkpt>
<trkpt lat="48.982725" lon="8.661172">
<ele>358.0</ele>
<speed>5.8</speed>
<course>22.1</course>
<desc>Speed 5.8 km/h Distance 3.78 km</desc>
<time>2010-02-28T16:49:20.96</time>
<name>2400</name>
</trkpt>
<trkpt lat="48.982738" lon="8.661180">
<ele>357.5</ele>
<speed>5.8</speed>
<course>16.6</course>
<desc>Speed 5.8 km/h Distance 3.78 km</desc>
<time>2010-02-28T16:49:21.96</time>
<name>2401</name>
</trkpt>
<trkpt lat="48.982753" lon="8.661187">
<ele>357.5</ele>
<speed>5.8</speed>
<course>22.3</course>
<desc>Speed 5.8 km/h Distance 3.78 km</desc>
<time>2010-02-28T16:49:22.96</time>
<name>2402</name>
</trkpt>
<trkpt lat="48.982767" lon="8.661195">
<ele>357.5</ele>
<speed>5.8</speed>
<course>16.0</course>
<desc>Speed 5.8 km/h Distance 3.78 km</desc>
<time>2010-02-28T16:49:23.96</time>
<name>2403</name>
</trkpt>
<trkpt lat="48.982782" lon="8.661202">
<ele>357.5</ele>
<speed>5.6</speed>
<course>18.1</course>
<desc>Speed 5.6 km/h Distance 3.79 km</desc>
<time>2010-02-28T16:49:24.96</time>
<name>2404</name>
</trkpt>
<trkpt lat="48.982795" lon="8.661208">
<ele>357.5</ele>
<speed>5.6</speed>
<course>13.5</course>
<desc>Speed 5.6 km/h Distance 3.79 km</desc>
<time>2010-02-28T16:49:25.96</time>
<name>2405</name>
</trkpt>
<trkpt lat="48.982808" lon="8.661213">
<ele>357.0</ele>
<speed>5.6</speed>
<course>18.1</course>
<desc>Speed 5.6 km/h Distance 3.79 km</desc>
<time>2010-02-28T16:49:26.96</time>
<name>2406</name>
</trkpt>
<trkpt lat="48.982822" lon="8.661220">
<ele>357.0</ele>
<speed>5.3</speed>
<course>20.6</course>
<desc>Speed 5.3 km/h Distance 3.79 km</desc>
<time>2010-02-28T16:49:27.96</time>
<name>2407</name>
</trkpt>
<trkpt lat="48.982833" lon="8.661227">
<ele>357.0</ele>
<speed>5.7</speed>
<course>20.1</course>
<desc>Speed 5.7 km/h Distance 3.79 km</desc>
<time>2010-02-28T16:49:28.96</time>
<name>2408</name>
</trkpt>
<trkpt lat="48.982848" lon="8.661235">
<ele>357.0</ele>
<speed>5.9</speed>
<course>18.1</course>
<desc>Speed 5.9 km/h Distance 3.79 km</desc>
<time>2010-02-28T16:49:29.96</time>
<name>2409</name>
</trkpt>
<trkpt lat="48.982862" lon="8.661242">
<ele>357.0</ele>
<speed>5.8</speed>
<course>22.3</course>
<desc>Speed 5.8 km/h Distance 3.80 km</desc>
<time>2010-02-28T16:49:30.96</time>
<name>2410</name>
</trkpt>
<trkpt lat="48.982875" lon="8.661250">
<ele>357.0</ele>
<speed>5.8</speed>
<course>18.4</course>
<desc>Speed 5.8 km/h Distance 3.80 km</desc>
<time>2010-02-28T16:49:31.96</time>
<name>2411</name>
</trkpt>
<trkpt lat="48.982888" lon="8.661257">
<ele>357.0</ele>
<speed>5.8</speed>
<course>12.2</course>
<desc>Speed 5.8 km/h Distance 3.80 km</desc>
<time>2010-02-28T16:49:32.96</time>
<name>2412</name>
</trkpt>
<trkpt lat="48.982903" lon="8.661262">
<ele>357.0</ele>
<speed>5.9</speed>
<course>13.5</course>
<desc>Speed 5.9 km/h Distance 3.80 km</desc>
<time>2010-02-28T16:49:33.96</time>
<name>2413</name>
</trkpt>
<trkpt lat="48.982917" lon="8.661267">
<ele>357.0</ele>
<speed>5.8</speed>
<course>13.5</course>
<desc>Speed 5.8 km/h Distance 3.80 km</desc>
<time>2010-02-28T16:49:34.96</time>
<name>2414</name>
</trkpt>
<trkpt lat="48.982930" lon="8.661272">
<ele>356.5</ele>
<speed>5.1</speed>
<course>9.0</course>
<desc>Speed 5.1 km/h Distance 3.80 km</desc>
<time>2010-02-28T16:49:35.96</time>
<name>2415</name>
</trkpt>
<trkpt lat="48.982943" lon="8.661275">
<ele>356.5</ele>
<speed>5.3</speed>
<course>356.2</course>
<desc>Speed 5.3 km/h Distance 3.80 km</desc>
<time>2010-02-28T16:49:36.96</time>
<name>2416</name>
</trkpt>
<trkpt lat="48.982958" lon="8.661273">
<ele>356.0</ele>
<speed>5.6</speed>
<course>355.3</course>
<desc>Speed 5.6 km/h Distance 3.81 km</desc>
<time>2010-02-28T16:49:37.96</time>
<name>2417</name>
</trkpt>
<trkpt lat="48.982970" lon="8.661272">
<ele>356.0</ele>
<speed>4.9</speed>
<course>356.1</course>
<desc>Speed 4.9 km/h Distance 3.81 km</desc>
<time>2010-02-28T16:49:38.96</time>
<name>2418</name>
</trkpt>
<trkpt lat="48.982983" lon="8.661270">
<ele>356.5</ele>
<speed>4.8</speed>
<course>351.0</course>
<desc>Speed 4.8 km/h Distance 3.81 km</desc>
<time>2010-02-28T16:49:39.96</time>
<name>2419</name>
</trkpt>
<trkpt lat="48.982997" lon="8.661267">
<ele>356.0</ele>
<speed>5.3</speed>
<course>346.5</course>
<desc>Speed 5.3 km/h Distance 3.81 km</desc>
<time>2010-02-28T16:49:40.96</time>
<name>2420</name>
</trkpt>
<trkpt lat="48.983010" lon="8.661262">
<ele>356.0</ele>
<speed>5.1</speed>
<course>339.4</course>
<desc>Speed 5.1 km/h Distance 3.81 km</desc>
<time>2010-02-28T16:49:41.96</time>
<name>2421</name>
</trkpt>
<trkpt lat="48.983022" lon="8.661255">
<ele>356.0</ele>
<speed>4.8</speed>
<course>330.6</course>
<desc>Speed 4.8 km/h Distance 3.81 km</desc>
<time>2010-02-28T16:49:42.96</time>
<name>2422</name>
</trkpt>
<trkpt lat="48.983033" lon="8.661245">
<ele>356.0</ele>
<speed>5.3</speed>
<course>318.8</course>
<desc>Speed 5.3 km/h Distance 3.82 km</desc>
<time>2010-02-28T16:49:43.96</time>
<name>2423</name>
</trkpt>
<trkpt lat="48.983043" lon="8.661232">
<ele>356.0</ele>
<speed>5.1</speed>
<course>299.0</course>
<desc>Speed 5.1 km/h Distance 3.82 km</desc>
<time>2010-02-28T16:49:44.96</time>
<name>2424</name>
</trkpt>
<trkpt lat="48.983050" lon="8.661213">
<ele>355.5</ele>
<speed>5.3</speed>
<course>283.2</course>
<desc>Speed 5.3 km/h Distance 3.82 km</desc>
<time>2010-02-28T16:49:45.96</time>
<name>2425</name>
</trkpt>
<trkpt lat="48.983053" lon="8.661192">
<ele>355.5</ele>
<speed>5.5</speed>
<course>292.6</course>
<desc>Speed 5.5 km/h Distance 3.82 km</desc>
<time>2010-02-28T16:49:46.96</time>
<name>2426</name>
</trkpt>
<trkpt lat="48.983058" lon="8.661173">
<ele>356.0</ele>
<speed>5.3</speed>
<course>289.4</course>
<desc>Speed 5.3 km/h Distance 3.82 km</desc>
<time>2010-02-28T16:49:47.96</time>
<name>2427</name>
</trkpt>
<trkpt lat="48.983063" lon="8.661152">
<ele>355.5</ele>
<speed>5.5</speed>
<course>290.9</course>
<desc>Speed 5.5 km/h Distance 3.82 km</desc>
<time>2010-02-28T16:49:48.96</time>
<name>2428</name>
</trkpt>
<trkpt lat="48.983068" lon="8.661132">
<ele>356.0</ele>
<speed>5.6</speed>
<course>284.2</course>
<desc>Speed 5.6 km/h Distance 3.82 km</desc>
<time>2010-02-28T16:49:49.96</time>
<name>2429</name>
</trkpt>
<trkpt lat="48.983072" lon="8.661112">
<ele>355.5</ele>
<speed>5.3</speed>
<course>283.2</course>
<desc>Speed 5.3 km/h Distance 3.83 km</desc>
<time>2010-02-28T16:49:50.96</time>
<name>2430</name>
</trkpt>
<trkpt lat="48.983075" lon="8.661090">
<ele>355.5</ele>
<speed>5.4</speed>
<course>284.2</course>
<desc>Speed 5.4 km/h Distance 3.83 km</desc>
<time>2010-02-28T16:49:51.96</time>
<name>2431</name>
</trkpt>
<trkpt lat="48.983078" lon="8.661070">
<ele>355.5</ele>
<speed>5.6</speed>
<course>270.0</course>
<desc>Speed 5.6 km/h Distance 3.83 km</desc>
<time>2010-02-28T16:49:52.96</time>
<name>2432</name>
</trkpt>
<trkpt lat="48.983078" lon="8.661050">
<ele>355.5</ele>
<speed>5.3</speed>
<course>290.8</course>
<desc>Speed 5.3 km/h Distance 3.83 km</desc>
<time>2010-02-28T16:49:53.96</time>
<name>2433</name>
</trkpt>
<trkpt lat="48.983083" lon="8.661030">
<ele>355.5</ele>
<speed>5.3</speed>
<course>290.8</course>
<desc>Speed 5.3 km/h Distance 3.83 km</desc>
<time>2010-02-28T16:49:54.96</time>
<name>2434</name>
</trkpt>
<trkpt lat="48.983088" lon="8.661010">
<ele>355.5</ele>
<speed>5.5</speed>
<course>277.2</course>
<desc>Speed 5.5 km/h Distance 3.83 km</desc>
<time>2010-02-28T16:49:55.96</time>
<name>2435</name>
</trkpt>
<trkpt lat="48.983090" lon="8.660990">
<ele>355.0</ele>
<speed>5.5</speed>
<course>270.0</course>
<desc>Speed 5.5 km/h Distance 3.84 km</desc>
<time>2010-02-28T16:49:56.96</time>
<name>2436</name>
</trkpt>
<trkpt lat="48.983090" lon="8.660970">
<ele>354.5</ele>
<speed>5.2</speed>
<course>292.6</course>
<desc>Speed 5.2 km/h Distance 3.84 km</desc>
<time>2010-02-28T16:49:57.96</time>
<name>2437</name>
</trkpt>
<trkpt lat="48.983095" lon="8.660952">
<ele>354.5</ele>
<speed>5.0</speed>
<course>277.2</course>
<desc>Speed 5.0 km/h Distance 3.84 km</desc>
<time>2010-02-28T16:49:58.96</time>
<name>2438</name>
</trkpt>
<trkpt lat="48.983097" lon="8.660932">
<ele>354.0</ele>
<speed>5.2</speed>
<course>285.5</course>
<desc>Speed 5.2 km/h Distance 3.84 km</desc>
<time>2010-02-28T16:49:59.96</time>
<name>2439</name>
</trkpt>
<trkpt lat="48.983100" lon="8.660913">
<ele>354.5</ele>
<speed>5.1</speed>
<course>284.3</course>
<desc>Speed 5.1 km/h Distance 3.84 km</desc>
<time>2010-02-28T16:50:00.96</time>
<name>2440</name>
</trkpt>
<trkpt lat="48.983103" lon="8.660893">
<ele>354.0</ele>
<speed>5.3</speed>
<course>284.2</course>
<desc>Speed 5.3 km/h Distance 3.84 km</desc>
<time>2010-02-28T16:50:01.96</time>
<name>2441</name>
</trkpt>
<trkpt lat="48.983107" lon="8.660873">
<ele>354.0</ele>
<speed>5.3</speed>
<course>284.2</course>
<desc>Speed 5.3 km/h Distance 3.84 km</desc>
<time>2010-02-28T16:50:02.96</time>
<name>2442</name>
</trkpt>
<trkpt lat="48.983110" lon="8.660853">
<ele>354.0</ele>
<speed>5.6</speed>
<course>283.2</course>
<desc>Speed 5.6 km/h Distance 3.85 km</desc>
<time>2010-02-28T16:50:03.96</time>
<name>2443</name>
</trkpt>
<trkpt lat="48.983113" lon="8.660832">
<ele>354.0</ele>
<speed>5.6</speed>
<course>283.2</course>
<desc>Speed 5.6 km/h Distance 3.85 km</desc>
<time>2010-02-28T16:50:04.96</time>
<name>2444</name>
</trkpt>
<trkpt lat="48.983117" lon="8.660810">
<ele>354.0</ele>
<speed>5.7</speed>
<course>283.2</course>
<desc>Speed 5.7 km/h Distance 3.85 km</desc>
<time>2010-02-28T16:50:05.96</time>
<name>2445</name>
</trkpt>
<trkpt lat="48.983120" lon="8.660788">
<ele>354.0</ele>
<speed>5.6</speed>
<course>270.0</course>
<desc>Speed 5.6 km/h Distance 3.85 km</desc>
<time>2010-02-28T16:50:06.96</time>
<name>2446</name>
</trkpt>
<trkpt lat="48.983120" lon="8.660768">
<ele>354.0</ele>
<speed>5.4</speed>
<course>270.0</course>
<desc>Speed 5.4 km/h Distance 3.85 km</desc>
<time>2010-02-28T16:50:07.96</time>
<name>2447</name>
</trkpt>
<trkpt lat="48.983120" lon="8.660748">
<ele>353.5</ele>
<speed>5.4</speed>
<course>283.2</course>
<desc>Speed 5.4 km/h Distance 3.85 km</desc>
<time>2010-02-28T16:50:08.96</time>
<name>2448</name>
</trkpt>
<trkpt lat="48.983123" lon="8.660727">
<ele>353.5</ele>
<speed>5.4</speed>
<course>277.2</course>
<desc>Speed 5.4 km/h Distance 3.85 km</desc>
<time>2010-02-28T16:50:09.96</time>
<name>2449</name>
</trkpt>
<trkpt lat="48.983125" lon="8.660707">
<ele>353.5</ele>
<speed>5.5</speed>
<course>284.2</course>
<desc>Speed 5.5 km/h Distance 3.86 km</desc>
<time>2010-02-28T16:50:10.96</time>
<name>2450</name>
</trkpt>
<trkpt lat="48.983128" lon="8.660687">
<ele>353.5</ele>
<speed>5.5</speed>
<course>283.2</course>
<desc>Speed 5.5 km/h Distance 3.86 km</desc>
<time>2010-02-28T16:50:11.96</time>
<name>2451</name>
</trkpt>
<trkpt lat="48.983132" lon="8.660665">
<ele>353.5</ele>
<speed>5.5</speed>
<course>276.7</course>
<desc>Speed 5.5 km/h Distance 3.86 km</desc>
<time>2010-02-28T16:50:12.96</time>
<name>2452</name>
</trkpt>
<trkpt lat="48.983133" lon="8.660643">
<ele>353.5</ele>
<speed>5.6</speed>
<course>283.2</course>
<desc>Speed 5.6 km/h Distance 3.86 km</desc>
<time>2010-02-28T16:50:13.96</time>
<name>2453</name>
</trkpt>
<trkpt lat="48.983137" lon="8.660622">
<ele>353.5</ele>
<speed>5.5</speed>
<course>277.2</course>
<desc>Speed 5.5 km/h Distance 3.86 km</desc>
<time>2010-02-28T16:50:14.96</time>
<name>2454</name>
</trkpt>
<trkpt lat="48.983138" lon="8.660602">
<ele>353.5</ele>
<speed>5.4</speed>
<course>276.7</course>
<desc>Speed 5.4 km/h Distance 3.86 km</desc>
<time>2010-02-28T16:50:15.96</time>
<name>2455</name>
</trkpt>
<trkpt lat="48.983140" lon="8.660580">
<ele>353.5</ele>
<speed>5.4</speed>
<course>284.2</course>
<desc>Speed 5.4 km/h Distance 3.87 km</desc>
<time>2010-02-28T16:50:16.96</time>
<name>2456</name>
</trkpt>
<trkpt lat="48.983143" lon="8.660560">
<ele>353.0</ele>
<speed>5.5</speed>
<course>283.2</course>
<desc>Speed 5.5 km/h Distance 3.87 km</desc>
<time>2010-02-28T16:50:17.96</time>
<name>2457</name>
</trkpt>
<trkpt lat="48.983147" lon="8.660538">
<ele>353.0</ele>
<speed>5.6</speed>
<course>283.2</course>
<desc>Speed 5.6 km/h Distance 3.87 km</desc>
<time>2010-02-28T16:50:18.96</time>
<name>2458</name>
</trkpt>
<trkpt lat="48.983150" lon="8.660517">
<ele>353.0</ele>
<speed>5.5</speed>
<course>284.2</course>
<desc>Speed 5.5 km/h Distance 3.87 km</desc>
<time>2010-02-28T16:50:19.96</time>
<name>2459</name>
</trkpt>
<trkpt lat="48.983153" lon="8.660497">
<ele>352.5</ele>
<speed>5.5</speed>
<course>289.4</course>
<desc>Speed 5.5 km/h Distance 3.87 km</desc>
<time>2010-02-28T16:50:20.96</time>
<name>2460</name>
</trkpt>
<trkpt lat="48.983158" lon="8.660475">
<ele>352.0</ele>
<speed>5.7</speed>
<course>290.8</course>
<desc>Speed 5.7 km/h Distance 3.87 km</desc>
<time>2010-02-28T16:50:21.96</time>
<name>2461</name>
</trkpt>
<trkpt lat="48.983163" lon="8.660455">
<ele>352.0</ele>
<speed>5.6</speed>
<course>284.2</course>
<desc>Speed 5.6 km/h Distance 3.88 km</desc>
<time>2010-02-28T16:50:22.96</time>
<name>2462</name>
</trkpt>
<trkpt lat="48.983167" lon="8.660435">
<ele>352.5</ele>
<speed>5.3</speed>
<course>284.2</course>
<desc>Speed 5.3 km/h Distance 3.88 km</desc>
<time>2010-02-28T16:50:23.96</time>
<name>2463</name>
</trkpt>
<trkpt lat="48.983170" lon="8.660415">
<ele>352.5</ele>
<speed>5.4</speed>
<course>270.0</course>
<desc>Speed 5.4 km/h Distance 3.88 km</desc>
<time>2010-02-28T16:50:24.96</time>
<name>2464</name>
</trkpt>
<trkpt lat="48.983170" lon="8.660392">
<ele>352.5</ele>
<speed>5.5</speed>
<course>277.2</course>
<desc>Speed 5.5 km/h Distance 3.88 km</desc>
<time>2010-02-28T16:50:25.96</time>
<name>2465</name>
</trkpt>
<trkpt lat="48.983172" lon="8.660372">
<ele>352.5</ele>
<speed>5.6</speed>
<course>283.2</course>
<desc>Speed 5.6 km/h Distance 3.88 km</desc>
<time>2010-02-28T16:50:26.96</time>
<name>2466</name>
</trkpt>
<trkpt lat="48.983175" lon="8.660350">
<ele>352.5</ele>
<speed>5.7</speed>
<course>282.3</course>
<desc>Speed 5.7 km/h Distance 3.88 km</desc>
<time>2010-02-28T16:50:27.96</time>
<name>2467</name>
</trkpt>
<trkpt lat="48.983178" lon="8.660327">
<ele>352.5</ele>
<speed>5.8</speed>
<course>283.2</course>
<desc>Speed 5.8 km/h Distance 3.88 km</desc>
<time>2010-02-28T16:50:28.96</time>
<name>2468</name>
</trkpt>
<trkpt lat="48.983182" lon="8.660305">
<ele>352.5</ele>
<speed>5.8</speed>
<course>276.7</course>
<desc>Speed 5.8 km/h Distance 3.89 km</desc>
<time>2010-02-28T16:50:29.96</time>
<name>2469</name>
</trkpt>
<trkpt lat="48.983183" lon="8.660283">
<ele>352.5</ele>
<speed>5.8</speed>
<course>283.2</course>
<desc>Speed 5.8 km/h Distance 3.89 km</desc>
<time>2010-02-28T16:50:30.96</time>
<name>2470</name>
</trkpt>
<trkpt lat="48.983187" lon="8.660262">
<ele>352.5</ele>
<speed>5.7</speed>
<course>283.2</course>
<desc>Speed 5.7 km/h Distance 3.89 km</desc>
<time>2010-02-28T16:50:31.96</time>
<name>2471</name>
</trkpt>
<trkpt lat="48.983190" lon="8.660240">
<ele>352.5</ele>
<speed>5.7</speed>
<course>290.9</course>
<desc>Speed 5.7 km/h Distance 3.89 km</desc>
<time>2010-02-28T16:50:32.96</time>
<name>2472</name>
</trkpt>
<trkpt lat="48.983195" lon="8.660220">
<ele>352.5</ele>
<speed>5.7</speed>
<course>283.2</course>
<desc>Speed 5.7 km/h Distance 3.89 km</desc>
<time>2010-02-28T16:50:33.96</time>
<name>2473</name>
</trkpt>
<trkpt lat="48.983198" lon="8.660198">
<ele>353.0</ele>
<speed>5.6</speed>
<course>276.7</course>
<desc>Speed 5.6 km/h Distance 3.89 km</desc>
<time>2010-02-28T16:50:34.96</time>
<name>2474</name>
</trkpt>
<trkpt lat="48.983200" lon="8.660177">
<ele>352.5</ele>
<speed>5.7</speed>
<course>270.0</course>
<desc>Speed 5.7 km/h Distance 3.90 km</desc>
<time>2010-02-28T16:50:35.96</time>
<name>2475</name>
</trkpt>
<trkpt lat="48.983200" lon="8.660153">
<ele>352.5</ele>
<speed>5.9</speed>
<course>276.2</course>
<desc>Speed 5.9 km/h Distance 3.90 km</desc>
<time>2010-02-28T16:50:36.96</time>
<name>2476</name>
</trkpt>
<trkpt lat="48.983202" lon="8.660130">
<ele>352.5</ele>
<speed>5.9</speed>
<course>283.2</course>
<desc>Speed 5.9 km/h Distance 3.90 km</desc>
<time>2010-02-28T16:50:37.96</time>
<name>2477</name>
</trkpt>
<trkpt lat="48.983205" lon="8.660108">
<ele>352.5</ele>
<speed>5.7</speed>
<course>276.7</course>
<desc>Speed 5.7 km/h Distance 3.90 km</desc>
<time>2010-02-28T16:50:38.96</time>
<name>2478</name>
</trkpt>
<trkpt lat="48.983207" lon="8.660087">
<ele>352.5</ele>
<speed>5.7</speed>
<course>277.2</course>
<desc>Speed 5.7 km/h Distance 3.90 km</desc>
<time>2010-02-28T16:50:39.96</time>
<name>2479</name>
</trkpt>
<trkpt lat="48.983208" lon="8.660067">
<ele>352.5</ele>
<speed>5.4</speed>
<course>276.7</course>
<desc>Speed 5.4 km/h Distance 3.90 km</desc>
<time>2010-02-28T16:50:40.96</time>
<name>2480</name>
</trkpt>
<trkpt lat="48.983210" lon="8.660045">
<ele>352.5</ele>
<speed>5.6</speed>
<course>276.2</course>
<desc>Speed 5.6 km/h Distance 3.91 km</desc>
<time>2010-02-28T16:50:41.96</time>
<name>2481</name>
</trkpt>
<trkpt lat="48.983212" lon="8.660022">
<ele>352.5</ele>
<speed>5.9</speed>
<course>276.7</course>
<desc>Speed 5.9 km/h Distance 3.91 km</desc>
<time>2010-02-28T16:50:42.96</time>
<name>2482</name>
</trkpt>
<trkpt lat="48.983213" lon="8.660000">
<ele>352.5</ele>
<speed>6.0</speed>
<course>282.3</course>
<desc>Speed 6.0 km/h Distance 3.91 km</desc>
<time>2010-02-28T16:50:43.96</time>
<name>2483</name>
</trkpt>
<trkpt lat="48.983217" lon="8.659977">
<ele>352.5</ele>
<speed>6.0</speed>
<course>276.7</course>
<desc>Speed 6.0 km/h Distance 3.91 km</desc>
<time>2010-02-28T16:50:44.96</time>
<name>2484</name>
</trkpt>
<trkpt lat="48.983218" lon="8.659955">
<ele>352.5</ele>
<speed>5.5</speed>
<course>276.7</course>
<desc>Speed 5.5 km/h Distance 3.91 km</desc>
<time>2010-02-28T16:50:45.96</time>
<name>2485</name>
</trkpt>
<trkpt lat="48.983220" lon="8.659933">
<ele>352.5</ele>
<speed>5.5</speed>
<course>270.0</course>
<desc>Speed 5.5 km/h Distance 3.91 km</desc>
<time>2010-02-28T16:50:46.96</time>
<name>2486</name>
</trkpt>
<trkpt lat="48.983220" lon="8.659915">
<ele>352.5</ele>
<speed>4.8</speed>
<course>277.9</course>
<desc>Speed 4.8 km/h Distance 3.92 km</desc>
<time>2010-02-28T16:50:47.96</time>
<name>2487</name>
</trkpt>
<trkpt lat="48.983222" lon="8.659897">
<ele>352.5</ele>
<speed>5.1</speed>
<course>270.0</course>
<desc>Speed 5.1 km/h Distance 3.92 km</desc>
<time>2010-02-28T16:50:48.96</time>
<name>2488</name>
</trkpt>
<trkpt lat="48.983222" lon="8.659875">
<ele>352.5</ele>
<speed>5.5</speed>
<course>276.7</course>
<desc>Speed 5.5 km/h Distance 3.92 km</desc>
<time>2010-02-28T16:50:49.96</time>
<name>2489</name>
</trkpt>
<trkpt lat="48.983223" lon="8.659853">
<ele>352.5</ele>
<speed>5.5</speed>
<course>276.7</course>
<desc>Speed 5.5 km/h Distance 3.92 km</desc>
<time>2010-02-28T16:50:50.96</time>
<name>2490</name>
</trkpt>
<trkpt lat="48.983225" lon="8.659832">
<ele>352.5</ele>
<speed>5.7</speed>
<course>283.2</course>
<desc>Speed 5.7 km/h Distance 3.92 km</desc>
<time>2010-02-28T16:50:51.96</time>
<name>2491</name>
</trkpt>
<trkpt lat="48.983228" lon="8.659810">
<ele>352.5</ele>
<speed>5.6</speed>
<course>283.2</course>
<desc>Speed 5.6 km/h Distance 3.92 km</desc>
<time>2010-02-28T16:50:52.96</time>
<name>2492</name>
</trkpt>
<trkpt lat="48.983232" lon="8.659788">
<ele>352.5</ele>
<speed>5.6</speed>
<course>284.3</course>
<desc>Speed 5.6 km/h Distance 3.92 km</desc>
<time>2010-02-28T16:50:53.96</time>
<name>2493</name>
</trkpt>
<trkpt lat="48.983235" lon="8.659768">
<ele>352.5</ele>
<speed>5.7</speed>
<course>276.7</course>
<desc>Speed 5.7 km/h Distance 3.93 km</desc>
<time>2010-02-28T16:50:54.96</time>
<name>2494</name>
</trkpt>
<trkpt lat="48.983237" lon="8.659747">
<ele>352.5</ele>
<speed>5.4</speed>
<course>284.2</course>
<desc>Speed 5.4 km/h Distance 3.93 km</desc>
<time>2010-02-28T16:50:55.96</time>
<name>2495</name>
</trkpt>
<trkpt lat="48.983240" lon="8.659727">
<ele>352.5</ele>
<speed>5.4</speed>
<course>284.2</course>
<desc>Speed 5.4 km/h Distance 3.93 km</desc>
<time>2010-02-28T16:50:56.96</time>
<name>2496</name>
</trkpt>
<trkpt lat="48.983243" lon="8.659707">
<ele>352.5</ele>
<speed>5.5</speed>
<course>283.2</course>
<desc>Speed 5.5 km/h Distance 3.93 km</desc>
<time>2010-02-28T16:50:57.96</time>
<name>2497</name>
</trkpt>
<trkpt lat="48.983247" lon="8.659685">
<ele>352.5</ele>
<speed>5.7</speed>
<course>276.7</course>
<desc>Speed 5.7 km/h Distance 3.93 km</desc>
<time>2010-02-28T16:50:58.96</time>
<name>2498</name>
</trkpt>
<trkpt lat="48.983248" lon="8.659663">
<ele>352.5</ele>
<speed>5.6</speed>
<course>276.7</course>
<desc>Speed 5.6 km/h Distance 3.93 km</desc>
<time>2010-02-28T16:50:59.96</time>
<name>2499</name>
</trkpt>
<trkpt lat="48.983250" lon="8.659642">
<ele>352.5</ele>
<speed>5.7</speed>
<course>277.2</course>
<desc>Speed 5.7 km/h Distance 3.94 km</desc>
<time>2010-02-28T16:51:00.96</time>
<name>2500</name>
</trkpt>
<trkpt lat="48.983252" lon="8.659622">
<ele>352.5</ele>
<speed>5.5</speed>
<course>276.7</course>
<desc>Speed 5.5 km/h Distance 3.94 km</desc>
<time>2010-02-28T16:51:01.96</time>
<name>2501</name>
</trkpt>
<trkpt lat="48.983253" lon="8.659600">
<ele>352.5</ele>
<speed>5.8</speed>
<course>283.2</course>
<desc>Speed 5.8 km/h Distance 3.94 km</desc>
<time>2010-02-28T16:51:02.96</time>
<name>2502</name>
</trkpt>
<trkpt lat="48.983257" lon="8.659578">
<ele>352.5</ele>
<speed>5.8</speed>
<course>283.2</course>
<desc>Speed 5.8 km/h Distance 3.94 km</desc>
<time>2010-02-28T16:51:03.96</time>
<name>2503</name>
</trkpt>
<trkpt lat="48.983260" lon="8.659557">
<ele>353.0</ele>
<speed>5.8</speed>
<course>290.9</course>
<desc>Speed 5.8 km/h Distance 3.94 km</desc>
<time>2010-02-28T16:51:04.96</time>
<name>2504</name>
</trkpt>
<trkpt lat="48.983265" lon="8.659537">
<ele>353.0</ele>
<speed>5.5</speed>
<course>283.2</course>
<desc>Speed 5.5 km/h Distance 3.94 km</desc>
<time>2010-02-28T16:51:05.96</time>
<name>2505</name>
</trkpt>
<trkpt lat="48.983268" lon="8.659515">
<ele>353.0</ele>
<speed>5.7</speed>
<course>284.2</course>
<desc>Speed 5.7 km/h Distance 3.95 km</desc>
<time>2010-02-28T16:51:06.96</time>
<name>2506</name>
</trkpt>
<trkpt lat="48.983272" lon="8.659495">
<ele>352.5</ele>
<speed>5.6</speed>
<course>283.2</course>
<desc>Speed 5.6 km/h Distance 3.95 km</desc>
<time>2010-02-28T16:51:07.96</time>
<name>2507</name>
</trkpt>
<trkpt lat="48.983275" lon="8.659473">
<ele>353.0</ele>
<speed>5.7</speed>
<course>276.7</course>
<desc>Speed 5.7 km/h Distance 3.95 km</desc>
<time>2010-02-28T16:51:08.96</time>
<name>2508</name>
</trkpt>
<trkpt lat="48.983277" lon="8.659452">
<ele>353.0</ele>
<speed>5.5</speed>
<course>276.7</course>
<desc>Speed 5.5 km/h Distance 3.95 km</desc>
<time>2010-02-28T16:51:09.96</time>
<name>2509</name>
</trkpt>
<trkpt lat="48.983278" lon="8.659430">
<ele>353.0</ele>
<speed>5.6</speed>
<course>284.2</course>
<desc>Speed 5.6 km/h Distance 3.95 km</desc>
<time>2010-02-28T16:51:10.96</time>
<name>2510</name>
</trkpt>
<trkpt lat="48.983282" lon="8.659410">
<ele>353.0</ele>
<speed>5.6</speed>
<course>283.2</course>
<desc>Speed 5.6 km/h Distance 3.95 km</desc>
<time>2010-02-28T16:51:11.96</time>
<name>2511</name>
</trkpt>
<trkpt lat="48.983285" lon="8.659388">
<ele>353.5</ele>
<speed>5.5</speed>
<course>289.4</course>
<desc>Speed 5.5 km/h Distance 3.95 km</desc>
<time>2010-02-28T16:51:12.96</time>
<name>2512</name>
</trkpt>
<trkpt lat="48.983290" lon="8.659367">
<ele>353.5</ele>
<speed>6.2</speed>
<course>283.2</course>
<desc>Speed 6.2 km/h Distance 3.96 km</desc>
<time>2010-02-28T16:51:13.96</time>
<name>2513</name>
</trkpt>
<trkpt lat="48.983293" lon="8.659345">
<ele>354.0</ele>
<speed>5.5</speed>
<course>284.2</course>
<desc>Speed 5.5 km/h Distance 3.96 km</desc>
<time>2010-02-28T16:51:14.96</time>
<name>2514</name>
</trkpt>
<trkpt lat="48.983297" lon="8.659325">
<ele>354.0</ele>
<speed>5.5</speed>
<course>284.2</course>
<desc>Speed 5.5 km/h Distance 3.96 km</desc>
<time>2010-02-28T16:51:15.96</time>
<name>2515</name>
</trkpt>
<trkpt lat="48.983300" lon="8.659305">
<ele>354.5</ele>
<speed>5.6</speed>
<course>283.2</course>
<desc>Speed 5.6 km/h Distance 3.96 km</desc>
<time>2010-02-28T16:51:16.96</time>
<name>2516</name>
</trkpt>
<trkpt lat="48.983303" lon="8.659283">
<ele>354.5</ele>
<speed>5.5</speed>
<course>285.5</course>
<desc>Speed 5.5 km/h Distance 3.96 km</desc>
<time>2010-02-28T16:51:17.96</time>
<name>2517</name>
</trkpt>
<trkpt lat="48.983307" lon="8.659265">
<ele>354.5</ele>
<speed>5.4</speed>
<course>290.9</course>
<desc>Speed 5.4 km/h Distance 3.96 km</desc>
<time>2010-02-28T16:51:18.96</time>
<name>2518</name>
</trkpt>
<trkpt lat="48.983312" lon="8.659245">
<ele>355.0</ele>
<speed>5.6</speed>
<course>276.7</course>
<desc>Speed 5.6 km/h Distance 3.97 km</desc>
<time>2010-02-28T16:51:19.96</time>
<name>2519</name>
</trkpt>
<trkpt lat="48.983313" lon="8.659223">
<ele>355.0</ele>
<speed>5.6</speed>
<course>283.2</course>
<desc>Speed 5.6 km/h Distance 3.97 km</desc>
<time>2010-02-28T16:51:20.96</time>
<name>2520</name>
</trkpt>
<trkpt lat="48.983317" lon="8.659202">
<ele>355.0</ele>
<speed>5.9</speed>
<course>283.2</course>
<desc>Speed 5.9 km/h Distance 3.97 km</desc>
<time>2010-02-28T16:51:21.96</time>
<name>2521</name>
</trkpt>
<trkpt lat="48.983320" lon="8.659180">
<ele>355.0</ele>
<speed>5.6</speed>
<course>284.2</course>
<desc>Speed 5.6 km/h Distance 3.97 km</desc>
<time>2010-02-28T16:51:22.96</time>
<name>2522</name>
</trkpt>
<trkpt lat="48.983323" lon="8.659160">
<ele>355.0</ele>
<speed>5.6</speed>
<course>284.3</course>
<desc>Speed 5.6 km/h Distance 3.97 km</desc>
<time>2010-02-28T16:51:23.96</time>
<name>2523</name>
</trkpt>
<trkpt lat="48.983327" lon="8.659140">
<ele>355.5</ele>
<speed>5.5</speed>
<course>277.2</course>
<desc>Speed 5.5 km/h Distance 3.97 km</desc>
<time>2010-02-28T16:51:24.96</time>
<name>2524</name>
</trkpt>
<trkpt lat="48.983328" lon="8.659120">
<ele>355.5</ele>
<speed>5.5</speed>
<course>284.2</course>
<desc>Speed 5.5 km/h Distance 3.97 km</desc>
<time>2010-02-28T16:51:25.96</time>
<name>2525</name>
</trkpt>
<trkpt lat="48.983332" lon="8.659100">
<ele>355.5</ele>
<speed>5.4</speed>
<course>277.2</course>
<desc>Speed 5.4 km/h Distance 3.98 km</desc>
<time>2010-02-28T16:51:26.96</time>
<name>2526</name>
</trkpt>
<trkpt lat="48.983333" lon="8.659080">
<ele>355.5</ele>
<speed>5.2</speed>
<course>284.2</course>
<desc>Speed 5.2 km/h Distance 3.98 km</desc>
<time>2010-02-28T16:51:27.96</time>
<name>2527</name>
</trkpt>
<trkpt lat="48.983337" lon="8.659060">
<ele>355.5</ele>
<speed>5.5</speed>
<course>283.2</course>
<desc>Speed 5.5 km/h Distance 3.98 km</desc>
<time>2010-02-28T16:51:28.96</time>
<name>2528</name>
</trkpt>
<trkpt lat="48.983340" lon="8.659038">
<ele>355.5</ele>
<speed>5.5</speed>
<course>285.6</course>
<desc>Speed 5.5 km/h Distance 3.98 km</desc>
<time>2010-02-28T16:51:29.96</time>
<name>2529</name>
</trkpt>
<trkpt lat="48.983343" lon="8.659020">
<ele>355.5</ele>
<speed>5.3</speed>
<course>284.3</course>
<desc>Speed 5.3 km/h Distance 3.98 km</desc>
<time>2010-02-28T16:51:30.96</time>
<name>2530</name>
</trkpt>
<trkpt lat="48.983347" lon="8.659000">
<ele>355.5</ele>
<speed>5.4</speed>
<course>277.2</course>
<desc>Speed 5.4 km/h Distance 3.98 km</desc>
<time>2010-02-28T16:51:31.96</time>
<name>2531</name>
</trkpt>
<trkpt lat="48.983348" lon="8.658980">
<ele>355.5</ele>
<speed>5.3</speed>
<course>284.2</course>
<desc>Speed 5.3 km/h Distance 3.99 km</desc>
<time>2010-02-28T16:51:32.96</time>
<name>2532</name>
</trkpt>
<trkpt lat="48.983352" lon="8.658960">
<ele>355.5</ele>
<speed>5.0</speed>
<course>277.3</course>
<desc>Speed 5.0 km/h Distance 3.99 km</desc>
<time>2010-02-28T16:51:33.96</time>
<name>2533</name>
</trkpt>
<trkpt lat="48.983353" lon="8.658940">
<ele>355.5</ele>
<speed>5.4</speed>
<course>284.2</course>
<desc>Speed 5.4 km/h Distance 3.99 km</desc>
<time>2010-02-28T16:51:34.96</time>
<name>2534</name>
</trkpt>
<trkpt lat="48.983357" lon="8.658920">
<ele>356.0</ele>
<speed>5.1</speed>
<course>315.4</course>
<desc>Speed 5.1 km/h Distance 3.99 km</desc>
<time>2010-02-28T16:51:35.96</time>
<name>2535</name>
</trkpt>
<trkpt lat="48.983367" lon="8.658905">
<ele>356.0</ele>
<speed>5.3</speed>
<course>285.5</course>
<desc>Speed 5.3 km/h Distance 3.99 km</desc>
<time>2010-02-28T16:51:36.96</time>
<name>2536</name>
</trkpt>
<trkpt lat="48.983370" lon="8.658887">
<ele>356.5</ele>
<speed>5.3</speed>
<course>277.9</course>
<desc>Speed 5.3 km/h Distance 3.99 km</desc>
<time>2010-02-28T16:51:37.96</time>
<name>2537</name>
</trkpt>
<trkpt lat="48.983372" lon="8.658868">
<ele>356.5</ele>
<speed>4.7</speed>
<course>244.9</course>
<desc>Speed 4.7 km/h Distance 3.99 km</desc>
<time>2010-02-28T16:51:38.96</time>
<name>2538</name>
</trkpt>
<trkpt lat="48.983365" lon="8.658847">
<ele>355.5</ele>
<speed>6.2</speed>
<course>263.3</course>
<desc>Speed 6.2 km/h Distance 4.00 km</desc>
<time>2010-02-28T16:51:39.96</time>
<name>2539</name>
</trkpt>
<trkpt lat="48.983363" lon="8.658825">
<ele>355.5</ele>
<speed>5.8</speed>
<course>284.2</course>
<desc>Speed 5.8 km/h Distance 4.00 km</desc>
<time>2010-02-28T16:51:40.96</time>
<name>2540</name>
</trkpt>
<trkpt lat="48.983367" lon="8.658805">
<ele>355.5</ele>
<speed>5.4</speed>
<course>284.2</course>
<desc>Speed 5.4 km/h Distance 4.00 km</desc>
<time>2010-02-28T16:51:41.96</time>
<name>2541</name>
</trkpt>
<trkpt lat="48.983370" lon="8.658785">
<ele>356.0</ele>
<speed>5.3</speed>
<course>290.9</course>
<desc>Speed 5.3 km/h Distance 4.00 km</desc>
<time>2010-02-28T16:51:42.96</time>
<name>2542</name>
</trkpt>
<trkpt lat="48.983375" lon="8.658765">
<ele>356.0</ele>
<speed>5.4</speed>
<course>292.6</course>
<desc>Speed 5.4 km/h Distance 4.00 km</desc>
<time>2010-02-28T16:51:43.96</time>
<name>2543</name>
</trkpt>
<trkpt lat="48.983380" lon="8.658747">
<ele>356.5</ele>
<speed>5.1</speed>
<course>270.0</course>
<desc>Speed 5.1 km/h Distance 4.00 km</desc>
<time>2010-02-28T16:51:44.96</time>
<name>2544</name>
</trkpt>
<trkpt lat="48.983380" lon="8.658728">
<ele>356.5</ele>
<speed>4.7</speed>
<course>277.9</course>
<desc>Speed 4.7 km/h Distance 4.00 km</desc>
<time>2010-02-28T16:51:45.96</time>
<name>2545</name>
</trkpt>
<trkpt lat="48.983382" lon="8.658710">
<ele>356.5</ele>
<speed>4.6</speed>
<course>270.0</course>
<desc>Speed 4.6 km/h Distance 4.01 km</desc>
<time>2010-02-28T16:51:46.96</time>
<name>2546</name>
</trkpt>
<trkpt lat="48.983382" lon="8.658693">
<ele>356.5</ele>
<speed>4.7</speed>
<course>284.2</course>
<desc>Speed 4.7 km/h Distance 4.01 km</desc>
<time>2010-02-28T16:51:47.96</time>
<name>2547</name>
</trkpt>
<trkpt lat="48.983385" lon="8.658673">
<ele>356.5</ele>
<speed>4.9</speed>
<course>278.7</course>
<desc>Speed 4.9 km/h Distance 4.01 km</desc>
<time>2010-02-28T16:51:48.96</time>
<name>2548</name>
</trkpt>
<trkpt lat="48.983387" lon="8.658657">
<ele>356.5</ele>
<speed>4.4</speed>
<course>288.7</course>
<desc>Speed 4.4 km/h Distance 4.01 km</desc>
<time>2010-02-28T16:51:49.96</time>
<name>2549</name>
</trkpt>
<trkpt lat="48.983390" lon="8.658642">
<ele>357.0</ele>
<speed>3.9</speed>
<course>287.0</course>
<desc>Speed 3.9 km/h Distance 4.01 km</desc>
<time>2010-02-28T16:51:50.96</time>
<name>2550</name>
</trkpt>
<trkpt lat="48.983393" lon="8.658625">
<ele>357.0</ele>
<speed>4.6</speed>
<course>301.4</course>
<desc>Speed 4.6 km/h Distance 4.01 km</desc>
<time>2010-02-28T16:51:51.96</time>
<name>2551</name>
</trkpt>
<trkpt lat="48.983400" lon="8.658608">
<ele>357.5</ele>
<speed>4.8</speed>
<course>290.9</course>
<desc>Speed 4.8 km/h Distance 4.01 km</desc>
<time>2010-02-28T16:51:52.96</time>
<name>2552</name>
</trkpt>
<trkpt lat="48.983405" lon="8.658588">
<ele>357.5</ele>
<speed>5.0</speed>
<course>270.0</course>
<desc>Speed 5.0 km/h Distance 4.02 km</desc>
<time>2010-02-28T16:51:53.96</time>
<name>2553</name>
</trkpt>
<trkpt lat="48.983405" lon="8.658570">
<ele>358.0</ele>
<speed>5.0</speed>
<course>270.0</course>
<desc>Speed 5.0 km/h Distance 4.02 km</desc>
<time>2010-02-28T16:51:54.96</time>
<name>2554</name>
</trkpt>
<trkpt lat="48.983405" lon="8.658550">
<ele>358.0</ele>
<speed>5.0</speed>
<course>277.2</course>
<desc>Speed 5.0 km/h Distance 4.02 km</desc>
<time>2010-02-28T16:51:55.96</time>
<name>2555</name>
</trkpt>
<trkpt lat="48.983407" lon="8.658530">
<ele>358.5</ele>
<speed>4.9</speed>
<course>256.8</course>
<desc>Speed 4.9 km/h Distance 4.02 km</desc>
<time>2010-02-28T16:51:56.96</time>
<name>2556</name>
</trkpt>
<trkpt lat="48.983403" lon="8.658508">
<ele>358.5</ele>
<speed>5.3</speed>
<course>277.9</course>
<desc>Speed 5.3 km/h Distance 4.02 km</desc>
<time>2010-02-28T16:51:57.96</time>
<name>2557</name>
</trkpt>
<trkpt lat="48.983405" lon="8.658490">
<ele>359.0</ele>
<speed>4.9</speed>
<course>270.0</course>
<desc>Speed 4.9 km/h Distance 4.02 km</desc>
<time>2010-02-28T16:51:58.96</time>
<name>2558</name>
</trkpt>
<trkpt lat="48.983405" lon="8.658472">
<ele>359.0</ele>
<speed>4.4</speed>
<course>286.9</course>
<desc>Speed 4.4 km/h Distance 4.02 km</desc>
<time>2010-02-28T16:51:59.96</time>
<name>2559</name>
</trkpt>
<trkpt lat="48.983408" lon="8.658455">
<ele>359.0</ele>
<speed>4.7</speed>
<course>288.7</course>
<desc>Speed 4.7 km/h Distance 4.03 km</desc>
<time>2010-02-28T16:52:00.96</time>
<name>2560</name>
</trkpt>
<trkpt lat="48.983412" lon="8.658440">
<ele>359.5</ele>
<speed>4.1</speed>
<course>286.9</course>
<desc>Speed 4.1 km/h Distance 4.03 km</desc>
<time>2010-02-28T16:52:01.96</time>
<name>2561</name>
</trkpt>
<trkpt lat="48.983415" lon="8.658423">
<ele>359.5</ele>
<speed>4.6</speed>
<course>277.9</course>
<desc>Speed 4.6 km/h Distance 4.03 km</desc>
<time>2010-02-28T16:52:02.96</time>
<name>2562</name>
</trkpt>
<trkpt lat="48.983417" lon="8.658405">
<ele>359.5</ele>
<speed>4.7</speed>
<course>277.9</course>
<desc>Speed 4.7 km/h Distance 4.03 km</desc>
<time>2010-02-28T16:52:03.96</time>
<name>2563</name>
</trkpt>
<trkpt lat="48.983418" lon="8.658387">
<ele>359.5</ele>
<speed>4.9</speed>
<course>278.7</course>
<desc>Speed 4.9 km/h Distance 4.03 km</desc>
<time>2010-02-28T16:52:04.96</time>
<name>2564</name>
</trkpt>
<trkpt lat="48.983420" lon="8.658370">
<ele>359.5</ele>
<speed>4.5</speed>
<course>270.0</course>
<desc>Speed 4.5 km/h Distance 4.03 km</desc>
<time>2010-02-28T16:52:05.96</time>
<name>2565</name>
</trkpt>
<trkpt lat="48.983420" lon="8.658355">
<ele>359.5</ele>
<speed>3.7</speed>
<course>270.0</course>
<desc>Speed 3.7 km/h Distance 4.03 km</desc>
<time>2010-02-28T16:52:06.96</time>
<name>2566</name>
</trkpt>
<trkpt lat="48.983420" lon="8.658338">
<ele>359.5</ele>
<speed>4.4</speed>
<course>277.2</course>
<desc>Speed 4.4 km/h Distance 4.03 km</desc>
<time>2010-02-28T16:52:07.96</time>
<name>2567</name>
</trkpt>
<trkpt lat="48.983422" lon="8.658318">
<ele>359.5</ele>
<speed>5.1</speed>
<course>285.5</course>
<desc>Speed 5.1 km/h Distance 4.04 km</desc>
<time>2010-02-28T16:52:08.96</time>
<name>2568</name>
</trkpt>
<trkpt lat="48.983425" lon="8.658300">
<ele>359.5</ele>
<speed>4.9</speed>
<course>285.5</course>
<desc>Speed 4.9 km/h Distance 4.04 km</desc>
<time>2010-02-28T16:52:09.96</time>
<name>2569</name>
</trkpt>
<trkpt lat="48.983428" lon="8.658282">
<ele>360.0</ele>
<speed>5.2</speed>
<course>292.6</course>
<desc>Speed 5.2 km/h Distance 4.04 km</desc>
<time>2010-02-28T16:52:10.96</time>
<name>2570</name>
</trkpt>
<trkpt lat="48.983433" lon="8.658263">
<ele>360.0</ele>
<speed>4.6</speed>
<course>277.9</course>
<desc>Speed 4.6 km/h Distance 4.04 km</desc>
<time>2010-02-28T16:52:11.96</time>
<name>2571</name>
</trkpt>
<trkpt lat="48.983435" lon="8.658245">
<ele>360.0</ele>
<speed>5.0</speed>
<course>284.3</course>
<desc>Speed 5.0 km/h Distance 4.04 km</desc>
<time>2010-02-28T16:52:12.96</time>
<name>2572</name>
</trkpt>
<trkpt lat="48.983438" lon="8.658225">
<ele>360.0</ele>
<speed>5.2</speed>
<course>284.3</course>
<desc>Speed 5.2 km/h Distance 4.04 km</desc>
<time>2010-02-28T16:52:13.96</time>
<name>2573</name>
</trkpt>
<trkpt lat="48.983442" lon="8.658205">
<ele>360.0</ele>
<speed>5.1</speed>
<course>296.9</course>
<desc>Speed 5.1 km/h Distance 4.04 km</desc>
<time>2010-02-28T16:52:14.96</time>
<name>2574</name>
</trkpt>
<trkpt lat="48.983448" lon="8.658185">
<ele>360.0</ele>
<speed>5.4</speed>
<course>299.0</course>
<desc>Speed 5.4 km/h Distance 4.05 km</desc>
<time>2010-02-28T16:52:15.96</time>
<name>2575</name>
</trkpt>
<trkpt lat="48.983455" lon="8.658167">
<ele>360.0</ele>
<speed>5.1</speed>
<course>299.0</course>
<desc>Speed 5.1 km/h Distance 4.05 km</desc>
<time>2010-02-28T16:52:16.96</time>
<name>2576</name>
</trkpt>
<trkpt lat="48.983462" lon="8.658148">
<ele>360.0</ele>
<speed>5.1</speed>
<course>284.2</course>
<desc>Speed 5.1 km/h Distance 4.05 km</desc>
<time>2010-02-28T16:52:17.96</time>
<name>2577</name>
</trkpt>
<trkpt lat="48.983465" lon="8.658128">
<ele>360.0</ele>
<speed>5.2</speed>
<course>285.5</course>
<desc>Speed 5.2 km/h Distance 4.05 km</desc>
<time>2010-02-28T16:52:18.96</time>
<name>2578</name>
</trkpt>
<trkpt lat="48.983468" lon="8.658110">
<ele>360.0</ele>
<speed>5.1</speed>
<course>283.2</course>
<desc>Speed 5.1 km/h Distance 4.05 km</desc>
<time>2010-02-28T16:52:19.96</time>
<name>2579</name>
</trkpt>
<trkpt lat="48.983472" lon="8.658088">
<ele>360.0</ele>
<speed>5.4</speed>
<course>292.6</course>
<desc>Speed 5.4 km/h Distance 4.05 km</desc>
<time>2010-02-28T16:52:20.96</time>
<name>2580</name>
</trkpt>
<trkpt lat="48.983477" lon="8.658070">
<ele>360.0</ele>
<speed>5.2</speed>
<course>277.2</course>
<desc>Speed 5.2 km/h Distance 4.05 km</desc>
<time>2010-02-28T16:52:21.96</time>
<name>2581</name>
</trkpt>
<trkpt lat="48.983478" lon="8.658050">
<ele>360.0</ele>
<speed>5.4</speed>
<course>277.2</course>
<desc>Speed 5.4 km/h Distance 4.06 km</desc>
<time>2010-02-28T16:52:22.96</time>
<name>2582</name>
</trkpt>
<trkpt lat="48.983480" lon="8.658030">
<ele>360.0</ele>
<speed>5.2</speed>
<course>284.2</course>
<desc>Speed 5.2 km/h Distance 4.06 km</desc>
<time>2010-02-28T16:52:23.96</time>
<name>2583</name>
</trkpt>
<trkpt lat="48.983483" lon="8.658010">
<ele>360.0</ele>
<speed>5.2</speed>
<course>277.2</course>
<desc>Speed 5.2 km/h Distance 4.06 km</desc>
<time>2010-02-28T16:52:24.96</time>
<name>2584</name>
</trkpt>
<trkpt lat="48.983485" lon="8.657990">
<ele>360.0</ele>
<speed>5.1</speed>
<course>299.0</course>
<desc>Speed 5.1 km/h Distance 4.06 km</desc>
<time>2010-02-28T16:52:25.96</time>
<name>2585</name>
</trkpt>
<trkpt lat="48.983492" lon="8.657972">
<ele>360.0</ele>
<speed>5.3</speed>
<course>277.9</course>
<desc>Speed 5.3 km/h Distance 4.06 km</desc>
<time>2010-02-28T16:52:26.96</time>
<name>2586</name>
</trkpt>
<trkpt lat="48.983493" lon="8.657953">
<ele>359.5</ele>
<speed>4.7</speed>
<course>270.0</course>
<desc>Speed 4.7 km/h Distance 4.06 km</desc>
<time>2010-02-28T16:52:27.96</time>
<name>2587</name>
</trkpt>
<trkpt lat="48.983493" lon="8.657937">
<ele>359.5</ele>
<speed>4.1</speed>
<course>259.3</course>
<desc>Speed 4.1 km/h Distance 4.06 km</desc>
<time>2010-02-28T16:52:28.96</time>
<name>2588</name>
</trkpt>
<trkpt lat="48.983492" lon="8.657923">
<ele>360.0</ele>
<speed>3.7</speed>
<course>249.2</course>
<desc>Speed 3.7 km/h Distance 4.07 km</desc>
<time>2010-02-28T16:52:29.96</time>
<name>2589</name>
</trkpt>
<trkpt lat="48.983488" lon="8.657910">
<ele>360.0</ele>
<speed>3.5</speed>
<course>270.0</course>
<desc>Speed 3.5 km/h Distance 4.07 km</desc>
<time>2010-02-28T16:52:30.96</time>
<name>2590</name>
</trkpt>
<trkpt lat="48.983488" lon="8.657893">
<ele>360.0</ele>
<speed>4.3</speed>
<course>270.0</course>
<desc>Speed 4.3 km/h Distance 4.07 km</desc>
<time>2010-02-28T16:52:31.96</time>
<name>2591</name>
</trkpt>
<trkpt lat="48.983488" lon="8.657878">
<ele>360.0</ele>
<speed>4.1</speed>
<course>270.0</course>
<desc>Speed 4.1 km/h Distance 4.07 km</desc>
<time>2010-02-28T16:52:32.96</time>
<name>2592</name>
</trkpt>
<trkpt lat="48.983488" lon="8.657868">
<ele>359.5</ele>
<speed>2.8</speed>
<course>307.2</course>
<desc>Speed 2.8 km/h Distance 4.07 km</desc>
<time>2010-02-28T16:52:33.96</time>
<name>2593</name>
</trkpt>
<trkpt lat="48.983493" lon="8.657858">
<ele>360.0</ele>
<speed>3.0</speed>
<course>325.9</course>
<desc>Speed 3.0 km/h Distance 4.07 km</desc>
<time>2010-02-28T16:52:34.96</time>
<name>2594</name>
</trkpt>
<trkpt lat="48.983498" lon="8.657853">
<ele>360.5</ele>
<speed>2.5</speed>
<course>325.9</course>
<desc>Speed 2.5 km/h Distance 4.07 km</desc>
<time>2010-02-28T16:52:35.96</time>
<name>2595</name>
</trkpt>
<trkpt lat="48.983498" lon="8.657853">
<ele>360.5</ele>
<speed>0.3</speed>
<course>167.4</course>
<desc>Speed 0.3 km/h Distance 4.07 km</desc>
<time>2010-02-28T16:52:36.96</time>
<name>2596</name>
</trkpt>
<trkpt lat="48.983495" lon="8.657853">
<ele>360.0</ele>
<speed>1.8</speed>
<course>37.2</course>
<desc>Speed 1.8 km/h Distance 4.07 km</desc>
<time>2010-02-28T16:52:37.96</time>
<name>2597</name>
</trkpt>
<trkpt lat="48.983497" lon="8.657855">
<ele>360.0</ele>
<speed>0.9</speed>
<course>37.2</course>
<desc>Speed 0.9 km/h Distance 4.07 km</desc>
<time>2010-02-28T16:52:39.14</time>
<name>2598</name>
</trkpt>
<trkpt lat="48.983497" lon="8.657855">
<ele>359.5</ele>
<speed>0.5</speed>
<course>37.2</course>
<desc>Speed 0.5 km/h Distance 4.07 km</desc>
<time>2010-02-28T16:52:39.99</time>
<name>2599</name>
</trkpt>
<trkpt lat="48.983497" lon="8.657855">
<ele>359.5</ele>
<speed>0.1</speed>
<course>37.2</course>
<desc>Speed 0.1 km/h Distance 4.07 km</desc>
<time>2010-02-28T16:52:40.99</time>
<name>2600</name>
</trkpt>
<trkpt lat="48.983497" lon="8.657855">
<ele>359.5</ele>
<speed>0.4</speed>
<course>37.2</course>
<desc>Speed 0.4 km/h Distance 4.07 km</desc>
<time>2010-02-28T16:52:41.99</time>
<name>2601</name>
</trkpt>
<trkpt lat="48.983497" lon="8.657855">
<ele>359.5</ele>
<speed>0.6</speed>
<course>37.2</course>
<desc>Speed 0.6 km/h Distance 4.07 km</desc>
<time>2010-02-28T16:52:43.15</time>
<name>2602</name>
</trkpt>
<trkpt lat="48.983497" lon="8.657855">
<ele>360.0</ele>
<speed>0.3</speed>
<course>270.0</course>
<desc>Speed 0.3 km/h Distance 4.07 km</desc>
<time>2010-02-28T16:52:44.13</time>
<name>2603</name>
</trkpt>
<trkpt lat="48.983497" lon="8.657853">
<ele>360.0</ele>
<speed>0.1</speed>
<course>270.0</course>
<desc>Speed 0.1 km/h Distance 4.07 km</desc>
<time>2010-02-28T16:52:45.02</time>
<name>2604</name>
</trkpt>
<trkpt lat="48.983497" lon="8.657853">
<ele>360.0</ele>
<speed>0.3</speed>
<course>270.0</course>
<desc>Speed 0.3 km/h Distance 4.07 km</desc>
<time>2010-02-28T16:52:46.72</time>
<name>2605</name>
</trkpt>
<trkpt lat="48.983497" lon="8.657853">
<ele>360.0</ele>
<speed>0.3</speed>
<course>270.0</course>
<desc>Speed 0.3 km/h Distance 4.07 km</desc>
<time>2010-02-28T16:52:47.15</time>
<name>2606</name>
</trkpt>
<trkpt lat="48.983497" lon="8.657853">
<ele>360.0</ele>
<speed>0.3</speed>
<course>12.6</course>
<desc>Speed 0.3 km/h Distance 4.07 km</desc>
<time>2010-02-28T16:52:48.15</time>
<name>2607</name>
</trkpt>
<trkpt lat="48.983498" lon="8.657853">
<ele>360.0</ele>
<speed>0.3</speed>
<course>167.4</course>
<desc>Speed 0.3 km/h Distance 4.07 km</desc>
<time>2010-02-28T16:52:49.15</time>
<name>2608</name>
</trkpt>
<trkpt lat="48.983497" lon="8.657853">
<ele>359.5</ele>
<speed>0.8</speed>
<course>167.4</course>
<desc>Speed 0.8 km/h Distance 4.07 km</desc>
<time>2010-02-28T16:52:50.15</time>
<name>2609</name>
</trkpt>
<trkpt lat="48.983493" lon="8.657853">
<ele>359.5</ele>
<speed>1.6</speed>
<course>270.0</course>
<desc>Speed 1.6 km/h Distance 4.07 km</desc>
<time>2010-02-28T16:52:51.15</time>
<name>2610</name>
</trkpt>
<trkpt lat="48.983493" lon="8.657852">
<ele>359.5</ele>
<speed>0.8</speed>
<course>90.0</course>
<desc>Speed 0.8 km/h Distance 4.07 km</desc>
<time>2010-02-28T16:52:52.15</time>
<name>2611</name>
</trkpt>
<trkpt lat="48.983493" lon="8.657853">
<ele>359.5</ele>
<speed>0.4</speed>
<course>12.6</course>
<desc>Speed 0.4 km/h Distance 4.07 km</desc>
<time>2010-02-28T16:52:53.15</time>
<name>2612</name>
</trkpt>
<trkpt lat="48.983495" lon="8.657853">
<ele>359.5</ele>
<speed>0.2</speed>
<course>12.6</course>
<desc>Speed 0.2 km/h Distance 4.07 km</desc>
<time>2010-02-28T16:52:54.15</time>
<name>2613</name>
</trkpt>
<trkpt lat="48.983495" lon="8.657853">
<ele>359.5</ele>
<speed>0.3</speed>
<course>12.6</course>
<desc>Speed 0.3 km/h Distance 4.07 km</desc>
<time>2010-02-28T16:52:55.15</time>
<name>2614</name>
</trkpt>
<trkpt lat="48.983497" lon="8.657853">
<ele>359.5</ele>
<speed>0.1</speed>
<course>12.6</course>
<desc>Speed 0.1 km/h Distance 4.07 km</desc>
<time>2010-02-28T16:52:56.15</time>
<name>2615</name>
</trkpt>
<trkpt lat="48.983497" lon="8.657853">
<ele>359.5</ele>
<speed>0.1</speed>
<course>12.6</course>
<desc>Speed 0.1 km/h Distance 4.07 km</desc>
<time>2010-02-28T16:52:57.15</time>
<name>2616</name>
</trkpt>
<trkpt lat="48.983497" lon="8.657853">
<ele>359.5</ele>
<speed>0.0</speed>
<course>290.9</course>
<desc>Speed 0.0 km/h Distance 4.07 km</desc>
<time>2010-02-28T16:52:58.15</time>
<name>2617</name>
</trkpt>
<trkpt lat="48.983498" lon="8.657847">
<ele>360.5</ele>
<speed>1.3</speed>
<course>290.9</course>
<desc>Speed 1.3 km/h Distance 4.07 km</desc>
<time>2010-02-28T16:52:59.15</time>
<name>2618</name>
</trkpt>
<trkpt lat="48.983498" lon="8.657847">
<ele>361.0</ele>
<speed>0.3</speed>
<course>326.8</course>
<desc>Speed 0.3 km/h Distance 4.07 km</desc>
<time>2010-02-28T16:53:00.23</time>
<name>2619</name>
</trkpt>
<trkpt lat="48.983512" lon="8.657833">
<ele>360.5</ele>
<speed>5.8</speed>
<course>290.9</course>
<desc>Speed 5.8 km/h Distance 4.08 km</desc>
<time>2010-02-28T16:53:01.18</time>
<name>2620</name>
</trkpt>
<trkpt lat="48.983515" lon="8.657820">
<ele>361.0</ele>
<speed>3.6</speed>
<course>326.3</course>
<desc>Speed 3.6 km/h Distance 4.08 km</desc>
<time>2010-02-28T16:53:02.19</time>
<name>2621</name>
</trkpt>
<trkpt lat="48.983518" lon="8.657817">
<ele>361.0</ele>
<speed>1.3</speed>
<course>290.5</course>
<desc>Speed 1.3 km/h Distance 4.08 km</desc>
<time>2010-02-28T16:53:03.19</time>
<name>2622</name>
</trkpt>
<trkpt lat="48.983520" lon="8.657810">
<ele>361.0</ele>
<speed>1.2</speed>
<course>270.0</course>
<desc>Speed 1.2 km/h Distance 4.08 km</desc>
<time>2010-02-28T16:53:04.23</time>
<name>2623</name>
</trkpt>
<trkpt lat="48.983520" lon="8.657808">
<ele>361.0</ele>
<speed>0.4</speed>
<course>270.0</course>
<desc>Speed 0.4 km/h Distance 4.08 km</desc>
<time>2010-02-28T16:53:05.21</time>
<name>2624</name>
</trkpt>
<trkpt lat="48.983520" lon="8.657805">
<ele>361.0</ele>
<speed>1.2</speed>
<course>255.9</course>
<desc>Speed 1.2 km/h Distance 4.08 km</desc>
<time>2010-02-28T16:53:06.21</time>
<name>2625</name>
</trkpt>
<trkpt lat="48.983518" lon="8.657795">
<ele>361.0</ele>
<speed>2.5</speed>
<course>12.6</course>
<desc>Speed 2.5 km/h Distance 4.08 km</desc>
<time>2010-02-28T16:53:07.21</time>
<name>2626</name>
</trkpt>
<trkpt lat="48.983523" lon="8.657797">
<ele>360.0</ele>
<speed>2.1</speed>
<course>276.7</course>
<desc>Speed 2.1 km/h Distance 4.08 km</desc>
<time>2010-02-28T16:53:08.21</time>
<name>2627</name>
</trkpt>
<trkpt lat="48.983525" lon="8.657775">
<ele>360.5</ele>
<speed>5.7</speed>
<course>301.4</course>
<desc>Speed 5.7 km/h Distance 4.08 km</desc>
<time>2010-02-28T16:53:09.22</time>
<name>2628</name>
</trkpt>
<trkpt lat="48.983528" lon="8.657767">
<ele>360.5</ele>
<speed>2.8</speed>
<course>270.0</course>
<desc>Speed 2.8 km/h Distance 4.08 km</desc>
<time>2010-02-28T16:53:10.34</time>
<name>2629</name>
</trkpt>
<trkpt lat="48.983528" lon="8.657763">
<ele>360.5</ele>
<speed>1.2</speed>
<course>252.9</course>
<desc>Speed 1.2 km/h Distance 4.08 km</desc>
<time>2010-02-28T16:53:11.24</time>
<name>2630</name>
</trkpt>
<trkpt lat="48.983527" lon="8.657755">
<ele>360.5</ele>
<speed>2.2</speed>
<course>259.2</course>
<desc>Speed 2.2 km/h Distance 4.08 km</desc>
<time>2010-02-28T16:53:12.26</time>
<name>2631</name>
</trkpt>
<trkpt lat="48.983525" lon="8.657742">
<ele>360.0</ele>
<speed>3.8</speed>
<course>282.3</course>
<desc>Speed 3.8 km/h Distance 4.08 km</desc>
<time>2010-02-28T16:53:13.27</time>
<name>2632</name>
</trkpt>
<trkpt lat="48.983527" lon="8.657730">
<ele>361.0</ele>
<speed>3.7</speed>
<course>277.9</course>
<desc>Speed 3.7 km/h Distance 4.08 km</desc>
<time>2010-02-28T16:53:14.27</time>
<name>2633</name>
</trkpt>
<trkpt lat="48.983528" lon="8.657712">
<ele>360.5</ele>
<speed>4.8</speed>
<course>277.9</course>
<desc>Speed 4.8 km/h Distance 4.09 km</desc>
<time>2010-02-28T16:53:15.27</time>
<name>2634</name>
</trkpt>
<trkpt lat="48.983530" lon="8.657693">
<ele>360.5</ele>
<speed>4.9</speed>
<course>270.0</course>
<desc>Speed 4.9 km/h Distance 4.09 km</desc>
<time>2010-02-28T16:53:16.27</time>
<name>2635</name>
</trkpt>
<trkpt lat="48.983530" lon="8.657677">
<ele>360.5</ele>
<speed>4.5</speed>
<course>284.2</course>
<desc>Speed 4.5 km/h Distance 4.09 km</desc>
<time>2010-02-28T16:53:17.27</time>
<name>2636</name>
</trkpt>
<trkpt lat="48.983533" lon="8.657657">
<ele>359.5</ele>
<speed>5.2</speed>
<course>284.2</course>
<desc>Speed 5.2 km/h Distance 4.09 km</desc>
<time>2010-02-28T16:53:18.27</time>
<name>2637</name>
</trkpt>
<trkpt lat="48.983537" lon="8.657637">
<ele>359.5</ele>
<speed>5.1</speed>
<course>277.2</course>
<desc>Speed 5.1 km/h Distance 4.09 km</desc>
<time>2010-02-28T16:53:19.27</time>
<name>2638</name>
</trkpt>
<trkpt lat="48.983538" lon="8.657617">
<ele>359.5</ele>
<speed>5.4</speed>
<course>276.2</course>
<desc>Speed 5.4 km/h Distance 4.09 km</desc>
<time>2010-02-28T16:53:20.27</time>
<name>2639</name>
</trkpt>
<trkpt lat="48.983540" lon="8.657593">
<ele>359.5</ele>
<speed>6.1</speed>
<course>263.3</course>
<desc>Speed 6.1 km/h Distance 4.09 km</desc>
<time>2010-02-28T16:53:21.27</time>
<name>2640</name>
</trkpt>
<trkpt lat="48.983538" lon="8.657572">
<ele>359.5</ele>
<speed>5.5</speed>
<course>261.3</course>
<desc>Speed 5.5 km/h Distance 4.10 km</desc>
<time>2010-02-28T16:53:22.27</time>
<name>2641</name>
</trkpt>
<trkpt lat="48.983537" lon="8.657555">
<ele>359.5</ele>
<speed>4.1</speed>
<course>312.6</course>
<desc>Speed 4.1 km/h Distance 4.10 km</desc>
<time>2010-02-28T16:53:23.27</time>
<name>2642</name>
</trkpt>
<trkpt lat="48.983542" lon="8.657547">
<ele>359.0</ele>
<speed>2.5</speed>
<course>307.6</course>
<desc>Speed 2.5 km/h Distance 4.10 km</desc>
<time>2010-02-28T16:53:24.27</time>
<name>2643</name>
</trkpt>
<trkpt lat="48.983545" lon="8.657540">
<ele>358.5</ele>
<speed>2.2</speed>
<course>270.0</course>
<desc>Speed 2.2 km/h Distance 4.10 km</desc>
<time>2010-02-28T16:53:25.27</time>
<name>2644</name>
</trkpt>
<trkpt lat="48.983545" lon="8.657535">
<ele>358.0</ele>
<speed>0.4</speed>
<course>218.1</course>
<desc>Speed 0.4 km/h Distance 4.10 km</desc>
<time>2010-02-28T16:53:26.30</time>
<name>2645</name>
</trkpt>
<trkpt lat="48.983537" lon="8.657525">
<ele>358.0</ele>
<speed>3.6</speed>
<course>280.8</course>
<desc>Speed 3.6 km/h Distance 4.10 km</desc>
<time>2010-02-28T16:53:27.29</time>
<name>2646</name>
</trkpt>
<trkpt lat="48.983542" lon="8.657485">
<ele>359.0</ele>
<speed>10.3</speed>
<course>283.2</course>
<desc>Speed 10.3 km/h Distance 4.10 km</desc>
<time>2010-02-28T16:53:28.29</time>
<name>2647</name>
</trkpt>
<trkpt lat="48.983545" lon="8.657463">
<ele>359.0</ele>
<speed>5.7</speed>
<course>276.9</course>
<desc>Speed 5.7 km/h Distance 4.11 km</desc>
<time>2010-02-28T16:53:29.29</time>
<name>2648</name>
</trkpt>
<trkpt lat="48.983550" lon="8.657400">
<ele>359.0</ele>
<speed>9.6</speed>
<course>283.5</course>
<desc>Speed 9.6 km/h Distance 4.11 km</desc>
<time>2010-02-28T16:53:31.02</time>
<name>2649</name>
</trkpt>
<trkpt lat="48.983555" lon="8.657368">
<ele>360.5</ele>
<speed>4.9</speed>
<course>246.4</course>
<desc>Speed 4.9 km/h Distance 4.11 km</desc>
<time>2010-02-28T16:53:32.79</time>
<name>2650</name>
</trkpt>
<trkpt lat="48.983552" lon="8.657357">
<ele>360.5</ele>
<speed>4.0</speed>
<course>270.0</course>
<desc>Speed 4.0 km/h Distance 4.11 km</desc>
<time>2010-02-28T16:53:33.79</time>
<name>2651</name>
</trkpt>
<trkpt lat="48.983552" lon="8.657340">
<ele>360.5</ele>
<speed>4.6</speed>
<course>259.2</course>
<desc>Speed 4.6 km/h Distance 4.11 km</desc>
<time>2010-02-28T16:53:34.79</time>
<name>2652</name>
</trkpt>
<trkpt lat="48.983550" lon="8.657327">
<ele>360.5</ele>
<speed>3.7</speed>
<course>271.9</course>
<desc>Speed 3.7 km/h Distance 4.12 km</desc>
<time>2010-02-28T16:53:36.38</time>
<name>2653</name>
</trkpt>
<trkpt lat="48.983552" lon="8.657252">
<ele>360.0</ele>
<speed>5.3</speed>
<course>288.7</course>
<desc>Speed 5.3 km/h Distance 4.12 km</desc>
<time>2010-02-28T16:53:38.79</time>
<name>2654</name>
</trkpt>
<trkpt lat="48.983555" lon="8.657237">
<ele>359.5</ele>
<speed>4.7</speed>
<course>284.3</course>
<desc>Speed 4.7 km/h Distance 4.12 km</desc>
<time>2010-02-28T16:53:39.78</time>
<name>2655</name>
</trkpt>
<trkpt lat="48.983560" lon="8.657207">
<ele>359.0</ele>
<speed>3.9</speed>
<course>249.1</course>
<desc>Speed 3.9 km/h Distance 4.12 km</desc>
<time>2010-02-28T16:53:41.79</time>
<name>2656</name>
</trkpt>
<trkpt lat="48.983558" lon="8.657200">
<ele>358.0</ele>
<speed>2.1</speed>
<course>270.0</course>
<desc>Speed 2.1 km/h Distance 4.12 km</desc>
<time>2010-02-28T16:53:42.78</time>
<name>2657</name>
</trkpt>
<trkpt lat="48.983558" lon="8.657195">
<ele>358.5</ele>
<speed>1.2</speed>
<course>270.0</course>
<desc>Speed 1.2 km/h Distance 4.13 km</desc>
<time>2010-02-28T16:53:43.78</time>
<name>2658</name>
</trkpt>
<trkpt lat="48.983558" lon="8.657195">
<ele>358.0</ele>
<speed>0.3</speed>
<course>150.8</course>
<desc>Speed 0.3 km/h Distance 4.13 km</desc>
<time>2010-02-28T16:53:44.78</time>
<name>2659</name>
</trkpt>
<trkpt lat="48.983557" lon="8.657197">
<ele>357.5</ele>
<speed>0.3</speed>
<course>242.6</course>
<desc>Speed 0.3 km/h Distance 4.13 km</desc>
<time>2010-02-28T16:53:45.78</time>
<name>2660</name>
</trkpt>
<trkpt lat="48.983555" lon="8.657192">
<ele>357.5</ele>
<speed>1.7</speed>
<course>322.8</course>
<desc>Speed 1.7 km/h Distance 4.13 km</desc>
<time>2010-02-28T16:53:46.78</time>
<name>2661</name>
</trkpt>
<trkpt lat="48.983557" lon="8.657190">
<ele>357.0</ele>
<speed>1.0</speed>
<course>322.8</course>
<desc>Speed 1.0 km/h Distance 4.13 km</desc>
<time>2010-02-28T16:53:47.78</time>
<name>2662</name>
</trkpt>
<trkpt lat="48.983557" lon="8.657190">
<ele>356.5</ele>
<speed>0.7</speed>
<course>270.0</course>
<desc>Speed 0.7 km/h Distance 4.13 km</desc>
<time>2010-02-28T16:53:48.77</time>
<name>2663</name>
</trkpt>
<trkpt lat="48.983557" lon="8.657188">
<ele>357.0</ele>
<speed>1.0</speed>
<course>192.6</course>
<desc>Speed 1.0 km/h Distance 4.13 km</desc>
<time>2010-02-28T16:53:49.96</time>
<name>2664</name>
</trkpt>
<trkpt lat="48.983553" lon="8.657187">
<ele>356.5</ele>
<speed>1.7</speed>
<course>270.0</course>
<desc>Speed 1.7 km/h Distance 4.13 km</desc>
<time>2010-02-28T16:53:50.77</time>
<name>2665</name>
</trkpt>
<trkpt lat="48.983553" lon="8.657175">
<ele>356.5</ele>
<speed>3.0</speed>
<course>237.6</course>
<desc>Speed 3.0 km/h Distance 4.13 km</desc>
<time>2010-02-28T16:53:51.78</time>
<name>2666</name>
</trkpt>
<trkpt lat="48.983545" lon="8.657155">
<ele>355.0</ele>
<speed>6.9</speed>
<course>227.4</course>
<desc>Speed 6.9 km/h Distance 4.13 km</desc>
<time>2010-02-28T16:53:52.77</time>
<name>2667</name>
</trkpt>
<trkpt lat="48.983540" lon="8.657147">
<ele>354.0</ele>
<speed>4.0</speed>
<course>277.9</course>
<desc>Speed 4.0 km/h Distance 4.13 km</desc>
<time>2010-02-28T16:53:53.77</time>
<name>2668</name>
</trkpt>
<trkpt lat="48.983542" lon="8.657128">
<ele>354.5</ele>
<speed>5.3</speed>
<course>270.0</course>
<desc>Speed 5.3 km/h Distance 4.13 km</desc>
<time>2010-02-28T16:53:54.77</time>
<name>2669</name>
</trkpt>
<trkpt lat="48.983542" lon="8.657118">
<ele>354.5</ele>
<speed>3.1</speed>
<course>307.6</course>
<desc>Speed 3.1 km/h Distance 4.13 km</desc>
<time>2010-02-28T16:53:55.80</time>
<name>2670</name>
</trkpt>
<trkpt lat="48.983545" lon="8.657112">
<ele>354.5</ele>
<speed>2.4</speed>
<course>44.5</course>
<desc>Speed 2.4 km/h Distance 4.13 km</desc>
<time>2010-02-28T16:53:56.77</time>
<name>2671</name>
</trkpt>
<trkpt lat="48.983548" lon="8.657117">
<ele>355.5</ele>
<speed>2.1</speed>
<course>44.5</course>
<desc>Speed 2.1 km/h Distance 4.13 km</desc>
<time>2010-02-28T16:53:57.78</time>
<name>2672</name>
</trkpt>
<trkpt lat="48.983548" lon="8.657117">
<ele>355.5</ele>
<speed>0.3</speed>
<course>12.6</course>
<desc>Speed 0.3 km/h Distance 4.13 km</desc>
<time>2010-02-28T16:53:58.77</time>
<name>2673</name>
</trkpt>
<trkpt lat="48.983552" lon="8.657118">
<ele>355.5</ele>
<speed>0.3</speed>
<course>0.0</course>
<desc>Speed 0.3 km/h Distance 4.13 km</desc>
<time>2010-02-28T16:53:59.77</time>
<name>2674</name>
</trkpt>
<trkpt lat="48.983553" lon="8.657118">
<ele>355.5</ele>
<speed>0.5</speed>
<course>29.2</course>
<desc>Speed 0.5 km/h Distance 4.13 km</desc>
<time>2010-02-28T16:54:01.24</time>
<name>2675</name>
</trkpt>
<trkpt lat="48.983555" lon="8.657120">
<ele>355.5</ele>
<speed>0.3</speed>
<course>12.6</course>
<desc>Speed 0.3 km/h Distance 4.13 km</desc>
<time>2010-02-28T16:54:01.77</time>
<name>2676</name>
</trkpt>
<trkpt lat="48.983557" lon="8.657120">
<ele>355.5</ele>
<speed>0.3</speed>
<course>12.6</course>
<desc>Speed 0.3 km/h Distance 4.13 km</desc>
<time>2010-02-28T16:54:02.91</time>
<name>2677</name>
</trkpt>
<trkpt lat="48.983557" lon="8.657120">
<ele>355.5</ele>
<speed>0.1</speed>
<course>192.6</course>
<desc>Speed 0.1 km/h Distance 4.13 km</desc>
<time>2010-02-28T16:54:03.76</time>
<name>2678</name>
</trkpt>
<trkpt lat="48.983553" lon="8.657118">
<ele>355.0</ele>
<speed>1.4</speed>
<course>12.6</course>
<desc>Speed 1.4 km/h Distance 4.13 km</desc>
<time>2010-02-28T16:54:04.76</time>
<name>2679</name>
</trkpt>
<trkpt lat="48.983555" lon="8.657118">
<ele>355.0</ele>
<speed>0.4</speed>
<course>0.0</course>
<desc>Speed 0.4 km/h Distance 4.13 km</desc>
<time>2010-02-28T16:54:05.77</time>
<name>2680</name>
</trkpt>
<trkpt lat="48.983563" lon="8.657118">
<ele>355.0</ele>
<speed>3.2</speed>
<course>0.0</course>
<desc>Speed 3.2 km/h Distance 4.14 km</desc>
<time>2010-02-28T16:54:06.76</time>
<name>2681</name>
</trkpt>
<trkpt lat="48.983563" lon="8.657118">
<ele>355.0</ele>
<speed>0.2</speed>
<course>322.8</course>
<desc>Speed 0.2 km/h Distance 4.14 km</desc>
<time>2010-02-28T16:54:07.76</time>
<name>2682</name>
</trkpt>
<trkpt lat="48.983565" lon="8.657117">
<ele>355.0</ele>
<speed>0.7</speed>
<course>13.8</course>
<desc>Speed 0.7 km/h Distance 4.14 km</desc>
<time>2010-02-28T16:54:08.76</time>
<name>2683</name>
</trkpt>
<trkpt lat="48.983573" lon="8.657120">
<ele>355.5</ele>
<speed>2.3</speed>
<course>0.0</course>
<desc>Speed 2.3 km/h Distance 4.14 km</desc>
<time>2010-02-28T16:54:10.76</time>
<name>2684</name>
</trkpt>
<trkpt lat="48.983582" lon="8.657120">
<ele>355.5</ele>
<speed>0.7</speed>
<course>288.4</course>
<desc>Speed 0.7 km/h Distance 4.14 km</desc>
<time>2010-02-28T16:54:11.88</time>
<name>2685</name>
</trkpt>
<trkpt lat="48.983593" lon="8.657067">
<ele>356.5</ele>
<speed>5.2</speed>
<course>304.8</course>
<desc>Speed 5.2 km/h Distance 4.14 km</desc>
<time>2010-02-28T16:54:13.75</time>
<name>2686</name>
</trkpt>
<trkpt lat="48.983602" lon="8.657048">
<ele>356.0</ele>
<speed>5.6</speed>
<course>310.4</course>
<desc>Speed 5.6 km/h Distance 4.14 km</desc>
<time>2010-02-28T16:54:14.76</time>
<name>2687</name>
</trkpt>
<trkpt lat="48.983610" lon="8.657033">
<ele>355.5</ele>
<speed>5.3</speed>
<course>270.0</course>
<desc>Speed 5.3 km/h Distance 4.14 km</desc>
<time>2010-02-28T16:54:15.76</time>
<name>2688</name>
</trkpt>
<trkpt lat="48.983610" lon="8.657013">
<ele>355.0</ele>
<speed>5.8</speed>
<course>254.5</course>
<desc>Speed 5.8 km/h Distance 4.15 km</desc>
<time>2010-02-28T16:54:16.75</time>
<name>2689</name>
</trkpt>
<trkpt lat="48.983607" lon="8.656995">
<ele>355.0</ele>
<speed>5.5</speed>
<course>270.0</course>
<desc>Speed 5.5 km/h Distance 4.15 km</desc>
<time>2010-02-28T16:54:17.74</time>
<name>2690</name>
</trkpt>
<trkpt lat="48.983607" lon="8.656975">
<ele>355.0</ele>
<speed>5.6</speed>
<course>255.8</course>
<desc>Speed 5.6 km/h Distance 4.15 km</desc>
<time>2010-02-28T16:54:18.74</time>
<name>2691</name>
</trkpt>
<trkpt lat="48.983603" lon="8.656955">
<ele>355.0</ele>
<speed>5.3</speed>
<course>275.8</course>
<desc>Speed 5.3 km/h Distance 4.15 km</desc>
<time>2010-02-28T16:54:19.75</time>
<name>2692</name>
</trkpt>
<trkpt lat="48.983605" lon="8.656930">
<ele>355.0</ele>
<speed>7.0</speed>
<course>258.5</course>
<desc>Speed 7.0 km/h Distance 4.15 km</desc>
<time>2010-02-28T16:54:20.75</time>
<name>2693</name>
</trkpt>
<trkpt lat="48.983602" lon="8.656905">
<ele>355.5</ele>
<speed>6.4</speed>
<course>270.0</course>
<desc>Speed 6.4 km/h Distance 4.15 km</desc>
<time>2010-02-28T16:54:21.74</time>
<name>2694</name>
</trkpt>
<trkpt lat="48.983602" lon="8.656882">
<ele>356.0</ele>
<speed>6.0</speed>
<course>262.1</course>
<desc>Speed 6.0 km/h Distance 4.16 km</desc>
<time>2010-02-28T16:54:22.73</time>
<name>2695</name>
</trkpt>
<trkpt lat="48.983600" lon="8.656863">
<ele>356.0</ele>
<speed>5.6</speed>
<course>277.2</course>
<desc>Speed 5.6 km/h Distance 4.16 km</desc>
<time>2010-02-28T16:54:23.73</time>
<name>2696</name>
</trkpt>
<trkpt lat="48.983602" lon="8.656843">
<ele>356.0</ele>
<speed>5.5</speed>
<course>263.3</course>
<desc>Speed 5.5 km/h Distance 4.16 km</desc>
<time>2010-02-28T16:54:24.73</time>
<name>2697</name>
</trkpt>
<trkpt lat="48.983600" lon="8.656822">
<ele>356.5</ele>
<speed>5.6</speed>
<course>262.8</course>
<desc>Speed 5.6 km/h Distance 4.16 km</desc>
<time>2010-02-28T16:54:25.73</time>
<name>2698</name>
</trkpt>
<trkpt lat="48.983598" lon="8.656802">
<ele>356.5</ele>
<speed>5.5</speed>
<course>263.3</course>
<desc>Speed 5.5 km/h Distance 4.16 km</desc>
<time>2010-02-28T16:54:26.73</time>
<name>2699</name>
</trkpt>
<trkpt lat="48.983597" lon="8.656780">
<ele>356.5</ele>
<speed>5.8</speed>
<course>276.2</course>
<desc>Speed 5.8 km/h Distance 4.16 km</desc>
<time>2010-02-28T16:54:27.73</time>
<name>2700</name>
</trkpt>
<trkpt lat="48.983598" lon="8.656757">
<ele>357.0</ele>
<speed>6.4</speed>
<course>263.8</course>
<desc>Speed 6.4 km/h Distance 4.17 km</desc>
<time>2010-02-28T16:54:28.72</time>
<name>2701</name>
</trkpt>
<trkpt lat="48.983597" lon="8.656733">
<ele>357.0</ele>
<speed>6.5</speed>
<course>256.8</course>
<desc>Speed 6.5 km/h Distance 4.17 km</desc>
<time>2010-02-28T16:54:29.72</time>
<name>2702</name>
</trkpt>
<trkpt lat="48.983593" lon="8.656712">
<ele>357.0</ele>
<speed>6.2</speed>
<course>263.3</course>
<desc>Speed 6.2 km/h Distance 4.17 km</desc>
<time>2010-02-28T16:54:30.72</time>
<name>2703</name>
</trkpt>
<trkpt lat="48.983592" lon="8.656690">
<ele>356.5</ele>
<speed>5.9</speed>
<course>263.3</course>
<desc>Speed 5.9 km/h Distance 4.17 km</desc>
<time>2010-02-28T16:54:31.72</time>
<name>2704</name>
</trkpt>
<trkpt lat="48.983590" lon="8.656668">
<ele>356.5</ele>
<speed>5.9</speed>
<course>263.3</course>
<desc>Speed 5.9 km/h Distance 4.17 km</desc>
<time>2010-02-28T16:54:32.72</time>
<name>2705</name>
</trkpt>
<trkpt lat="48.983588" lon="8.656647">
<ele>356.5</ele>
<speed>5.9</speed>
<course>270.0</course>
<desc>Speed 5.9 km/h Distance 4.17 km</desc>
<time>2010-02-28T16:54:33.72</time>
<name>2706</name>
</trkpt>
<trkpt lat="48.983588" lon="8.656625">
<ele>356.5</ele>
<speed>5.9</speed>
<course>263.8</course>
<desc>Speed 5.9 km/h Distance 4.17 km</desc>
<time>2010-02-28T16:54:34.71</time>
<name>2707</name>
</trkpt>
<trkpt lat="48.983587" lon="8.656602">
<ele>356.5</ele>
<speed>6.1</speed>
<course>257.7</course>
<desc>Speed 6.1 km/h Distance 4.18 km</desc>
<time>2010-02-28T16:54:35.71</time>
<name>2708</name>
</trkpt>
<trkpt lat="48.983583" lon="8.656578">
<ele>356.5</ele>
<speed>6.1</speed>
<course>263.3</course>
<desc>Speed 6.1 km/h Distance 4.18 km</desc>
<time>2010-02-28T16:54:36.71</time>
<name>2709</name>
</trkpt>
<trkpt lat="48.983582" lon="8.656557">
<ele>356.5</ele>
<speed>6.1</speed>
<course>263.3</course>
<desc>Speed 6.1 km/h Distance 4.18 km</desc>
<time>2010-02-28T16:54:37.71</time>
<name>2710</name>
</trkpt>
<trkpt lat="48.983580" lon="8.656535">
<ele>356.5</ele>
<speed>5.6</speed>
<course>249.1</course>
<desc>Speed 5.6 km/h Distance 4.18 km</desc>
<time>2010-02-28T16:54:38.71</time>
<name>2711</name>
</trkpt>
<trkpt lat="48.983577" lon="8.656522">
<ele>356.5</ele>
<speed>4.0</speed>
<course>259.2</course>
<desc>Speed 4.0 km/h Distance 4.18 km</desc>
<time>2010-02-28T16:54:39.71</time>
<name>2712</name>
</trkpt>
<trkpt lat="48.983575" lon="8.656508">
<ele>356.0</ele>
<speed>3.9</speed>
<course>249.1</course>
<desc>Speed 3.9 km/h Distance 4.18 km</desc>
<time>2010-02-28T16:54:40.71</time>
<name>2713</name>
</trkpt>
<trkpt lat="48.983572" lon="8.656495">
<ele>356.0</ele>
<speed>3.8</speed>
<course>270.0</course>
<desc>Speed 3.8 km/h Distance 4.18 km</desc>
<time>2010-02-28T16:54:41.71</time>
<name>2714</name>
</trkpt>
<trkpt lat="48.983572" lon="8.656482">
<ele>356.0</ele>
<speed>3.6</speed>
<course>279.6</course>
<desc>Speed 3.6 km/h Distance 4.19 km</desc>
<time>2010-02-28T16:54:42.71</time>
<name>2715</name>
</trkpt>
<trkpt lat="48.983573" lon="8.656467">
<ele>356.0</ele>
<speed>4.2</speed>
<course>266.2</course>
<desc>Speed 4.2 km/h Distance 4.19 km</desc>
<time>2010-02-28T16:54:43.71</time>
<name>2716</name>
</trkpt>
<trkpt lat="48.983572" lon="8.656428">
<ele>356.0</ele>
<speed>5.2</speed>
<course>240.1</course>
<desc>Speed 5.2 km/h Distance 4.19 km</desc>
<time>2010-02-28T16:54:45.82</time>
<name>2717</name>
</trkpt>
<trkpt lat="48.983567" lon="8.656415">
<ele>354.0</ele>
<speed>4.2</speed>
<course>258.3</course>
<desc>Speed 4.2 km/h Distance 4.19 km</desc>
<time>2010-02-28T16:54:46.72</time>
<name>2718</name>
</trkpt>
<trkpt lat="48.983562" lon="8.656378">
<ele>353.5</ele>
<speed>4.8</speed>
<course>270.0</course>
<desc>Speed 4.8 km/h Distance 4.19 km</desc>
<time>2010-02-28T16:54:48.70</time>
<name>2719</name>
</trkpt>
<trkpt lat="48.983562" lon="8.656363">
<ele>353.5</ele>
<speed>3.9</speed>
<course>253.0</course>
<desc>Speed 3.9 km/h Distance 4.19 km</desc>
<time>2010-02-28T16:54:49.70</time>
<name>2720</name>
</trkpt>
<trkpt lat="48.983558" lon="8.656347">
<ele>353.5</ele>
<speed>4.7</speed>
<course>250.9</course>
<desc>Speed 4.7 km/h Distance 4.20 km</desc>
<time>2010-02-28T16:54:50.71</time>
<name>2721</name>
</trkpt>
<trkpt lat="48.983550" lon="8.656310">
<ele>353.0</ele>
<speed>3.5</speed>
<course>253.1</course>
<desc>Speed 3.5 km/h Distance 4.20 km</desc>
<time>2010-02-28T16:54:52.71</time>
<name>2722</name>
</trkpt>
<trkpt lat="48.983547" lon="8.656293">
<ele>352.5</ele>
<speed>4.4</speed>
<course>255.8</course>
<desc>Speed 4.4 km/h Distance 4.20 km</desc>
<time>2010-02-28T16:54:53.71</time>
<name>2723</name>
</trkpt>
<trkpt lat="48.983545" lon="8.656283">
<ele>352.5</ele>
<speed>2.7</speed>
<course>326.8</course>
<desc>Speed 2.7 km/h Distance 4.20 km</desc>
<time>2010-02-28T16:54:54.71</time>
<name>2724</name>
</trkpt>
<trkpt lat="48.983550" lon="8.656278">
<ele>352.5</ele>
<speed>2.1</speed>
<course>253.1</course>
<desc>Speed 2.1 km/h Distance 4.20 km</desc>
<time>2010-02-28T16:54:55.71</time>
<name>2725</name>
</trkpt>
<trkpt lat="48.983548" lon="8.656270">
<ele>352.5</ele>
<speed>2.4</speed>
<course>224.5</course>
<desc>Speed 2.4 km/h Distance 4.20 km</desc>
<time>2010-02-28T16:54:56.73</time>
<name>2726</name>
</trkpt>
<trkpt lat="48.983538" lon="8.656255">
<ele>352.5</ele>
<speed>6.1</speed>
<course>262.1</course>
<desc>Speed 6.1 km/h Distance 4.20 km</desc>
<time>2010-02-28T16:54:57.71</time>
<name>2727</name>
</trkpt>
<trkpt lat="48.983537" lon="8.656237">
<ele>352.0</ele>
<speed>4.1</speed>
<course>270.0</course>
<desc>Speed 4.1 km/h Distance 4.20 km</desc>
<time>2010-02-28T16:54:58.73</time>
<name>2728</name>
</trkpt>
<trkpt lat="48.983537" lon="8.656217">
<ele>351.5</ele>
<speed>4.9</speed>
<course>266.5</course>
<desc>Speed 4.9 km/h Distance 4.21 km</desc>
<time>2010-02-28T16:54:59.74</time>
<name>2729</name>
</trkpt>
<trkpt lat="48.983535" lon="8.656175">
<ele>351.0</ele>
<speed>4.9</speed>
<course>260.0</course>
<desc>Speed 4.9 km/h Distance 4.21 km</desc>
<time>2010-02-28T16:55:01.81</time>
<name>2730</name>
</trkpt>
<trkpt lat="48.983530" lon="8.656132">
<ele>351.5</ele>
<speed>5.3</speed>
<course>265.2</course>
<desc>Speed 5.3 km/h Distance 4.21 km</desc>
<time>2010-02-28T16:55:03.85</time>
<name>2731</name>
</trkpt>
<trkpt lat="48.983528" lon="8.656102">
<ele>351.5</ele>
<speed>5.4</speed>
<course>259.2</course>
<desc>Speed 5.4 km/h Distance 4.21 km</desc>
<time>2010-02-28T16:55:04.77</time>
<name>2732</name>
</trkpt>
<trkpt lat="48.983525" lon="8.656075">
<ele>351.5</ele>
<speed>5.9</speed>
<course>262.1</course>
<desc>Speed 5.9 km/h Distance 4.22 km</desc>
<time>2010-02-28T16:55:06.20</time>
<name>2733</name>
</trkpt>
<trkpt lat="48.983523" lon="8.656057">
<ele>351.5</ele>
<speed>5.1</speed>
<course>226.4</course>
<desc>Speed 5.1 km/h Distance 4.22 km</desc>
<time>2010-02-28T16:55:06.77</time>
<name>2734</name>
</trkpt>
<trkpt lat="48.983515" lon="8.656043">
<ele>351.5</ele>
<speed>4.7</speed>
<course>270.0</course>
<desc>Speed 4.7 km/h Distance 4.22 km</desc>
<time>2010-02-28T16:55:07.77</time>
<name>2735</name>
</trkpt>
<trkpt lat="48.983515" lon="8.656020">
<ele>352.0</ele>
<speed>5.7</speed>
<course>262.1</course>
<desc>Speed 5.7 km/h Distance 4.22 km</desc>
<time>2010-02-28T16:55:08.77</time>
<name>2736</name>
</trkpt>
<trkpt lat="48.983513" lon="8.656002">
<ele>352.0</ele>
<speed>4.6</speed>
<course>262.1</course>
<desc>Speed 4.6 km/h Distance 4.22 km</desc>
<time>2010-02-28T16:55:09.77</time>
<name>2737</name>
</trkpt>
<trkpt lat="48.983512" lon="8.655983">
<ele>352.0</ele>
<speed>4.9</speed>
<course>270.0</course>
<desc>Speed 4.9 km/h Distance 4.22 km</desc>
<time>2010-02-28T16:55:10.77</time>
<name>2738</name>
</trkpt>
<trkpt lat="48.983512" lon="8.655962">
<ele>351.5</ele>
<speed>5.2</speed>
<course>263.3</course>
<desc>Speed 5.2 km/h Distance 4.23 km</desc>
<time>2010-02-28T16:55:11.77</time>
<name>2739</name>
</trkpt>
<trkpt lat="48.983510" lon="8.655940">
<ele>352.0</ele>
<speed>5.1</speed>
<course>260.4</course>
<desc>Speed 5.1 km/h Distance 4.23 km</desc>
<time>2010-02-28T16:55:12.85</time>
<name>2740</name>
</trkpt>
<trkpt lat="48.983507" lon="8.655910">
<ele>350.5</ele>
<speed>7.3</speed>
<course>257.7</course>
<desc>Speed 7.3 km/h Distance 4.23 km</desc>
<time>2010-02-28T16:55:14.17</time>
<name>2741</name>
</trkpt>
<trkpt lat="48.983498" lon="8.655852">
<ele>350.0</ele>
<speed>8.4</speed>
<course>282.3</course>
<desc>Speed 8.4 km/h Distance 4.23 km</desc>
<time>2010-02-28T16:55:16.16</time>
<name>2742</name>
</trkpt>
<trkpt lat="48.983502" lon="8.655828">
<ele>350.5</ele>
<speed>6.7</speed>
<course>282.3</course>
<desc>Speed 6.7 km/h Distance 4.24 km</desc>
<time>2010-02-28T16:55:16.80</time>
<name>2743</name>
</trkpt>
<trkpt lat="48.983505" lon="8.655805">
<ele>351.0</ele>
<speed>7.2</speed>
<course>287.0</course>
<desc>Speed 7.2 km/h Distance 4.24 km</desc>
<time>2010-02-28T16:55:17.84</time>
<name>2744</name>
</trkpt>
<trkpt lat="48.983510" lon="8.655780">
<ele>351.5</ele>
<speed>7.4</speed>
<course>241.0</course>
<desc>Speed 7.4 km/h Distance 4.24 km</desc>
<time>2010-02-28T16:55:18.82</time>
<name>2745</name>
</trkpt>
<trkpt lat="48.983477" lon="8.655688">
<ele>351.5</ele>
<speed>10.2</speed>
<course>240.3</course>
<desc>Speed 10.2 km/h Distance 4.25 km</desc>
<time>2010-02-28T16:55:20.82</time>
<name>2746</name>
</trkpt>
<trkpt lat="48.983467" lon="8.655662">
<ele>352.0</ele>
<speed>8.5</speed>
<course>283.2</course>
<desc>Speed 8.5 km/h Distance 4.25 km</desc>
<time>2010-02-28T16:55:21.82</time>
<name>2747</name>
</trkpt>
<trkpt lat="48.983470" lon="8.655640">
<ele>352.0</ele>
<speed>6.1</speed>
<course>299.0</course>
<desc>Speed 6.1 km/h Distance 4.25 km</desc>
<time>2010-02-28T16:55:22.82</time>
<name>2748</name>
</trkpt>
<trkpt lat="48.983477" lon="8.655622">
<ele>350.5</ele>
<speed>5.4</speed>
<course>276.7</course>
<desc>Speed 5.4 km/h Distance 4.25 km</desc>
<time>2010-02-28T16:55:23.82</time>
<name>2749</name>
</trkpt>
<trkpt lat="48.983478" lon="8.655600">
<ele>350.5</ele>
<speed>5.6</speed>
<course>284.2</course>
<desc>Speed 5.6 km/h Distance 4.25 km</desc>
<time>2010-02-28T16:55:24.82</time>
<name>2750</name>
</trkpt>
<trkpt lat="48.983482" lon="8.655580">
<ele>351.0</ele>
<speed>5.5</speed>
<course>270.0</course>
<desc>Speed 5.5 km/h Distance 4.26 km</desc>
<time>2010-02-28T16:55:25.82</time>
<name>2751</name>
</trkpt>
<trkpt lat="48.983482" lon="8.655567">
<ele>351.5</ele>
<speed>5.3</speed>
<course>270.0</course>
<desc>Speed 5.3 km/h Distance 4.26 km</desc>
<time>2010-02-28T16:55:26.82</time>
<name>2752</name>
</trkpt>
<trkpt lat="48.983482" lon="8.655562">
<ele>351.5</ele>
<speed>3.6</speed>
<course>58.6</course>
<desc>Speed 3.6 km/h Distance 4.26 km</desc>
<time>2010-02-28T16:55:27.82</time>
<name>2753</name>
</trkpt>
<trkpt lat="48.983485" lon="8.655570">
<ele>352.0</ele>
<speed>0.6</speed>
<course>102.3</course>
<desc>Speed 0.6 km/h Distance 4.26 km</desc>
<time>2010-02-28T16:55:28.82</time>
<name>2754</name>
</trkpt>
<trkpt lat="48.983483" lon="8.655582">
<ele>352.5</ele>
<speed>1.2</speed>
<course>90.0</course>
<desc>Speed 1.2 km/h Distance 4.26 km</desc>
<time>2010-02-28T16:55:29.82</time>
<name>2755</name>
</trkpt>
<trkpt lat="48.983483" lon="8.655588">
<ele>352.5</ele>
<speed>0.5</speed>
<course>90.0</course>
<desc>Speed 0.5 km/h Distance 4.26 km</desc>
<time>2010-02-28T16:55:30.82</time>
<name>2756</name>
</trkpt>
<trkpt lat="48.983483" lon="8.655593">
<ele>353.0</ele>
<speed>0.3</speed>
<course>90.0</course>
<desc>Speed 0.3 km/h Distance 4.26 km</desc>
<time>2010-02-28T16:55:31.82</time>
<name>2757</name>
</trkpt>
<trkpt lat="48.983483" lon="8.655597">
<ele>353.0</ele>
<speed>0.3</speed>
<course>12.6</course>
<desc>Speed 0.3 km/h Distance 4.26 km</desc>
<time>2010-02-28T16:55:32.82</time>
<name>2758</name>
</trkpt>
<trkpt lat="48.983488" lon="8.655598">
<ele>354.0</ele>
<speed>0.2</speed>
<course>33.7</course>
<desc>Speed 0.2 km/h Distance 4.26 km</desc>
<time>2010-02-28T16:55:33.82</time>
<name>2759</name>
</trkpt>
<trkpt lat="48.983492" lon="8.655602">
<ele>354.5</ele>
<speed>0.3</speed>
<course>12.6</course>
<desc>Speed 0.3 km/h Distance 4.26 km</desc>
<time>2010-02-28T16:55:34.82</time>
<name>2760</name>
</trkpt>
<trkpt lat="48.983493" lon="8.655602">
<ele>354.5</ele>
<speed>0.3</speed>
<course>90.0</course>
<desc>Speed 0.3 km/h Distance 4.26 km</desc>
<time>2010-02-28T16:55:35.82</time>
<name>2761</name>
</trkpt>
<trkpt lat="48.983493" lon="8.655603">
<ele>354.5</ele>
<speed>0.3</speed>
<course>262.8</course>
<desc>Speed 0.3 km/h Distance 4.26 km</desc>
<time>2010-02-28T16:55:36.82</time>
<name>2762</name>
</trkpt>
<trkpt lat="48.983492" lon="8.655583">
<ele>353.5</ele>
<speed>5.8</speed>
<course>249.1</course>
<desc>Speed 5.8 km/h Distance 4.26 km</desc>
<time>2010-02-28T16:55:37.82</time>
<name>2763</name>
</trkpt>
<trkpt lat="48.983490" lon="8.655577">
<ele>353.5</ele>
<speed>2.1</speed>
<course>12.6</course>
<desc>Speed 2.1 km/h Distance 4.26 km</desc>
<time>2010-02-28T16:55:38.82</time>
<name>2764</name>
</trkpt>
<trkpt lat="48.983492" lon="8.655577">
<ele>353.5</ele>
<speed>0.5</speed>
<course>71.3</course>
<desc>Speed 0.5 km/h Distance 4.26 km</desc>
<time>2010-02-28T16:55:39.82</time>
<name>2765</name>
</trkpt>
<trkpt lat="48.983495" lon="8.655592">
<ele>354.0</ele>
<speed>3.1</speed>
<course>167.4</course>
<desc>Speed 3.1 km/h Distance 4.26 km</desc>
<time>2010-02-28T16:55:40.82</time>
<name>2766</name>
</trkpt>
<trkpt lat="48.983493" lon="8.655592">
<ele>356.0</ele>
<speed>1.1</speed>
<course>12.6</course>
<desc>Speed 1.1 km/h Distance 4.26 km</desc>
<time>2010-02-28T16:55:41.82</time>
<name>2767</name>
</trkpt>
<trkpt lat="48.983497" lon="8.655592">
<ele>356.0</ele>
<speed>0.4</speed>
<course>12.6</course>
<desc>Speed 0.4 km/h Distance 4.26 km</desc>
<time>2010-02-28T16:55:42.82</time>
<name>2768</name>
</trkpt>
<trkpt lat="48.983497" lon="8.655592">
<ele>356.0</ele>
<speed>0.1</speed>
<course>326.3</course>
<desc>Speed 0.1 km/h Distance 4.26 km</desc>
<time>2010-02-28T16:55:43.82</time>
<name>2769</name>
</trkpt>
<trkpt lat="48.983500" lon="8.655588">
<ele>356.5</ele>
<speed>1.8</speed>
<course>320.6</course>
<desc>Speed 1.8 km/h Distance 4.26 km</desc>
<time>2010-02-28T16:55:44.82</time>
<name>2770</name>
</trkpt>
<trkpt lat="48.983507" lon="8.655580">
<ele>356.5</ele>
<speed>2.7</speed>
<course>270.0</course>
<desc>Speed 2.7 km/h Distance 4.27 km</desc>
<time>2010-02-28T16:55:45.82</time>
<name>2771</name>
</trkpt>
<trkpt lat="48.983507" lon="8.655558">
<ele>357.0</ele>
<speed>4.8</speed>
<course>258.5</course>
<desc>Speed 4.8 km/h Distance 4.27 km</desc>
<time>2010-02-28T16:55:46.82</time>
<name>2772</name>
</trkpt>
<trkpt lat="48.983503" lon="8.655533">
<ele>357.5</ele>
<speed>5.5</speed>
<course>262.8</course>
<desc>Speed 5.5 km/h Distance 4.27 km</desc>
<time>2010-02-28T16:55:47.82</time>
<name>2773</name>
</trkpt>
<trkpt lat="48.983502" lon="8.655513">
<ele>357.5</ele>
<speed>5.5</speed>
<course>263.3</course>
<desc>Speed 5.5 km/h Distance 4.27 km</desc>
<time>2010-02-28T16:55:48.82</time>
<name>2774</name>
</trkpt>
<trkpt lat="48.983500" lon="8.655492">
<ele>358.0</ele>
<speed>6.0</speed>
<course>257.7</course>
<desc>Speed 6.0 km/h Distance 4.27 km</desc>
<time>2010-02-28T16:55:49.82</time>
<name>2775</name>
</trkpt>
<trkpt lat="48.983497" lon="8.655468">
<ele>358.0</ele>
<speed>6.2</speed>
<course>262.8</course>
<desc>Speed 6.2 km/h Distance 4.27 km</desc>
<time>2010-02-28T16:55:50.82</time>
<name>2776</name>
</trkpt>
<trkpt lat="48.983495" lon="8.655448">
<ele>358.0</ele>
<speed>5.8</speed>
<course>263.3</course>
<desc>Speed 5.8 km/h Distance 4.28 km</desc>
<time>2010-02-28T16:55:51.82</time>
<name>2777</name>
</trkpt>
<trkpt lat="48.983493" lon="8.655427">
<ele>358.0</ele>
<speed>6.1</speed>
<course>270.0</course>
<desc>Speed 6.1 km/h Distance 4.28 km</desc>
<time>2010-02-28T16:55:52.83</time>
<name>2778</name>
</trkpt>
<trkpt lat="48.983493" lon="8.655405">
<ele>357.5</ele>
<speed>5.9</speed>
<course>262.1</course>
<desc>Speed 5.9 km/h Distance 4.28 km</desc>
<time>2010-02-28T16:55:53.82</time>
<name>2779</name>
</trkpt>
<trkpt lat="48.983492" lon="8.655387">
<ele>357.0</ele>
<speed>5.7</speed>
<course>262.1</course>
<desc>Speed 5.7 km/h Distance 4.28 km</desc>
<time>2010-02-28T16:55:54.82</time>
<name>2780</name>
</trkpt>
<trkpt lat="48.983490" lon="8.655368">
<ele>357.0</ele>
<speed>5.7</speed>
<course>262.1</course>
<desc>Speed 5.7 km/h Distance 4.28 km</desc>
<time>2010-02-28T16:55:55.82</time>
<name>2781</name>
</trkpt>
<trkpt lat="48.983488" lon="8.655350">
<ele>356.5</ele>
<speed>5.9</speed>
<course>270.0</course>
<desc>Speed 5.9 km/h Distance 4.28 km</desc>
<time>2010-02-28T16:55:56.82</time>
<name>2782</name>
</trkpt>
<trkpt lat="48.983488" lon="8.655330">
<ele>355.5</ele>
<speed>6.0</speed>
<course>262.8</course>
<desc>Speed 6.0 km/h Distance 4.28 km</desc>
<time>2010-02-28T16:55:57.82</time>
<name>2783</name>
</trkpt>
<trkpt lat="48.983487" lon="8.655310">
<ele>355.0</ele>
<speed>6.2</speed>
<course>263.3</course>
<desc>Speed 6.2 km/h Distance 4.29 km</desc>
<time>2010-02-28T16:55:58.82</time>
<name>2784</name>
</trkpt>
<trkpt lat="48.983485" lon="8.655288">
<ele>355.0</ele>
<speed>6.0</speed>
<course>263.3</course>
<desc>Speed 6.0 km/h Distance 4.29 km</desc>
<time>2010-02-28T16:55:59.82</time>
<name>2785</name>
</trkpt>
<trkpt lat="48.983483" lon="8.655267">
<ele>355.0</ele>
<speed>5.8</speed>
<course>270.0</course>
<desc>Speed 5.8 km/h Distance 4.29 km</desc>
<time>2010-02-28T16:56:00.82</time>
<name>2786</name>
</trkpt>
<trkpt lat="48.983483" lon="8.655245">
<ele>355.0</ele>
<speed>5.9</speed>
<course>263.3</course>
<desc>Speed 5.9 km/h Distance 4.29 km</desc>
<time>2010-02-28T16:56:01.82</time>
<name>2787</name>
</trkpt>
<trkpt lat="48.983482" lon="8.655223">
<ele>354.5</ele>
<speed>5.7</speed>
<course>263.3</course>
<desc>Speed 5.7 km/h Distance 4.29 km</desc>
<time>2010-02-28T16:56:02.82</time>
<name>2788</name>
</trkpt>
<trkpt lat="48.983480" lon="8.655202">
<ele>354.5</ele>
<speed>5.6</speed>
<course>270.0</course>
<desc>Speed 5.6 km/h Distance 4.29 km</desc>
<time>2010-02-28T16:56:03.82</time>
<name>2789</name>
</trkpt>
<trkpt lat="48.983480" lon="8.655180">
<ele>354.5</ele>
<speed>5.7</speed>
<course>270.0</course>
<desc>Speed 5.7 km/h Distance 4.30 km</desc>
<time>2010-02-28T16:56:04.82</time>
<name>2790</name>
</trkpt>
<trkpt lat="48.983480" lon="8.655158">
<ele>354.5</ele>
<speed>6.1</speed>
<course>270.0</course>
<desc>Speed 6.1 km/h Distance 4.30 km</desc>
<time>2010-02-28T16:56:05.82</time>
<name>2791</name>
</trkpt>
<trkpt lat="48.983480" lon="8.655150">
<ele>356.0</ele>
<speed>2.7</speed>
<course>255.6</course>
<desc>Speed 2.7 km/h Distance 4.30 km</desc>
<time>2010-02-28T16:56:06.82</time>
<name>2792</name>
</trkpt>
<trkpt lat="48.983478" lon="8.655140">
<ele>355.5</ele>
<speed>3.1</speed>
<course>261.3</course>
<desc>Speed 3.1 km/h Distance 4.30 km</desc>
<time>2010-02-28T16:56:07.82</time>
<name>2793</name>
</trkpt>
<trkpt lat="48.983477" lon="8.655123">
<ele>355.5</ele>
<speed>5.2</speed>
<course>254.5</course>
<desc>Speed 5.2 km/h Distance 4.30 km</desc>
<time>2010-02-28T16:56:08.82</time>
<name>2794</name>
</trkpt>
<trkpt lat="48.983473" lon="8.655105">
<ele>355.5</ele>
<speed>5.9</speed>
<course>262.1</course>
<desc>Speed 5.9 km/h Distance 4.30 km</desc>
<time>2010-02-28T16:56:09.82</time>
<name>2795</name>
</trkpt>
<trkpt lat="48.983472" lon="8.655087">
<ele>355.5</ele>
<speed>5.9</speed>
<course>270.0</course>
<desc>Speed 5.9 km/h Distance 4.30 km</desc>
<time>2010-02-28T16:56:10.82</time>
<name>2796</name>
</trkpt>
<trkpt lat="48.983472" lon="8.655068">
<ele>355.5</ele>
<speed>5.9</speed>
<course>270.0</course>
<desc>Speed 5.9 km/h Distance 4.30 km</desc>
<time>2010-02-28T16:56:11.82</time>
<name>2797</name>
</trkpt>
<trkpt lat="48.983472" lon="8.655048">
<ele>355.5</ele>
<speed>5.9</speed>
<course>270.0</course>
<desc>Speed 5.9 km/h Distance 4.31 km</desc>
<time>2010-02-28T16:56:12.82</time>
<name>2798</name>
</trkpt>
<trkpt lat="48.983472" lon="8.655028">
<ele>355.0</ele>
<speed>5.5</speed>
<course>262.1</course>
<desc>Speed 5.5 km/h Distance 4.31 km</desc>
<time>2010-02-28T16:56:13.82</time>
<name>2799</name>
</trkpt>
<trkpt lat="48.983470" lon="8.655010">
<ele>355.0</ele>
<speed>5.5</speed>
<course>262.1</course>
<desc>Speed 5.5 km/h Distance 4.31 km</desc>
<time>2010-02-28T16:56:14.82</time>
<name>2800</name>
</trkpt>
<trkpt lat="48.983468" lon="8.654992">
<ele>355.0</ele>
<speed>5.5</speed>
<course>270.0</course>
<desc>Speed 5.5 km/h Distance 4.31 km</desc>
<time>2010-02-28T16:56:15.82</time>
<name>2801</name>
</trkpt>
<trkpt lat="48.983468" lon="8.654973">
<ele>354.5</ele>
<speed>5.5</speed>
<course>262.8</course>
<desc>Speed 5.5 km/h Distance 4.31 km</desc>
<time>2010-02-28T16:56:16.82</time>
<name>2802</name>
</trkpt>
<trkpt lat="48.983467" lon="8.654953">
<ele>354.5</ele>
<speed>5.7</speed>
<course>270.0</course>
<desc>Speed 5.7 km/h Distance 4.31 km</desc>
<time>2010-02-28T16:56:17.82</time>
<name>2803</name>
</trkpt>
<trkpt lat="48.983467" lon="8.654933">
<ele>354.5</ele>
<speed>5.8</speed>
<course>263.3</course>
<desc>Speed 5.8 km/h Distance 4.31 km</desc>
<time>2010-02-28T16:56:18.82</time>
<name>2804</name>
</trkpt>
<trkpt lat="48.983465" lon="8.654912">
<ele>354.5</ele>
<speed>5.8</speed>
<course>270.0</course>
<desc>Speed 5.8 km/h Distance 4.32 km</desc>
<time>2010-02-28T16:56:19.82</time>
<name>2805</name>
</trkpt>
<trkpt lat="48.983465" lon="8.654890">
<ele>354.0</ele>
<speed>5.8</speed>
<course>263.8</course>
<desc>Speed 5.8 km/h Distance 4.32 km</desc>
<time>2010-02-28T16:56:20.82</time>
<name>2806</name>
</trkpt>
<trkpt lat="48.983463" lon="8.654867">
<ele>354.0</ele>
<speed>5.7</speed>
<course>270.0</course>
<desc>Speed 5.7 km/h Distance 4.32 km</desc>
<time>2010-02-28T16:56:21.82</time>
<name>2807</name>
</trkpt>
<trkpt lat="48.983463" lon="8.654847">
<ele>354.0</ele>
<speed>5.5</speed>
<course>256.8</course>
<desc>Speed 5.5 km/h Distance 4.32 km</desc>
<time>2010-02-28T16:56:22.95</time>
<name>2808</name>
</trkpt>
<trkpt lat="48.983460" lon="8.654825">
<ele>354.0</ele>
<speed>5.6</speed>
<course>270.0</course>
<desc>Speed 5.6 km/h Distance 4.32 km</desc>
<time>2010-02-28T16:56:23.86</time>
<name>2809</name>
</trkpt>
<trkpt lat="48.983460" lon="8.654803">
<ele>354.0</ele>
<speed>5.5</speed>
<course>270.0</course>
<desc>Speed 5.5 km/h Distance 4.32 km</desc>
<time>2010-02-28T16:56:24.86</time>
<name>2810</name>
</trkpt>
<trkpt lat="48.983460" lon="8.654782">
<ele>354.0</ele>
<speed>5.5</speed>
<course>263.3</course>
<desc>Speed 5.5 km/h Distance 4.32 km</desc>
<time>2010-02-28T16:56:25.86</time>
<name>2811</name>
</trkpt>
<trkpt lat="48.983458" lon="8.654760">
<ele>354.0</ele>
<speed>5.6</speed>
<course>263.3</course>
<desc>Speed 5.6 km/h Distance 4.33 km</desc>
<time>2010-02-28T16:56:26.86</time>
<name>2812</name>
</trkpt>
<trkpt lat="48.983457" lon="8.654738">
<ele>354.0</ele>
<speed>5.7</speed>
<course>263.3</course>
<desc>Speed 5.7 km/h Distance 4.33 km</desc>
<time>2010-02-28T16:56:27.86</time>
<name>2813</name>
</trkpt>
<trkpt lat="48.983455" lon="8.654717">
<ele>353.5</ele>
<speed>5.6</speed>
<course>270.0</course>
<desc>Speed 5.6 km/h Distance 4.33 km</desc>
<time>2010-02-28T16:56:28.86</time>
<name>2814</name>
</trkpt>
<trkpt lat="48.983455" lon="8.654695">
<ele>353.5</ele>
<speed>5.5</speed>
<course>263.8</course>
<desc>Speed 5.5 km/h Distance 4.33 km</desc>
<time>2010-02-28T16:56:29.86</time>
<name>2815</name>
</trkpt>
<trkpt lat="48.983453" lon="8.654672">
<ele>353.5</ele>
<speed>5.9</speed>
<course>263.8</course>
<desc>Speed 5.9 km/h Distance 4.33 km</desc>
<time>2010-02-28T16:56:30.86</time>
<name>2816</name>
</trkpt>
<trkpt lat="48.983452" lon="8.654648">
<ele>353.5</ele>
<speed>6.3</speed>
<course>263.8</course>
<desc>Speed 6.3 km/h Distance 4.33 km</desc>
<time>2010-02-28T16:56:31.86</time>
<name>2817</name>
</trkpt>
<trkpt lat="48.983450" lon="8.654625">
<ele>353.5</ele>
<speed>6.1</speed>
<course>255.8</course>
<desc>Speed 6.1 km/h Distance 4.34 km</desc>
<time>2010-02-28T16:56:32.86</time>
<name>2818</name>
</trkpt>
<trkpt lat="48.983447" lon="8.654605">
<ele>353.5</ele>
<speed>5.3</speed>
<course>262.8</course>
<desc>Speed 5.3 km/h Distance 4.34 km</desc>
<time>2010-02-28T16:56:33.86</time>
<name>2819</name>
</trkpt>
<trkpt lat="48.983445" lon="8.654585">
<ele>353.5</ele>
<speed>5.3</speed>
<course>262.8</course>
<desc>Speed 5.3 km/h Distance 4.34 km</desc>
<time>2010-02-28T16:56:34.86</time>
<name>2820</name>
</trkpt>
<trkpt lat="48.983443" lon="8.654565">
<ele>353.5</ele>
<speed>5.5</speed>
<course>270.0</course>
<desc>Speed 5.5 km/h Distance 4.34 km</desc>
<time>2010-02-28T16:56:35.86</time>
<name>2821</name>
</trkpt>
<trkpt lat="48.983443" lon="8.654545">
<ele>353.5</ele>
<speed>5.4</speed>
<course>263.3</course>
<desc>Speed 5.4 km/h Distance 4.34 km</desc>
<time>2010-02-28T16:56:36.86</time>
<name>2822</name>
</trkpt>
<trkpt lat="48.983442" lon="8.654523">
<ele>353.5</ele>
<speed>5.8</speed>
<course>270.0</course>
<desc>Speed 5.8 km/h Distance 4.34 km</desc>
<time>2010-02-28T16:56:37.86</time>
<name>2823</name>
</trkpt>
<trkpt lat="48.983442" lon="8.654502">
<ele>353.5</ele>
<speed>6.0</speed>
<course>254.5</course>
<desc>Speed 6.0 km/h Distance 4.35 km</desc>
<time>2010-02-28T16:56:38.86</time>
<name>2824</name>
</trkpt>
<trkpt lat="48.983438" lon="8.654483">
<ele>353.0</ele>
<speed>5.3</speed>
<course>262.1</course>
<desc>Speed 5.3 km/h Distance 4.35 km</desc>
<time>2010-02-28T16:56:39.86</time>
<name>2825</name>
</trkpt>
<trkpt lat="48.983437" lon="8.654465">
<ele>353.0</ele>
<speed>5.1</speed>
<course>262.1</course>
<desc>Speed 5.1 km/h Distance 4.35 km</desc>
<time>2010-02-28T16:56:40.86</time>
<name>2826</name>
</trkpt>
<trkpt lat="48.983435" lon="8.654447">
<ele>353.0</ele>
<speed>5.1</speed>
<course>262.1</course>
<desc>Speed 5.1 km/h Distance 4.35 km</desc>
<time>2010-02-28T16:56:41.86</time>
<name>2827</name>
</trkpt>
<trkpt lat="48.983433" lon="8.654428">
<ele>353.0</ele>
<speed>4.8</speed>
<course>270.0</course>
<desc>Speed 4.8 km/h Distance 4.35 km</desc>
<time>2010-02-28T16:56:42.86</time>
<name>2828</name>
</trkpt>
<trkpt lat="48.983433" lon="8.654410">
<ele>353.0</ele>
<speed>4.9</speed>
<course>270.0</course>
<desc>Speed 4.9 km/h Distance 4.35 km</desc>
<time>2010-02-28T16:56:43.86</time>
<name>2829</name>
</trkpt>
<trkpt lat="48.983433" lon="8.654390">
<ele>353.0</ele>
<speed>5.2</speed>
<course>263.3</course>
<desc>Speed 5.2 km/h Distance 4.35 km</desc>
<time>2010-02-28T16:56:44.86</time>
<name>2830</name>
</trkpt>
<trkpt lat="48.983432" lon="8.654368">
<ele>353.0</ele>
<speed>5.5</speed>
<course>256.8</course>
<desc>Speed 5.5 km/h Distance 4.36 km</desc>
<time>2010-02-28T16:56:45.86</time>
<name>2831</name>
</trkpt>
<trkpt lat="48.983428" lon="8.654347">
<ele>353.0</ele>
<speed>5.5</speed>
<course>262.8</course>
<desc>Speed 5.5 km/h Distance 4.36 km</desc>
<time>2010-02-28T16:56:46.86</time>
<name>2832</name>
</trkpt>
<trkpt lat="48.983427" lon="8.654327">
<ele>353.0</ele>
<speed>5.3</speed>
<course>262.8</course>
<desc>Speed 5.3 km/h Distance 4.36 km</desc>
<time>2010-02-28T16:56:47.86</time>
<name>2833</name>
</trkpt>
<trkpt lat="48.983425" lon="8.654307">
<ele>353.0</ele>
<speed>5.1</speed>
<course>262.8</course>
<desc>Speed 5.1 km/h Distance 4.36 km</desc>
<time>2010-02-28T16:56:48.86</time>
<name>2834</name>
</trkpt>
<trkpt lat="48.983423" lon="8.654287">
<ele>353.0</ele>
<speed>5.2</speed>
<course>270.0</course>
<desc>Speed 5.2 km/h Distance 4.36 km</desc>
<time>2010-02-28T16:56:49.86</time>
<name>2835</name>
</trkpt>
<trkpt lat="48.983423" lon="8.654268">
<ele>353.0</ele>
<speed>4.9</speed>
<course>255.8</course>
<desc>Speed 4.9 km/h Distance 4.36 km</desc>
<time>2010-02-28T16:56:50.86</time>
<name>2836</name>
</trkpt>
<trkpt lat="48.983420" lon="8.654248">
<ele>353.0</ele>
<speed>5.2</speed>
<course>262.8</course>
<desc>Speed 5.2 km/h Distance 4.36 km</desc>
<time>2010-02-28T16:56:51.86</time>
<name>2837</name>
</trkpt>
<trkpt lat="48.983418" lon="8.654228">
<ele>352.5</ele>
<speed>5.5</speed>
<course>270.0</course>
<desc>Speed 5.5 km/h Distance 4.37 km</desc>
<time>2010-02-28T16:56:52.86</time>
<name>2838</name>
</trkpt>
<trkpt lat="48.983418" lon="8.654208">
<ele>352.5</ele>
<speed>5.5</speed>
<course>262.8</course>
<desc>Speed 5.5 km/h Distance 4.37 km</desc>
<time>2010-02-28T16:56:53.86</time>
<name>2839</name>
</trkpt>
<trkpt lat="48.983417" lon="8.654188">
<ele>352.5</ele>
<speed>5.0</speed>
<course>262.8</course>
<desc>Speed 5.0 km/h Distance 4.37 km</desc>
<time>2010-02-28T16:56:54.86</time>
<name>2840</name>
</trkpt>
<trkpt lat="48.983415" lon="8.654168">
<ele>352.5</ele>
<speed>5.4</speed>
<course>277.9</course>
<desc>Speed 5.4 km/h Distance 4.37 km</desc>
<time>2010-02-28T16:56:55.86</time>
<name>2841</name>
</trkpt>
<trkpt lat="48.983417" lon="8.654150">
<ele>352.5</ele>
<speed>4.8</speed>
<course>301.4</course>
<desc>Speed 4.8 km/h Distance 4.37 km</desc>
<time>2010-02-28T16:56:56.86</time>
<name>2842</name>
</trkpt>
<trkpt lat="48.983420" lon="8.654142">
<ele>353.0</ele>
<speed>2.9</speed>
<course>301.4</course>
<desc>Speed 2.9 km/h Distance 4.37 km</desc>
<time>2010-02-28T16:56:57.86</time>
<name>2843</name>
</trkpt>
<trkpt lat="48.983420" lon="8.654142">
<ele>353.0</ele>
<speed>0.4</speed>
<course>270.0</course>
<desc>Speed 0.4 km/h Distance 4.37 km</desc>
<time>2010-02-28T16:56:58.86</time>
<name>2844</name>
</trkpt>
<trkpt lat="48.983420" lon="8.654140">
<ele>353.0</ele>
<speed>0.8</speed>
<course>236.7</course>
<desc>Speed 0.8 km/h Distance 4.37 km</desc>
<time>2010-02-28T16:56:59.86</time>
<name>2845</name>
</trkpt>
<trkpt lat="48.983415" lon="8.654128">
<ele>352.5</ele>
<speed>3.9</speed>
<course>254.5</course>
<desc>Speed 3.9 km/h Distance 4.37 km</desc>
<time>2010-02-28T16:57:00.86</time>
<name>2846</name>
</trkpt>
<trkpt lat="48.983412" lon="8.654110">
<ele>352.5</ele>
<speed>5.0</speed>
<course>270.0</course>
<desc>Speed 5.0 km/h Distance 4.37 km</desc>
<time>2010-02-28T16:57:01.86</time>
<name>2847</name>
</trkpt>
<trkpt lat="48.983412" lon="8.654092">
<ele>352.5</ele>
<speed>5.2</speed>
<course>262.8</course>
<desc>Speed 5.2 km/h Distance 4.38 km</desc>
<time>2010-02-28T16:57:02.86</time>
<name>2848</name>
</trkpt>
<trkpt lat="48.983410" lon="8.654072">
<ele>352.5</ele>
<speed>5.4</speed>
<course>255.8</course>
<desc>Speed 5.4 km/h Distance 4.38 km</desc>
<time>2010-02-28T16:57:03.86</time>
<name>2849</name>
</trkpt>
<trkpt lat="48.983407" lon="8.654052">
<ele>352.5</ele>
<speed>5.4</speed>
<course>262.1</course>
<desc>Speed 5.4 km/h Distance 4.38 km</desc>
<time>2010-02-28T16:57:04.86</time>
<name>2850</name>
</trkpt>
<trkpt lat="48.983405" lon="8.654033">
<ele>352.5</ele>
<speed>4.9</speed>
<course>270.0</course>
<desc>Speed 4.9 km/h Distance 4.38 km</desc>
<time>2010-02-28T16:57:05.86</time>
<name>2851</name>
</trkpt>
<trkpt lat="48.983405" lon="8.654017">
<ele>352.5</ele>
<speed>4.7</speed>
<course>262.1</course>
<desc>Speed 4.7 km/h Distance 4.38 km</desc>
<time>2010-02-28T16:57:06.86</time>
<name>2852</name>
</trkpt>
<trkpt lat="48.983403" lon="8.653998">
<ele>352.5</ele>
<speed>4.9</speed>
<course>263.3</course>
<desc>Speed 4.9 km/h Distance 4.38 km</desc>
<time>2010-02-28T16:57:07.86</time>
<name>2853</name>
</trkpt>
<trkpt lat="48.983402" lon="8.653977">
<ele>352.5</ele>
<speed>5.7</speed>
<course>262.8</course>
<desc>Speed 5.7 km/h Distance 4.38 km</desc>
<time>2010-02-28T16:57:08.86</time>
<name>2854</name>
</trkpt>
<trkpt lat="48.983400" lon="8.653957">
<ele>352.5</ele>
<speed>5.3</speed>
<course>262.8</course>
<desc>Speed 5.3 km/h Distance 4.39 km</desc>
<time>2010-02-28T16:57:09.86</time>
<name>2855</name>
</trkpt>
<trkpt lat="48.983398" lon="8.653937">
<ele>352.5</ele>
<speed>5.3</speed>
<course>270.0</course>
<desc>Speed 5.3 km/h Distance 4.39 km</desc>
<time>2010-02-28T16:57:10.86</time>
<name>2856</name>
</trkpt>
<trkpt lat="48.983398" lon="8.653915">
<ele>352.5</ele>
<speed>5.6</speed>
<course>263.3</course>
<desc>Speed 5.6 km/h Distance 4.39 km</desc>
<time>2010-02-28T16:57:11.86</time>
<name>2857</name>
</trkpt>
<trkpt lat="48.983397" lon="8.653893">
<ele>352.5</ele>
<speed>5.9</speed>
<course>262.8</course>
<desc>Speed 5.9 km/h Distance 4.39 km</desc>
<time>2010-02-28T16:57:12.86</time>
<name>2858</name>
</trkpt>
<trkpt lat="48.983395" lon="8.653873">
<ele>352.5</ele>
<speed>5.5</speed>
<course>263.3</course>
<desc>Speed 5.5 km/h Distance 4.39 km</desc>
<time>2010-02-28T16:57:13.86</time>
<name>2859</name>
</trkpt>
<trkpt lat="48.983393" lon="8.653852">
<ele>352.5</ele>
<speed>5.5</speed>
<course>262.8</course>
<desc>Speed 5.5 km/h Distance 4.39 km</desc>
<time>2010-02-28T16:57:14.86</time>
<name>2860</name>
</trkpt>
<trkpt lat="48.983392" lon="8.653832">
<ele>352.5</ele>
<speed>5.3</speed>
<course>255.8</course>
<desc>Speed 5.3 km/h Distance 4.39 km</desc>
<time>2010-02-28T16:57:15.86</time>
<name>2861</name>
</trkpt>
<trkpt lat="48.983388" lon="8.653812">
<ele>352.5</ele>
<speed>5.6</speed>
<course>263.3</course>
<desc>Speed 5.6 km/h Distance 4.40 km</desc>
<time>2010-02-28T16:57:16.86</time>
<name>2862</name>
</trkpt>
<trkpt lat="48.983387" lon="8.653790">
<ele>352.0</ele>
<speed>5.5</speed>
<course>263.3</course>
<desc>Speed 5.5 km/h Distance 4.40 km</desc>
<time>2010-02-28T16:57:17.86</time>
<name>2863</name>
</trkpt>
<trkpt lat="48.983385" lon="8.653768">
<ele>352.0</ele>
<speed>6.0</speed>
<course>263.3</course>
<desc>Speed 6.0 km/h Distance 4.40 km</desc>
<time>2010-02-28T16:57:18.86</time>
<name>2864</name>
</trkpt>
<trkpt lat="48.983383" lon="8.653747">
<ele>352.0</ele>
<speed>5.5</speed>
<course>256.8</course>
<desc>Speed 5.5 km/h Distance 4.40 km</desc>
<time>2010-02-28T16:57:19.86</time>
<name>2865</name>
</trkpt>
<trkpt lat="48.983380" lon="8.653725">
<ele>352.0</ele>
<speed>5.5</speed>
<course>250.6</course>
<desc>Speed 5.5 km/h Distance 4.40 km</desc>
<time>2010-02-28T16:57:20.86</time>
<name>2866</name>
</trkpt>
<trkpt lat="48.983375" lon="8.653703">
<ele>352.5</ele>
<speed>5.9</speed>
<course>263.3</course>
<desc>Speed 5.9 km/h Distance 4.40 km</desc>
<time>2010-02-28T16:57:21.86</time>
<name>2867</name>
</trkpt>
<trkpt lat="48.983373" lon="8.653682">
<ele>352.5</ele>
<speed>5.9</speed>
<course>257.7</course>
<desc>Speed 5.9 km/h Distance 4.41 km</desc>
<time>2010-02-28T16:57:22.86</time>
<name>2868</name>
</trkpt>
<trkpt lat="48.983370" lon="8.653658">
<ele>352.5</ele>
<speed>6.0</speed>
<course>257.7</course>
<desc>Speed 6.0 km/h Distance 4.41 km</desc>
<time>2010-02-28T16:57:23.86</time>
<name>2869</name>
</trkpt>
<trkpt lat="48.983367" lon="8.653635">
<ele>352.5</ele>
<speed>6.1</speed>
<course>256.8</course>
<desc>Speed 6.1 km/h Distance 4.41 km</desc>
<time>2010-02-28T16:57:24.86</time>
<name>2870</name>
</trkpt>
<trkpt lat="48.983363" lon="8.653613">
<ele>352.5</ele>
<speed>5.9</speed>
<course>263.3</course>
<desc>Speed 5.9 km/h Distance 4.41 km</desc>
<time>2010-02-28T16:57:25.86</time>
<name>2871</name>
</trkpt>
<trkpt lat="48.983362" lon="8.653592">
<ele>352.0</ele>
<speed>5.4</speed>
<course>263.3</course>
<desc>Speed 5.4 km/h Distance 4.41 km</desc>
<time>2010-02-28T16:57:26.86</time>
<name>2872</name>
</trkpt>
<trkpt lat="48.983360" lon="8.653570">
<ele>352.0</ele>
<speed>5.7</speed>
<course>262.8</course>
<desc>Speed 5.7 km/h Distance 4.41 km</desc>
<time>2010-02-28T16:57:27.86</time>
<name>2873</name>
</trkpt>
<trkpt lat="48.983358" lon="8.653550">
<ele>352.5</ele>
<speed>5.5</speed>
<course>270.0</course>
<desc>Speed 5.5 km/h Distance 4.42 km</desc>
<time>2010-02-28T16:57:28.86</time>
<name>2874</name>
</trkpt>
<trkpt lat="48.983358" lon="8.653527">
<ele>352.5</ele>
<speed>5.7</speed>
<course>270.0</course>
<desc>Speed 5.7 km/h Distance 4.42 km</desc>
<time>2010-02-28T16:57:29.86</time>
<name>2875</name>
</trkpt>
<trkpt lat="48.983358" lon="8.653505">
<ele>352.5</ele>
<speed>6.0</speed>
<course>262.8</course>
<desc>Speed 6.0 km/h Distance 4.42 km</desc>
<time>2010-02-28T16:57:30.86</time>
<name>2876</name>
</trkpt>
<trkpt lat="48.983357" lon="8.653485">
<ele>352.5</ele>
<speed>5.3</speed>
<course>257.7</course>
<desc>Speed 5.3 km/h Distance 4.42 km</desc>
<time>2010-02-28T16:57:31.86</time>
<name>2877</name>
</trkpt>
<trkpt lat="48.983353" lon="8.653462">
<ele>352.5</ele>
<speed>5.9</speed>
<course>263.3</course>
<desc>Speed 5.9 km/h Distance 4.42 km</desc>
<time>2010-02-28T16:57:32.86</time>
<name>2878</name>
</trkpt>
<trkpt lat="48.983352" lon="8.653440">
<ele>352.5</ele>
<speed>5.8</speed>
<course>335.4</course>
<desc>Speed 5.8 km/h Distance 4.42 km</desc>
<time>2010-02-28T16:57:33.86</time>
<name>2879</name>
</trkpt>
<trkpt lat="48.983368" lon="8.653428">
<ele>354.0</ele>
<speed>7.5</speed>
<course>277.2</course>
<desc>Speed 7.5 km/h Distance 4.43 km</desc>
<time>2010-02-28T16:57:34.86</time>
<name>2880</name>
</trkpt>
<trkpt lat="48.983370" lon="8.653408">
<ele>354.0</ele>
<speed>5.5</speed>
<course>262.8</course>
<desc>Speed 5.5 km/h Distance 4.43 km</desc>
<time>2010-02-28T16:57:35.86</time>
<name>2881</name>
</trkpt>
<trkpt lat="48.983368" lon="8.653388">
<ele>354.0</ele>
<speed>5.1</speed>
<course>256.8</course>
<desc>Speed 5.1 km/h Distance 4.43 km</desc>
<time>2010-02-28T16:57:36.86</time>
<name>2882</name>
</trkpt>
<trkpt lat="48.983365" lon="8.653367">
<ele>354.0</ele>
<speed>5.5</speed>
<course>262.8</course>
<desc>Speed 5.5 km/h Distance 4.43 km</desc>
<time>2010-02-28T16:57:37.86</time>
<name>2883</name>
</trkpt>
<trkpt lat="48.983363" lon="8.653347">
<ele>353.5</ele>
<speed>5.5</speed>
<course>270.0</course>
<desc>Speed 5.5 km/h Distance 4.43 km</desc>
<time>2010-02-28T16:57:38.86</time>
<name>2884</name>
</trkpt>
<trkpt lat="48.983363" lon="8.653325">
<ele>353.5</ele>
<speed>5.5</speed>
<course>256.8</course>
<desc>Speed 5.5 km/h Distance 4.43 km</desc>
<time>2010-02-28T16:57:39.86</time>
<name>2885</name>
</trkpt>
<trkpt lat="48.983360" lon="8.653303">
<ele>353.5</ele>
<speed>5.3</speed>
<course>257.7</course>
<desc>Speed 5.3 km/h Distance 4.44 km</desc>
<time>2010-02-28T16:57:40.86</time>
<name>2886</name>
</trkpt>
<trkpt lat="48.983357" lon="8.653280">
<ele>353.5</ele>
<speed>6.4</speed>
<course>263.8</course>
<desc>Speed 6.4 km/h Distance 4.44 km</desc>
<time>2010-02-28T16:57:41.86</time>
<name>2887</name>
</trkpt>
<trkpt lat="48.983355" lon="8.653257">
<ele>353.0</ele>
<speed>6.3</speed>
<course>256.8</course>
<desc>Speed 6.3 km/h Distance 4.44 km</desc>
<time>2010-02-28T16:57:42.86</time>
<name>2888</name>
</trkpt>
<trkpt lat="48.983352" lon="8.653235">
<ele>353.0</ele>
<speed>5.9</speed>
<course>263.3</course>
<desc>Speed 5.9 km/h Distance 4.44 km</desc>
<time>2010-02-28T16:57:43.86</time>
<name>2889</name>
</trkpt>
<trkpt lat="48.983350" lon="8.653213">
<ele>353.0</ele>
<speed>5.8</speed>
<course>270.0</course>
<desc>Speed 5.8 km/h Distance 4.44 km</desc>
<time>2010-02-28T16:57:44.86</time>
<name>2890</name>
</trkpt>
<trkpt lat="48.983350" lon="8.653190">
<ele>352.5</ele>
<speed>5.9</speed>
<course>263.8</course>
<desc>Speed 5.9 km/h Distance 4.44 km</desc>
<time>2010-02-28T16:57:45.86</time>
<name>2891</name>
</trkpt>
<trkpt lat="48.983348" lon="8.653167">
<ele>352.0</ele>
<speed>6.0</speed>
<course>270.0</course>
<desc>Speed 6.0 km/h Distance 4.45 km</desc>
<time>2010-02-28T16:57:46.86</time>
<name>2892</name>
</trkpt>
<trkpt lat="48.983348" lon="8.653145">
<ele>352.0</ele>
<speed>6.0</speed>
<course>257.7</course>
<desc>Speed 6.0 km/h Distance 4.45 km</desc>
<time>2010-02-28T16:57:47.86</time>
<name>2893</name>
</trkpt>
<trkpt lat="48.983345" lon="8.653122">
<ele>352.0</ele>
<speed>6.0</speed>
<course>263.3</course>
<desc>Speed 6.0 km/h Distance 4.45 km</desc>
<time>2010-02-28T16:57:48.86</time>
<name>2894</name>
</trkpt>
<trkpt lat="48.983343" lon="8.653100">
<ele>352.0</ele>
<speed>5.9</speed>
<course>256.8</course>
<desc>Speed 5.9 km/h Distance 4.45 km</desc>
<time>2010-02-28T16:57:49.86</time>
<name>2895</name>
</trkpt>
<trkpt lat="48.983340" lon="8.653078">
<ele>351.5</ele>
<speed>5.7</speed>
<course>263.3</course>
<desc>Speed 5.7 km/h Distance 4.45 km</desc>
<time>2010-02-28T16:57:50.86</time>
<name>2896</name>
</trkpt>
<trkpt lat="48.983338" lon="8.653057">
<ele>351.5</ele>
<speed>5.8</speed>
<course>263.3</course>
<desc>Speed 5.8 km/h Distance 4.45 km</desc>
<time>2010-02-28T16:57:51.86</time>
<name>2897</name>
</trkpt>
<trkpt lat="48.983337" lon="8.653035">
<ele>351.5</ele>
<speed>5.8</speed>
<course>263.8</course>
<desc>Speed 5.8 km/h Distance 4.46 km</desc>
<time>2010-02-28T16:57:52.86</time>
<name>2898</name>
</trkpt>
<trkpt lat="48.983335" lon="8.653012">
<ele>351.5</ele>
<speed>5.9</speed>
<course>263.8</course>
<desc>Speed 5.9 km/h Distance 4.46 km</desc>
<time>2010-02-28T16:57:53.86</time>
<name>2899</name>
</trkpt>
<trkpt lat="48.983333" lon="8.652988">
<ele>351.0</ele>
<speed>6.0</speed>
<course>263.8</course>
<desc>Speed 6.0 km/h Distance 4.46 km</desc>
<time>2010-02-28T16:57:54.86</time>
<name>2900</name>
</trkpt>
<trkpt lat="48.983332" lon="8.652965">
<ele>351.0</ele>
<speed>6.0</speed>
<course>257.7</course>
<desc>Speed 6.0 km/h Distance 4.46 km</desc>
<time>2010-02-28T16:57:55.86</time>
<name>2901</name>
</trkpt>
<trkpt lat="48.983328" lon="8.652942">
<ele>351.0</ele>
<speed>6.0</speed>
<course>263.3</course>
<desc>Speed 6.0 km/h Distance 4.46 km</desc>
<time>2010-02-28T16:57:56.86</time>
<name>2902</name>
</trkpt>
<trkpt lat="48.983327" lon="8.652920">
<ele>351.0</ele>
<speed>5.9</speed>
<course>256.8</course>
<desc>Speed 5.9 km/h Distance 4.46 km</desc>
<time>2010-02-28T16:57:57.86</time>
<name>2903</name>
</trkpt>
<trkpt lat="48.983323" lon="8.652898">
<ele>351.0</ele>
<speed>5.7</speed>
<course>255.8</course>
<desc>Speed 5.7 km/h Distance 4.47 km</desc>
<time>2010-02-28T16:57:58.86</time>
<name>2904</name>
</trkpt>
<trkpt lat="48.983320" lon="8.652878">
<ele>351.0</ele>
<speed>5.7</speed>
<course>256.8</course>
<desc>Speed 5.7 km/h Distance 4.47 km</desc>
<time>2010-02-28T16:57:59.86</time>
<name>2905</name>
</trkpt>
<trkpt lat="48.983317" lon="8.652857">
<ele>350.5</ele>
<speed>5.5</speed>
<course>254.5</course>
<desc>Speed 5.5 km/h Distance 4.47 km</desc>
<time>2010-02-28T16:58:00.86</time>
<name>2906</name>
</trkpt>
<trkpt lat="48.983313" lon="8.652838">
<ele>350.5</ele>
<speed>5.2</speed>
<course>263.3</course>
<desc>Speed 5.2 km/h Distance 4.47 km</desc>
<time>2010-02-28T16:58:01.86</time>
<name>2907</name>
</trkpt>
<trkpt lat="48.983312" lon="8.652817">
<ele>350.0</ele>
<speed>5.5</speed>
<course>257.7</course>
<desc>Speed 5.5 km/h Distance 4.47 km</desc>
<time>2010-02-28T16:58:02.86</time>
<name>2908</name>
</trkpt>
<trkpt lat="48.983308" lon="8.652793">
<ele>350.0</ele>
<speed>6.2</speed>
<course>270.0</course>
<desc>Speed 6.2 km/h Distance 4.47 km</desc>
<time>2010-02-28T16:58:03.86</time>
<name>2909</name>
</trkpt>
<trkpt lat="48.983308" lon="8.652772">
<ele>349.5</ele>
<speed>5.7</speed>
<course>262.1</course>
<desc>Speed 5.7 km/h Distance 4.47 km</desc>
<time>2010-02-28T16:58:04.86</time>
<name>2910</name>
</trkpt>
<trkpt lat="48.983307" lon="8.652753">
<ele>349.5</ele>
<speed>5.0</speed>
<course>277.2</course>
<desc>Speed 5.0 km/h Distance 4.48 km</desc>
<time>2010-02-28T16:58:05.86</time>
<name>2911</name>
</trkpt>
<trkpt lat="48.983308" lon="8.652733">
<ele>349.5</ele>
<speed>5.1</speed>
<course>270.0</course>
<desc>Speed 5.1 km/h Distance 4.48 km</desc>
<time>2010-02-28T16:58:06.86</time>
<name>2912</name>
</trkpt>
<trkpt lat="48.983308" lon="8.652712">
<ele>349.5</ele>
<speed>5.6</speed>
<course>263.3</course>
<desc>Speed 5.6 km/h Distance 4.48 km</desc>
<time>2010-02-28T16:58:07.86</time>
<name>2913</name>
</trkpt>
<trkpt lat="48.983307" lon="8.652690">
<ele>349.5</ele>
<speed>5.8</speed>
<course>270.0</course>
<desc>Speed 5.8 km/h Distance 4.48 km</desc>
<time>2010-02-28T16:58:08.86</time>
<name>2914</name>
</trkpt>
<trkpt lat="48.983307" lon="8.652667">
<ele>349.5</ele>
<speed>5.8</speed>
<course>263.3</course>
<desc>Speed 5.8 km/h Distance 4.48 km</desc>
<time>2010-02-28T16:58:09.86</time>
<name>2915</name>
</trkpt>
<trkpt lat="48.983305" lon="8.652645">
<ele>349.5</ele>
<speed>5.7</speed>
<course>270.0</course>
<desc>Speed 5.7 km/h Distance 4.48 km</desc>
<time>2010-02-28T16:58:10.86</time>
<name>2916</name>
</trkpt>
<trkpt lat="48.983305" lon="8.652623">
<ele>349.5</ele>
<speed>5.6</speed>
<course>263.3</course>
<desc>Speed 5.6 km/h Distance 4.49 km</desc>
<time>2010-02-28T16:58:11.86</time>
<name>2917</name>
</trkpt>
<trkpt lat="48.983303" lon="8.652602">
<ele>349.0</ele>
<speed>5.3</speed>
<course>262.8</course>
<desc>Speed 5.3 km/h Distance 4.49 km</desc>
<time>2010-02-28T16:58:12.86</time>
<name>2918</name>
</trkpt>
<trkpt lat="48.983302" lon="8.652582">
<ele>349.0</ele>
<speed>5.4</speed>
<course>263.3</course>
<desc>Speed 5.4 km/h Distance 4.49 km</desc>
<time>2010-02-28T16:58:13.86</time>
<name>2919</name>
</trkpt>
<trkpt lat="48.983300" lon="8.652560">
<ele>349.0</ele>
<speed>5.5</speed>
<course>263.3</course>
<desc>Speed 5.5 km/h Distance 4.49 km</desc>
<time>2010-02-28T16:58:14.86</time>
<name>2920</name>
</trkpt>
<trkpt lat="48.983298" lon="8.652538">
<ele>349.0</ele>
<speed>5.6</speed>
<course>270.0</course>
<desc>Speed 5.6 km/h Distance 4.49 km</desc>
<time>2010-02-28T16:58:15.86</time>
<name>2921</name>
</trkpt>
<trkpt lat="48.983298" lon="8.652518">
<ele>349.0</ele>
<speed>5.3</speed>
<course>270.0</course>
<desc>Speed 5.3 km/h Distance 4.49 km</desc>
<time>2010-02-28T16:58:16.86</time>
<name>2922</name>
</trkpt>
<trkpt lat="48.983298" lon="8.652497">
<ele>349.0</ele>
<speed>5.3</speed>
<course>270.0</course>
<desc>Speed 5.3 km/h Distance 4.49 km</desc>
<time>2010-02-28T16:58:17.86</time>
<name>2923</name>
</trkpt>
<trkpt lat="48.983298" lon="8.652477">
<ele>349.0</ele>
<speed>5.4</speed>
<course>255.8</course>
<desc>Speed 5.4 km/h Distance 4.50 km</desc>
<time>2010-02-28T16:58:18.86</time>
<name>2924</name>
</trkpt>
<trkpt lat="48.983295" lon="8.652457">
<ele>349.0</ele>
<speed>5.7</speed>
<course>256.8</course>
<desc>Speed 5.7 km/h Distance 4.50 km</desc>
<time>2010-02-28T16:58:19.86</time>
<name>2925</name>
</trkpt>
<trkpt lat="48.983292" lon="8.652435">
<ele>349.0</ele>
<speed>5.7</speed>
<course>256.8</course>
<desc>Speed 5.7 km/h Distance 4.50 km</desc>
<time>2010-02-28T16:58:20.86</time>
<name>2926</name>
</trkpt>
<trkpt lat="48.983288" lon="8.652413">
<ele>348.5</ele>
<speed>6.1</speed>
<course>263.8</course>
<desc>Speed 6.1 km/h Distance 4.50 km</desc>
<time>2010-02-28T16:58:21.86</time>
<name>2927</name>
</trkpt>
<trkpt lat="48.983287" lon="8.652390">
<ele>348.5</ele>
<speed>6.1</speed>
<course>256.8</course>
<desc>Speed 6.1 km/h Distance 4.50 km</desc>
<time>2010-02-28T16:58:22.86</time>
<name>2928</name>
</trkpt>
<trkpt lat="48.983283" lon="8.652368">
<ele>348.5</ele>
<speed>5.8</speed>
<course>250.6</course>
<desc>Speed 5.8 km/h Distance 4.50 km</desc>
<time>2010-02-28T16:58:23.86</time>
<name>2929</name>
</trkpt>
<trkpt lat="48.983278" lon="8.652347">
<ele>348.5</ele>
<speed>6.0</speed>
<course>250.6</course>
<desc>Speed 6.0 km/h Distance 4.51 km</desc>
<time>2010-02-28T16:58:24.86</time>
<name>2930</name>
</trkpt>
<trkpt lat="48.983273" lon="8.652325">
<ele>348.5</ele>
<speed>5.8</speed>
<course>256.8</course>
<desc>Speed 5.8 km/h Distance 4.51 km</desc>
<time>2010-02-28T16:58:25.86</time>
<name>2931</name>
</trkpt>
<trkpt lat="48.983270" lon="8.652303">
<ele>348.5</ele>
<speed>5.9</speed>
<course>251.9</course>
<desc>Speed 5.9 km/h Distance 4.51 km</desc>
<time>2010-02-28T16:58:26.86</time>
<name>2932</name>
</trkpt>
<trkpt lat="48.983265" lon="8.652280">
<ele>348.5</ele>
<speed>6.2</speed>
<course>257.7</course>
<desc>Speed 6.2 km/h Distance 4.51 km</desc>
<time>2010-02-28T16:58:27.86</time>
<name>2933</name>
</trkpt>
<trkpt lat="48.983262" lon="8.652257">
<ele>348.5</ele>
<speed>6.2</speed>
<course>264.2</course>
<desc>Speed 6.2 km/h Distance 4.51 km</desc>
<time>2010-02-28T16:58:28.86</time>
<name>2934</name>
</trkpt>
<trkpt lat="48.983260" lon="8.652232">
<ele>348.5</ele>
<speed>6.4</speed>
<course>270.0</course>
<desc>Speed 6.4 km/h Distance 4.51 km</desc>
<time>2010-02-28T16:58:29.86</time>
<name>2935</name>
</trkpt>
<trkpt lat="48.983260" lon="8.652210">
<ele>348.5</ele>
<speed>5.9</speed>
<course>263.8</course>
<desc>Speed 5.9 km/h Distance 4.52 km</desc>
<time>2010-02-28T16:58:30.86</time>
<name>2936</name>
</trkpt>
<trkpt lat="48.983258" lon="8.652187">
<ele>348.5</ele>
<speed>5.8</speed>
<course>276.7</course>
<desc>Speed 5.8 km/h Distance 4.52 km</desc>
<time>2010-02-28T16:58:31.86</time>
<name>2937</name>
</trkpt>
<trkpt lat="48.983260" lon="8.652165">
<ele>348.5</ele>
<speed>5.7</speed>
<course>270.0</course>
<desc>Speed 5.7 km/h Distance 4.52 km</desc>
<time>2010-02-28T16:58:32.86</time>
<name>2938</name>
</trkpt>
<trkpt lat="48.983260" lon="8.652142">
<ele>348.0</ele>
<speed>5.9</speed>
<course>263.3</course>
<desc>Speed 5.9 km/h Distance 4.52 km</desc>
<time>2010-02-28T16:58:33.86</time>
<name>2939</name>
</trkpt>
<trkpt lat="48.983258" lon="8.652120">
<ele>348.0</ele>
<speed>5.8</speed>
<course>263.8</course>
<desc>Speed 5.8 km/h Distance 4.52 km</desc>
<time>2010-02-28T16:58:34.86</time>
<name>2940</name>
</trkpt>
<trkpt lat="48.983257" lon="8.652097">
<ele>348.5</ele>
<speed>6.3</speed>
<course>264.2</course>
<desc>Speed 6.3 km/h Distance 4.52 km</desc>
<time>2010-02-28T16:58:35.86</time>
<name>2941</name>
</trkpt>
<trkpt lat="48.983255" lon="8.652072">
<ele>348.5</ele>
<speed>6.2</speed>
<course>263.8</course>
<desc>Speed 6.2 km/h Distance 4.53 km</desc>
<time>2010-02-28T16:58:36.86</time>
<name>2942</name>
</trkpt>
<trkpt lat="48.983253" lon="8.652048">
<ele>348.5</ele>
<speed>6.0</speed>
<course>270.0</course>
<desc>Speed 6.0 km/h Distance 4.53 km</desc>
<time>2010-02-28T16:58:37.86</time>
<name>2943</name>
</trkpt>
<trkpt lat="48.983253" lon="8.652025">
<ele>348.5</ele>
<speed>5.7</speed>
<course>270.0</course>
<desc>Speed 5.7 km/h Distance 4.53 km</desc>
<time>2010-02-28T16:58:38.86</time>
<name>2944</name>
</trkpt>
<trkpt lat="48.983253" lon="8.652003">
<ele>348.5</ele>
<speed>5.7</speed>
<course>270.0</course>
<desc>Speed 5.7 km/h Distance 4.53 km</desc>
<time>2010-02-28T16:58:39.86</time>
<name>2945</name>
</trkpt>
<trkpt lat="48.983253" lon="8.651982">
<ele>348.5</ele>
<speed>5.4</speed>
<course>270.0</course>
<desc>Speed 5.4 km/h Distance 4.53 km</desc>
<time>2010-02-28T16:58:40.86</time>
<name>2946</name>
</trkpt>
<trkpt lat="48.983253" lon="8.651960">
<ele>348.5</ele>
<speed>6.1</speed>
<course>282.3</course>
<desc>Speed 6.1 km/h Distance 4.53 km</desc>
<time>2010-02-28T16:58:41.86</time>
<name>2947</name>
</trkpt>
<trkpt lat="48.983257" lon="8.651937">
<ele>348.0</ele>
<speed>5.9</speed>
<course>262.8</course>
<desc>Speed 5.9 km/h Distance 4.54 km</desc>
<time>2010-02-28T16:58:42.86</time>
<name>2948</name>
</trkpt>
<trkpt lat="48.983255" lon="8.651917">
<ele>348.0</ele>
<speed>5.5</speed>
<course>257.7</course>
<desc>Speed 5.5 km/h Distance 4.54 km</desc>
<time>2010-02-28T16:58:43.86</time>
<name>2949</name>
</trkpt>
<trkpt lat="48.983252" lon="8.651893">
<ele>348.0</ele>
<speed>5.8</speed>
<course>256.8</course>
<desc>Speed 5.8 km/h Distance 4.54 km</desc>
<time>2010-02-28T16:58:44.86</time>
<name>2950</name>
</trkpt>
<trkpt lat="48.983248" lon="8.651872">
<ele>348.0</ele>
<speed>6.0</speed>
<course>270.0</course>
<desc>Speed 6.0 km/h Distance 4.54 km</desc>
<time>2010-02-28T16:58:45.86</time>
<name>2951</name>
</trkpt>
<trkpt lat="48.983248" lon="8.651848">
<ele>347.5</ele>
<speed>6.0</speed>
<course>256.8</course>
<desc>Speed 6.0 km/h Distance 4.54 km</desc>
<time>2010-02-28T16:58:46.86</time>
<name>2952</name>
</trkpt>
<trkpt lat="48.983245" lon="8.651827">
<ele>347.5</ele>
<speed>5.8</speed>
<course>263.8</course>
<desc>Speed 5.8 km/h Distance 4.54 km</desc>
<time>2010-02-28T16:58:47.86</time>
<name>2953</name>
</trkpt>
<trkpt lat="48.983243" lon="8.651803">
<ele>347.5</ele>
<speed>6.0</speed>
<course>262.8</course>
<desc>Speed 6.0 km/h Distance 4.55 km</desc>
<time>2010-02-28T16:58:48.86</time>
<name>2954</name>
</trkpt>
<trkpt lat="48.983242" lon="8.651783">
<ele>347.0</ele>
<speed>5.4</speed>
<course>263.3</course>
<desc>Speed 5.4 km/h Distance 4.55 km</desc>
<time>2010-02-28T16:58:49.86</time>
<name>2955</name>
</trkpt>
<trkpt lat="48.983240" lon="8.651762">
<ele>347.0</ele>
<speed>5.7</speed>
<course>263.8</course>
<desc>Speed 5.7 km/h Distance 4.55 km</desc>
<time>2010-02-28T16:58:50.86</time>
<name>2956</name>
</trkpt>
<trkpt lat="48.983238" lon="8.651738">
<ele>347.0</ele>
<speed>5.9</speed>
<course>263.3</course>
<desc>Speed 5.9 km/h Distance 4.55 km</desc>
<time>2010-02-28T16:58:51.86</time>
<name>2957</name>
</trkpt>
<trkpt lat="48.983237" lon="8.651717">
<ele>347.0</ele>
<speed>5.9</speed>
<course>263.3</course>
<desc>Speed 5.9 km/h Distance 4.55 km</desc>
<time>2010-02-28T16:58:52.86</time>
<name>2958</name>
</trkpt>
<trkpt lat="48.983235" lon="8.651695">
<ele>347.0</ele>
<speed>5.9</speed>
<course>263.3</course>
<desc>Speed 5.9 km/h Distance 4.55 km</desc>
<time>2010-02-28T16:58:53.86</time>
<name>2959</name>
</trkpt>
<trkpt lat="48.983233" lon="8.651673">
<ele>347.0</ele>
<speed>5.6</speed>
<course>263.3</course>
<desc>Speed 5.6 km/h Distance 4.56 km</desc>
<time>2010-02-28T16:58:54.86</time>
<name>2960</name>
</trkpt>
<trkpt lat="48.983232" lon="8.651652">
<ele>347.0</ele>
<speed>5.7</speed>
<course>263.8</course>
<desc>Speed 5.7 km/h Distance 4.56 km</desc>
<time>2010-02-28T16:58:55.86</time>
<name>2961</name>
</trkpt>
<trkpt lat="48.983230" lon="8.651628">
<ele>347.0</ele>
<speed>6.0</speed>
<course>263.8</course>
<desc>Speed 6.0 km/h Distance 4.56 km</desc>
<time>2010-02-28T16:58:56.86</time>
<name>2962</name>
</trkpt>
<trkpt lat="48.983228" lon="8.651605">
<ele>346.5</ele>
<speed>5.9</speed>
<course>262.8</course>
<desc>Speed 5.9 km/h Distance 4.56 km</desc>
<time>2010-02-28T16:58:57.86</time>
<name>2963</name>
</trkpt>
<trkpt lat="48.983227" lon="8.651585">
<ele>346.5</ele>
<speed>5.6</speed>
<course>263.3</course>
<desc>Speed 5.6 km/h Distance 4.56 km</desc>
<time>2010-02-28T16:58:58.86</time>
<name>2964</name>
</trkpt>
<trkpt lat="48.983225" lon="8.651563">
<ele>346.5</ele>
<speed>5.6</speed>
<course>270.0</course>
<desc>Speed 5.6 km/h Distance 4.56 km</desc>
<time>2010-02-28T16:58:59.86</time>
<name>2965</name>
</trkpt>
<trkpt lat="48.983225" lon="8.651542">
<ele>346.5</ele>
<speed>5.8</speed>
<course>263.8</course>
<desc>Speed 5.8 km/h Distance 4.57 km</desc>
<time>2010-02-28T16:59:00.86</time>
<name>2966</name>
</trkpt>
<trkpt lat="48.983223" lon="8.651518">
<ele>346.5</ele>
<speed>6.1</speed>
<course>270.0</course>
<desc>Speed 6.1 km/h Distance 4.57 km</desc>
<time>2010-02-28T16:59:01.86</time>
<name>2967</name>
</trkpt>
<trkpt lat="48.983223" lon="8.651495">
<ele>346.5</ele>
<speed>5.9</speed>
<course>263.3</course>
<desc>Speed 5.9 km/h Distance 4.57 km</desc>
<time>2010-02-28T16:59:02.86</time>
<name>2968</name>
</trkpt>
<trkpt lat="48.983222" lon="8.651473">
<ele>346.5</ele>
<speed>5.6</speed>
<course>255.7</course>
<desc>Speed 5.6 km/h Distance 4.57 km</desc>
<time>2010-02-28T16:59:03.86</time>
<name>2969</name>
</trkpt>
<trkpt lat="48.983218" lon="8.651453">
<ele>346.5</ele>
<speed>5.4</speed>
<course>262.8</course>
<desc>Speed 5.4 km/h Distance 4.57 km</desc>
<time>2010-02-28T16:59:04.86</time>
<name>2970</name>
</trkpt>
<trkpt lat="48.983217" lon="8.651433">
<ele>346.5</ele>
<speed>5.4</speed>
<course>262.8</course>
<desc>Speed 5.4 km/h Distance 4.57 km</desc>
<time>2010-02-28T16:59:05.86</time>
<name>2971</name>
</trkpt>
<trkpt lat="48.983215" lon="8.651413">
<ele>346.5</ele>
<speed>5.4</speed>
<course>256.8</course>
<desc>Speed 5.4 km/h Distance 4.57 km</desc>
<time>2010-02-28T16:59:06.86</time>
<name>2972</name>
</trkpt>
<trkpt lat="48.983212" lon="8.651392">
<ele>346.5</ele>
<speed>5.6</speed>
<course>262.8</course>
<desc>Speed 5.6 km/h Distance 4.58 km</desc>
<time>2010-02-28T16:59:07.86</time>
<name>2973</name>
</trkpt>
<trkpt lat="48.983210" lon="8.651372">
<ele>346.5</ele>
<speed>5.5</speed>
<course>263.8</course>
<desc>Speed 5.5 km/h Distance 4.58 km</desc>
<time>2010-02-28T16:59:08.86</time>
<name>2974</name>
</trkpt>
<trkpt lat="48.983208" lon="8.651348">
<ele>346.5</ele>
<speed>5.9</speed>
<course>270.0</course>
<desc>Speed 5.9 km/h Distance 4.58 km</desc>
<time>2010-02-28T16:59:09.86</time>
<name>2975</name>
</trkpt>
<trkpt lat="48.983208" lon="8.651328">
<ele>346.0</ele>
<speed>5.4</speed>
<course>262.8</course>
<desc>Speed 5.4 km/h Distance 4.58 km</desc>
<time>2010-02-28T16:59:10.86</time>
<name>2976</name>
</trkpt>
<trkpt lat="48.983207" lon="8.651308">
<ele>346.0</ele>
<speed>5.1</speed>
<course>262.8</course>
<desc>Speed 5.1 km/h Distance 4.58 km</desc>
<time>2010-02-28T16:59:11.86</time>
<name>2977</name>
</trkpt>
<trkpt lat="48.983205" lon="8.651288">
<ele>346.0</ele>
<speed>5.3</speed>
<course>254.5</course>
<desc>Speed 5.3 km/h Distance 4.58 km</desc>
<time>2010-02-28T16:59:12.86</time>
<name>2978</name>
</trkpt>
<trkpt lat="48.983202" lon="8.651270">
<ele>345.5</ele>
<speed>5.3</speed>
<course>263.3</course>
<desc>Speed 5.3 km/h Distance 4.59 km</desc>
<time>2010-02-28T16:59:13.86</time>
<name>2979</name>
</trkpt>
<trkpt lat="48.983200" lon="8.651248">
<ele>345.5</ele>
<speed>5.8</speed>
<course>270.0</course>
<desc>Speed 5.8 km/h Distance 4.59 km</desc>
<time>2010-02-28T16:59:14.86</time>
<name>2980</name>
</trkpt>
<trkpt lat="48.983200" lon="8.651225">
<ele>345.0</ele>
<speed>5.9</speed>
<course>262.8</course>
<desc>Speed 5.9 km/h Distance 4.59 km</desc>
<time>2010-02-28T16:59:15.86</time>
<name>2981</name>
</trkpt>
<trkpt lat="48.983198" lon="8.651205">
<ele>345.0</ele>
<speed>5.5</speed>
<course>262.1</course>
<desc>Speed 5.5 km/h Distance 4.59 km</desc>
<time>2010-02-28T16:59:16.86</time>
<name>2982</name>
</trkpt>
<trkpt lat="48.983197" lon="8.651187">
<ele>345.0</ele>
<speed>5.2</speed>
<course>262.8</course>
<desc>Speed 5.2 km/h Distance 4.59 km</desc>
<time>2010-02-28T16:59:17.86</time>
<name>2983</name>
</trkpt>
<trkpt lat="48.983195" lon="8.651167">
<ele>345.0</ele>
<speed>5.4</speed>
<course>263.3</course>
<desc>Speed 5.4 km/h Distance 4.59 km</desc>
<time>2010-02-28T16:59:18.86</time>
<name>2984</name>
</trkpt>
<trkpt lat="48.983193" lon="8.651145">
<ele>345.0</ele>
<speed>5.7</speed>
<course>270.0</course>
<desc>Speed 5.7 km/h Distance 4.59 km</desc>
<time>2010-02-28T16:59:19.86</time>
<name>2985</name>
</trkpt>
<trkpt lat="48.983193" lon="8.651123">
<ele>344.5</ele>
<speed>5.6</speed>
<course>263.3</course>
<desc>Speed 5.6 km/h Distance 4.60 km</desc>
<time>2010-02-28T16:59:20.86</time>
<name>2986</name>
</trkpt>
<trkpt lat="48.983192" lon="8.651102">
<ele>344.5</ele>
<speed>5.8</speed>
<course>270.0</course>
<desc>Speed 5.8 km/h Distance 4.60 km</desc>
<time>2010-02-28T16:59:21.86</time>
<name>2987</name>
</trkpt>
<trkpt lat="48.983192" lon="8.651082">
<ele>344.5</ele>
<speed>5.6</speed>
<course>262.8</course>
<desc>Speed 5.6 km/h Distance 4.60 km</desc>
<time>2010-02-28T16:59:22.86</time>
<name>2988</name>
</trkpt>
<trkpt lat="48.983190" lon="8.651062">
<ele>344.5</ele>
<speed>5.3</speed>
<course>262.8</course>
<desc>Speed 5.3 km/h Distance 4.60 km</desc>
<time>2010-02-28T16:59:23.86</time>
<name>2989</name>
</trkpt>
<trkpt lat="48.983188" lon="8.651042">
<ele>344.0</ele>
<speed>5.1</speed>
<course>283.2</course>
<desc>Speed 5.1 km/h Distance 4.60 km</desc>
<time>2010-02-28T16:59:24.86</time>
<name>2990</name>
</trkpt>
<trkpt lat="48.983192" lon="8.651020">
<ele>344.0</ele>
<speed>5.7</speed>
<course>276.2</course>
<desc>Speed 5.7 km/h Distance 4.60 km</desc>
<time>2010-02-28T16:59:25.86</time>
<name>2991</name>
</trkpt>
<trkpt lat="48.983193" lon="8.650997">
<ele>344.0</ele>
<speed>6.2</speed>
<course>290.9</course>
<desc>Speed 6.2 km/h Distance 4.61 km</desc>
<time>2010-02-28T16:59:26.86</time>
<name>2992</name>
</trkpt>
<trkpt lat="48.983198" lon="8.650977">
<ele>343.5</ele>
<speed>5.7</speed>
<course>289.4</course>
<desc>Speed 5.7 km/h Distance 4.61 km</desc>
<time>2010-02-28T16:59:27.86</time>
<name>2993</name>
</trkpt>
<trkpt lat="48.983203" lon="8.650955">
<ele>343.0</ele>
<speed>5.6</speed>
<course>302.4</course>
<desc>Speed 5.6 km/h Distance 4.61 km</desc>
<time>2010-02-28T16:59:28.86</time>
<name>2994</name>
</trkpt>
<trkpt lat="48.983212" lon="8.650935">
<ele>343.5</ele>
<speed>5.9</speed>
<course>319.8</course>
<desc>Speed 5.9 km/h Distance 4.61 km</desc>
<time>2010-02-28T16:59:29.86</time>
<name>2995</name>
</trkpt>
<trkpt lat="48.983223" lon="8.650920">
<ele>343.0</ele>
<speed>6.2</speed>
<course>329.8</course>
<desc>Speed 6.2 km/h Distance 4.61 km</desc>
<time>2010-02-28T16:59:30.86</time>
<name>2996</name>
</trkpt>
<trkpt lat="48.983238" lon="8.650907">
<ele>343.0</ele>
<speed>6.9</speed>
<course>348.8</course>
<desc>Speed 6.9 km/h Distance 4.61 km</desc>
<time>2010-02-28T16:59:31.86</time>
<name>2997</name>
</trkpt>
<trkpt lat="48.983255" lon="8.650902">
<ele>342.5</ele>
<speed>6.2</speed>
<course>350.3</course>
<desc>Speed 6.2 km/h Distance 4.62 km</desc>
<time>2010-02-28T16:59:32.86</time>
<name>2998</name>
</trkpt>
<trkpt lat="48.983268" lon="8.650898">
<ele>342.5</ele>
<speed>5.0</speed>
<course>1.2</course>
<desc>Speed 5.0 km/h Distance 4.62 km</desc>
<time>2010-02-28T16:59:33.86</time>
<name>2999</name>
</trkpt>
<trkpt lat="48.983282" lon="8.650898">
<ele>342.5</ele>
<speed>5.5</speed>
<course>347.4</course>
<desc>Speed 5.5 km/h Distance 4.62 km</desc>
<time>2010-02-28T16:59:34.86</time>
<name>3000</name>
</trkpt>
<trkpt lat="48.983297" lon="8.650893">
<ele>342.5</ele>
<speed>5.7</speed>
<course>341.9</course>
<desc>Speed 5.7 km/h Distance 4.62 km</desc>
<time>2010-02-28T16:59:35.86</time>
<name>3001</name>
</trkpt>
<trkpt lat="48.983310" lon="8.650887">
<ele>342.0</ele>
<speed>5.8</speed>
<course>337.9</course>
<desc>Speed 5.8 km/h Distance 4.62 km</desc>
<time>2010-02-28T16:59:36.86</time>
<name>3002</name>
</trkpt>
<trkpt lat="48.983323" lon="8.650878">
<ele>342.5</ele>
<speed>5.7</speed>
<course>352.5</course>
<desc>Speed 5.7 km/h Distance 4.62 km</desc>
<time>2010-02-28T16:59:37.86</time>
<name>3003</name>
</trkpt>
<trkpt lat="48.983338" lon="8.650875">
<ele>342.5</ele>
<speed>5.9</speed>
<course>0.0</course>
<desc>Speed 5.9 km/h Distance 4.63 km</desc>
<time>2010-02-28T16:59:38.86</time>
<name>3004</name>
</trkpt>
<trkpt lat="48.983353" lon="8.650875">
<ele>342.5</ele>
<speed>6.1</speed>
<course>0.0</course>
<desc>Speed 6.1 km/h Distance 4.63 km</desc>
<time>2010-02-28T16:59:39.86</time>
<name>3005</name>
</trkpt>
<trkpt lat="48.983368" lon="8.650875">
<ele>342.5</ele>
<speed>5.9</speed>
<course>13.5</course>
<desc>Speed 5.9 km/h Distance 4.63 km</desc>
<time>2010-02-28T16:59:40.86</time>
<name>3006</name>
</trkpt>
<trkpt lat="48.983382" lon="8.650880">
<ele>343.0</ele>
<speed>5.1</speed>
<course>20.9</course>
<desc>Speed 5.1 km/h Distance 4.63 km</desc>
<time>2010-02-28T16:59:41.86</time>
<name>3007</name>
</trkpt>
<trkpt lat="48.983393" lon="8.650887">
<ele>343.0</ele>
<speed>5.6</speed>
<course>14.0</course>
<desc>Speed 5.6 km/h Distance 4.63 km</desc>
<time>2010-02-28T16:59:42.86</time>
<name>3008</name>
</trkpt>
<trkpt lat="48.983407" lon="8.650892">
<ele>343.0</ele>
<speed>5.4</speed>
<course>3.8</course>
<desc>Speed 5.4 km/h Distance 4.63 km</desc>
<time>2010-02-28T16:59:43.86</time>
<name>3009</name>
</trkpt>
<trkpt lat="48.983422" lon="8.650893">
<ele>343.0</ele>
<speed>5.7</speed>
<course>18.1</course>
<desc>Speed 5.7 km/h Distance 4.64 km</desc>
<time>2010-02-28T16:59:44.86</time>
<name>3010</name>
</trkpt>
<trkpt lat="48.983435" lon="8.650900">
<ele>343.5</ele>
<speed>5.5</speed>
<course>20.9</course>
<desc>Speed 5.5 km/h Distance 4.64 km</desc>
<time>2010-02-28T16:59:45.86</time>
<name>3011</name>
</trkpt>
<trkpt lat="48.983447" lon="8.650907">
<ele>343.0</ele>
<speed>5.4</speed>
<course>22.3</course>
<desc>Speed 5.4 km/h Distance 4.64 km</desc>
<time>2010-02-28T16:59:46.86</time>
<name>3012</name>
</trkpt>
<trkpt lat="48.983460" lon="8.650915">
<ele>343.5</ele>
<speed>5.5</speed>
<course>9.0</course>
<desc>Speed 5.5 km/h Distance 4.64 km</desc>
<time>2010-02-28T16:59:47.86</time>
<name>3013</name>
</trkpt>
<trkpt lat="48.983473" lon="8.650918">
<ele>343.5</ele>
<speed>5.7</speed>
<course>9.7</course>
<desc>Speed 5.7 km/h Distance 4.64 km</desc>
<time>2010-02-28T16:59:48.86</time>
<name>3014</name>
</trkpt>
<trkpt lat="48.983487" lon="8.650922">
<ele>343.5</ele>
<speed>5.7</speed>
<course>12.6</course>
<desc>Speed 5.7 km/h Distance 4.64 km</desc>
<time>2010-02-28T16:59:49.86</time>
<name>3015</name>
</trkpt>
<trkpt lat="48.983502" lon="8.650927">
<ele>343.5</ele>
<speed>5.9</speed>
<course>12.6</course>
<desc>Speed 5.9 km/h Distance 4.64 km</desc>
<time>2010-02-28T16:59:50.86</time>
<name>3016</name>
</trkpt>
<trkpt lat="48.983517" lon="8.650932">
<ele>343.0</ele>
<speed>6.4</speed>
<course>12.6</course>
<desc>Speed 6.4 km/h Distance 4.65 km</desc>
<time>2010-02-28T16:59:51.86</time>
<name>3017</name>
</trkpt>
<trkpt lat="48.983532" lon="8.650937">
<ele>343.0</ele>
<speed>5.7</speed>
<course>13.5</course>
<desc>Speed 5.7 km/h Distance 4.65 km</desc>
<time>2010-02-28T16:59:52.86</time>
<name>3018</name>
</trkpt>
<trkpt lat="48.983545" lon="8.650942">
<ele>342.5</ele>
<speed>5.7</speed>
<course>12.2</course>
<desc>Speed 5.7 km/h Distance 4.65 km</desc>
<time>2010-02-28T16:59:53.86</time>
<name>3019</name>
</trkpt>
<trkpt lat="48.983560" lon="8.650947">
<ele>342.0</ele>
<speed>5.7</speed>
<course>9.0</course>
<desc>Speed 5.7 km/h Distance 4.65 km</desc>
<time>2010-02-28T16:59:54.86</time>
<name>3020</name>
</trkpt>
<trkpt lat="48.983573" lon="8.650950">
<ele>342.5</ele>
<speed>5.5</speed>
<course>7.5</course>
<desc>Speed 5.5 km/h Distance 4.65 km</desc>
<time>2010-02-28T16:59:55.86</time>
<name>3021</name>
</trkpt>
<trkpt lat="48.983588" lon="8.650953">
<ele>342.0</ele>
<speed>5.8</speed>
<course>3.8</course>
<desc>Speed 5.8 km/h Distance 4.65 km</desc>
<time>2010-02-28T16:59:56.86</time>
<name>3022</name>
</trkpt>
<trkpt lat="48.983603" lon="8.650955">
<ele>342.5</ele>
<speed>5.8</speed>
<course>8.8</course>
<desc>Speed 5.8 km/h Distance 4.66 km</desc>
<time>2010-02-28T16:59:57.86</time>
<name>3023</name>
</trkpt>
<trkpt lat="48.983618" lon="8.650958">
<ele>342.5</ele>
<speed>5.8</speed>
<course>12.6</course>
<desc>Speed 5.8 km/h Distance 4.66 km</desc>
<time>2010-02-28T16:59:58.86</time>
<name>3024</name>
</trkpt>
<trkpt lat="48.983633" lon="8.650963">
<ele>342.5</ele>
<speed>5.9</speed>
<course>9.0</course>
<desc>Speed 5.9 km/h Distance 4.66 km</desc>
<time>2010-02-28T16:59:59.86</time>
<name>3025</name>
</trkpt>
<trkpt lat="48.983647" lon="8.650967">
<ele>342.5</ele>
<speed>5.4</speed>
<course>8.1</course>
<desc>Speed 5.4 km/h Distance 4.66 km</desc>
<time>2010-02-28T17:00:00.86</time>
<name>3026</name>
</trkpt>
<trkpt lat="48.983662" lon="8.650970">
<ele>342.5</ele>
<speed>5.7</speed>
<course>12.2</course>
<desc>Speed 5.7 km/h Distance 4.66 km</desc>
<time>2010-02-28T17:00:01.86</time>
<name>3027</name>
</trkpt>
<trkpt lat="48.983677" lon="8.650975">
<ele>342.5</ele>
<speed>5.8</speed>
<course>8.1</course>
<desc>Speed 5.8 km/h Distance 4.66 km</desc>
<time>2010-02-28T17:00:02.86</time>
<name>3028</name>
</trkpt>
<trkpt lat="48.983692" lon="8.650978">
<ele>342.5</ele>
<speed>5.8</speed>
<course>3.9</course>
<desc>Speed 5.8 km/h Distance 4.67 km</desc>
<time>2010-02-28T17:00:03.86</time>
<name>3029</name>
</trkpt>
<trkpt lat="48.983705" lon="8.650980">
<ele>342.5</ele>
<speed>5.7</speed>
<course>8.8</course>
<desc>Speed 5.7 km/h Distance 4.67 km</desc>
<time>2010-02-28T17:00:04.86</time>
<name>3030</name>
</trkpt>
<trkpt lat="48.983720" lon="8.650983">
<ele>342.0</ele>
<speed>5.7</speed>
<course>1.2</course>
<desc>Speed 5.7 km/h Distance 4.67 km</desc>
<time>2010-02-28T17:00:05.86</time>
<name>3031</name>
</trkpt>
<trkpt lat="48.983733" lon="8.650983">
<ele>342.0</ele>
<speed>5.3</speed>
<course>13.5</course>
<desc>Speed 5.3 km/h Distance 4.67 km</desc>
<time>2010-02-28T17:00:06.86</time>
<name>3032</name>
</trkpt>
<trkpt lat="48.983747" lon="8.650988">
<ele>342.0</ele>
<speed>5.7</speed>
<course>8.8</course>
<desc>Speed 5.7 km/h Distance 4.67 km</desc>
<time>2010-02-28T17:00:07.86</time>
<name>3033</name>
</trkpt>
<trkpt lat="48.983762" lon="8.650992">
<ele>342.5</ele>
<speed>5.9</speed>
<course>11.2</course>
<desc>Speed 5.9 km/h Distance 4.67 km</desc>
<time>2010-02-28T17:00:08.86</time>
<name>3034</name>
</trkpt>
<trkpt lat="48.983773" lon="8.650995">
<ele>342.5</ele>
<speed>5.1</speed>
<course>5.3</course>
<desc>Speed 5.1 km/h Distance 4.68 km</desc>
<time>2010-02-28T17:00:09.86</time>
<name>3035</name>
</trkpt>
<trkpt lat="48.983787" lon="8.650997">
<ele>342.5</ele>
<speed>5.1</speed>
<course>1.9</course>
<desc>Speed 5.1 km/h Distance 4.68 km</desc>
<time>2010-02-28T17:00:10.86</time>
<name>3036</name>
</trkpt>
<trkpt lat="48.983802" lon="8.650997">
<ele>342.5</ele>
<speed>5.7</speed>
<course>3.8</course>
<desc>Speed 5.7 km/h Distance 4.68 km</desc>
<time>2010-02-28T17:00:11.86</time>
<name>3037</name>
</trkpt>
<trkpt lat="48.983817" lon="8.650998">
<ele>342.0</ele>
<speed>5.4</speed>
<course>1.2</course>
<desc>Speed 5.4 km/h Distance 4.68 km</desc>
<time>2010-02-28T17:00:12.86</time>
<name>3038</name>
</trkpt>
<trkpt lat="48.983830" lon="8.650998">
<ele>342.0</ele>
<speed>5.5</speed>
<course>3.8</course>
<desc>Speed 5.5 km/h Distance 4.68 km</desc>
<time>2010-02-28T17:00:13.86</time>
<name>3039</name>
</trkpt>
<trkpt lat="48.983845" lon="8.651000">
<ele>342.0</ele>
<speed>5.3</speed>
<course>5.3</course>
<desc>Speed 5.3 km/h Distance 4.68 km</desc>
<time>2010-02-28T17:00:14.86</time>
<name>3040</name>
</trkpt>
<trkpt lat="48.983858" lon="8.651002">
<ele>342.5</ele>
<speed>5.4</speed>
<course>0.0</course>
<desc>Speed 5.4 km/h Distance 4.68 km</desc>
<time>2010-02-28T17:00:15.86</time>
<name>3041</name>
</trkpt>
<trkpt lat="48.983873" lon="8.651002">
<ele>342.5</ele>
<speed>5.7</speed>
<course>3.8</course>
<desc>Speed 5.7 km/h Distance 4.69 km</desc>
<time>2010-02-28T17:00:16.86</time>
<name>3042</name>
</trkpt>
<trkpt lat="48.983888" lon="8.651003">
<ele>342.5</ele>
<speed>5.8</speed>
<course>1.9</course>
<desc>Speed 5.8 km/h Distance 4.69 km</desc>
<time>2010-02-28T17:00:17.86</time>
<name>3043</name>
</trkpt>
<trkpt lat="48.983903" lon="8.651003">
<ele>342.5</ele>
<speed>5.2</speed>
<course>5.3</course>
<desc>Speed 5.2 km/h Distance 4.69 km</desc>
<time>2010-02-28T17:00:18.86</time>
<name>3044</name>
</trkpt>
<trkpt lat="48.983917" lon="8.651005">
<ele>342.5</ele>
<speed>5.5</speed>
<course>3.8</course>
<desc>Speed 5.5 km/h Distance 4.69 km</desc>
<time>2010-02-28T17:00:19.86</time>
<name>3045</name>
</trkpt>
<trkpt lat="48.983932" lon="8.651007">
<ele>342.5</ele>
<speed>5.7</speed>
<course>4.7</course>
<desc>Speed 5.7 km/h Distance 4.69 km</desc>
<time>2010-02-28T17:00:20.86</time>
<name>3046</name>
</trkpt>
<trkpt lat="48.983943" lon="8.651008">
<ele>342.5</ele>
<speed>5.0</speed>
<course>3.8</course>
<desc>Speed 5.0 km/h Distance 4.69 km</desc>
<time>2010-02-28T17:00:21.86</time>
<name>3047</name>
</trkpt>
<trkpt lat="48.983958" lon="8.651010">
<ele>342.5</ele>
<speed>5.7</speed>
<course>0.0</course>
<desc>Speed 5.7 km/h Distance 4.70 km</desc>
<time>2010-02-28T17:00:22.86</time>
<name>3048</name>
</trkpt>
<trkpt lat="48.983970" lon="8.651010">
<ele>342.0</ele>
<speed>5.1</speed>
<course>1.2</course>
<desc>Speed 5.1 km/h Distance 4.70 km</desc>
<time>2010-02-28T17:00:23.86</time>
<name>3049</name>
</trkpt>
<trkpt lat="48.983983" lon="8.651010">
<ele>342.0</ele>
<speed>5.0</speed>
<course>0.0</course>
<desc>Speed 5.0 km/h Distance 4.70 km</desc>
<time>2010-02-28T17:00:24.86</time>
<name>3050</name>
</trkpt>
<trkpt lat="48.983995" lon="8.651010">
<ele>342.0</ele>
<speed>5.2</speed>
<course>3.8</course>
<desc>Speed 5.2 km/h Distance 4.70 km</desc>
<time>2010-02-28T17:00:25.86</time>
<name>3051</name>
</trkpt>
<trkpt lat="48.984010" lon="8.651012">
<ele>341.5</ele>
<speed>5.5</speed>
<course>9.0</course>
<desc>Speed 5.5 km/h Distance 4.70 km</desc>
<time>2010-02-28T17:00:26.86</time>
<name>3052</name>
</trkpt>
<trkpt lat="48.984023" lon="8.651015">
<ele>341.5</ele>
<speed>5.3</speed>
<course>5.3</course>
<desc>Speed 5.3 km/h Distance 4.70 km</desc>
<time>2010-02-28T17:00:27.86</time>
<name>3053</name>
</trkpt>
<trkpt lat="48.984037" lon="8.651017">
<ele>341.5</ele>
<speed>5.3</speed>
<course>1.9</course>
<desc>Speed 5.3 km/h Distance 4.70 km</desc>
<time>2010-02-28T17:00:28.86</time>
<name>3054</name>
</trkpt>
<trkpt lat="48.984052" lon="8.651017">
<ele>341.5</ele>
<speed>5.3</speed>
<course>3.8</course>
<desc>Speed 5.3 km/h Distance 4.71 km</desc>
<time>2010-02-28T17:00:29.86</time>
<name>3055</name>
</trkpt>
<trkpt lat="48.984067" lon="8.651018">
<ele>341.5</ele>
<speed>5.5</speed>
<course>7.5</course>
<desc>Speed 5.5 km/h Distance 4.71 km</desc>
<time>2010-02-28T17:00:30.86</time>
<name>3056</name>
</trkpt>
<trkpt lat="48.984082" lon="8.651022">
<ele>341.5</ele>
<speed>5.1</speed>
<course>356.1</course>
<desc>Speed 5.1 km/h Distance 4.71 km</desc>
<time>2010-02-28T17:00:31.86</time>
<name>3057</name>
</trkpt>
<trkpt lat="48.984095" lon="8.651020">
<ele>342.0</ele>
<speed>4.9</speed>
<course>351.0</course>
<desc>Speed 4.9 km/h Distance 4.71 km</desc>
<time>2010-02-28T17:00:32.86</time>
<name>3058</name>
</trkpt>
<trkpt lat="48.984108" lon="8.651017">
<ele>342.0</ele>
<speed>4.9</speed>
<course>14.0</course>
<desc>Speed 4.9 km/h Distance 4.71 km</desc>
<time>2010-02-28T17:00:33.86</time>
<name>3059</name>
</trkpt>
<trkpt lat="48.984122" lon="8.651022">
<ele>342.5</ele>
<speed>4.9</speed>
<course>18.4</course>
<desc>Speed 4.9 km/h Distance 4.71 km</desc>
<time>2010-02-28T17:00:34.86</time>
<name>3060</name>
</trkpt>
<trkpt lat="48.984135" lon="8.651028">
<ele>342.5</ele>
<speed>5.3</speed>
<course>8.1</course>
<desc>Speed 5.3 km/h Distance 4.72 km</desc>
<time>2010-02-28T17:00:35.86</time>
<name>3061</name>
</trkpt>
<trkpt lat="48.984150" lon="8.651032">
<ele>343.0</ele>
<speed>5.4</speed>
<course>1.9</course>
<desc>Speed 5.4 km/h Distance 4.72 km</desc>
<time>2010-02-28T17:00:36.86</time>
<name>3062</name>
</trkpt>
<trkpt lat="48.984165" lon="8.651032">
<ele>343.0</ele>
<speed>5.4</speed>
<course>2.8</course>
<desc>Speed 5.4 km/h Distance 4.72 km</desc>
<time>2010-02-28T17:00:37.86</time>
<name>3063</name>
</trkpt>
<trkpt lat="48.984182" lon="8.651032">
<ele>343.0</ele>
<speed>5.7</speed>
<course>3.8</course>
<desc>Speed 5.7 km/h Distance 4.72 km</desc>
<time>2010-02-28T17:00:38.86</time>
<name>3064</name>
</trkpt>
<trkpt lat="48.984197" lon="8.651033">
<ele>343.0</ele>
<speed>5.8</speed>
<course>2.8</course>
<desc>Speed 5.8 km/h Distance 4.72 km</desc>
<time>2010-02-28T17:00:39.86</time>
<name>3065</name>
</trkpt>
<trkpt lat="48.984213" lon="8.651035">
<ele>343.5</ele>
<speed>5.9</speed>
<course>2.8</course>
<desc>Speed 5.9 km/h Distance 4.72 km</desc>
<time>2010-02-28T17:00:40.86</time>
<name>3066</name>
</trkpt>
<trkpt lat="48.984230" lon="8.651037">
<ele>343.0</ele>
<speed>5.8</speed>
<course>2.8</course>
<desc>Speed 5.8 km/h Distance 4.73 km</desc>
<time>2010-02-28T17:00:41.86</time>
<name>3067</name>
</trkpt>
<trkpt lat="48.984247" lon="8.651037">
<ele>343.0</ele>
<speed>5.7</speed>
<course>356.2</course>
<desc>Speed 5.7 km/h Distance 4.73 km</desc>
<time>2010-02-28T17:00:42.87</time>
<name>3068</name>
</trkpt>
<trkpt lat="48.984262" lon="8.651035">
<ele>343.0</ele>
<speed>5.7</speed>
<course>0.0</course>
<desc>Speed 5.7 km/h Distance 4.73 km</desc>
<time>2010-02-28T17:00:43.86</time>
<name>3069</name>
</trkpt>
<trkpt lat="48.984278" lon="8.651035">
<ele>343.5</ele>
<speed>6.0</speed>
<course>3.8</course>
<desc>Speed 6.0 km/h Distance 4.73 km</desc>
<time>2010-02-28T17:00:44.86</time>
<name>3070</name>
</trkpt>
<trkpt lat="48.984293" lon="8.651035">
<ele>343.5</ele>
<speed>6.0</speed>
<course>4.1</course>
<desc>Speed 6.0 km/h Distance 4.73 km</desc>
<time>2010-02-28T17:00:45.86</time>
<name>3071</name>
</trkpt>
<trkpt lat="48.984310" lon="8.651037">
<ele>343.5</ele>
<speed>6.0</speed>
<course>3.8</course>
<desc>Speed 6.0 km/h Distance 4.74 km</desc>
<time>2010-02-28T17:00:46.86</time>
<name>3072</name>
</trkpt>
<trkpt lat="48.984325" lon="8.651038">
<ele>343.5</ele>
<speed>5.6</speed>
<course>3.8</course>
<desc>Speed 5.6 km/h Distance 4.74 km</desc>
<time>2010-02-28T17:00:47.86</time>
<name>3073</name>
</trkpt>
<trkpt lat="48.984340" lon="8.651040">
<ele>343.0</ele>
<speed>5.9</speed>
<course>3.8</course>
<desc>Speed 5.9 km/h Distance 4.74 km</desc>
<time>2010-02-28T17:00:48.86</time>
<name>3074</name>
</trkpt>
<trkpt lat="48.984355" lon="8.651042">
<ele>343.0</ele>
<speed>5.5</speed>
<course>5.3</course>
<desc>Speed 5.5 km/h Distance 4.74 km</desc>
<time>2010-02-28T17:00:49.86</time>
<name>3075</name>
</trkpt>
<trkpt lat="48.984368" lon="8.651043">
<ele>343.0</ele>
<speed>5.6</speed>
<course>8.8</course>
<desc>Speed 5.6 km/h Distance 4.74 km</desc>
<time>2010-02-28T17:00:50.86</time>
<name>3076</name>
</trkpt>
<trkpt lat="48.984383" lon="8.651047">
<ele>343.5</ele>
<speed>5.7</speed>
<course>3.8</course>
<desc>Speed 5.7 km/h Distance 4.74 km</desc>
<time>2010-02-28T17:00:51.86</time>
<name>3077</name>
</trkpt>
<trkpt lat="48.984398" lon="8.651047">
<ele>343.5</ele>
<speed>5.8</speed>
<course>0.0</course>
<desc>Speed 5.8 km/h Distance 4.75 km</desc>
<time>2010-02-28T17:00:52.86</time>
<name>3078</name>
</trkpt>
<trkpt lat="48.984413" lon="8.651047">
<ele>343.5</ele>
<speed>6.1</speed>
<course>9.7</course>
<desc>Speed 6.1 km/h Distance 4.75 km</desc>
<time>2010-02-28T17:00:53.86</time>
<name>3079</name>
</trkpt>
<trkpt lat="48.984427" lon="8.651050">
<ele>343.0</ele>
<speed>5.4</speed>
<course>1.9</course>
<desc>Speed 5.4 km/h Distance 4.75 km</desc>
<time>2010-02-28T17:00:54.86</time>
<name>3080</name>
</trkpt>
<trkpt lat="48.984442" lon="8.651050">
<ele>343.5</ele>
<speed>5.8</speed>
<course>5.3</course>
<desc>Speed 5.8 km/h Distance 4.75 km</desc>
<time>2010-02-28T17:00:55.86</time>
<name>3081</name>
</trkpt>
<trkpt lat="48.984455" lon="8.651052">
<ele>343.5</ele>
<speed>5.4</speed>
<course>3.8</course>
<desc>Speed 5.4 km/h Distance 4.75 km</desc>
<time>2010-02-28T17:00:56.86</time>
<name>3082</name>
</trkpt>
<trkpt lat="48.984470" lon="8.651053">
<ele>343.5</ele>
<speed>5.4</speed>
<course>356.2</course>
<desc>Speed 5.4 km/h Distance 4.75 km</desc>
<time>2010-02-28T17:00:57.86</time>
<name>3083</name>
</trkpt>
<trkpt lat="48.984485" lon="8.651052">
<ele>343.5</ele>
<speed>5.8</speed>
<course>3.8</course>
<desc>Speed 5.8 km/h Distance 4.75 km</desc>
<time>2010-02-28T17:00:58.86</time>
<name>3084</name>
</trkpt>
<trkpt lat="48.984500" lon="8.651053">
<ele>344.0</ele>
<speed>5.6</speed>
<course>18.1</course>
<desc>Speed 5.6 km/h Distance 4.76 km</desc>
<time>2010-02-28T17:00:59.86</time>
<name>3085</name>
</trkpt>
<trkpt lat="48.984513" lon="8.651060">
<ele>344.0</ele>
<speed>5.3</speed>
<course>0.0</course>
<desc>Speed 5.3 km/h Distance 4.76 km</desc>
<time>2010-02-28T17:01:00.86</time>
<name>3086</name>
</trkpt>
<trkpt lat="48.984528" lon="8.651060">
<ele>344.5</ele>
<speed>6.0</speed>
<course>3.8</course>
<desc>Speed 6.0 km/h Distance 4.76 km</desc>
<time>2010-02-28T17:01:01.86</time>
<name>3087</name>
</trkpt>
<trkpt lat="48.984543" lon="8.651062">
<ele>344.5</ele>
<speed>5.8</speed>
<course>1.9</course>
<desc>Speed 5.8 km/h Distance 4.76 km</desc>
<time>2010-02-28T17:01:02.86</time>
<name>3088</name>
</trkpt>
<trkpt lat="48.984558" lon="8.651062">
<ele>344.5</ele>
<speed>5.8</speed>
<course>3.8</course>
<desc>Speed 5.8 km/h Distance 4.76 km</desc>
<time>2010-02-28T17:01:03.86</time>
<name>3089</name>
</trkpt>
<trkpt lat="48.984573" lon="8.651063">
<ele>344.5</ele>
<speed>5.5</speed>
<course>9.6</course>
<desc>Speed 5.5 km/h Distance 4.76 km</desc>
<time>2010-02-28T17:01:04.86</time>
<name>3090</name>
</trkpt>
<trkpt lat="48.984582" lon="8.651065">
<ele>344.5</ele>
<speed>3.2</speed>
<course>10.4</course>
<desc>Speed 3.2 km/h Distance 4.77 km</desc>
<time>2010-02-28T17:01:05.86</time>
<name>3091</name>
</trkpt>
<trkpt lat="48.984593" lon="8.651068">
<ele>344.5</ele>
<speed>4.8</speed>
<course>9.0</course>
<desc>Speed 4.8 km/h Distance 4.77 km</desc>
<time>2010-02-28T17:01:06.86</time>
<name>3092</name>
</trkpt>
<trkpt lat="48.984607" lon="8.651072">
<ele>344.5</ele>
<speed>5.0</speed>
<course>0.0</course>
<desc>Speed 5.0 km/h Distance 4.77 km</desc>
<time>2010-02-28T17:01:07.86</time>
<name>3093</name>
</trkpt>
<trkpt lat="48.984622" lon="8.651072">
<ele>344.0</ele>
<speed>5.7</speed>
<course>0.0</course>
<desc>Speed 5.7 km/h Distance 4.77 km</desc>
<time>2010-02-28T17:01:08.86</time>
<name>3094</name>
</trkpt>
<trkpt lat="48.984638" lon="8.651072">
<ele>344.0</ele>
<speed>6.0</speed>
<course>0.0</course>
<desc>Speed 6.0 km/h Distance 4.77 km</desc>
<time>2010-02-28T17:01:09.86</time>
<name>3095</name>
</trkpt>
<trkpt lat="48.984653" lon="8.651072">
<ele>344.0</ele>
<speed>6.0</speed>
<course>1.9</course>
<desc>Speed 6.0 km/h Distance 4.77 km</desc>
<time>2010-02-28T17:01:10.86</time>
<name>3096</name>
</trkpt>
<trkpt lat="48.984668" lon="8.651072">
<ele>343.5</ele>
<speed>5.8</speed>
<course>8.1</course>
<desc>Speed 5.8 km/h Distance 4.78 km</desc>
<time>2010-02-28T17:01:11.86</time>
<name>3097</name>
</trkpt>
<trkpt lat="48.984683" lon="8.651075">
<ele>343.5</ele>
<speed>5.8</speed>
<course>3.8</course>
<desc>Speed 5.8 km/h Distance 4.78 km</desc>
<time>2010-02-28T17:01:12.86</time>
<name>3098</name>
</trkpt>
<trkpt lat="48.984698" lon="8.651077">
<ele>343.5</ele>
<speed>5.8</speed>
<course>1.2</course>
<desc>Speed 5.8 km/h Distance 4.78 km</desc>
<time>2010-02-28T17:01:13.86</time>
<name>3099</name>
</trkpt>
<trkpt lat="48.984712" lon="8.651077">
<ele>344.0</ele>
<speed>5.7</speed>
<course>4.1</course>
<desc>Speed 5.7 km/h Distance 4.78 km</desc>
<time>2010-02-28T17:01:14.86</time>
<name>3100</name>
</trkpt>
<trkpt lat="48.984728" lon="8.651078">
<ele>344.0</ele>
<speed>6.2</speed>
<course>11.2</course>
<desc>Speed 6.2 km/h Distance 4.78 km</desc>
<time>2010-02-28T17:01:15.86</time>
<name>3101</name>
</trkpt>
<trkpt lat="48.984745" lon="8.651083">
<ele>343.5</ele>
<speed>6.0</speed>
<course>1.2</course>
<desc>Speed 6.0 km/h Distance 4.78 km</desc>
<time>2010-02-28T17:01:16.86</time>
<name>3102</name>
</trkpt>
<trkpt lat="48.984758" lon="8.651083">
<ele>343.5</ele>
<speed>5.8</speed>
<course>3.8</course>
<desc>Speed 5.8 km/h Distance 4.79 km</desc>
<time>2010-02-28T17:01:17.86</time>
<name>3103</name>
</trkpt>
<trkpt lat="48.984773" lon="8.651085">
<ele>343.5</ele>
<speed>5.4</speed>
<course>4.7</course>
<desc>Speed 5.4 km/h Distance 4.79 km</desc>
<time>2010-02-28T17:01:18.86</time>
<name>3104</name>
</trkpt>
<trkpt lat="48.984785" lon="8.651087">
<ele>343.0</ele>
<speed>5.0</speed>
<course>7.5</course>
<desc>Speed 5.0 km/h Distance 4.79 km</desc>
<time>2010-02-28T17:01:19.86</time>
<name>3105</name>
</trkpt>
<trkpt lat="48.984800" lon="8.651090">
<ele>343.0</ele>
<speed>5.4</speed>
<course>9.0</course>
<desc>Speed 5.4 km/h Distance 4.79 km</desc>
<time>2010-02-28T17:01:20.86</time>
<name>3106</name>
</trkpt>
<trkpt lat="48.984813" lon="8.651093">
<ele>343.0</ele>
<speed>5.7</speed>
<course>1.9</course>
<desc>Speed 5.7 km/h Distance 4.79 km</desc>
<time>2010-02-28T17:01:21.86</time>
<name>3107</name>
</trkpt>
<trkpt lat="48.984828" lon="8.651093">
<ele>342.5</ele>
<speed>5.5</speed>
<course>7.5</course>
<desc>Speed 5.5 km/h Distance 4.79 km</desc>
<time>2010-02-28T17:01:22.86</time>
<name>3108</name>
</trkpt>
<trkpt lat="48.984843" lon="8.651097">
<ele>342.5</ele>
<speed>6.3</speed>
<course>5.0</course>
<desc>Speed 6.3 km/h Distance 4.79 km</desc>
<time>2010-02-28T17:01:23.86</time>
<name>3109</name>
</trkpt>
<trkpt lat="48.984858" lon="8.651098">
<ele>342.5</ele>
<speed>5.7</speed>
<course>5.0</course>
<desc>Speed 5.7 km/h Distance 4.80 km</desc>
<time>2010-02-28T17:01:24.86</time>
<name>3110</name>
</trkpt>
<trkpt lat="48.984873" lon="8.651100">
<ele>342.5</ele>
<speed>5.6</speed>
<course>9.0</course>
<desc>Speed 5.6 km/h Distance 4.80 km</desc>
<time>2010-02-28T17:01:25.86</time>
<name>3111</name>
</trkpt>
<trkpt lat="48.984887" lon="8.651103">
<ele>342.0</ele>
<speed>5.5</speed>
<course>8.1</course>
<desc>Speed 5.5 km/h Distance 4.80 km</desc>
<time>2010-02-28T17:01:26.86</time>
<name>3112</name>
</trkpt>
<trkpt lat="48.984902" lon="8.651107">
<ele>342.0</ele>
<speed>5.6</speed>
<course>0.0</course>
<desc>Speed 5.6 km/h Distance 4.80 km</desc>
<time>2010-02-28T17:01:27.86</time>
<name>3113</name>
</trkpt>
<trkpt lat="48.984917" lon="8.651107">
<ele>342.0</ele>
<speed>5.5</speed>
<course>8.1</course>
<desc>Speed 5.5 km/h Distance 4.80 km</desc>
<time>2010-02-28T17:01:28.86</time>
<name>3114</name>
</trkpt>
<trkpt lat="48.984932" lon="8.651110">
<ele>342.0</ele>
<speed>5.8</speed>
<course>3.8</course>
<desc>Speed 5.8 km/h Distance 4.80 km</desc>
<time>2010-02-28T17:01:29.86</time>
<name>3115</name>
</trkpt>
<trkpt lat="48.984947" lon="8.651112">
<ele>342.0</ele>
<speed>5.7</speed>
<course>5.3</course>
<desc>Speed 5.7 km/h Distance 4.81 km</desc>
<time>2010-02-28T17:01:30.86</time>
<name>3116</name>
</trkpt>
<trkpt lat="48.984960" lon="8.651113">
<ele>342.0</ele>
<speed>5.7</speed>
<course>8.8</course>
<desc>Speed 5.7 km/h Distance 4.81 km</desc>
<time>2010-02-28T17:01:31.86</time>
<name>3117</name>
</trkpt>
<trkpt lat="48.984975" lon="8.651117">
<ele>342.0</ele>
<speed>5.6</speed>
<course>8.8</course>
<desc>Speed 5.6 km/h Distance 4.81 km</desc>
<time>2010-02-28T17:01:32.86</time>
<name>3118</name>
</trkpt>
<trkpt lat="48.984990" lon="8.651120">
<ele>342.5</ele>
<speed>6.0</speed>
<course>4.1</course>
<desc>Speed 6.0 km/h Distance 4.81 km</desc>
<time>2010-02-28T17:01:33.86</time>
<name>3119</name>
</trkpt>
<trkpt lat="48.985007" lon="8.651122">
<ele>342.5</ele>
<speed>6.0</speed>
<course>3.8</course>
<desc>Speed 6.0 km/h Distance 4.81 km</desc>
<time>2010-02-28T17:01:34.86</time>
<name>3120</name>
</trkpt>
<trkpt lat="48.985022" lon="8.651123">
<ele>342.5</ele>
<speed>5.4</speed>
<course>8.8</course>
<desc>Speed 5.4 km/h Distance 4.81 km</desc>
<time>2010-02-28T17:01:35.86</time>
<name>3121</name>
</trkpt>
<trkpt lat="48.985037" lon="8.651127">
<ele>342.5</ele>
<speed>5.7</speed>
<course>5.3</course>
<desc>Speed 5.7 km/h Distance 4.82 km</desc>
<time>2010-02-28T17:01:36.86</time>
<name>3122</name>
</trkpt>
<trkpt lat="48.985050" lon="8.651128">
<ele>342.5</ele>
<speed>5.5</speed>
<course>12.2</course>
<desc>Speed 5.5 km/h Distance 4.82 km</desc>
<time>2010-02-28T17:01:37.86</time>
<name>3123</name>
</trkpt>
<trkpt lat="48.985065" lon="8.651133">
<ele>342.5</ele>
<speed>5.6</speed>
<course>3.8</course>
<desc>Speed 5.6 km/h Distance 4.82 km</desc>
<time>2010-02-28T17:01:38.86</time>
<name>3124</name>
</trkpt>
<trkpt lat="48.985080" lon="8.651135">
<ele>342.5</ele>
<speed>5.3</speed>
<course>3.9</course>
<desc>Speed 5.3 km/h Distance 4.82 km</desc>
<time>2010-02-28T17:01:39.86</time>
<name>3125</name>
</trkpt>
<trkpt lat="48.985093" lon="8.651137">
<ele>342.5</ele>
<speed>5.1</speed>
<course>1.2</course>
<desc>Speed 5.1 km/h Distance 4.82 km</desc>
<time>2010-02-28T17:01:40.86</time>
<name>3126</name>
</trkpt>
<trkpt lat="48.985107" lon="8.651137">
<ele>342.0</ele>
<speed>5.0</speed>
<course>3.8</course>
<desc>Speed 5.0 km/h Distance 4.82 km</desc>
<time>2010-02-28T17:01:41.86</time>
<name>3127</name>
</trkpt>
<trkpt lat="48.985122" lon="8.651138">
<ele>342.0</ele>
<speed>6.0</speed>
<course>9.0</course>
<desc>Speed 6.0 km/h Distance 4.83 km</desc>
<time>2010-02-28T17:01:43.86</time>
<name>3128</name>
</trkpt>
<trkpt lat="48.985135" lon="8.651142">
<ele>341.5</ele>
<speed>5.6</speed>
<course>3.9</course>
<desc>Speed 5.6 km/h Distance 4.83 km</desc>
<time>2010-02-28T17:01:44.86</time>
<name>3129</name>
</trkpt>
<trkpt lat="48.985148" lon="8.651143">
<ele>341.5</ele>
<speed>5.4</speed>
<course>0.0</course>
<desc>Speed 5.4 km/h Distance 4.83 km</desc>
<time>2010-02-28T17:01:45.86</time>
<name>3130</name>
</trkpt>
<trkpt lat="48.985163" lon="8.651143">
<ele>341.5</ele>
<speed>5.3</speed>
<course>9.7</course>
<desc>Speed 5.3 km/h Distance 4.83 km</desc>
<time>2010-02-28T17:01:46.86</time>
<name>3131</name>
</trkpt>
<trkpt lat="48.985177" lon="8.651147">
<ele>341.5</ele>
<speed>5.6</speed>
<course>5.9</course>
<desc>Speed 5.6 km/h Distance 4.83 km</desc>
<time>2010-02-28T17:01:47.86</time>
<name>3132</name>
</trkpt>
<trkpt lat="48.985192" lon="8.651148">
<ele>341.5</ele>
<speed>5.7</speed>
<course>8.8</course>
<desc>Speed 5.7 km/h Distance 4.83 km</desc>
<time>2010-02-28T17:01:48.86</time>
<name>3133</name>
</trkpt>
<trkpt lat="48.985207" lon="8.651152">
<ele>341.5</ele>
<speed>5.6</speed>
<course>8.8</course>
<desc>Speed 5.6 km/h Distance 4.84 km</desc>
<time>2010-02-28T17:01:49.86</time>
<name>3134</name>
</trkpt>
<trkpt lat="48.985222" lon="8.651155">
<ele>341.5</ele>
<speed>5.9</speed>
<course>7.7</course>
<desc>Speed 5.9 km/h Distance 4.84 km</desc>
<time>2010-02-28T17:01:50.86</time>
<name>3135</name>
</trkpt>
<trkpt lat="48.985238" lon="8.651158">
<ele>341.5</ele>
<speed>6.0</speed>
<course>3.8</course>
<desc>Speed 6.0 km/h Distance 4.84 km</desc>
<time>2010-02-28T17:01:51.86</time>
<name>3136</name>
</trkpt>
<trkpt lat="48.985253" lon="8.651160">
<ele>341.5</ele>
<speed>5.7</speed>
<course>7.5</course>
<desc>Speed 5.7 km/h Distance 4.84 km</desc>
<time>2010-02-28T17:01:52.86</time>
<name>3137</name>
</trkpt>
<trkpt lat="48.985268" lon="8.651163">
<ele>341.0</ele>
<speed>5.8</speed>
<course>8.8</course>
<desc>Speed 5.8 km/h Distance 4.84 km</desc>
<time>2010-02-28T17:01:53.86</time>
<name>3138</name>
</trkpt>
<trkpt lat="48.985283" lon="8.651167">
<ele>341.0</ele>
<speed>5.8</speed>
<course>3.8</course>
<desc>Speed 5.8 km/h Distance 4.84 km</desc>
<time>2010-02-28T17:01:54.86</time>
<name>3139</name>
</trkpt>
<trkpt lat="48.985298" lon="8.651168">
<ele>340.5</ele>
<speed>5.5</speed>
<course>7.1</course>
<desc>Speed 5.5 km/h Distance 4.85 km</desc>
<time>2010-02-28T17:01:55.86</time>
<name>3140</name>
</trkpt>
<trkpt lat="48.985315" lon="8.651172">
<ele>340.5</ele>
<speed>5.9</speed>
<course>3.8</course>
<desc>Speed 5.9 km/h Distance 4.85 km</desc>
<time>2010-02-28T17:01:56.86</time>
<name>3141</name>
</trkpt>
<trkpt lat="48.985330" lon="8.651173">
<ele>340.5</ele>
<speed>5.8</speed>
<course>8.8</course>
<desc>Speed 5.8 km/h Distance 4.85 km</desc>
<time>2010-02-28T17:01:57.86</time>
<name>3142</name>
</trkpt>
<trkpt lat="48.985345" lon="8.651177">
<ele>340.5</ele>
<speed>5.8</speed>
<course>7.1</course>
<desc>Speed 5.8 km/h Distance 4.85 km</desc>
<time>2010-02-28T17:01:58.86</time>
<name>3143</name>
</trkpt>
<trkpt lat="48.985362" lon="8.651180">
<ele>341.0</ele>
<speed>5.8</speed>
<course>12.2</course>
<desc>Speed 5.8 km/h Distance 4.85 km</desc>
<time>2010-02-28T17:01:59.86</time>
<name>3144</name>
</trkpt>
<trkpt lat="48.985377" lon="8.651185">
<ele>341.0</ele>
<speed>5.7</speed>
<course>9.0</course>
<desc>Speed 5.7 km/h Distance 4.85 km</desc>
<time>2010-02-28T17:02:00.86</time>
<name>3145</name>
</trkpt>
<trkpt lat="48.985390" lon="8.651188">
<ele>341.0</ele>
<speed>5.6</speed>
<course>3.8</course>
<desc>Speed 5.6 km/h Distance 4.86 km</desc>
<time>2010-02-28T17:02:01.86</time>
<name>3146</name>
</trkpt>
<trkpt lat="48.985405" lon="8.651190">
<ele>341.0</ele>
<speed>5.7</speed>
<course>4.1</course>
<desc>Speed 5.7 km/h Distance 4.86 km</desc>
<time>2010-02-28T17:02:02.86</time>
<name>3147</name>
</trkpt>
<trkpt lat="48.985422" lon="8.651192">
<ele>341.0</ele>
<speed>5.8</speed>
<course>8.8</course>
<desc>Speed 5.8 km/h Distance 4.86 km</desc>
<time>2010-02-28T17:02:03.86</time>
<name>3148</name>
</trkpt>
<trkpt lat="48.985437" lon="8.651195">
<ele>341.0</ele>
<speed>5.9</speed>
<course>3.8</course>
<desc>Speed 5.9 km/h Distance 4.86 km</desc>
<time>2010-02-28T17:02:04.86</time>
<name>3149</name>
</trkpt>
<trkpt lat="48.985452" lon="8.651197">
<ele>341.0</ele>
<speed>5.9</speed>
<course>3.8</course>
<desc>Speed 5.9 km/h Distance 4.86 km</desc>
<time>2010-02-28T17:02:05.86</time>
<name>3150</name>
</trkpt>
<trkpt lat="48.985467" lon="8.651198">
<ele>341.5</ele>
<speed>5.9</speed>
<course>3.8</course>
<desc>Speed 5.9 km/h Distance 4.86 km</desc>
<time>2010-02-28T17:02:06.86</time>
<name>3151</name>
</trkpt>
<trkpt lat="48.985482" lon="8.651200">
<ele>341.5</ele>
<speed>5.9</speed>
<course>5.0</course>
<desc>Speed 5.9 km/h Distance 4.87 km</desc>
<time>2010-02-28T17:02:07.86</time>
<name>3152</name>
</trkpt>
<trkpt lat="48.985497" lon="8.651202">
<ele>341.5</ele>
<speed>5.9</speed>
<course>3.7</course>
<desc>Speed 5.9 km/h Distance 4.87 km</desc>
<time>2010-02-28T17:02:08.86</time>
<name>3153</name>
</trkpt>
<trkpt lat="48.985515" lon="8.651203">
<ele>341.5</ele>
<speed>6.5</speed>
<course>3.8</course>
<desc>Speed 6.5 km/h Distance 4.87 km</desc>
<time>2010-02-28T17:02:09.86</time>
<name>3154</name>
</trkpt>
<trkpt lat="48.985530" lon="8.651205">
<ele>342.0</ele>
<speed>5.9</speed>
<course>7.5</course>
<desc>Speed 5.9 km/h Distance 4.87 km</desc>
<time>2010-02-28T17:02:10.86</time>
<name>3155</name>
</trkpt>
<trkpt lat="48.985545" lon="8.651208">
<ele>342.0</ele>
<speed>5.7</speed>
<course>13.5</course>
<desc>Speed 5.7 km/h Distance 4.87 km</desc>
<time>2010-02-28T17:02:11.86</time>
<name>3156</name>
</trkpt>
<trkpt lat="48.985558" lon="8.651213">
<ele>341.5</ele>
<speed>5.5</speed>
<course>8.1</course>
<desc>Speed 5.5 km/h Distance 4.88 km</desc>
<time>2010-02-28T17:02:12.86</time>
<name>3157</name>
</trkpt>
<trkpt lat="48.985573" lon="8.651217">
<ele>341.5</ele>
<speed>5.8</speed>
<course>8.8</course>
<desc>Speed 5.8 km/h Distance 4.88 km</desc>
<time>2010-02-28T17:02:13.86</time>
<name>3158</name>
</trkpt>
<trkpt lat="48.985588" lon="8.651220">
<ele>341.5</ele>
<speed>5.9</speed>
<course>7.5</course>
<desc>Speed 5.9 km/h Distance 4.88 km</desc>
<time>2010-02-28T17:02:14.86</time>
<name>3159</name>
</trkpt>
<trkpt lat="48.985603" lon="8.651223">
<ele>341.5</ele>
<speed>5.8</speed>
<course>7.5</course>
<desc>Speed 5.8 km/h Distance 4.88 km</desc>
<time>2010-02-28T17:02:15.86</time>
<name>3160</name>
</trkpt>
<trkpt lat="48.985618" lon="8.651227">
<ele>341.5</ele>
<speed>5.8</speed>
<course>14.9</course>
<desc>Speed 5.8 km/h Distance 4.88 km</desc>
<time>2010-02-28T17:02:16.86</time>
<name>3161</name>
</trkpt>
<trkpt lat="48.985635" lon="8.651233">
<ele>341.5</ele>
<speed>6.1</speed>
<course>12.6</course>
<desc>Speed 6.1 km/h Distance 4.88 km</desc>
<time>2010-02-28T17:02:17.86</time>
<name>3162</name>
</trkpt>
<trkpt lat="48.985650" lon="8.651238">
<ele>341.0</ele>
<speed>5.9</speed>
<course>11.7</course>
<desc>Speed 5.9 km/h Distance 4.89 km</desc>
<time>2010-02-28T17:02:18.86</time>
<name>3163</name>
</trkpt>
<trkpt lat="48.985665" lon="8.651243">
<ele>341.0</ele>
<speed>6.1</speed>
<course>12.2</course>
<desc>Speed 6.1 km/h Distance 4.89 km</desc>
<time>2010-02-28T17:02:19.86</time>
<name>3164</name>
</trkpt>
<trkpt lat="48.985680" lon="8.651248">
<ele>341.0</ele>
<speed>5.8</speed>
<course>8.1</course>
<desc>Speed 5.8 km/h Distance 4.89 km</desc>
<time>2010-02-28T17:02:20.86</time>
<name>3165</name>
</trkpt>
<trkpt lat="48.985695" lon="8.651252">
<ele>341.0</ele>
<speed>5.6</speed>
<course>12.6</course>
<desc>Speed 5.6 km/h Distance 4.89 km</desc>
<time>2010-02-28T17:02:21.86</time>
<name>3166</name>
</trkpt>
<trkpt lat="48.985710" lon="8.651257">
<ele>341.0</ele>
<speed>5.8</speed>
<course>12.6</course>
<desc>Speed 5.8 km/h Distance 4.89 km</desc>
<time>2010-02-28T17:02:22.86</time>
<name>3167</name>
</trkpt>
<trkpt lat="48.985725" lon="8.651262">
<ele>340.5</ele>
<speed>5.8</speed>
<course>16.3</course>
<desc>Speed 5.8 km/h Distance 4.89 km</desc>
<time>2010-02-28T17:02:23.86</time>
<name>3168</name>
</trkpt>
<trkpt lat="48.985740" lon="8.651268">
<ele>340.5</ele>
<speed>6.0</speed>
<course>9.0</course>
<desc>Speed 6.0 km/h Distance 4.90 km</desc>
<time>2010-02-28T17:02:24.86</time>
<name>3169</name>
</trkpt>
<trkpt lat="48.985753" lon="8.651272">
<ele>340.5</ele>
<speed>5.1</speed>
<course>18.1</course>
<desc>Speed 5.1 km/h Distance 4.90 km</desc>
<time>2010-02-28T17:02:25.86</time>
<name>3170</name>
</trkpt>
<trkpt lat="48.985767" lon="8.651278">
<ele>340.0</ele>
<speed>5.3</speed>
<course>12.6</course>
<desc>Speed 5.3 km/h Distance 4.90 km</desc>
<time>2010-02-28T17:02:26.86</time>
<name>3171</name>
</trkpt>
<trkpt lat="48.985782" lon="8.651283">
<ele>340.0</ele>
<speed>6.0</speed>
<course>11.2</course>
<desc>Speed 6.0 km/h Distance 4.90 km</desc>
<time>2010-02-28T17:02:27.86</time>
<name>3172</name>
</trkpt>
<trkpt lat="48.985798" lon="8.651288">
<ele>340.0</ele>
<speed>6.0</speed>
<course>12.2</course>
<desc>Speed 6.0 km/h Distance 4.90 km</desc>
<time>2010-02-28T17:02:28.86</time>
<name>3173</name>
</trkpt>
<trkpt lat="48.985813" lon="8.651293">
<ele>340.0</ele>
<speed>5.9</speed>
<course>11.2</course>
<desc>Speed 5.9 km/h Distance 4.90 km</desc>
<time>2010-02-28T17:02:29.86</time>
<name>3174</name>
</trkpt>
<trkpt lat="48.985825" lon="8.651297">
<ele>340.0</ele>
<speed>4.7</speed>
<course>18.4</course>
<desc>Speed 4.7 km/h Distance 4.91 km</desc>
<time>2010-02-28T17:02:30.86</time>
<name>3175</name>
</trkpt>
<trkpt lat="48.985838" lon="8.651303">
<ele>340.0</ele>
<speed>5.5</speed>
<course>11.7</course>
<desc>Speed 5.5 km/h Distance 4.91 km</desc>
<time>2010-02-28T17:02:31.86</time>
<name>3176</name>
</trkpt>
<trkpt lat="48.985853" lon="8.651308">
<ele>340.0</ele>
<speed>5.1</speed>
<course>18.4</course>
<desc>Speed 5.1 km/h Distance 4.91 km</desc>
<time>2010-02-28T17:02:32.86</time>
<name>3177</name>
</trkpt>
<trkpt lat="48.985867" lon="8.651315">
<ele>340.0</ele>
<speed>5.6</speed>
<course>16.6</course>
<desc>Speed 5.6 km/h Distance 4.91 km</desc>
<time>2010-02-28T17:02:33.86</time>
<name>3178</name>
</trkpt>
<trkpt lat="48.985882" lon="8.651322">
<ele>339.5</ele>
<speed>5.8</speed>
<course>12.6</course>
<desc>Speed 5.8 km/h Distance 4.91 km</desc>
<time>2010-02-28T17:02:34.86</time>
<name>3179</name>
</trkpt>
<trkpt lat="48.985897" lon="8.651327">
<ele>339.5</ele>
<speed>5.8</speed>
<course>13.5</course>
<desc>Speed 5.8 km/h Distance 4.91 km</desc>
<time>2010-02-28T17:02:35.86</time>
<name>3180</name>
</trkpt>
<trkpt lat="48.985910" lon="8.651332">
<ele>339.5</ele>
<speed>5.8</speed>
<course>7.7</course>
<desc>Speed 5.8 km/h Distance 4.92 km</desc>
<time>2010-02-28T17:02:36.86</time>
<name>3181</name>
</trkpt>
<trkpt lat="48.985927" lon="8.651335">
<ele>339.5</ele>
<speed>5.9</speed>
<course>13.5</course>
<desc>Speed 5.9 km/h Distance 4.92 km</desc>
<time>2010-02-28T17:02:37.86</time>
<name>3182</name>
</trkpt>
<trkpt lat="48.985940" lon="8.651340">
<ele>339.0</ele>
<speed>5.7</speed>
<course>12.6</course>
<desc>Speed 5.7 km/h Distance 4.92 km</desc>
<time>2010-02-28T17:02:38.86</time>
<name>3183</name>
</trkpt>
<trkpt lat="48.985955" lon="8.651345">
<ele>338.5</ele>
<speed>5.7</speed>
<course>16.6</course>
<desc>Speed 5.7 km/h Distance 4.92 km</desc>
<time>2010-02-28T17:02:39.86</time>
<name>3184</name>
</trkpt>
<trkpt lat="48.985970" lon="8.651352">
<ele>338.5</ele>
<speed>5.9</speed>
<course>18.1</course>
<desc>Speed 5.9 km/h Distance 4.92 km</desc>
<time>2010-02-28T17:02:40.86</time>
<name>3185</name>
</trkpt>
<trkpt lat="48.985983" lon="8.651358">
<ele>338.5</ele>
<speed>5.6</speed>
<course>12.2</course>
<desc>Speed 5.6 km/h Distance 4.92 km</desc>
<time>2010-02-28T17:02:41.86</time>
<name>3186</name>
</trkpt>
<trkpt lat="48.985998" lon="8.651363">
<ele>338.0</ele>
<speed>5.4</speed>
<course>18.1</course>
<desc>Speed 5.4 km/h Distance 4.93 km</desc>
<time>2010-02-28T17:02:42.86</time>
<name>3187</name>
</trkpt>
<trkpt lat="48.986012" lon="8.651370">
<ele>337.5</ele>
<speed>5.5</speed>
<course>25.2</course>
<desc>Speed 5.5 km/h Distance 4.93 km</desc>
<time>2010-02-28T17:02:43.86</time>
<name>3188</name>
</trkpt>
<trkpt lat="48.986023" lon="8.651378">
<ele>338.0</ele>
<speed>5.1</speed>
<course>12.2</course>
<desc>Speed 5.1 km/h Distance 4.93 km</desc>
<time>2010-02-28T17:02:44.86</time>
<name>3189</name>
</trkpt>
<trkpt lat="48.986038" lon="8.651383">
<ele>338.0</ele>
<speed>5.3</speed>
<course>10.8</course>
<desc>Speed 5.3 km/h Distance 4.93 km</desc>
<time>2010-02-28T17:02:45.86</time>
<name>3190</name>
</trkpt>
<trkpt lat="48.986055" lon="8.651388">
<ele>338.0</ele>
<speed>5.4</speed>
<course>12.6</course>
<desc>Speed 5.4 km/h Distance 4.93 km</desc>
<time>2010-02-28T17:02:46.86</time>
<name>3191</name>
</trkpt>
<trkpt lat="48.986070" lon="8.651393">
<ele>338.0</ele>
<speed>5.6</speed>
<course>16.6</course>
<desc>Speed 5.6 km/h Distance 4.93 km</desc>
<time>2010-02-28T17:02:47.86</time>
<name>3192</name>
</trkpt>
<trkpt lat="48.986085" lon="8.651400">
<ele>338.0</ele>
<speed>5.8</speed>
<course>14.0</course>
<desc>Speed 5.8 km/h Distance 4.94 km</desc>
<time>2010-02-28T17:02:48.86</time>
<name>3193</name>
</trkpt>
<trkpt lat="48.986098" lon="8.651405">
<ele>337.5</ele>
<speed>5.7</speed>
<course>11.7</course>
<desc>Speed 5.7 km/h Distance 4.94 km</desc>
<time>2010-02-28T17:02:49.86</time>
<name>3194</name>
</trkpt>
<trkpt lat="48.986113" lon="8.651410">
<ele>337.5</ele>
<speed>5.4</speed>
<course>12.2</course>
<desc>Speed 5.4 km/h Distance 4.94 km</desc>
<time>2010-02-28T17:02:50.86</time>
<name>3195</name>
</trkpt>
<trkpt lat="48.986128" lon="8.651415">
<ele>337.5</ele>
<speed>5.9</speed>
<course>8.8</course>
<desc>Speed 5.9 km/h Distance 4.94 km</desc>
<time>2010-02-28T17:02:51.86</time>
<name>3196</name>
</trkpt>
<trkpt lat="48.986143" lon="8.651418">
<ele>337.5</ele>
<speed>5.9</speed>
<course>14.0</course>
<desc>Speed 5.9 km/h Distance 4.94 km</desc>
<time>2010-02-28T17:02:52.86</time>
<name>3197</name>
</trkpt>
<trkpt lat="48.986157" lon="8.651423">
<ele>337.5</ele>
<speed>5.3</speed>
<course>16.3</course>
<desc>Speed 5.3 km/h Distance 4.94 km</desc>
<time>2010-02-28T17:02:53.86</time>
<name>3198</name>
</trkpt>
<trkpt lat="48.986172" lon="8.651430">
<ele>337.5</ele>
<speed>6.0</speed>
<course>25.2</course>
<desc>Speed 6.0 km/h Distance 4.95 km</desc>
<time>2010-02-28T17:02:54.86</time>
<name>3199</name>
</trkpt>
<trkpt lat="48.986183" lon="8.651438">
<ele>337.0</ele>
<speed>5.5</speed>
<course>16.6</course>
<desc>Speed 5.5 km/h Distance 4.95 km</desc>
<time>2010-02-28T17:02:55.86</time>
<name>3200</name>
</trkpt>
<trkpt lat="48.986198" lon="8.651445">
<ele>337.0</ele>
<speed>6.0</speed>
<course>16.0</course>
<desc>Speed 6.0 km/h Distance 4.95 km</desc>
<time>2010-02-28T17:02:56.86</time>
<name>3201</name>
</trkpt>
<trkpt lat="48.986210" lon="8.651450">
<ele>337.0</ele>
<speed>5.4</speed>
<course>4.1</course>
<desc>Speed 5.4 km/h Distance 4.95 km</desc>
<time>2010-02-28T17:02:57.86</time>
<name>3202</name>
</trkpt>
<trkpt lat="48.986238" lon="8.651453">
<ele>337.0</ele>
<speed>11.4</speed>
<course>13.5</course>
<desc>Speed 11.4 km/h Distance 4.95 km</desc>
<time>2010-02-28T17:02:58.86</time>
<name>3203</name>
</trkpt>
<trkpt lat="48.986252" lon="8.651458">
<ele>337.0</ele>
<speed>5.9</speed>
<course>20.6</course>
<desc>Speed 5.9 km/h Distance 4.95 km</desc>
<time>2010-02-28T17:02:59.87</time>
<name>3204</name>
</trkpt>
<trkpt lat="48.986263" lon="8.651465">
<ele>337.0</ele>
<speed>5.1</speed>
<course>18.1</course>
<desc>Speed 5.1 km/h Distance 4.96 km</desc>
<time>2010-02-28T17:03:00.88</time>
<name>3205</name>
</trkpt>
<trkpt lat="48.986277" lon="8.651472">
<ele>336.5</ele>
<speed>5.7</speed>
<course>16.0</course>
<desc>Speed 5.7 km/h Distance 4.96 km</desc>
<time>2010-02-28T17:03:01.88</time>
<name>3206</name>
</trkpt>
<trkpt lat="48.986288" lon="8.651477">
<ele>336.5</ele>
<speed>5.3</speed>
<course>16.6</course>
<desc>Speed 5.3 km/h Distance 4.96 km</desc>
<time>2010-02-28T17:03:02.88</time>
<name>3207</name>
</trkpt>
<trkpt lat="48.986303" lon="8.651483">
<ele>336.5</ele>
<speed>5.8</speed>
<course>25.2</course>
<desc>Speed 5.8 km/h Distance 4.96 km</desc>
<time>2010-02-28T17:03:03.88</time>
<name>3208</name>
</trkpt>
<trkpt lat="48.986315" lon="8.651492">
<ele>336.5</ele>
<speed>5.0</speed>
<course>20.6</course>
<desc>Speed 5.0 km/h Distance 4.96 km</desc>
<time>2010-02-28T17:03:04.88</time>
<name>3209</name>
</trkpt>
<trkpt lat="48.986327" lon="8.651498">
<ele>336.0</ele>
<speed>5.3</speed>
<course>20.9</course>
<desc>Speed 5.3 km/h Distance 4.96 km</desc>
<time>2010-02-28T17:03:05.88</time>
<name>3210</name>
</trkpt>
<trkpt lat="48.986338" lon="8.651505">
<ele>336.0</ele>
<speed>5.5</speed>
<course>18.2</course>
<desc>Speed 5.5 km/h Distance 4.96 km</desc>
<time>2010-02-28T17:03:06.88</time>
<name>3211</name>
</trkpt>
<trkpt lat="48.986348" lon="8.651510">
<ele>336.0</ele>
<speed>4.7</speed>
<course>20.6</course>
<desc>Speed 4.7 km/h Distance 4.97 km</desc>
<time>2010-02-28T17:03:07.88</time>
<name>3212</name>
</trkpt>
<trkpt lat="48.986360" lon="8.651517">
<ele>336.0</ele>
<speed>4.6</speed>
<course>23.0</course>
<desc>Speed 4.6 km/h Distance 4.97 km</desc>
<time>2010-02-28T17:03:08.88</time>
<name>3213</name>
</trkpt>
<trkpt lat="48.986370" lon="8.651523">
<ele>335.5</ele>
<speed>4.6</speed>
<course>10.4</course>
<desc>Speed 4.6 km/h Distance 4.97 km</desc>
<time>2010-02-28T17:03:09.88</time>
<name>3214</name>
</trkpt>
<trkpt lat="48.986382" lon="8.651527">
<ele>335.0</ele>
<speed>4.6</speed>
<course>16.0</course>
<desc>Speed 4.6 km/h Distance 4.97 km</desc>
<time>2010-02-28T17:03:10.90</time>
<name>3215</name>
</trkpt>
<trkpt lat="48.986393" lon="8.651532">
<ele>335.0</ele>
<speed>4.9</speed>
<course>7.7</course>
<desc>Speed 4.9 km/h Distance 4.97 km</desc>
<time>2010-02-28T17:03:11.90</time>
<name>3216</name>
</trkpt>
<trkpt lat="48.986410" lon="8.651535">
<ele>334.5</ele>
<speed>7.0</speed>
<course>16.6</course>
<desc>Speed 7.0 km/h Distance 4.97 km</desc>
<time>2010-02-28T17:03:12.90</time>
<name>3217</name>
</trkpt>
<trkpt lat="48.986425" lon="8.651542">
<ele>334.5</ele>
<speed>5.9</speed>
<course>7.7</course>
<desc>Speed 5.9 km/h Distance 4.97 km</desc>
<time>2010-02-28T17:03:13.90</time>
<name>3218</name>
</trkpt>
<trkpt lat="48.986433" lon="8.651543">
<ele>334.0</ele>
<speed>4.1</speed>
<course>8.1</course>
<desc>Speed 4.1 km/h Distance 4.98 km</desc>
<time>2010-02-28T17:03:14.90</time>
<name>3219</name>
</trkpt>
<trkpt lat="48.986448" lon="8.651547">
<ele>333.5</ele>
<speed>5.8</speed>
<course>5.3</course>
<desc>Speed 5.8 km/h Distance 4.98 km</desc>
<time>2010-02-28T17:03:15.90</time>
<name>3220</name>
</trkpt>
<trkpt lat="48.986462" lon="8.651548">
<ele>333.0</ele>
<speed>5.1</speed>
<course>13.5</course>
<desc>Speed 5.1 km/h Distance 4.98 km</desc>
<time>2010-02-28T17:03:16.90</time>
<name>3221</name>
</trkpt>
<trkpt lat="48.986475" lon="8.651553">
<ele>333.5</ele>
<speed>5.1</speed>
<course>16.3</course>
<desc>Speed 5.1 km/h Distance 4.98 km</desc>
<time>2010-02-28T17:03:17.90</time>
<name>3222</name>
</trkpt>
<trkpt lat="48.986490" lon="8.651560">
<ele>333.5</ele>
<speed>5.5</speed>
<course>9.7</course>
<desc>Speed 5.5 km/h Distance 4.98 km</desc>
<time>2010-02-28T17:03:18.90</time>
<name>3223</name>
</trkpt>
<trkpt lat="48.986503" lon="8.651563">
<ele>333.0</ele>
<speed>4.4</speed>
<course>8.1</course>
<desc>Speed 4.4 km/h Distance 4.98 km</desc>
<time>2010-02-28T17:03:19.90</time>
<name>3224</name>
</trkpt>
<trkpt lat="48.986518" lon="8.651567">
<ele>333.0</ele>
<speed>5.8</speed>
<course>16.6</course>
<desc>Speed 5.8 km/h Distance 4.99 km</desc>
<time>2010-02-28T17:03:20.90</time>
<name>3225</name>
</trkpt>
<trkpt lat="48.986533" lon="8.651573">
<ele>333.0</ele>
<speed>5.6</speed>
<course>12.6</course>
<desc>Speed 5.6 km/h Distance 4.99 km</desc>
<time>2010-02-28T17:03:21.90</time>
<name>3226</name>
</trkpt>
<trkpt lat="48.986548" lon="8.651578">
<ele>333.0</ele>
<speed>5.8</speed>
<course>18.8</course>
<desc>Speed 5.8 km/h Distance 4.99 km</desc>
<time>2010-02-28T17:03:22.90</time>
<name>3227</name>
</trkpt>
<trkpt lat="48.986562" lon="8.651585">
<ele>332.5</ele>
<speed>5.5</speed>
<course>18.1</course>
<desc>Speed 5.5 km/h Distance 4.99 km</desc>
<time>2010-02-28T17:03:23.90</time>
<name>3228</name>
</trkpt>
<trkpt lat="48.986578" lon="8.651593">
<ele>332.5</ele>
<speed>6.5</speed>
<course>21.5</course>
<desc>Speed 6.5 km/h Distance 4.99 km</desc>
<time>2010-02-28T17:03:24.90</time>
<name>3229</name>
</trkpt>
<trkpt lat="48.986595" lon="8.651603">
<ele>331.5</ele>
<speed>6.0</speed>
<course>22.1</course>
<desc>Speed 6.0 km/h Distance 4.99 km</desc>
<time>2010-02-28T17:03:25.90</time>
<name>3230</name>
</trkpt>
<trkpt lat="48.986608" lon="8.651612">
<ele>331.0</ele>
<speed>5.4</speed>
<course>20.1</course>
<desc>Speed 5.4 km/h Distance 5.00 km</desc>
<time>2010-02-28T17:03:26.90</time>
<name>3231</name>
</trkpt>
<trkpt lat="48.986623" lon="8.651620">
<ele>330.5</ele>
<speed>5.9</speed>
<course>16.6</course>
<desc>Speed 5.9 km/h Distance 5.00 km</desc>
<time>2010-02-28T17:03:27.90</time>
<name>3232</name>
</trkpt>
<trkpt lat="48.986638" lon="8.651627">
<ele>330.0</ele>
<speed>5.6</speed>
<course>20.1</course>
<desc>Speed 5.6 km/h Distance 5.00 km</desc>
<time>2010-02-28T17:03:28.90</time>
<name>3233</name>
</trkpt>
<trkpt lat="48.986653" lon="8.651635">
<ele>329.5</ele>
<speed>5.6</speed>
<course>14.9</course>
<desc>Speed 5.6 km/h Distance 5.00 km</desc>
<time>2010-02-28T17:03:29.90</time>
<name>3234</name>
</trkpt>
<trkpt lat="48.986670" lon="8.651642">
<ele>328.5</ele>
<speed>6.0</speed>
<course>12.2</course>
<desc>Speed 6.0 km/h Distance 5.00 km</desc>
<time>2010-02-28T17:03:30.90</time>
<name>3235</name>
</trkpt>
<trkpt lat="48.986685" lon="8.651647">
<ele>327.5</ele>
<speed>5.7</speed>
<course>11.2</course>
<desc>Speed 5.7 km/h Distance 5.00 km</desc>
<time>2010-02-28T17:03:31.90</time>
<name>3236</name>
</trkpt>
<trkpt lat="48.986702" lon="8.651652">
<ele>327.5</ele>
<speed>5.9</speed>
<course>12.6</course>
<desc>Speed 5.9 km/h Distance 5.01 km</desc>
<time>2010-02-28T17:03:32.90</time>
<name>3237</name>
</trkpt>
<trkpt lat="48.986717" lon="8.651657">
<ele>327.0</ele>
<speed>5.7</speed>
<course>18.1</course>
<desc>Speed 5.7 km/h Distance 5.01 km</desc>
<time>2010-02-28T17:03:33.90</time>
<name>3238</name>
</trkpt>
<trkpt lat="48.986733" lon="8.651665">
<ele>327.0</ele>
<speed>5.9</speed>
<course>16.3</course>
<desc>Speed 5.9 km/h Distance 5.01 km</desc>
<time>2010-02-28T17:03:34.90</time>
<name>3239</name>
</trkpt>
<trkpt lat="48.986748" lon="8.651672">
<ele>327.5</ele>
<speed>5.3</speed>
<course>25.2</course>
<desc>Speed 5.3 km/h Distance 5.01 km</desc>
<time>2010-02-28T17:03:35.90</time>
<name>3240</name>
</trkpt>
<trkpt lat="48.986760" lon="8.651680">
<ele>327.0</ele>
<speed>5.0</speed>
<course>12.6</course>
<desc>Speed 5.0 km/h Distance 5.01 km</desc>
<time>2010-02-28T17:03:36.90</time>
<name>3241</name>
</trkpt>
<trkpt lat="48.986775" lon="8.651685">
<ele>327.0</ele>
<speed>5.6</speed>
<course>12.2</course>
<desc>Speed 5.6 km/h Distance 5.02 km</desc>
<time>2010-02-28T17:03:37.90</time>
<name>3242</name>
</trkpt>
<trkpt lat="48.986790" lon="8.651690">
<ele>327.0</ele>
<speed>5.7</speed>
<course>10.8</course>
<desc>Speed 5.7 km/h Distance 5.02 km</desc>
<time>2010-02-28T17:03:38.90</time>
<name>3243</name>
</trkpt>
<trkpt lat="48.986807" lon="8.651695">
<ele>327.0</ele>
<speed>6.1</speed>
<course>18.1</course>
<desc>Speed 6.1 km/h Distance 5.02 km</desc>
<time>2010-02-28T17:03:39.90</time>
<name>3244</name>
</trkpt>
<trkpt lat="48.986820" lon="8.651702">
<ele>326.5</ele>
<speed>5.7</speed>
<course>18.1</course>
<desc>Speed 5.7 km/h Distance 5.02 km</desc>
<time>2010-02-28T17:03:40.90</time>
<name>3245</name>
</trkpt>
<trkpt lat="48.986833" lon="8.651708">
<ele>326.5</ele>
<speed>5.1</speed>
<course>20.2</course>
<desc>Speed 5.1 km/h Distance 5.02 km</desc>
<time>2010-02-28T17:03:41.90</time>
<name>3246</name>
</trkpt>
<trkpt lat="48.986845" lon="8.651715">
<ele>326.0</ele>
<speed>4.8</speed>
<course>14.9</course>
<desc>Speed 4.8 km/h Distance 5.02 km</desc>
<time>2010-02-28T17:03:42.90</time>
<name>3247</name>
</trkpt>
<trkpt lat="48.986857" lon="8.651720">
<ele>326.0</ele>
<speed>4.5</speed>
<course>13.5</course>
<desc>Speed 4.5 km/h Distance 5.02 km</desc>
<time>2010-02-28T17:03:43.90</time>
<name>3248</name>
</trkpt>
<trkpt lat="48.986870" lon="8.651725">
<ele>326.0</ele>
<speed>4.9</speed>
<course>16.6</course>
<desc>Speed 4.9 km/h Distance 5.03 km</desc>
<time>2010-02-28T17:03:44.90</time>
<name>3249</name>
</trkpt>
<trkpt lat="48.986885" lon="8.651732">
<ele>325.5</ele>
<speed>5.3</speed>
<course>16.6</course>
<desc>Speed 5.3 km/h Distance 5.03 km</desc>
<time>2010-02-28T17:03:45.90</time>
<name>3250</name>
</trkpt>
<trkpt lat="48.986900" lon="8.651738">
<ele>325.5</ele>
<speed>5.7</speed>
<course>16.3</course>
<desc>Speed 5.7 km/h Distance 5.03 km</desc>
<time>2010-02-28T17:03:46.90</time>
<name>3251</name>
</trkpt>
<trkpt lat="48.986915" lon="8.651745">
<ele>325.5</ele>
<speed>5.7</speed>
<course>13.5</course>
<desc>Speed 5.7 km/h Distance 5.03 km</desc>
<time>2010-02-28T17:03:47.90</time>
<name>3252</name>
</trkpt>
<trkpt lat="48.986928" lon="8.651750">
<ele>325.5</ele>
<speed>5.0</speed>
<course>18.1</course>
<desc>Speed 5.0 km/h Distance 5.03 km</desc>
<time>2010-02-28T17:03:48.90</time>
<name>3253</name>
</trkpt>
<trkpt lat="48.986942" lon="8.651757">
<ele>325.0</ele>
<speed>5.0</speed>
<course>9.7</course>
<desc>Speed 5.0 km/h Distance 5.03 km</desc>
<time>2010-02-28T17:03:49.90</time>
<name>3254</name>
</trkpt>
<trkpt lat="48.986955" lon="8.651760">
<ele>324.5</ele>
<speed>4.6</speed>
<course>16.6</course>
<desc>Speed 4.6 km/h Distance 5.04 km</desc>
<time>2010-02-28T17:03:50.90</time>
<name>3255</name>
</trkpt>
<trkpt lat="48.986970" lon="8.651767">
<ele>324.5</ele>
<speed>6.1</speed>
<course>20.9</course>
<desc>Speed 6.1 km/h Distance 5.04 km</desc>
<time>2010-02-28T17:03:51.90</time>
<name>3256</name>
</trkpt>
<trkpt lat="48.986982" lon="8.651773">
<ele>324.0</ele>
<speed>5.2</speed>
<course>25.2</course>
<desc>Speed 5.2 km/h Distance 5.04 km</desc>
<time>2010-02-28T17:03:52.90</time>
<name>3257</name>
</trkpt>
<trkpt lat="48.986993" lon="8.651782">
<ele>324.0</ele>
<speed>5.0</speed>
<course>18.1</course>
<desc>Speed 5.0 km/h Distance 5.04 km</desc>
<time>2010-02-28T17:03:53.90</time>
<name>3258</name>
</trkpt>
<trkpt lat="48.987007" lon="8.651788">
<ele>324.0</ele>
<speed>4.9</speed>
<course>16.0</course>
<desc>Speed 4.9 km/h Distance 5.04 km</desc>
<time>2010-02-28T17:03:54.90</time>
<name>3259</name>
</trkpt>
<trkpt lat="48.987018" lon="8.651793">
<ele>323.5</ele>
<speed>4.6</speed>
<course>16.3</course>
<desc>Speed 4.6 km/h Distance 5.04 km</desc>
<time>2010-02-28T17:03:55.90</time>
<name>3260</name>
</trkpt>
<trkpt lat="48.987033" lon="8.651800">
<ele>323.0</ele>
<speed>5.2</speed>
<course>18.1</course>
<desc>Speed 5.2 km/h Distance 5.05 km</desc>
<time>2010-02-28T17:03:56.90</time>
<name>3261</name>
</trkpt>
<trkpt lat="48.987047" lon="8.651807">
<ele>323.0</ele>
<speed>5.0</speed>
<course>20.2</course>
<desc>Speed 5.0 km/h Distance 5.05 km</desc>
<time>2010-02-28T17:03:57.90</time>
<name>3262</name>
</trkpt>
<trkpt lat="48.987058" lon="8.651813">
<ele>323.0</ele>
<speed>4.5</speed>
<course>18.4</course>
<desc>Speed 4.5 km/h Distance 5.05 km</desc>
<time>2010-02-28T17:03:58.90</time>
<name>3263</name>
</trkpt>
<trkpt lat="48.987072" lon="8.651820">
<ele>322.5</ele>
<speed>4.9</speed>
<course>18.1</course>
<desc>Speed 4.9 km/h Distance 5.05 km</desc>
<time>2010-02-28T17:03:59.90</time>
<name>3264</name>
</trkpt>
<trkpt lat="48.987085" lon="8.651827">
<ele>322.5</ele>
<speed>5.3</speed>
<course>23.7</course>
<desc>Speed 5.3 km/h Distance 5.05 km</desc>
<time>2010-02-28T17:04:00.90</time>
<name>3265</name>
</trkpt>
<trkpt lat="48.987100" lon="8.651837">
<ele>322.5</ele>
<speed>5.1</speed>
<course>22.1</course>
<desc>Speed 5.1 km/h Distance 5.05 km</desc>
<time>2010-02-28T17:04:01.90</time>
<name>3266</name>
</trkpt>
<trkpt lat="48.987113" lon="8.651845">
<ele>322.5</ele>
<speed>5.7</speed>
<course>13.5</course>
<desc>Speed 5.7 km/h Distance 5.05 km</desc>
<time>2010-02-28T17:04:02.90</time>
<name>3267</name>
</trkpt>
<trkpt lat="48.987127" lon="8.651850">
<ele>322.0</ele>
<speed>5.1</speed>
<course>7.0</course>
<desc>Speed 5.1 km/h Distance 5.06 km</desc>
<time>2010-02-28T17:04:03.90</time>
<name>3268</name>
</trkpt>
<trkpt lat="48.987145" lon="8.651853">
<ele>322.5</ele>
<speed>5.4</speed>
<course>16.6</course>
<desc>Speed 5.4 km/h Distance 5.06 km</desc>
<time>2010-02-28T17:04:04.90</time>
<name>3269</name>
</trkpt>
<trkpt lat="48.987160" lon="8.651860">
<ele>322.0</ele>
<speed>5.8</speed>
<course>18.1</course>
<desc>Speed 5.8 km/h Distance 5.06 km</desc>
<time>2010-02-28T17:04:05.90</time>
<name>3270</name>
</trkpt>
<trkpt lat="48.987173" lon="8.651867">
<ele>322.0</ele>
<speed>5.4</speed>
<course>13.5</course>
<desc>Speed 5.4 km/h Distance 5.06 km</desc>
<time>2010-02-28T17:04:06.90</time>
<name>3271</name>
</trkpt>
<trkpt lat="48.987187" lon="8.651872">
<ele>321.5</ele>
<speed>5.2</speed>
<course>12.2</course>
<desc>Speed 5.2 km/h Distance 5.06 km</desc>
<time>2010-02-28T17:04:07.90</time>
<name>3272</name>
</trkpt>
<trkpt lat="48.987202" lon="8.651877">
<ele>321.5</ele>
<speed>5.2</speed>
<course>18.1</course>
<desc>Speed 5.2 km/h Distance 5.06 km</desc>
<time>2010-02-28T17:04:08.90</time>
<name>3273</name>
</trkpt>
<trkpt lat="48.987215" lon="8.651883">
<ele>321.5</ele>
<speed>5.0</speed>
<course>14.6</course>
<desc>Speed 5.0 km/h Distance 5.07 km</desc>
<time>2010-02-28T17:04:09.90</time>
<name>3274</name>
</trkpt>
<trkpt lat="48.987232" lon="8.651890">
<ele>321.5</ele>
<speed>5.7</speed>
<course>20.1</course>
<desc>Speed 5.7 km/h Distance 5.07 km</desc>
<time>2010-02-28T17:04:10.90</time>
<name>3275</name>
</trkpt>
<trkpt lat="48.987247" lon="8.651898">
<ele>321.5</ele>
<speed>5.9</speed>
<course>10.8</course>
<desc>Speed 5.9 km/h Distance 5.07 km</desc>
<time>2010-02-28T17:04:11.90</time>
<name>3276</name>
</trkpt>
<trkpt lat="48.987263" lon="8.651903">
<ele>321.5</ele>
<speed>5.7</speed>
<course>14.6</course>
<desc>Speed 5.7 km/h Distance 5.07 km</desc>
<time>2010-02-28T17:04:12.90</time>
<name>3277</name>
</trkpt>
<trkpt lat="48.987280" lon="8.651910">
<ele>321.5</ele>
<speed>5.5</speed>
<course>10.8</course>
<desc>Speed 5.5 km/h Distance 5.07 km</desc>
<time>2010-02-28T17:04:13.90</time>
<name>3278</name>
</trkpt>
<trkpt lat="48.987297" lon="8.651915">
<ele>321.5</ele>
<speed>5.7</speed>
<course>18.1</course>
<desc>Speed 5.7 km/h Distance 5.08 km</desc>
<time>2010-02-28T17:04:14.90</time>
<name>3279</name>
</trkpt>
<trkpt lat="48.987310" lon="8.651922">
<ele>321.5</ele>
<speed>5.2</speed>
<course>16.6</course>
<desc>Speed 5.2 km/h Distance 5.08 km</desc>
<time>2010-02-28T17:04:15.90</time>
<name>3280</name>
</trkpt>
<trkpt lat="48.987325" lon="8.651928">
<ele>321.0</ele>
<speed>5.5</speed>
<course>18.1</course>
<desc>Speed 5.5 km/h Distance 5.08 km</desc>
<time>2010-02-28T17:04:16.90</time>
<name>3281</name>
</trkpt>
<trkpt lat="48.987338" lon="8.651935">
<ele>321.0</ele>
<speed>5.4</speed>
<course>25.2</course>
<desc>Speed 5.4 km/h Distance 5.08 km</desc>
<time>2010-02-28T17:04:17.90</time>
<name>3282</name>
</trkpt>
<trkpt lat="48.987350" lon="8.651943">
<ele>321.0</ele>
<speed>5.1</speed>
<course>14.0</course>
<desc>Speed 5.1 km/h Distance 5.08 km</desc>
<time>2010-02-28T17:04:18.90</time>
<name>3283</name>
</trkpt>
<trkpt lat="48.987363" lon="8.651948">
<ele>320.5</ele>
<speed>5.2</speed>
<course>18.1</course>
<desc>Speed 5.2 km/h Distance 5.08 km</desc>
<time>2010-02-28T17:04:19.90</time>
<name>3284</name>
</trkpt>
<trkpt lat="48.987377" lon="8.651955">
<ele>320.5</ele>
<speed>5.1</speed>
<course>18.1</course>
<desc>Speed 5.1 km/h Distance 5.09 km</desc>
<time>2010-02-28T17:04:20.90</time>
<name>3285</name>
</trkpt>
<trkpt lat="48.987390" lon="8.651962">
<ele>320.0</ele>
<speed>5.7</speed>
<course>18.1</course>
<desc>Speed 5.7 km/h Distance 5.09 km</desc>
<time>2010-02-28T17:04:21.90</time>
<name>3286</name>
</trkpt>
<trkpt lat="48.987403" lon="8.651968">
<ele>320.0</ele>
<speed>5.4</speed>
<course>11.7</course>
<desc>Speed 5.4 km/h Distance 5.09 km</desc>
<time>2010-02-28T17:04:22.90</time>
<name>3287</name>
</trkpt>
<trkpt lat="48.987418" lon="8.651973">
<ele>320.0</ele>
<speed>5.7</speed>
<course>16.0</course>
<desc>Speed 5.7 km/h Distance 5.09 km</desc>
<time>2010-02-28T17:04:23.90</time>
<name>3288</name>
</trkpt>
<trkpt lat="48.987433" lon="8.651980">
<ele>319.5</ele>
<speed>5.3</speed>
<course>13.5</course>
<desc>Speed 5.3 km/h Distance 5.09 km</desc>
<time>2010-02-28T17:04:24.90</time>
<name>3289</name>
</trkpt>
<trkpt lat="48.987447" lon="8.651985">
<ele>319.5</ele>
<speed>5.4</speed>
<course>7.5</course>
<desc>Speed 5.4 km/h Distance 5.09 km</desc>
<time>2010-02-28T17:04:25.90</time>
<name>3290</name>
</trkpt>
<trkpt lat="48.987462" lon="8.651988">
<ele>319.0</ele>
<speed>5.2</speed>
<course>13.5</course>
<desc>Speed 5.2 km/h Distance 5.10 km</desc>
<time>2010-02-28T17:04:26.90</time>
<name>3291</name>
</trkpt>
<trkpt lat="48.987475" lon="8.651993">
<ele>319.0</ele>
<speed>5.5</speed>
<course>14.6</course>
<desc>Speed 5.5 km/h Distance 5.10 km</desc>
<time>2010-02-28T17:04:27.90</time>
<name>3292</name>
</trkpt>
<trkpt lat="48.987492" lon="8.652000">
<ele>319.0</ele>
<speed>5.3</speed>
<course>16.6</course>
<desc>Speed 5.3 km/h Distance 5.10 km</desc>
<time>2010-02-28T17:04:28.90</time>
<name>3293</name>
</trkpt>
<trkpt lat="48.987507" lon="8.652007">
<ele>319.0</ele>
<speed>6.0</speed>
<course>12.2</course>
<desc>Speed 6.0 km/h Distance 5.10 km</desc>
<time>2010-02-28T17:04:29.90</time>
<name>3294</name>
</trkpt>
<trkpt lat="48.987522" lon="8.652012">
<ele>319.0</ele>
<speed>6.0</speed>
<course>16.3</course>
<desc>Speed 6.0 km/h Distance 5.10 km</desc>
<time>2010-02-28T17:04:30.90</time>
<name>3295</name>
</trkpt>
<trkpt lat="48.987537" lon="8.652018">
<ele>319.0</ele>
<speed>5.9</speed>
<course>11.2</course>
<desc>Speed 5.9 km/h Distance 5.10 km</desc>
<time>2010-02-28T17:04:31.90</time>
<name>3296</name>
</trkpt>
<trkpt lat="48.987553" lon="8.652023">
<ele>319.0</ele>
<speed>7.0</speed>
<course>13.5</course>
<desc>Speed 7.0 km/h Distance 5.11 km</desc>
<time>2010-02-28T17:04:32.90</time>
<name>3297</name>
</trkpt>
<trkpt lat="48.987567" lon="8.652028">
<ele>319.0</ele>
<speed>5.6</speed>
<course>16.0</course>
<desc>Speed 5.6 km/h Distance 5.11 km</desc>
<time>2010-02-28T17:04:33.90</time>
<name>3298</name>
</trkpt>
<trkpt lat="48.987582" lon="8.652035">
<ele>319.0</ele>
<speed>5.6</speed>
<course>17.8</course>
<desc>Speed 5.6 km/h Distance 5.11 km</desc>
<time>2010-02-28T17:04:34.90</time>
<name>3299</name>
</trkpt>
<trkpt lat="48.987595" lon="8.652042">
<ele>319.0</ele>
<speed>5.8</speed>
<course>14.9</course>
<desc>Speed 5.8 km/h Distance 5.11 km</desc>
<time>2010-02-28T17:04:35.90</time>
<name>3300</name>
</trkpt>
<trkpt lat="48.987607" lon="8.652047">
<ele>318.5</ele>
<speed>5.4</speed>
<course>12.2</course>
<desc>Speed 5.4 km/h Distance 5.11 km</desc>
<time>2010-02-28T17:04:36.90</time>
<name>3301</name>
</trkpt>
<trkpt lat="48.987622" lon="8.652052">
<ele>318.5</ele>
<speed>5.5</speed>
<course>13.5</course>
<desc>Speed 5.5 km/h Distance 5.11 km</desc>
<time>2010-02-28T17:04:37.90</time>
<name>3302</name>
</trkpt>
<trkpt lat="48.987635" lon="8.652057">
<ele>318.0</ele>
<speed>4.9</speed>
<course>11.7</course>
<desc>Speed 4.9 km/h Distance 5.12 km</desc>
<time>2010-02-28T17:04:38.90</time>
<name>3303</name>
</trkpt>
<trkpt lat="48.987650" lon="8.652062">
<ele>318.0</ele>
<speed>6.1</speed>
<course>18.1</course>
<desc>Speed 6.1 km/h Distance 5.12 km</desc>
<time>2010-02-28T17:04:39.90</time>
<name>3304</name>
</trkpt>
<trkpt lat="48.987663" lon="8.652068">
<ele>317.5</ele>
<speed>5.5</speed>
<course>9.7</course>
<desc>Speed 5.5 km/h Distance 5.12 km</desc>
<time>2010-02-28T17:04:40.90</time>
<name>3305</name>
</trkpt>
<trkpt lat="48.987677" lon="8.652072">
<ele>317.5</ele>
<speed>5.6</speed>
<course>13.5</course>
<desc>Speed 5.6 km/h Distance 5.12 km</desc>
<time>2010-02-28T17:04:41.90</time>
<name>3306</name>
</trkpt>
<trkpt lat="48.987690" lon="8.652077">
<ele>317.0</ele>
<speed>5.4</speed>
<course>14.6</course>
<desc>Speed 5.4 km/h Distance 5.12 km</desc>
<time>2010-02-28T17:04:42.90</time>
<name>3307</name>
</trkpt>
<trkpt lat="48.987707" lon="8.652083">
<ele>317.0</ele>
<speed>6.2</speed>
<course>18.1</course>
<desc>Speed 6.2 km/h Distance 5.12 km</desc>
<time>2010-02-28T17:04:43.90</time>
<name>3308</name>
</trkpt>
<trkpt lat="48.987720" lon="8.652090">
<ele>317.0</ele>
<speed>5.5</speed>
<course>12.6</course>
<desc>Speed 5.5 km/h Distance 5.12 km</desc>
<time>2010-02-28T17:04:44.90</time>
<name>3309</name>
</trkpt>
<trkpt lat="48.987735" lon="8.652095">
<ele>317.0</ele>
<speed>5.3</speed>
<course>14.4</course>
<desc>Speed 5.3 km/h Distance 5.13 km</desc>
<time>2010-02-28T17:04:45.90</time>
<name>3310</name>
</trkpt>
<trkpt lat="48.987748" lon="8.652100">
<ele>316.5</ele>
<speed>5.2</speed>
<course>24.9</course>
<desc>Speed 5.2 km/h Distance 5.13 km</desc>
<time>2010-02-28T17:04:46.90</time>
<name>3311</name>
</trkpt>
<trkpt lat="48.987760" lon="8.652108">
<ele>316.0</ele>
<speed>5.3</speed>
<course>19.7</course>
<desc>Speed 5.3 km/h Distance 5.13 km</desc>
<time>2010-02-28T17:04:47.90</time>
<name>3312</name>
</trkpt>
<trkpt lat="48.987778" lon="8.652118">
<ele>316.5</ele>
<speed>6.1</speed>
<course>16.6</course>
<desc>Speed 6.1 km/h Distance 5.13 km</desc>
<time>2010-02-28T17:04:48.90</time>
<name>3313</name>
</trkpt>
<trkpt lat="48.987793" lon="8.652125">
<ele>316.5</ele>
<speed>5.8</speed>
<course>18.4</course>
<desc>Speed 5.8 km/h Distance 5.13 km</desc>
<time>2010-02-28T17:04:49.90</time>
<name>3314</name>
</trkpt>
<trkpt lat="48.987807" lon="8.652132">
<ele>316.0</ele>
<speed>5.8</speed>
<course>16.6</course>
<desc>Speed 5.8 km/h Distance 5.13 km</desc>
<time>2010-02-28T17:04:50.90</time>
<name>3315</name>
</trkpt>
<trkpt lat="48.987822" lon="8.652138">
<ele>316.0</ele>
<speed>5.6</speed>
<course>18.1</course>
<desc>Speed 5.6 km/h Distance 5.14 km</desc>
<time>2010-02-28T17:04:51.90</time>
<name>3316</name>
</trkpt>
<trkpt lat="48.987835" lon="8.652145">
<ele>316.0</ele>
<speed>5.8</speed>
<course>18.1</course>
<desc>Speed 5.8 km/h Distance 5.14 km</desc>
<time>2010-02-28T17:04:52.90</time>
<name>3317</name>
</trkpt>
<trkpt lat="48.987848" lon="8.652152">
<ele>315.5</ele>
<speed>5.1</speed>
<course>20.1</course>
<desc>Speed 5.1 km/h Distance 5.14 km</desc>
<time>2010-02-28T17:04:53.90</time>
<name>3318</name>
</trkpt>
<trkpt lat="48.987863" lon="8.652160">
<ele>315.5</ele>
<speed>5.7</speed>
<course>14.9</course>
<desc>Speed 5.7 km/h Distance 5.14 km</desc>
<time>2010-02-28T17:04:54.90</time>
<name>3319</name>
</trkpt>
<trkpt lat="48.987880" lon="8.652167">
<ele>315.5</ele>
<speed>5.8</speed>
<course>16.6</course>
<desc>Speed 5.8 km/h Distance 5.14 km</desc>
<time>2010-02-28T17:04:55.90</time>
<name>3320</name>
</trkpt>
<trkpt lat="48.987895" lon="8.652173">
<ele>316.0</ele>
<speed>5.6</speed>
<course>12.6</course>
<desc>Speed 5.6 km/h Distance 5.15 km</desc>
<time>2010-02-28T17:04:56.90</time>
<name>3321</name>
</trkpt>
<trkpt lat="48.987910" lon="8.652178">
<ele>316.0</ele>
<speed>5.7</speed>
<course>16.6</course>
<desc>Speed 5.7 km/h Distance 5.15 km</desc>
<time>2010-02-28T17:04:57.90</time>
<name>3322</name>
</trkpt>
<trkpt lat="48.987925" lon="8.652185">
<ele>315.5</ele>
<speed>5.5</speed>
<course>18.4</course>
<desc>Speed 5.5 km/h Distance 5.15 km</desc>
<time>2010-02-28T17:04:58.90</time>
<name>3323</name>
</trkpt>
<trkpt lat="48.987938" lon="8.652192">
<ele>315.5</ele>
<speed>5.5</speed>
<course>18.1</course>
<desc>Speed 5.5 km/h Distance 5.15 km</desc>
<time>2010-02-28T17:04:59.90</time>
<name>3324</name>
</trkpt>
<trkpt lat="48.987952" lon="8.652198">
<ele>315.5</ele>
<speed>5.4</speed>
<course>14.9</course>
<desc>Speed 5.4 km/h Distance 5.15 km</desc>
<time>2010-02-28T17:05:00.90</time>
<name>3325</name>
</trkpt>
<trkpt lat="48.987968" lon="8.652205">
<ele>316.0</ele>
<speed>5.8</speed>
<course>10.2</course>
<desc>Speed 5.8 km/h Distance 5.15 km</desc>
<time>2010-02-28T17:05:01.90</time>
<name>3326</name>
</trkpt>
<trkpt lat="48.987987" lon="8.652210">
<ele>316.5</ele>
<speed>5.9</speed>
<course>13.5</course>
<desc>Speed 5.9 km/h Distance 5.16 km</desc>
<time>2010-02-28T17:05:02.90</time>
<name>3327</name>
</trkpt>
<trkpt lat="48.988000" lon="8.652215">
<ele>317.0</ele>
<speed>4.5</speed>
<course>9.2</course>
<desc>Speed 4.5 km/h Distance 5.16 km</desc>
<time>2010-02-28T17:05:03.90</time>
<name>3328</name>
</trkpt>
<trkpt lat="48.988020" lon="8.652220">
<ele>317.5</ele>
<speed>5.5</speed>
<course>10.2</course>
<desc>Speed 5.5 km/h Distance 5.16 km</desc>
<time>2010-02-28T17:05:04.90</time>
<name>3329</name>
</trkpt>
<trkpt lat="48.988038" lon="8.652225">
<ele>317.5</ele>
<speed>6.3</speed>
<course>13.1</course>
<desc>Speed 6.3 km/h Distance 5.16 km</desc>
<time>2010-02-28T17:05:05.90</time>
<name>3330</name>
</trkpt>
<trkpt lat="48.988057" lon="8.652232">
<ele>318.0</ele>
<speed>5.9</speed>
<course>18.1</course>
<desc>Speed 5.9 km/h Distance 5.16 km</desc>
<time>2010-02-28T17:05:06.90</time>
<name>3331</name>
</trkpt>
<trkpt lat="48.988073" lon="8.652240">
<ele>318.5</ele>
<speed>5.8</speed>
<course>12.2</course>
<desc>Speed 5.8 km/h Distance 5.17 km</desc>
<time>2010-02-28T17:05:07.90</time>
<name>3332</name>
</trkpt>
<trkpt lat="48.988088" lon="8.652245">
<ele>318.0</ele>
<speed>5.8</speed>
<course>11.2</course>
<desc>Speed 5.8 km/h Distance 5.17 km</desc>
<time>2010-02-28T17:05:08.90</time>
<name>3333</name>
</trkpt>
<trkpt lat="48.988105" lon="8.652250">
<ele>318.0</ele>
<speed>6.0</speed>
<course>12.6</course>
<desc>Speed 6.0 km/h Distance 5.17 km</desc>
<time>2010-02-28T17:05:09.90</time>
<name>3334</name>
</trkpt>
<trkpt lat="48.988120" lon="8.652255">
<ele>317.5</ele>
<speed>6.2</speed>
<course>16.3</course>
<desc>Speed 6.2 km/h Distance 5.17 km</desc>
<time>2010-02-28T17:05:10.90</time>
<name>3335</name>
</trkpt>
<trkpt lat="48.988135" lon="8.652262">
<ele>317.0</ele>
<speed>5.9</speed>
<course>7.7</course>
<desc>Speed 5.9 km/h Distance 5.17 km</desc>
<time>2010-02-28T17:05:11.90</time>
<name>3336</name>
</trkpt>
<trkpt lat="48.988152" lon="8.652265">
<ele>317.0</ele>
<speed>6.1</speed>
<course>6.5</course>
<desc>Speed 6.1 km/h Distance 5.17 km</desc>
<time>2010-02-28T17:05:12.90</time>
<name>3337</name>
</trkpt>
<trkpt lat="48.988170" lon="8.652268">
<ele>317.0</ele>
<speed>5.9</speed>
<course>18.1</course>
<desc>Speed 5.9 km/h Distance 5.18 km</desc>
<time>2010-02-28T17:05:13.90</time>
<name>3338</name>
</trkpt>
<trkpt lat="48.988183" lon="8.652275">
<ele>317.0</ele>
<speed>5.6</speed>
<course>14.3</course>
<desc>Speed 5.6 km/h Distance 5.18 km</desc>
<time>2010-02-28T17:05:14.90</time>
<name>3339</name>
</trkpt>
<trkpt lat="48.988200" lon="8.652282">
<ele>317.0</ele>
<speed>6.1</speed>
<course>10.4</course>
<desc>Speed 6.1 km/h Distance 5.18 km</desc>
<time>2010-02-28T17:05:15.90</time>
<name>3340</name>
</trkpt>
<trkpt lat="48.988217" lon="8.652287">
<ele>316.5</ele>
<speed>6.0</speed>
<course>8.1</course>
<desc>Speed 6.0 km/h Distance 5.18 km</desc>
<time>2010-02-28T17:05:16.90</time>
<name>3341</name>
</trkpt>
<trkpt lat="48.988232" lon="8.652290">
<ele>316.5</ele>
<speed>5.7</speed>
<course>16.3</course>
<desc>Speed 5.7 km/h Distance 5.18 km</desc>
<time>2010-02-28T17:05:17.90</time>
<name>3342</name>
</trkpt>
<trkpt lat="48.988247" lon="8.652297">
<ele>316.5</ele>
<speed>5.9</speed>
<course>16.0</course>
<desc>Speed 5.9 km/h Distance 5.19 km</desc>
<time>2010-02-28T17:05:18.90</time>
<name>3343</name>
</trkpt>
<trkpt lat="48.988262" lon="8.652303">
<ele>316.5</ele>
<speed>5.6</speed>
<course>7.7</course>
<desc>Speed 5.6 km/h Distance 5.19 km</desc>
<time>2010-02-28T17:05:19.90</time>
<name>3344</name>
</trkpt>
<trkpt lat="48.988278" lon="8.652307">
<ele>317.0</ele>
<speed>6.2</speed>
<course>20.9</course>
<desc>Speed 6.2 km/h Distance 5.19 km</desc>
<time>2010-02-28T17:05:20.90</time>
<name>3345</name>
</trkpt>
<trkpt lat="48.988290" lon="8.652313">
<ele>317.0</ele>
<speed>5.4</speed>
<course>16.0</course>
<desc>Speed 5.4 km/h Distance 5.19 km</desc>
<time>2010-02-28T17:05:21.90</time>
<name>3346</name>
</trkpt>
<trkpt lat="48.988305" lon="8.652320">
<ele>316.5</ele>
<speed>5.9</speed>
<course>20.6</course>
<desc>Speed 5.9 km/h Distance 5.19 km</desc>
<time>2010-02-28T17:05:22.90</time>
<name>3347</name>
</trkpt>
<trkpt lat="48.988317" lon="8.652327">
<ele>316.0</ele>
<speed>5.5</speed>
<course>20.9</course>
<desc>Speed 5.5 km/h Distance 5.19 km</desc>
<time>2010-02-28T17:05:23.90</time>
<name>3348</name>
</trkpt>
<trkpt lat="48.988328" lon="8.652333">
<ele>316.0</ele>
<speed>5.8</speed>
<course>7.5</course>
<desc>Speed 5.8 km/h Distance 5.19 km</desc>
<time>2010-02-28T17:05:24.90</time>
<name>3349</name>
</trkpt>
<trkpt lat="48.988343" lon="8.652337">
<ele>315.5</ele>
<speed>6.3</speed>
<course>13.5</course>
<desc>Speed 6.3 km/h Distance 5.20 km</desc>
<time>2010-02-28T17:05:25.90</time>
<name>3350</name>
</trkpt>
<trkpt lat="48.988357" lon="8.652342">
<ele>315.5</ele>
<speed>5.8</speed>
<course>12.2</course>
<desc>Speed 5.8 km/h Distance 5.20 km</desc>
<time>2010-02-28T17:05:26.90</time>
<name>3351</name>
</trkpt>
<trkpt lat="48.988372" lon="8.652347">
<ele>315.5</ele>
<speed>5.9</speed>
<course>16.3</course>
<desc>Speed 5.9 km/h Distance 5.20 km</desc>
<time>2010-02-28T17:05:27.90</time>
<name>3352</name>
</trkpt>
<trkpt lat="48.988387" lon="8.652353">
<ele>315.0</ele>
<speed>6.2</speed>
<course>11.7</course>
<desc>Speed 6.2 km/h Distance 5.20 km</desc>
<time>2010-02-28T17:05:28.90</time>
<name>3353</name>
</trkpt>
<trkpt lat="48.988402" lon="8.652358">
<ele>315.0</ele>
<speed>5.8</speed>
<course>18.1</course>
<desc>Speed 5.8 km/h Distance 5.20 km</desc>
<time>2010-02-28T17:05:29.90</time>
<name>3354</name>
</trkpt>
<trkpt lat="48.988415" lon="8.652365">
<ele>315.0</ele>
<speed>5.4</speed>
<course>14.3</course>
<desc>Speed 5.4 km/h Distance 5.20 km</desc>
<time>2010-02-28T17:05:30.90</time>
<name>3355</name>
</trkpt>
<trkpt lat="48.988432" lon="8.652372">
<ele>314.5</ele>
<speed>5.8</speed>
<course>10.8</course>
<desc>Speed 5.8 km/h Distance 5.21 km</desc>
<time>2010-02-28T17:05:31.90</time>
<name>3356</name>
</trkpt>
<trkpt lat="48.988448" lon="8.652377">
<ele>315.0</ele>
<speed>5.5</speed>
<course>18.1</course>
<desc>Speed 5.5 km/h Distance 5.21 km</desc>
<time>2010-02-28T17:05:32.90</time>
<name>3357</name>
</trkpt>
<trkpt lat="48.988462" lon="8.652383">
<ele>314.5</ele>
<speed>5.6</speed>
<course>18.8</course>
<desc>Speed 5.6 km/h Distance 5.21 km</desc>
<time>2010-02-28T17:05:33.90</time>
<name>3358</name>
</trkpt>
<trkpt lat="48.988475" lon="8.652390">
<ele>314.5</ele>
<speed>5.4</speed>
<course>25.2</course>
<desc>Speed 5.4 km/h Distance 5.21 km</desc>
<time>2010-02-28T17:05:34.90</time>
<name>3359</name>
</trkpt>
<trkpt lat="48.988487" lon="8.652398">
<ele>314.0</ele>
<speed>4.8</speed>
<course>20.9</course>
<desc>Speed 4.8 km/h Distance 5.21 km</desc>
<time>2010-02-28T17:05:35.90</time>
<name>3360</name>
</trkpt>
<trkpt lat="48.988498" lon="8.652405">
<ele>314.0</ele>
<speed>4.8</speed>
<course>23.8</course>
<desc>Speed 4.8 km/h Distance 5.21 km</desc>
<time>2010-02-28T17:05:36.90</time>
<name>3361</name>
</trkpt>
<trkpt lat="48.988508" lon="8.652412">
<ele>314.0</ele>
<speed>4.7</speed>
<course>13.5</course>
<desc>Speed 4.7 km/h Distance 5.22 km</desc>
<time>2010-02-28T17:05:37.93</time>
<name>3362</name>
</trkpt>
<trkpt lat="48.988522" lon="8.652417">
<ele>313.5</ele>
<speed>4.8</speed>
<course>7.7</course>
<desc>Speed 4.8 km/h Distance 5.22 km</desc>
<time>2010-02-28T17:05:38.93</time>
<name>3363</name>
</trkpt>
<trkpt lat="48.988538" lon="8.652420">
<ele>314.0</ele>
<speed>5.5</speed>
<course>7.7</course>
<desc>Speed 5.5 km/h Distance 5.22 km</desc>
<time>2010-02-28T17:05:39.93</time>
<name>3364</name>
</trkpt>
<trkpt lat="48.988555" lon="8.652423">
<ele>314.0</ele>
<speed>5.7</speed>
<course>11.7</course>
<desc>Speed 5.7 km/h Distance 5.22 km</desc>
<time>2010-02-28T17:05:40.93</time>
<name>3365</name>
</trkpt>
<trkpt lat="48.988570" lon="8.652428">
<ele>314.5</ele>
<speed>5.6</speed>
<course>16.6</course>
<desc>Speed 5.6 km/h Distance 5.22 km</desc>
<time>2010-02-28T17:05:41.93</time>
<name>3366</name>
</trkpt>
<trkpt lat="48.988585" lon="8.652435">
<ele>314.5</ele>
<speed>5.4</speed>
<course>16.0</course>
<desc>Speed 5.4 km/h Distance 5.22 km</desc>
<time>2010-02-28T17:05:42.93</time>
<name>3367</name>
</trkpt>
<trkpt lat="48.988600" lon="8.652442">
<ele>314.5</ele>
<speed>5.8</speed>
<course>10.8</course>
<desc>Speed 5.8 km/h Distance 5.23 km</desc>
<time>2010-02-28T17:05:43.93</time>
<name>3368</name>
</trkpt>
<trkpt lat="48.988617" lon="8.652447">
<ele>314.5</ele>
<speed>6.6</speed>
<course>18.1</course>
<desc>Speed 6.6 km/h Distance 5.23 km</desc>
<time>2010-02-28T17:05:44.93</time>
<name>3369</name>
</trkpt>
<trkpt lat="48.988633" lon="8.652455">
<ele>314.0</ele>
<speed>6.2</speed>
<course>11.2</course>
<desc>Speed 6.2 km/h Distance 5.23 km</desc>
<time>2010-02-28T17:05:45.93</time>
<name>3370</name>
</trkpt>
<trkpt lat="48.988650" lon="8.652460">
<ele>314.0</ele>
<speed>5.6</speed>
<course>11.2</course>
<desc>Speed 5.6 km/h Distance 5.23 km</desc>
<time>2010-02-28T17:05:46.93</time>
<name>3371</name>
</trkpt>
<trkpt lat="48.988667" lon="8.652465">
<ele>314.0</ele>
<speed>6.4</speed>
<course>12.6</course>
<desc>Speed 6.4 km/h Distance 5.23 km</desc>
<time>2010-02-28T17:05:47.93</time>
<name>3372</name>
</trkpt>
<trkpt lat="48.988682" lon="8.652470">
<ele>314.0</ele>
<speed>6.2</speed>
<course>11.2</course>
<desc>Speed 6.2 km/h Distance 5.24 km</desc>
<time>2010-02-28T17:05:48.93</time>
<name>3373</name>
</trkpt>
<trkpt lat="48.988698" lon="8.652475">
<ele>313.5</ele>
<speed>6.6</speed>
<course>13.5</course>
<desc>Speed 6.6 km/h Distance 5.24 km</desc>
<time>2010-02-28T17:05:49.93</time>
<name>3374</name>
</trkpt>
<trkpt lat="48.988712" lon="8.652480">
<ele>313.5</ele>
<speed>5.8</speed>
<course>13.5</course>
<desc>Speed 5.8 km/h Distance 5.24 km</desc>
<time>2010-02-28T17:05:50.93</time>
<name>3375</name>
</trkpt>
<trkpt lat="48.988725" lon="8.652485">
<ele>313.5</ele>
<speed>5.1</speed>
<course>20.6</course>
<desc>Speed 5.1 km/h Distance 5.24 km</desc>
<time>2010-02-28T17:05:51.93</time>
<name>3376</name>
</trkpt>
<trkpt lat="48.988737" lon="8.652492">
<ele>313.0</ele>
<speed>5.7</speed>
<course>22.3</course>
<desc>Speed 5.7 km/h Distance 5.24 km</desc>
<time>2010-02-28T17:05:52.93</time>
<name>3377</name>
</trkpt>
<trkpt lat="48.988750" lon="8.652500">
<ele>313.0</ele>
<speed>6.2</speed>
<course>18.1</course>
<desc>Speed 6.2 km/h Distance 5.24 km</desc>
<time>2010-02-28T17:05:53.93</time>
<name>3378</name>
</trkpt>
<trkpt lat="48.988763" lon="8.652507">
<ele>313.0</ele>
<speed>6.0</speed>
<course>22.3</course>
<desc>Speed 6.0 km/h Distance 5.25 km</desc>
<time>2010-02-28T17:05:54.93</time>
<name>3379</name>
</trkpt>
<trkpt lat="48.988777" lon="8.652515">
<ele>313.0</ele>
<speed>5.5</speed>
<course>18.1</course>
<desc>Speed 5.5 km/h Distance 5.25 km</desc>
<time>2010-02-28T17:05:55.93</time>
<name>3380</name>
</trkpt>
<trkpt lat="48.988790" lon="8.652522">
<ele>313.0</ele>
<speed>5.8</speed>
<course>18.4</course>
<desc>Speed 5.8 km/h Distance 5.25 km</desc>
<time>2010-02-28T17:05:56.93</time>
<name>3381</name>
</trkpt>
<trkpt lat="48.988803" lon="8.652528">
<ele>313.0</ele>
<speed>6.0</speed>
<course>20.6</course>
<desc>Speed 6.0 km/h Distance 5.25 km</desc>
<time>2010-02-28T17:05:57.93</time>
<name>3382</name>
</trkpt>
<trkpt lat="48.988815" lon="8.652535">
<ele>312.5</ele>
<speed>5.4</speed>
<course>20.6</course>
<desc>Speed 5.4 km/h Distance 5.25 km</desc>
<time>2010-02-28T17:05:58.93</time>
<name>3383</name>
</trkpt>
<trkpt lat="48.988827" lon="8.652542">
<ele>312.5</ele>
<speed>5.5</speed>
<course>18.1</course>
<desc>Speed 5.5 km/h Distance 5.25 km</desc>
<time>2010-02-28T17:05:59.93</time>
<name>3384</name>
</trkpt>
<trkpt lat="48.988840" lon="8.652548">
<ele>312.0</ele>
<speed>5.5</speed>
<course>16.0</course>
<desc>Speed 5.5 km/h Distance 5.25 km</desc>
<time>2010-02-28T17:06:00.93</time>
<name>3385</name>
</trkpt>
<trkpt lat="48.988852" lon="8.652553">
<ele>312.0</ele>
<speed>5.7</speed>
<course>10.8</course>
<desc>Speed 5.7 km/h Distance 5.26 km</desc>
<time>2010-02-28T17:06:01.93</time>
<name>3386</name>
</trkpt>
<trkpt lat="48.988868" lon="8.652558">
<ele>311.0</ele>
<speed>7.2</speed>
<course>3.9</course>
<desc>Speed 7.2 km/h Distance 5.26 km</desc>
<time>2010-02-28T17:06:02.93</time>
<name>3387</name>
</trkpt>
<trkpt lat="48.988882" lon="8.652560">
<ele>311.5</ele>
<speed>5.7</speed>
<course>4.7</course>
<desc>Speed 5.7 km/h Distance 5.26 km</desc>
<time>2010-02-28T17:06:03.93</time>
<name>3388</name>
</trkpt>
<trkpt lat="48.988893" lon="8.652562">
<ele>312.0</ele>
<speed>4.5</speed>
<course>16.0</course>
<desc>Speed 4.5 km/h Distance 5.26 km</desc>
<time>2010-02-28T17:06:04.93</time>
<name>3389</name>
</trkpt>
<trkpt lat="48.988905" lon="8.652567">
<ele>312.0</ele>
<speed>5.4</speed>
<course>14.0</course>
<desc>Speed 5.4 km/h Distance 5.26 km</desc>
<time>2010-02-28T17:06:05.93</time>
<name>3390</name>
</trkpt>
<trkpt lat="48.988918" lon="8.652572">
<ele>311.5</ele>
<speed>5.4</speed>
<course>13.5</course>
<desc>Speed 5.4 km/h Distance 5.26 km</desc>
<time>2010-02-28T17:06:06.93</time>
<name>3391</name>
</trkpt>
<trkpt lat="48.988932" lon="8.652577">
<ele>311.5</ele>
<speed>5.6</speed>
<course>4.7</course>
<desc>Speed 5.6 km/h Distance 5.26 km</desc>
<time>2010-02-28T17:06:07.93</time>
<name>3392</name>
</trkpt>
<trkpt lat="48.988943" lon="8.652578">
<ele>311.0</ele>
<speed>5.1</speed>
<course>5.3</course>
<desc>Speed 5.1 km/h Distance 5.27 km</desc>
<time>2010-02-28T17:06:08.93</time>
<name>3393</name>
</trkpt>
<trkpt lat="48.988957" lon="8.652580">
<ele>311.0</ele>
<speed>5.7</speed>
<course>8.8</course>
<desc>Speed 5.7 km/h Distance 5.27 km</desc>
<time>2010-02-28T17:06:09.93</time>
<name>3394</name>
</trkpt>
<trkpt lat="48.988972" lon="8.652583">
<ele>311.0</ele>
<speed>5.9</speed>
<course>15.9</course>
<desc>Speed 5.9 km/h Distance 5.27 km</desc>
<time>2010-02-28T17:06:10.93</time>
<name>3395</name>
</trkpt>
<trkpt lat="48.988980" lon="8.652587">
<ele>310.5</ele>
<speed>3.3</speed>
<course>3.8</course>
<desc>Speed 3.3 km/h Distance 5.27 km</desc>
<time>2010-02-28T17:06:11.93</time>
<name>3396</name>
</trkpt>
<trkpt lat="48.988995" lon="8.652587">
<ele>310.5</ele>
<speed>5.7</speed>
<course>9.0</course>
<desc>Speed 5.7 km/h Distance 5.27 km</desc>
<time>2010-02-28T17:06:12.93</time>
<name>3397</name>
</trkpt>
<trkpt lat="48.989008" lon="8.652590">
<ele>310.5</ele>
<speed>5.4</speed>
<course>11.6</course>
<desc>Speed 5.4 km/h Distance 5.27 km</desc>
<time>2010-02-28T17:06:13.93</time>
<name>3398</name>
</trkpt>
<trkpt lat="48.989018" lon="8.652593">
<ele>310.0</ele>
<speed>4.1</speed>
<course>13.5</course>
<desc>Speed 4.1 km/h Distance 5.27 km</desc>
<time>2010-02-28T17:06:14.93</time>
<name>3399</name>
</trkpt>
<trkpt lat="48.989032" lon="8.652598">
<ele>310.5</ele>
<speed>5.4</speed>
<course>9.0</course>
<desc>Speed 5.4 km/h Distance 5.28 km</desc>
<time>2010-02-28T17:06:15.93</time>
<name>3400</name>
</trkpt>
<trkpt lat="48.989045" lon="8.652602">
<ele>310.5</ele>
<speed>5.2</speed>
<course>10.4</course>
<desc>Speed 5.2 km/h Distance 5.28 km</desc>
<time>2010-02-28T17:06:16.93</time>
<name>3401</name>
</trkpt>
<trkpt lat="48.989057" lon="8.652605">
<ele>310.5</ele>
<speed>4.9</speed>
<course>18.1</course>
<desc>Speed 4.9 km/h Distance 5.28 km</desc>
<time>2010-02-28T17:06:17.93</time>
<name>3402</name>
</trkpt>
<trkpt lat="48.989070" lon="8.652612">
<ele>310.5</ele>
<speed>5.5</speed>
<course>5.3</course>
<desc>Speed 5.5 km/h Distance 5.28 km</desc>
<time>2010-02-28T17:06:18.93</time>
<name>3403</name>
</trkpt>
<trkpt lat="48.989083" lon="8.652613">
<ele>310.0</ele>
<speed>4.9</speed>
<course>11.2</course>
<desc>Speed 4.9 km/h Distance 5.28 km</desc>
<time>2010-02-28T17:06:19.93</time>
<name>3404</name>
</trkpt>
<trkpt lat="48.989095" lon="8.652617">
<ele>310.5</ele>
<speed>5.0</speed>
<course>14.9</course>
<desc>Speed 5.0 km/h Distance 5.28 km</desc>
<time>2010-02-28T17:06:20.93</time>
<name>3405</name>
</trkpt>
<trkpt lat="48.989112" lon="8.652623">
<ele>311.0</ele>
<speed>5.3</speed>
<course>20.1</course>
<desc>Speed 5.3 km/h Distance 5.29 km</desc>
<time>2010-02-28T17:06:21.93</time>
<name>3406</name>
</trkpt>
<trkpt lat="48.989127" lon="8.652632">
<ele>311.0</ele>
<speed>4.9</speed>
<course>30.0</course>
<desc>Speed 4.9 km/h Distance 5.29 km</desc>
<time>2010-02-28T17:06:22.93</time>
<name>3407</name>
</trkpt>
<trkpt lat="48.989140" lon="8.652643">
<ele>311.0</ele>
<speed>5.3</speed>
<course>44.5</course>
<desc>Speed 5.3 km/h Distance 5.29 km</desc>
<time>2010-02-28T17:06:23.93</time>
<name>3408</name>
</trkpt>
<trkpt lat="48.989150" lon="8.652658">
<ele>311.0</ele>
<speed>5.0</speed>
<course>29.2</course>
<desc>Speed 5.0 km/h Distance 5.29 km</desc>
<time>2010-02-28T17:06:24.93</time>
<name>3409</name>
</trkpt>
<trkpt lat="48.989162" lon="8.652668">
<ele>311.0</ele>
<speed>5.3</speed>
<course>26.2</course>
<desc>Speed 5.3 km/h Distance 5.29 km</desc>
<time>2010-02-28T17:06:25.93</time>
<name>3410</name>
</trkpt>
<trkpt lat="48.989175" lon="8.652678">
<ele>311.0</ele>
<speed>4.9</speed>
<course>16.0</course>
<desc>Speed 4.9 km/h Distance 5.29 km</desc>
<time>2010-02-28T17:06:26.93</time>
<name>3411</name>
</trkpt>
<trkpt lat="48.989187" lon="8.652683">
<ele>310.5</ele>
<speed>4.4</speed>
<course>9.0</course>
<desc>Speed 4.4 km/h Distance 5.29 km</desc>
<time>2010-02-28T17:06:27.93</time>
<name>3412</name>
</trkpt>
<trkpt lat="48.989200" lon="8.652687">
<ele>310.5</ele>
<speed>4.8</speed>
<course>10.4</course>
<desc>Speed 4.8 km/h Distance 5.30 km</desc>
<time>2010-02-28T17:06:28.93</time>
<name>3413</name>
</trkpt>
<trkpt lat="48.989212" lon="8.652690">
<ele>310.5</ele>
<speed>4.8</speed>
<course>9.7</course>
<desc>Speed 4.8 km/h Distance 5.30 km</desc>
<time>2010-02-28T17:06:29.93</time>
<name>3414</name>
</trkpt>
<trkpt lat="48.989225" lon="8.652693">
<ele>310.5</ele>
<speed>4.7</speed>
<course>1.9</course>
<desc>Speed 4.7 km/h Distance 5.30 km</desc>
<time>2010-02-28T17:06:30.93</time>
<name>3415</name>
</trkpt>
<trkpt lat="48.989240" lon="8.652693">
<ele>310.5</ele>
<speed>4.9</speed>
<course>1.2</course>
<desc>Speed 4.9 km/h Distance 5.30 km</desc>
<time>2010-02-28T17:06:31.93</time>
<name>3416</name>
</trkpt>
<trkpt lat="48.989253" lon="8.652693">
<ele>310.0</ele>
<speed>4.9</speed>
<course>4.7</course>
<desc>Speed 4.9 km/h Distance 5.30 km</desc>
<time>2010-02-28T17:06:32.93</time>
<name>3417</name>
</trkpt>
<trkpt lat="48.989265" lon="8.652695">
<ele>310.5</ele>
<speed>4.8</speed>
<course>5.3</course>
<desc>Speed 4.8 km/h Distance 5.30 km</desc>
<time>2010-02-28T17:06:33.93</time>
<name>3418</name>
</trkpt>
<trkpt lat="48.989278" lon="8.652697">
<ele>310.0</ele>
<speed>4.6</speed>
<course>1.2</course>
<desc>Speed 4.6 km/h Distance 5.30 km</desc>
<time>2010-02-28T17:06:34.93</time>
<name>3419</name>
</trkpt>
<trkpt lat="48.989292" lon="8.652697">
<ele>310.5</ele>
<speed>4.9</speed>
<course>356.1</course>
<desc>Speed 4.9 km/h Distance 5.31 km</desc>
<time>2010-02-28T17:06:35.93</time>
<name>3420</name>
</trkpt>
<trkpt lat="48.989305" lon="8.652695">
<ele>310.0</ele>
<speed>4.3</speed>
<course>0.0</course>
<desc>Speed 4.3 km/h Distance 5.31 km</desc>
<time>2010-02-28T17:06:36.93</time>
<name>3421</name>
</trkpt>
<trkpt lat="48.989317" lon="8.652695">
<ele>309.5</ele>
<speed>4.5</speed>
<course>14.0</course>
<desc>Speed 4.5 km/h Distance 5.31 km</desc>
<time>2010-02-28T17:06:37.93</time>
<name>3422</name>
</trkpt>
<trkpt lat="48.989330" lon="8.652700">
<ele>308.5</ele>
<speed>4.2</speed>
<course>21.5</course>
<desc>Speed 4.2 km/h Distance 5.31 km</desc>
<time>2010-02-28T17:06:38.93</time>
<name>3423</name>
</trkpt>
<trkpt lat="48.989338" lon="8.652705">
<ele>308.5</ele>
<speed>3.6</speed>
<course>29.4</course>
<desc>Speed 3.6 km/h Distance 5.31 km</desc>
<time>2010-02-28T17:06:39.93</time>
<name>3424</name>
</trkpt>
<trkpt lat="48.989350" lon="8.652715">
<ele>308.0</ele>
<speed>4.2</speed>
<course>18.2</course>
<desc>Speed 4.2 km/h Distance 5.31 km</desc>
<time>2010-02-28T17:06:40.93</time>
<name>3425</name>
</trkpt>
<trkpt lat="48.989370" lon="8.652725">
<ele>308.0</ele>
<speed>7.9</speed>
<course>20.9</course>
<desc>Speed 7.9 km/h Distance 5.32 km</desc>
<time>2010-02-28T17:06:41.93</time>
<name>3426</name>
</trkpt>
<trkpt lat="48.989382" lon="8.652732">
<ele>308.5</ele>
<speed>5.1</speed>
<course>38.1</course>
<desc>Speed 5.1 km/h Distance 5.32 km</desc>
<time>2010-02-28T17:06:42.93</time>
<name>3427</name>
</trkpt>
<trkpt lat="48.989390" lon="8.652742">
<ele>308.5</ele>
<speed>3.6</speed>
<course>27.9</course>
<desc>Speed 3.6 km/h Distance 5.32 km</desc>
<time>2010-02-28T17:06:43.93</time>
<name>3428</name>
</trkpt>
<trkpt lat="48.989398" lon="8.652748">
<ele>308.5</ele>
<speed>3.6</speed>
<course>37.3</course>
<desc>Speed 3.6 km/h Distance 5.32 km</desc>
<time>2010-02-28T17:06:44.93</time>
<name>3429</name>
</trkpt>
<trkpt lat="48.989408" lon="8.652760">
<ele>307.5</ele>
<speed>5.0</speed>
<course>46.4</course>
<desc>Speed 5.0 km/h Distance 5.32 km</desc>
<time>2010-02-28T17:06:45.93</time>
<name>3430</name>
</trkpt>
<trkpt lat="48.989417" lon="8.652773">
<ele>307.0</ele>
<speed>5.2</speed>
<course>28.6</course>
<desc>Speed 5.2 km/h Distance 5.32 km</desc>
<time>2010-02-28T17:06:46.93</time>
<name>3431</name>
</trkpt>
<trkpt lat="48.989427" lon="8.652782">
<ele>305.5</ele>
<speed>4.0</speed>
<course>1.2</course>
<desc>Speed 4.0 km/h Distance 5.32 km</desc>
<time>2010-02-28T17:06:47.93</time>
<name>3432</name>
</trkpt>
<trkpt lat="48.989440" lon="8.652782">
<ele>305.5</ele>
<speed>4.5</speed>
<course>351.2</course>
<desc>Speed 4.5 km/h Distance 5.32 km</desc>
<time>2010-02-28T17:06:48.93</time>
<name>3433</name>
</trkpt>
<trkpt lat="48.989455" lon="8.652778">
<ele>306.0</ele>
<speed>5.3</speed>
<course>12.6</course>
<desc>Speed 5.3 km/h Distance 5.33 km</desc>
<time>2010-02-28T17:06:49.93</time>
<name>3434</name>
</trkpt>
<trkpt lat="48.989465" lon="8.652782">
<ele>306.5</ele>
<speed>4.1</speed>
<course>39.0</course>
<desc>Speed 4.1 km/h Distance 5.33 km</desc>
<time>2010-02-28T17:06:50.93</time>
<name>3435</name>
</trkpt>
<trkpt lat="48.989472" lon="8.652790">
<ele>306.5</ele>
<speed>3.4</speed>
<course>61.7</course>
<desc>Speed 3.4 km/h Distance 5.33 km</desc>
<time>2010-02-28T17:06:51.93</time>
<name>3436</name>
</trkpt>
<trkpt lat="48.989482" lon="8.652818">
<ele>305.5</ele>
<speed>2.2</speed>
<course>90.0</course>
<desc>Speed 2.2 km/h Distance 5.33 km</desc>
<time>2010-02-28T17:06:53.44</time>
<name>3437</name>
</trkpt>
<trkpt lat="48.989482" lon="8.652825">
<ele>305.0</ele>
<speed>1.8</speed>
<course>25.4</course>
<desc>Speed 1.8 km/h Distance 5.33 km</desc>
<time>2010-02-28T17:06:54.44</time>
<name>3438</name>
</trkpt>
<trkpt lat="48.989487" lon="8.652828">
<ele>304.5</ele>
<speed>1.3</speed>
<course>53.0</course>
<desc>Speed 1.3 km/h Distance 5.33 km</desc>
<time>2010-02-28T17:06:55.43</time>
<name>3439</name>
</trkpt>
<trkpt lat="48.989490" lon="8.652835">
<ele>304.0</ele>
<speed>2.0</speed>
<course>58.6</course>
<desc>Speed 2.0 km/h Distance 5.33 km</desc>
<time>2010-02-28T17:06:56.43</time>
<name>3440</name>
</trkpt>
<trkpt lat="48.989493" lon="8.652843">
<ele>303.5</ele>
<speed>1.6</speed>
<course>25.6</course>
<desc>Speed 1.6 km/h Distance 5.33 km</desc>
<time>2010-02-28T17:06:57.57</time>
<name>3441</name>
</trkpt>
<trkpt lat="48.989500" lon="8.652848">
<ele>302.0</ele>
<speed>1.5</speed>
<course>29.2</course>
<desc>Speed 1.5 km/h Distance 5.33 km</desc>
<time>2010-02-28T17:06:58.42</time>
<name>3442</name>
</trkpt>
<trkpt lat="48.989502" lon="8.652850">
<ele>302.0</ele>
<speed>0.7</speed>
<course>29.2</course>
<desc>Speed 0.7 km/h Distance 5.33 km</desc>
<time>2010-02-28T17:06:59.43</time>
<name>3443</name>
</trkpt>
</trkseg>
</trk>
</gpx>
